<?xml version='1.0' encoding='UTF-8'?><gpx version="1.1" creator="JPX - https://github.com/jenetics/jpx" xmlns="http://www.topografix.com/GPX/1/1"><trk><trkseg><trkpt lat="45.576649102584604" lon="10.756856545747826"><ele>205.16666666666666</ele><time>2026-04-26T06:43:55.999Z</time></trkpt><trkpt lat="45.57658095867218" lon="10.75687496587486"><ele>205.33333333333331</ele><time>2026-04-26T06:43:56.999Z</time></trkpt><trkpt lat="45.57650958760318" lon="10.756898817688812"><ele>205.5</ele><time>2026-04-26T06:43:57.999Z</time></trkpt><trkpt lat="45.57642555806952" lon="10.756926338194008"><ele>205.66666666666669</ele><time>2026-04-26T06:43:58.999Z</time></trkpt><trkpt lat="45.57633323535969" lon="10.756957854586918"><ele>205.83333333333334</ele><time>2026-04-26T06:43:59.999Z</time></trkpt><trkpt lat="45.57622359391094" lon="10.756996613293861"><ele>206.0</ele><time>2026-04-26T06:44:00.999Z</time></trkpt><trkpt lat="45.57609504779743" lon="10.757040601067404"><ele>206.4</ele><time>2026-04-26T06:44:02Z</time></trkpt><trkpt lat="45.57598238190069" lon="10.75707949400831"><ele>206.8</ele><time>2026-04-26T06:44:03Z</time></trkpt><trkpt lat="45.57588900213488" lon="10.75711188449649"><ele>207.20000000000002</ele><time>2026-04-26T06:44:04Z</time></trkpt><trkpt lat="45.57580099454138" lon="10.757139362976478"><ele>207.60000000000002</ele><time>2026-04-26T06:44:05Z</time></trkpt><trkpt lat="45.57570613470171" lon="10.757167197107133"><ele>208.0</ele><time>2026-04-26T06:44:06Z</time></trkpt><trkpt lat="45.57560026111461" lon="10.757205437312775"><ele>208.0</ele><time>2026-04-26T06:44:07Z</time></trkpt><trkpt lat="45.575491734998835" lon="10.757243295292817"><ele>208.0</ele><time>2026-04-26T06:44:08Z</time></trkpt><trkpt lat="45.57538801374035" lon="10.757277513144585"><ele>208.0</ele><time>2026-04-26T06:44:09Z</time></trkpt><trkpt lat="45.57528678344037" lon="10.7573086635658"><ele>208.0</ele><time>2026-04-26T06:44:10Z</time></trkpt><trkpt lat="45.57517552523638" lon="10.757337698712576"><ele>208.0</ele><time>2026-04-26T06:44:11Z</time></trkpt><trkpt lat="45.5750529257991" lon="10.757373362388776"><ele>207.75</ele><time>2026-04-26T06:44:12Z</time></trkpt><trkpt lat="45.57491239461066" lon="10.757419002098741"><ele>207.5</ele><time>2026-04-26T06:44:13Z</time></trkpt><trkpt lat="45.574780391724595" lon="10.757460720026952"><ele>207.25</ele><time>2026-04-26T06:44:14Z</time></trkpt><trkpt lat="45.574664140708244" lon="10.757498909108733"><ele>207.0</ele><time>2026-04-26T06:44:15Z</time></trkpt><trkpt lat="45.57456138398472" lon="10.757532543446976"><ele>206.6</ele><time>2026-04-26T06:44:16Z</time></trkpt><trkpt lat="45.574463828929616" lon="10.757569108633101"><ele>206.2</ele><time>2026-04-26T06:44:17Z</time></trkpt><trkpt lat="45.57436446905644" lon="10.757601515082575"><ele>205.8</ele><time>2026-04-26T06:44:18Z</time></trkpt><trkpt lat="45.57426608376638" lon="10.757632479050663"><ele>205.4</ele><time>2026-04-26T06:44:19Z</time></trkpt><trkpt lat="45.57416479027987" lon="10.757668268784013"><ele>205.0</ele><time>2026-04-26T06:44:20Z</time></trkpt><trkpt lat="45.5740613790204" lon="10.757704622005596"><ele>204.8</ele><time>2026-04-26T06:44:21Z</time></trkpt><trkpt lat="45.57396616371774" lon="10.757737427616336"><ele>204.6</ele><time>2026-04-26T06:44:21.999Z</time></trkpt><trkpt lat="45.57387804576312" lon="10.757765383912231"><ele>204.39999999999998</ele><time>2026-04-26T06:44:22.999Z</time></trkpt><trkpt lat="45.57379382228397" lon="10.757792971980662"><ele>204.2</ele><time>2026-04-26T06:44:23.999Z</time></trkpt><trkpt lat="45.573699720934535" lon="10.757822533383717"><ele>204.0</ele><time>2026-04-26T06:44:24.999Z</time></trkpt><trkpt lat="45.5735991756478" lon="10.757850077608614"><ele>204.33333333333334</ele><time>2026-04-26T06:44:25.999Z</time></trkpt><trkpt lat="45.57350814305614" lon="10.757878119221743"><ele>204.66666666666669</ele><time>2026-04-26T06:44:26.999Z</time></trkpt><trkpt lat="45.57342444508698" lon="10.75790463732191"><ele>205.0</ele><time>2026-04-26T06:44:27.999Z</time></trkpt><trkpt lat="45.57334693943658" lon="10.757923918523051"><ele>205.33333333333334</ele><time>2026-04-26T06:44:28.999Z</time></trkpt><trkpt lat="45.573271668771696" lon="10.757941442158712"><ele>205.66666666666669</ele><time>2026-04-26T06:44:29.999Z</time></trkpt><trkpt lat="45.57320602421018" lon="10.75796018231031"><ele>206.0</ele><time>2026-04-26T06:44:30.999Z</time></trkpt><trkpt lat="45.573089478759265" lon="10.757990703916212"><ele>206.00000000000003</ele><time>2026-04-26T06:44:32.999Z</time></trkpt><trkpt lat="45.57298765592208" lon="10.758018954002992"><ele>206.0</ele><time>2026-04-26T06:44:34.999Z</time></trkpt><trkpt lat="45.572916940553874" lon="10.758044243005584"><ele>206.0</ele><time>2026-04-26T06:44:36.999Z</time></trkpt><trkpt lat="45.57282643101557" lon="10.758070883834938"><ele>206.0</ele><time>2026-04-26T06:44:39.999Z</time></trkpt><trkpt lat="45.572762230237956" lon="10.75808811258859"><ele>206.00000000000003</ele><time>2026-04-26T06:44:41.999Z</time></trkpt><trkpt lat="45.57265366682751" lon="10.758125126418612"><ele>206.0</ele><time>2026-04-26T06:44:43.999Z</time></trkpt><trkpt lat="45.57252993989295" lon="10.758159683050437"><ele>206.16666666666669</ele><time>2026-04-26T06:44:45.999Z</time></trkpt><trkpt lat="45.572466400544805" lon="10.75818191284877"><ele>206.33333333333334</ele><time>2026-04-26T06:44:46.999Z</time></trkpt><trkpt lat="45.5724003863829" lon="10.758205606976869"><ele>206.5</ele><time>2026-04-26T06:44:47.999Z</time></trkpt><trkpt lat="45.572303442733244" lon="10.75824679351044"><ele>206.66666666666669</ele><time>2026-04-26T06:44:49.999Z</time></trkpt><trkpt lat="45.57222463905868" lon="10.758280709251519"><ele>206.83333333333334</ele><time>2026-04-26T06:44:52.999Z</time></trkpt><trkpt lat="45.57214619193021" lon="10.758294795156626"><ele>207.0</ele><time>2026-04-26T06:44:54.999Z</time></trkpt><trkpt lat="45.572055316945864" lon="10.758299643871494"><ele>207.2</ele><time>2026-04-26T06:44:56.999Z</time></trkpt><trkpt lat="45.57194407642064" lon="10.758403790804326"><ele>207.39999999999998</ele><time>2026-04-26T06:44:58.999Z</time></trkpt><trkpt lat="45.57188603495384" lon="10.75848722649463"><ele>207.60000000000002</ele><time>2026-04-26T06:44:59.999Z</time></trkpt><trkpt lat="45.57181701807109" lon="10.758557817642489"><ele>207.8</ele><time>2026-04-26T06:45:00.999Z</time></trkpt><trkpt lat="45.571729627362565" lon="10.75862810109566"><ele>208.0</ele><time>2026-04-26T06:45:01.999Z</time></trkpt><trkpt lat="45.571632874753504" lon="10.758705832567717"><ele>207.75</ele><time>2026-04-26T06:45:02.999Z</time></trkpt><trkpt lat="45.57152642969925" lon="10.758791630741095"><ele>207.5</ele><time>2026-04-26T06:45:03.999Z</time></trkpt><trkpt lat="45.57141802760813" lon="10.758876754277848"><ele>207.25</ele><time>2026-04-26T06:45:04.999Z</time></trkpt><trkpt lat="45.5713021672804" lon="10.758966710513048"><ele>207.0</ele><time>2026-04-26T06:45:05.999Z</time></trkpt><trkpt lat="45.57117342122055" lon="10.759070934851003"><ele>207.0</ele><time>2026-04-26T06:45:06.999Z</time></trkpt><trkpt lat="45.571045755305995" lon="10.759170338991623"><ele>207.0</ele><time>2026-04-26T06:45:07.999Z</time></trkpt><trkpt lat="45.57093083847045" lon="10.759262914653101"><ele>207.0</ele><time>2026-04-26T06:45:08.999Z</time></trkpt><trkpt lat="45.570822191228196" lon="10.759349551508274"><ele>207.0</ele><time>2026-04-26T06:45:09.999Z</time></trkpt><trkpt lat="45.570710744734406" lon="10.759431366332874"><ele>206.0</ele><time>2026-04-26T06:45:10.999Z</time></trkpt><trkpt lat="45.57059858139006" lon="10.759519085682857"><ele>205.0</ele><time>2026-04-26T06:45:11.999Z</time></trkpt><trkpt lat="45.57049090128257" lon="10.759609451427195"><ele>204.0</ele><time>2026-04-26T06:45:12.999Z</time></trkpt><trkpt lat="45.570395468573246" lon="10.759686665264955"><ele>203.0</ele><time>2026-04-26T06:45:13.999Z</time></trkpt><trkpt lat="45.57030541019587" lon="10.759757987493883"><ele>202.8</ele><time>2026-04-26T06:45:14.999Z</time></trkpt><trkpt lat="45.57022354778801" lon="10.759821336023649"><ele>202.60000000000002</ele><time>2026-04-26T06:45:15.999Z</time></trkpt><trkpt lat="45.57015976902813" lon="10.759870372235664"><ele>202.39999999999998</ele><time>2026-04-26T06:45:16.999Z</time></trkpt><trkpt lat="45.5700597026639" lon="10.759947828930464"><ele>202.2</ele><time>2026-04-26T06:45:18.999Z</time></trkpt><trkpt lat="45.56996512567464" lon="10.760021892399196"><ele>202.0</ele><time>2026-04-26T06:45:20.999Z</time></trkpt><trkpt lat="45.569862433251096" lon="10.760110836661271"><ele>201.99999999999997</ele><time>2026-04-26T06:45:22.999Z</time></trkpt><trkpt lat="45.56979445382265" lon="10.76016500587862"><ele>202.0</ele><time>2026-04-26T06:45:23.999Z</time></trkpt><trkpt lat="45.56971543454696" lon="10.760226487545772"><ele>202.0</ele><time>2026-04-26T06:45:24.999Z</time></trkpt><trkpt lat="45.56963829688455" lon="10.76028654342831"><ele>202.0</ele><time>2026-04-26T06:45:25.999Z</time></trkpt><trkpt lat="45.569557114014735" lon="10.760352667817946"><ele>201.99999999999997</ele><time>2026-04-26T06:45:26.999Z</time></trkpt><trkpt lat="45.56947263618117" lon="10.76041853549934"><ele>202.0</ele><time>2026-04-26T06:45:27.999Z</time></trkpt><trkpt lat="45.56938575951411" lon="10.760484524742788"><ele>202.0</ele><time>2026-04-26T06:45:28.999Z</time></trkpt><trkpt lat="45.569291378998955" lon="10.760557515650763"><ele>202.0</ele><time>2026-04-26T06:45:29.999Z</time></trkpt><trkpt lat="45.56920074173034" lon="10.760626086033065"><ele>202.0</ele><time>2026-04-26T06:45:30.999Z</time></trkpt><trkpt lat="45.56910078328707" lon="10.760707349031108"><ele>202.0</ele><time>2026-04-26T06:45:31.999Z</time></trkpt><trkpt lat="45.568991548633925" lon="10.760797525915585"><ele>202.0</ele><time>2026-04-26T06:45:32.999Z</time></trkpt><trkpt lat="45.56886337422686" lon="10.760901163866391"><ele>202.0</ele><time>2026-04-26T06:45:33.999Z</time></trkpt><trkpt lat="45.568715924479" lon="10.76101831563965"><ele>202.0</ele><time>2026-04-26T06:45:34.999Z</time></trkpt><trkpt lat="45.56858036888163" lon="10.76112271052468"><ele>201.5</ele><time>2026-04-26T06:45:35.999Z</time></trkpt><trkpt lat="45.5684514862636" lon="10.761223875674494"><ele>201.0</ele><time>2026-04-26T06:45:36.999Z</time></trkpt><trkpt lat="45.568324214440096" lon="10.761326193501779"><ele>200.5</ele><time>2026-04-26T06:45:37.999Z</time></trkpt><trkpt lat="45.568197235677566" lon="10.761429319313303"><ele>200.0</ele><time>2026-04-26T06:45:38.999Z</time></trkpt><trkpt lat="45.56806695438577" lon="10.76153530053503"><ele>200.0</ele><time>2026-04-26T06:45:39.999Z</time></trkpt><trkpt lat="45.56794235812993" lon="10.761632345483306"><ele>200.0</ele><time>2026-04-26T06:45:40.999Z</time></trkpt><trkpt lat="45.5678159246297" lon="10.761729924159743"><ele>200.0</ele><time>2026-04-26T06:45:41.999Z</time></trkpt><trkpt lat="45.567688107895904" lon="10.761829962168596"><ele>200.0</ele><time>2026-04-26T06:45:42.999Z</time></trkpt><trkpt lat="45.567562760261275" lon="10.761930881094617"><ele>199.5</ele><time>2026-04-26T06:45:43.999Z</time></trkpt><trkpt lat="45.56743945839706" lon="10.762029403042959"><ele>199.0</ele><time>2026-04-26T06:45:44.999Z</time></trkpt><trkpt lat="45.56731774862938" lon="10.762125132380909"><ele>198.5</ele><time>2026-04-26T06:45:45.999Z</time></trkpt><trkpt lat="45.56719554044654" lon="10.76222394135893"><ele>198.0</ele><time>2026-04-26T06:45:46.999Z</time></trkpt><trkpt lat="45.567075366121074" lon="10.762320177232729"><ele>199.0</ele><time>2026-04-26T06:45:47.998Z</time></trkpt><trkpt lat="45.56694983672808" lon="10.762417833025905"><ele>200.0</ele><time>2026-04-26T06:45:48.998Z</time></trkpt><trkpt lat="45.56681434397085" lon="10.76251975346586"><ele>201.0</ele><time>2026-04-26T06:45:49.998Z</time></trkpt><trkpt lat="45.56666801984117" lon="10.762620273295951"><ele>200.0</ele><time>2026-04-26T06:45:50.998Z</time></trkpt><trkpt lat="45.56651970239616" lon="10.762716899325937"><ele>199.0</ele><time>2026-04-26T06:45:51.998Z</time></trkpt><trkpt lat="45.56637741190121" lon="10.76280370364824"><ele>198.0</ele><time>2026-04-26T06:45:52.998Z</time></trkpt><trkpt lat="45.566248256766784" lon="10.762872114844027"><ele>198.5</ele><time>2026-04-26T06:45:53.998Z</time></trkpt><trkpt lat="45.56612064700813" lon="10.762927556980344"><ele>199.0</ele><time>2026-04-26T06:45:54.998Z</time></trkpt><trkpt lat="45.56600454439892" lon="10.762967386317177"><ele>199.5</ele><time>2026-04-26T06:45:55.998Z</time></trkpt><trkpt lat="45.56588876862949" lon="10.762999657059263"><ele>200.0</ele><time>2026-04-26T06:45:56.998Z</time></trkpt><trkpt lat="45.56576668938709" lon="10.76302616099305"><ele>200.0</ele><time>2026-04-26T06:45:57.998Z</time></trkpt><trkpt lat="45.56565032745827" lon="10.763047888146716"><ele>200.0</ele><time>2026-04-26T06:45:58.998Z</time></trkpt><trkpt lat="45.56552483397829" lon="10.763072759937515"><ele>200.0</ele><time>2026-04-26T06:45:59.998Z</time></trkpt><trkpt lat="45.565394978705676" lon="10.763099700527462"><ele>200.0</ele><time>2026-04-26T06:46:00.998Z</time></trkpt><trkpt lat="45.56526146661261" lon="10.763126533999928"><ele>200.5</ele><time>2026-04-26T06:46:01.998Z</time></trkpt><trkpt lat="45.565129391593565" lon="10.763153353290257"><ele>201.0</ele><time>2026-04-26T06:46:02.998Z</time></trkpt><trkpt lat="45.56500143064746" lon="10.763180588371087"><ele>201.5</ele><time>2026-04-26T06:46:03.998Z</time></trkpt><trkpt lat="45.56487602608775" lon="10.763210900247412"><ele>202.0</ele><time>2026-04-26T06:46:04.998Z</time></trkpt><trkpt lat="45.56474872204359" lon="10.763242080114482"><ele>202.0</ele><time>2026-04-26T06:46:05.998Z</time></trkpt><trkpt lat="45.56461711316304" lon="10.763281039612343"><ele>202.0</ele><time>2026-04-26T06:46:06.998Z</time></trkpt><trkpt lat="45.564484412702264" lon="10.763323075794121"><ele>202.0</ele><time>2026-04-26T06:46:07.999Z</time></trkpt><trkpt lat="45.56434952359467" lon="10.763388597058592"><ele>202.0</ele><time>2026-04-26T06:46:08.999Z</time></trkpt><trkpt lat="45.564209015809105" lon="10.763457006702192"><ele>201.5</ele><time>2026-04-26T06:46:09.999Z</time></trkpt><trkpt lat="45.56406366387013" lon="10.763531679765244"><ele>201.0</ele><time>2026-04-26T06:46:10.999Z</time></trkpt><trkpt lat="45.56392803828725" lon="10.76360531229619"><ele>200.5</ele><time>2026-04-26T06:46:11.999Z</time></trkpt><trkpt lat="45.5638069952328" lon="10.763669611243248"><ele>200.0</ele><time>2026-04-26T06:46:12.999Z</time></trkpt><trkpt lat="45.56369077914636" lon="10.763734184218983"><ele>199.66666666666669</ele><time>2026-04-26T06:46:13.999Z</time></trkpt><trkpt lat="45.56357308915405" lon="10.763795032190952"><ele>199.33333333333331</ele><time>2026-04-26T06:46:15Z</time></trkpt><trkpt lat="45.56343919518962" lon="10.763860744332908"><ele>199.0</ele><time>2026-04-26T06:46:16Z</time></trkpt><trkpt lat="45.563263776197836" lon="10.763938562251276"><ele>199.0</ele><time>2026-04-26T06:46:17Z</time></trkpt><trkpt lat="45.563070989998664" lon="10.764027691963044"><ele>199.0</ele><time>2026-04-26T06:46:18Z</time></trkpt><trkpt lat="45.5628959532358" lon="10.764114748913919"><ele>199.0</ele><time>2026-04-26T06:46:19Z</time></trkpt><trkpt lat="45.56274489477074" lon="10.764195527108372"><ele>198.75</ele><time>2026-04-26T06:46:20Z</time></trkpt><trkpt lat="45.5626034781863" lon="10.764272967428742"><ele>198.5</ele><time>2026-04-26T06:46:21Z</time></trkpt><trkpt lat="45.5624665424081" lon="10.764346199511682"><ele>198.25</ele><time>2026-04-26T06:46:22Z</time></trkpt><trkpt lat="45.56233622519" lon="10.764418221802401"><ele>198.0</ele><time>2026-04-26T06:46:23Z</time></trkpt><trkpt lat="45.56220781587841" lon="10.764492531615405"><ele>198.0</ele><time>2026-04-26T06:46:24Z</time></trkpt><trkpt lat="45.56207798261653" lon="10.76456811281254"><ele>198.0</ele><time>2026-04-26T06:46:25Z</time></trkpt><trkpt lat="45.56194992468274" lon="10.764647859707091"><ele>198.0</ele><time>2026-04-26T06:46:26Z</time></trkpt><trkpt lat="45.56183862272142" lon="10.764731702767339"><ele>198.0</ele><time>2026-04-26T06:46:27Z</time></trkpt><trkpt lat="45.56175389641181" lon="10.764813111595785"><ele>198.60000000000002</ele><time>2026-04-26T06:46:28Z</time></trkpt><trkpt lat="45.5616806604592" lon="10.764891235576247"><ele>199.20000000000002</ele><time>2026-04-26T06:46:29Z</time></trkpt><trkpt lat="45.56161794816898" lon="10.764961102481312"><ele>199.8</ele><time>2026-04-26T06:46:30Z</time></trkpt><trkpt lat="45.561541402533095" lon="10.765037176023993"><ele>200.4</ele><time>2026-04-26T06:46:32Z</time></trkpt><trkpt lat="45.56148294779217" lon="10.764845325678621"><ele>201.0</ele><time>2026-04-26T06:46:39Z</time></trkpt><trkpt lat="45.56148391310571" lon="10.764754789548407"><ele>201.0</ele><time>2026-04-26T06:46:39.999Z</time></trkpt><trkpt lat="45.56148668521645" lon="10.764654952631329"><ele>201.0</ele><time>2026-04-26T06:46:40.999Z</time></trkpt><trkpt lat="45.56149135905012" lon="10.764523835425527"><ele>201.0</ele><time>2026-04-26T06:46:41.999Z</time></trkpt><trkpt lat="45.56149574400696" lon="10.76440082226744"><ele>201.0</ele><time>2026-04-26T06:46:42.999Z</time></trkpt><trkpt lat="45.56150077497963" lon="10.764276388321802"><ele>201.0</ele><time>2026-04-26T06:46:43.999Z</time></trkpt><trkpt lat="45.561490680991106" lon="10.764135351729582"><ele>201.0</ele><time>2026-04-26T06:46:44.999Z</time></trkpt><trkpt lat="45.56149825233578" lon="10.763971609693744"><ele>201.25</ele><time>2026-04-26T06:46:45.999Z</time></trkpt><trkpt lat="45.56149945293823" lon="10.763773891883337"><ele>201.5</ele><time>2026-04-26T06:46:46.999Z</time></trkpt><trkpt lat="45.56149272692669" lon="10.763578086069534"><ele>201.75</ele><time>2026-04-26T06:46:47.999Z</time></trkpt><trkpt lat="45.561485770626945" lon="10.763406567661615"><ele>202.0</ele><time>2026-04-26T06:46:48.999Z</time></trkpt><trkpt lat="45.5614802839112" lon="10.763238300771677"><ele>202.25</ele><time>2026-04-26T06:46:49.999Z</time></trkpt><trkpt lat="45.5614705215478" lon="10.763066246671709"><ele>202.5</ele><time>2026-04-26T06:46:50.999Z</time></trkpt><trkpt lat="45.56146548706396" lon="10.762889088079737"><ele>202.75</ele><time>2026-04-26T06:46:51.999Z</time></trkpt><trkpt lat="45.56142216848854" lon="10.762699745278343"><ele>203.0</ele><time>2026-04-26T06:46:52.999Z</time></trkpt><trkpt lat="45.561370316562524" lon="10.7625069960872"><ele>203.66666666666669</ele><time>2026-04-26T06:46:53.999Z</time></trkpt><trkpt lat="45.56133501422003" lon="10.762275281711421"><ele>204.33333333333331</ele><time>2026-04-26T06:46:54.999Z</time></trkpt><trkpt lat="45.56127383280379" lon="10.76199116715451"><ele>205.0</ele><time>2026-04-26T06:46:55.999Z</time></trkpt><trkpt lat="45.561210278868785" lon="10.761699417000521"><ele>213.33333333333331</ele><time>2026-04-26T06:46:56.999Z</time></trkpt><trkpt lat="45.56114195813965" lon="10.761465404430284"><ele>221.66666666666669</ele><time>2026-04-26T06:46:57.999Z</time></trkpt><trkpt lat="45.56109252189926" lon="10.761267537453978"><ele>230.0</ele><time>2026-04-26T06:46:58.999Z</time></trkpt><trkpt lat="45.5610461983597" lon="10.761090557991114"><ele>229.2</ele><time>2026-04-26T06:46:59.999Z</time></trkpt><trkpt lat="45.56101154547579" lon="10.76092763960941"><ele>228.4</ele><time>2026-04-26T06:47:00.999Z</time></trkpt><trkpt lat="45.560978471735844" lon="10.760774471309025"><ele>227.60000000000002</ele><time>2026-04-26T06:47:01.999Z</time></trkpt><trkpt lat="45.5609549953322" lon="10.76062879987606"><ele>226.8</ele><time>2026-04-26T06:47:02.999Z</time></trkpt><trkpt lat="45.56094028702104" lon="10.7604827940724"><ele>226.0</ele><time>2026-04-26T06:47:03.999Z</time></trkpt><trkpt lat="45.56093218725585" lon="10.760340382079487"><ele>226.0</ele><time>2026-04-26T06:47:04.999Z</time></trkpt><trkpt lat="45.56091275979609" lon="10.760205296608625"><ele>226.0</ele><time>2026-04-26T06:47:05.999Z</time></trkpt><trkpt lat="45.560867726444684" lon="10.760070751708305"><ele>226.0</ele><time>2026-04-26T06:47:06.999Z</time></trkpt><trkpt lat="45.56080106844168" lon="10.75992386239242"><ele>226.0</ele><time>2026-04-26T06:47:07.999Z</time></trkpt><trkpt lat="45.56069845838892" lon="10.759765342372596"><ele>226.66666666666666</ele><time>2026-04-26T06:47:08.999Z</time></trkpt><trkpt lat="45.56057008094675" lon="10.759573113913513"><ele>227.33333333333331</ele><time>2026-04-26T06:47:09.999Z</time></trkpt><trkpt lat="45.56046052467062" lon="10.759374784085098"><ele>228.0</ele><time>2026-04-26T06:47:10.999Z</time></trkpt><trkpt lat="45.56035789035277" lon="10.759206011922585"><ele>228.0</ele><time>2026-04-26T06:47:11.999Z</time></trkpt><trkpt lat="45.56026281271215" lon="10.759046992847985"><ele>228.0</ele><time>2026-04-26T06:47:12.999Z</time></trkpt><trkpt lat="45.56017118233901" lon="10.758895854215199"><ele>228.0</ele><time>2026-04-26T06:47:13.999Z</time></trkpt><trkpt lat="45.56008662915817" lon="10.7587608297452"><ele>228.0</ele><time>2026-04-26T06:47:14.999Z</time></trkpt><trkpt lat="45.56000348413671" lon="10.758632854414042"><ele>224.75</ele><time>2026-04-26T06:47:15.999Z</time></trkpt><trkpt lat="45.559908495300554" lon="10.758491558656761"><ele>221.5</ele><time>2026-04-26T06:47:16.999Z</time></trkpt><trkpt lat="45.55980894413517" lon="10.758349357246038"><ele>218.25</ele><time>2026-04-26T06:47:17.999Z</time></trkpt><trkpt lat="45.55970966590995" lon="10.75820505512123"><ele>215.0</ele><time>2026-04-26T06:47:18.999Z</time></trkpt><trkpt lat="45.559616866457525" lon="10.758089760857665"><ele>217.75</ele><time>2026-04-26T06:47:19.999Z</time></trkpt><trkpt lat="45.55953223536153" lon="10.757960054033417"><ele>220.5</ele><time>2026-04-26T06:47:20.999Z</time></trkpt><trkpt lat="45.5594466071212" lon="10.757837991589422"><ele>223.25</ele><time>2026-04-26T06:47:21.999Z</time></trkpt><trkpt lat="45.55935953050246" lon="10.757715921671599"><ele>226.0</ele><time>2026-04-26T06:47:22.999Z</time></trkpt><trkpt lat="45.55927624086785" lon="10.757586311505928"><ele>226.0</ele><time>2026-04-26T06:47:23.999Z</time></trkpt><trkpt lat="45.559191689199906" lon="10.757451917365428"><ele>226.0</ele><time>2026-04-26T06:47:24.999Z</time></trkpt><trkpt lat="45.559113764261056" lon="10.757301857895312"><ele>226.0</ele><time>2026-04-26T06:47:25.999Z</time></trkpt><trkpt lat="45.55904279285286" lon="10.757137725395491"><ele>226.0</ele><time>2026-04-26T06:47:26.999Z</time></trkpt><trkpt lat="45.558974777088174" lon="10.75696830240743"><ele>224.5</ele><time>2026-04-26T06:47:27.999Z</time></trkpt><trkpt lat="45.5589088840707" lon="10.756791059887803"><ele>223.0</ele><time>2026-04-26T06:47:28.999Z</time></trkpt><trkpt lat="45.55884742819331" lon="10.756632264986925"><ele>221.5</ele><time>2026-04-26T06:47:29.999Z</time></trkpt><trkpt lat="45.55878875259321" lon="10.756468070661889"><ele>220.0</ele><time>2026-04-26T06:47:30.999Z</time></trkpt><trkpt lat="45.558749795444704" lon="10.756290869731561"><ele>221.75</ele><time>2026-04-26T06:47:31.999Z</time></trkpt><trkpt lat="45.55867346858968" lon="10.756137435370864"><ele>223.5</ele><time>2026-04-26T06:47:32.999Z</time></trkpt><trkpt lat="45.55860550592192" lon="10.755988023382136"><ele>225.25</ele><time>2026-04-26T06:47:33.999Z</time></trkpt><trkpt lat="45.558538997043456" lon="10.755847800154895"><ele>227.0</ele><time>2026-04-26T06:47:34.999Z</time></trkpt><trkpt lat="45.558476805557625" lon="10.755706491205464"><ele>227.0</ele><time>2026-04-26T06:47:35.999Z</time></trkpt><trkpt lat="45.55841512019597" lon="10.75554607671264"><ele>227.0</ele><time>2026-04-26T06:47:36.999Z</time></trkpt><trkpt lat="45.55834690422141" lon="10.755368736255292"><ele>227.0</ele><time>2026-04-26T06:47:37.999Z</time></trkpt><trkpt lat="45.558262625195006" lon="10.75516670247291"><ele>227.0</ele><time>2026-04-26T06:47:38.999Z</time></trkpt><trkpt lat="45.558178533646974" lon="10.754974191493806"><ele>227.5</ele><time>2026-04-26T06:47:39.999Z</time></trkpt><trkpt lat="45.55812223299367" lon="10.754793312401336"><ele>228.0</ele><time>2026-04-26T06:47:40.999Z</time></trkpt><trkpt lat="45.558064370234945" lon="10.754650407764473"><ele>228.5</ele><time>2026-04-26T06:47:41.999Z</time></trkpt><trkpt lat="45.55801701630162" lon="10.75451464255155"><ele>229.0</ele><time>2026-04-26T06:47:42.999Z</time></trkpt><trkpt lat="45.55797329807925" lon="10.754380442459073"><ele>229.2</ele><time>2026-04-26T06:47:43.999Z</time></trkpt><trkpt lat="45.5579893393627" lon="10.754231972265925"><ele>229.39999999999998</ele><time>2026-04-26T06:47:44.999Z</time></trkpt><trkpt lat="45.55797249169784" lon="10.754083680454647"><ele>229.6</ele><time>2026-04-26T06:47:45.999Z</time></trkpt><trkpt lat="45.55795607875987" lon="10.753931474616321"><ele>229.8</ele><time>2026-04-26T06:47:46.999Z</time></trkpt><trkpt lat="45.55790550098678" lon="10.753771940180927"><ele>230.0</ele><time>2026-04-26T06:47:47.999Z</time></trkpt><trkpt lat="45.55783898785163" lon="10.753625751745197"><ele>229.25</ele><time>2026-04-26T06:47:48.999Z</time></trkpt><trkpt lat="45.55774435923023" lon="10.753476857893839"><ele>228.5</ele><time>2026-04-26T06:47:49.999Z</time></trkpt><trkpt lat="45.55763724266429" lon="10.753348281998969"><ele>227.75</ele><time>2026-04-26T06:47:50.999Z</time></trkpt><trkpt lat="45.557556785647506" lon="10.753217083647352"><ele>227.0</ele><time>2026-04-26T06:47:51.999Z</time></trkpt><trkpt lat="45.55747812623007" lon="10.753114654881061"><ele>227.0</ele><time>2026-04-26T06:47:52.999Z</time></trkpt><trkpt lat="45.55739272188771" lon="10.753031676826398"><ele>227.0</ele><time>2026-04-26T06:47:53.999Z</time></trkpt><trkpt lat="45.55732587459213" lon="10.75295177488935"><ele>227.0</ele><time>2026-04-26T06:47:54.999Z</time></trkpt><trkpt lat="45.5572575341224" lon="10.752880888022036"><ele>227.0</ele><time>2026-04-26T06:47:55.999Z</time></trkpt><trkpt lat="45.55717498096782" lon="10.752798618884713"><ele>227.0</ele><time>2026-04-26T06:47:56.999Z</time></trkpt><trkpt lat="45.55708541624939" lon="10.752706430528702"><ele>227.5</ele><time>2026-04-26T06:47:57.999Z</time></trkpt><trkpt lat="45.55698380402486" lon="10.752618075738095"><ele>228.0</ele><time>2026-04-26T06:47:58.999Z</time></trkpt><trkpt lat="45.55687352751207" lon="10.75252425622987"><ele>228.5</ele><time>2026-04-26T06:47:59.999Z</time></trkpt><trkpt lat="45.556752103324534" lon="10.752450561087247"><ele>229.0</ele><time>2026-04-26T06:48:00.999Z</time></trkpt><trkpt lat="45.55662200905905" lon="10.7523598375788"><ele>229.0</ele><time>2026-04-26T06:48:01.999Z</time></trkpt><trkpt lat="45.55645037897422" lon="10.752285644352735"><ele>229.0</ele><time>2026-04-26T06:48:02.999Z</time></trkpt><trkpt lat="45.55625553655533" lon="10.75222458997666"><ele>229.0</ele><time>2026-04-26T06:48:03.999Z</time></trkpt><trkpt lat="45.556075496748946" lon="10.752168863732393"><ele>230.0</ele><time>2026-04-26T06:48:04.999Z</time></trkpt><trkpt lat="45.55593328997419" lon="10.752080661392242"><ele>231.0</ele><time>2026-04-26T06:48:05.999Z</time></trkpt><trkpt lat="45.55581213172462" lon="10.75199902169548"><ele>232.0</ele><time>2026-04-26T06:48:06.999Z</time></trkpt><trkpt lat="45.555707817358815" lon="10.751918380665822"><ele>233.0</ele><time>2026-04-26T06:48:07.999Z</time></trkpt><trkpt lat="45.55561601725718" lon="10.751857442852367"><ele>233.66666666666669</ele><time>2026-04-26T06:48:08.999Z</time></trkpt><trkpt lat="45.555553878919014" lon="10.751769498456934"><ele>234.33333333333334</ele><time>2026-04-26T06:48:09.999Z</time></trkpt><trkpt lat="45.555551315739976" lon="10.751665998106295"><ele>235.0</ele><time>2026-04-26T06:48:10.999Z</time></trkpt><trkpt lat="45.55554857800851" lon="10.751553594958473"><ele>235.66666666666669</ele><time>2026-04-26T06:48:12.999Z</time></trkpt><trkpt lat="45.555608560053116" lon="10.751627166330467"><ele>236.33333333333334</ele><time>2026-04-26T06:48:16Z</time></trkpt><trkpt lat="45.555702926349376" lon="10.75169358903858"><ele>237.0</ele><time>2026-04-26T06:49:07Z</time></trkpt><trkpt lat="45.555813069976615" lon="10.751694377543101"><ele>237.0</ele><time>2026-04-26T06:49:09Z</time></trkpt><trkpt lat="45.55593405384283" lon="10.751678297343869"><ele>237.0</ele><time>2026-04-26T06:49:11Z</time></trkpt><trkpt lat="45.556015028111794" lon="10.751655898730995"><ele>237.0</ele><time>2026-04-26T06:49:12Z</time></trkpt><trkpt lat="45.55609887454878" lon="10.751612703888135"><ele>237.0</ele><time>2026-04-26T06:49:13Z</time></trkpt><trkpt lat="45.55617771332616" lon="10.751545352625312"><ele>237.0</ele><time>2026-04-26T06:49:14Z</time></trkpt><trkpt lat="45.55625759423501" lon="10.751475760375763"><ele>236.5</ele><time>2026-04-26T06:49:16Z</time></trkpt><trkpt lat="45.55633721828842" lon="10.751479314193089"><ele>236.0</ele><time>2026-04-26T06:49:17Z</time></trkpt><trkpt lat="45.556448221066844" lon="10.751458172646917"><ele>235.5</ele><time>2026-04-26T06:49:18Z</time></trkpt><trkpt lat="45.55657725530272" lon="10.751435113782042"><ele>235.0</ele><time>2026-04-26T06:49:19Z</time></trkpt><trkpt lat="45.55672497061937" lon="10.751408716598762"><ele>235.0</ele><time>2026-04-26T06:49:20Z</time></trkpt><trkpt lat="45.556864248608335" lon="10.751383141374898"><ele>235.0</ele><time>2026-04-26T06:49:21Z</time></trkpt><trkpt lat="45.55700209983132" lon="10.751354713103478"><ele>235.0</ele><time>2026-04-26T06:49:22Z</time></trkpt><trkpt lat="45.557125045422275" lon="10.751306845570351"><ele>235.0</ele><time>2026-04-26T06:49:23Z</time></trkpt><trkpt lat="45.55723965225186" lon="10.751291553421549"><ele>234.4</ele><time>2026-04-26T06:49:24Z</time></trkpt><trkpt lat="45.55734196171928" lon="10.75127615609695"><ele>233.8</ele><time>2026-04-26T06:49:25Z</time></trkpt><trkpt lat="45.557435171986526" lon="10.751286155641212"><ele>233.2</ele><time>2026-04-26T06:49:26Z</time></trkpt><trkpt lat="45.55753351510069" lon="10.751283211311273"><ele>232.6</ele><time>2026-04-26T06:49:27Z</time></trkpt><trkpt lat="45.55764243070855" lon="10.75129266459455"><ele>232.0</ele><time>2026-04-26T06:49:28Z</time></trkpt><trkpt lat="45.557760816844926" lon="10.751323963808042"><ele>233.5</ele><time>2026-04-26T06:49:29Z</time></trkpt><trkpt lat="45.55788568298401" lon="10.75136185273483"><ele>235.0</ele><time>2026-04-26T06:49:30Z</time></trkpt><trkpt lat="45.55798458679392" lon="10.751391999426122"><ele>236.5</ele><time>2026-04-26T06:49:31Z</time></trkpt><trkpt lat="45.55808638818192" lon="10.751427723547032"><ele>238.0</ele><time>2026-04-26T06:49:32Z</time></trkpt><trkpt lat="45.5582040820509" lon="10.751456412067904"><ele>238.0</ele><time>2026-04-26T06:49:33Z</time></trkpt><trkpt lat="45.558307554765" lon="10.751521187936827"><ele>238.0</ele><time>2026-04-26T06:49:34Z</time></trkpt><trkpt lat="45.558402654828804" lon="10.751589871500421"><ele>238.0</ele><time>2026-04-26T06:49:35Z</time></trkpt><trkpt lat="45.55848848143691" lon="10.751693380705882"><ele>238.0</ele><time>2026-04-26T06:49:36Z</time></trkpt><trkpt lat="45.55860109292065" lon="10.751783431784602"><ele>237.25</ele><time>2026-04-26T06:49:37Z</time></trkpt><trkpt lat="45.558720186459226" lon="10.751903300328115"><ele>236.5</ele><time>2026-04-26T06:49:37.999Z</time></trkpt><trkpt lat="45.5588429146955" lon="10.752028007362737"><ele>235.75</ele><time>2026-04-26T06:49:38.999Z</time></trkpt><trkpt lat="45.5589475676641" lon="10.75212268337293"><ele>235.0</ele><time>2026-04-26T06:49:39.999Z</time></trkpt><trkpt lat="45.559042434505" lon="10.75220368846807"><ele>235.0</ele><time>2026-04-26T06:49:40.999Z</time></trkpt><trkpt lat="45.55914155145811" lon="10.75228863923559"><ele>235.0</ele><time>2026-04-26T06:49:41.999Z</time></trkpt><trkpt lat="45.55923315085814" lon="10.752364612733412"><ele>235.0</ele><time>2026-04-26T06:49:42.999Z</time></trkpt><trkpt lat="45.55932400031527" lon="10.752459060698406"><ele>235.0</ele><time>2026-04-26T06:49:43.999Z</time></trkpt><trkpt lat="45.55942172435446" lon="10.752583698875432"><ele>233.66666666666666</ele><time>2026-04-26T06:49:44.999Z</time></trkpt><trkpt lat="45.55954832885581" lon="10.75266397908718"><ele>232.33333333333331</ele><time>2026-04-26T06:49:45.999Z</time></trkpt><trkpt lat="45.55980200955142" lon="10.752877283667415"><ele>231.0</ele><time>2026-04-26T06:49:47.999Z</time></trkpt><trkpt lat="45.55991798666822" lon="10.752930590946997"><ele>231.0</ele><time>2026-04-26T06:49:48.999Z</time></trkpt><trkpt lat="45.56000681196603" lon="10.753007607843085"><ele>231.00000000000003</ele><time>2026-04-26T06:49:49.999Z</time></trkpt><trkpt lat="45.56011607651714" lon="10.753060464297612"><ele>231.00000000000003</ele><time>2026-04-26T06:49:50.999Z</time></trkpt><trkpt lat="45.56022854610926" lon="10.753091504172158"><ele>231.0</ele><time>2026-04-26T06:49:51.999Z</time></trkpt><trkpt lat="45.56034229631861" lon="10.753086092239982"><ele>231.0</ele><time>2026-04-26T06:49:52.999Z</time></trkpt><trkpt lat="45.56046069138162" lon="10.753096804475023"><ele>232.0</ele><time>2026-04-26T06:49:53.999Z</time></trkpt><trkpt lat="45.56058248068794" lon="10.753090941694541"><ele>233.00000000000003</ele><time>2026-04-26T06:49:54.999Z</time></trkpt><trkpt lat="45.56069205598076" lon="10.753091188555391"><ele>234.00000000000003</ele><time>2026-04-26T06:49:55.999Z</time></trkpt><trkpt lat="45.560795740565865" lon="10.753134720168466"><ele>235.0</ele><time>2026-04-26T06:49:56.999Z</time></trkpt><trkpt lat="45.56089069621639" lon="10.753144796608266"><ele>236.0</ele><time>2026-04-26T06:49:57.999Z</time></trkpt><trkpt lat="45.560951526784955" lon="10.753172693767981"><ele>236.0</ele><time>2026-04-26T06:49:58.999Z</time></trkpt><trkpt lat="45.56105148876349" lon="10.753221540670326"><ele>236.00000000000003</ele><time>2026-04-26T06:49:59.999Z</time></trkpt><trkpt lat="45.561159980253024" lon="10.753280616030779"><ele>236.00000000000003</ele><time>2026-04-26T06:50:00.999Z</time></trkpt><trkpt lat="45.561248238587" lon="10.753318134736116"><ele>236.0</ele><time>2026-04-26T06:50:01.999Z</time></trkpt><trkpt lat="45.561322306375395" lon="10.75337191965391"><ele>236.0</ele><time>2026-04-26T06:50:02.999Z</time></trkpt><trkpt lat="45.56141298454663" lon="10.753463539564727"><ele>234.60000000000002</ele><time>2026-04-26T06:50:03.999Z</time></trkpt><trkpt lat="45.561499201844946" lon="10.753539100167298"><ele>233.20000000000002</ele><time>2026-04-26T06:50:04.999Z</time></trkpt><trkpt lat="45.56158452719435" lon="10.753597047166007"><ele>231.79999999999998</ele><time>2026-04-26T06:50:05.999Z</time></trkpt><trkpt lat="45.561666478282135" lon="10.753628683627982"><ele>230.39999999999998</ele><time>2026-04-26T06:50:06.999Z</time></trkpt><trkpt lat="45.56174832704019" lon="10.753651503341208"><ele>229.0</ele><time>2026-04-26T06:50:07.999Z</time></trkpt><trkpt lat="45.561840265052275" lon="10.75366043221838"><ele>229.0</ele><time>2026-04-26T06:50:08.999Z</time></trkpt><trkpt lat="45.561933730991136" lon="10.753660609119871"><ele>229.0</ele><time>2026-04-26T06:50:09.999Z</time></trkpt><trkpt lat="45.56206037867474" lon="10.753646075093863"><ele>229.0</ele><time>2026-04-26T06:50:10.999Z</time></trkpt><trkpt lat="45.56219946273693" lon="10.753648731799364"><ele>229.0</ele><time>2026-04-26T06:50:11.999Z</time></trkpt><trkpt lat="45.562312981357465" lon="10.753647194703069"><ele>230.0</ele><time>2026-04-26T06:50:12.999Z</time></trkpt><trkpt lat="45.56241410287868" lon="10.753632726207012"><ele>231.0</ele><time>2026-04-26T06:50:13.999Z</time></trkpt><trkpt lat="45.562532731231" lon="10.753662260698453"><ele>232.0</ele><time>2026-04-26T06:50:14.999Z</time></trkpt><trkpt lat="45.5626576781035" lon="10.753723951415491"><ele>233.0</ele><time>2026-04-26T06:50:15.999Z</time></trkpt><trkpt lat="45.56277193835284" lon="10.753746410557756"><ele>233.0</ele><time>2026-04-26T06:50:16.999Z</time></trkpt><trkpt lat="45.56284847814683" lon="10.753779828677501"><ele>233.0</ele><time>2026-04-26T06:50:17.999Z</time></trkpt><trkpt lat="45.562930949947884" lon="10.753778594694694"><ele>233.0</ele><time>2026-04-26T06:50:18.999Z</time></trkpt><trkpt lat="45.563022353270156" lon="10.753750163139406"><ele>233.0</ele><time>2026-04-26T06:50:20.001Z</time></trkpt><trkpt lat="45.563116158512095" lon="10.753712016839396"><ele>233.0</ele><time>2026-04-26T06:50:21.001Z</time></trkpt><trkpt lat="45.563217012457535" lon="10.75364764802127"><ele>233.8</ele><time>2026-04-26T06:50:22.001Z</time></trkpt><trkpt lat="45.56330006366898" lon="10.753562434717253"><ele>234.60000000000002</ele><time>2026-04-26T06:50:23.001Z</time></trkpt><trkpt lat="45.56336995242449" lon="10.753462360893751"><ele>235.39999999999998</ele><time>2026-04-26T06:50:24.001Z</time></trkpt><trkpt lat="45.56343026147312" lon="10.753364686710585"><ele>236.2</ele><time>2026-04-26T06:50:25.001Z</time></trkpt><trkpt lat="45.56347262678657" lon="10.75326375638588"><ele>237.0</ele><time>2026-04-26T06:50:26.001Z</time></trkpt><trkpt lat="45.56352420978971" lon="10.753184266592347"><ele>239.16666666666666</ele><time>2026-04-26T06:50:27.001Z</time></trkpt><trkpt lat="45.56358081659677" lon="10.753143836746727"><ele>241.33333333333331</ele><time>2026-04-26T06:50:28.001Z</time></trkpt><trkpt lat="45.56366726673693" lon="10.752995323029902"><ele>243.5</ele><time>2026-04-26T06:50:30.001Z</time></trkpt><trkpt lat="45.56367012667739" lon="10.752882164934116"><ele>245.66666666666666</ele><time>2026-04-26T06:50:31.001Z</time></trkpt><trkpt lat="45.56364380420562" lon="10.752768340490585"><ele>247.83333333333331</ele><time>2026-04-26T06:50:32.001Z</time></trkpt><trkpt lat="45.563640176906105" lon="10.752661693132039"><ele>250.0</ele><time>2026-04-26T06:50:34.001Z</time></trkpt><trkpt lat="45.56373874291166" lon="10.752660276164109"><ele>250.99999999999997</ele><time>2026-04-26T06:50:36.001Z</time></trkpt><trkpt lat="45.56378105886216" lon="10.752795014415097"><ele>252.0</ele><time>2026-04-26T06:50:37.001Z</time></trkpt><trkpt lat="45.56379644783192" lon="10.752926183399717"><ele>253.0</ele><time>2026-04-26T06:50:38.001Z</time></trkpt><trkpt lat="45.56380473000258" lon="10.753063137890765"><ele>254.0</ele><time>2026-04-26T06:50:39.001Z</time></trkpt><trkpt lat="45.56382129475165" lon="10.753177545659902"><ele>254.99999999999997</ele><time>2026-04-26T06:50:40.001Z</time></trkpt><trkpt lat="45.563876027553384" lon="10.753240558410491"><ele>256.0</ele><time>2026-04-26T06:50:42Z</time></trkpt><trkpt lat="45.56395004536525" lon="10.753228077682039"><ele>256.0</ele><time>2026-04-26T06:50:43Z</time></trkpt><trkpt lat="45.563983574923846" lon="10.753096831747138"><ele>256.0</ele><time>2026-04-26T06:50:44Z</time></trkpt><trkpt lat="45.563953433675536" lon="10.752928152283799"><ele>256.0</ele><time>2026-04-26T06:50:45Z</time></trkpt><trkpt lat="45.56392347836242" lon="10.752726378412207"><ele>256.0</ele><time>2026-04-26T06:50:46Z</time></trkpt><trkpt lat="45.563887188827906" lon="10.752497932790384"><ele>257.0</ele><time>2026-04-26T06:50:47Z</time></trkpt><trkpt lat="45.56386623381044" lon="10.752315829119588"><ele>258.0</ele><time>2026-04-26T06:50:48Z</time></trkpt><trkpt lat="45.56387024893587" lon="10.752181537000734"><ele>259.0</ele><time>2026-04-26T06:50:49Z</time></trkpt><trkpt lat="45.56391374093302" lon="10.75207891275844"><ele>260.0</ele><time>2026-04-26T06:50:50Z</time></trkpt><trkpt lat="45.563973661355334" lon="10.751985021419626"><ele>261.0</ele><time>2026-04-26T06:50:51Z</time></trkpt><trkpt lat="45.56408239880429" lon="10.751884948136196"><ele>263.6666666666667</ele><time>2026-04-26T06:50:52Z</time></trkpt><trkpt lat="45.56422990596053" lon="10.751799769609894"><ele>266.33333333333337</ele><time>2026-04-26T06:50:53Z</time></trkpt><trkpt lat="45.56436857204181" lon="10.751685503226216"><ele>269.0</ele><time>2026-04-26T06:50:54Z</time></trkpt><trkpt lat="45.56453054877293" lon="10.751597981512571"><ele>270.75</ele><time>2026-04-26T06:50:55Z</time></trkpt><trkpt lat="45.56464824040021" lon="10.75146580620043"><ele>272.5</ele><time>2026-04-26T06:50:56Z</time></trkpt><trkpt lat="45.56474591925977" lon="10.751375277160511"><ele>274.25</ele><time>2026-04-26T06:50:57Z</time></trkpt><trkpt lat="45.56480818294883" lon="10.751269044840736"><ele>276.0</ele><time>2026-04-26T06:50:58Z</time></trkpt><trkpt lat="45.564859608389355" lon="10.75115856262985"><ele>276.0</ele><time>2026-04-26T06:50:59Z</time></trkpt><trkpt lat="45.56490135615522" lon="10.751078155290474"><ele>276.0</ele><time>2026-04-26T06:51:00Z</time></trkpt><trkpt lat="45.56498740214737" lon="10.75096116515448"><ele>276.0</ele><time>2026-04-26T06:51:02Z</time></trkpt><trkpt lat="45.56508028817491" lon="10.750895175809534"><ele>276.0</ele><time>2026-04-26T06:51:03.999Z</time></trkpt><trkpt lat="45.5651417999799" lon="10.750865208360787"><ele>276.0</ele><time>2026-04-26T06:51:04.999Z</time></trkpt><trkpt lat="45.5652236231195" lon="10.75082571410995"><ele>276.0</ele><time>2026-04-26T06:51:05.999Z</time></trkpt><trkpt lat="45.565314753620456" lon="10.750772784562564"><ele>275.40000000000003</ele><time>2026-04-26T06:51:06.999Z</time></trkpt><trkpt lat="45.5654047023493" lon="10.750709729661422"><ele>274.8</ele><time>2026-04-26T06:51:07.999Z</time></trkpt><trkpt lat="45.56548509172831" lon="10.75064284626143"><ele>274.20000000000005</ele><time>2026-04-26T06:51:08.999Z</time></trkpt><trkpt lat="45.56556572610809" lon="10.750573059967877"><ele>273.6</ele><time>2026-04-26T06:51:09.999Z</time></trkpt><trkpt lat="45.565638233745624" lon="10.750494232364243"><ele>273.0</ele><time>2026-04-26T06:51:10.999Z</time></trkpt><trkpt lat="45.565704963790694" lon="10.750421725425793"><ele>273.0</ele><time>2026-04-26T06:51:11.999Z</time></trkpt><trkpt lat="45.56578086283228" lon="10.750349113477961"><ele>273.0</ele><time>2026-04-26T06:51:12.999Z</time></trkpt><trkpt lat="45.56585973060977" lon="10.750272006160209"><ele>273.0</ele><time>2026-04-26T06:51:13.999Z</time></trkpt><trkpt lat="45.565945722769314" lon="10.750177414518706"><ele>273.0</ele><time>2026-04-26T06:51:14.999Z</time></trkpt><trkpt lat="45.56603758463827" lon="10.750087278665537"><ele>273.0</ele><time>2026-04-26T06:51:15.999Z</time></trkpt><trkpt lat="45.566140114179554" lon="10.74999003909777"><ele>272.8</ele><time>2026-04-26T06:51:16.999Z</time></trkpt><trkpt lat="45.56624789412164" lon="10.749891717897675"><ele>272.6</ele><time>2026-04-26T06:51:17.999Z</time></trkpt><trkpt lat="45.566342521134885" lon="10.749798935875463"><ele>272.4</ele><time>2026-04-26T06:51:18.999Z</time></trkpt><trkpt lat="45.56641734371814" lon="10.749717004642049"><ele>272.2</ele><time>2026-04-26T06:51:19.999Z</time></trkpt><trkpt lat="45.56649510766492" lon="10.749661938579193"><ele>272.0</ele><time>2026-04-26T06:51:20.999Z</time></trkpt><trkpt lat="45.566554397155876" lon="10.749600380331676"><ele>272.0</ele><time>2026-04-26T06:51:21.999Z</time></trkpt><trkpt lat="45.5666258433271" lon="10.749514873891771"><ele>272.0</ele><time>2026-04-26T06:51:22.999Z</time></trkpt><trkpt lat="45.566678531742355" lon="10.749441773007108"><ele>272.0</ele><time>2026-04-26T06:51:23.999Z</time></trkpt><trkpt lat="45.56673983284921" lon="10.749311164808892"><ele>272.0</ele><time>2026-04-26T06:51:25.999Z</time></trkpt><trkpt lat="45.56675070633066" lon="10.749194200194143"><ele>272.0</ele><time>2026-04-26T06:51:27.999Z</time></trkpt><trkpt lat="45.56671769080515" lon="10.749078068728778"><ele>272.0</ele><time>2026-04-26T06:51:28.999Z</time></trkpt><trkpt lat="45.56669276735386" lon="10.748964144529447"><ele>271.1666666666667</ele><time>2026-04-26T06:51:29.999Z</time></trkpt><trkpt lat="45.56664542544293" lon="10.748842641130201"><ele>270.33333333333337</ele><time>2026-04-26T06:51:30.999Z</time></trkpt><trkpt lat="45.56659711378724" lon="10.748742788274534"><ele>269.5</ele><time>2026-04-26T06:51:31.999Z</time></trkpt><trkpt lat="45.5665457321583" lon="10.748674475562733"><ele>268.6666666666667</ele><time>2026-04-26T06:51:32.999Z</time></trkpt><trkpt lat="45.56649717960463" lon="10.748577770667731"><ele>267.8333333333333</ele><time>2026-04-26T06:51:33.999Z</time></trkpt><trkpt lat="45.56646634453301" lon="10.748497305399031"><ele>267.0</ele><time>2026-04-26T06:51:34.999Z</time></trkpt><trkpt lat="45.56642983126635" lon="10.74836587388183"><ele>264.8333333333333</ele><time>2026-04-26T06:51:36.999Z</time></trkpt><trkpt lat="45.566405853054015" lon="10.748259795129849"><ele>262.6666666666667</ele><time>2026-04-26T06:51:38.999Z</time></trkpt><trkpt lat="45.56637972720409" lon="10.748130800603214"><ele>260.5</ele><time>2026-04-26T06:51:41.999Z</time></trkpt><trkpt lat="45.56635563951873" lon="10.748034660491872"><ele>258.33333333333337</ele><time>2026-04-26T06:51:43.999Z</time></trkpt><trkpt lat="45.566342618376915" lon="10.747937272272537"><ele>256.1666666666667</ele><time>2026-04-26T06:51:45.999Z</time></trkpt><trkpt lat="45.56637444308542" lon="10.747809964602027"><ele>254.0</ele><time>2026-04-26T06:51:49.999Z</time></trkpt><trkpt lat="45.56641688536079" lon="10.747691020540604"><ele>253.14285714285717</ele><time>2026-04-26T06:51:51.999Z</time></trkpt><trkpt lat="45.566472462149896" lon="10.747648719322056"><ele>252.28571428571428</ele><time>2026-04-26T06:51:53.999Z</time></trkpt><trkpt lat="45.56652473031714" lon="10.74759409392761"><ele>251.42857142857144</ele><time>2026-04-26T06:51:56.999Z</time></trkpt><trkpt lat="45.56659588128365" lon="10.747530449694892"><ele>250.57142857142858</ele><time>2026-04-26T06:51:59.999Z</time></trkpt><trkpt lat="45.56665794698404" lon="10.747488819937903"><ele>249.71428571428572</ele><time>2026-04-26T06:52:01.999Z</time></trkpt><trkpt lat="45.56672761121688" lon="10.747438490255053"><ele>248.85714285714286</ele><time>2026-04-26T06:52:03.999Z</time></trkpt><trkpt lat="45.56678631066395" lon="10.747402199017197"><ele>248.0</ele><time>2026-04-26T06:52:05.999Z</time></trkpt><trkpt lat="45.56686084143172" lon="10.747392328838588"><ele>248.0</ele><time>2026-04-26T06:52:07.999Z</time></trkpt><trkpt lat="45.56695406424232" lon="10.747393762068654"><ele>248.0</ele><time>2026-04-26T06:52:09.999Z</time></trkpt><trkpt lat="45.567057084333136" lon="10.747415931940019"><ele>248.0</ele><time>2026-04-26T06:52:11.999Z</time></trkpt><trkpt lat="45.5671642420476" lon="10.747440025834663"><ele>248.0</ele><time>2026-04-26T06:52:13.999Z</time></trkpt><trkpt lat="45.56729529559722" lon="10.747417881108888"><ele>248.0</ele><time>2026-04-26T06:52:15.999Z</time></trkpt><trkpt lat="45.567407915714014" lon="10.747385821232495"><ele>246.00000000000003</ele><time>2026-04-26T06:52:17.999Z</time></trkpt><trkpt lat="45.567472657992205" lon="10.747364258531173"><ele>244.0</ele><time>2026-04-26T06:52:18.999Z</time></trkpt><trkpt lat="45.567596817052014" lon="10.747355236962518"><ele>242.0</ele><time>2026-04-26T06:52:20.999Z</time></trkpt><trkpt lat="45.567675041232775" lon="10.747349157953284"><ele>240.0</ele><time>2026-04-26T06:52:21.999Z</time></trkpt><trkpt lat="45.567738453275794" lon="10.74734520779962"><ele>238.00000000000003</ele><time>2026-04-26T06:52:22.999Z</time></trkpt><trkpt lat="45.567804892256504" lon="10.747334278874558"><ele>236.0</ele><time>2026-04-26T06:52:23.999Z</time></trkpt><trkpt lat="45.567883615358895" lon="10.7473360428213"><ele>235.16666666666669</ele><time>2026-04-26T06:52:24.999Z</time></trkpt><trkpt lat="45.567962862043366" lon="10.747336600903932"><ele>234.33333333333334</ele><time>2026-04-26T06:52:26Z</time></trkpt><trkpt lat="45.56803007012007" lon="10.747334856386392"><ele>233.5</ele><time>2026-04-26T06:52:27Z</time></trkpt><trkpt lat="45.56809705531672" lon="10.747332914322534"><ele>232.66666666666669</ele><time>2026-04-26T06:52:28Z</time></trkpt><trkpt lat="45.56817035704957" lon="10.747328809033444"><ele>231.83333333333334</ele><time>2026-04-26T06:52:29Z</time></trkpt><trkpt lat="45.56828653304809" lon="10.747345365115672"><ele>231.0</ele><time>2026-04-26T06:52:31Z</time></trkpt><trkpt lat="45.568391849493814" lon="10.74738242220969"><ele>231.0</ele><time>2026-04-26T06:52:33Z</time></trkpt><trkpt lat="45.568483601302034" lon="10.747436403861162"><ele>231.00000000000003</ele><time>2026-04-26T06:52:35Z</time></trkpt><trkpt lat="45.56857361982184" lon="10.747479299655597"><ele>231.00000000000003</ele><time>2026-04-26T06:52:37Z</time></trkpt><trkpt lat="45.56868656587253" lon="10.747535112949443"><ele>231.0</ele><time>2026-04-26T06:52:39Z</time></trkpt><trkpt lat="45.568757468924595" lon="10.747590378959645"><ele>231.0</ele><time>2026-04-26T06:52:40Z</time></trkpt><trkpt lat="45.56882258922323" lon="10.747659710066477"><ele>230.0</ele><time>2026-04-26T06:52:41Z</time></trkpt><trkpt lat="45.56888088002349" lon="10.747730553023112"><ele>229.0</ele><time>2026-04-26T06:52:42Z</time></trkpt><trkpt lat="45.56892578106613" lon="10.747793726043122"><ele>228.0</ele><time>2026-04-26T06:52:43Z</time></trkpt><trkpt lat="45.56898317330268" lon="10.747872592385153"><ele>227.0</ele><time>2026-04-26T06:52:44Z</time></trkpt><trkpt lat="45.56905251628251" lon="10.747956541504221"><ele>226.0</ele><time>2026-04-26T06:52:45Z</time></trkpt><trkpt lat="45.56911665692731" lon="10.748034437523602"><ele>225.0</ele><time>2026-04-26T06:52:46Z</time></trkpt><trkpt lat="45.569176484614026" lon="10.748100231156862"><ele>225.0</ele><time>2026-04-26T06:52:47Z</time></trkpt><trkpt lat="45.5692447045781" lon="10.748170146140751"><ele>225.0</ele><time>2026-04-26T06:52:48Z</time></trkpt><trkpt lat="45.56930326107954" lon="10.74823109509789"><ele>225.0</ele><time>2026-04-26T06:52:49Z</time></trkpt><trkpt lat="45.56934519564094" lon="10.748301283099169"><ele>225.0</ele><time>2026-04-26T06:52:50Z</time></trkpt><trkpt lat="45.569368116797186" lon="10.748419970418281"><ele>225.0</ele><time>2026-04-26T06:52:51Z</time></trkpt><trkpt lat="45.56936757831262" lon="10.748567000481412"><ele>225.0</ele><time>2026-04-26T06:52:52Z</time></trkpt><trkpt lat="45.569370573284985" lon="10.748751465238701"><ele>225.25</ele><time>2026-04-26T06:52:53Z</time></trkpt><trkpt lat="45.56938352054938" lon="10.748936429021231"><ele>225.5</ele><time>2026-04-26T06:52:54Z</time></trkpt><trkpt lat="45.5694058240867" lon="10.749105290811087"><ele>225.75</ele><time>2026-04-26T06:52:55Z</time></trkpt><trkpt lat="45.56942734891017" lon="10.749268667500628"><ele>226.0</ele><time>2026-04-26T06:52:56Z</time></trkpt><trkpt lat="45.569451515637276" lon="10.749424746632823"><ele>226.20000000000002</ele><time>2026-04-26T06:52:57Z</time></trkpt><trkpt lat="45.56948332670933" lon="10.749588395390665"><ele>226.40000000000003</ele><time>2026-04-26T06:52:58Z</time></trkpt><trkpt lat="45.569518587893214" lon="10.749738516539848"><ele>226.6</ele><time>2026-04-26T06:52:59Z</time></trkpt><trkpt lat="45.56955394966944" lon="10.749869914415457"><ele>226.8</ele><time>2026-04-26T06:53:00Z</time></trkpt><trkpt lat="45.56958800123959" lon="10.749987208980155"><ele>227.0</ele><time>2026-04-26T06:53:01Z</time></trkpt><trkpt lat="45.569618202267506" lon="10.750089390094622"><ele>227.0</ele><time>2026-04-26T06:53:02Z</time></trkpt><trkpt lat="45.56964613946871" lon="10.75018955988201"><ele>227.0</ele><time>2026-04-26T06:53:03Z</time></trkpt><trkpt lat="45.56966984465695" lon="10.750280618273583"><ele>227.0</ele><time>2026-04-26T06:53:04Z</time></trkpt><trkpt lat="45.56970468560875" lon="10.750385208095782"><ele>227.0</ele><time>2026-04-26T06:53:06Z</time></trkpt><trkpt lat="45.56981559237606" lon="10.750241567096067"><ele>227.0</ele><time>2026-04-26T06:53:10Z</time></trkpt><trkpt lat="45.56988955388227" lon="10.750139978341965"><ele>227.0</ele><time>2026-04-26T06:53:11Z</time></trkpt><trkpt lat="45.569968453804265" lon="10.749984172851804"><ele>227.0</ele><time>2026-04-26T06:53:12Z</time></trkpt><trkpt lat="45.570024624831795" lon="10.74986216968918"><ele>227.0</ele><time>2026-04-26T06:53:13Z</time></trkpt><trkpt lat="45.57005744085017" lon="10.749710473728936"><ele>227.0</ele><time>2026-04-26T06:53:14Z</time></trkpt><trkpt lat="45.570088014539174" lon="10.749548970532343"><ele>227.0</ele><time>2026-04-26T06:53:15Z</time></trkpt><trkpt lat="45.570105016103426" lon="10.749377430654619"><ele>227.0</ele><time>2026-04-26T06:53:16Z</time></trkpt><trkpt lat="45.57012155494096" lon="10.74915400280198"><ele>227.0</ele><time>2026-04-26T06:53:17Z</time></trkpt><trkpt lat="45.570140977481365" lon="10.74894338115202"><ele>227.0</ele><time>2026-04-26T06:53:18Z</time></trkpt><trkpt lat="45.57019286467535" lon="10.748757245345924"><ele>227.0</ele><time>2026-04-26T06:53:19Z</time></trkpt><trkpt lat="45.57026963380817" lon="10.748601024640177"><ele>227.0</ele><time>2026-04-26T06:53:20Z</time></trkpt><trkpt lat="45.57034534598647" lon="10.748456719907436"><ele>227.0</ele><time>2026-04-26T06:53:20.999Z</time></trkpt><trkpt lat="45.57043616707784" lon="10.74830876306535"><ele>227.0</ele><time>2026-04-26T06:53:21.999Z</time></trkpt><trkpt lat="45.57052282434373" lon="10.748160204303685"><ele>223.66666666666669</ele><time>2026-04-26T06:53:22.999Z</time></trkpt><trkpt lat="45.57061133174725" lon="10.748061586854476"><ele>220.33333333333334</ele><time>2026-04-26T06:53:23.999Z</time></trkpt><trkpt lat="45.57069074455522" lon="10.748003414563756"><ele>217.0</ele><time>2026-04-26T06:53:24.999Z</time></trkpt><trkpt lat="45.570765547199" lon="10.747983781386537"><ele>213.66666666666669</ele><time>2026-04-26T06:53:25.999Z</time></trkpt><trkpt lat="45.570836628025084" lon="10.748001446931092"><ele>210.33333333333334</ele><time>2026-04-26T06:53:26.999Z</time></trkpt><trkpt lat="45.57090728685766" lon="10.748052225943727"><ele>207.0</ele><time>2026-04-26T06:53:27.999Z</time></trkpt><trkpt lat="45.57097454174135" lon="10.748131079157629"><ele>207.0</ele><time>2026-04-26T06:53:28.999Z</time></trkpt><trkpt lat="45.57103303005617" lon="10.74818794246049"><ele>207.0</ele><time>2026-04-26T06:53:29.999Z</time></trkpt><trkpt lat="45.5711426160129" lon="10.748000757728736"><ele>207.0</ele><time>2026-04-26T06:53:33.999Z</time></trkpt><trkpt lat="45.57117072018122" lon="10.747899380135138"><ele>207.0</ele><time>2026-04-26T06:53:34.999Z</time></trkpt><trkpt lat="45.571197656686635" lon="10.747735332395349"><ele>207.0</ele><time>2026-04-26T06:53:35.999Z</time></trkpt><trkpt lat="45.571227927381834" lon="10.747547567828677"><ele>207.66666666666669</ele><time>2026-04-26T06:53:36.999Z</time></trkpt><trkpt lat="45.57126659194431" lon="10.747321961818715"><ele>208.33333333333334</ele><time>2026-04-26T06:53:37.999Z</time></trkpt><trkpt lat="45.57131289697662" lon="10.747073823559916"><ele>209.0</ele><time>2026-04-26T06:53:38.999Z</time></trkpt><trkpt lat="45.57134684877271" lon="10.746875712247565"><ele>209.0</ele><time>2026-04-26T06:53:39.999Z</time></trkpt><trkpt lat="45.57137381407821" lon="10.746704041114818"><ele>209.0</ele><time>2026-04-26T06:53:40.999Z</time></trkpt><trkpt lat="45.57139692757262" lon="10.746546535193634"><ele>209.0</ele><time>2026-04-26T06:53:41.999Z</time></trkpt><trkpt lat="45.57141410005336" lon="10.746410128793983"><ele>209.0</ele><time>2026-04-26T06:53:42.999Z</time></trkpt><trkpt lat="45.571428787741525" lon="10.746290021411529"><ele>209.0</ele><time>2026-04-26T06:53:43.999Z</time></trkpt><trkpt lat="45.571441656366275" lon="10.746163114858124"><ele>209.39999999999998</ele><time>2026-04-26T06:53:44.999Z</time></trkpt><trkpt lat="45.571472562805155" lon="10.746015667748848"><ele>209.8</ele><time>2026-04-26T06:53:45.999Z</time></trkpt><trkpt lat="45.57149760469061" lon="10.745863102399099"><ele>210.2</ele><time>2026-04-26T06:53:46.999Z</time></trkpt><trkpt lat="45.57152381796383" lon="10.74573522007732"><ele>210.60000000000002</ele><time>2026-04-26T06:53:47.999Z</time></trkpt><trkpt lat="45.57155426022671" lon="10.745601050043087"><ele>211.0</ele><time>2026-04-26T06:53:48.999Z</time></trkpt><trkpt lat="45.57158852267114" lon="10.745471696585955"><ele>210.99999999999997</ele><time>2026-04-26T06:53:49.999Z</time></trkpt><trkpt lat="45.57161517349162" lon="10.745362543822829"><ele>211.0</ele><time>2026-04-26T06:53:50.999Z</time></trkpt><trkpt lat="45.571650519426484" lon="10.745255139047904"><ele>211.0</ele><time>2026-04-26T06:53:51.999Z</time></trkpt><trkpt lat="45.57168064706522" lon="10.745169886338303"><ele>211.0</ele><time>2026-04-26T06:53:52.999Z</time></trkpt><trkpt lat="45.57170805049396" lon="10.74508650645092"><ele>210.99999999999997</ele><time>2026-04-26T06:53:53.999Z</time></trkpt><trkpt lat="45.57172916095647" lon="10.744968649115417"><ele>211.0</ele><time>2026-04-26T06:53:55.999Z</time></trkpt><trkpt lat="45.57175313015155" lon="10.744862779446992"><ele>210.83333333333331</ele><time>2026-04-26T06:53:58.999Z</time></trkpt><trkpt lat="45.571801836253364" lon="10.744800041764579"><ele>210.66666666666666</ele><time>2026-04-26T06:54:01.999Z</time></trkpt><trkpt lat="45.57183211932501" lon="10.74470942208816"><ele>210.5</ele><time>2026-04-26T06:55:21Z</time></trkpt><trkpt lat="45.571890448507894" lon="10.744663894348708"><ele>210.33333333333331</ele><time>2026-04-26T06:55:24Z</time></trkpt><trkpt lat="45.57183549407051" lon="10.744564466232246"><ele>210.16666666666666</ele><time>2026-04-26T06:55:25Z</time></trkpt><trkpt lat="45.57183779510651" lon="10.744435948514964"><ele>210.0</ele><time>2026-04-26T06:55:29Z</time></trkpt><trkpt lat="45.57181638949912" lon="10.744309167824323"><ele>210.33333333333334</ele><time>2026-04-26T06:55:31Z</time></trkpt><trkpt lat="45.571778899151454" lon="10.744212252202356"><ele>210.66666666666669</ele><time>2026-04-26T06:55:34Z</time></trkpt><trkpt lat="45.57179415095691" lon="10.744105182999673"><ele>211.0</ele><time>2026-04-26T06:55:38Z</time></trkpt><trkpt lat="45.57175492047715" lon="10.744002191678268"><ele>211.33333333333334</ele><time>2026-04-26T06:55:41Z</time></trkpt><trkpt lat="45.57172404810895" lon="10.743897898659272"><ele>211.66666666666669</ele><time>2026-04-26T06:55:44Z</time></trkpt><trkpt lat="45.571695565782896" lon="10.743801679659475"><ele>212.0</ele><time>2026-04-26T06:55:47Z</time></trkpt><trkpt lat="45.5716618391215" lon="10.743687744238786"><ele>212.0</ele><time>2026-04-26T06:55:49Z</time></trkpt><trkpt lat="45.57163619423468" lon="10.743600393955093"><ele>212.0</ele><time>2026-04-26T06:55:51Z</time></trkpt><trkpt lat="45.57161095916265" lon="10.743511837544943"><ele>212.0</ele><time>2026-04-26T06:55:54Z</time></trkpt><trkpt lat="45.57192591708239" lon="10.743263989823172"><ele>212.00000000000003</ele><time>2026-04-26T06:55:56Z</time></trkpt><trkpt lat="45.57194655745751" lon="10.743157954486724"><ele>212.0</ele><time>2026-04-26T06:55:59Z</time></trkpt><trkpt lat="45.571970162833665" lon="10.743059304935594"><ele>212.0</ele><time>2026-04-26T06:56:01Z</time></trkpt><trkpt lat="45.571993770067365" lon="10.742956155272829"><ele>212.0</ele><time>2026-04-26T06:56:03Z</time></trkpt><trkpt lat="45.57201749073469" lon="10.742868627713136"><ele>212.00000000000003</ele><time>2026-04-26T06:56:04.999Z</time></trkpt><trkpt lat="45.572054947652425" lon="10.742752899525984"><ele>212.0</ele><time>2026-04-26T06:56:06.999Z</time></trkpt><trkpt lat="45.57209751837804" lon="10.742639179426382"><ele>211.00000000000003</ele><time>2026-04-26T06:56:08.999Z</time></trkpt><trkpt lat="45.57213014649094" lon="10.742550165739775"><ele>210.0</ele><time>2026-04-26T06:56:11.999Z</time></trkpt><trkpt lat="45.57219576400674" lon="10.742477442452394"><ele>209.0</ele><time>2026-04-26T06:56:13.999Z</time></trkpt><trkpt lat="45.57228325558736" lon="10.742508922928673"><ele>208.0</ele><time>2026-04-26T06:56:16.999Z</time></trkpt><trkpt lat="45.572340043416766" lon="10.74256881294784"><ele>207.00000000000003</ele><time>2026-04-26T06:56:17.999Z</time></trkpt><trkpt lat="45.572413784176184" lon="10.74265841818816"><ele>206.0</ele><time>2026-04-26T06:56:18.999Z</time></trkpt><trkpt lat="45.572477792744074" lon="10.742728768698651"><ele>205.83333333333334</ele><time>2026-04-26T06:56:19.999Z</time></trkpt><trkpt lat="45.572529624324474" lon="10.742787228950332"><ele>205.66666666666669</ele><time>2026-04-26T06:56:20.999Z</time></trkpt><trkpt lat="45.57262855325751" lon="10.742904878677082"><ele>205.5</ele><time>2026-04-26T06:56:22.999Z</time></trkpt><trkpt lat="45.57270073579746" lon="10.742981378432441"><ele>205.33333333333331</ele><time>2026-04-26T06:56:23.999Z</time></trkpt><trkpt lat="45.57276139077043" lon="10.743038154671392"><ele>205.16666666666666</ele><time>2026-04-26T06:56:24.999Z</time></trkpt><trkpt lat="45.57282302925563" lon="10.743083470795451"><ele>205.0</ele><time>2026-04-26T06:56:25.999Z</time></trkpt><trkpt lat="45.57287952874828" lon="10.743129598757003"><ele>204.99999999999997</ele><time>2026-04-26T06:56:26.999Z</time></trkpt><trkpt lat="45.57295753693175" lon="10.743196534709641"><ele>205.0</ele><time>2026-04-26T06:56:27.999Z</time></trkpt><trkpt lat="45.57303150849564" lon="10.743271326829479"><ele>205.0</ele><time>2026-04-26T06:56:28.999Z</time></trkpt><trkpt lat="45.57309779559767" lon="10.743341692581877"><ele>205.0</ele><time>2026-04-26T06:56:29.999Z</time></trkpt><trkpt lat="45.57316806336639" lon="10.743425346274957"><ele>204.99999999999997</ele><time>2026-04-26T06:56:30.999Z</time></trkpt><trkpt lat="45.57321883632345" lon="10.743479483434287"><ele>205.0</ele><time>2026-04-26T06:56:31.999Z</time></trkpt><trkpt lat="45.57328239541966" lon="10.743531815158697"><ele>207.83333333333331</ele><time>2026-04-26T06:56:32.999Z</time></trkpt><trkpt lat="45.57334708329089" lon="10.743589923762462"><ele>210.66666666666666</ele><time>2026-04-26T06:56:33.999Z</time></trkpt><trkpt lat="45.57340977319721" lon="10.743659271843372"><ele>213.5</ele><time>2026-04-26T06:56:34.999Z</time></trkpt><trkpt lat="45.57347115021757" lon="10.743748442495102"><ele>216.33333333333331</ele><time>2026-04-26T06:56:35.999Z</time></trkpt><trkpt lat="45.573532379848984" lon="10.743838118336333"><ele>219.16666666666666</ele><time>2026-04-26T06:56:37.001Z</time></trkpt><trkpt lat="45.57360043053115" lon="10.743920065645781"><ele>222.0</ele><time>2026-04-26T06:56:38.001Z</time></trkpt><trkpt lat="45.573657252965084" lon="10.743990837327658"><ele>218.83333333333334</ele><time>2026-04-26T06:56:39.001Z</time></trkpt><trkpt lat="45.573725763630755" lon="10.744072881743055"><ele>215.66666666666669</ele><time>2026-04-26T06:56:41.001Z</time></trkpt><trkpt lat="45.57379781783634" lon="10.744134321590106"><ele>212.5</ele><time>2026-04-26T06:56:44.001Z</time></trkpt><trkpt lat="45.573863546435554" lon="10.744151497479642"><ele>209.33333333333334</ele><time>2026-04-26T06:56:51.001Z</time></trkpt><trkpt lat="45.573963826084004" lon="10.744187193614213"><ele>206.16666666666669</ele><time>2026-04-26T06:57:13Z</time></trkpt><trkpt lat="45.574032466020896" lon="10.744253389353592"><ele>203.0</ele><time>2026-04-26T06:57:15Z</time></trkpt><trkpt lat="45.57409398328711" lon="10.74430550290513"><ele>203.00000000000003</ele><time>2026-04-26T06:57:17Z</time></trkpt><trkpt lat="45.57415308826233" lon="10.744347252046326"><ele>203.0</ele><time>2026-04-26T06:57:19Z</time></trkpt><trkpt lat="45.5742484055569" lon="10.744414563934711"><ele>203.0</ele><time>2026-04-26T06:57:22Z</time></trkpt><trkpt lat="45.57431711964477" lon="10.744460718271032"><ele>203.0</ele><time>2026-04-26T06:57:23Z</time></trkpt><trkpt lat="45.574396206886725" lon="10.74450924432568"><ele>203.00000000000003</ele><time>2026-04-26T06:57:24Z</time></trkpt><trkpt lat="45.574491013183376" lon="10.744580983697436"><ele>203.0</ele><time>2026-04-26T06:57:26Z</time></trkpt><trkpt lat="45.57459624784361" lon="10.744588758360205"><ele>203.33333333333334</ele><time>2026-04-26T06:57:28Z</time></trkpt><trkpt lat="45.574714956670356" lon="10.744552200044913"><ele>203.66666666666669</ele><time>2026-04-26T06:57:30Z</time></trkpt><trkpt lat="45.5747843539603" lon="10.744583234013398"><ele>204.0</ele><time>2026-04-26T06:57:31Z</time></trkpt><trkpt lat="45.57485495277031" lon="10.744624298504883"><ele>204.33333333333331</ele><time>2026-04-26T06:57:32Z</time></trkpt><trkpt lat="45.574934448144035" lon="10.7446679223419"><ele>204.66666666666666</ele><time>2026-04-26T06:57:33Z</time></trkpt><trkpt lat="45.57500170669499" lon="10.744696795417164"><ele>205.0</ele><time>2026-04-26T06:57:34Z</time></trkpt><trkpt lat="45.57506468814191" lon="10.744719376102573"><ele>204.99999999999997</ele><time>2026-04-26T06:57:35Z</time></trkpt><trkpt lat="45.575180363115436" lon="10.744738689264688"><ele>205.0</ele><time>2026-04-26T06:57:37Z</time></trkpt><trkpt lat="45.57524543183709" lon="10.744754275953783"><ele>205.0</ele><time>2026-04-26T06:57:39Z</time></trkpt><trkpt lat="45.57530797646969" lon="10.74477171409242"><ele>205.0</ele><time>2026-04-26T06:57:42Z</time></trkpt><trkpt lat="45.57539243699627" lon="10.744784508318359"><ele>204.99999999999997</ele><time>2026-04-26T06:57:45Z</time></trkpt><trkpt lat="45.575461820036104" lon="10.744812652499565"><ele>205.0</ele><time>2026-04-26T06:57:51.999Z</time></trkpt><trkpt lat="45.57552381306284" lon="10.744830771588575"><ele>204.99999999999997</ele><time>2026-04-26T06:57:56.999Z</time></trkpt><trkpt lat="45.57559053250895" lon="10.744861305426724"><ele>205.0</ele><time>2026-04-26T06:58:00.999Z</time></trkpt><trkpt lat="45.57565674897339" lon="10.744852719535624"><ele>205.0</ele><time>2026-04-26T06:58:33.999Z</time></trkpt><trkpt lat="45.575556560295965" lon="10.744849146659842"><ele>205.0</ele><time>2026-04-26T06:59:38.999Z</time></trkpt><trkpt lat="45.575484612402796" lon="10.744815326775958"><ele>204.99999999999997</ele><time>2026-04-26T06:59:39.999Z</time></trkpt><trkpt lat="45.575377405814855" lon="10.744772205819597"><ele>205.0</ele><time>2026-04-26T06:59:40.999Z</time></trkpt><trkpt lat="45.5752680673876" lon="10.744746738159455"><ele>205.0</ele><time>2026-04-26T06:59:41.999Z</time></trkpt><trkpt lat="45.57515058930788" lon="10.744722947829537"><ele>205.0</ele><time>2026-04-26T06:59:42.999Z</time></trkpt><trkpt lat="45.57506600386435" lon="10.744709156798839"><ele>205.0</ele><time>2026-04-26T06:59:43.999Z</time></trkpt><trkpt lat="45.574994724682426" lon="10.744682839438429"><ele>205.0</ele><time>2026-04-26T06:59:44.999Z</time></trkpt><trkpt lat="45.57493388912936" lon="10.744658431033912"><ele>205.0</ele><time>2026-04-26T06:59:45.999Z</time></trkpt><trkpt lat="45.574803653202586" lon="10.74460340073595"><ele>204.99999999999997</ele><time>2026-04-26T06:59:47.999Z</time></trkpt><trkpt lat="45.57473346743355" lon="10.744575921068444"><ele>205.0</ele><time>2026-04-26T06:59:48.999Z</time></trkpt><trkpt lat="45.574661842781126" lon="10.744571235201906"><ele>205.0</ele><time>2026-04-26T06:59:49.999Z</time></trkpt><trkpt lat="45.574562415932036" lon="10.744604370855543"><ele>205.0</ele><time>2026-04-26T06:59:51.999Z</time></trkpt><trkpt lat="45.574453671959795" lon="10.744555389417513"><ele>204.99999999999997</ele><time>2026-04-26T06:59:53.999Z</time></trkpt><trkpt lat="45.574395723983805" lon="10.744515976585905"><ele>205.0</ele><time>2026-04-26T06:59:54.999Z</time></trkpt><trkpt lat="45.574302588506036" lon="10.744434375254778"><ele>204.6</ele><time>2026-04-26T06:59:55.999Z</time></trkpt><trkpt lat="45.57419400929986" lon="10.744368076188023"><ele>204.2</ele><time>2026-04-26T06:59:56.999Z</time></trkpt><trkpt lat="45.57412173856289" lon="10.744320588657093"><ele>203.8</ele><time>2026-04-26T06:59:57.999Z</time></trkpt><trkpt lat="45.57404528765166" lon="10.74424689117138"><ele>203.4</ele><time>2026-04-26T06:59:59.999Z</time></trkpt><trkpt lat="45.57396143389144" lon="10.744177905298756"><ele>203.0</ele><time>2026-04-26T07:00:01.999Z</time></trkpt><trkpt lat="45.57389238192983" lon="10.744176496027347"><ele>203.0</ele><time>2026-04-26T07:00:05.999Z</time></trkpt><trkpt lat="45.57391766748508" lon="10.74432026697109"><ele>203.0</ele><time>2026-04-26T07:00:09.999Z</time></trkpt><trkpt lat="45.573976375479" lon="10.744375264643852"><ele>203.0</ele><time>2026-04-26T07:00:10.999Z</time></trkpt><trkpt lat="45.574044127958494" lon="10.744424355599245"><ele>203.0</ele><time>2026-04-26T07:00:11.999Z</time></trkpt><trkpt lat="45.574112598522234" lon="10.74450068654494"><ele>203.0</ele><time>2026-04-26T07:00:12.999Z</time></trkpt><trkpt lat="45.57420970981205" lon="10.744609401351553"><ele>203.33333333333334</ele><time>2026-04-26T07:00:13.999Z</time></trkpt><trkpt lat="45.57427769397213" lon="10.744695557194172"><ele>203.66666666666669</ele><time>2026-04-26T07:00:14.999Z</time></trkpt><trkpt lat="45.57433732579349" lon="10.744779749010444"><ele>204.0</ele><time>2026-04-26T07:00:15.999Z</time></trkpt><trkpt lat="45.574397837061035" lon="10.744849607667293"><ele>204.33333333333331</ele><time>2026-04-26T07:00:16.999Z</time></trkpt><trkpt lat="45.57446523103666" lon="10.744920253710253"><ele>204.66666666666666</ele><time>2026-04-26T07:00:17.999Z</time></trkpt><trkpt lat="45.57453398829048" lon="10.744998422824928"><ele>205.0</ele><time>2026-04-26T07:00:18.999Z</time></trkpt><trkpt lat="45.5745999319329" lon="10.745081197093441"><ele>204.99999999999997</ele><time>2026-04-26T07:00:19.999Z</time></trkpt><trkpt lat="45.574662925928436" lon="10.745164485408582"><ele>205.0</ele><time>2026-04-26T07:00:20.999Z</time></trkpt><trkpt lat="45.57472248501521" lon="10.745241354933043"><ele>205.0</ele><time>2026-04-26T07:00:21.999Z</time></trkpt><trkpt lat="45.574782733466655" lon="10.745313117935961"><ele>205.0</ele><time>2026-04-26T07:00:22.999Z</time></trkpt><trkpt lat="45.57483089838852" lon="10.745379986985471"><ele>204.99999999999997</ele><time>2026-04-26T07:00:23.999Z</time></trkpt><trkpt lat="45.574888659370565" lon="10.7455396659638"><ele>205.0</ele><time>2026-04-26T07:00:25.999Z</time></trkpt><trkpt lat="45.5749091855225" lon="10.74562815374825"><ele>208.16666666666666</ele><time>2026-04-26T07:00:26.999Z</time></trkpt><trkpt lat="45.574982197200924" lon="10.745760176715654"><ele>211.33333333333331</ele><time>2026-04-26T07:00:28.999Z</time></trkpt><trkpt lat="45.57503489990971" lon="10.74581276194478"><ele>214.5</ele><time>2026-04-26T07:00:29.999Z</time></trkpt><trkpt lat="45.57509105837695" lon="10.745870158949495"><ele>217.66666666666669</ele><time>2026-04-26T07:00:30.999Z</time></trkpt><trkpt lat="45.575182707995324" lon="10.745949870388275"><ele>220.83333333333334</ele><time>2026-04-26T07:00:32.999Z</time></trkpt><trkpt lat="45.57523791277059" lon="10.746010986000309"><ele>224.0</ele><time>2026-04-26T07:00:34.999Z</time></trkpt><trkpt lat="45.575329212098914" lon="10.746058515418358"><ele>226.25</ele><time>2026-04-26T07:01:58Z</time></trkpt><trkpt lat="45.57543842766262" lon="10.746117192646862"><ele>228.5</ele><time>2026-04-26T07:01:58.999Z</time></trkpt><trkpt lat="45.57553524203326" lon="10.746168401871316"><ele>230.75</ele><time>2026-04-26T07:01:59.999Z</time></trkpt><trkpt lat="45.57566545022731" lon="10.7462245033544"><ele>233.0</ele><time>2026-04-26T07:02:00.999Z</time></trkpt><trkpt lat="45.575769407388115" lon="10.746252223100331"><ele>233.0</ele><time>2026-04-26T07:02:01.999Z</time></trkpt><trkpt lat="45.5758506563173" lon="10.746265147399647"><ele>233.0</ele><time>2026-04-26T07:02:02.999Z</time></trkpt><trkpt lat="45.575939923792916" lon="10.74626434929697"><ele>233.0</ele><time>2026-04-26T07:02:03.999Z</time></trkpt><trkpt lat="45.57601914387534" lon="10.746262932194151"><ele>233.0</ele><time>2026-04-26T07:02:04.999Z</time></trkpt><trkpt lat="45.57611041617847" lon="10.746454580868953"><ele>233.0</ele><time>2026-04-26T07:02:05.999Z</time></trkpt><trkpt lat="45.57618830345482" lon="10.746436957921784"><ele>233.4</ele><time>2026-04-26T07:02:06.999Z</time></trkpt><trkpt lat="45.57625880695811" lon="10.746428400921516"><ele>233.8</ele><time>2026-04-26T07:02:07.999Z</time></trkpt><trkpt lat="45.576387225556786" lon="10.746443001551315"><ele>234.2</ele><time>2026-04-26T07:02:09.999Z</time></trkpt><trkpt lat="45.57645730994919" lon="10.746463798392982"><ele>234.6</ele><time>2026-04-26T07:02:10.999Z</time></trkpt><trkpt lat="45.57653117748303" lon="10.746483668697879"><ele>235.0</ele><time>2026-04-26T07:02:11.999Z</time></trkpt><trkpt lat="45.57663940412267" lon="10.746494652150504"><ele>234.99999999999997</ele><time>2026-04-26T07:02:14.999Z</time></trkpt><trkpt lat="45.57668485309256" lon="10.746589591940607"><ele>235.0</ele><time>2026-04-26T07:02:15.999Z</time></trkpt><trkpt lat="45.57671154368917" lon="10.746702604579767"><ele>235.0</ele><time>2026-04-26T07:02:16.999Z</time></trkpt><trkpt lat="45.57675359099943" lon="10.746809779387604"><ele>235.0</ele><time>2026-04-26T07:02:17.999Z</time></trkpt><trkpt lat="45.57682291149553" lon="10.746869840674742"><ele>234.99999999999997</ele><time>2026-04-26T07:02:18.999Z</time></trkpt><trkpt lat="45.57690710078061" lon="10.746885020458922"><ele>235.0</ele><time>2026-04-26T07:02:19.999Z</time></trkpt><trkpt lat="45.576995869955326" lon="10.746868506304391"><ele>234.83333333333331</ele><time>2026-04-26T07:02:20.999Z</time></trkpt><trkpt lat="45.577076742464584" lon="10.74684219447266"><ele>234.66666666666666</ele><time>2026-04-26T07:02:21.999Z</time></trkpt><trkpt lat="45.57715431323283" lon="10.746810321564435"><ele>234.5</ele><time>2026-04-26T07:02:22.999Z</time></trkpt><trkpt lat="45.577232740303806" lon="10.746804641456452"><ele>234.33333333333331</ele><time>2026-04-26T07:02:23.999Z</time></trkpt><trkpt lat="45.57730001327464" lon="10.746772222629291"><ele>234.16666666666666</ele><time>2026-04-26T07:02:24.999Z</time></trkpt><trkpt lat="45.57736968698937" lon="10.746712390892412"><ele>234.0</ele><time>2026-04-26T07:02:25.999Z</time></trkpt><trkpt lat="45.577451076129854" lon="10.74665353942285"><ele>234.0</ele><time>2026-04-26T07:02:26.999Z</time></trkpt><trkpt lat="45.57752164722469" lon="10.746582986643476"><ele>234.0</ele><time>2026-04-26T07:02:27.999Z</time></trkpt><trkpt lat="45.57758456752441" lon="10.746513057460069"><ele>234.0</ele><time>2026-04-26T07:02:28.999Z</time></trkpt><trkpt lat="45.57764516877786" lon="10.746451219932837"><ele>234.0</ele><time>2026-04-26T07:02:29.999Z</time></trkpt><trkpt lat="45.57771231540823" lon="10.746391098810069"><ele>234.0</ele><time>2026-04-26T07:02:30.999Z</time></trkpt><trkpt lat="45.57777469082959" lon="10.746332693439467"><ele>234.0</ele><time>2026-04-26T07:02:31.999Z</time></trkpt><trkpt lat="45.57783281969772" lon="10.74626620472839"><ele>233.0</ele><time>2026-04-26T07:02:32.999Z</time></trkpt><trkpt lat="45.57789088465543" lon="10.746201620979404"><ele>232.0</ele><time>2026-04-26T07:02:33.999Z</time></trkpt><trkpt lat="45.57795603028002" lon="10.746142086002624"><ele>231.0</ele><time>2026-04-26T07:02:34.999Z</time></trkpt><trkpt lat="45.578019497023114" lon="10.74608142127394"><ele>230.0</ele><time>2026-04-26T07:02:35.999Z</time></trkpt><trkpt lat="45.57808570975875" lon="10.746024143389347"><ele>229.0</ele><time>2026-04-26T07:02:36.999Z</time></trkpt><trkpt lat="45.57815892732159" lon="10.745964519658557"><ele>228.0</ele><time>2026-04-26T07:02:37.999Z</time></trkpt><trkpt lat="45.578243179974336" lon="10.745896445976799"><ele>227.8</ele><time>2026-04-26T07:02:38.999Z</time></trkpt><trkpt lat="45.57832724075864" lon="10.745819415985002"><ele>227.60000000000002</ele><time>2026-04-26T07:02:39.999Z</time></trkpt><trkpt lat="45.57840796641174" lon="10.745744087395392"><ele>227.39999999999998</ele><time>2026-04-26T07:02:40.999Z</time></trkpt><trkpt lat="45.578493530703106" lon="10.745669409174926"><ele>227.2</ele><time>2026-04-26T07:02:41.999Z</time></trkpt><trkpt lat="45.57858665316332" lon="10.74559285399371"><ele>227.0</ele><time>2026-04-26T07:02:42.999Z</time></trkpt><trkpt lat="45.578676403579834" lon="10.745508942604607"><ele>226.6</ele><time>2026-04-26T07:02:43.999Z</time></trkpt><trkpt lat="45.57876303768794" lon="10.745420127359996"><ele>226.2</ele><time>2026-04-26T07:02:44.999Z</time></trkpt><trkpt lat="45.578837443361174" lon="10.74532778486618"><ele>225.8</ele><time>2026-04-26T07:02:45.999Z</time></trkpt><trkpt lat="45.578911921183206" lon="10.74522635393809"><ele>225.4</ele><time>2026-04-26T07:02:46.999Z</time></trkpt><trkpt lat="45.57898114597719" lon="10.74511884427911"><ele>225.0</ele><time>2026-04-26T07:02:47.999Z</time></trkpt><trkpt lat="45.57905122709637" lon="10.744992581443634"><ele>224.0</ele><time>2026-04-26T07:02:48.999Z</time></trkpt><trkpt lat="45.57912299886483" lon="10.74487214909811"><ele>223.0</ele><time>2026-04-26T07:02:49.999Z</time></trkpt><trkpt lat="45.57920595723676" lon="10.744781741231561"><ele>222.0</ele><time>2026-04-26T07:02:50.999Z</time></trkpt><trkpt lat="45.579277175585425" lon="10.744694557124419"><ele>221.0</ele><time>2026-04-26T07:02:51.999Z</time></trkpt><trkpt lat="45.579332954698344" lon="10.74461653302269"><ele>220.0</ele><time>2026-04-26T07:02:52.999Z</time></trkpt><trkpt lat="45.57941729104729" lon="10.744612867582976"><ele>220.0</ele><time>2026-04-26T07:02:53.999Z</time></trkpt><trkpt lat="45.57950561835729" lon="10.744698266471577"><ele>220.0</ele><time>2026-04-26T07:02:55Z</time></trkpt><trkpt lat="45.57961158713907" lon="10.744751092559664"><ele>220.0</ele><time>2026-04-26T07:02:56Z</time></trkpt><trkpt lat="45.57971005794268" lon="10.744845587079652"><ele>220.0</ele><time>2026-04-26T07:02:57Z</time></trkpt><trkpt lat="45.57980305263966" lon="10.74492036706665"><ele>220.0</ele><time>2026-04-26T07:02:58Z</time></trkpt><trkpt lat="45.57988743438769" lon="10.744990379543486"><ele>219.4</ele><time>2026-04-26T07:02:59Z</time></trkpt><trkpt lat="45.5799651577742" lon="10.745054568381308"><ele>218.8</ele><time>2026-04-26T07:03:00Z</time></trkpt><trkpt lat="45.58002773533301" lon="10.745134372051178"><ele>218.2</ele><time>2026-04-26T07:03:01Z</time></trkpt><trkpt lat="45.5801228179372" lon="10.745202259918456"><ele>217.6</ele><time>2026-04-26T07:03:02Z</time></trkpt><trkpt lat="45.580214741592144" lon="10.745293964959606"><ele>217.0</ele><time>2026-04-26T07:03:03Z</time></trkpt><trkpt lat="45.58032489134109" lon="10.74537550499089"><ele>220.2</ele><time>2026-04-26T07:03:04Z</time></trkpt><trkpt lat="45.58043098976482" lon="10.745425514504582"><ele>223.39999999999998</ele><time>2026-04-26T07:03:05Z</time></trkpt><trkpt lat="45.58053759437846" lon="10.745440829329665"><ele>226.60000000000002</ele><time>2026-04-26T07:03:06Z</time></trkpt><trkpt lat="45.580637453909404" lon="10.745454267517168"><ele>229.8</ele><time>2026-04-26T07:03:07Z</time></trkpt><trkpt lat="45.580729869646746" lon="10.745472062907073"><ele>233.0</ele><time>2026-04-26T07:03:08Z</time></trkpt><trkpt lat="45.580812924270575" lon="10.745504666037537"><ele>233.00000000000003</ele><time>2026-04-26T07:03:09Z</time></trkpt><trkpt lat="45.580888377811114" lon="10.745530742067384"><ele>233.0</ele><time>2026-04-26T07:03:10Z</time></trkpt><trkpt lat="45.58096393579997" lon="10.74555758726725"><ele>233.0</ele><time>2026-04-26T07:03:11Z</time></trkpt><trkpt lat="45.58103064470868" lon="10.745586725899985"><ele>233.0</ele><time>2026-04-26T07:03:12Z</time></trkpt><trkpt lat="45.581110953249144" lon="10.745609614137367"><ele>233.00000000000003</ele><time>2026-04-26T07:03:13Z</time></trkpt><trkpt lat="45.581198387645365" lon="10.745605096434863"><ele>233.0</ele><time>2026-04-26T07:03:14Z</time></trkpt><trkpt lat="45.58128562646078" lon="10.745571518210184"><ele>231.2</ele><time>2026-04-26T07:03:15Z</time></trkpt><trkpt lat="45.58135290897054" lon="10.745449255973869"><ele>229.4</ele><time>2026-04-26T07:03:16Z</time></trkpt><trkpt lat="45.581374790194616" lon="10.745306175097705"><ele>227.59999999999997</ele><time>2026-04-26T07:03:17Z</time></trkpt><trkpt lat="45.58138999190118" lon="10.74518093644349"><ele>225.79999999999998</ele><time>2026-04-26T07:03:18Z</time></trkpt><trkpt lat="45.581429978322525" lon="10.745064408062488"><ele>224.0</ele><time>2026-04-26T07:03:19Z</time></trkpt><trkpt lat="45.58144298210054" lon="10.744940723136995"><ele>223.6</ele><time>2026-04-26T07:03:20Z</time></trkpt><trkpt lat="45.5814874895786" lon="10.744843223441602"><ele>223.2</ele><time>2026-04-26T07:03:21Z</time></trkpt><trkpt lat="45.58155601940043" lon="10.744772630764466"><ele>222.79999999999998</ele><time>2026-04-26T07:03:22Z</time></trkpt><trkpt lat="45.58164576050259" lon="10.744743835737184"><ele>222.39999999999998</ele><time>2026-04-26T07:03:23Z</time></trkpt><trkpt lat="45.58174688470643" lon="10.744760270964466"><ele>222.0</ele><time>2026-04-26T07:03:24Z</time></trkpt><trkpt lat="45.5818584225271" lon="10.744790920461332"><ele>222.0</ele><time>2026-04-26T07:03:25Z</time></trkpt><trkpt lat="45.58197619357111" lon="10.744815343366852"><ele>222.0</ele><time>2026-04-26T07:03:26Z</time></trkpt><trkpt lat="45.58210707283568" lon="10.744827825580781"><ele>222.0</ele><time>2026-04-26T07:03:27Z</time></trkpt><trkpt lat="45.58223615383558" lon="10.744824287548356"><ele>222.0</ele><time>2026-04-26T07:03:28Z</time></trkpt><trkpt lat="45.58236227161277" lon="10.744809668401402"><ele>223.0</ele><time>2026-04-26T07:03:29Z</time></trkpt><trkpt lat="45.58248464269197" lon="10.744775168465944"><ele>224.0</ele><time>2026-04-26T07:03:30Z</time></trkpt><trkpt lat="45.582604269606584" lon="10.744731461824967"><ele>225.0</ele><time>2026-04-26T07:03:31Z</time></trkpt><trkpt lat="45.582720946309685" lon="10.744687528275477"><ele>226.0</ele><time>2026-04-26T07:03:32Z</time></trkpt><trkpt lat="45.58283117716824" lon="10.744657595566778"><ele>226.4</ele><time>2026-04-26T07:03:33Z</time></trkpt><trkpt lat="45.582933977111075" lon="10.744624566199724"><ele>226.8</ele><time>2026-04-26T07:03:34Z</time></trkpt><trkpt lat="45.58302549671852" lon="10.744595339148193"><ele>227.20000000000002</ele><time>2026-04-26T07:03:35Z</time></trkpt><trkpt lat="45.58311562534175" lon="10.744578431585033"><ele>227.60000000000002</ele><time>2026-04-26T07:03:36Z</time></trkpt><trkpt lat="45.583210975222606" lon="10.744607265447847"><ele>228.0</ele><time>2026-04-26T07:03:37Z</time></trkpt><trkpt lat="45.58330738487182" lon="10.744668091659639"><ele>228.0</ele><time>2026-04-26T07:03:38Z</time></trkpt><trkpt lat="45.583405459519525" lon="10.74473360184463"><ele>228.0</ele><time>2026-04-26T07:03:39Z</time></trkpt><trkpt lat="45.58351024022009" lon="10.744790046113392"><ele>228.0</ele><time>2026-04-26T07:03:40Z</time></trkpt><trkpt lat="45.58362062404007" lon="10.744828166874413"><ele>228.0</ele><time>2026-04-26T07:03:41Z</time></trkpt><trkpt lat="45.583731118911196" lon="10.744830989257641"><ele>228.0</ele><time>2026-04-26T07:03:42Z</time></trkpt><trkpt lat="45.583851575094045" lon="10.744794454496565"><ele>229.33333333333331</ele><time>2026-04-26T07:03:43Z</time></trkpt><trkpt lat="45.58398541633251" lon="10.74475694469982"><ele>230.66666666666666</ele><time>2026-04-26T07:03:44Z</time></trkpt><trkpt lat="45.584133264850735" lon="10.74471318847824"><ele>232.0</ele><time>2026-04-26T07:03:45Z</time></trkpt><trkpt lat="45.584296338934706" lon="10.744636272877816"><ele>232.0</ele><time>2026-04-26T07:03:46Z</time></trkpt><trkpt lat="45.58445765233292" lon="10.74454230104943"><ele>232.0</ele><time>2026-04-26T07:03:47Z</time></trkpt><trkpt lat="45.58461493231967" lon="10.744433538420449"><ele>232.0</ele><time>2026-04-26T07:03:48Z</time></trkpt><trkpt lat="45.584754057393944" lon="10.744327704164315"><ele>232.75</ele><time>2026-04-26T07:03:49Z</time></trkpt><trkpt lat="45.58487960906434" lon="10.74423662043283"><ele>233.5</ele><time>2026-04-26T07:03:50Z</time></trkpt><trkpt lat="45.58499160079029" lon="10.744155220130542"><ele>234.25</ele><time>2026-04-26T07:03:51Z</time></trkpt><trkpt lat="45.58509309464739" lon="10.744070900491042"><ele>235.0</ele><time>2026-04-26T07:03:52Z</time></trkpt><trkpt lat="45.585188886574926" lon="10.743958264258127"><ele>235.0</ele><time>2026-04-26T07:03:53Z</time></trkpt><trkpt lat="45.585275762048525" lon="10.743837723801418"><ele>235.0</ele><time>2026-04-26T07:03:54Z</time></trkpt><trkpt lat="45.58535183685122" lon="10.743740662104905"><ele>235.0</ele><time>2026-04-26T07:03:55Z</time></trkpt><trkpt lat="45.58541338052153" lon="10.743675278088293"><ele>235.0</ele><time>2026-04-26T07:03:56Z</time></trkpt><trkpt lat="45.58546531950007" lon="10.743614666820323"><ele>235.0</ele><time>2026-04-26T07:03:57Z</time></trkpt><trkpt lat="45.585531131224066" lon="10.74353808486803"><ele>235.8</ele><time>2026-04-26T07:03:59Z</time></trkpt><trkpt lat="45.58558405695785" lon="10.743476712731976"><ele>236.6</ele><time>2026-04-26T07:04:04Z</time></trkpt><trkpt lat="45.58565711926823" lon="10.74342883712655"><ele>237.39999999999998</ele><time>2026-04-26T07:04:07Z</time></trkpt><trkpt lat="45.58572285641921" lon="10.743349656470896"><ele>238.2</ele><time>2026-04-26T07:04:39.998Z</time></trkpt><trkpt lat="45.5858155778884" lon="10.743327023069579"><ele>239.0</ele><time>2026-04-26T07:04:42.998Z</time></trkpt><trkpt lat="45.58582432510054" lon="10.743032096569967"><ele>239.0</ele><time>2026-04-26T07:04:44.998Z</time></trkpt><trkpt lat="45.58583666958432" lon="10.742864207299732"><ele>238.99999999999997</ele><time>2026-04-26T07:04:45.998Z</time></trkpt><trkpt lat="45.58584907720935" lon="10.74271488099031"><ele>238.99999999999997</ele><time>2026-04-26T07:04:46.998Z</time></trkpt><trkpt lat="45.58585903333241" lon="10.742572687216166"><ele>239.0</ele><time>2026-04-26T07:04:47.998Z</time></trkpt><trkpt lat="45.585866118741606" lon="10.742434235204959"><ele>239.0</ele><time>2026-04-26T07:04:48.998Z</time></trkpt><trkpt lat="45.58586735179062" lon="10.74230489856078"><ele>238.0</ele><time>2026-04-26T07:04:49.998Z</time></trkpt><trkpt lat="45.58586401444803" lon="10.742175997701954"><ele>236.99999999999997</ele><time>2026-04-26T07:04:50.998Z</time></trkpt><trkpt lat="45.58585876504688" lon="10.742023842789674"><ele>235.99999999999997</ele><time>2026-04-26T07:04:51.998Z</time></trkpt><trkpt lat="45.585850864982106" lon="10.741872736309384"><ele>235.0</ele><time>2026-04-26T07:04:52.998Z</time></trkpt><trkpt lat="45.585845442738474" lon="10.741714145883691"><ele>234.0</ele><time>2026-04-26T07:04:53.998Z</time></trkpt><trkpt lat="45.58584489917385" lon="10.741562837044333"><ele>232.5</ele><time>2026-04-26T07:04:54.998Z</time></trkpt><trkpt lat="45.58584349646004" lon="10.741400172403933"><ele>231.0</ele><time>2026-04-26T07:04:55.998Z</time></trkpt><trkpt lat="45.585835536150725" lon="10.741231585354853"><ele>229.5</ele><time>2026-04-26T07:04:56.998Z</time></trkpt><trkpt lat="45.58582428179211" lon="10.741069445608693"><ele>228.0</ele><time>2026-04-26T07:04:57.998Z</time></trkpt><trkpt lat="45.58581070172157" lon="10.740922604056802"><ele>227.8</ele><time>2026-04-26T07:04:58.998Z</time></trkpt><trkpt lat="45.58579696535852" lon="10.740770060902411"><ele>227.60000000000002</ele><time>2026-04-26T07:04:59.998Z</time></trkpt><trkpt lat="45.585783699380244" lon="10.740607672779634"><ele>227.39999999999998</ele><time>2026-04-26T07:05:01Z</time></trkpt><trkpt lat="45.585772327448666" lon="10.740459612771653"><ele>227.2</ele><time>2026-04-26T07:05:02Z</time></trkpt><trkpt lat="45.585765355939856" lon="10.74032164563221"><ele>227.0</ele><time>2026-04-26T07:05:03Z</time></trkpt><trkpt lat="45.585772952348506" lon="10.740184634171246"><ele>227.0</ele><time>2026-04-26T07:05:04Z</time></trkpt><trkpt lat="45.58579138959756" lon="10.740043032848801"><ele>227.0</ele><time>2026-04-26T07:05:05Z</time></trkpt><trkpt lat="45.58581962901702" lon="10.73990179915709"><ele>227.0</ele><time>2026-04-26T07:05:06Z</time></trkpt><trkpt lat="45.5857399218486" lon="10.739738547503919"><ele>227.0</ele><time>2026-04-26T07:05:07Z</time></trkpt><trkpt lat="45.5857019932285" lon="10.739580357016862"><ele>227.0</ele><time>2026-04-26T07:05:08Z</time></trkpt><trkpt lat="45.58568769799997" lon="10.739468552609843"><ele>227.0</ele><time>2026-04-26T07:05:09Z</time></trkpt><trkpt lat="45.58567824796766" lon="10.739299489256421"><ele>227.0</ele><time>2026-04-26T07:05:10Z</time></trkpt><trkpt lat="45.58564501507976" lon="10.739128368774589"><ele>227.0</ele><time>2026-04-26T07:05:11Z</time></trkpt><trkpt lat="45.58559109776409" lon="10.738957987921234"><ele>227.0</ele><time>2026-04-26T07:05:12Z</time></trkpt><trkpt lat="45.58553005204049" lon="10.738780658997173"><ele>227.0</ele><time>2026-04-26T07:05:13Z</time></trkpt><trkpt lat="45.5854772475322" lon="10.738590177299887"><ele>227.0</ele><time>2026-04-26T07:05:14Z</time></trkpt><trkpt lat="45.585424454031234" lon="10.738384324951964"><ele>227.0</ele><time>2026-04-26T07:05:15Z</time></trkpt><trkpt lat="45.58537034377847" lon="10.738178052665148"><ele>223.75</ele><time>2026-04-26T07:05:16Z</time></trkpt><trkpt lat="45.58531486921788" lon="10.737987646960015"><ele>220.5</ele><time>2026-04-26T07:05:17Z</time></trkpt><trkpt lat="45.58527292675518" lon="10.737785970941061"><ele>217.25</ele><time>2026-04-26T07:05:18Z</time></trkpt><trkpt lat="45.58524043540776" lon="10.737586368362582"><ele>214.0</ele><time>2026-04-26T07:05:19Z</time></trkpt><trkpt lat="45.58521876529687" lon="10.737378007397291"><ele>212.66666666666666</ele><time>2026-04-26T07:05:20Z</time></trkpt><trkpt lat="45.585206980746754" lon="10.73717064178129"><ele>211.33333333333331</ele><time>2026-04-26T07:05:21Z</time></trkpt><trkpt lat="45.585227697044715" lon="10.73696527290652"><ele>210.0</ele><time>2026-04-26T07:05:22Z</time></trkpt><trkpt lat="45.585257608038354" lon="10.736724277035746"><ele>211.0</ele><time>2026-04-26T07:05:23Z</time></trkpt><trkpt lat="45.585316596757494" lon="10.736475157387666"><ele>212.0</ele><time>2026-04-26T07:05:24Z</time></trkpt><trkpt lat="45.585363944843905" lon="10.73625329113057"><ele>213.0</ele><time>2026-04-26T07:05:24.999Z</time></trkpt><trkpt lat="45.58543094918694" lon="10.736051412618554"><ele>213.0</ele><time>2026-04-26T07:05:25.999Z</time></trkpt><trkpt lat="45.58548995588578" lon="10.7358624484106"><ele>213.0</ele><time>2026-04-26T07:05:26.999Z</time></trkpt><trkpt lat="45.585547131674794" lon="10.735672065148478"><ele>213.0</ele><time>2026-04-26T07:05:27.999Z</time></trkpt><trkpt lat="45.585600787193314" lon="10.735467372779594"><ele>213.0</ele><time>2026-04-26T07:05:28.999Z</time></trkpt><trkpt lat="45.58564560845971" lon="10.735259038926417"><ele>211.5</ele><time>2026-04-26T07:05:29.999Z</time></trkpt><trkpt lat="45.585677480913496" lon="10.735062872546417"><ele>210.0</ele><time>2026-04-26T07:05:30.999Z</time></trkpt><trkpt lat="45.585695286927965" lon="10.734878215226848"><ele>208.5</ele><time>2026-04-26T07:05:31.999Z</time></trkpt><trkpt lat="45.58570814417083" lon="10.734697773074352"><ele>207.0</ele><time>2026-04-26T07:05:32.999Z</time></trkpt><trkpt lat="45.585720021661324" lon="10.734528261607075"><ele>205.6</ele><time>2026-04-26T07:05:33.999Z</time></trkpt><trkpt lat="45.58573025056383" lon="10.73436250457887"><ele>204.2</ele><time>2026-04-26T07:05:34.999Z</time></trkpt><trkpt lat="45.58573864887816" lon="10.734203629705375"><ele>202.8</ele><time>2026-04-26T07:05:35.999Z</time></trkpt><trkpt lat="45.5857431889933" lon="10.734050553962451"><ele>201.4</ele><time>2026-04-26T07:05:36.999Z</time></trkpt><trkpt lat="45.58574538089649" lon="10.733895089529671"><ele>200.0</ele><time>2026-04-26T07:05:37.999Z</time></trkpt><trkpt lat="45.585751857215556" lon="10.733741515278059"><ele>200.0</ele><time>2026-04-26T07:05:38.999Z</time></trkpt><trkpt lat="45.58575460515117" lon="10.733589745515504"><ele>200.0</ele><time>2026-04-26T07:05:39.999Z</time></trkpt><trkpt lat="45.58573655661937" lon="10.733426623801897"><ele>200.0</ele><time>2026-04-26T07:05:40.999Z</time></trkpt><trkpt lat="45.58567475963907" lon="10.733275074372424"><ele>200.0</ele><time>2026-04-26T07:05:41.999Z</time></trkpt><trkpt lat="45.58556543905253" lon="10.73315327432134"><ele>199.66666666666669</ele><time>2026-04-26T07:05:42.999Z</time></trkpt><trkpt lat="45.5854262052139" lon="10.73305900589751"><ele>199.33333333333331</ele><time>2026-04-26T07:05:43.999Z</time></trkpt><trkpt lat="45.58528399372838" lon="10.73296916804661"><ele>199.0</ele><time>2026-04-26T07:05:44.999Z</time></trkpt><trkpt lat="45.58517619452639" lon="10.732830525898185"><ele>194.33333333333331</ele><time>2026-04-26T07:05:45.999Z</time></trkpt><trkpt lat="45.58506571366188" lon="10.732663933319914"><ele>189.66666666666666</ele><time>2026-04-26T07:05:46.999Z</time></trkpt><trkpt lat="45.58499169396933" lon="10.732472389647077"><ele>185.0</ele><time>2026-04-26T07:05:47.999Z</time></trkpt><trkpt lat="45.584933598755335" lon="10.732269973146526"><ele>185.0</ele><time>2026-04-26T07:05:48.999Z</time></trkpt><trkpt lat="45.584898334199295" lon="10.73208811993285"><ele>185.0</ele><time>2026-04-26T07:05:49.999Z</time></trkpt><trkpt lat="45.58488428340634" lon="10.731939232307734"><ele>185.0</ele><time>2026-04-26T07:05:50.999Z</time></trkpt><trkpt lat="45.58484703282463" lon="10.731845676899258"><ele>185.0</ele><time>2026-04-26T07:05:51.999Z</time></trkpt><trkpt lat="45.58471145347154" lon="10.731825594823261"><ele>185.0</ele><time>2026-04-26T07:05:53.999Z</time></trkpt><trkpt lat="45.58466231264654" lon="10.731938978294293"><ele>185.0</ele><time>2026-04-26T07:05:54.999Z</time></trkpt><trkpt lat="45.58464350885035" lon="10.732060177756905"><ele>185.0</ele><time>2026-04-26T07:05:55.999Z</time></trkpt><trkpt lat="45.58463828388626" lon="10.732184868236015"><ele>185.0</ele><time>2026-04-26T07:05:56.999Z</time></trkpt><trkpt lat="45.584632784856204" lon="10.732306199721895"><ele>185.0</ele><time>2026-04-26T07:05:57.999Z</time></trkpt><trkpt lat="45.58462450575591" lon="10.732422859348095"><ele>185.0</ele><time>2026-04-26T07:05:58.999Z</time></trkpt><trkpt lat="45.58461934084759" lon="10.732522399121196"><ele>185.0</ele><time>2026-04-26T07:05:59.999Z</time></trkpt><trkpt lat="45.584620365208465" lon="10.732619436172639"><ele>184.2</ele><time>2026-04-26T07:06:00.999Z</time></trkpt><trkpt lat="45.58456934540885" lon="10.732758191257119"><ele>183.4</ele><time>2026-04-26T07:06:02.999Z</time></trkpt><trkpt lat="45.58450623829826" lon="10.732742318803558"><ele>182.60000000000002</ele><time>2026-04-26T07:06:03.999Z</time></trkpt><trkpt lat="45.58445991021951" lon="10.732655417851332"><ele>181.8</ele><time>2026-04-26T07:06:04.999Z</time></trkpt><trkpt lat="45.58445228957169" lon="10.732524601657085"><ele>181.0</ele><time>2026-04-26T07:06:05.999Z</time></trkpt><trkpt lat="45.5844772232765" lon="10.732364952860438"><ele>175.0</ele><time>2026-04-26T07:06:06.999Z</time></trkpt><trkpt lat="45.584498130270894" lon="10.73219392177171"><ele>169.0</ele><time>2026-04-26T07:06:07.999Z</time></trkpt><trkpt lat="45.584505207359214" lon="10.732014517166592"><ele>163.0</ele><time>2026-04-26T07:06:08.999Z</time></trkpt><trkpt lat="45.58450638840008" lon="10.731822065421854"><ele>157.0</ele><time>2026-04-26T07:06:09.999Z</time></trkpt><trkpt lat="45.58450389944297" lon="10.731630943102843"><ele>157.0</ele><time>2026-04-26T07:06:10.999Z</time></trkpt><trkpt lat="45.5844903378214" lon="10.731447831540551"><ele>157.0</ele><time>2026-04-26T07:06:11.999Z</time></trkpt><trkpt lat="45.58446736027741" lon="10.731271663140815"><ele>157.0</ele><time>2026-04-26T07:06:12.999Z</time></trkpt><trkpt lat="45.58444106256011" lon="10.731104592204124"><ele>157.0</ele><time>2026-04-26T07:06:13.999Z</time></trkpt><trkpt lat="45.58441747651875" lon="10.730958747635745"><ele>157.0</ele><time>2026-04-26T07:06:14.999Z</time></trkpt><trkpt lat="45.58440041771406" lon="10.730813122669876"><ele>157.0</ele><time>2026-04-26T07:06:15.999Z</time></trkpt><trkpt lat="45.58438662630609" lon="10.730679418661103"><ele>157.0</ele><time>2026-04-26T07:06:16.999Z</time></trkpt><trkpt lat="45.584374467752774" lon="10.730553320281336"><ele>157.0</ele><time>2026-04-26T07:06:17.999Z</time></trkpt><trkpt lat="45.58436150172059" lon="10.730424102443655"><ele>157.0</ele><time>2026-04-26T07:06:18.999Z</time></trkpt><trkpt lat="45.58434750725215" lon="10.730300431802814"><ele>156.6</ele><time>2026-04-26T07:06:19.999Z</time></trkpt><trkpt lat="45.58433268349383" lon="10.730180974856932"><ele>156.2</ele><time>2026-04-26T07:06:20.999Z</time></trkpt><trkpt lat="45.58431819571586" lon="10.730057599311948"><ele>155.8</ele><time>2026-04-26T07:06:21.999Z</time></trkpt><trkpt lat="45.58430329927141" lon="10.7299259804585"><ele>155.4</ele><time>2026-04-26T07:06:22.999Z</time></trkpt><trkpt lat="45.584283143988856" lon="10.729780361604886"><ele>155.0</ele><time>2026-04-26T07:06:23.999Z</time></trkpt><trkpt lat="45.58426346134433" lon="10.72963931131874"><ele>155.0</ele><time>2026-04-26T07:06:24.999Z</time></trkpt><trkpt lat="45.58424188417798" lon="10.72950161907733"><ele>155.0</ele><time>2026-04-26T07:06:25.999Z</time></trkpt><trkpt lat="45.58422214294296" lon="10.729361503792484"><ele>155.0</ele><time>2026-04-26T07:06:26.999Z</time></trkpt><trkpt lat="45.58420731258992" lon="10.729215222744763"><ele>155.0</ele><time>2026-04-26T07:06:27.999Z</time></trkpt><trkpt lat="45.58418323853482" lon="10.729069638703782"><ele>155.0</ele><time>2026-04-26T07:06:28.999Z</time></trkpt><trkpt lat="45.584148616546585" lon="10.728921612589602"><ele>154.25</ele><time>2026-04-26T07:06:29.999Z</time></trkpt><trkpt lat="45.584093798475706" lon="10.72878516537156"><ele>153.5</ele><time>2026-04-26T07:06:30.999Z</time></trkpt><trkpt lat="45.58401991974739" lon="10.72865629841311"><ele>152.75</ele><time>2026-04-26T07:06:31.999Z</time></trkpt><trkpt lat="45.58392968212146" lon="10.728549075898378"><ele>152.0</ele><time>2026-04-26T07:06:32.999Z</time></trkpt><trkpt lat="45.58383331791564" lon="10.728441038909992"><ele>151.25</ele><time>2026-04-26T07:06:33.999Z</time></trkpt><trkpt lat="45.58374144779792" lon="10.728327403275893"><ele>150.5</ele><time>2026-04-26T07:06:34.999Z</time></trkpt><trkpt lat="45.58366281114111" lon="10.728190243962546"><ele>149.75</ele><time>2026-04-26T07:06:35.999Z</time></trkpt><trkpt lat="45.58362261225461" lon="10.728011845214468"><ele>149.0</ele><time>2026-04-26T07:06:36.999Z</time></trkpt><trkpt lat="45.583597815207675" lon="10.727828930422412"><ele>145.4</ele><time>2026-04-26T07:06:37.999Z</time></trkpt><trkpt lat="45.58356002097807" lon="10.727648798055341"><ele>141.8</ele><time>2026-04-26T07:06:38.999Z</time></trkpt><trkpt lat="45.58354645296982" lon="10.727482931846872"><ele>138.2</ele><time>2026-04-26T07:06:39.999Z</time></trkpt><trkpt lat="45.583529009947206" lon="10.727343891120638"><ele>134.6</ele><time>2026-04-26T07:06:40.999Z</time></trkpt><trkpt lat="45.583513389261036" lon="10.727216200854762"><ele>131.0</ele><time>2026-04-26T07:06:41.999Z</time></trkpt><trkpt lat="45.58349972629871" lon="10.727097350530382"><ele>131.0</ele><time>2026-04-26T07:06:42.999Z</time></trkpt><trkpt lat="45.583486767141174" lon="10.726982810238647"><ele>131.0</ele><time>2026-04-26T07:06:43.999Z</time></trkpt><trkpt lat="45.58347272237449" lon="10.72686649266783"><ele>131.0</ele><time>2026-04-26T07:06:44.999Z</time></trkpt><trkpt lat="45.583460426397934" lon="10.726761834310391"><ele>131.0</ele><time>2026-04-26T07:06:45.999Z</time></trkpt><trkpt lat="45.58344303691256" lon="10.72665908767946"><ele>131.0</ele><time>2026-04-26T07:06:46.999Z</time></trkpt><trkpt lat="45.5834244090852" lon="10.726553550419526"><ele>131.0</ele><time>2026-04-26T07:06:47.999Z</time></trkpt><trkpt lat="45.58341251499488" lon="10.726442658160787"><ele>130.66666666666666</ele><time>2026-04-26T07:06:48.999Z</time></trkpt><trkpt lat="45.58340005046099" lon="10.726331171366688"><ele>130.33333333333331</ele><time>2026-04-26T07:06:49.999Z</time></trkpt><trkpt lat="45.583385999107605" lon="10.726225744219793"><ele>130.0</ele><time>2026-04-26T07:06:50.999Z</time></trkpt><trkpt lat="45.58337015230701" lon="10.726119309086927"><ele>129.66666666666666</ele><time>2026-04-26T07:06:51.999Z</time></trkpt><trkpt lat="45.58335314213543" lon="10.726016661060516"><ele>129.33333333333334</ele><time>2026-04-26T07:06:52.999Z</time></trkpt><trkpt lat="45.583325703883816" lon="10.725918463426348"><ele>129.0</ele><time>2026-04-26T07:06:53.999Z</time></trkpt><trkpt lat="45.58328155289511" lon="10.725834423484581"><ele>128.8</ele><time>2026-04-26T07:06:54.999Z</time></trkpt><trkpt lat="45.583233989737195" lon="10.725766278085901"><ele>128.60000000000002</ele><time>2026-04-26T07:06:55.999Z</time></trkpt><trkpt lat="45.58315442426817" lon="10.725653444515283"><ele>128.4</ele><time>2026-04-26T07:06:57.999Z</time></trkpt><trkpt lat="45.58311141734307" lon="10.725554145009703"><ele>128.20000000000002</ele><time>2026-04-26T07:06:59.999Z</time></trkpt><trkpt lat="45.58324345578098" lon="10.725481400336356"><ele>128.0</ele><time>2026-04-26T07:07:02.999Z</time></trkpt><trkpt lat="45.58332146182753" lon="10.725443705515172"><ele>128.0</ele><time>2026-04-26T07:07:04.998Z</time></trkpt><trkpt lat="45.583440633539134" lon="10.72542214921948"><ele>128.0</ele><time>2026-04-26T07:07:08Z</time></trkpt><trkpt lat="45.583540080881086" lon="10.725396814032214"><ele>128.0</ele><time>2026-04-26T07:07:10Z</time></trkpt><trkpt lat="45.58359793982441" lon="10.725153813199478"><ele>128.0</ele><time>2026-04-26T07:07:57Z</time></trkpt><trkpt lat="45.58361544741569" lon="10.725044407795187"><ele>127.66666666666666</ele><time>2026-04-26T07:07:57.999Z</time></trkpt><trkpt lat="45.58364940616579" lon="10.724927234001822"><ele>127.33333333333333</ele><time>2026-04-26T07:07:58.999Z</time></trkpt><trkpt lat="45.58367484309819" lon="10.72482862300621"><ele>127.0</ele><time>2026-04-26T07:07:59.999Z</time></trkpt><trkpt lat="45.583693745594296" lon="10.724740328098422"><ele>126.66666666666666</ele><time>2026-04-26T07:08:00.999Z</time></trkpt><trkpt lat="45.583734578691605" lon="10.724594592165017"><ele>126.33333333333333</ele><time>2026-04-26T07:08:02.999Z</time></trkpt><trkpt lat="45.58377434814296" lon="10.724504492587112"><ele>126.0</ele><time>2026-04-26T07:08:04.999Z</time></trkpt><trkpt lat="45.583838874385535" lon="10.724385879543743"><ele>126.83333333333333</ele><time>2026-04-26T07:08:06.999Z</time></trkpt><trkpt lat="45.58388553394128" lon="10.72431159067159"><ele>127.66666666666666</ele><time>2026-04-26T07:08:07.999Z</time></trkpt><trkpt lat="45.58392890007227" lon="10.724239513091918"><ele>128.5</ele><time>2026-04-26T07:08:08.999Z</time></trkpt><trkpt lat="45.58400922814415" lon="10.724106346377186"><ele>129.33333333333331</ele><time>2026-04-26T07:08:10.999Z</time></trkpt><trkpt lat="45.58405658766001" lon="10.724031979553676"><ele>130.16666666666666</ele><time>2026-04-26T07:08:11.999Z</time></trkpt><trkpt lat="45.58410874544115" lon="10.723957110567358"><ele>131.0</ele><time>2026-04-26T07:08:12.999Z</time></trkpt><trkpt lat="45.58416051438188" lon="10.723893438443323"><ele>131.0</ele><time>2026-04-26T07:08:13.999Z</time></trkpt><trkpt lat="45.584213015879875" lon="10.723825717876784"><ele>131.0</ele><time>2026-04-26T07:08:14.999Z</time></trkpt><trkpt lat="45.584269916048825" lon="10.723746141365828"><ele>131.0</ele><time>2026-04-26T07:08:15.999Z</time></trkpt><trkpt lat="45.58433337097515" lon="10.723665312442064"><ele>131.0</ele><time>2026-04-26T07:08:16.999Z</time></trkpt><trkpt lat="45.584409129184465" lon="10.723599840341349"><ele>131.0</ele><time>2026-04-26T07:08:17.999Z</time></trkpt><trkpt lat="45.58447652483682" lon="10.723562562001625"><ele>131.0</ele><time>2026-04-26T07:08:18.999Z</time></trkpt><trkpt lat="45.58459813789939" lon="10.723533029091039"><ele>134.6</ele><time>2026-04-26T07:08:20.999Z</time></trkpt><trkpt lat="45.584665706968885" lon="10.723571568052131"><ele>138.2</ele><time>2026-04-26T07:08:21.999Z</time></trkpt><trkpt lat="45.58471690153636" lon="10.723659403154102"><ele>141.8</ele><time>2026-04-26T07:08:22.999Z</time></trkpt><trkpt lat="45.58477946759343" lon="10.723784028424285"><ele>145.4</ele><time>2026-04-26T07:08:23.999Z</time></trkpt><trkpt lat="45.58485016062438" lon="10.723903941559096"><ele>149.0</ele><time>2026-04-26T07:08:24.999Z</time></trkpt><trkpt lat="45.584915895855524" lon="10.723986668514817"><ele>149.0</ele><time>2026-04-26T07:08:25.999Z</time></trkpt><trkpt lat="45.58499576756352" lon="10.724062255489685"><ele>149.0</ele><time>2026-04-26T07:08:26.999Z</time></trkpt><trkpt lat="45.585078322664096" lon="10.724093918499312"><ele>149.0</ele><time>2026-04-26T07:08:27.999Z</time></trkpt><trkpt lat="45.58515722349542" lon="10.724080296252025"><ele>149.0</ele><time>2026-04-26T07:08:28.999Z</time></trkpt><trkpt lat="45.585235085751926" lon="10.724053171515921"><ele>149.0</ele><time>2026-04-26T07:08:29.999Z</time></trkpt><trkpt lat="45.585307721514575" lon="10.724057408896034"><ele>149.0</ele><time>2026-04-26T07:08:30.999Z</time></trkpt><trkpt lat="45.58538209229406" lon="10.724082688733809"><ele>150.0</ele><time>2026-04-26T07:08:31.999Z</time></trkpt><trkpt lat="45.58546104772223" lon="10.724148617710657"><ele>151.0</ele><time>2026-04-26T07:08:32.999Z</time></trkpt><trkpt lat="45.58554872815949" lon="10.72422112482493"><ele>152.0</ele><time>2026-04-26T07:08:33.999Z</time></trkpt><trkpt lat="45.58562838279578" lon="10.724292976320417"><ele>153.0</ele><time>2026-04-26T07:08:34.999Z</time></trkpt><trkpt lat="45.58569051366059" lon="10.724349552060845"><ele>154.0</ele><time>2026-04-26T07:08:35.999Z</time></trkpt><trkpt lat="45.58576174307933" lon="10.724414548776915"><ele>155.0</ele><time>2026-04-26T07:08:37.999Z</time></trkpt><trkpt lat="45.58584267790825" lon="10.72440000193068"><ele>155.0</ele><time>2026-04-26T07:08:41.999Z</time></trkpt><trkpt lat="45.58593404961268" lon="10.724463853648233"><ele>155.0</ele><time>2026-04-26T07:08:43.999Z</time></trkpt><trkpt lat="45.58598533419733" lon="10.72453315550805"><ele>155.0</ele><time>2026-04-26T07:08:44.999Z</time></trkpt><trkpt lat="45.58605278595641" lon="10.72460473012739"><ele>155.0</ele><time>2026-04-26T07:08:45.999Z</time></trkpt><trkpt lat="45.58611052222178" lon="10.72464622282924"><ele>155.0</ele><time>2026-04-26T07:08:46.999Z</time></trkpt><trkpt lat="45.58622040385798" lon="10.724733245582208"><ele>155.0</ele><time>2026-04-26T07:08:48.999Z</time></trkpt><trkpt lat="45.58629580509579" lon="10.724780115331296"><ele>159.16666666666666</ele><time>2026-04-26T07:08:49.999Z</time></trkpt><trkpt lat="45.58637689558498" lon="10.724815405115807"><ele>163.33333333333331</ele><time>2026-04-26T07:08:50.999Z</time></trkpt><trkpt lat="45.58645830986825" lon="10.724844880521502"><ele>167.5</ele><time>2026-04-26T07:08:51.999Z</time></trkpt><trkpt lat="45.586538851885656" lon="10.724880982096382"><ele>171.66666666666666</ele><time>2026-04-26T07:08:52.999Z</time></trkpt><trkpt lat="45.58661688494066" lon="10.724924522060896"><ele>175.83333333333334</ele><time>2026-04-26T07:08:53.999Z</time></trkpt><trkpt lat="45.58669826008099" lon="10.724963574559427"><ele>180.0</ele><time>2026-04-26T07:08:54.999Z</time></trkpt><trkpt lat="45.58677087175524" lon="10.725009884907212"><ele>180.0</ele><time>2026-04-26T07:08:55.999Z</time></trkpt><trkpt lat="45.58685078470906" lon="10.725046527927992"><ele>180.0</ele><time>2026-04-26T07:08:56.999Z</time></trkpt><trkpt lat="45.58693327295684" lon="10.725088679267419"><ele>180.0</ele><time>2026-04-26T07:08:57.999Z</time></trkpt><trkpt lat="45.587026437122084" lon="10.725129558610595"><ele>180.0</ele><time>2026-04-26T07:08:59.999Z</time></trkpt><trkpt lat="45.587081603058735" lon="10.724918315469376"><ele>180.0</ele><time>2026-04-26T07:09:03.999Z</time></trkpt><trkpt lat="45.587097909236796" lon="10.724830467586274"><ele>201.0</ele><time>2026-04-26T07:09:04.999Z</time></trkpt><trkpt lat="45.58720375449975" lon="10.724130777778178"><ele>201.0</ele><time>2026-04-26T07:09:12Z</time></trkpt><trkpt lat="45.58720678434008" lon="10.72398980571844"><ele>201.0</ele><time>2026-04-26T07:09:13Z</time></trkpt><trkpt lat="45.58721777887517" lon="10.723855146491585"><ele>201.0</ele><time>2026-04-26T07:09:14Z</time></trkpt><trkpt lat="45.58722901661436" lon="10.723728303723101"><ele>201.0</ele><time>2026-04-26T07:09:15Z</time></trkpt><trkpt lat="45.587231402368104" lon="10.72359123778552"><ele>201.0</ele><time>2026-04-26T07:09:16Z</time></trkpt><trkpt lat="45.58723643659163" lon="10.723463296467632"><ele>200.8</ele><time>2026-04-26T07:09:17Z</time></trkpt><trkpt lat="45.58723658152687" lon="10.723335643229708"><ele>200.60000000000002</ele><time>2026-04-26T07:09:18Z</time></trkpt><trkpt lat="45.58723061707153" lon="10.72319820201007"><ele>200.4</ele><time>2026-04-26T07:09:19Z</time></trkpt><trkpt lat="45.58722648875277" lon="10.723069395615463"><ele>200.2</ele><time>2026-04-26T07:09:20Z</time></trkpt><trkpt lat="45.58721499099905" lon="10.722931811686417"><ele>200.0</ele><time>2026-04-26T07:09:21Z</time></trkpt><trkpt lat="45.58720673698954" lon="10.722800700875531"><ele>200.00000000000003</ele><time>2026-04-26T07:09:22Z</time></trkpt><trkpt lat="45.587197847852316" lon="10.722685370039875"><ele>200.0</ele><time>2026-04-26T07:09:23Z</time></trkpt><trkpt lat="45.58718297470517" lon="10.72258841396226"><ele>200.0</ele><time>2026-04-26T07:09:24Z</time></trkpt><trkpt lat="45.58715975224111" lon="10.72249170272012"><ele>200.0</ele><time>2026-04-26T07:09:25Z</time></trkpt><trkpt lat="45.5871558921737" lon="10.722399325771402"><ele>200.00000000000003</ele><time>2026-04-26T07:09:26Z</time></trkpt><trkpt lat="45.58708713433807" lon="10.722245697474346"><ele>200.0</ele><time>2026-04-26T07:09:28Z</time></trkpt><trkpt lat="45.58701816386886" lon="10.722202175698703"><ele>196.16666666666669</ele><time>2026-04-26T07:09:29Z</time></trkpt><trkpt lat="45.586934944530825" lon="10.722243433246415"><ele>192.33333333333334</ele><time>2026-04-26T07:09:30Z</time></trkpt><trkpt lat="45.586865313386234" lon="10.72223826900802"><ele>188.5</ele><time>2026-04-26T07:09:31Z</time></trkpt><trkpt lat="45.58679317087147" lon="10.722245308080577"><ele>184.66666666666669</ele><time>2026-04-26T07:09:32Z</time></trkpt><trkpt lat="45.58672342866414" lon="10.722250348163849"><ele>180.83333333333334</ele><time>2026-04-26T07:09:33Z</time></trkpt><trkpt lat="45.58661968999528" lon="10.722253275535172"><ele>177.0</ele><time>2026-04-26T07:09:35Z</time></trkpt><trkpt lat="45.586572044775586" lon="10.722182929935004"><ele>177.0</ele><time>2026-04-26T07:09:37Z</time></trkpt><trkpt lat="45.586537828162314" lon="10.722080389241672"><ele>177.0</ele><time>2026-04-26T07:09:38Z</time></trkpt><trkpt lat="45.58648679931545" lon="10.721968441214832"><ele>177.0</ele><time>2026-04-26T07:09:39Z</time></trkpt><trkpt lat="45.5864637681054" lon="10.721823372823343"><ele>177.0</ele><time>2026-04-26T07:09:40Z</time></trkpt><trkpt lat="45.58645270772475" lon="10.721661869631728"><ele>177.0</ele><time>2026-04-26T07:09:41Z</time></trkpt><trkpt lat="45.58644455361301" lon="10.721473116741686"><ele>177.39999999999998</ele><time>2026-04-26T07:09:42Z</time></trkpt><trkpt lat="45.586430614658674" lon="10.721312514475779"><ele>177.79999999999998</ele><time>2026-04-26T07:09:43Z</time></trkpt><trkpt lat="45.586417026202795" lon="10.721150244770667"><ele>178.2</ele><time>2026-04-26T07:09:44Z</time></trkpt><trkpt lat="45.58642145908683" lon="10.720989089752486"><ele>178.6</ele><time>2026-04-26T07:09:45Z</time></trkpt><trkpt lat="45.58641663339952" lon="10.720855302851378"><ele>179.0</ele><time>2026-04-26T07:09:46Z</time></trkpt><trkpt lat="45.5864118866251" lon="10.720719478268066"><ele>179.6</ele><time>2026-04-26T07:09:47Z</time></trkpt><trkpt lat="45.58640774881419" lon="10.720585631089058"><ele>180.2</ele><time>2026-04-26T07:09:48Z</time></trkpt><trkpt lat="45.586390101530746" lon="10.720447278315122"><ele>180.79999999999998</ele><time>2026-04-26T07:09:49Z</time></trkpt><trkpt lat="45.586389734066195" lon="10.720309243857045"><ele>181.39999999999998</ele><time>2026-04-26T07:09:50Z</time></trkpt><trkpt lat="45.58638358907432" lon="10.720153529391204"><ele>182.0</ele><time>2026-04-26T07:09:51Z</time></trkpt><trkpt lat="45.58637404589443" lon="10.719961378306534"><ele>182.39999999999998</ele><time>2026-04-26T07:09:52Z</time></trkpt><trkpt lat="45.58636890065202" lon="10.719800378014561"><ele>182.79999999999998</ele><time>2026-04-26T07:09:53Z</time></trkpt><trkpt lat="45.58636697907515" lon="10.719661491572895"><ele>183.2</ele><time>2026-04-26T07:09:54Z</time></trkpt><trkpt lat="45.58636337599359" lon="10.719543099147863"><ele>183.6</ele><time>2026-04-26T07:09:55Z</time></trkpt><trkpt lat="45.58635853343073" lon="10.719441584642942"><ele>184.0</ele><time>2026-04-26T07:09:56Z</time></trkpt><trkpt lat="45.58635519819914" lon="10.719288797935414"><ele>184.39999999999998</ele><time>2026-04-26T07:09:58Z</time></trkpt><trkpt lat="45.58621036030572" lon="10.719254253229748"><ele>184.8</ele><time>2026-04-26T07:10:00Z</time></trkpt><trkpt lat="45.58611388614196" lon="10.719266067400254"><ele>185.2</ele><time>2026-04-26T07:10:01Z</time></trkpt><trkpt lat="45.58602006216177" lon="10.719275128350976"><ele>185.60000000000002</ele><time>2026-04-26T07:10:02Z</time></trkpt><trkpt lat="45.58593287058073" lon="10.719278563696104"><ele>186.0</ele><time>2026-04-26T07:10:03Z</time></trkpt><trkpt lat="45.58584630381672" lon="10.719277173091037"><ele>183.83333333333334</ele><time>2026-04-26T07:10:04Z</time></trkpt><trkpt lat="45.585755663294904" lon="10.719234007121536"><ele>181.66666666666666</ele><time>2026-04-26T07:10:05Z</time></trkpt><trkpt lat="45.58566391905296" lon="10.719190204024022"><ele>179.5</ele><time>2026-04-26T07:10:06Z</time></trkpt><trkpt lat="45.585583921650496" lon="10.719121566801475"><ele>177.33333333333331</ele><time>2026-04-26T07:10:07Z</time></trkpt><trkpt lat="45.58551641276634" lon="10.71907747695212"><ele>175.16666666666666</ele><time>2026-04-26T07:10:08Z</time></trkpt><trkpt lat="45.585485793199574" lon="10.718995573790803"><ele>173.0</ele><time>2026-04-26T07:10:09Z</time></trkpt><trkpt lat="45.58550612005876" lon="10.718883662577332"><ele>173.0</ele><time>2026-04-26T07:10:10Z</time></trkpt><trkpt lat="45.58546153266459" lon="10.718802272345744"><ele>173.0</ele><time>2026-04-26T07:10:11Z</time></trkpt><trkpt lat="45.585369968025944" lon="10.718719411130913"><ele>173.0</ele><time>2026-04-26T07:10:13Z</time></trkpt><trkpt lat="45.58531014236214" lon="10.71864021381247"><ele>173.0</ele><time>2026-04-26T07:10:16Z</time></trkpt><trkpt lat="45.5852343043895" lon="10.718701747203689"><ele>173.0</ele><time>2026-04-26T07:10:42.999Z</time></trkpt><trkpt lat="45.58515568383573" lon="10.718730424242503"><ele>173.0</ele><time>2026-04-26T07:10:49.999Z</time></trkpt><trkpt lat="45.58508141394724" lon="10.718767605621023"><ele>171.16666666666666</ele><time>2026-04-26T07:10:50.999Z</time></trkpt><trkpt lat="45.585015116606456" lon="10.718785348994665"><ele>169.33333333333331</ele><time>2026-04-26T07:10:51.999Z</time></trkpt><trkpt lat="45.58494622520459" lon="10.718782386028185"><ele>167.5</ele><time>2026-04-26T07:10:52.999Z</time></trkpt><trkpt lat="45.58487898109239" lon="10.718763518302735"><ele>165.66666666666666</ele><time>2026-04-26T07:10:53.999Z</time></trkpt><trkpt lat="45.58481522729877" lon="10.718720496846965"><ele>163.83333333333334</ele><time>2026-04-26T07:10:54.999Z</time></trkpt><trkpt lat="45.58471770200807" lon="10.718609464905898"><ele>162.0</ele><time>2026-04-26T07:10:56.999Z</time></trkpt><trkpt lat="45.58466563028235" lon="10.718541904128221"><ele>162.0</ele><time>2026-04-26T07:10:57.999Z</time></trkpt><trkpt lat="45.58463178596413" lon="10.718446813160151"><ele>162.0</ele><time>2026-04-26T07:10:58.999Z</time></trkpt><trkpt lat="45.58459595084979" lon="10.718358912855281"><ele>162.0</ele><time>2026-04-26T07:10:59.999Z</time></trkpt><trkpt lat="45.58455711334209" lon="10.718265644655048"><ele>162.0</ele><time>2026-04-26T07:11:00.999Z</time></trkpt><trkpt lat="45.58451497677238" lon="10.718170899707676"><ele>162.0</ele><time>2026-04-26T07:11:01.999Z</time></trkpt><trkpt lat="45.584457804977006" lon="10.718087656407942"><ele>162.0</ele><time>2026-04-26T07:11:02.999Z</time></trkpt><trkpt lat="45.58442850936979" lon="10.717982202240771"><ele>157.2</ele><time>2026-04-26T07:11:03.999Z</time></trkpt><trkpt lat="45.584369451749296" lon="10.717898524097187"><ele>152.39999999999998</ele><time>2026-04-26T07:11:04.999Z</time></trkpt><trkpt lat="45.584337832664254" lon="10.717791272663302"><ele>147.60000000000002</ele><time>2026-04-26T07:11:05.999Z</time></trkpt><trkpt lat="45.584270041229345" lon="10.717684835855819"><ele>142.8</ele><time>2026-04-26T07:11:06.999Z</time></trkpt><trkpt lat="45.58420381009891" lon="10.717537469741355"><ele>138.0</ele><time>2026-04-26T07:11:07.999Z</time></trkpt><trkpt lat="45.58414465508792" lon="10.717399672925305"><ele>138.0</ele><time>2026-04-26T07:11:08.999Z</time></trkpt><trkpt lat="45.584087689170374" lon="10.717265232351528"><ele>138.0</ele><time>2026-04-26T07:11:09.999Z</time></trkpt><trkpt lat="45.58403346970453" lon="10.717129299973392"><ele>138.0</ele><time>2026-04-26T07:11:10.999Z</time></trkpt><trkpt lat="45.583987646441614" lon="10.71700168294691"><ele>138.0</ele><time>2026-04-26T07:11:11.999Z</time></trkpt><trkpt lat="45.58394830108529" lon="10.71686843722442"><ele>138.0</ele><time>2026-04-26T07:11:12.999Z</time></trkpt><trkpt lat="45.58390907450365" lon="10.71675234148373"><ele>137.6</ele><time>2026-04-26T07:11:13.999Z</time></trkpt><trkpt lat="45.583859474285475" lon="10.716652576690354"><ele>137.20000000000002</ele><time>2026-04-26T07:11:14.999Z</time></trkpt><trkpt lat="45.58379563857477" lon="10.71657364995436"><ele>136.8</ele><time>2026-04-26T07:11:15.999Z</time></trkpt><trkpt lat="45.58370996822616" lon="10.716539968858278"><ele>136.4</ele><time>2026-04-26T07:11:17.001Z</time></trkpt><trkpt lat="45.58360549938157" lon="10.716551366679637"><ele>136.0</ele><time>2026-04-26T07:11:18Z</time></trkpt><trkpt lat="45.58349550784452" lon="10.716577558458544"><ele>131.8</ele><time>2026-04-26T07:11:19Z</time></trkpt><trkpt lat="45.58338984418375" lon="10.716600218979766"><ele>127.6</ele><time>2026-04-26T07:11:20Z</time></trkpt><trkpt lat="45.58328644350662" lon="10.716618314454168"><ele>123.4</ele><time>2026-04-26T07:11:21Z</time></trkpt><trkpt lat="45.58318299639096" lon="10.716631987524606"><ele>119.2</ele><time>2026-04-26T07:11:22Z</time></trkpt><trkpt lat="45.5830735816904" lon="10.716614927738073"><ele>115.0</ele><time>2026-04-26T07:11:23Z</time></trkpt><trkpt lat="45.582964750108566" lon="10.716615023839204"><ele>115.0</ele><time>2026-04-26T07:11:24Z</time></trkpt><trkpt lat="45.58285747144176" lon="10.71661255339822"><ele>115.0</ele><time>2026-04-26T07:11:25Z</time></trkpt><trkpt lat="45.58274798307021" lon="10.71662857283152"><ele>115.0</ele><time>2026-04-26T07:11:26Z</time></trkpt><trkpt lat="45.582638513915406" lon="10.716602959089323"><ele>115.0</ele><time>2026-04-26T07:11:27Z</time></trkpt><trkpt lat="45.582538444463516" lon="10.716592263746008"><ele>115.0</ele><time>2026-04-26T07:11:28Z</time></trkpt><trkpt lat="45.58245274421535" lon="10.716576554676807"><ele>113.50000000000001</ele><time>2026-04-26T07:11:29Z</time></trkpt><trkpt lat="45.58237755708304" lon="10.71655949376131"><ele>112.0</ele><time>2026-04-26T07:11:30Z</time></trkpt><trkpt lat="45.5823095681306" lon="10.716541569875364"><ele>110.5</ele><time>2026-04-26T07:11:31Z</time></trkpt><trkpt lat="45.582245149841754" lon="10.716524342294878"><ele>109.0</ele><time>2026-04-26T07:11:32Z</time></trkpt><trkpt lat="45.58213924711005" lon="10.716502255765937"><ele>107.50000000000001</ele><time>2026-04-26T07:11:34Z</time></trkpt><trkpt lat="45.58205402076609" lon="10.716500678646135"><ele>106.0</ele><time>2026-04-26T07:11:36Z</time></trkpt><trkpt lat="45.58210381817899" lon="10.716305195009033"><ele>106.0</ele><time>2026-04-26T07:11:38.999Z</time></trkpt><trkpt lat="45.58220920824816" lon="10.71623003804107"><ele>106.0</ele><time>2026-04-26T07:11:40.999Z</time></trkpt><trkpt lat="45.58225444571444" lon="10.716073744144516"><ele>106.0</ele><time>2026-04-26T07:11:42.999Z</time></trkpt><trkpt lat="45.582241134722516" lon="10.71594252248418"><ele>106.0</ele><time>2026-04-26T07:11:44.999Z</time></trkpt><trkpt lat="45.58222149582844" lon="10.715799389641052"><ele>106.0</ele><time>2026-04-26T07:11:46.999Z</time></trkpt><trkpt lat="45.582202859967644" lon="10.715615322999444"><ele>106.6</ele><time>2026-04-26T07:11:48.999Z</time></trkpt><trkpt lat="45.58218825390828" lon="10.715472872630986"><ele>107.19999999999999</ele><time>2026-04-26T07:11:50.999Z</time></trkpt><trkpt lat="45.58217188895773" lon="10.715337279655953"><ele>107.80000000000001</ele><time>2026-04-26T07:11:52.999Z</time></trkpt><trkpt lat="45.58218844755974" lon="10.715184768594815"><ele>108.4</ele><time>2026-04-26T07:11:54.999Z</time></trkpt><trkpt lat="45.58223146889353" lon="10.715097582255819"><ele>109.0</ele><time>2026-04-26T07:11:55.999Z</time></trkpt><trkpt lat="45.58229944935935" lon="10.715035237838487"><ele>109.66666666666667</ele><time>2026-04-26T07:11:56.999Z</time></trkpt><trkpt lat="45.582344826342315" lon="10.714965976897018"><ele>110.33333333333334</ele><time>2026-04-26T07:11:57.999Z</time></trkpt><trkpt lat="45.58239221846741" lon="10.714879253466139"><ele>111.0</ele><time>2026-04-26T07:11:59.999Z</time></trkpt><trkpt lat="45.58247361438593" lon="10.714825527520224"><ele>111.66666666666666</ele><time>2026-04-26T07:12:02.999Z</time></trkpt><trkpt lat="45.58254040299289" lon="10.714757055822803"><ele>112.33333333333333</ele><time>2026-04-26T07:12:04.999Z</time></trkpt><trkpt lat="45.58261209596736" lon="10.714732977844406"><ele>113.0</ele><time>2026-04-26T07:12:06.999Z</time></trkpt><trkpt lat="45.58257767771517" lon="10.714484096505052"><ele>112.83333333333333</ele><time>2026-04-26T07:12:11.999Z</time></trkpt><trkpt lat="45.582555990340104" lon="10.714386297928684"><ele>112.66666666666666</ele><time>2026-04-26T07:12:12.999Z</time></trkpt><trkpt lat="45.58252028418042" lon="10.71422160301464"><ele>112.5</ele><time>2026-04-26T07:12:14.999Z</time></trkpt><trkpt lat="45.58248663961693" lon="10.714137807651891"><ele>112.33333333333334</ele><time>2026-04-26T07:12:15.999Z</time></trkpt><trkpt lat="45.58246752667312" lon="10.714040923541232"><ele>112.16666666666667</ele><time>2026-04-26T07:12:16.999Z</time></trkpt><trkpt lat="45.5824642530531" lon="10.713942752581746"><ele>112.0</ele><time>2026-04-26T07:12:17.999Z</time></trkpt><trkpt lat="45.582429509362015" lon="10.71385888774276"><ele>112.0</ele><time>2026-04-26T07:12:18.999Z</time></trkpt><trkpt lat="45.58240291238382" lon="10.713743194137095"><ele>111.99999999999999</ele><time>2026-04-26T07:12:19.999Z</time></trkpt><trkpt lat="45.58237313286874" lon="10.713648753454322"><ele>111.99999999999999</ele><time>2026-04-26T07:12:20.999Z</time></trkpt><trkpt lat="45.58234109703439" lon="10.713552287777357"><ele>112.0</ele><time>2026-04-26T07:12:21.999Z</time></trkpt><trkpt lat="45.58228440336864" lon="10.713386352242276"><ele>112.0</ele><time>2026-04-26T07:12:23.999Z</time></trkpt><trkpt lat="45.58223696759019" lon="10.713219098527786"><ele>112.66666666666667</ele><time>2026-04-26T07:12:25.999Z</time></trkpt><trkpt lat="45.58220350954201" lon="10.713135327676905"><ele>113.33333333333334</ele><time>2026-04-26T07:12:26.999Z</time></trkpt><trkpt lat="45.58215973206898" lon="10.713052959453572"><ele>114.0</ele><time>2026-04-26T07:12:27.999Z</time></trkpt><trkpt lat="45.58213473204421" lon="10.712950730775336"><ele>114.66666666666666</ele><time>2026-04-26T07:12:28.999Z</time></trkpt><trkpt lat="45.58211107961078" lon="10.712852596636072"><ele>115.33333333333333</ele><time>2026-04-26T07:12:29.999Z</time></trkpt><trkpt lat="45.58209611275765" lon="10.712751443605274"><ele>116.0</ele><time>2026-04-26T07:12:30.999Z</time></trkpt><trkpt lat="45.58206109666926" lon="10.712571533073957"><ele>115.49999999999999</ele><time>2026-04-26T07:12:32.999Z</time></trkpt><trkpt lat="45.58202781420903" lon="10.712490535748767"><ele>115.0</ele><time>2026-04-26T07:12:33.999Z</time></trkpt><trkpt lat="45.582009450713315" lon="10.712387681726176"><ele>114.5</ele><time>2026-04-26T07:12:34.999Z</time></trkpt><trkpt lat="45.58197166625177" lon="10.71231188642261"><ele>114.0</ele><time>2026-04-26T07:12:35.999Z</time></trkpt><trkpt lat="45.58191837911699" lon="10.71215628884619"><ele>113.49999999999999</ele><time>2026-04-26T07:12:37.999Z</time></trkpt><trkpt lat="45.58188882782422" lon="10.712069999551057"><ele>113.0</ele><time>2026-04-26T07:12:38.999Z</time></trkpt><trkpt lat="45.58191353072218" lon="10.711960478790207"><ele>113.60000000000001</ele><time>2026-04-26T07:12:39.999Z</time></trkpt><trkpt lat="45.58185632416029" lon="10.711826828114775"><ele>114.20000000000002</ele><time>2026-04-26T07:12:41.999Z</time></trkpt><trkpt lat="45.58182724715081" lon="10.71174448543714"><ele>114.8</ele><time>2026-04-26T07:12:42.999Z</time></trkpt><trkpt lat="45.58178958821425" lon="10.711582012839875"><ele>115.4</ele><time>2026-04-26T07:12:44.999Z</time></trkpt><trkpt lat="45.58178247694508" lon="10.711448884226932"><ele>116.0</ele><time>2026-04-26T07:12:46.999Z</time></trkpt><trkpt lat="45.581781245848646" lon="10.711272695585626"><ele>115.99999999999999</ele><time>2026-04-26T07:12:48.999Z</time></trkpt><trkpt lat="45.58177248736459" lon="10.71116818780936"><ele>116.0</ele><time>2026-04-26T07:12:49.999Z</time></trkpt><trkpt lat="45.58175220972827" lon="10.711034546859892"><ele>116.0</ele><time>2026-04-26T07:12:51.999Z</time></trkpt><trkpt lat="45.58173987989951" lon="10.710897592952374"><ele>116.0</ele><time>2026-04-26T07:12:53.999Z</time></trkpt><trkpt lat="45.581729402319226" lon="10.71078251701949"><ele>115.99999999999999</ele><time>2026-04-26T07:12:55.999Z</time></trkpt><trkpt lat="45.58171852309831" lon="10.710660348904954"><ele>116.0</ele><time>2026-04-26T07:12:59.999Z</time></trkpt><trkpt lat="45.58171279019179" lon="10.710567067342396"><ele>116.6</ele><time>2026-04-26T07:13:01.999Z</time></trkpt><trkpt lat="45.581707628412616" lon="10.710453114582815"><ele>117.19999999999999</ele><time>2026-04-26T07:13:04.999Z</time></trkpt><trkpt lat="45.58171192248134" lon="10.710344315110794"><ele>117.80000000000001</ele><time>2026-04-26T07:13:08.999Z</time></trkpt><trkpt lat="45.58180114400483" lon="10.71029381938115"><ele>118.4</ele><time>2026-04-26T07:13:10.998Z</time></trkpt><trkpt lat="45.58190803085172" lon="10.710333611775141"><ele>119.0</ele><time>2026-04-26T07:13:11.998Z</time></trkpt><trkpt lat="45.58200009353164" lon="10.710384692411205"><ele>120.66666666666666</ele><time>2026-04-26T07:13:12.998Z</time></trkpt><trkpt lat="45.58210219728172" lon="10.710417725145197"><ele>122.33333333333333</ele><time>2026-04-26T07:13:13.998Z</time></trkpt><trkpt lat="45.582179267126115" lon="10.710433629246376"><ele>124.0</ele><time>2026-04-26T07:13:14.998Z</time></trkpt><trkpt lat="45.58224634023745" lon="10.71044332518653"><ele>125.66666666666666</ele><time>2026-04-26T07:13:15.998Z</time></trkpt><trkpt lat="45.58232392309361" lon="10.710446432777239"><ele>127.33333333333333</ele><time>2026-04-26T07:13:16.998Z</time></trkpt><trkpt lat="45.582400455568234" lon="10.71045006207372"><ele>129.0</ele><time>2026-04-26T07:13:17.998Z</time></trkpt><trkpt lat="45.582481813188515" lon="10.710460250136919"><ele>129.0</ele><time>2026-04-26T07:13:18.998Z</time></trkpt><trkpt lat="45.58255935384034" lon="10.71046813796222"><ele>129.0</ele><time>2026-04-26T07:13:19.998Z</time></trkpt><trkpt lat="45.58263590681591" lon="10.710469676882319"><ele>129.0</ele><time>2026-04-26T07:13:20.998Z</time></trkpt><trkpt lat="45.58271630852096" lon="10.710459769856993"><ele>129.0</ele><time>2026-04-26T07:13:22Z</time></trkpt><trkpt lat="45.58279896656854" lon="10.710457270234192"><ele>129.0</ele><time>2026-04-26T07:13:23Z</time></trkpt><trkpt lat="45.58289609417692" lon="10.71044411480338"><ele>129.0</ele><time>2026-04-26T07:13:24Z</time></trkpt><trkpt lat="45.58300921214341" lon="10.710426949944285"><ele>131.75</ele><time>2026-04-26T07:13:25Z</time></trkpt><trkpt lat="45.58313364422707" lon="10.710409383755923"><ele>134.5</ele><time>2026-04-26T07:13:26Z</time></trkpt><trkpt lat="45.58323846022824" lon="10.710384931563764"><ele>137.25</ele><time>2026-04-26T07:13:27Z</time></trkpt><trkpt lat="45.58334386500163" lon="10.710354769044718"><ele>140.0</ele><time>2026-04-26T07:13:28Z</time></trkpt><trkpt lat="45.583453556470936" lon="10.710330403920954"><ele>140.0</ele><time>2026-04-26T07:13:29Z</time></trkpt><trkpt lat="45.583565156750836" lon="10.710316912059184"><ele>140.0</ele><time>2026-04-26T07:13:30Z</time></trkpt><trkpt lat="45.58368239740901" lon="10.71030979737652"><ele>140.0</ele><time>2026-04-26T07:13:31Z</time></trkpt><trkpt lat="45.583802984441306" lon="10.710314975204414"><ele>140.0</ele><time>2026-04-26T07:13:32Z</time></trkpt><trkpt lat="45.58392827405717" lon="10.710332122065818"><ele>142.5</ele><time>2026-04-26T07:13:33Z</time></trkpt><trkpt lat="45.584052948942784" lon="10.710359983420219"><ele>145.0</ele><time>2026-04-26T07:13:34Z</time></trkpt><trkpt lat="45.584176468772185" lon="10.710397327297777"><ele>147.5</ele><time>2026-04-26T07:13:35Z</time></trkpt><trkpt lat="45.584291238886166" lon="10.710433859440897"><ele>150.0</ele><time>2026-04-26T07:13:36Z</time></trkpt><trkpt lat="45.584391003438256" lon="10.710470965828803"><ele>150.0</ele><time>2026-04-26T07:13:37Z</time></trkpt><trkpt lat="45.5844992716298" lon="10.710504694657482"><ele>150.0</ele><time>2026-04-26T07:13:38Z</time></trkpt><trkpt lat="45.58459875093226" lon="10.710540542729992"><ele>150.0</ele><time>2026-04-26T07:13:39Z</time></trkpt><trkpt lat="45.58469040080948" lon="10.710574683728622"><ele>150.0</ele><time>2026-04-26T07:13:40Z</time></trkpt><trkpt lat="45.584776834704876" lon="10.710600851202404"><ele>150.0</ele><time>2026-04-26T07:13:41Z</time></trkpt><trkpt lat="45.5848587466868" lon="10.71062083461421"><ele>152.8</ele><time>2026-04-26T07:13:42Z</time></trkpt><trkpt lat="45.58494664477645" lon="10.710633485076537"><ele>155.6</ele><time>2026-04-26T07:13:43Z</time></trkpt><trkpt lat="45.585039512585" lon="10.710645660480468"><ele>158.39999999999998</ele><time>2026-04-26T07:13:44Z</time></trkpt><trkpt lat="45.58515033387352" lon="10.710644666066294"><ele>161.2</ele><time>2026-04-26T07:13:45Z</time></trkpt><trkpt lat="45.58524545524546" lon="10.710635958840815"><ele>164.0</ele><time>2026-04-26T07:13:46Z</time></trkpt><trkpt lat="45.58532566305308" lon="10.710622062289486"><ele>167.0</ele><time>2026-04-26T07:13:47Z</time></trkpt><trkpt lat="45.58540557745513" lon="10.710595089590846"><ele>170.0</ele><time>2026-04-26T07:13:48Z</time></trkpt><trkpt lat="45.58548264882946" lon="10.710561181989682"><ele>173.0</ele><time>2026-04-26T07:13:49Z</time></trkpt><trkpt lat="45.585556416518706" lon="10.710524916446502"><ele>176.0</ele><time>2026-04-26T07:13:50Z</time></trkpt><trkpt lat="45.58563080459028" lon="10.710490821575473"><ele>179.0</ele><time>2026-04-26T07:13:51Z</time></trkpt><trkpt lat="45.58571526809995" lon="10.710452606701704"><ele>182.0</ele><time>2026-04-26T07:13:52Z</time></trkpt><trkpt lat="45.58579983098097" lon="10.710416066771806"><ele>182.0</ele><time>2026-04-26T07:13:53Z</time></trkpt><trkpt lat="45.585893210752864" lon="10.710386436138123"><ele>182.0</ele><time>2026-04-26T07:13:54Z</time></trkpt><trkpt lat="45.5859912995182" lon="10.710374609253135"><ele>182.0</ele><time>2026-04-26T07:13:55Z</time></trkpt><trkpt lat="45.58608524782071" lon="10.710367810339363"><ele>182.0</ele><time>2026-04-26T07:13:56Z</time></trkpt><trkpt lat="45.586180710090034" lon="10.71037093419345"><ele>182.0</ele><time>2026-04-26T07:13:57Z</time></trkpt><trkpt lat="45.58626190957731" lon="10.710388940989072"><ele>185.5</ele><time>2026-04-26T07:13:58Z</time></trkpt><trkpt lat="45.586339314580364" lon="10.710406743271028"><ele>189.0</ele><time>2026-04-26T07:13:59Z</time></trkpt><trkpt lat="45.58640860472815" lon="10.710415311640368"><ele>192.5</ele><time>2026-04-26T07:14:00Z</time></trkpt><trkpt lat="45.586476009249566" lon="10.710431909145555"><ele>196.0</ele><time>2026-04-26T07:14:01Z</time></trkpt><trkpt lat="45.58655600518685" lon="10.710433866307126"><ele>199.50000000000003</ele><time>2026-04-26T07:14:02Z</time></trkpt><trkpt lat="45.58663432927464" lon="10.710428210223041"><ele>203.0</ele><time>2026-04-26T07:14:03Z</time></trkpt><trkpt lat="45.586713149830985" lon="10.710402767020678"><ele>203.00000000000003</ele><time>2026-04-26T07:14:03.999Z</time></trkpt><trkpt lat="45.58678252757189" lon="10.710375221332107"><ele>203.0</ele><time>2026-04-26T07:14:04.999Z</time></trkpt><trkpt lat="45.58684024764352" lon="10.710334848501914"><ele>203.0</ele><time>2026-04-26T07:14:05.999Z</time></trkpt><trkpt lat="45.58695137151104" lon="10.710285217385772"><ele>203.0</ele><time>2026-04-26T07:14:07.999Z</time></trkpt><trkpt lat="45.58701734405265" lon="10.71025385440939"><ele>203.00000000000003</ele><time>2026-04-26T07:14:08.999Z</time></trkpt><trkpt lat="45.58708211002985" lon="10.71021148425535"><ele>203.0</ele><time>2026-04-26T07:14:09.999Z</time></trkpt><trkpt lat="45.587177440860984" lon="10.71017400510109"><ele>203.0</ele><time>2026-04-26T07:14:11.999Z</time></trkpt><trkpt lat="45.58726119473339" lon="10.710229022408337"><ele>203.0</ele><time>2026-04-26T07:14:13.999Z</time></trkpt><trkpt lat="45.58724334771148" lon="10.710349725242102"><ele>203.0</ele><time>2026-04-26T07:14:14.999Z</time></trkpt><trkpt lat="45.587115091296106" lon="10.710471879277193"><ele>203.0</ele><time>2026-04-26T07:14:16.999Z</time></trkpt><trkpt lat="45.58705124705426" lon="10.71054302249906"><ele>203.0</ele><time>2026-04-26T07:14:17.999Z</time></trkpt><trkpt lat="45.58699079768289" lon="10.710683118858725"><ele>207.25</ele><time>2026-04-26T07:14:19.999Z</time></trkpt><trkpt lat="45.587074349068644" lon="10.710839421981527"><ele>211.5</ele><time>2026-04-26T07:14:21.999Z</time></trkpt><trkpt lat="45.587198738761764" lon="10.710782190467892"><ele>215.75</ele><time>2026-04-26T07:14:22.999Z</time></trkpt><trkpt lat="45.587280890940065" lon="10.71071112697896"><ele>220.0</ele><time>2026-04-26T07:14:23.999Z</time></trkpt><trkpt lat="45.587375146545675" lon="10.710602843760563"><ele>220.0</ele><time>2026-04-26T07:14:24.999Z</time></trkpt><trkpt lat="45.58748598971112" lon="10.71051776484732"><ele>220.0</ele><time>2026-04-26T07:14:25.999Z</time></trkpt><trkpt lat="45.587597469923445" lon="10.71041394336878"><ele>220.0</ele><time>2026-04-26T07:14:26.999Z</time></trkpt><trkpt lat="45.58768728618156" lon="10.710345822003365"><ele>220.0</ele><time>2026-04-26T07:14:27.999Z</time></trkpt><trkpt lat="45.58776355581614" lon="10.710303559062103"><ele>220.0</ele><time>2026-04-26T07:14:28.999Z</time></trkpt><trkpt lat="45.58784198113034" lon="10.710282790799642"><ele>222.49999999999997</ele><time>2026-04-26T07:14:29.999Z</time></trkpt><trkpt lat="45.58792384070164" lon="10.710286894479879"><ele>225.0</ele><time>2026-04-26T07:14:30.999Z</time></trkpt><trkpt lat="45.58799598702956" lon="10.710278029634894"><ele>227.5</ele><time>2026-04-26T07:14:31.999Z</time></trkpt><trkpt lat="45.58806230684416" lon="10.710309722158872"><ele>230.0</ele><time>2026-04-26T07:14:32.999Z</time></trkpt><trkpt lat="45.588154323624494" lon="10.71037656887067"><ele>232.49999999999997</ele><time>2026-04-26T07:14:34.999Z</time></trkpt><trkpt lat="45.58825351125611" lon="10.710418317826086"><ele>235.0</ele><time>2026-04-26T07:14:36.999Z</time></trkpt><trkpt lat="45.58835306000232" lon="10.7104418928972"><ele>235.0</ele><time>2026-04-26T07:14:39.999Z</time></trkpt><trkpt lat="45.58847071606729" lon="10.710441857054171"><ele>235.0</ele><time>2026-04-26T07:14:41.999Z</time></trkpt><trkpt lat="45.58854269432037" lon="10.710389651725631"><ele>235.0</ele><time>2026-04-26T07:14:42.999Z</time></trkpt><trkpt lat="45.58862717055177" lon="10.710320891128179"><ele>235.0</ele><time>2026-04-26T07:14:43.999Z</time></trkpt><trkpt lat="45.58868289483785" lon="10.710224586640052"><ele>235.0</ele><time>2026-04-26T07:14:44.999Z</time></trkpt><trkpt lat="45.58870009422441" lon="10.710111111620455"><ele>235.16666666666666</ele><time>2026-04-26T07:14:45.999Z</time></trkpt><trkpt lat="45.58872124500023" lon="10.710006525158555"><ele>235.33333333333331</ele><time>2026-04-26T07:14:46.999Z</time></trkpt><trkpt lat="45.58871376271688" lon="10.709892434692676"><ele>235.5</ele><time>2026-04-26T07:14:47.999Z</time></trkpt><trkpt lat="45.5886804375126" lon="10.709764330935528"><ele>235.66666666666669</ele><time>2026-04-26T07:14:48.999Z</time></trkpt><trkpt lat="45.58863718873541" lon="10.709647746201144"><ele>235.83333333333334</ele><time>2026-04-26T07:14:49.999Z</time></trkpt><trkpt lat="45.58859062784839" lon="10.709537802123966"><ele>236.0</ele><time>2026-04-26T07:14:50.999Z</time></trkpt><trkpt lat="45.58853788272496" lon="10.70943276106524"><ele>233.60000000000002</ele><time>2026-04-26T07:14:51.999Z</time></trkpt><trkpt lat="45.58847689336327" lon="10.709309013458299"><ele>231.20000000000002</ele><time>2026-04-26T07:14:52.999Z</time></trkpt><trkpt lat="45.58841766268928" lon="10.709197877843389"><ele>228.79999999999998</ele><time>2026-04-26T07:14:53.999Z</time></trkpt><trkpt lat="45.58842946178984" lon="10.709074703013274"><ele>226.39999999999998</ele><time>2026-04-26T07:14:54.999Z</time></trkpt><trkpt lat="45.58848270230558" lon="10.70898571295217"><ele>224.0</ele><time>2026-04-26T07:14:55.999Z</time></trkpt><trkpt lat="45.58856436972383" lon="10.708956637101915"><ele>224.0</ele><time>2026-04-26T07:14:56.999Z</time></trkpt><trkpt lat="45.58865397132121" lon="10.709006291132509"><ele>224.0</ele><time>2026-04-26T07:14:57.999Z</time></trkpt><trkpt lat="45.58876702639411" lon="10.709116924517653"><ele>224.0</ele><time>2026-04-26T07:14:58.999Z</time></trkpt><trkpt lat="45.58889217090507" lon="10.709247688769496"><ele>224.0</ele><time>2026-04-26T07:14:59.999Z</time></trkpt><trkpt lat="45.589003810248165" lon="10.709410516042473"><ele>227.0</ele><time>2026-04-26T07:15:00.999Z</time></trkpt><trkpt lat="45.58910637947921" lon="10.709571271688242"><ele>230.0</ele><time>2026-04-26T07:15:01.999Z</time></trkpt><trkpt lat="45.58919040000954" lon="10.7096971148614"><ele>233.0</ele><time>2026-04-26T07:15:02.999Z</time></trkpt><trkpt lat="45.589245243969806" lon="10.709836268342213"><ele>236.0</ele><time>2026-04-26T07:15:03.999Z</time></trkpt><trkpt lat="45.58930183853777" lon="10.70999072771836"><ele>236.0</ele><time>2026-04-26T07:15:04.999Z</time></trkpt><trkpt lat="45.58937703280746" lon="10.710167879328534"><ele>236.0</ele><time>2026-04-26T07:15:05.999Z</time></trkpt><trkpt lat="45.58946331167777" lon="10.710358741987315"><ele>236.0</ele><time>2026-04-26T07:15:06.999Z</time></trkpt><trkpt lat="45.589512709523625" lon="10.710531160995373"><ele>236.0</ele><time>2026-04-26T07:15:07.999Z</time></trkpt><trkpt lat="45.58954005696424" lon="10.710673663785558"><ele>236.60000000000002</ele><time>2026-04-26T07:15:08.999Z</time></trkpt><trkpt lat="45.58955392919294" lon="10.710801778840224"><ele>237.20000000000002</ele><time>2026-04-26T07:15:09.999Z</time></trkpt><trkpt lat="45.58953797116177" lon="10.710931485294735"><ele>237.79999999999998</ele><time>2026-04-26T07:15:10.999Z</time></trkpt><trkpt lat="45.589506832756506" lon="10.711071415810517"><ele>238.39999999999998</ele><time>2026-04-26T07:15:11.999Z</time></trkpt><trkpt lat="45.589443736255994" lon="10.711190259560201"><ele>239.0</ele><time>2026-04-26T07:15:12.999Z</time></trkpt><trkpt lat="45.5894161250174" lon="10.71132766095872"><ele>241.2</ele><time>2026-04-26T07:15:13.999Z</time></trkpt><trkpt lat="45.589370170652266" lon="10.711450842119701"><ele>243.39999999999998</ele><time>2026-04-26T07:15:14.999Z</time></trkpt><trkpt lat="45.58932557330819" lon="10.711562248515817"><ele>245.6</ele><time>2026-04-26T07:15:15.999Z</time></trkpt><trkpt lat="45.58927797719117" lon="10.711664876016847"><ele>247.8</ele><time>2026-04-26T07:15:16.999Z</time></trkpt><trkpt lat="45.58921188435031" lon="10.711752362624866"><ele>250.0</ele><time>2026-04-26T07:15:17.999Z</time></trkpt><trkpt lat="45.58911779068302" lon="10.711757436261601"><ele>250.0</ele><time>2026-04-26T07:15:18.999Z</time></trkpt><trkpt lat="45.589033835181795" lon="10.711774830225208"><ele>250.0</ele><time>2026-04-26T07:15:19.999Z</time></trkpt><trkpt lat="45.58896137460416" lon="10.71179584052836"><ele>250.0</ele><time>2026-04-26T07:15:20.999Z</time></trkpt><trkpt lat="45.58884804830412" lon="10.71182301538998"><ele>250.0</ele><time>2026-04-26T07:15:22.999Z</time></trkpt><trkpt lat="45.5887521120254" lon="10.711890517028507"><ele>250.0</ele><time>2026-04-26T07:15:24.999Z</time></trkpt><trkpt lat="45.58875040653734" lon="10.712077270862524"><ele>253.2</ele><time>2026-04-26T07:15:26.999Z</time></trkpt><trkpt lat="45.588840745176455" lon="10.712110691450869"><ele>256.4</ele><time>2026-04-26T07:15:28Z</time></trkpt><trkpt lat="45.58892841052952" lon="10.712142807757825"><ele>259.6</ele><time>2026-04-26T07:15:29Z</time></trkpt><trkpt lat="45.58901979198499" lon="10.71219019777406"><ele>262.8</ele><time>2026-04-26T07:15:30Z</time></trkpt><trkpt lat="45.58910245191087" lon="10.712228682920196"><ele>266.0</ele><time>2026-04-26T07:15:31Z</time></trkpt><trkpt lat="45.589194408749975" lon="10.712258408723642"><ele>266.0</ele><time>2026-04-26T07:15:32Z</time></trkpt><trkpt lat="45.58930041090776" lon="10.712261690527653"><ele>266.0</ele><time>2026-04-26T07:15:33Z</time></trkpt><trkpt lat="45.589413615494024" lon="10.712245139631424"><ele>266.0</ele><time>2026-04-26T07:15:34Z</time></trkpt><trkpt lat="45.589533252927666" lon="10.71221118283167"><ele>266.0</ele><time>2026-04-26T07:15:35Z</time></trkpt><trkpt lat="45.58964943366183" lon="10.712163935736706"><ele>266.6</ele><time>2026-04-26T07:15:36Z</time></trkpt><trkpt lat="45.5897420157588" lon="10.71211353893983"><ele>267.20000000000005</ele><time>2026-04-26T07:15:37Z</time></trkpt><trkpt lat="45.58983285640071" lon="10.71206097908088"><ele>267.79999999999995</ele><time>2026-04-26T07:15:38Z</time></trkpt><trkpt lat="45.589927912151374" lon="10.712006419821332"><ele>268.4</ele><time>2026-04-26T07:15:39Z</time></trkpt><trkpt lat="45.59002557351806" lon="10.711937465382563"><ele>269.0</ele><time>2026-04-26T07:15:40Z</time></trkpt><trkpt lat="45.59012073534207" lon="10.71185989548668"><ele>269.0</ele><time>2026-04-26T07:15:41Z</time></trkpt><trkpt lat="45.59020680351858" lon="10.71178030783313"><ele>269.0</ele><time>2026-04-26T07:15:42Z</time></trkpt><trkpt lat="45.59028004592138" lon="10.71171811555426"><ele>269.0</ele><time>2026-04-26T07:15:43Z</time></trkpt><trkpt lat="45.59035284504208" lon="10.711661333888093"><ele>269.0</ele><time>2026-04-26T07:15:44Z</time></trkpt><trkpt lat="45.590427677661246" lon="10.711619055550468"><ele>269.0</ele><time>2026-04-26T07:15:45Z</time></trkpt><trkpt lat="45.59050968910513" lon="10.711584588361811"><ele>269.0</ele><time>2026-04-26T07:15:46Z</time></trkpt><trkpt lat="45.5906027238117" lon="10.71158101915249"><ele>272.0</ele><time>2026-04-26T07:15:47Z</time></trkpt><trkpt lat="45.5907083700062" lon="10.711614464409308"><ele>275.0</ele><time>2026-04-26T07:15:48Z</time></trkpt><trkpt lat="45.59081843804108" lon="10.711669384972053"><ele>278.0</ele><time>2026-04-26T07:15:49Z</time></trkpt><trkpt lat="45.59093103011104" lon="10.711732801818552"><ele>281.0</ele><time>2026-04-26T07:15:50Z</time></trkpt><trkpt lat="45.59104043191175" lon="10.711799020178187"><ele>281.0</ele><time>2026-04-26T07:15:51Z</time></trkpt><trkpt lat="45.591138820143954" lon="10.711855369882628"><ele>281.0</ele><time>2026-04-26T07:15:52Z</time></trkpt><trkpt lat="45.591232598491615" lon="10.711908411815834"><ele>281.0</ele><time>2026-04-26T07:15:53Z</time></trkpt><trkpt lat="45.5913241768313" lon="10.711960884934738"><ele>281.0</ele><time>2026-04-26T07:15:54Z</time></trkpt><trkpt lat="45.59142160301757" lon="10.712012553260688"><ele>281.0</ele><time>2026-04-26T07:15:55Z</time></trkpt><trkpt lat="45.59152519884488" lon="10.712059579151568"><ele>281.5</ele><time>2026-04-26T07:15:56Z</time></trkpt><trkpt lat="45.59163256896743" lon="10.712099990864585"><ele>282.0</ele><time>2026-04-26T07:15:57Z</time></trkpt><trkpt lat="45.591745783961606" lon="10.712128539176012"><ele>282.5</ele><time>2026-04-26T07:15:58Z</time></trkpt><trkpt lat="45.591859996079776" lon="10.71215226406435"><ele>283.0</ele><time>2026-04-26T07:15:59Z</time></trkpt><trkpt lat="45.59197555317754" lon="10.712183711809866"><ele>283.4</ele><time>2026-04-26T07:16:00Z</time></trkpt><trkpt lat="45.59208845927078" lon="10.71221667335476"><ele>283.8</ele><time>2026-04-26T07:16:01Z</time></trkpt><trkpt lat="45.59219533710995" lon="10.7122386335253"><ele>284.2</ele><time>2026-04-26T07:16:02Z</time></trkpt><trkpt lat="45.592279319147146" lon="10.712249149474214"><ele>284.6</ele><time>2026-04-26T07:16:03Z</time></trkpt><trkpt lat="45.592347814694165" lon="10.712260349738049"><ele>285.0</ele><time>2026-04-26T07:16:04Z</time></trkpt><trkpt lat="45.59242104884285" lon="10.712274840603339"><ele>285.0</ele><time>2026-04-26T07:16:05Z</time></trkpt><trkpt lat="45.59249508201699" lon="10.712289400887375"><ele>285.0</ele><time>2026-04-26T07:16:06Z</time></trkpt><trkpt lat="45.59256731166167" lon="10.71230212199432"><ele>285.0</ele><time>2026-04-26T07:16:07Z</time></trkpt><trkpt lat="45.592638226191866" lon="10.712312419985254"><ele>285.0</ele><time>2026-04-26T07:16:08Z</time></trkpt><trkpt lat="45.59271997764961" lon="10.712325082261128"><ele>285.0</ele><time>2026-04-26T07:16:09Z</time></trkpt><trkpt lat="45.59281126060832" lon="10.712343582501513"><ele>285.0</ele><time>2026-04-26T07:16:10Z</time></trkpt><trkpt lat="45.59290452459111" lon="10.712366414899016"><ele>285.25</ele><time>2026-04-26T07:16:11Z</time></trkpt><trkpt lat="45.59301652167059" lon="10.712388004471304"><ele>285.5</ele><time>2026-04-26T07:16:12Z</time></trkpt><trkpt lat="45.59314257963224" lon="10.712412341232193"><ele>285.75</ele><time>2026-04-26T07:16:13Z</time></trkpt><trkpt lat="45.59326243804047" lon="10.712433315066725"><ele>286.0</ele><time>2026-04-26T07:16:14Z</time></trkpt><trkpt lat="45.59337264925875" lon="10.712446185686607"><ele>286.0</ele><time>2026-04-26T07:16:15Z</time></trkpt><trkpt lat="45.59348388357779" lon="10.7124643363296"><ele>286.0</ele><time>2026-04-26T07:16:16Z</time></trkpt><trkpt lat="45.59359745112864" lon="10.71248824909782"><ele>286.0</ele><time>2026-04-26T07:16:17Z</time></trkpt><trkpt lat="45.59369537558259" lon="10.71251572732756"><ele>286.0</ele><time>2026-04-26T07:16:18Z</time></trkpt><trkpt lat="45.59377725252453" lon="10.712554152253274"><ele>286.0</ele><time>2026-04-26T07:16:19Z</time></trkpt><trkpt lat="45.59385325276341" lon="10.712615577548684"><ele>288.6</ele><time>2026-04-26T07:16:20Z</time></trkpt><trkpt lat="45.59392371447479" lon="10.712709588267462"><ele>291.20000000000005</ele><time>2026-04-26T07:16:21Z</time></trkpt><trkpt lat="45.59397910088683" lon="10.712818337677636"><ele>293.79999999999995</ele><time>2026-04-26T07:16:22Z</time></trkpt><trkpt lat="45.59401766756372" lon="10.712947111320915"><ele>296.4</ele><time>2026-04-26T07:16:23Z</time></trkpt><trkpt lat="45.59404427798204" lon="10.713093702526422"><ele>299.0</ele><time>2026-04-26T07:16:24Z</time></trkpt><trkpt lat="45.59407669777844" lon="10.713223597228644"><ele>299.1666666666667</ele><time>2026-04-26T07:16:25Z</time></trkpt><trkpt lat="45.594109899976566" lon="10.713303900175571"><ele>299.33333333333337</ele><time>2026-04-26T07:16:26Z</time></trkpt><trkpt lat="45.59415068951275" lon="10.71338795096613"><ele>299.5</ele><time>2026-04-26T07:16:28Z</time></trkpt><trkpt lat="45.59420596208903" lon="10.713460525828415"><ele>299.6666666666667</ele><time>2026-04-26T07:16:31Z</time></trkpt><trkpt lat="45.59429181415453" lon="10.713562426586577"><ele>299.8333333333333</ele><time>2026-04-26T07:16:40Z</time></trkpt><trkpt lat="45.594326964493206" lon="10.713655193658294"><ele>300.0</ele><time>2026-04-26T07:16:42Z</time></trkpt><trkpt lat="45.594198971437336" lon="10.713791549449434"><ele>300.0</ele><time>2026-04-26T07:16:44.999Z</time></trkpt><trkpt lat="45.594127874980934" lon="10.713873617164051"><ele>300.0</ele><time>2026-04-26T07:16:45.999Z</time></trkpt><trkpt lat="45.59404126349244" lon="10.713972089761404"><ele>300.0</ele><time>2026-04-26T07:16:47.999Z</time></trkpt><trkpt lat="45.593990448524266" lon="10.714097833045033"><ele>300.0</ele><time>2026-04-26T07:16:49.999Z</time></trkpt><trkpt lat="45.59395492983604" lon="10.714177307050864"><ele>300.0</ele><time>2026-04-26T07:16:50.999Z</time></trkpt><trkpt lat="45.59397296377887" lon="10.71432310201913"><ele>299.4</ele><time>2026-04-26T07:16:52.999Z</time></trkpt><trkpt lat="45.593961833351806" lon="10.714459241388381"><ele>298.8</ele><time>2026-04-26T07:16:54.999Z</time></trkpt><trkpt lat="45.593947116979884" lon="10.71463500774132"><ele>298.2</ele><time>2026-04-26T07:16:56.999Z</time></trkpt><trkpt lat="45.59392769946627" lon="10.714767818712902"><ele>297.6</ele><time>2026-04-26T07:16:58.999Z</time></trkpt><trkpt lat="45.593910832150065" lon="10.71488232678873"><ele>297.0</ele><time>2026-04-26T07:16:59.999Z</time></trkpt><trkpt lat="45.593890444364924" lon="10.714997475261482"><ele>297.0</ele><time>2026-04-26T07:17:00.999Z</time></trkpt><trkpt lat="45.59386941063657" lon="10.71510819994295"><ele>297.0</ele><time>2026-04-26T07:17:01.999Z</time></trkpt><trkpt lat="45.59385418380603" lon="10.715203185569"><ele>297.0</ele><time>2026-04-26T07:17:02.999Z</time></trkpt><trkpt lat="45.59379247034319" lon="10.715378766126944"><ele>297.0</ele><time>2026-04-26T07:17:04.999Z</time></trkpt><trkpt lat="45.593758089250564" lon="10.715464298749295"><ele>297.0</ele><time>2026-04-26T07:17:05.999Z</time></trkpt><trkpt lat="45.59372457107806" lon="10.715590556421166"><ele>297.0</ele><time>2026-04-26T07:17:07.999Z</time></trkpt><trkpt lat="45.593692772613" lon="10.715687777531713"><ele>294.8333333333333</ele><time>2026-04-26T07:17:09.999Z</time></trkpt><trkpt lat="45.59365977274897" lon="10.715772430086462"><ele>292.6666666666667</ele><time>2026-04-26T07:17:11.999Z</time></trkpt><trkpt lat="45.59363378717583" lon="10.715855421680066"><ele>290.5</ele><time>2026-04-26T07:17:16.999Z</time></trkpt><trkpt lat="45.59360099901809" lon="10.715955034534371"><ele>288.33333333333337</ele><time>2026-04-26T07:17:22.999Z</time></trkpt><trkpt lat="45.593573161442166" lon="10.716046666713083"><ele>286.1666666666667</ele><time>2026-04-26T07:17:26.999Z</time></trkpt><trkpt lat="45.59354565587832" lon="10.71613656040557"><ele>284.0</ele><time>2026-04-26T07:17:32.999Z</time></trkpt><trkpt lat="45.59340959060449" lon="10.716123543319771"><ele>283.6666666666667</ele><time>2026-04-26T07:17:34Z</time></trkpt><trkpt lat="45.59337388765139" lon="10.716255789675106"><ele>283.33333333333337</ele><time>2026-04-26T07:17:37Z</time></trkpt><trkpt lat="45.59336354195588" lon="10.716355046332467"><ele>283.0</ele><time>2026-04-26T07:17:39Z</time></trkpt><trkpt lat="45.59334317981541" lon="10.716460345225022"><ele>282.6666666666667</ele><time>2026-04-26T07:17:41Z</time></trkpt><trkpt lat="45.593308918234975" lon="10.716575430455933"><ele>282.3333333333333</ele><time>2026-04-26T07:17:43Z</time></trkpt><trkpt lat="45.59326894912" lon="10.716675761567943"><ele>282.0</ele><time>2026-04-26T07:17:45Z</time></trkpt><trkpt lat="45.593203506924965" lon="10.716770939027999"><ele>282.0</ele><time>2026-04-26T07:17:47Z</time></trkpt><trkpt lat="45.59311694698515" lon="10.716869064493773"><ele>282.0</ele><time>2026-04-26T07:17:49Z</time></trkpt><trkpt lat="45.5930267730778" lon="10.716936018753021"><ele>282.0</ele><time>2026-04-26T07:17:51Z</time></trkpt><trkpt lat="45.5929171244063" lon="10.717003520178942"><ele>282.0</ele><time>2026-04-26T07:17:53Z</time></trkpt><trkpt lat="45.59284459568539" lon="10.717042844673573"><ele>282.0</ele><time>2026-04-26T07:17:54Z</time></trkpt><trkpt lat="45.59278187191899" lon="10.717068090170569"><ele>279.4</ele><time>2026-04-26T07:17:55Z</time></trkpt><trkpt lat="45.59265749129279" lon="10.71710267047605"><ele>276.79999999999995</ele><time>2026-04-26T07:17:57Z</time></trkpt><trkpt lat="45.592591738092736" lon="10.717090817794409"><ele>274.2</ele><time>2026-04-26T07:17:57.999Z</time></trkpt><trkpt lat="45.592502846670676" lon="10.717060374641058"><ele>271.59999999999997</ele><time>2026-04-26T07:17:59.999Z</time></trkpt><trkpt lat="45.592422781454125" lon="10.71702384570586"><ele>269.0</ele><time>2026-04-26T07:18:02.999Z</time></trkpt><trkpt lat="45.59234236217169" lon="10.716990561412407"><ele>269.0</ele><time>2026-04-26T07:18:05.999Z</time></trkpt><trkpt lat="45.59228950385566" lon="10.717188975201559"><ele>269.0</ele><time>2026-04-26T07:18:07.999Z</time></trkpt><trkpt lat="45.5922474616781" lon="10.717336532915072"><ele>269.0</ele><time>2026-04-26T07:18:09.999Z</time></trkpt><trkpt lat="45.59218698418491" lon="10.717459596304087"><ele>269.0</ele><time>2026-04-26T07:18:11.999Z</time></trkpt><trkpt lat="45.59214314387204" lon="10.717530336778855"><ele>269.0</ele><time>2026-04-26T07:18:12.999Z</time></trkpt><trkpt lat="45.592084837081735" lon="10.717593769322095"><ele>268.33333333333337</ele><time>2026-04-26T07:18:13.999Z</time></trkpt><trkpt lat="45.59197795274466" lon="10.71770604682123"><ele>267.6666666666667</ele><time>2026-04-26T07:18:15.999Z</time></trkpt><trkpt lat="45.59191418993846" lon="10.71774725316017"><ele>267.0</ele><time>2026-04-26T07:18:16.999Z</time></trkpt><trkpt lat="45.5918709102483" lon="10.71782118699219"><ele>266.3333333333333</ele><time>2026-04-26T07:18:17.999Z</time></trkpt><trkpt lat="45.59181607068489" lon="10.717874243014032"><ele>265.66666666666663</ele><time>2026-04-26T07:18:18.999Z</time></trkpt><trkpt lat="45.59175777654535" lon="10.717914480402202"><ele>265.0</ele><time>2026-04-26T07:18:19.999Z</time></trkpt><trkpt lat="45.59169665667314" lon="10.717941474944919"><ele>264.4</ele><time>2026-04-26T07:18:20.999Z</time></trkpt><trkpt lat="45.5915809247785" lon="10.717983344829415"><ele>263.8</ele><time>2026-04-26T07:18:22.999Z</time></trkpt><trkpt lat="45.591486553220506" lon="10.718091613874597"><ele>263.2</ele><time>2026-04-26T07:18:24.999Z</time></trkpt><trkpt lat="45.591418010938035" lon="10.718254885524043"><ele>262.6</ele><time>2026-04-26T07:18:26.999Z</time></trkpt><trkpt lat="45.59137507656959" lon="10.718322217313952"><ele>262.0</ele><time>2026-04-26T07:18:27.999Z</time></trkpt><trkpt lat="45.591278940160414" lon="10.718426681996531"><ele>262.16666666666663</ele><time>2026-04-26T07:18:29.999Z</time></trkpt><trkpt lat="45.59116976240757" lon="10.718529994168938"><ele>262.3333333333333</ele><time>2026-04-26T07:18:31.999Z</time></trkpt><trkpt lat="45.59110202476417" lon="10.718571722965109"><ele>262.5</ele><time>2026-04-26T07:18:32.999Z</time></trkpt><trkpt lat="45.59103240076485" lon="10.718577262845617"><ele>262.6666666666667</ele><time>2026-04-26T07:18:33.999Z</time></trkpt><trkpt lat="45.590965809739494" lon="10.718598294536312"><ele>262.83333333333337</ele><time>2026-04-26T07:18:34.999Z</time></trkpt><trkpt lat="45.590897298638545" lon="10.718618353051985"><ele>263.0</ele><time>2026-04-26T07:18:35.999Z</time></trkpt><trkpt lat="45.590835829854505" lon="10.71866515139986"><ele>262.6</ele><time>2026-04-26T07:18:36.999Z</time></trkpt><trkpt lat="45.59074076605434" lon="10.718711883589704"><ele>262.20000000000005</ele><time>2026-04-26T07:18:38.999Z</time></trkpt><trkpt lat="45.590677875227094" lon="10.718754057964796"><ele>261.8</ele><time>2026-04-26T07:18:40.999Z</time></trkpt><trkpt lat="45.59072776500657" lon="10.718911076276841"><ele>261.40000000000003</ele><time>2026-04-26T07:18:42.999Z</time></trkpt><trkpt lat="45.59080975208768" lon="10.718973235331388"><ele>261.0</ele><time>2026-04-26T07:18:44.999Z</time></trkpt><trkpt lat="45.59092900094729" lon="10.719050067860715"><ele>261.0</ele><time>2026-04-26T07:18:46.999Z</time></trkpt><trkpt lat="45.59099702405202" lon="10.719092575793999"><ele>261.0</ele><time>2026-04-26T07:18:47.999Z</time></trkpt><trkpt lat="45.59105817992478" lon="10.719138125187136"><ele>261.0</ele><time>2026-04-26T07:18:48.999Z</time></trkpt><trkpt lat="45.59111441799679" lon="10.719195747239974"><ele>261.0</ele><time>2026-04-26T07:18:49.999Z</time></trkpt><trkpt lat="45.59116341431108" lon="10.719262774292888"><ele>261.0</ele><time>2026-04-26T07:18:50.999Z</time></trkpt><trkpt lat="45.59121027807014" lon="10.7193361326267"><ele>261.0</ele><time>2026-04-26T07:18:51.999Z</time></trkpt><trkpt lat="45.59130938400189" lon="10.719468125077542"><ele>261.0</ele><time>2026-04-26T07:18:53.999Z</time></trkpt><trkpt lat="45.591375263691724" lon="10.719540486302785"><ele>261.0</ele><time>2026-04-26T07:18:54.999Z</time></trkpt><trkpt lat="45.59143552975132" lon="10.719606383485122"><ele>261.0</ele><time>2026-04-26T07:18:55.999Z</time></trkpt><trkpt lat="45.591489683800646" lon="10.719668216817242"><ele>261.0</ele><time>2026-04-26T07:18:56.999Z</time></trkpt><trkpt lat="45.59154873649466" lon="10.719738297892118"><ele>261.0</ele><time>2026-04-26T07:18:57.999Z</time></trkpt><trkpt lat="45.5916118335728" lon="10.719811149568846"><ele>261.0</ele><time>2026-04-26T07:18:58.999Z</time></trkpt><trkpt lat="45.59166272284805" lon="10.719911052884829"><ele>261.0</ele><time>2026-04-26T07:18:59.999Z</time></trkpt><trkpt lat="45.59172945135105" lon="10.719967949474755"><ele>261.0</ele><time>2026-04-26T07:19:00.999Z</time></trkpt><trkpt lat="45.59178191352892" lon="10.720036028651792"><ele>261.0</ele><time>2026-04-26T07:19:01.999Z</time></trkpt><trkpt lat="45.59182970129603" lon="10.720103364023986"><ele>261.0</ele><time>2026-04-26T07:19:02.999Z</time></trkpt><trkpt lat="45.59188270091578" lon="10.720172315846531"><ele>261.0</ele><time>2026-04-26T07:19:03.999Z</time></trkpt><trkpt lat="45.59194036111297" lon="10.720242656123277"><ele>261.0</ele><time>2026-04-26T07:19:04.999Z</time></trkpt><trkpt lat="45.5919989459747" lon="10.720325141988189"><ele>261.0</ele><time>2026-04-26T07:19:05.999Z</time></trkpt><trkpt lat="45.59204782878732" lon="10.720393987189919"><ele>261.3333333333333</ele><time>2026-04-26T07:19:06.999Z</time></trkpt><trkpt lat="45.59210200218568" lon="10.720449691740784"><ele>261.6666666666667</ele><time>2026-04-26T07:19:07.999Z</time></trkpt><trkpt lat="45.59216767775922" lon="10.720519314913538"><ele>262.0</ele><time>2026-04-26T07:19:08.999Z</time></trkpt><trkpt lat="45.592234678866845" lon="10.720596101606613"><ele>262.33333333333337</ele><time>2026-04-26T07:19:09.999Z</time></trkpt><trkpt lat="45.59230616126589" lon="10.720673270508296"><ele>262.6666666666667</ele><time>2026-04-26T07:19:10.999Z</time></trkpt><trkpt lat="45.59238213841277" lon="10.72073879480428"><ele>263.0</ele><time>2026-04-26T07:19:11.999Z</time></trkpt><trkpt lat="45.59245884354943" lon="10.720819643528795"><ele>263.0</ele><time>2026-04-26T07:19:12.999Z</time></trkpt><trkpt lat="45.59254452145046" lon="10.720869072690276"><ele>263.0</ele><time>2026-04-26T07:19:13.999Z</time></trkpt><trkpt lat="45.59263480252216" lon="10.720895580565761"><ele>263.0</ele><time>2026-04-26T07:19:14.999Z</time></trkpt><trkpt lat="45.592721274186395" lon="10.720959372016187"><ele>263.0</ele><time>2026-04-26T07:19:15.999Z</time></trkpt><trkpt lat="45.59279077584819" lon="10.721031618388643"><ele>263.0</ele><time>2026-04-26T07:19:16.999Z</time></trkpt><trkpt lat="45.59285042921108" lon="10.72111092560378"><ele>263.0</ele><time>2026-04-26T07:19:17.999Z</time></trkpt><trkpt lat="45.592910352065964" lon="10.721218656437722"><ele>264.5</ele><time>2026-04-26T07:19:18.999Z</time></trkpt><trkpt lat="45.592984418607024" lon="10.721362562684291"><ele>266.0</ele><time>2026-04-26T07:19:19.999Z</time></trkpt><trkpt lat="45.59305892707469" lon="10.721509360930341"><ele>267.5</ele><time>2026-04-26T07:19:20.999Z</time></trkpt><trkpt lat="45.593122878282145" lon="10.72164438067952"><ele>269.0</ele><time>2026-04-26T07:19:21.999Z</time></trkpt><trkpt lat="45.59316966592599" lon="10.721772927863853"><ele>269.0</ele><time>2026-04-26T07:19:22.999Z</time></trkpt><trkpt lat="45.59323104278546" lon="10.721889201911086"><ele>269.0</ele><time>2026-04-26T07:19:23.999Z</time></trkpt><trkpt lat="45.5932802695077" lon="10.721983921195456"><ele>269.0</ele><time>2026-04-26T07:19:24.999Z</time></trkpt><trkpt lat="45.59332980478887" lon="10.722085083771853"><ele>269.0</ele><time>2026-04-26T07:19:25.998Z</time></trkpt><trkpt lat="45.59338315196308" lon="10.722199728647011"><ele>269.0</ele><time>2026-04-26T07:19:26.998Z</time></trkpt><trkpt lat="45.59343044043712" lon="10.722301352964005"><ele>268.0</ele><time>2026-04-26T07:19:27.998Z</time></trkpt><trkpt lat="45.59348442763137" lon="10.722373084836178"><ele>267.0</ele><time>2026-04-26T07:19:28.998Z</time></trkpt><trkpt lat="45.59351112178904" lon="10.722466320519029"><ele>266.0</ele><time>2026-04-26T07:19:29.998Z</time></trkpt><trkpt lat="45.593555976618106" lon="10.722546005065565"><ele>265.0</ele><time>2026-04-26T07:19:30.998Z</time></trkpt><trkpt lat="45.59361594948736" lon="10.722604625044388"><ele>264.0</ele><time>2026-04-26T07:19:31.998Z</time></trkpt><trkpt lat="45.593655841781136" lon="10.722691352449923"><ele>263.0</ele><time>2026-04-26T07:19:32.998Z</time></trkpt><trkpt lat="45.59370123692834" lon="10.722769699625557"><ele>262.0</ele><time>2026-04-26T07:19:33.998Z</time></trkpt><trkpt lat="45.59374547805879" lon="10.722875484391869"><ele>261.3333333333333</ele><time>2026-04-26T07:19:34.998Z</time></trkpt><trkpt lat="45.59379549874008" lon="10.722971638445898"><ele>260.66666666666663</ele><time>2026-04-26T07:19:35.998Z</time></trkpt><trkpt lat="45.59384023991511" lon="10.72307773241837"><ele>260.0</ele><time>2026-04-26T07:19:36.998Z</time></trkpt><trkpt lat="45.593889175144106" lon="10.723187153069087"><ele>259.3333333333333</ele><time>2026-04-26T07:19:37.998Z</time></trkpt><trkpt lat="45.59394008786632" lon="10.723292608224323"><ele>258.6666666666667</ele><time>2026-04-26T07:19:38.998Z</time></trkpt><trkpt lat="45.59399765841407" lon="10.723388898278808"><ele>258.0</ele><time>2026-04-26T07:19:40Z</time></trkpt><trkpt lat="45.594058440725455" lon="10.723474544560911"><ele>258.0</ele><time>2026-04-26T07:19:41Z</time></trkpt><trkpt lat="45.594126705756665" lon="10.72355887210102"><ele>258.0</ele><time>2026-04-26T07:19:42Z</time></trkpt><trkpt lat="45.594191560741436" lon="10.72363181413278"><ele>258.0</ele><time>2026-04-26T07:19:43Z</time></trkpt><trkpt lat="45.59425811403036" lon="10.72369439513866"><ele>258.0</ele><time>2026-04-26T07:19:44Z</time></trkpt><trkpt lat="45.59437058792053" lon="10.723758058544105"><ele>258.0</ele><time>2026-04-26T07:19:46Z</time></trkpt><trkpt lat="45.5944504783078" lon="10.723786282683085"><ele>258.1666666666667</ele><time>2026-04-26T07:19:48Z</time></trkpt><trkpt lat="45.59452742509141" lon="10.723832340202453"><ele>258.3333333333333</ele><time>2026-04-26T07:19:51Z</time></trkpt><trkpt lat="45.594592127727246" lon="10.72386973302999"><ele>258.5</ele><time>2026-04-26T07:19:54Z</time></trkpt><trkpt lat="45.59466870762559" lon="10.723913092587939"><ele>258.66666666666663</ele><time>2026-04-26T07:19:56Z</time></trkpt><trkpt lat="45.5947345261414" lon="10.723807704667594"><ele>258.8333333333333</ele><time>2026-04-26T07:19:57Z</time></trkpt><trkpt lat="45.59479965327262" lon="10.72373843775818"><ele>259.0</ele><time>2026-04-26T07:19:59Z</time></trkpt><trkpt lat="45.594887945658186" lon="10.723705547887"><ele>259.0</ele><time>2026-04-26T07:20:05Z</time></trkpt><trkpt lat="45.594955448148994" lon="10.723643725200144"><ele>259.0</ele><time>2026-04-26T07:20:07Z</time></trkpt><trkpt lat="45.59512422923406" lon="10.723836573099785"><ele>259.0</ele><time>2026-04-26T07:20:08Z</time></trkpt><trkpt lat="45.595189345584785" lon="10.723855778895265"><ele>259.0</ele><time>2026-04-26T07:20:09Z</time></trkpt><trkpt lat="45.59525315469122" lon="10.723871737019017"><ele>259.0</ele><time>2026-04-26T07:20:10Z</time></trkpt><trkpt lat="45.59533434256193" lon="10.723902043236155"><ele>258.75</ele><time>2026-04-26T07:20:11Z</time></trkpt><trkpt lat="45.595428632727916" lon="10.723956809012671"><ele>258.5</ele><time>2026-04-26T07:20:12Z</time></trkpt><trkpt lat="45.59555081692672" lon="10.724005771958893"><ele>258.25</ele><time>2026-04-26T07:20:13Z</time></trkpt><trkpt lat="45.595680412243745" lon="10.724063742794216"><ele>258.0</ele><time>2026-04-26T07:20:14Z</time></trkpt><trkpt lat="45.595797607436474" lon="10.724115904000861"><ele>258.0</ele><time>2026-04-26T07:20:15Z</time></trkpt><trkpt lat="45.595897361766475" lon="10.72416775716935"><ele>258.0</ele><time>2026-04-26T07:20:16Z</time></trkpt><trkpt lat="45.59597658042367" lon="10.72420843239645"><ele>258.0</ele><time>2026-04-26T07:20:17Z</time></trkpt><trkpt lat="45.59605371970097" lon="10.724269544229696"><ele>258.0</ele><time>2026-04-26T07:20:18Z</time></trkpt><trkpt lat="45.59615483096288" lon="10.72434311103636"><ele>258.0</ele><time>2026-04-26T07:20:19Z</time></trkpt><trkpt lat="45.59626564229726" lon="10.724428353141688"><ele>258.4</ele><time>2026-04-26T07:20:20Z</time></trkpt><trkpt lat="45.59637119616138" lon="10.724512321633895"><ele>258.8</ele><time>2026-04-26T07:20:21Z</time></trkpt><trkpt lat="45.59646279499648" lon="10.724587100361203"><ele>259.2</ele><time>2026-04-26T07:20:22Z</time></trkpt><trkpt lat="45.5965417840709" lon="10.724650499669314"><ele>259.6</ele><time>2026-04-26T07:20:23Z</time></trkpt><trkpt lat="45.59662371215802" lon="10.724710995500736"><ele>260.0</ele><time>2026-04-26T07:20:24Z</time></trkpt><trkpt lat="45.59669967252769" lon="10.724755060652061"><ele>260.0</ele><time>2026-04-26T07:20:24.999Z</time></trkpt><trkpt lat="45.59678363329246" lon="10.724794704874625"><ele>260.0</ele><time>2026-04-26T07:20:25.999Z</time></trkpt><trkpt lat="45.596875937329834" lon="10.724825737057795"><ele>260.0</ele><time>2026-04-26T07:20:26.999Z</time></trkpt><trkpt lat="45.59696076725032" lon="10.724845589601788"><ele>260.0</ele><time>2026-04-26T07:20:27.999Z</time></trkpt><trkpt lat="45.59703926840916" lon="10.724860454155142"><ele>260.0</ele><time>2026-04-26T07:20:28.999Z</time></trkpt><trkpt lat="45.59711035195537" lon="10.724871463032802"><ele>260.0</ele><time>2026-04-26T07:20:29.999Z</time></trkpt><trkpt lat="45.59721347750268" lon="10.724834807680796"><ele>260.1666666666667</ele><time>2026-04-26T07:20:31.999Z</time></trkpt><trkpt lat="45.59728981946578" lon="10.724723528673124"><ele>260.33333333333337</ele><time>2026-04-26T07:20:33.999Z</time></trkpt><trkpt lat="45.59731934034838" lon="10.724624864672709"><ele>260.5</ele><time>2026-04-26T07:20:34.999Z</time></trkpt><trkpt lat="45.597342458835264" lon="10.72453645192996"><ele>260.6666666666667</ele><time>2026-04-26T07:20:35.999Z</time></trkpt><trkpt lat="45.597423327845604" lon="10.724451051540418"><ele>260.8333333333333</ele><time>2026-04-26T07:20:37.999Z</time></trkpt><trkpt lat="45.59750774909451" lon="10.72444121035097"><ele>261.0</ele><time>2026-04-26T07:20:39.999Z</time></trkpt><trkpt lat="45.5975704239517" lon="10.724511989003465"><ele>261.0</ele><time>2026-04-26T07:20:41.999Z</time></trkpt><trkpt lat="45.59765867189394" lon="10.724602973178754"><ele>261.0</ele><time>2026-04-26T07:20:43.999Z</time></trkpt><trkpt lat="45.5977288460695" lon="10.724654112061584"><ele>261.0</ele><time>2026-04-26T07:20:44.999Z</time></trkpt><trkpt lat="45.597811804039154" lon="10.724695185208091"><ele>261.0</ele><time>2026-04-26T07:20:45.999Z</time></trkpt><trkpt lat="45.597887884490056" lon="10.724709554761718"><ele>261.0</ele><time>2026-04-26T07:20:46.999Z</time></trkpt><trkpt lat="45.597975027143924" lon="10.724714483633946"><ele>261.0</ele><time>2026-04-26T07:20:47.999Z</time></trkpt><trkpt lat="45.59807376371428" lon="10.72471189506711"><ele>261.25</ele><time>2026-04-26T07:20:48.999Z</time></trkpt><trkpt lat="45.598196046160275" lon="10.724708787027758"><ele>261.5</ele><time>2026-04-26T07:20:49.999Z</time></trkpt><trkpt lat="45.59832089993246" lon="10.724692384110421"><ele>261.75</ele><time>2026-04-26T07:20:50.999Z</time></trkpt><trkpt lat="45.59846203661917" lon="10.72465440985926"><ele>262.0</ele><time>2026-04-26T07:20:51.999Z</time></trkpt><trkpt lat="45.598586310669525" lon="10.724619451038969"><ele>263.25</ele><time>2026-04-26T07:20:52.999Z</time></trkpt><trkpt lat="45.598706045789264" lon="10.724578125464339"><ele>264.5</ele><time>2026-04-26T07:20:53.999Z</time></trkpt><trkpt lat="45.598829499198374" lon="10.724512862621314"><ele>265.75</ele><time>2026-04-26T07:20:54.999Z</time></trkpt><trkpt lat="45.59896289532176" lon="10.724430443823406"><ele>267.0</ele><time>2026-04-26T07:20:55.999Z</time></trkpt><trkpt lat="45.599105632198004" lon="10.724349964151276"><ele>267.0</ele><time>2026-04-26T07:20:56.999Z</time></trkpt><trkpt lat="45.599243988392764" lon="10.72428632053065"><ele>267.0</ele><time>2026-04-26T07:20:57.999Z</time></trkpt><trkpt lat="45.59939749881374" lon="10.72421379463197"><ele>267.0</ele><time>2026-04-26T07:20:58.999Z</time></trkpt><trkpt lat="45.59954611549362" lon="10.72414046509766"><ele>267.25</ele><time>2026-04-26T07:20:59.999Z</time></trkpt><trkpt lat="45.59968356556567" lon="10.72407325126989"><ele>267.5</ele><time>2026-04-26T07:21:00.999Z</time></trkpt><trkpt lat="45.59982825072576" lon="10.724003120263463"><ele>267.75</ele><time>2026-04-26T07:21:01.999Z</time></trkpt><trkpt lat="45.59996090507822" lon="10.723931579487235"><ele>268.0</ele><time>2026-04-26T07:21:02.999Z</time></trkpt><trkpt lat="45.60008593935163" lon="10.723831823664039"><ele>268.0</ele><time>2026-04-26T07:21:03.999Z</time></trkpt><trkpt lat="45.60021056766374" lon="10.72372532171644"><ele>268.0</ele><time>2026-04-26T07:21:04.999Z</time></trkpt><trkpt lat="45.60031861484168" lon="10.723641927279676"><ele>268.0</ele><time>2026-04-26T07:21:05.999Z</time></trkpt><trkpt lat="45.60040900068742" lon="10.723593862274765"><ele>268.0</ele><time>2026-04-26T07:21:06.999Z</time></trkpt><trkpt lat="45.60051348858581" lon="10.72358785581999"><ele>269.0</ele><time>2026-04-26T07:21:07.999Z</time></trkpt><trkpt lat="45.600628262843685" lon="10.723605283037221"><ele>270.0</ele><time>2026-04-26T07:21:08.999Z</time></trkpt><trkpt lat="45.60073509778726" lon="10.72360423888202"><ele>271.0</ele><time>2026-04-26T07:21:09.999Z</time></trkpt><trkpt lat="45.60084515221501" lon="10.723573058103467"><ele>272.0</ele><time>2026-04-26T07:21:10.999Z</time></trkpt><trkpt lat="45.60094685487324" lon="10.723514607596744"><ele>273.0</ele><time>2026-04-26T07:21:11.999Z</time></trkpt><trkpt lat="45.6010483185989" lon="10.72342970992175"><ele>273.0</ele><time>2026-04-26T07:21:12.999Z</time></trkpt><trkpt lat="45.60114859974719" lon="10.723324709143286"><ele>273.0</ele><time>2026-04-26T07:21:13.999Z</time></trkpt><trkpt lat="45.60126889169662" lon="10.723193717873938"><ele>273.0</ele><time>2026-04-26T07:21:14.999Z</time></trkpt><trkpt lat="45.60138271312683" lon="10.723066802177035"><ele>273.0</ele><time>2026-04-26T07:21:15.999Z</time></trkpt><trkpt lat="45.60156249642451" lon="10.72311119022896"><ele>274.0</ele><time>2026-04-26T07:21:16.999Z</time></trkpt><trkpt lat="45.60164314522477" lon="10.723012882248204"><ele>275.0</ele><time>2026-04-26T07:21:17.999Z</time></trkpt><trkpt lat="45.60170767189362" lon="10.722937192211454"><ele>276.0</ele><time>2026-04-26T07:21:18.999Z</time></trkpt><trkpt lat="45.601808250415765" lon="10.722837177846525"><ele>277.0</ele><time>2026-04-26T07:21:20.999Z</time></trkpt><trkpt lat="45.60187551885839" lon="10.722784410130132"><ele>278.0</ele><time>2026-04-26T07:21:21.999Z</time></trkpt><trkpt lat="45.601966930710496" lon="10.722732671220532"><ele>280.1666666666667</ele><time>2026-04-26T07:21:23.999Z</time></trkpt><trkpt lat="45.602015157723976" lon="10.722673520349467"><ele>282.33333333333337</ele><time>2026-04-26T07:21:24.999Z</time></trkpt><trkpt lat="45.60209809343318" lon="10.722674142405541"><ele>284.5</ele><time>2026-04-26T07:21:25.999Z</time></trkpt><trkpt lat="45.60219611952817" lon="10.722687963696202"><ele>286.6666666666667</ele><time>2026-04-26T07:21:26.999Z</time></trkpt><trkpt lat="45.602258896990364" lon="10.722669468243422"><ele>288.8333333333333</ele><time>2026-04-26T07:21:27.999Z</time></trkpt><trkpt lat="45.6023713718369" lon="10.722602969655565"><ele>291.0</ele><time>2026-04-26T07:21:29.999Z</time></trkpt><trkpt lat="45.60239804475823" lon="10.722488162732043"><ele>291.0</ele><time>2026-04-26T07:21:30.999Z</time></trkpt><trkpt lat="45.60236561598" lon="10.722369136302401"><ele>291.0</ele><time>2026-04-26T07:21:31.999Z</time></trkpt><trkpt lat="45.60227219808001" lon="10.722300246306746"><ele>291.0</ele><time>2026-04-26T07:21:32.999Z</time></trkpt><trkpt lat="45.602197140932724" lon="10.722271265929525"><ele>291.0</ele><time>2026-04-26T07:21:33.999Z</time></trkpt><trkpt lat="45.602126721946206" lon="10.72227631313978"><ele>291.0</ele><time>2026-04-26T07:21:34.999Z</time></trkpt><trkpt lat="45.602066159248636" lon="10.722329210700908"><ele>291.0</ele><time>2026-04-26T07:21:35.999Z</time></trkpt><trkpt lat="45.60199341337044" lon="10.722285317857539"><ele>290.40000000000003</ele><time>2026-04-26T07:21:36.999Z</time></trkpt><trkpt lat="45.60191613295187" lon="10.722281359681858"><ele>289.8</ele><time>2026-04-26T07:21:37.999Z</time></trkpt><trkpt lat="45.601833528216176" lon="10.72217886367774"><ele>289.20000000000005</ele><time>2026-04-26T07:21:38.999Z</time></trkpt><trkpt lat="45.60175155583362" lon="10.722089265293041"><ele>288.6</ele><time>2026-04-26T07:21:39.999Z</time></trkpt><trkpt lat="45.60167831209336" lon="10.721967455112376"><ele>288.0</ele><time>2026-04-26T07:21:40.999Z</time></trkpt><trkpt lat="45.60159963307863" lon="10.721789023170833"><ele>288.0</ele><time>2026-04-26T07:21:41.999Z</time></trkpt><trkpt lat="45.60151967380239" lon="10.721602677198732"><ele>288.0</ele><time>2026-04-26T07:21:42.999Z</time></trkpt><trkpt lat="45.60141930128389" lon="10.721390890080604"><ele>288.0</ele><time>2026-04-26T07:21:43.999Z</time></trkpt><trkpt lat="45.60131704067292" lon="10.721221666862782"><ele>288.0</ele><time>2026-04-26T07:21:44.999Z</time></trkpt><trkpt lat="45.60121894370181" lon="10.721073457638914"><ele>288.0</ele><time>2026-04-26T07:21:46Z</time></trkpt><trkpt lat="45.601109318980264" lon="10.720944201978098"><ele>288.0</ele><time>2026-04-26T07:21:47Z</time></trkpt><trkpt lat="45.60097170495341" lon="10.720819657342496"><ele>288.0</ele><time>2026-04-26T07:21:48Z</time></trkpt><trkpt lat="45.60083095015978" lon="10.720728631637368"><ele>287.0</ele><time>2026-04-26T07:21:49Z</time></trkpt><trkpt lat="45.600711512167564" lon="10.72062947662215"><ele>286.0</ele><time>2026-04-26T07:21:50Z</time></trkpt><trkpt lat="45.60059400474749" lon="10.720551354541664"><ele>285.0</ele><time>2026-04-26T07:21:51Z</time></trkpt><trkpt lat="45.600488998956955" lon="10.720476525401006"><ele>284.0</ele><time>2026-04-26T07:21:52Z</time></trkpt><trkpt lat="45.6003781109647" lon="10.720410144555792"><ele>284.0</ele><time>2026-04-26T07:21:53Z</time></trkpt><trkpt lat="45.60028126669598" lon="10.720287006924433"><ele>284.0</ele><time>2026-04-26T07:21:54Z</time></trkpt><trkpt lat="45.600171636426815" lon="10.720167361131159"><ele>284.0</ele><time>2026-04-26T07:21:55Z</time></trkpt><trkpt lat="45.600063431670684" lon="10.720045338843054"><ele>284.0</ele><time>2026-04-26T07:21:56Z</time></trkpt><trkpt lat="45.59995792224499" lon="10.71995282951094"><ele>284.0</ele><time>2026-04-26T07:21:57Z</time></trkpt><trkpt lat="45.59987498348055" lon="10.719839599536249"><ele>284.0</ele><time>2026-04-26T07:21:58Z</time></trkpt><trkpt lat="45.599806855327145" lon="10.719701466601741"><ele>284.0</ele><time>2026-04-26T07:21:59Z</time></trkpt><trkpt lat="45.59972815197518" lon="10.71958678517807"><ele>284.0</ele><time>2026-04-26T07:22:00Z</time></trkpt><trkpt lat="45.599670729997364" lon="10.719462572893002"><ele>284.0</ele><time>2026-04-26T07:22:01Z</time></trkpt><trkpt lat="45.59963319087392" lon="10.719343902493256"><ele>284.59999999999997</ele><time>2026-04-26T07:22:02Z</time></trkpt><trkpt lat="45.59959476154171" lon="10.719254587162396"><ele>285.2</ele><time>2026-04-26T07:22:03Z</time></trkpt><trkpt lat="45.59953667896663" lon="10.719116084609873"><ele>285.79999999999995</ele><time>2026-04-26T07:22:05Z</time></trkpt><trkpt lat="45.59949234339427" lon="10.71902235441055"><ele>286.4</ele><time>2026-04-26T07:22:07Z</time></trkpt><trkpt lat="45.59948621760895" lon="10.718867500104034"><ele>287.0</ele><time>2026-04-26T07:22:10Z</time></trkpt><trkpt lat="45.599542519218396" lon="10.718793303713966"><ele>287.0</ele><time>2026-04-26T07:22:11Z</time></trkpt><trkpt lat="45.59958014567777" lon="10.718718414843513"><ele>287.0</ele><time>2026-04-26T07:22:12Z</time></trkpt><trkpt lat="45.59963374687937" lon="10.718602188080736"><ele>287.0</ele><time>2026-04-26T07:22:14Z</time></trkpt><trkpt lat="45.59969466557461" lon="10.718459311456913"><ele>287.0</ele><time>2026-04-26T07:22:16Z</time></trkpt><trkpt lat="45.59975124307109" lon="10.718317622935649"><ele>287.0</ele><time>2026-04-26T07:22:18Z</time></trkpt><trkpt lat="45.59980739170551" lon="10.718176428183794"><ele>286.6666666666667</ele><time>2026-04-26T07:22:20Z</time></trkpt><trkpt lat="45.599866123084084" lon="10.718038882068376"><ele>286.33333333333337</ele><time>2026-04-26T07:22:22Z</time></trkpt><trkpt lat="45.59990193259363" lon="10.717961216186655"><ele>286.0</ele><time>2026-04-26T07:22:23Z</time></trkpt><trkpt lat="45.599946878926865" lon="10.717861567035813"><ele>285.6666666666667</ele><time>2026-04-26T07:22:24Z</time></trkpt><trkpt lat="45.599991902890075" lon="10.717754044674653"><ele>285.3333333333333</ele><time>2026-04-26T07:22:25Z</time></trkpt><trkpt lat="45.60004407489469" lon="10.717646701142433"><ele>285.0</ele><time>2026-04-26T07:22:26Z</time></trkpt><trkpt lat="45.600094666921926" lon="10.717520395375834"><ele>284.6666666666667</ele><time>2026-04-26T07:22:27Z</time></trkpt><trkpt lat="45.600189517632245" lon="10.717409069056947"><ele>284.33333333333337</ele><time>2026-04-26T07:22:28Z</time></trkpt><trkpt lat="45.60032479547003" lon="10.717287006337136"><ele>284.0</ele><time>2026-04-26T07:22:29Z</time></trkpt><trkpt lat="45.60049453465012" lon="10.717193612527863"><ele>284.6666666666667</ele><time>2026-04-26T07:22:30Z</time></trkpt><trkpt lat="45.6006723042336" lon="10.717084107986697"><ele>285.3333333333333</ele><time>2026-04-26T07:22:31Z</time></trkpt><trkpt lat="45.60082507035753" lon="10.716990951433656"><ele>286.0</ele><time>2026-04-26T07:22:32Z</time></trkpt><trkpt lat="45.600941942482116" lon="10.716895890943212"><ele>286.0</ele><time>2026-04-26T07:22:33Z</time></trkpt><trkpt lat="45.60101923132316" lon="10.716780464844915"><ele>286.0</ele><time>2026-04-26T07:22:34Z</time></trkpt><trkpt lat="45.601094569515695" lon="10.71675103639594"><ele>286.0</ele><time>2026-04-26T07:22:35Z</time></trkpt><trkpt lat="45.60120413723997" lon="10.716792693398249"><ele>286.0</ele><time>2026-04-26T07:22:37Z</time></trkpt><trkpt lat="45.601235974589365" lon="10.716885245254266"><ele>286.0</ele><time>2026-04-26T07:22:39Z</time></trkpt><trkpt lat="45.60130542408766" lon="10.716921014340274"><ele>286.0</ele><time>2026-04-26T07:22:41Z</time></trkpt><trkpt lat="45.601401334387944" lon="10.71688415301999"><ele>288.75</ele><time>2026-04-26T07:22:42Z</time></trkpt><trkpt lat="45.60148543856303" lon="10.71670008012932"><ele>291.5</ele><time>2026-04-26T07:22:43Z</time></trkpt><trkpt lat="45.601585131541476" lon="10.716755526732271"><ele>294.25</ele><time>2026-04-26T07:22:44Z</time></trkpt><trkpt lat="45.60165737443756" lon="10.716638066802673"><ele>297.0</ele><time>2026-04-26T07:22:45Z</time></trkpt><trkpt lat="45.60137010471653" lon="10.716995962026253"><ele>297.0</ele><time>2026-04-26T07:22:46Z</time></trkpt><trkpt lat="45.60173563739734" lon="10.716439228685058"><ele>297.0</ele><time>2026-04-26T07:22:47Z</time></trkpt><trkpt lat="45.6017563785703" lon="10.716351922885007"><ele>297.0</ele><time>2026-04-26T07:22:48Z</time></trkpt><trkpt lat="45.60177763154438" lon="10.7162430368615"><ele>297.0</ele><time>2026-04-26T07:22:49Z</time></trkpt><trkpt lat="45.60179734919875" lon="10.716152630632433"><ele>297.0</ele><time>2026-04-26T07:22:50Z</time></trkpt><trkpt lat="45.60186015169579" lon="10.716020840585012"><ele>297.0</ele><time>2026-04-26T07:22:52Z</time></trkpt><trkpt lat="45.60191888376748" lon="10.715985279292187"><ele>297.0</ele><time>2026-04-26T07:22:53Z</time></trkpt><trkpt lat="45.60199475273903" lon="10.715974725548303"><ele>297.5</ele><time>2026-04-26T07:22:54Z</time></trkpt><trkpt lat="45.60209212951865" lon="10.715983935085749"><ele>298.0</ele><time>2026-04-26T07:22:55Z</time></trkpt><trkpt lat="45.602217270671495" lon="10.716012904139333"><ele>298.5</ele><time>2026-04-26T07:22:56Z</time></trkpt><trkpt lat="45.60235525087064" lon="10.716026597281553"><ele>299.0</ele><time>2026-04-26T07:22:57Z</time></trkpt><trkpt lat="45.60249653038361" lon="10.716030498243365"><ele>299.0</ele><time>2026-04-26T07:22:58Z</time></trkpt><trkpt lat="45.60262061735134" lon="10.716026140926816"><ele>299.0</ele><time>2026-04-26T07:22:59Z</time></trkpt><trkpt lat="45.60273627450082" lon="10.716020427722531"><ele>299.0</ele><time>2026-04-26T07:23:00Z</time></trkpt><trkpt lat="45.60283251270423" lon="10.715997958770448"><ele>299.0</ele><time>2026-04-26T07:23:01Z</time></trkpt><trkpt lat="45.60293314778101" lon="10.715947434746424"><ele>299.0</ele><time>2026-04-26T07:23:02Z</time></trkpt><trkpt lat="45.6030453260413" lon="10.715856138503284"><ele>301.75</ele><time>2026-04-26T07:23:03Z</time></trkpt><trkpt lat="45.60315260051518" lon="10.715738302006217"><ele>304.5</ele><time>2026-04-26T07:23:04Z</time></trkpt><trkpt lat="45.60325452112452" lon="10.715650124237946"><ele>307.25</ele><time>2026-04-26T07:23:05Z</time></trkpt><trkpt lat="45.60336331284617" lon="10.715595432899534"><ele>310.0</ele><time>2026-04-26T07:23:06Z</time></trkpt><trkpt lat="45.60346894570798" lon="10.715565795957227"><ele>310.0</ele><time>2026-04-26T07:23:07Z</time></trkpt><trkpt lat="45.60357206738555" lon="10.715552020219814"><ele>310.0</ele><time>2026-04-26T07:23:08Z</time></trkpt><trkpt lat="45.60366461764265" lon="10.715542791052103"><ele>310.0</ele><time>2026-04-26T07:23:09Z</time></trkpt><trkpt lat="45.60376902357727" lon="10.715538097642476"><ele>310.0</ele><time>2026-04-26T07:23:10Z</time></trkpt><trkpt lat="45.60387033466299" lon="10.715544543242897"><ele>310.0</ele><time>2026-04-26T07:23:11Z</time></trkpt><trkpt lat="45.6039896254926" lon="10.715549832822164"><ele>311.0</ele><time>2026-04-26T07:23:12Z</time></trkpt><trkpt lat="45.604088575327104" lon="10.715557220563703"><ele>312.0</ele><time>2026-04-26T07:23:13Z</time></trkpt><trkpt lat="45.60418219500741" lon="10.715561061663912"><ele>313.0</ele><time>2026-04-26T07:23:14Z</time></trkpt><trkpt lat="45.604285809115616" lon="10.715561901457322"><ele>314.0</ele><time>2026-04-26T07:23:15Z</time></trkpt><trkpt lat="45.60439681045716" lon="10.715565662573113"><ele>315.0</ele><time>2026-04-26T07:23:16Z</time></trkpt><trkpt lat="45.60452572622235" lon="10.715558953285312"><ele>316.0</ele><time>2026-04-26T07:23:17Z</time></trkpt><trkpt lat="45.6046444223591" lon="10.715544666104053"><ele>317.0</ele><time>2026-04-26T07:23:18Z</time></trkpt><trkpt lat="45.60475061409442" lon="10.71553503523918"><ele>318.0</ele><time>2026-04-26T07:23:19Z</time></trkpt><trkpt lat="45.60484924184947" lon="10.71551915878284"><ele>319.0</ele><time>2026-04-26T07:23:19.999Z</time></trkpt><trkpt lat="45.604938863412094" lon="10.715508321535152"><ele>320.0</ele><time>2026-04-26T07:23:20.999Z</time></trkpt><trkpt lat="45.605050480258136" lon="10.715512850538143"><ele>320.0</ele><time>2026-04-26T07:23:21.999Z</time></trkpt><trkpt lat="45.60519854010903" lon="10.715520045690466"><ele>320.0</ele><time>2026-04-26T07:23:22.999Z</time></trkpt><trkpt lat="45.60531741996336" lon="10.715524990317508"><ele>320.0</ele><time>2026-04-26T07:23:23.999Z</time></trkpt><trkpt lat="45.60539138322756" lon="10.715526441022345"><ele>320.0</ele><time>2026-04-26T07:23:24.999Z</time></trkpt><trkpt lat="45.60547396419729" lon="10.715489888395357"><ele>320.0</ele><time>2026-04-26T07:23:26.999Z</time></trkpt><trkpt lat="45.605557096301105" lon="10.715461431298879"><ele>320.83333333333337</ele><time>2026-04-26T07:23:28.999Z</time></trkpt><trkpt lat="45.605635870547765" lon="10.715467376926387"><ele>321.6666666666667</ele><time>2026-04-26T07:23:31.999Z</time></trkpt><trkpt lat="45.605718771122035" lon="10.715455688919377"><ele>322.5</ele><time>2026-04-26T07:23:35.999Z</time></trkpt><trkpt lat="45.60580043537508" lon="10.715399785620036"><ele>323.3333333333333</ele><time>2026-04-26T07:23:38.999Z</time></trkpt><trkpt lat="45.60587898230868" lon="10.715377494432767"><ele>324.16666666666663</ele><time>2026-04-26T07:23:40.999Z</time></trkpt><trkpt lat="45.60594695582837" lon="10.71537800894348"><ele>325.0</ele><time>2026-04-26T07:23:45.999Z</time></trkpt><trkpt lat="45.60599980641215" lon="10.715304295765705"><ele>325.0</ele><time>2026-04-26T07:24:39.999Z</time></trkpt><trkpt lat="45.60606079671399" lon="10.715266644935516"><ele>325.0</ele><time>2026-04-26T07:27:27.999Z</time></trkpt><trkpt lat="45.606151440025236" lon="10.71520075681949"><ele>325.0</ele><time>2026-04-26T07:27:30.999Z</time></trkpt><trkpt lat="45.60621587347109" lon="10.715157192467313"><ele>325.0</ele><time>2026-04-26T07:27:33.999Z</time></trkpt><trkpt lat="45.60628246542733" lon="10.715126525111465"><ele>325.0</ele><time>2026-04-26T07:28:14Z</time></trkpt><trkpt lat="45.60633537580564" lon="10.715077300106387"><ele>325.0</ele><time>2026-04-26T07:28:26Z</time></trkpt><trkpt lat="45.606400989247845" lon="10.715087109118173"><ele>325.0</ele><time>2026-04-26T07:28:39Z</time></trkpt><trkpt lat="45.60647315011824" lon="10.715066759735539"><ele>324.8</ele><time>2026-04-26T07:28:43Z</time></trkpt><trkpt lat="45.606620416167" lon="10.715115637453412"><ele>324.6</ele><time>2026-04-26T07:28:45Z</time></trkpt><trkpt lat="45.60660707923899" lon="10.715211298125514"><ele>324.4</ele><time>2026-04-26T07:32:08.998Z</time></trkpt><trkpt lat="45.6065732267222" lon="10.715325542676107"><ele>324.2</ele><time>2026-04-26T07:32:26Z</time></trkpt><trkpt lat="45.60655019249889" lon="10.715427341988958"><ele>324.0</ele><time>2026-04-26T07:32:29Z</time></trkpt><trkpt lat="45.606545539388016" lon="10.715528810207053"><ele>324.2</ele><time>2026-04-26T07:32:33Z</time></trkpt><trkpt lat="45.60650874667555" lon="10.715614625687213"><ele>324.4</ele><time>2026-04-26T07:32:36Z</time></trkpt><trkpt lat="45.606418635971096" lon="10.715694809983464"><ele>324.6</ele><time>2026-04-26T07:32:38Z</time></trkpt><trkpt lat="45.60630705564864" lon="10.715722542441208"><ele>324.8</ele><time>2026-04-26T07:32:40Z</time></trkpt><trkpt lat="45.60620005141622" lon="10.715767273259848"><ele>325.0</ele><time>2026-04-26T07:32:42Z</time></trkpt><trkpt lat="45.606097590867655" lon="10.7158101045762"><ele>325.0</ele><time>2026-04-26T07:32:44Z</time></trkpt><trkpt lat="45.60599253283228" lon="10.715854021720075"><ele>325.0</ele><time>2026-04-26T07:32:45.999Z</time></trkpt><trkpt lat="45.605921387227525" lon="10.715883762525838"><ele>325.0</ele><time>2026-04-26T07:32:47.999Z</time></trkpt><trkpt lat="45.60580235093383" lon="10.71593352295783"><ele>325.0</ele><time>2026-04-26T07:32:48.999Z</time></trkpt><trkpt lat="45.605705612193084" lon="10.715963991406294"><ele>325.0</ele><time>2026-04-26T07:32:50.999Z</time></trkpt><trkpt lat="45.60563506978432" lon="10.715845097661893"><ele>325.0</ele><time>2026-04-26T07:32:51.999Z</time></trkpt><trkpt lat="45.60553189573262" lon="10.71586021674652"><ele>325.0</ele><time>2026-04-26T07:32:53.999Z</time></trkpt><trkpt lat="45.60541698674895" lon="10.715869458923452"><ele>325.0</ele><time>2026-04-26T07:32:55.999Z</time></trkpt><trkpt lat="45.60532346965024" lon="10.715874736901716"><ele>325.0</ele><time>2026-04-26T07:32:56.999Z</time></trkpt><trkpt lat="45.605252406914495" lon="10.715882470293428"><ele>325.0</ele><time>2026-04-26T07:32:57.999Z</time></trkpt><trkpt lat="45.60516956675588" lon="10.715890622454934"><ele>324.16666666666663</ele><time>2026-04-26T07:32:58.999Z</time></trkpt><trkpt lat="45.6050509305774" lon="10.715911505558228"><ele>323.3333333333333</ele><time>2026-04-26T07:33:00.999Z</time></trkpt><trkpt lat="45.60498009384444" lon="10.71592804090354"><ele>322.5</ele><time>2026-04-26T07:33:01.999Z</time></trkpt><trkpt lat="45.60491220331623" lon="10.71597447993117"><ele>321.6666666666667</ele><time>2026-04-26T07:33:02.999Z</time></trkpt><trkpt lat="45.60483714643154" lon="10.715996545304423"><ele>320.83333333333337</ele><time>2026-04-26T07:33:03.999Z</time></trkpt><trkpt lat="45.60475848015226" lon="10.716023060039683"><ele>320.0</ele><time>2026-04-26T07:33:04.999Z</time></trkpt><trkpt lat="45.60468281362472" lon="10.716052193747453"><ele>320.0</ele><time>2026-04-26T07:33:05.999Z</time></trkpt><trkpt lat="45.60461067723017" lon="10.716064018877585"><ele>320.0</ele><time>2026-04-26T07:33:06.999Z</time></trkpt><trkpt lat="45.60449437679498" lon="10.716083454710747"><ele>320.0</ele><time>2026-04-26T07:33:08.999Z</time></trkpt><trkpt lat="45.60441981007248" lon="10.716063811393221"><ele>320.0</ele><time>2026-04-26T07:33:09.999Z</time></trkpt><trkpt lat="45.60433473414904" lon="10.716090860063513"><ele>320.0</ele><time>2026-04-26T07:33:10.999Z</time></trkpt><trkpt lat="45.604269530590415" lon="10.716085679855784"><ele>320.0</ele><time>2026-04-26T07:33:11.999Z</time></trkpt><trkpt lat="45.60420159928025" lon="10.716089782377745"><ele>321.8</ele><time>2026-04-26T07:33:12.999Z</time></trkpt><trkpt lat="45.604137788127034" lon="10.716101201116237"><ele>323.6</ele><time>2026-04-26T07:33:13.999Z</time></trkpt><trkpt lat="45.604055059017796" lon="10.716112330454434"><ele>325.4</ele><time>2026-04-26T07:33:14.999Z</time></trkpt><trkpt lat="45.603930426042886" lon="10.716133567022235"><ele>327.2</ele><time>2026-04-26T07:33:16.999Z</time></trkpt><trkpt lat="45.603866490260714" lon="10.716141982977907"><ele>329.0</ele><time>2026-04-26T07:33:17.999Z</time></trkpt><trkpt lat="45.6037467392578" lon="10.71617571852032"><ele>329.0</ele><time>2026-04-26T07:33:19.999Z</time></trkpt><trkpt lat="45.6036988074865" lon="10.71623930779534"><ele>329.0</ele><time>2026-04-26T07:33:20.999Z</time></trkpt><trkpt lat="45.60362609910901" lon="10.716307748158384"><ele>329.0</ele><time>2026-04-26T07:33:22.999Z</time></trkpt><trkpt lat="45.60355850500743" lon="10.716444417091155"><ele>329.0</ele><time>2026-04-26T07:33:24.999Z</time></trkpt><trkpt lat="45.6035491504895" lon="10.716546707020013"><ele>329.0</ele><time>2026-04-26T07:33:26.999Z</time></trkpt><trkpt lat="45.603540863816015" lon="10.716656354168203"><ele>329.0</ele><time>2026-04-26T07:33:27.999Z</time></trkpt><trkpt lat="45.60355027050221" lon="10.716814969218749"><ele>327.0</ele><time>2026-04-26T07:33:29.999Z</time></trkpt><trkpt lat="45.60355646992428" lon="10.716907397811013"><ele>325.0</ele><time>2026-04-26T07:33:30.999Z</time></trkpt><trkpt lat="45.60354228153155" lon="10.717014478608672"><ele>323.0</ele><time>2026-04-26T07:33:31.999Z</time></trkpt><trkpt lat="45.60352823027985" lon="10.717123797695486"><ele>321.0</ele><time>2026-04-26T07:33:32.999Z</time></trkpt><trkpt lat="45.60353218572129" lon="10.717218377521288"><ele>319.0</ele><time>2026-04-26T07:33:33.999Z</time></trkpt><trkpt lat="45.603524071383724" lon="10.717363281486117"><ele>317.0</ele><time>2026-04-26T07:33:35.999Z</time></trkpt><trkpt lat="45.603547000146285" lon="10.717529717289846"><ele>317.0</ele><time>2026-04-26T07:33:37.999Z</time></trkpt><trkpt lat="45.60360237719289" lon="10.717682104535022"><ele>317.0</ele><time>2026-04-26T07:33:39.999Z</time></trkpt><trkpt lat="45.603623102426596" lon="10.717822333421395"><ele>317.0</ele><time>2026-04-26T07:33:41.999Z</time></trkpt><trkpt lat="45.603624293670435" lon="10.717959699256598"><ele>317.0</ele><time>2026-04-26T07:33:43.999Z</time></trkpt><trkpt lat="45.60356778113076" lon="10.718110679364035"><ele>317.0</ele><time>2026-04-26T07:33:45.999Z</time></trkpt><trkpt lat="45.603520074725424" lon="10.718198371604636"><ele>316.83333333333337</ele><time>2026-04-26T07:33:46.999Z</time></trkpt><trkpt lat="45.60346794688238" lon="10.718291160570194"><ele>316.6666666666667</ele><time>2026-04-26T07:33:47.999Z</time></trkpt><trkpt lat="45.60341784472741" lon="10.71837943238123"><ele>316.5</ele><time>2026-04-26T07:33:48.999Z</time></trkpt><trkpt lat="45.60336394775583" lon="10.71846745689244"><ele>316.3333333333333</ele><time>2026-04-26T07:33:49.999Z</time></trkpt><trkpt lat="45.603292633999864" lon="10.718586778451662"><ele>316.16666666666663</ele><time>2026-04-26T07:33:51.999Z</time></trkpt><trkpt lat="45.603250344119196" lon="10.71870216299436"><ele>316.0</ele><time>2026-04-26T07:33:52.999Z</time></trkpt><trkpt lat="45.603267376990445" lon="10.718831228273576"><ele>316.0</ele><time>2026-04-26T07:33:54.999Z</time></trkpt><trkpt lat="45.60328673182385" lon="10.71898393303557"><ele>316.0</ele><time>2026-04-26T07:33:56.999Z</time></trkpt><trkpt lat="45.60330967268027" lon="10.719087493019467"><ele>316.0</ele><time>2026-04-26T07:33:58.999Z</time></trkpt><trkpt lat="45.60333918684433" lon="10.719197562520927"><ele>316.0</ele><time>2026-04-26T07:34:01.999Z</time></trkpt><trkpt lat="45.60334816389737" lon="10.719308172549262"><ele>316.0</ele><time>2026-04-26T07:34:03.999Z</time></trkpt><trkpt lat="45.603447467551305" lon="10.719401464103576"><ele>316.0</ele><time>2026-04-26T07:34:26Z</time></trkpt><trkpt lat="45.60337988083233" lon="10.719435175515025"><ele>316.0</ele><time>2026-04-26T07:37:41Z</time></trkpt><trkpt lat="45.603555022973204" lon="10.71944193259473"><ele>316.0</ele><time>2026-04-26T07:42:12.999Z</time></trkpt><trkpt lat="45.60366186126247" lon="10.719529264337096"><ele>316.0</ele><time>2026-04-26T07:42:14.999Z</time></trkpt><trkpt lat="45.60375301157708" lon="10.719612871300297"><ele>316.0</ele><time>2026-04-26T07:42:16.999Z</time></trkpt><trkpt lat="45.60383087342159" lon="10.719639302874858"><ele>316.0</ele><time>2026-04-26T07:42:18.999Z</time></trkpt><trkpt lat="45.6039124050215" lon="10.719639494905199"><ele>316.0</ele><time>2026-04-26T07:42:20.999Z</time></trkpt><trkpt lat="45.60399255564728" lon="10.719651274307761"><ele>316.0</ele><time>2026-04-26T07:42:22.999Z</time></trkpt><trkpt lat="45.60407850235132" lon="10.719668867778012"><ele>316.0</ele><time>2026-04-26T07:42:24.999Z</time></trkpt><trkpt lat="45.604166737279215" lon="10.719719217783975"><ele>316.0</ele><time>2026-04-26T07:42:26.999Z</time></trkpt><trkpt lat="45.60425752740358" lon="10.719800720163784"><ele>316.0</ele><time>2026-04-26T07:42:28.999Z</time></trkpt><trkpt lat="45.6043418567355" lon="10.719914507967156"><ele>316.0</ele><time>2026-04-26T07:42:30.999Z</time></trkpt><trkpt lat="45.60442774579744" lon="10.72002955016189"><ele>316.0</ele><time>2026-04-26T07:42:32.999Z</time></trkpt><trkpt lat="45.60451030123077" lon="10.720125554414754"><ele>316.0</ele><time>2026-04-26T07:42:34.999Z</time></trkpt><trkpt lat="45.6045891709342" lon="10.72023513340722"><ele>317.0</ele><time>2026-04-26T07:42:36.999Z</time></trkpt><trkpt lat="45.60467278475204" lon="10.720368737204462"><ele>318.0</ele><time>2026-04-26T07:42:38.999Z</time></trkpt><trkpt lat="45.604729825278824" lon="10.720443941500195"><ele>319.0</ele><time>2026-04-26T07:42:39.999Z</time></trkpt><trkpt lat="45.604793843120824" lon="10.720537061505537"><ele>320.0</ele><time>2026-04-26T07:42:40.999Z</time></trkpt><trkpt lat="45.60483119965023" lon="10.720633985705318"><ele>321.0</ele><time>2026-04-26T07:42:41.999Z</time></trkpt><trkpt lat="45.60485399153186" lon="10.720730058442076"><ele>322.0</ele><time>2026-04-26T07:42:42.999Z</time></trkpt><trkpt lat="45.60487900365027" lon="10.720829516139043"><ele>322.0</ele><time>2026-04-26T07:42:44.001Z</time></trkpt><trkpt lat="45.60490833544228" lon="10.720921307856626"><ele>322.0</ele><time>2026-04-26T07:42:45.001Z</time></trkpt><trkpt lat="45.60493641807369" lon="10.721010140527545"><ele>322.0</ele><time>2026-04-26T07:42:46.001Z</time></trkpt><trkpt lat="45.604978954038316" lon="10.721167293090438"><ele>322.0</ele><time>2026-04-26T07:42:48.001Z</time></trkpt><trkpt lat="45.60503000772995" lon="10.721330168472859"><ele>322.0</ele><time>2026-04-26T07:42:50.001Z</time></trkpt><trkpt lat="45.60505989442806" lon="10.721420018597739"><ele>321.8333333333333</ele><time>2026-04-26T07:42:51.001Z</time></trkpt><trkpt lat="45.605101069345324" lon="10.721564159632841"><ele>321.66666666666663</ele><time>2026-04-26T07:42:53.001Z</time></trkpt><trkpt lat="45.60513322730656" lon="10.72167123370664"><ele>321.5</ele><time>2026-04-26T07:42:55.001Z</time></trkpt><trkpt lat="45.60518276197688" lon="10.721765910586864"><ele>321.3333333333333</ele><time>2026-04-26T07:42:58.001Z</time></trkpt><trkpt lat="45.605227950226954" lon="10.721835979365926"><ele>321.1666666666667</ele><time>2026-04-26T07:43:04.001Z</time></trkpt><trkpt lat="45.60525166003809" lon="10.721956868376614"><ele>321.0</ele><time>2026-04-26T07:43:07.001Z</time></trkpt><trkpt lat="45.60527287539939" lon="10.722043228737123"><ele>320.0</ele><time>2026-04-26T07:43:08Z</time></trkpt><trkpt lat="45.605295319011944" lon="10.72213040718876"><ele>319.0</ele><time>2026-04-26T07:43:09Z</time></trkpt><trkpt lat="45.60531161477605" lon="10.722217441622906"><ele>318.0</ele><time>2026-04-26T07:43:10Z</time></trkpt><trkpt lat="45.605399704914554" lon="10.722340713699701"><ele>317.0</ele><time>2026-04-26T07:43:12Z</time></trkpt><trkpt lat="45.605473345125205" lon="10.722358113835252"><ele>316.0</ele><time>2026-04-26T07:43:13Z</time></trkpt><trkpt lat="45.605544908014764" lon="10.722374240856869"><ele>315.0</ele><time>2026-04-26T07:43:14Z</time></trkpt><trkpt lat="45.605626745204134" lon="10.72239947529223"><ele>315.0</ele><time>2026-04-26T07:43:15Z</time></trkpt><trkpt lat="45.60571025082521" lon="10.722424618585505"><ele>315.0</ele><time>2026-04-26T07:43:16Z</time></trkpt><trkpt lat="45.6058006105241" lon="10.722450502702852"><ele>315.0</ele><time>2026-04-26T07:43:17Z</time></trkpt><trkpt lat="45.605887991933926" lon="10.722471556448124"><ele>315.0</ele><time>2026-04-26T07:43:18Z</time></trkpt><trkpt lat="45.60597366162528" lon="10.72249465742609"><ele>315.0</ele><time>2026-04-26T07:43:19Z</time></trkpt><trkpt lat="45.60606492645768" lon="10.722514154027627"><ele>315.0</ele><time>2026-04-26T07:43:20Z</time></trkpt><trkpt lat="45.60615742949629" lon="10.72253024501878"><ele>314.5</ele><time>2026-04-26T07:43:21Z</time></trkpt><trkpt lat="45.606238832025724" lon="10.722563977557963"><ele>314.0</ele><time>2026-04-26T07:43:22Z</time></trkpt><trkpt lat="45.606321684486616" lon="10.72260385107553"><ele>313.5</ele><time>2026-04-26T07:43:23Z</time></trkpt><trkpt lat="45.6064119191676" lon="10.722647860894556"><ele>313.0</ele><time>2026-04-26T07:43:24Z</time></trkpt><trkpt lat="45.606490995998136" lon="10.722680215621113"><ele>312.5</ele><time>2026-04-26T07:43:25Z</time></trkpt><trkpt lat="45.606561849723526" lon="10.72275012724939"><ele>312.0</ele><time>2026-04-26T07:43:26Z</time></trkpt><trkpt lat="45.60662201451261" lon="10.722806493071017"><ele>310.3333333333333</ele><time>2026-04-26T07:43:27Z</time></trkpt><trkpt lat="45.60668255316935" lon="10.72287183577006"><ele>308.6666666666667</ele><time>2026-04-26T07:43:28Z</time></trkpt><trkpt lat="45.6067258202502" lon="10.722949809138365"><ele>307.0</ele><time>2026-04-26T07:43:29Z</time></trkpt><trkpt lat="45.60675671106513" lon="10.723040005936957"><ele>305.33333333333337</ele><time>2026-04-26T07:43:30Z</time></trkpt><trkpt lat="45.60675370173402" lon="10.723139850573826"><ele>303.6666666666667</ele><time>2026-04-26T07:43:31Z</time></trkpt><trkpt lat="45.60666880945844" lon="10.723200789953603"><ele>302.0</ele><time>2026-04-26T07:43:32Z</time></trkpt><trkpt lat="45.60659076698542" lon="10.723345803519011"><ele>302.0</ele><time>2026-04-26T07:43:34Z</time></trkpt><trkpt lat="45.60659841503991" lon="10.723462497290456"><ele>302.0</ele><time>2026-04-26T07:43:35Z</time></trkpt><trkpt lat="45.60664802733652" lon="10.72355313751618"><ele>302.0</ele><time>2026-04-26T07:43:36Z</time></trkpt><trkpt lat="45.606719946832605" lon="10.723607860917319"><ele>302.0</ele><time>2026-04-26T07:43:37Z</time></trkpt><trkpt lat="45.60679850357541" lon="10.723636751042475"><ele>302.0</ele><time>2026-04-26T07:43:38Z</time></trkpt><trkpt lat="45.606849436155684" lon="10.723720389253208"><ele>302.0</ele><time>2026-04-26T07:43:39Z</time></trkpt><trkpt lat="45.60688679697777" lon="10.723809218634724"><ele>302.2</ele><time>2026-04-26T07:43:40Z</time></trkpt><trkpt lat="45.606902657717384" lon="10.723908208212213"><ele>302.4</ele><time>2026-04-26T07:43:41Z</time></trkpt><trkpt lat="45.60689217308269" lon="10.724017601892674"><ele>302.6</ele><time>2026-04-26T07:43:42Z</time></trkpt><trkpt lat="45.60685623456321" lon="10.724155472391157"><ele>302.8</ele><time>2026-04-26T07:43:43Z</time></trkpt><trkpt lat="45.606788085670765" lon="10.724301930260156"><ele>303.0</ele><time>2026-04-26T07:43:44Z</time></trkpt><trkpt lat="45.60671177539083" lon="10.72445581499359"><ele>304.4</ele><time>2026-04-26T07:43:45Z</time></trkpt><trkpt lat="45.60664327500607" lon="10.724598601581418"><ele>305.8</ele><time>2026-04-26T07:43:46Z</time></trkpt><trkpt lat="45.606591921611376" lon="10.724722125406071"><ele>307.2</ele><time>2026-04-26T07:43:47Z</time></trkpt><trkpt lat="45.60654606631377" lon="10.724847146538655"><ele>308.6</ele><time>2026-04-26T07:43:48Z</time></trkpt><trkpt lat="45.606505063621476" lon="10.724957145599351"><ele>310.0</ele><time>2026-04-26T07:43:49Z</time></trkpt><trkpt lat="45.60646875419567" lon="10.725068056900643"><ele>310.0</ele><time>2026-04-26T07:43:50Z</time></trkpt><trkpt lat="45.60643905781718" lon="10.725195559760095"><ele>310.0</ele><time>2026-04-26T07:43:51Z</time></trkpt><trkpt lat="45.60641700939336" lon="10.725327460624081"><ele>310.0</ele><time>2026-04-26T07:43:52Z</time></trkpt><trkpt lat="45.60640483223149" lon="10.725474258230099"><ele>310.0</ele><time>2026-04-26T07:43:53Z</time></trkpt><trkpt lat="45.60640129515241" lon="10.725628277212708"><ele>310.0</ele><time>2026-04-26T07:43:54Z</time></trkpt><trkpt lat="45.60640665926944" lon="10.725777479874836"><ele>310.8333333333333</ele><time>2026-04-26T07:43:55Z</time></trkpt><trkpt lat="45.606419220813606" lon="10.725904508781063"><ele>311.66666666666663</ele><time>2026-04-26T07:43:56Z</time></trkpt><trkpt lat="45.60644094322361" lon="10.726019728785586"><ele>312.5</ele><time>2026-04-26T07:43:57Z</time></trkpt><trkpt lat="45.60646523761068" lon="10.72614256954448"><ele>313.3333333333333</ele><time>2026-04-26T07:43:58Z</time></trkpt><trkpt lat="45.60648736568459" lon="10.726250363772426"><ele>314.1666666666667</ele><time>2026-04-26T07:43:59Z</time></trkpt><trkpt lat="45.60650885484171" lon="10.726356126535002"><ele>315.0</ele><time>2026-04-26T07:44:00Z</time></trkpt><trkpt lat="45.60651293439992" lon="10.726455215574124"><ele>315.1666666666667</ele><time>2026-04-26T07:44:01Z</time></trkpt><trkpt lat="45.60651153995095" lon="10.726547519476535"><ele>315.3333333333333</ele><time>2026-04-26T07:44:02Z</time></trkpt><trkpt lat="45.60652620272902" lon="10.72663796691597"><ele>315.5</ele><time>2026-04-26T07:44:03Z</time></trkpt><trkpt lat="45.606568241188974" lon="10.726756673516201"><ele>315.66666666666663</ele><time>2026-04-26T07:44:05Z</time></trkpt><trkpt lat="45.606495179406195" lon="10.726859838249537"><ele>315.8333333333333</ele><time>2026-04-26T07:44:08Z</time></trkpt><trkpt lat="45.606420113555" lon="10.72689906959912"><ele>316.0</ele><time>2026-04-26T07:44:09Z</time></trkpt><trkpt lat="45.60634671015502" lon="10.72695462646701"><ele>316.0</ele><time>2026-04-26T07:44:10Z</time></trkpt><trkpt lat="45.60627509095523" lon="10.727019607430512"><ele>316.0</ele><time>2026-04-26T07:44:11Z</time></trkpt><trkpt lat="45.60621294761363" lon="10.72707837735507"><ele>316.0</ele><time>2026-04-26T07:44:12Z</time></trkpt><trkpt lat="45.60614377148653" lon="10.727139401699153"><ele>316.0</ele><time>2026-04-26T07:44:13Z</time></trkpt><trkpt lat="45.60607738843373" lon="10.727194646967044"><ele>316.0</ele><time>2026-04-26T07:44:14Z</time></trkpt><trkpt lat="45.606012412494856" lon="10.727231108526054"><ele>316.0</ele><time>2026-04-26T07:44:15Z</time></trkpt><trkpt lat="45.605892373846615" lon="10.72725658993919"><ele>315.5</ele><time>2026-04-26T07:44:17Z</time></trkpt><trkpt lat="45.60582365781591" lon="10.727280031854326"><ele>315.0</ele><time>2026-04-26T07:44:18Z</time></trkpt><trkpt lat="45.60575556423633" lon="10.727283559549065"><ele>314.5</ele><time>2026-04-26T07:44:19Z</time></trkpt><trkpt lat="45.60566448423733" lon="10.727290983839158"><ele>314.0</ele><time>2026-04-26T07:44:20Z</time></trkpt><trkpt lat="45.605566545573566" lon="10.727290786912157"><ele>313.5</ele><time>2026-04-26T07:44:21Z</time></trkpt><trkpt lat="45.60545952509965" lon="10.727277931659529"><ele>313.0</ele><time>2026-04-26T07:44:22Z</time></trkpt><trkpt lat="45.605353746317434" lon="10.72726581165141"><ele>313.2</ele><time>2026-04-26T07:44:23Z</time></trkpt><trkpt lat="45.60525149284927" lon="10.727253781830386"><ele>313.4</ele><time>2026-04-26T07:44:24Z</time></trkpt><trkpt lat="45.60514766938926" lon="10.727241567307649"><ele>313.59999999999997</ele><time>2026-04-26T07:44:25Z</time></trkpt><trkpt lat="45.60505760102297" lon="10.727230971028126"><ele>313.8</ele><time>2026-04-26T07:44:26Z</time></trkpt><trkpt lat="45.60496094981495" lon="10.72722025077612"><ele>314.0</ele><time>2026-04-26T07:44:27Z</time></trkpt><trkpt lat="45.60486070941965" lon="10.727209397818404"><ele>314.0</ele><time>2026-04-26T07:44:28Z</time></trkpt><trkpt lat="45.60476326800463" lon="10.727199726039547"><ele>314.0</ele><time>2026-04-26T07:44:29Z</time></trkpt><trkpt lat="45.60467243587752" lon="10.727212960704396"><ele>314.0</ele><time>2026-04-26T07:44:30Z</time></trkpt><trkpt lat="45.60457006316007" lon="10.727210170047913"><ele>314.0</ele><time>2026-04-26T07:44:31Z</time></trkpt><trkpt lat="45.60446661701355" lon="10.727234038856052"><ele>314.0</ele><time>2026-04-26T07:44:32Z</time></trkpt><trkpt lat="45.604353433159595" lon="10.727269434802789"><ele>314.0</ele><time>2026-04-26T07:44:33Z</time></trkpt><trkpt lat="45.60425392900911" lon="10.727310336926113"><ele>314.0</ele><time>2026-04-26T07:44:34Z</time></trkpt><trkpt lat="45.604162706615206" lon="10.72734611553611"><ele>314.0</ele><time>2026-04-26T07:44:35Z</time></trkpt><trkpt lat="45.60406227232794" lon="10.7273733579786"><ele>314.0</ele><time>2026-04-26T07:44:36Z</time></trkpt><trkpt lat="45.60396434820407" lon="10.727399778022587"><ele>314.0</ele><time>2026-04-26T07:44:36.999Z</time></trkpt><trkpt lat="45.60385720369587" lon="10.727428243333211"><ele>314.0</ele><time>2026-04-26T07:44:37.999Z</time></trkpt><trkpt lat="45.6037508479663" lon="10.72745848071727"><ele>314.0</ele><time>2026-04-26T07:44:38.999Z</time></trkpt><trkpt lat="45.60365397333372" lon="10.727483655692259"><ele>314.0</ele><time>2026-04-26T07:44:39.999Z</time></trkpt><trkpt lat="45.60355383479082" lon="10.727518006792344"><ele>314.0</ele><time>2026-04-26T07:44:40.999Z</time></trkpt><trkpt lat="45.60346214806607" lon="10.72755168207642"><ele>314.0</ele><time>2026-04-26T07:44:41.999Z</time></trkpt><trkpt lat="45.60337164353154" lon="10.727588100797986"><ele>314.2</ele><time>2026-04-26T07:44:42.999Z</time></trkpt><trkpt lat="45.60329318520134" lon="10.727631797299695"><ele>314.4</ele><time>2026-04-26T07:44:43.999Z</time></trkpt><trkpt lat="45.603208120921366" lon="10.727679780458072"><ele>314.6</ele><time>2026-04-26T07:44:44.999Z</time></trkpt><trkpt lat="45.603124863410116" lon="10.727728332920536"><ele>314.8</ele><time>2026-04-26T07:44:45.999Z</time></trkpt><trkpt lat="45.60302246984343" lon="10.727782381816732"><ele>315.0</ele><time>2026-04-26T07:44:46.999Z</time></trkpt><trkpt lat="45.60291972520165" lon="10.72783863470175"><ele>314.0</ele><time>2026-04-26T07:44:47.998Z</time></trkpt><trkpt lat="45.60281731665711" lon="10.72790690030908"><ele>313.0</ele><time>2026-04-26T07:44:48.998Z</time></trkpt><trkpt lat="45.60271341492319" lon="10.727970757606348"><ele>312.0</ele><time>2026-04-26T07:44:50Z</time></trkpt><trkpt lat="45.602617096537266" lon="10.728028640664217"><ele>311.0</ele><time>2026-04-26T07:44:51Z</time></trkpt><trkpt lat="45.60251979682929" lon="10.728077750448548"><ele>310.0</ele><time>2026-04-26T07:44:52Z</time></trkpt><trkpt lat="45.60241011505757" lon="10.728132514242837"><ele>310.0</ele><time>2026-04-26T07:44:53Z</time></trkpt><trkpt lat="45.60227751180125" lon="10.728196609697262"><ele>310.0</ele><time>2026-04-26T07:44:54Z</time></trkpt><trkpt lat="45.602132109886874" lon="10.728260298378776"><ele>310.0</ele><time>2026-04-26T07:44:55Z</time></trkpt><trkpt lat="45.60198668776745" lon="10.728323401586778"><ele>310.0</ele><time>2026-04-26T07:44:56Z</time></trkpt><trkpt lat="45.601830838596726" lon="10.728380211100102"><ele>309.4</ele><time>2026-04-26T07:44:57Z</time></trkpt><trkpt lat="45.60169065992414" lon="10.728407349790023"><ele>308.8</ele><time>2026-04-26T07:44:58Z</time></trkpt><trkpt lat="45.6015776049" lon="10.728436572147974"><ele>308.2</ele><time>2026-04-26T07:44:59Z</time></trkpt><trkpt lat="45.601478683078255" lon="10.728470691600997"><ele>307.6</ele><time>2026-04-26T07:45:00Z</time></trkpt><trkpt lat="45.601415806484106" lon="10.728522935625291"><ele>307.0</ele><time>2026-04-26T07:45:01Z</time></trkpt><trkpt lat="45.60136345845111" lon="10.728592903474338"><ele>307.0</ele><time>2026-04-26T07:45:02Z</time></trkpt><trkpt lat="45.60131527166131" lon="10.728694536755786"><ele>307.0</ele><time>2026-04-26T07:45:03Z</time></trkpt><trkpt lat="45.60124913581565" lon="10.728803252060843"><ele>307.0</ele><time>2026-04-26T07:45:04Z</time></trkpt><trkpt lat="45.601168267614064" lon="10.728900416692294"><ele>307.0</ele><time>2026-04-26T07:45:05Z</time></trkpt><trkpt lat="45.601078372472934" lon="10.72897724454451"><ele>307.0</ele><time>2026-04-26T07:45:06Z</time></trkpt><trkpt lat="45.600992614893485" lon="10.729048630443279"><ele>305.57142857142856</ele><time>2026-04-26T07:45:07Z</time></trkpt><trkpt lat="45.60091653937713" lon="10.729104885446139"><ele>304.1428571428571</ele><time>2026-04-26T07:45:08Z</time></trkpt><trkpt lat="45.60085121149059" lon="10.729144800756167"><ele>302.7142857142857</ele><time>2026-04-26T07:45:09Z</time></trkpt><trkpt lat="45.600785183473604" lon="10.729181533252909"><ele>301.2857142857143</ele><time>2026-04-26T07:45:10Z</time></trkpt><trkpt lat="45.60071984763418" lon="10.729217072608579"><ele>299.8571428571429</ele><time>2026-04-26T07:45:11Z</time></trkpt><trkpt lat="45.60065568409352" lon="10.729252954528295"><ele>298.42857142857144</ele><time>2026-04-26T07:45:12Z</time></trkpt><trkpt lat="45.60058838154225" lon="10.729288348109662"><ele>297.0</ele><time>2026-04-26T07:45:13Z</time></trkpt><trkpt lat="45.60047586702978" lon="10.72934915834087"><ele>297.0</ele><time>2026-04-26T07:45:15Z</time></trkpt><trkpt lat="45.60038111545418" lon="10.729389828886394"><ele>297.0</ele><time>2026-04-26T07:45:17Z</time></trkpt><trkpt lat="45.600297343369604" lon="10.729439413799755"><ele>297.0</ele><time>2026-04-26T07:45:19.999Z</time></trkpt><trkpt lat="45.60019417532171" lon="10.729504466510784"><ele>297.0</ele><time>2026-04-26T07:45:21.999Z</time></trkpt><trkpt lat="45.60012838189448" lon="10.729547021018595"><ele>297.0</ele><time>2026-04-26T07:45:22.999Z</time></trkpt><trkpt lat="45.60002661210618" lon="10.729623218735655"><ele>297.6</ele><time>2026-04-26T07:45:24.999Z</time></trkpt><trkpt lat="45.59994072535226" lon="10.729690432784626"><ele>298.2</ele><time>2026-04-26T07:45:26.999Z</time></trkpt><trkpt lat="45.6000263201076" lon="10.729628396887554"><ele>298.8</ele><time>2026-04-26T07:45:34.999Z</time></trkpt><trkpt lat="45.60009985298782" lon="10.729576749368848"><ele>299.4</ele><time>2026-04-26T07:45:35.999Z</time></trkpt><trkpt lat="45.60020966537344" lon="10.729494143557998"><ele>300.0</ele><time>2026-04-26T07:45:36.999Z</time></trkpt><trkpt lat="45.600341721874" lon="10.729429794759154"><ele>299.0</ele><time>2026-04-26T07:45:37.999Z</time></trkpt><trkpt lat="45.60048502233165" lon="10.72936359043408"><ele>298.0</ele><time>2026-04-26T07:45:38.999Z</time></trkpt><trkpt lat="45.600619018887556" lon="10.72926913415827"><ele>297.0</ele><time>2026-04-26T07:45:39.999Z</time></trkpt><trkpt lat="45.60076504528209" lon="10.729185658162276"><ele>297.0</ele><time>2026-04-26T07:45:40.999Z</time></trkpt><trkpt lat="45.600909087409384" lon="10.729098849353955"><ele>297.0</ele><time>2026-04-26T07:45:41.999Z</time></trkpt><trkpt lat="45.60102658721843" lon="10.729012405213467"><ele>297.0</ele><time>2026-04-26T07:45:42.999Z</time></trkpt><trkpt lat="45.6011356144259" lon="10.728914303817039"><ele>297.0</ele><time>2026-04-26T07:45:43.999Z</time></trkpt><trkpt lat="45.60124204534297" lon="10.728804861700112"><ele>298.4</ele><time>2026-04-26T07:45:44.999Z</time></trkpt><trkpt lat="45.60131820692759" lon="10.728686238966052"><ele>299.79999999999995</ele><time>2026-04-26T07:45:45.999Z</time></trkpt><trkpt lat="45.60138726456524" lon="10.728586627883569"><ele>301.2</ele><time>2026-04-26T07:45:46.999Z</time></trkpt><trkpt lat="45.60143588942194" lon="10.728516489798663"><ele>302.59999999999997</ele><time>2026-04-26T07:45:47.999Z</time></trkpt><trkpt lat="45.60152921445414" lon="10.728432725602612"><ele>304.0</ele><time>2026-04-26T07:45:49.999Z</time></trkpt><trkpt lat="45.60160449388133" lon="10.728422981620474"><ele>304.0</ele><time>2026-04-26T07:45:50.999Z</time></trkpt><trkpt lat="45.601669229545394" lon="10.728406385295852"><ele>304.0</ele><time>2026-04-26T07:45:51.999Z</time></trkpt><trkpt lat="45.60178631283503" lon="10.728375622687562"><ele>304.0</ele><time>2026-04-26T07:45:53.999Z</time></trkpt><trkpt lat="45.60187401255435" lon="10.728353175718894"><ele>304.0</ele><time>2026-04-26T07:45:55.999Z</time></trkpt><trkpt lat="45.6019686475544" lon="10.728319666955507"><ele>304.0</ele><time>2026-04-26T07:46:05.999Z</time></trkpt><trkpt lat="45.60208306016398" lon="10.72832507364146"><ele>305.2</ele><time>2026-04-26T07:46:07.999Z</time></trkpt><trkpt lat="45.602186822840196" lon="10.728245398317553"><ele>306.4</ele><time>2026-04-26T07:46:09.999Z</time></trkpt><trkpt lat="45.60224907590843" lon="10.728187246416052"><ele>307.6</ele><time>2026-04-26T07:46:11.999Z</time></trkpt><trkpt lat="45.6022645093029" lon="10.728275246647476"><ele>308.8</ele><time>2026-04-26T07:46:13.999Z</time></trkpt><trkpt lat="45.60224456756218" lon="10.728418777213946"><ele>310.0</ele><time>2026-04-26T07:46:15.999Z</time></trkpt><trkpt lat="45.60221044073974" lon="10.728542885947771"><ele>310.66666666666663</ele><time>2026-04-26T07:46:16.999Z</time></trkpt><trkpt lat="45.60218612503617" lon="10.728652409114178"><ele>311.3333333333333</ele><time>2026-04-26T07:46:17.999Z</time></trkpt><trkpt lat="45.60218072066121" lon="10.728760297704383"><ele>312.0</ele><time>2026-04-26T07:46:18.999Z</time></trkpt><trkpt lat="45.602151774620275" lon="10.72891568584857"><ele>312.6666666666667</ele><time>2026-04-26T07:46:20.999Z</time></trkpt><trkpt lat="45.60215653450469" lon="10.729011022985475"><ele>313.33333333333337</ele><time>2026-04-26T07:46:21.999Z</time></trkpt><trkpt lat="45.60218285251111" lon="10.72910742381875"><ele>314.0</ele><time>2026-04-26T07:46:22.999Z</time></trkpt><trkpt lat="45.602202397125104" lon="10.72920514697941"><ele>314.0</ele><time>2026-04-26T07:46:23.999Z</time></trkpt><trkpt lat="45.60218357211736" lon="10.729369223497347"><ele>314.0</ele><time>2026-04-26T07:46:24.999Z</time></trkpt><trkpt lat="45.60218002288258" lon="10.72947799170083"><ele>314.0</ele><time>2026-04-26T07:46:25.999Z</time></trkpt><trkpt lat="45.60218263946567" lon="10.72957908565951"><ele>314.0</ele><time>2026-04-26T07:46:26.999Z</time></trkpt><trkpt lat="45.60217976907522" lon="10.729689506242847"><ele>314.0</ele><time>2026-04-26T07:46:27.999Z</time></trkpt><trkpt lat="45.60218020224457" lon="10.729797793547036"><ele>314.0</ele><time>2026-04-26T07:46:28.999Z</time></trkpt><trkpt lat="45.602185437922934" lon="10.7298970769225"><ele>313.4</ele><time>2026-04-26T07:46:29.999Z</time></trkpt><trkpt lat="45.60217994406452" lon="10.730027043199144"><ele>312.79999999999995</ele><time>2026-04-26T07:46:31.999Z</time></trkpt><trkpt lat="45.60211354223181" lon="10.730193412614149"><ele>312.20000000000005</ele><time>2026-04-26T07:46:33.999Z</time></trkpt><trkpt lat="45.602039153691024" lon="10.730238672801052"><ele>311.6</ele><time>2026-04-26T07:46:34.999Z</time></trkpt><trkpt lat="45.60195132753627" lon="10.730293576701571"><ele>311.0</ele><time>2026-04-26T07:46:35.999Z</time></trkpt><trkpt lat="45.601872061385215" lon="10.730350847485154"><ele>311.0</ele><time>2026-04-26T07:46:36.999Z</time></trkpt><trkpt lat="45.60179061780866" lon="10.730420431970181"><ele>311.0</ele><time>2026-04-26T07:46:37.999Z</time></trkpt><trkpt lat="45.60169645856045" lon="10.730505018220716"><ele>311.0</ele><time>2026-04-26T07:46:38.999Z</time></trkpt><trkpt lat="45.601589056007505" lon="10.73058873125498"><ele>311.0</ele><time>2026-04-26T07:46:39.999Z</time></trkpt><trkpt lat="45.60148661378243" lon="10.73066045303403"><ele>311.0</ele><time>2026-04-26T07:46:40.999Z</time></trkpt><trkpt lat="45.60140234805255" lon="10.730714421454278"><ele>311.0</ele><time>2026-04-26T07:46:41.999Z</time></trkpt><trkpt lat="45.60132212969675" lon="10.730778078997197"><ele>311.0</ele><time>2026-04-26T07:46:42.999Z</time></trkpt><trkpt lat="45.601255858742945" lon="10.730855455785226"><ele>311.0</ele><time>2026-04-26T07:46:43.999Z</time></trkpt><trkpt lat="45.601196273978154" lon="10.730935536243624"><ele>311.0</ele><time>2026-04-26T07:46:44.999Z</time></trkpt><trkpt lat="45.60113851099628" lon="10.731004784349542"><ele>311.0</ele><time>2026-04-26T07:46:45.999Z</time></trkpt><trkpt lat="45.60107623460141" lon="10.731069191839945"><ele>311.0</ele><time>2026-04-26T07:46:46.999Z</time></trkpt><trkpt lat="45.6010067452222" lon="10.731120529612094"><ele>310.1666666666667</ele><time>2026-04-26T07:46:47.999Z</time></trkpt><trkpt lat="45.600931714525686" lon="10.731159379824431"><ele>309.33333333333337</ele><time>2026-04-26T07:46:48.999Z</time></trkpt><trkpt lat="45.6008499522612" lon="10.731194827996752"><ele>308.5</ele><time>2026-04-26T07:46:49.999Z</time></trkpt><trkpt lat="45.60077379364043" lon="10.731236019132643"><ele>307.6666666666667</ele><time>2026-04-26T07:46:50.999Z</time></trkpt><trkpt lat="45.60070128404251" lon="10.731273397762749"><ele>306.8333333333333</ele><time>2026-04-26T07:46:51.999Z</time></trkpt><trkpt lat="45.60063156622576" lon="10.731309671912495"><ele>306.0</ele><time>2026-04-26T07:46:52.999Z</time></trkpt><trkpt lat="45.60056550125089" lon="10.73135453926148"><ele>306.0</ele><time>2026-04-26T07:46:53.999Z</time></trkpt><trkpt lat="45.60049863922049" lon="10.731399344965764"><ele>306.0</ele><time>2026-04-26T07:46:54.999Z</time></trkpt><trkpt lat="45.600404264042396" lon="10.731445511674432"><ele>306.0</ele><time>2026-04-26T07:46:56Z</time></trkpt><trkpt lat="45.60030391316449" lon="10.73149840388922"><ele>306.0</ele><time>2026-04-26T07:46:57Z</time></trkpt><trkpt lat="45.600190774049956" lon="10.731555318934287"><ele>306.0</ele><time>2026-04-26T07:46:58Z</time></trkpt><trkpt lat="45.6000660958706" lon="10.731620431795111"><ele>306.0</ele><time>2026-04-26T07:46:59Z</time></trkpt><trkpt lat="45.599951309433024" lon="10.73167271573606"><ele>306.0</ele><time>2026-04-26T07:47:00Z</time></trkpt><trkpt lat="45.5998718098613" lon="10.731717637550117"><ele>306.0</ele><time>2026-04-26T07:47:01Z</time></trkpt><trkpt lat="45.599789684088506" lon="10.731762772621307"><ele>306.0</ele><time>2026-04-26T07:47:02Z</time></trkpt><trkpt lat="45.59970881885197" lon="10.731817861180394"><ele>306.0</ele><time>2026-04-26T07:47:03Z</time></trkpt><trkpt lat="45.59962494146708" lon="10.731874497586094"><ele>305.2</ele><time>2026-04-26T07:47:03.999Z</time></trkpt><trkpt lat="45.59952769750075" lon="10.7319505646777"><ele>304.40000000000003</ele><time>2026-04-26T07:47:04.999Z</time></trkpt><trkpt lat="45.599435047118796" lon="10.73202252751135"><ele>303.6</ele><time>2026-04-26T07:47:06Z</time></trkpt><trkpt lat="45.59935077944506" lon="10.732092048442727"><ele>302.8</ele><time>2026-04-26T07:47:07Z</time></trkpt><trkpt lat="45.59926628149275" lon="10.732169590991269"><ele>302.0</ele><time>2026-04-26T07:47:08Z</time></trkpt><trkpt lat="45.59919043999119" lon="10.732235336081875"><ele>302.0</ele><time>2026-04-26T07:47:09Z</time></trkpt><trkpt lat="45.59911748793139" lon="10.732298554188672"><ele>302.0</ele><time>2026-04-26T07:47:10Z</time></trkpt><trkpt lat="45.59904701290942" lon="10.732366425958922"><ele>302.0</ele><time>2026-04-26T07:47:11Z</time></trkpt><trkpt lat="45.59898920999159" lon="10.73242663594388"><ele>302.0</ele><time>2026-04-26T07:47:12Z</time></trkpt><trkpt lat="45.59893774868872" lon="10.732493187384046"><ele>302.0</ele><time>2026-04-26T07:47:13Z</time></trkpt><trkpt lat="45.598853149642686" lon="10.732630790444755"><ele>302.0</ele><time>2026-04-26T07:47:15Z</time></trkpt><trkpt lat="45.59879614546532" lon="10.732703852656932"><ele>301.2</ele><time>2026-04-26T07:47:16Z</time></trkpt><trkpt lat="45.59873085031077" lon="10.732765181813553"><ele>300.4</ele><time>2026-04-26T07:47:17Z</time></trkpt><trkpt lat="45.598638179516314" lon="10.73283716517488"><ele>299.6</ele><time>2026-04-26T07:47:18Z</time></trkpt><trkpt lat="45.59856251094488" lon="10.7328835973166"><ele>298.8</ele><time>2026-04-26T07:47:19Z</time></trkpt><trkpt lat="45.598461660012944" lon="10.732970242871708"><ele>298.0</ele><time>2026-04-26T07:47:21Z</time></trkpt><trkpt lat="45.598367220408335" lon="10.733070965882677"><ele>298.0</ele><time>2026-04-26T07:47:23Z</time></trkpt><trkpt lat="45.59828851181692" lon="10.733156064845407"><ele>298.0</ele><time>2026-04-26T07:47:25Z</time></trkpt><trkpt lat="45.5981872717173" lon="10.733243780981168"><ele>298.0</ele><time>2026-04-26T07:47:27Z</time></trkpt><trkpt lat="45.59811707357007" lon="10.733298883889796"><ele>298.0</ele><time>2026-04-26T07:47:27.999Z</time></trkpt><trkpt lat="45.598044758798075" lon="10.733350691342055"><ele>298.0</ele><time>2026-04-26T07:47:28.999Z</time></trkpt><trkpt lat="45.59795516552589" lon="10.733390023034"><ele>298.0</ele><time>2026-04-26T07:47:29.999Z</time></trkpt><trkpt lat="45.597860406389216" lon="10.733416182371707"><ele>298.0</ele><time>2026-04-26T07:47:30.999Z</time></trkpt><trkpt lat="45.59777565074392" lon="10.733428236140815"><ele>298.0</ele><time>2026-04-26T07:47:31.999Z</time></trkpt><trkpt lat="45.59769446961592" lon="10.733446615625784"><ele>298.0</ele><time>2026-04-26T07:47:32.999Z</time></trkpt><trkpt lat="45.59761116757433" lon="10.733457565955456"><ele>298.0</ele><time>2026-04-26T07:47:33.999Z</time></trkpt><trkpt lat="45.5975217324795" lon="10.733477215640336"><ele>298.0</ele><time>2026-04-26T07:47:34.999Z</time></trkpt><trkpt lat="45.59742467273572" lon="10.733500203496513"><ele>297.4</ele><time>2026-04-26T07:47:35.999Z</time></trkpt><trkpt lat="45.597333644555164" lon="10.733522127488618"><ele>296.8</ele><time>2026-04-26T07:47:36.999Z</time></trkpt><trkpt lat="45.59723543203925" lon="10.733558606766998"><ele>296.2</ele><time>2026-04-26T07:47:37.999Z</time></trkpt><trkpt lat="45.59714685834693" lon="10.733589132250314"><ele>295.6</ele><time>2026-04-26T07:47:38.999Z</time></trkpt><trkpt lat="45.59706420720296" lon="10.733618797285729"><ele>295.0</ele><time>2026-04-26T07:47:39.999Z</time></trkpt><trkpt lat="45.596988054924864" lon="10.73367520803128"><ele>292.16666666666663</ele><time>2026-04-26T07:47:40.999Z</time></trkpt><trkpt lat="45.59692048879093" lon="10.73374214589412"><ele>289.3333333333333</ele><time>2026-04-26T07:47:41.999Z</time></trkpt><trkpt lat="45.596847147312864" lon="10.73381567343558"><ele>286.5</ele><time>2026-04-26T07:47:42.999Z</time></trkpt><trkpt lat="45.5967734872084" lon="10.733825154775065"><ele>283.6666666666667</ele><time>2026-04-26T07:47:43.999Z</time></trkpt><trkpt lat="45.59671546304625" lon="10.733682147222867"><ele>280.83333333333337</ele><time>2026-04-26T07:47:46.999Z</time></trkpt><trkpt lat="45.59672383664436" lon="10.733580943087402"><ele>278.0</ele><time>2026-04-26T07:47:47.999Z</time></trkpt><trkpt lat="45.5967373208508" lon="10.73346087626988"><ele>278.0</ele><time>2026-04-26T07:47:48.999Z</time></trkpt><trkpt lat="45.59676264106618" lon="10.733315356071083"><ele>278.0</ele><time>2026-04-26T07:47:49.999Z</time></trkpt><trkpt lat="45.59681013966025" lon="10.73315993098766"><ele>278.0</ele><time>2026-04-26T07:47:50.999Z</time></trkpt><trkpt lat="45.596880807253854" lon="10.733000666518219"><ele>278.0</ele><time>2026-04-26T07:47:51.999Z</time></trkpt><trkpt lat="45.596956912635044" lon="10.732864955635495"><ele>281.2</ele><time>2026-04-26T07:47:52.999Z</time></trkpt><trkpt lat="45.59702592201604" lon="10.73275522601914"><ele>284.4</ele><time>2026-04-26T07:47:53.999Z</time></trkpt><trkpt lat="45.597092356261385" lon="10.732660239269592"><ele>287.59999999999997</ele><time>2026-04-26T07:47:54.999Z</time></trkpt><trkpt lat="45.59715661278143" lon="10.732573340901538"><ele>290.8</ele><time>2026-04-26T07:47:55.999Z</time></trkpt><trkpt lat="45.597212192814084" lon="10.732494801008057"><ele>294.0</ele><time>2026-04-26T07:47:56.999Z</time></trkpt><trkpt lat="45.5972577935237" lon="10.732349845382611"><ele>294.0</ele><time>2026-04-26T07:47:58.999Z</time></trkpt><trkpt lat="45.59727129943234" lon="10.732200493367799"><ele>294.0</ele><time>2026-04-26T07:48:00.999Z</time></trkpt><trkpt lat="45.59729888586589" lon="10.732049830761872"><ele>294.0</ele><time>2026-04-26T07:48:02.999Z</time></trkpt><trkpt lat="45.59732081659582" lon="10.731899114998447"><ele>294.0</ele><time>2026-04-26T07:48:04.999Z</time></trkpt><trkpt lat="45.59731623347536" lon="10.731776226664538"><ele>294.0</ele><time>2026-04-26T07:48:06.999Z</time></trkpt><trkpt lat="45.59732275426385" lon="10.731660451983588"><ele>291.59999999999997</ele><time>2026-04-26T07:48:09.999Z</time></trkpt><trkpt lat="45.597257491180265" lon="10.73160409040872"><ele>289.2</ele><time>2026-04-26T07:48:12.999Z</time></trkpt><trkpt lat="45.59715365344501" lon="10.73169388249659"><ele>286.79999999999995</ele><time>2026-04-26T07:48:14.999Z</time></trkpt><trkpt lat="45.59710083302938" lon="10.731765181161837"><ele>284.4</ele><time>2026-04-26T07:48:15.999Z</time></trkpt><trkpt lat="45.5970397140629" lon="10.731862921647036"><ele>282.0</ele><time>2026-04-26T07:48:16.999Z</time></trkpt><trkpt lat="45.59696752319622" lon="10.731968713116647"><ele>280.3333333333333</ele><time>2026-04-26T07:48:17.999Z</time></trkpt><trkpt lat="45.59690350585922" lon="10.732056646278261"><ele>278.6666666666667</ele><time>2026-04-26T07:48:18.999Z</time></trkpt><trkpt lat="45.59684139188525" lon="10.732139406950765"><ele>277.0</ele><time>2026-04-26T07:48:19.999Z</time></trkpt><trkpt lat="45.59678884035838" lon="10.73221652458012"><ele>275.33333333333337</ele><time>2026-04-26T07:48:20.999Z</time></trkpt><trkpt lat="45.596736944001485" lon="10.732303027044983"><ele>273.6666666666667</ele><time>2026-04-26T07:48:21.999Z</time></trkpt><trkpt lat="45.59668990748851" lon="10.732389445388666"><ele>272.0</ele><time>2026-04-26T07:48:22.999Z</time></trkpt><trkpt lat="45.5966395412718" lon="10.732486363874468"><ele>272.0</ele><time>2026-04-26T07:48:23.999Z</time></trkpt><trkpt lat="45.59658194690346" lon="10.732586582219193"><ele>272.0</ele><time>2026-04-26T07:48:24.999Z</time></trkpt><trkpt lat="45.596507533005116" lon="10.732695725418642"><ele>272.0</ele><time>2026-04-26T07:48:25.999Z</time></trkpt><trkpt lat="45.596428838110654" lon="10.732797250764055"><ele>272.0</ele><time>2026-04-26T07:48:26.999Z</time></trkpt><trkpt lat="45.596346268291754" lon="10.732884807635267"><ele>272.0</ele><time>2026-04-26T07:48:27.999Z</time></trkpt><trkpt lat="45.59625030832809" lon="10.732914171097914"><ele>269.4</ele><time>2026-04-26T07:48:28.999Z</time></trkpt><trkpt lat="45.59616570110879" lon="10.732919589607295"><ele>266.79999999999995</ele><time>2026-04-26T07:48:29.999Z</time></trkpt><trkpt lat="45.59609385973548" lon="10.732900571024123"><ele>264.2</ele><time>2026-04-26T07:48:30.999Z</time></trkpt><trkpt lat="45.596009559794965" lon="10.73290750524567"><ele>261.59999999999997</ele><time>2026-04-26T07:48:32.999Z</time></trkpt><trkpt lat="45.59599770343539" lon="10.733118591508596"><ele>259.0</ele><time>2026-04-26T07:48:33.999Z</time></trkpt><trkpt lat="45.59599423742966" lon="10.733236478633156"><ele>259.0</ele><time>2026-04-26T07:48:34.999Z</time></trkpt><trkpt lat="45.595993558292406" lon="10.733336879229705"><ele>259.0</ele><time>2026-04-26T07:48:35.999Z</time></trkpt><trkpt lat="45.59597353253506" lon="10.73351944929551"><ele>259.0</ele><time>2026-04-26T07:48:37.999Z</time></trkpt><trkpt lat="45.59598461834545" lon="10.73367167407839"><ele>259.0</ele><time>2026-04-26T07:48:39.999Z</time></trkpt><trkpt lat="45.59596416516444" lon="10.733817018351608"><ele>259.0</ele><time>2026-04-26T07:48:41.999Z</time></trkpt><trkpt lat="45.595928373435484" lon="10.733994350241758"><ele>258.75</ele><time>2026-04-26T07:48:43.999Z</time></trkpt><trkpt lat="45.59590311973582" lon="10.7341597291794"><ele>258.5</ele><time>2026-04-26T07:48:45.999Z</time></trkpt><trkpt lat="45.595868467936896" lon="10.734321052892671"><ele>258.25</ele><time>2026-04-26T07:48:47.999Z</time></trkpt><trkpt lat="45.59583422002762" lon="10.734483064179384"><ele>258.0</ele><time>2026-04-26T07:48:49.999Z</time></trkpt><trkpt lat="45.59581384392714" lon="10.734617780349225"><ele>258.0</ele><time>2026-04-26T07:48:51.999Z</time></trkpt><trkpt lat="45.59578661466457" lon="10.73474870281171"><ele>258.0</ele><time>2026-04-26T07:48:53.999Z</time></trkpt><trkpt lat="45.59575166620925" lon="10.734882505897513"><ele>258.0</ele><time>2026-04-26T07:48:55.999Z</time></trkpt><trkpt lat="45.5957308130312" lon="10.73498813858666"><ele>258.0</ele><time>2026-04-26T07:48:57.999Z</time></trkpt><trkpt lat="45.59569407581964" lon="10.735084642028061"><ele>258.0</ele><time>2026-04-26T07:48:59.999Z</time></trkpt><trkpt lat="45.595630747431414" lon="10.735198701266004"><ele>255.8</ele><time>2026-04-26T07:49:02Z</time></trkpt><trkpt lat="45.595568190806624" lon="10.735297621951581"><ele>253.60000000000002</ele><time>2026-04-26T07:49:04Z</time></trkpt><trkpt lat="45.59555280221257" lon="10.735442712488576"><ele>251.39999999999998</ele><time>2026-04-26T07:49:06Z</time></trkpt><trkpt lat="45.59560799808961" lon="10.73557193555194"><ele>249.2</ele><time>2026-04-26T07:49:08Z</time></trkpt><trkpt lat="45.59569597945497" lon="10.735658915207386"><ele>247.0</ele><time>2026-04-26T07:49:10Z</time></trkpt><trkpt lat="45.5957651267146" lon="10.735706314862473"><ele>246.99999999999997</ele><time>2026-04-26T07:49:12Z</time></trkpt><trkpt lat="45.59582943819776" lon="10.735749394916711"><ele>247.0</ele><time>2026-04-26T07:49:14Z</time></trkpt><trkpt lat="45.595892833357944" lon="10.735794010722751"><ele>247.0</ele><time>2026-04-26T07:49:16Z</time></trkpt><trkpt lat="45.59587757629516" lon="10.735908643066695"><ele>247.0</ele><time>2026-04-26T07:49:18Z</time></trkpt><trkpt lat="45.59576414365061" lon="10.735932029631867"><ele>246.99999999999997</ele><time>2026-04-26T07:49:20Z</time></trkpt><trkpt lat="45.59565832954842" lon="10.735891454196498"><ele>247.0</ele><time>2026-04-26T07:49:22Z</time></trkpt><trkpt lat="45.59555597381767" lon="10.735812574263367"><ele>246.99999999999997</ele><time>2026-04-26T07:49:24Z</time></trkpt><trkpt lat="45.59547601049444" lon="10.735756493357048"><ele>247.0</ele><time>2026-04-26T07:49:26Z</time></trkpt><trkpt lat="45.59540183827205" lon="10.73570456880411"><ele>247.0</ele><time>2026-04-26T07:49:28Z</time></trkpt><trkpt lat="45.59532544300571" lon="10.735680521162378"><ele>247.0</ele><time>2026-04-26T07:49:30Z</time></trkpt><trkpt lat="45.59527266929679" lon="10.735631010143917"><ele>246.99999999999997</ele><time>2026-04-26T07:49:32Z</time></trkpt><trkpt lat="45.59521166295646" lon="10.735578599851202"><ele>247.0</ele><time>2026-04-26T07:49:35Z</time></trkpt><trkpt lat="45.5951768905496" lon="10.735658690617477"><ele>246.99999999999997</ele><time>2026-04-26T07:49:38Z</time></trkpt><trkpt lat="45.59524011856106" lon="10.735783732538117"><ele>247.0</ele><time>2026-04-26T07:49:40Z</time></trkpt><trkpt lat="45.59530438700253" lon="10.735871430136608"><ele>247.0</ele><time>2026-04-26T07:49:42Z</time></trkpt><trkpt lat="45.59535020548294" lon="10.735971273329852"><ele>247.0</ele><time>2026-04-26T07:49:44Z</time></trkpt><trkpt lat="45.595382818642385" lon="10.736088519819125"><ele>246.99999999999997</ele><time>2026-04-26T07:49:46Z</time></trkpt><trkpt lat="45.595408435184844" lon="10.736196575889563"><ele>247.0</ele><time>2026-04-26T07:49:48Z</time></trkpt><trkpt lat="45.5954046158277" lon="10.736330306719584"><ele>245.39999999999998</ele><time>2026-04-26T07:49:51Z</time></trkpt><trkpt lat="45.59535135529143" lon="10.73645633950951"><ele>243.79999999999998</ele><time>2026-04-26T07:49:53Z</time></trkpt><trkpt lat="45.59530400977295" lon="10.736532139139308"><ele>242.2</ele><time>2026-04-26T07:49:54Z</time></trkpt><trkpt lat="45.59523599046863" lon="10.736657693341002"><ele>240.6</ele><time>2026-04-26T07:49:56Z</time></trkpt><trkpt lat="45.5951650942112" lon="10.7367334048182"><ele>239.0</ele><time>2026-04-26T07:49:58Z</time></trkpt><trkpt lat="45.59503276736639" lon="10.736671085338921"><ele>239.0</ele><time>2026-04-26T07:50:00Z</time></trkpt><trkpt lat="45.59494574258222" lon="10.736619485534188"><ele>238.99999999999997</ele><time>2026-04-26T07:50:01Z</time></trkpt><trkpt lat="45.5948433749279" lon="10.736544364602207"><ele>238.99999999999997</ele><time>2026-04-26T07:50:02Z</time></trkpt><trkpt lat="45.594755488289245" lon="10.736472024693457"><ele>239.0</ele><time>2026-04-26T07:50:03Z</time></trkpt><trkpt lat="45.59465756159527" lon="10.736396716992768"><ele>239.0</ele><time>2026-04-26T07:50:05Z</time></trkpt><trkpt lat="45.59460072710915" lon="10.736355048729472"><ele>239.0</ele><time>2026-04-26T07:50:06Z</time></trkpt><trkpt lat="45.594506053140535" lon="10.736298230792524"><ele>238.99999999999997</ele><time>2026-04-26T07:50:08Z</time></trkpt><trkpt lat="45.59442081935056" lon="10.736267846633591"><ele>238.99999999999997</ele><time>2026-04-26T07:50:10Z</time></trkpt><trkpt lat="45.59432447730782" lon="10.736237232689462"><ele>239.0</ele><time>2026-04-26T07:50:12Z</time></trkpt><trkpt lat="45.59424455924815" lon="10.736217307289563"><ele>239.0</ele><time>2026-04-26T07:50:14Z</time></trkpt><trkpt lat="45.594140059663424" lon="10.736154705258693"><ele>240.0</ele><time>2026-04-26T07:50:16Z</time></trkpt><trkpt lat="45.59408219458687" lon="10.736058750546364"><ele>240.99999999999997</ele><time>2026-04-26T07:50:18Z</time></trkpt><trkpt lat="45.594144539668676" lon="10.73630580830454"><ele>241.99999999999997</ele><time>2026-04-26T07:50:25.999Z</time></trkpt><trkpt lat="45.59420542842499" lon="10.736375670676125"><ele>243.0</ele><time>2026-04-26T07:50:26.999Z</time></trkpt><trkpt lat="45.59427000284482" lon="10.736461718481467"><ele>244.0</ele><time>2026-04-26T07:50:27.999Z</time></trkpt><trkpt lat="45.59433318773446" lon="10.736561566904477"><ele>244.0</ele><time>2026-04-26T07:50:28.999Z</time></trkpt><trkpt lat="45.5944004425583" lon="10.736668809432665"><ele>243.99999999999997</ele><time>2026-04-26T07:50:29.999Z</time></trkpt><trkpt lat="45.59446765132832" lon="10.73676440925405"><ele>243.99999999999997</ele><time>2026-04-26T07:50:30.999Z</time></trkpt><trkpt lat="45.594546455692594" lon="10.736867700858898"><ele>244.0</ele><time>2026-04-26T07:50:31.999Z</time></trkpt><trkpt lat="45.59462509198756" lon="10.736977545288878"><ele>244.0</ele><time>2026-04-26T07:50:32.999Z</time></trkpt><trkpt lat="45.59470085264984" lon="10.737079005161117"><ele>244.5</ele><time>2026-04-26T07:50:33.999Z</time></trkpt><trkpt lat="45.594790736144304" lon="10.737178162311682"><ele>245.0</ele><time>2026-04-26T07:50:34.999Z</time></trkpt><trkpt lat="45.594881262977374" lon="10.737300232675771"><ele>245.5</ele><time>2026-04-26T07:50:35.999Z</time></trkpt><trkpt lat="45.594977620267336" lon="10.737443479396907"><ele>246.0</ele><time>2026-04-26T07:50:36.999Z</time></trkpt><trkpt lat="45.59504953814984" lon="10.737571024898084"><ele>246.0</ele><time>2026-04-26T07:50:37.999Z</time></trkpt><trkpt lat="45.595107322672256" lon="10.73768841344355"><ele>246.00000000000003</ele><time>2026-04-26T07:50:38.999Z</time></trkpt><trkpt lat="45.595161321109046" lon="10.737810971777577"><ele>246.00000000000003</ele><time>2026-04-26T07:50:39.999Z</time></trkpt><trkpt lat="45.595207052754" lon="10.737938662705124"><ele>246.0</ele><time>2026-04-26T07:50:40.999Z</time></trkpt><trkpt lat="45.595243992752735" lon="10.738053803243549"><ele>246.0</ele><time>2026-04-26T07:50:41.999Z</time></trkpt><trkpt lat="45.59527979472451" lon="10.738162143677329"><ele>246.0</ele><time>2026-04-26T07:50:42.999Z</time></trkpt><trkpt lat="45.59531197544333" lon="10.73825607204236"><ele>246.0</ele><time>2026-04-26T07:50:43.999Z</time></trkpt><trkpt lat="45.595337188849086" lon="10.738341880983867"><ele>246.0</ele><time>2026-04-26T07:50:44.999Z</time></trkpt><trkpt lat="45.59536219152441" lon="10.73842457549144"><ele>246.0</ele><time>2026-04-26T07:50:45.999Z</time></trkpt><trkpt lat="45.595406039437655" lon="10.738562059069574"><ele>246.0</ele><time>2026-04-26T07:50:47.999Z</time></trkpt><trkpt lat="45.59544036041252" lon="10.738668566745151"><ele>246.0</ele><time>2026-04-26T07:50:49.999Z</time></trkpt><trkpt lat="45.59545979843896" lon="10.738774975488415"><ele>246.0</ele><time>2026-04-26T07:50:54.999Z</time></trkpt><trkpt lat="45.595517264141606" lon="10.738921629829266"><ele>246.00000000000003</ele><time>2026-04-26T07:51:11.999Z</time></trkpt><trkpt lat="45.595565648817605" lon="10.73904634883781"><ele>246.00000000000003</ele><time>2026-04-26T07:51:12.999Z</time></trkpt><trkpt lat="45.59559672967978" lon="10.739129002957053"><ele>246.0</ele><time>2026-04-26T07:51:13.999Z</time></trkpt><trkpt lat="45.595641914341286" lon="10.739248921706078"><ele>246.0</ele><time>2026-04-26T07:51:14.999Z</time></trkpt><trkpt lat="45.59567741715678" lon="10.739349030241256"><ele>245.66666666666666</ele><time>2026-04-26T07:51:15.999Z</time></trkpt><trkpt lat="45.59569573685381" lon="10.739457877216449"><ele>245.33333333333331</ele><time>2026-04-26T07:51:16.999Z</time></trkpt><trkpt lat="45.59573012820303" lon="10.73955809463198"><ele>245.0</ele><time>2026-04-26T07:51:17.999Z</time></trkpt><trkpt lat="45.595765231258476" lon="10.739659706399866"><ele>244.66666666666666</ele><time>2026-04-26T07:51:18.999Z</time></trkpt><trkpt lat="45.59581223852787" lon="10.739741928486195"><ele>244.33333333333331</ele><time>2026-04-26T07:51:19.999Z</time></trkpt><trkpt lat="45.59585093285301" lon="10.739849858645247"><ele>244.0</ele><time>2026-04-26T07:51:20.999Z</time></trkpt><trkpt lat="45.59588704121132" lon="10.739977062333917"><ele>244.0</ele><time>2026-04-26T07:51:21.999Z</time></trkpt><trkpt lat="45.59594412201878" lon="10.740127893831467"><ele>244.0</ele><time>2026-04-26T07:51:22.999Z</time></trkpt><trkpt lat="45.596007812270564" lon="10.740301055861668"><ele>244.0</ele><time>2026-04-26T07:51:23.999Z</time></trkpt><trkpt lat="45.596071441394166" lon="10.740470679040033"><ele>244.0</ele><time>2026-04-26T07:51:24.999Z</time></trkpt><trkpt lat="45.59613174974039" lon="10.740620057009735"><ele>244.5</ele><time>2026-04-26T07:51:25.999Z</time></trkpt><trkpt lat="45.596184385056254" lon="10.740775168130646"><ele>245.0</ele><time>2026-04-26T07:51:26.999Z</time></trkpt><trkpt lat="45.59624848860346" lon="10.740934525417241"><ele>245.5</ele><time>2026-04-26T07:51:27.999Z</time></trkpt><trkpt lat="45.596300303542435" lon="10.741097881074495"><ele>246.0</ele><time>2026-04-26T07:51:28.999Z</time></trkpt><trkpt lat="45.59637006807104" lon="10.741265707786397"><ele>246.0</ele><time>2026-04-26T07:51:29.999Z</time></trkpt><trkpt lat="45.59642871226712" lon="10.741431749407596"><ele>246.00000000000003</ele><time>2026-04-26T07:51:30.999Z</time></trkpt><trkpt lat="45.596472498690765" lon="10.74155910656863"><ele>246.00000000000003</ele><time>2026-04-26T07:51:31.999Z</time></trkpt><trkpt lat="45.59651421905624" lon="10.74164473560599"><ele>246.0</ele><time>2026-04-26T07:51:32.999Z</time></trkpt><trkpt lat="45.596604467283115" lon="10.741669790144023"><ele>246.0</ele><time>2026-04-26T07:51:34.999Z</time></trkpt><trkpt lat="45.59667185379471" lon="10.74165147650828"><ele>246.0</ele><time>2026-04-26T07:51:35.999Z</time></trkpt><trkpt lat="45.59675323778763" lon="10.741662647075719"><ele>246.00000000000003</ele><time>2026-04-26T07:51:36.999Z</time></trkpt><trkpt lat="45.59678177126634" lon="10.741769680771524"><ele>246.00000000000003</ele><time>2026-04-26T07:51:37.999Z</time></trkpt><trkpt lat="45.59681299877764" lon="10.741936499524963"><ele>246.0</ele><time>2026-04-26T07:51:39.999Z</time></trkpt><trkpt lat="45.596856970012766" lon="10.742051766690903"><ele>246.0</ele><time>2026-04-26T07:51:40.999Z</time></trkpt><trkpt lat="45.596895876784295" lon="10.742194763244973"><ele>246.0</ele><time>2026-04-26T07:51:41.999Z</time></trkpt><trkpt lat="45.596971508452945" lon="10.742339594162305"><ele>246.0</ele><time>2026-04-26T07:51:42.999Z</time></trkpt><trkpt lat="45.59706153379153" lon="10.74248837641455"><ele>246.0</ele><time>2026-04-26T07:51:43.999Z</time></trkpt><trkpt lat="45.59716082791764" lon="10.742625165169581"><ele>246.0</ele><time>2026-04-26T07:51:44.999Z</time></trkpt><trkpt lat="45.59727584329337" lon="10.742752570687319"><ele>247.0</ele><time>2026-04-26T07:51:45.999Z</time></trkpt><trkpt lat="45.597354348200376" lon="10.742856818416298"><ele>248.0</ele><time>2026-04-26T07:51:46.999Z</time></trkpt><trkpt lat="45.59741682769344" lon="10.742934570743014"><ele>249.0</ele><time>2026-04-26T07:51:47.999Z</time></trkpt><trkpt lat="45.597466622378064" lon="10.742994906099304"><ele>250.0</ele><time>2026-04-26T07:51:48.999Z</time></trkpt><trkpt lat="45.59751667949914" lon="10.743082366834424"><ele>251.0</ele><time>2026-04-26T07:51:51.999Z</time></trkpt><trkpt lat="45.59755483688918" lon="10.743160145627712"><ele>252.0</ele><time>2026-04-26T07:51:53.999Z</time></trkpt><trkpt lat="45.59743740929442" lon="10.743423221757835"><ele>252.0</ele><time>2026-04-26T07:51:54.999Z</time></trkpt><trkpt lat="45.597415946953475" lon="10.743540705447506"><ele>252.0</ele><time>2026-04-26T07:51:55.999Z</time></trkpt><trkpt lat="45.597398953551064" lon="10.743655975914457"><ele>252.0</ele><time>2026-04-26T07:51:56.999Z</time></trkpt><trkpt lat="45.59738757364062" lon="10.743752720354427"><ele>252.0</ele><time>2026-04-26T07:51:57.999Z</time></trkpt><trkpt lat="45.59737239256179" lon="10.743841679201244"><ele>252.0</ele><time>2026-04-26T07:51:58.999Z</time></trkpt><trkpt lat="45.597357651433974" lon="10.74402012237566"><ele>252.0</ele><time>2026-04-26T07:52:00.999Z</time></trkpt><trkpt lat="45.59735546537808" lon="10.744133569723068"><ele>251.5</ele><time>2026-04-26T07:52:01.999Z</time></trkpt><trkpt lat="45.59735578053532" lon="10.744260585801678"><ele>251.0</ele><time>2026-04-26T07:52:02.999Z</time></trkpt><trkpt lat="45.59736381238251" lon="10.744393277974394"><ele>250.5</ele><time>2026-04-26T07:52:03.999Z</time></trkpt><trkpt lat="45.59738383967305" lon="10.74451249423719"><ele>250.0</ele><time>2026-04-26T07:52:04.999Z</time></trkpt><trkpt lat="45.59740445485082" lon="10.744623030739046"><ele>249.5</ele><time>2026-04-26T07:52:05.999Z</time></trkpt><trkpt lat="45.597421547829256" lon="10.744753024154614"><ele>249.0</ele><time>2026-04-26T07:52:06.999Z</time></trkpt><trkpt lat="45.597427469061856" lon="10.744877477604694"><ele>248.39999999999998</ele><time>2026-04-26T07:52:07.999Z</time></trkpt><trkpt lat="45.59742249606811" lon="10.744994902121968"><ele>247.79999999999998</ele><time>2026-04-26T07:52:08.999Z</time></trkpt><trkpt lat="45.59740978746745" lon="10.745113601412031"><ele>247.20000000000002</ele><time>2026-04-26T07:52:09.999Z</time></trkpt><trkpt lat="45.5973853115755" lon="10.745254459232683"><ele>246.60000000000002</ele><time>2026-04-26T07:52:10.999Z</time></trkpt><trkpt lat="45.59735636691452" lon="10.745397037223958"><ele>246.0</ele><time>2026-04-26T07:52:11.999Z</time></trkpt><trkpt lat="45.59732973894293" lon="10.745509212100684"><ele>245.4</ele><time>2026-04-26T07:52:12.999Z</time></trkpt><trkpt lat="45.59730564305337" lon="10.74562468302798"><ele>244.8</ele><time>2026-04-26T07:52:13.999Z</time></trkpt><trkpt lat="45.59727577258791" lon="10.745767248777687"><ele>244.20000000000002</ele><time>2026-04-26T07:52:14.999Z</time></trkpt><trkpt lat="45.59725812949506" lon="10.745889981872816"><ele>243.60000000000002</ele><time>2026-04-26T07:52:15.999Z</time></trkpt><trkpt lat="45.59725260754134" lon="10.746002804966087"><ele>243.0</ele><time>2026-04-26T07:52:16.999Z</time></trkpt><trkpt lat="45.59724328869709" lon="10.746194777709661"><ele>243.0</ele><time>2026-04-26T07:52:18.999Z</time></trkpt><trkpt lat="45.59724716826178" lon="10.746292203436946"><ele>243.0</ele><time>2026-04-26T07:52:19.999Z</time></trkpt><trkpt lat="45.597262999657445" lon="10.746380492075525"><ele>243.0</ele><time>2026-04-26T07:52:21.999Z</time></trkpt><trkpt lat="45.59726551532353" lon="10.746498472884191"><ele>243.0</ele><time>2026-04-26T07:52:25.999Z</time></trkpt><trkpt lat="45.597228700569495" lon="10.746580512607027"><ele>243.0</ele><time>2026-04-26T07:52:26.999Z</time></trkpt><trkpt lat="45.59718344753596" lon="10.746691986854591"><ele>243.0</ele><time>2026-04-26T07:52:27.999Z</time></trkpt><trkpt lat="45.59716190874577" lon="10.746831425511994"><ele>243.0</ele><time>2026-04-26T07:52:28.999Z</time></trkpt><trkpt lat="45.5971517252975" lon="10.746987798080825"><ele>243.0</ele><time>2026-04-26T07:52:29.999Z</time></trkpt><trkpt lat="45.597145089573615" lon="10.747129557564499"><ele>243.0</ele><time>2026-04-26T07:52:30.999Z</time></trkpt><trkpt lat="45.597133534008506" lon="10.74727433873762"><ele>243.0</ele><time>2026-04-26T07:52:31.999Z</time></trkpt><trkpt lat="45.597117450778136" lon="10.74741396249805"><ele>243.0</ele><time>2026-04-26T07:52:32.999Z</time></trkpt><trkpt lat="45.59710283657048" lon="10.74755740372607"><ele>243.0</ele><time>2026-04-26T07:52:33.999Z</time></trkpt><trkpt lat="45.59709379964598" lon="10.747687755343996"><ele>243.0</ele><time>2026-04-26T07:52:34.999Z</time></trkpt><trkpt lat="45.59708471066612" lon="10.74781719242773"><ele>243.0</ele><time>2026-04-26T07:52:35.999Z</time></trkpt><trkpt lat="45.59707350973986" lon="10.747943594310797"><ele>243.0</ele><time>2026-04-26T07:52:36.999Z</time></trkpt><trkpt lat="45.597066294241074" lon="10.748068393481082"><ele>243.0</ele><time>2026-04-26T07:52:37.999Z</time></trkpt><trkpt lat="45.59706170271358" lon="10.748188408731757"><ele>243.0</ele><time>2026-04-26T07:52:38.999Z</time></trkpt><trkpt lat="45.597053767975325" lon="10.748313764661066"><ele>243.0</ele><time>2026-04-26T07:52:39.999Z</time></trkpt><trkpt lat="45.59704134525416" lon="10.748428586292771"><ele>243.0</ele><time>2026-04-26T07:52:40.999Z</time></trkpt><trkpt lat="45.59701668308996" lon="10.74854851407272"><ele>243.0</ele><time>2026-04-26T07:52:41.999Z</time></trkpt><trkpt lat="45.59698526705394" lon="10.748656834398767"><ele>243.0</ele><time>2026-04-26T07:52:42.999Z</time></trkpt><trkpt lat="45.59694619674408" lon="10.748761803392892"><ele>243.0</ele><time>2026-04-26T07:52:43.999Z</time></trkpt><trkpt lat="45.596907629163155" lon="10.74885933012273"><ele>243.0</ele><time>2026-04-26T07:52:44.999Z</time></trkpt><trkpt lat="45.59686694612144" lon="10.748957494814633"><ele>242.0</ele><time>2026-04-26T07:52:45.999Z</time></trkpt><trkpt lat="45.596828759255196" lon="10.74906212240372"><ele>241.0</ele><time>2026-04-26T07:52:46.999Z</time></trkpt><trkpt lat="45.59680400531442" lon="10.749183104097618"><ele>240.0</ele><time>2026-04-26T07:52:47.999Z</time></trkpt><trkpt lat="45.596774368833174" lon="10.749309177866023"><ele>239.0</ele><time>2026-04-26T07:52:48.999Z</time></trkpt><trkpt lat="45.59674870971247" lon="10.749438328076739"><ele>238.0</ele><time>2026-04-26T07:52:49.999Z</time></trkpt><trkpt lat="45.59672189707553" lon="10.749569678595597"><ele>237.99999999999997</ele><time>2026-04-26T07:52:50.999Z</time></trkpt><trkpt lat="45.596693579860734" lon="10.749691990381281"><ele>238.0</ele><time>2026-04-26T07:52:51.999Z</time></trkpt><trkpt lat="45.59666003737224" lon="10.749804687801394"><ele>238.0</ele><time>2026-04-26T07:52:52.999Z</time></trkpt><trkpt lat="45.596619090857615" lon="10.749915073640853"><ele>238.0</ele><time>2026-04-26T07:52:53.999Z</time></trkpt><trkpt lat="45.59657642015399" lon="10.750027152685755"><ele>237.99999999999997</ele><time>2026-04-26T07:52:54.999Z</time></trkpt><trkpt lat="45.596533570479664" lon="10.750123337100751"><ele>238.0</ele><time>2026-04-26T07:52:55.999Z</time></trkpt><trkpt lat="45.59648982532183" lon="10.750238499256154"><ele>238.16666666666666</ele><time>2026-04-26T07:52:56.999Z</time></trkpt><trkpt lat="45.59644718718655" lon="10.75035096490182"><ele>238.33333333333331</ele><time>2026-04-26T07:52:57.999Z</time></trkpt><trkpt lat="45.596411826740265" lon="10.750450902036928"><ele>238.5</ele><time>2026-04-26T07:52:58.999Z</time></trkpt><trkpt lat="45.59638559252483" lon="10.75057021516428"><ele>238.66666666666669</ele><time>2026-04-26T07:52:59.999Z</time></trkpt><trkpt lat="45.596361866129484" lon="10.750675546502402"><ele>238.83333333333334</ele><time>2026-04-26T07:53:00.999Z</time></trkpt><trkpt lat="45.596336284619156" lon="10.750768382360775"><ele>239.0</ele><time>2026-04-26T07:53:01.999Z</time></trkpt><trkpt lat="45.59632015864706" lon="10.750860903637713"><ele>239.00000000000003</ele><time>2026-04-26T07:53:02.999Z</time></trkpt><trkpt lat="45.59631145131614" lon="10.750963188185553"><ele>239.0</ele><time>2026-04-26T07:53:03.999Z</time></trkpt><trkpt lat="45.59629497531861" lon="10.751077202075194"><ele>239.00000000000003</ele><time>2026-04-26T07:53:04.999Z</time></trkpt><trkpt lat="45.596275997156134" lon="10.75118030242523"><ele>239.00000000000003</ele><time>2026-04-26T07:53:05.999Z</time></trkpt><trkpt lat="45.59626009262581" lon="10.75126885810733"><ele>239.0</ele><time>2026-04-26T07:53:06.999Z</time></trkpt><trkpt lat="45.596247203021015" lon="10.751359865703682"><ele>239.00000000000003</ele><time>2026-04-26T07:53:07.999Z</time></trkpt><trkpt lat="45.59623114631722" lon="10.751447413946858"><ele>239.00000000000003</ele><time>2026-04-26T07:53:08.999Z</time></trkpt><trkpt lat="45.59619681813453" lon="10.751562730853372"><ele>237.83333333333334</ele><time>2026-04-26T07:53:10.999Z</time></trkpt><trkpt lat="45.59613842890997" lon="10.751672649573988"><ele>236.66666666666669</ele><time>2026-04-26T07:53:13Z</time></trkpt><trkpt lat="45.59610471211684" lon="10.751751630433514"><ele>235.5</ele><time>2026-04-26T07:53:14Z</time></trkpt><trkpt lat="45.59607443360659" lon="10.751845167952162"><ele>234.33333333333331</ele><time>2026-04-26T07:53:15Z</time></trkpt><trkpt lat="45.596043366166775" lon="10.751941680151862"><ele>233.16666666666666</ele><time>2026-04-26T07:53:16Z</time></trkpt><trkpt lat="45.59600844902082" lon="10.752034543257508"><ele>232.0</ele><time>2026-04-26T07:53:17Z</time></trkpt><trkpt lat="45.595967871369886" lon="10.752118045607421"><ele>231.99999999999997</ele><time>2026-04-26T07:53:18Z</time></trkpt><trkpt lat="45.59591413395661" lon="10.752203689889207"><ele>232.0</ele><time>2026-04-26T07:53:19Z</time></trkpt><trkpt lat="45.59586068652566" lon="10.752268141585475"><ele>232.0</ele><time>2026-04-26T07:53:20Z</time></trkpt><trkpt lat="45.59580482270478" lon="10.752336003452108"><ele>232.0</ele><time>2026-04-26T07:53:21Z</time></trkpt><trkpt lat="45.595758408905226" lon="10.752396784853932"><ele>231.99999999999997</ele><time>2026-04-26T07:53:22Z</time></trkpt><trkpt lat="45.59566632250837" lon="10.752522306785796"><ele>232.0</ele><time>2026-04-26T07:53:24Z</time></trkpt><trkpt lat="45.59559939641539" lon="10.752599274736966"><ele>232.39999999999998</ele><time>2026-04-26T07:53:26Z</time></trkpt><trkpt lat="45.59563485571525" lon="10.752763985229548"><ele>232.79999999999998</ele><time>2026-04-26T07:53:35Z</time></trkpt><trkpt lat="45.59570057778921" lon="10.752814604768812"><ele>233.2</ele><time>2026-04-26T07:53:36Z</time></trkpt><trkpt lat="45.59575791855537" lon="10.752855449630564"><ele>233.6</ele><time>2026-04-26T07:53:37Z</time></trkpt><trkpt lat="45.59582930003488" lon="10.752961617209598"><ele>234.0</ele><time>2026-04-26T07:53:39Z</time></trkpt><trkpt lat="45.595789751065865" lon="10.753089463338096"><ele>234.0</ele><time>2026-04-26T07:53:41Z</time></trkpt><trkpt lat="45.595723773039396" lon="10.753094549993364"><ele>234.0</ele><time>2026-04-26T07:53:42Z</time></trkpt><trkpt lat="45.5956606969054" lon="10.75313637474545"><ele>234.0</ele><time>2026-04-26T07:53:43Z</time></trkpt><trkpt lat="45.59558853457851" lon="10.753147010675773"><ele>234.0</ele><time>2026-04-26T07:53:44Z</time></trkpt><trkpt lat="45.59547673314949" lon="10.753186711869327"><ele>234.0</ele><time>2026-04-26T07:53:46Z</time></trkpt><trkpt lat="45.59537178885578" lon="10.75321611373756"><ele>234.0</ele><time>2026-04-26T07:53:48Z</time></trkpt><trkpt lat="45.59526953356219" lon="10.753271350538355"><ele>232.83333333333334</ele><time>2026-04-26T07:53:50Z</time></trkpt><trkpt lat="45.595180984216626" lon="10.753318617482952"><ele>231.66666666666669</ele><time>2026-04-26T07:53:52Z</time></trkpt><trkpt lat="45.595112873877746" lon="10.753376656308166"><ele>230.5</ele><time>2026-04-26T07:53:54Z</time></trkpt><trkpt lat="45.595042659471794" lon="10.753434345634854"><ele>229.33333333333334</ele><time>2026-04-26T07:53:56Z</time></trkpt><trkpt lat="45.59493837406958" lon="10.753527551495722"><ele>228.16666666666669</ele><time>2026-04-26T07:53:58Z</time></trkpt><trkpt lat="45.59487703986053" lon="10.753573356761487"><ele>227.0</ele><time>2026-04-26T07:53:59Z</time></trkpt><trkpt lat="45.59478453232735" lon="10.75364064390781"><ele>227.0</ele><time>2026-04-26T07:54:01Z</time></trkpt><trkpt lat="45.59472158459188" lon="10.75368356644104"><ele>227.0</ele><time>2026-04-26T07:54:03Z</time></trkpt><trkpt lat="45.594783672717554" lon="10.7536427171045"><ele>227.0</ele><time>2026-04-26T07:55:56Z</time></trkpt><trkpt lat="45.59488223549976" lon="10.75356984884581"><ele>227.0</ele><time>2026-04-26T07:55:57Z</time></trkpt><trkpt lat="45.59502264040503" lon="10.753460686945806"><ele>227.0</ele><time>2026-04-26T07:55:58Z</time></trkpt><trkpt lat="45.595104101509506" lon="10.753396395191798"><ele>227.0</ele><time>2026-04-26T07:55:59Z</time></trkpt><trkpt lat="45.59517940853438" lon="10.753336789956215"><ele>227.0</ele><time>2026-04-26T07:56:00Z</time></trkpt><trkpt lat="45.59525356898993" lon="10.75333324765343"><ele>227.0</ele><time>2026-04-26T07:56:01Z</time></trkpt><trkpt lat="45.595322960722434" lon="10.753294658663334"><ele>227.0</ele><time>2026-04-26T07:56:03Z</time></trkpt><trkpt lat="45.595137994269564" lon="10.753372811564892"><ele>227.0</ele><time>2026-04-26T07:56:50Z</time></trkpt><trkpt lat="45.59506590982329" lon="10.753440854202474"><ele>227.0</ele><time>2026-04-26T07:56:51Z</time></trkpt><trkpt lat="45.59495051398131" lon="10.753541844140562"><ele>227.0</ele><time>2026-04-26T07:56:52Z</time></trkpt><trkpt lat="45.59482527146795" lon="10.753641022421933"><ele>227.0</ele><time>2026-04-26T07:56:53Z</time></trkpt><trkpt lat="45.594685997685325" lon="10.753742942409684"><ele>227.0</ele><time>2026-04-26T07:56:54Z</time></trkpt><trkpt lat="45.59454544209106" lon="10.753845863030428"><ele>226.33333333333334</ele><time>2026-04-26T07:56:55Z</time></trkpt><trkpt lat="45.59441447442362" lon="10.75394726246193"><ele>225.66666666666669</ele><time>2026-04-26T07:56:56Z</time></trkpt><trkpt lat="45.59428361847544" lon="10.754051189296698"><ele>225.0</ele><time>2026-04-26T07:56:57Z</time></trkpt><trkpt lat="45.594145890712454" lon="10.754158492330534"><ele>225.0</ele><time>2026-04-26T07:56:58Z</time></trkpt><trkpt lat="45.59401348388737" lon="10.754268681642298"><ele>225.0</ele><time>2026-04-26T07:56:59Z</time></trkpt><trkpt lat="45.593850933764955" lon="10.75439402745569"><ele>225.0</ele><time>2026-04-26T07:57:00Z</time></trkpt><trkpt lat="45.59368338355569" lon="10.75452001983061"><ele>223.66666666666669</ele><time>2026-04-26T07:57:01Z</time></trkpt><trkpt lat="45.593512492144505" lon="10.75465230860609"><ele>222.33333333333334</ele><time>2026-04-26T07:57:02Z</time></trkpt><trkpt lat="45.59336266708792" lon="10.754773109932204"><ele>221.0</ele><time>2026-04-26T07:57:03Z</time></trkpt><trkpt lat="45.59322468677639" lon="10.754883217279152"><ele>221.0</ele><time>2026-04-26T07:57:04Z</time></trkpt><trkpt lat="45.59309219977634" lon="10.754982983298703"><ele>221.0</ele><time>2026-04-26T07:57:05Z</time></trkpt><trkpt lat="45.592970285020606" lon="10.755076612737776"><ele>221.0</ele><time>2026-04-26T07:57:06Z</time></trkpt><trkpt lat="45.59285641247308" lon="10.755162430439416"><ele>221.0</ele><time>2026-04-26T07:57:07Z</time></trkpt><trkpt lat="45.59274904192414" lon="10.755245116465103"><ele>219.75</ele><time>2026-04-26T07:57:07.999Z</time></trkpt><trkpt lat="45.592649063268574" lon="10.755324941616854"><ele>218.5</ele><time>2026-04-26T07:57:08.999Z</time></trkpt><trkpt lat="45.59255097459016" lon="10.75540562990768"><ele>217.25</ele><time>2026-04-26T07:57:09.999Z</time></trkpt><trkpt lat="45.59242768917199" lon="10.755504997794251"><ele>216.0</ele><time>2026-04-26T07:57:10.999Z</time></trkpt><trkpt lat="45.59228033778709" lon="10.75561874954098"><ele>216.0</ele><time>2026-04-26T07:57:11.999Z</time></trkpt><trkpt lat="45.59210861747549" lon="10.755749913309156"><ele>216.0</ele><time>2026-04-26T07:57:12.999Z</time></trkpt><trkpt lat="45.59191466113052" lon="10.755893363370634"><ele>216.0</ele><time>2026-04-26T07:57:13.999Z</time></trkpt><trkpt lat="45.5917411012852" lon="10.756029235015841"><ele>216.0</ele><time>2026-04-26T07:57:14.999Z</time></trkpt><trkpt lat="45.591588599891395" lon="10.75615527615023"><ele>216.0</ele><time>2026-04-26T07:57:15.999Z</time></trkpt><trkpt lat="45.59144809529942" lon="10.756264198415405"><ele>216.0</ele><time>2026-04-26T07:57:16.999Z</time></trkpt><trkpt lat="45.59131737105509" lon="10.756361210918431"><ele>216.0</ele><time>2026-04-26T07:57:17.999Z</time></trkpt><trkpt lat="45.591196625369996" lon="10.756441408795467"><ele>216.0</ele><time>2026-04-26T07:57:18.999Z</time></trkpt><trkpt lat="45.59108678085918" lon="10.756523469239914"><ele>216.0</ele><time>2026-04-26T07:57:19.999Z</time></trkpt><trkpt lat="45.59098958285526" lon="10.75660445505457"><ele>216.0</ele><time>2026-04-26T07:57:20.999Z</time></trkpt><trkpt lat="45.59090336164298" lon="10.756675146188481"><ele>215.8</ele><time>2026-04-26T07:57:21.999Z</time></trkpt><trkpt lat="45.59081359583859" lon="10.75673688354457"><ele>215.60000000000002</ele><time>2026-04-26T07:57:22.999Z</time></trkpt><trkpt lat="45.59070974921298" lon="10.756780219344833"><ele>215.4</ele><time>2026-04-26T07:57:24.001Z</time></trkpt><trkpt lat="45.590619113050366" lon="10.756836033726493"><ele>215.2</ele><time>2026-04-26T07:57:25.001Z</time></trkpt><trkpt lat="45.59054385702953" lon="10.756886921527629"><ele>215.0</ele><time>2026-04-26T07:57:26.001Z</time></trkpt><trkpt lat="45.59046848982517" lon="10.756938157013604"><ele>215.0</ele><time>2026-04-26T07:57:27.001Z</time></trkpt><trkpt lat="45.59041372987292" lon="10.757001631194449"><ele>215.0</ele><time>2026-04-26T07:57:29.001Z</time></trkpt><trkpt lat="45.59055711694261" lon="10.757125905758942"><ele>215.0</ele><time>2026-04-26T07:57:30.001Z</time></trkpt><trkpt lat="45.590632823760394" lon="10.757309768106776"><ele>215.0</ele><time>2026-04-26T07:57:31.001Z</time></trkpt><trkpt lat="45.590738334799035" lon="10.757463065034967"><ele>215.0</ele><time>2026-04-26T07:57:32.001Z</time></trkpt><trkpt lat="45.59082161680458" lon="10.757654121038872"><ele>215.0</ele><time>2026-04-26T07:57:33.001Z</time></trkpt><trkpt lat="45.59090545847386" lon="10.75789583904044"><ele>215.0</ele><time>2026-04-26T07:57:34.001Z</time></trkpt><trkpt lat="45.59098028271033" lon="10.75810529624491"><ele>214.66666666666669</ele><time>2026-04-26T07:57:35.001Z</time></trkpt><trkpt lat="45.59106770501979" lon="10.7583249248872"><ele>214.33333333333331</ele><time>2026-04-26T07:57:36.001Z</time></trkpt><trkpt lat="45.59115758850423" lon="10.758563528066635"><ele>214.0</ele><time>2026-04-26T07:57:37.001Z</time></trkpt><trkpt lat="45.591246969149594" lon="10.758804617501418"><ele>214.0</ele><time>2026-04-26T07:57:38.001Z</time></trkpt><trkpt lat="45.591337655257895" lon="10.759036608629563"><ele>214.0</ele><time>2026-04-26T07:57:39.001Z</time></trkpt><trkpt lat="45.591432656310005" lon="10.759276882834895"><ele>214.0</ele><time>2026-04-26T07:57:40.001Z</time></trkpt><trkpt lat="45.591530472952996" lon="10.759536343731577"><ele>214.0</ele><time>2026-04-26T07:57:41.001Z</time></trkpt><trkpt lat="45.59163735765793" lon="10.759830100799258"><ele>214.0</ele><time>2026-04-26T07:57:42.001Z</time></trkpt><trkpt lat="45.59175652738522" lon="10.760147475159435"><ele>214.0</ele><time>2026-04-26T07:57:43.001Z</time></trkpt><trkpt lat="45.591886128499524" lon="10.760484614641593"><ele>214.0</ele><time>2026-04-26T07:57:44.001Z</time></trkpt><trkpt lat="45.592003759132716" lon="10.760780951139944"><ele>214.0</ele><time>2026-04-26T07:57:45.001Z</time></trkpt><trkpt lat="45.59210285833147" lon="10.761052006022107"><ele>214.0</ele><time>2026-04-26T07:57:46.001Z</time></trkpt><trkpt lat="45.59219687400751" lon="10.761300002632616"><ele>214.0</ele><time>2026-04-26T07:57:47.001Z</time></trkpt><trkpt lat="45.592291025440964" lon="10.761532756489261"><ele>214.0</ele><time>2026-04-26T07:57:48.001Z</time></trkpt><trkpt lat="45.592383147193665" lon="10.761779188457725"><ele>214.0</ele><time>2026-04-26T07:57:49.001Z</time></trkpt><trkpt lat="45.59248095824988" lon="10.762043499805545"><ele>214.0</ele><time>2026-04-26T07:57:49.999Z</time></trkpt><trkpt lat="45.592586713609535" lon="10.762326451511619"><ele>214.0</ele><time>2026-04-26T07:57:50.999Z</time></trkpt><trkpt lat="45.59267948639277" lon="10.76257115943118"><ele>214.0</ele><time>2026-04-26T07:57:51.999Z</time></trkpt><trkpt lat="45.5927638593621" lon="10.762794702805138"><ele>214.0</ele><time>2026-04-26T07:57:52.999Z</time></trkpt><trkpt lat="45.59283986913019" lon="10.762994672938092"><ele>214.5</ele><time>2026-04-26T07:57:53.999Z</time></trkpt><trkpt lat="45.59291427348882" lon="10.763173019233347"><ele>215.0</ele><time>2026-04-26T07:57:54.999Z</time></trkpt><trkpt lat="45.592982547066136" lon="10.763342289810772"><ele>215.5</ele><time>2026-04-26T07:57:55.999Z</time></trkpt><trkpt lat="45.593040780565694" lon="10.763497995571187"><ele>216.0</ele><time>2026-04-26T07:57:56.999Z</time></trkpt><trkpt lat="45.593091957985756" lon="10.763635884251377"><ele>216.0</ele><time>2026-04-26T07:57:57.999Z</time></trkpt><trkpt lat="45.593133399660424" lon="10.763744079717341"><ele>216.0</ele><time>2026-04-26T07:57:58.999Z</time></trkpt><trkpt lat="45.59316692977365" lon="10.763872394412724"><ele>216.0</ele><time>2026-04-26T07:58:00.999Z</time></trkpt><trkpt lat="45.59307203374356" lon="10.763934952811525"><ele>216.0</ele><time>2026-04-26T07:58:02.999Z</time></trkpt><trkpt lat="45.59301295418487" lon="10.763986901989881"><ele>216.0</ele><time>2026-04-26T07:58:03.999Z</time></trkpt><trkpt lat="45.5929445733297" lon="10.7640645863454"><ele>216.0</ele><time>2026-04-26T07:58:04.999Z</time></trkpt><trkpt lat="45.5928645898289" lon="10.764147570589605"><ele>216.0</ele><time>2026-04-26T07:58:05.999Z</time></trkpt><trkpt lat="45.59278920410443" lon="10.76423025007884"><ele>216.0</ele><time>2026-04-26T07:58:06.999Z</time></trkpt><trkpt lat="45.59273488337507" lon="10.764312784060351"><ele>216.0</ele><time>2026-04-26T07:58:07.999Z</time></trkpt><trkpt lat="45.592677182334356" lon="10.764426363394582"><ele>216.0</ele><time>2026-04-26T07:58:08.999Z</time></trkpt><trkpt lat="45.592631919878976" lon="10.764522625607814"><ele>216.0</ele><time>2026-04-26T07:58:09.999Z</time></trkpt><trkpt lat="45.59258535451369" lon="10.764607429026873"><ele>216.0</ele><time>2026-04-26T07:58:11.999Z</time></trkpt><trkpt lat="45.59259586283992" lon="10.764752209670469"><ele>216.0</ele><time>2026-04-26T07:58:13.999Z</time></trkpt><trkpt lat="45.59260899561782" lon="10.764844977692748"><ele>216.00000000000003</ele><time>2026-04-26T07:58:14.999Z</time></trkpt><trkpt lat="45.59256789022529" lon="10.765010001332113"><ele>216.00000000000003</ele><time>2026-04-26T07:58:16.999Z</time></trkpt><trkpt lat="45.59250216964578" lon="10.7651267690075"><ele>216.0</ele><time>2026-04-26T07:58:17.999Z</time></trkpt><trkpt lat="45.59241916116588" lon="10.765261750187102"><ele>216.0</ele><time>2026-04-26T07:58:18.999Z</time></trkpt><trkpt lat="45.59232821635045" lon="10.765407615694656"><ele>216.0</ele><time>2026-04-26T07:58:19.999Z</time></trkpt><trkpt lat="45.59225241148918" lon="10.765515515803749"><ele>216.0</ele><time>2026-04-26T07:58:20.999Z</time></trkpt><trkpt lat="45.59216890132838" lon="10.765632560727633"><ele>216.0</ele><time>2026-04-26T07:58:21.999Z</time></trkpt><trkpt lat="45.592094289337346" lon="10.765745497720587"><ele>216.0</ele><time>2026-04-26T07:58:22.999Z</time></trkpt><trkpt lat="45.59201734648838" lon="10.765895634347471"><ele>216.0</ele><time>2026-04-26T07:58:23.999Z</time></trkpt><trkpt lat="45.59193492177107" lon="10.766068428175243"><ele>216.0</ele><time>2026-04-26T07:58:24.999Z</time></trkpt><trkpt lat="45.5918671466433" lon="10.76620533274536"><ele>216.0</ele><time>2026-04-26T07:58:25.999Z</time></trkpt><trkpt lat="45.591819353085675" lon="10.766325584453947"><ele>216.0</ele><time>2026-04-26T07:58:26.999Z</time></trkpt><trkpt lat="45.59178049325216" lon="10.766440385734585"><ele>216.0</ele><time>2026-04-26T07:58:27.999Z</time></trkpt><trkpt lat="45.59173471942168" lon="10.766575606451566"><ele>216.00000000000003</ele><time>2026-04-26T07:58:28.999Z</time></trkpt><trkpt lat="45.591692868578214" lon="10.766705602045018"><ele>216.00000000000003</ele><time>2026-04-26T07:58:29.999Z</time></trkpt><trkpt lat="45.5916484304419" lon="10.766818466442622"><ele>216.0</ele><time>2026-04-26T07:58:30.999Z</time></trkpt><trkpt lat="45.5915998337355" lon="10.766929817266515"><ele>216.0</ele><time>2026-04-26T07:58:31.999Z</time></trkpt><trkpt lat="45.59155679965061" lon="10.767055916362613"><ele>216.20000000000002</ele><time>2026-04-26T07:58:32.999Z</time></trkpt><trkpt lat="45.591529359211535" lon="10.76719327063678"><ele>216.40000000000003</ele><time>2026-04-26T07:58:33.999Z</time></trkpt><trkpt lat="45.591517617680445" lon="10.767320401720019"><ele>216.6</ele><time>2026-04-26T07:58:34.999Z</time></trkpt><trkpt lat="45.59150886025926" lon="10.767455407897847"><ele>216.8</ele><time>2026-04-26T07:58:35.999Z</time></trkpt><trkpt lat="45.591493619500305" lon="10.767605586807106"><ele>217.0</ele><time>2026-04-26T07:58:36.999Z</time></trkpt><trkpt lat="45.59148739853613" lon="10.767752850322845"><ele>217.0</ele><time>2026-04-26T07:58:37.999Z</time></trkpt><trkpt lat="45.59149934248133" lon="10.767909578082081"><ele>217.0</ele><time>2026-04-26T07:58:38.999Z</time></trkpt><trkpt lat="45.59151769689011" lon="10.768070312850531"><ele>217.0</ele><time>2026-04-26T07:58:39.999Z</time></trkpt><trkpt lat="45.59153312058802" lon="10.768212093103772"><ele>217.0</ele><time>2026-04-26T07:58:40.999Z</time></trkpt><trkpt lat="45.5915460616282" lon="10.768329992046379"><ele>217.0</ele><time>2026-04-26T07:58:41.999Z</time></trkpt><trkpt lat="45.59157983238116" lon="10.768460629341623"><ele>217.0</ele><time>2026-04-26T07:58:42.999Z</time></trkpt><trkpt lat="45.59163245925016" lon="10.768621458630761"><ele>217.0</ele><time>2026-04-26T07:58:43.999Z</time></trkpt><trkpt lat="45.591691675342084" lon="10.76881194459048"><ele>217.0</ele><time>2026-04-26T07:58:44.999Z</time></trkpt><trkpt lat="45.5917365965502" lon="10.76897319878513"><ele>217.0</ele><time>2026-04-26T07:58:45.999Z</time></trkpt><trkpt lat="45.59176260849865" lon="10.769076843975812"><ele>217.0</ele><time>2026-04-26T07:58:46.999Z</time></trkpt><trkpt lat="45.591786491973274" lon="10.76917354592471"><ele>217.0</ele><time>2026-04-26T07:58:47.999Z</time></trkpt><trkpt lat="45.591836232425024" lon="10.769287192864264"><ele>217.0</ele><time>2026-04-26T07:58:48.999Z</time></trkpt><trkpt lat="45.59190021968154" lon="10.769408218256407"><ele>217.0</ele><time>2026-04-26T07:58:49.999Z</time></trkpt><trkpt lat="45.59195982445133" lon="10.76953380688498"><ele>217.0</ele><time>2026-04-26T07:58:50.999Z</time></trkpt><trkpt lat="45.592009584656594" lon="10.769651473992223"><ele>217.39999999999998</ele><time>2026-04-26T07:58:51.999Z</time></trkpt><trkpt lat="45.59206228606715" lon="10.769756616509309"><ele>217.79999999999998</ele><time>2026-04-26T07:58:52.999Z</time></trkpt><trkpt lat="45.59212547504489" lon="10.76985871726825"><ele>218.2</ele><time>2026-04-26T07:58:53.999Z</time></trkpt><trkpt lat="45.592192111371176" lon="10.769966166995204"><ele>218.6</ele><time>2026-04-26T07:58:54.999Z</time></trkpt><trkpt lat="45.59225298561877" lon="10.770078480326644"><ele>219.0</ele><time>2026-04-26T07:58:55.999Z</time></trkpt><trkpt lat="45.59230775242855" lon="10.770183718171047"><ele>219.0</ele><time>2026-04-26T07:58:56.999Z</time></trkpt><trkpt lat="45.592362630353406" lon="10.770290245205404"><ele>218.99999999999997</ele><time>2026-04-26T07:58:57.999Z</time></trkpt><trkpt lat="45.59241208459995" lon="10.770381234612168"><ele>218.99999999999997</ele><time>2026-04-26T07:58:58.999Z</time></trkpt><trkpt lat="45.59246838329446" lon="10.770487496072642"><ele>219.0</ele><time>2026-04-26T07:58:59.999Z</time></trkpt><trkpt lat="45.59253335087252" lon="10.770592751965577"><ele>219.0</ele><time>2026-04-26T07:59:00.999Z</time></trkpt><trkpt lat="45.592600446578516" lon="10.770676745401682"><ele>219.0</ele><time>2026-04-26T07:59:01.999Z</time></trkpt><trkpt lat="45.59267985413245" lon="10.770754902610726"><ele>218.99999999999997</ele><time>2026-04-26T07:59:02.999Z</time></trkpt><trkpt lat="45.592748557372985" lon="10.770833696914174"><ele>218.99999999999997</ele><time>2026-04-26T07:59:03.999Z</time></trkpt><trkpt lat="45.59281691677368" lon="10.770932012298678"><ele>219.0</ele><time>2026-04-26T07:59:04.999Z</time></trkpt><trkpt lat="45.59288368082051" lon="10.771043447484264"><ele>219.0</ele><time>2026-04-26T07:59:05.999Z</time></trkpt><trkpt lat="45.59293955552645" lon="10.771130232986051"><ele>219.2</ele><time>2026-04-26T07:59:06.999Z</time></trkpt><trkpt lat="45.59299129407904" lon="10.771200711173794"><ele>219.39999999999998</ele><time>2026-04-26T07:59:07.999Z</time></trkpt><trkpt lat="45.59305758730865" lon="10.771264544577656"><ele>219.6</ele><time>2026-04-26T07:59:08.999Z</time></trkpt><trkpt lat="45.59314315125364" lon="10.771329686295813"><ele>219.8</ele><time>2026-04-26T07:59:09.999Z</time></trkpt><trkpt lat="45.593246368700164" lon="10.771408925981914"><ele>220.0</ele><time>2026-04-26T07:59:10.999Z</time></trkpt><trkpt lat="45.593328686084206" lon="10.771506952453247"><ele>220.0</ele><time>2026-04-26T07:59:11.999Z</time></trkpt><trkpt lat="45.59341584791688" lon="10.771617798439564"><ele>220.0</ele><time>2026-04-26T07:59:12.999Z</time></trkpt><trkpt lat="45.59349722900843" lon="10.771740242457115"><ele>220.0</ele><time>2026-04-26T07:59:13.999Z</time></trkpt><trkpt lat="45.59356539417158" lon="10.771856044431557"><ele>220.0</ele><time>2026-04-26T07:59:14.999Z</time></trkpt><trkpt lat="45.593648572415134" lon="10.771964786461613"><ele>220.25</ele><time>2026-04-26T07:59:15.999Z</time></trkpt><trkpt lat="45.593731246139974" lon="10.772064080748589"><ele>220.5</ele><time>2026-04-26T07:59:16.999Z</time></trkpt><trkpt lat="45.593828392730565" lon="10.772148061867027"><ele>220.75</ele><time>2026-04-26T07:59:17.999Z</time></trkpt><trkpt lat="45.59394692770064" lon="10.772237451810703"><ele>221.0</ele><time>2026-04-26T07:59:18.999Z</time></trkpt><trkpt lat="45.594032769685505" lon="10.772319245305523"><ele>221.00000000000003</ele><time>2026-04-26T07:59:19.999Z</time></trkpt><trkpt lat="45.5941228618266" lon="10.772391752063314"><ele>221.0</ele><time>2026-04-26T07:59:20.999Z</time></trkpt><trkpt lat="45.594201298031166" lon="10.772458609932771"><ele>221.0</ele><time>2026-04-26T07:59:21.999Z</time></trkpt><trkpt lat="45.59426537994033" lon="10.772505611727267"><ele>221.0</ele><time>2026-04-26T07:59:22.999Z</time></trkpt><trkpt lat="45.594344655753375" lon="10.772554049416316"><ele>221.00000000000003</ele><time>2026-04-26T07:59:23.999Z</time></trkpt><trkpt lat="45.59441764441657" lon="10.772598776253211"><ele>221.0</ele><time>2026-04-26T07:59:24.999Z</time></trkpt><trkpt lat="45.59447715644431" lon="10.772638313188574"><ele>221.0</ele><time>2026-04-26T07:59:25.999Z</time></trkpt><trkpt lat="45.5945432103077" lon="10.772683795731002"><ele>221.00000000000003</ele><time>2026-04-26T07:59:26.999Z</time></trkpt><trkpt lat="45.594606560048945" lon="10.77273599218925"><ele>221.00000000000003</ele><time>2026-04-26T07:59:27.999Z</time></trkpt><trkpt lat="45.59466026607058" lon="10.772832874433979"><ele>221.0</ele><time>2026-04-26T07:59:28.999Z</time></trkpt><trkpt lat="45.59474465464004" lon="10.772919503788156"><ele>221.0</ele><time>2026-04-26T07:59:30Z</time></trkpt><trkpt lat="45.59484220773625" lon="10.77300755103958"><ele>221.5</ele><time>2026-04-26T07:59:31Z</time></trkpt><trkpt lat="45.59495429290366" lon="10.773086750333405"><ele>222.0</ele><time>2026-04-26T07:59:32Z</time></trkpt><trkpt lat="45.5950364517608" lon="10.773128625470685"><ele>222.5</ele><time>2026-04-26T07:59:33Z</time></trkpt><trkpt lat="45.59515746126507" lon="10.773157769550183"><ele>223.0</ele><time>2026-04-26T07:59:34Z</time></trkpt><trkpt lat="45.595269203533746" lon="10.77320104153944"><ele>222.8</ele><time>2026-04-26T07:59:35Z</time></trkpt><trkpt lat="45.59538874028284" lon="10.773251915607439"><ele>222.60000000000002</ele><time>2026-04-26T07:59:36Z</time></trkpt><trkpt lat="45.595507263831315" lon="10.773261909390152"><ele>222.39999999999998</ele><time>2026-04-26T07:59:37Z</time></trkpt><trkpt lat="45.59560802690463" lon="10.77325447680346"><ele>222.2</ele><time>2026-04-26T07:59:38Z</time></trkpt><trkpt lat="45.59569617337494" lon="10.773260903140972"><ele>222.0</ele><time>2026-04-26T07:59:39Z</time></trkpt><trkpt lat="45.595775245337656" lon="10.773274336847683"><ele>222.0</ele><time>2026-04-26T07:59:40Z</time></trkpt><trkpt lat="45.59584669426311" lon="10.773305553962606"><ele>222.0</ele><time>2026-04-26T07:59:41Z</time></trkpt><trkpt lat="45.59591744030533" lon="10.773361002713404"><ele>222.0</ele><time>2026-04-26T07:59:42Z</time></trkpt><trkpt lat="45.59598646424878" lon="10.773427237258524"><ele>222.0</ele><time>2026-04-26T07:59:43Z</time></trkpt><trkpt lat="45.59608049610404" lon="10.773518240237763"><ele>222.0</ele><time>2026-04-26T07:59:44Z</time></trkpt><trkpt lat="45.596168825796525" lon="10.77361484608713"><ele>222.33333333333334</ele><time>2026-04-26T07:59:45Z</time></trkpt><trkpt lat="45.59625582784075" lon="10.773681461683575"><ele>222.66666666666669</ele><time>2026-04-26T07:59:46Z</time></trkpt><trkpt lat="45.596331737697625" lon="10.773758383974638"><ele>223.0</ele><time>2026-04-26T07:59:47Z</time></trkpt><trkpt lat="45.596407399198114" lon="10.773825167569111"><ele>223.33333333333334</ele><time>2026-04-26T07:59:48Z</time></trkpt><trkpt lat="45.59647975164262" lon="10.77387947275093"><ele>223.66666666666669</ele><time>2026-04-26T07:59:49Z</time></trkpt><trkpt lat="45.59654251887783" lon="10.773925530391855"><ele>224.0</ele><time>2026-04-26T07:59:50Z</time></trkpt><trkpt lat="45.59661610554419" lon="10.773997090658884"><ele>224.0</ele><time>2026-04-26T07:59:52Z</time></trkpt><trkpt lat="45.596568380492236" lon="10.774065587847128"><ele>224.0</ele><time>2026-04-26T07:59:55Z</time></trkpt><trkpt lat="45.5965134527037" lon="10.774127951231105"><ele>224.0</ele><time>2026-04-26T07:59:56Z</time></trkpt><trkpt lat="45.596463404338124" lon="10.774184774492966"><ele>224.0</ele><time>2026-04-26T07:59:57Z</time></trkpt><trkpt lat="45.59641226723656" lon="10.774251094558915"><ele>224.0</ele><time>2026-04-26T07:59:58Z</time></trkpt><trkpt lat="45.59636118011914" lon="10.774320228450184"><ele>224.0</ele><time>2026-04-26T07:59:59Z</time></trkpt><trkpt lat="45.59630227745958" lon="10.774406784509882"><ele>224.0</ele><time>2026-04-26T08:00:00Z</time></trkpt><trkpt lat="45.59624302072669" lon="10.77452028928226"><ele>224.0</ele><time>2026-04-26T08:00:01Z</time></trkpt><trkpt lat="45.59617403114547" lon="10.77463190099124"><ele>223.99999999999997</ele><time>2026-04-26T08:00:02Z</time></trkpt><trkpt lat="45.59610423432966" lon="10.774753134028336"><ele>223.99999999999997</ele><time>2026-04-26T08:00:03Z</time></trkpt><trkpt lat="45.59603685444943" lon="10.774876501182185"><ele>224.0</ele><time>2026-04-26T08:00:04Z</time></trkpt><trkpt lat="45.595958386350816" lon="10.774997048365547"><ele>224.0</ele><time>2026-04-26T08:00:05Z</time></trkpt><trkpt lat="45.59586616255412" lon="10.775106975147287"><ele>224.66666666666669</ele><time>2026-04-26T08:00:06Z</time></trkpt><trkpt lat="45.59572540387743" lon="10.77519729189827"><ele>225.33333333333331</ele><time>2026-04-26T08:00:07Z</time></trkpt><trkpt lat="45.59556822122601" lon="10.775335181328465"><ele>226.0</ele><time>2026-04-26T08:00:08Z</time></trkpt><trkpt lat="45.59541121387074" lon="10.775454199905472"><ele>226.0</ele><time>2026-04-26T08:00:09Z</time></trkpt><trkpt lat="45.59527761419093" lon="10.775570325878439"><ele>226.0</ele><time>2026-04-26T08:00:10Z</time></trkpt><trkpt lat="45.595157563440864" lon="10.775680202179865"><ele>226.0</ele><time>2026-04-26T08:00:11Z</time></trkpt><trkpt lat="45.59504330015638" lon="10.775781500013602"><ele>226.0</ele><time>2026-04-26T08:00:12Z</time></trkpt><trkpt lat="45.59494485769482" lon="10.775877029092918"><ele>226.0</ele><time>2026-04-26T08:00:13Z</time></trkpt><trkpt lat="45.59485216388376" lon="10.77597429125726"><ele>226.0</ele><time>2026-04-26T08:00:14Z</time></trkpt><trkpt lat="45.594761667779935" lon="10.776074874786763"><ele>226.0</ele><time>2026-04-26T08:00:15Z</time></trkpt><trkpt lat="45.59466994107394" lon="10.776192154539462"><ele>226.0</ele><time>2026-04-26T08:00:16Z</time></trkpt><trkpt lat="45.59456619532878" lon="10.77629239056965"><ele>225.75</ele><time>2026-04-26T08:00:17Z</time></trkpt><trkpt lat="45.594471598103105" lon="10.77640725544979"><ele>225.5</ele><time>2026-04-26T08:00:18Z</time></trkpt><trkpt lat="45.594382565078746" lon="10.77652361887257"><ele>225.25</ele><time>2026-04-26T08:00:19Z</time></trkpt><trkpt lat="45.59428591606806" lon="10.77662856101869"><ele>225.0</ele><time>2026-04-26T08:00:20Z</time></trkpt><trkpt lat="45.5942127974732" lon="10.776737200156301"><ele>224.75</ele><time>2026-04-26T08:00:21Z</time></trkpt><trkpt lat="45.5941134707182" lon="10.776857483680852"><ele>224.5</ele><time>2026-04-26T08:00:22Z</time></trkpt><trkpt lat="45.59400014644558" lon="10.776990163480166"><ele>224.25</ele><time>2026-04-26T08:00:23Z</time></trkpt><trkpt lat="45.593878886252064" lon="10.777138829157044"><ele>224.0</ele><time>2026-04-26T08:00:24Z</time></trkpt><trkpt lat="45.593761963653456" lon="10.777289351537522"><ele>224.0</ele><time>2026-04-26T08:00:25Z</time></trkpt><trkpt lat="45.59363987657301" lon="10.777445055627947"><ele>224.0</ele><time>2026-04-26T08:00:26Z</time></trkpt><trkpt lat="45.59353220381063" lon="10.77757961276998"><ele>224.0</ele><time>2026-04-26T08:00:27Z</time></trkpt><trkpt lat="45.59342773295357" lon="10.777709159784454"><ele>224.0</ele><time>2026-04-26T08:00:28Z</time></trkpt><trkpt lat="45.59331709958644" lon="10.777836807010686"><ele>224.0</ele><time>2026-04-26T08:00:29Z</time></trkpt><trkpt lat="45.593188202107726" lon="10.777977833240898"><ele>224.0</ele><time>2026-04-26T08:00:30Z</time></trkpt><trkpt lat="45.593031970279846" lon="10.778146345039282"><ele>224.0</ele><time>2026-04-26T08:00:31Z</time></trkpt><trkpt lat="45.592883518480704" lon="10.778307783869067"><ele>223.75</ele><time>2026-04-26T08:00:32Z</time></trkpt><trkpt lat="45.59275988212645" lon="10.778453297225234"><ele>223.5</ele><time>2026-04-26T08:00:33Z</time></trkpt><trkpt lat="45.59264956673831" lon="10.778591230590912"><ele>223.25</ele><time>2026-04-26T08:00:34Z</time></trkpt><trkpt lat="45.59255355731167" lon="10.778725369562519"><ele>223.0</ele><time>2026-04-26T08:00:35Z</time></trkpt><trkpt lat="45.592467241216134" lon="10.77886114230438"><ele>223.60000000000002</ele><time>2026-04-26T08:00:36Z</time></trkpt><trkpt lat="45.59239848347868" lon="10.779003052315147"><ele>224.20000000000002</ele><time>2026-04-26T08:00:37Z</time></trkpt><trkpt lat="45.5923582566503" lon="10.779142558081968"><ele>224.8</ele><time>2026-04-26T08:00:37.999Z</time></trkpt><trkpt lat="45.59233282304836" lon="10.779277969989307"><ele>225.4</ele><time>2026-04-26T08:00:38.999Z</time></trkpt><trkpt lat="45.592310310494874" lon="10.779418616677896"><ele>226.0</ele><time>2026-04-26T08:00:39.999Z</time></trkpt><trkpt lat="45.59226660134598" lon="10.779582487246477"><ele>226.66666666666666</ele><time>2026-04-26T08:00:40.999Z</time></trkpt><trkpt lat="45.592172488341085" lon="10.779739156466794"><ele>227.33333333333331</ele><time>2026-04-26T08:00:41.999Z</time></trkpt><trkpt lat="45.59207574495609" lon="10.779925064997526"><ele>228.0</ele><time>2026-04-26T08:00:42.999Z</time></trkpt><trkpt lat="45.591967914962915" lon="10.78008886280293"><ele>229.2</ele><time>2026-04-26T08:00:43.999Z</time></trkpt><trkpt lat="45.591883857176256" lon="10.780224259631195"><ele>230.4</ele><time>2026-04-26T08:00:44.999Z</time></trkpt><trkpt lat="45.59180608352403" lon="10.780334615646577"><ele>231.59999999999997</ele><time>2026-04-26T08:00:45.999Z</time></trkpt><trkpt lat="45.591746920045374" lon="10.780445684462626"><ele>232.79999999999998</ele><time>2026-04-26T08:00:46.999Z</time></trkpt><trkpt lat="45.591696808769335" lon="10.780552604363251"><ele>234.0</ele><time>2026-04-26T08:00:47.999Z</time></trkpt><trkpt lat="45.59165668047586" lon="10.780644967678825"><ele>234.0</ele><time>2026-04-26T08:00:48.999Z</time></trkpt><trkpt lat="45.59163164869932" lon="10.780733056151403"><ele>234.0</ele><time>2026-04-26T08:00:49.999Z</time></trkpt><trkpt lat="45.591661441908585" lon="10.780878088385034"><ele>234.0</ele><time>2026-04-26T08:00:51.999Z</time></trkpt><trkpt lat="45.59163652162628" lon="10.780996418275574"><ele>234.0</ele><time>2026-04-26T08:00:53.999Z</time></trkpt><trkpt lat="45.591573246020914" lon="10.781118329829251"><ele>234.0</ele><time>2026-04-26T08:00:55.999Z</time></trkpt><trkpt lat="45.59154196009551" lon="10.781198422769128"><ele>234.0</ele><time>2026-04-26T08:00:56.999Z</time></trkpt><trkpt lat="45.59150838921129" lon="10.78129474793028"><ele>235.2</ele><time>2026-04-26T08:00:57.999Z</time></trkpt><trkpt lat="45.59147851710205" lon="10.7813886719786"><ele>236.39999999999998</ele><time>2026-04-26T08:00:58.999Z</time></trkpt><trkpt lat="45.591436178560365" lon="10.7815286998887"><ele>237.6</ele><time>2026-04-26T08:01:00.999Z</time></trkpt><trkpt lat="45.59142128524845" lon="10.781707285331333"><ele>238.8</ele><time>2026-04-26T08:01:02.999Z</time></trkpt><trkpt lat="45.59139956320308" lon="10.781809387665724"><ele>240.0</ele><time>2026-04-26T08:01:04.999Z</time></trkpt><trkpt lat="45.59137890818569" lon="10.781953934931552"><ele>240.83333333333334</ele><time>2026-04-26T08:01:05.999Z</time></trkpt><trkpt lat="45.591354084946055" lon="10.782047332809793"><ele>241.66666666666669</ele><time>2026-04-26T08:01:07.999Z</time></trkpt><trkpt lat="45.59124355767694" lon="10.782048092677565"><ele>242.5</ele><time>2026-04-26T08:01:10.999Z</time></trkpt><trkpt lat="45.59115608233714" lon="10.781963560587199"><ele>243.33333333333334</ele><time>2026-04-26T08:01:12.999Z</time></trkpt><trkpt lat="45.591085799884304" lon="10.781889970132008"><ele>244.16666666666669</ele><time>2026-04-26T08:01:13.999Z</time></trkpt><trkpt lat="45.59102573631814" lon="10.78182342900717"><ele>245.0</ele><time>2026-04-26T08:01:14.999Z</time></trkpt><trkpt lat="45.590955247716224" lon="10.781776259952839"><ele>245.33333333333334</ele><time>2026-04-26T08:01:15.999Z</time></trkpt><trkpt lat="45.590883227288536" lon="10.781670757411174"><ele>245.66666666666669</ele><time>2026-04-26T08:01:17.999Z</time></trkpt><trkpt lat="45.590824246207596" lon="10.781608338487064"><ele>246.0</ele><time>2026-04-26T08:01:19.999Z</time></trkpt><trkpt lat="45.590750160452046" lon="10.781527316890877"><ele>246.33333333333331</ele><time>2026-04-26T08:01:21.999Z</time></trkpt><trkpt lat="45.59069239685143" lon="10.781488481065484"><ele>246.66666666666666</ele><time>2026-04-26T08:01:22.999Z</time></trkpt><trkpt lat="45.590635502508235" lon="10.781428416981681"><ele>247.0</ele><time>2026-04-26T08:01:23.999Z</time></trkpt><trkpt lat="45.5905680096628" lon="10.781377117380552"><ele>246.99999999999997</ele><time>2026-04-26T08:01:24.999Z</time></trkpt><trkpt lat="45.59050413969744" lon="10.78129675560416"><ele>247.0</ele><time>2026-04-26T08:01:25.999Z</time></trkpt><trkpt lat="45.59044048037428" lon="10.78125332498084"><ele>247.0</ele><time>2026-04-26T08:01:26.999Z</time></trkpt><trkpt lat="45.590397383306566" lon="10.781182176503782"><ele>247.0</ele><time>2026-04-26T08:01:27.999Z</time></trkpt><trkpt lat="45.590341261286746" lon="10.781124780505158"><ele>246.99999999999997</ele><time>2026-04-26T08:01:28.999Z</time></trkpt><trkpt lat="45.59024100761859" lon="10.781025356231137"><ele>247.0</ele><time>2026-04-26T08:01:30.999Z</time></trkpt><trkpt lat="45.5901598575693" lon="10.780943238495423"><ele>246.8</ele><time>2026-04-26T08:01:32.999Z</time></trkpt><trkpt lat="45.59008429947999" lon="10.780890004560591"><ele>246.6</ele><time>2026-04-26T08:01:34.999Z</time></trkpt><trkpt lat="45.59001863571163" lon="10.780810161753918"><ele>246.40000000000003</ele><time>2026-04-26T08:01:38Z</time></trkpt><trkpt lat="45.58991989111859" lon="10.780959532313492"><ele>246.20000000000002</ele><time>2026-04-26T08:01:39Z</time></trkpt><trkpt lat="45.58985352935851" lon="10.781100306755695"><ele>246.0</ele><time>2026-04-26T08:01:41Z</time></trkpt><trkpt lat="45.58981282964339" lon="10.781181577723357"><ele>246.0</ele><time>2026-04-26T08:01:42Z</time></trkpt><trkpt lat="45.58978884085836" lon="10.781272478934993"><ele>246.0</ele><time>2026-04-26T08:01:43Z</time></trkpt><trkpt lat="45.589752807408" lon="10.781363825958215"><ele>246.0</ele><time>2026-04-26T08:01:44Z</time></trkpt><trkpt lat="45.58975257137411" lon="10.781457450028444"><ele>246.0</ele><time>2026-04-26T08:01:45Z</time></trkpt><trkpt lat="45.589725109554095" lon="10.781622680766572"><ele>246.0</ele><time>2026-04-26T08:01:47Z</time></trkpt><trkpt lat="45.58969963556379" lon="10.781792234921177"><ele>246.0</ele><time>2026-04-26T08:01:49Z</time></trkpt><trkpt lat="45.58967698902696" lon="10.781963642966128"><ele>246.25</ele><time>2026-04-26T08:01:51Z</time></trkpt><trkpt lat="45.58963796516101" lon="10.78212263302322"><ele>246.5</ele><time>2026-04-26T08:01:53Z</time></trkpt><trkpt lat="45.58958869123812" lon="10.782271597816619"><ele>246.75</ele><time>2026-04-26T08:01:55Z</time></trkpt><trkpt lat="45.589543142555115" lon="10.782431877355927"><ele>247.0</ele><time>2026-04-26T08:01:57Z</time></trkpt><trkpt lat="45.58949186326" lon="10.782570387329255"><ele>247.5</ele><time>2026-04-26T08:01:59Z</time></trkpt><trkpt lat="45.589390994399004" lon="10.782637767624818"><ele>248.0</ele><time>2026-04-26T08:05:32.999Z</time></trkpt><trkpt lat="45.58930850370206" lon="10.782593203694764"><ele>248.5</ele><time>2026-04-26T08:05:33.999Z</time></trkpt><trkpt lat="45.58918121416945" lon="10.782510805284177"><ele>249.0</ele><time>2026-04-26T08:05:34.999Z</time></trkpt><trkpt lat="45.58904030757858" lon="10.78240707211453"><ele>249.0</ele><time>2026-04-26T08:05:35.999Z</time></trkpt><trkpt lat="45.58887682809533" lon="10.782288653194565"><ele>249.0</ele><time>2026-04-26T08:05:36.999Z</time></trkpt><trkpt lat="45.58871503550061" lon="10.782160384309675"><ele>249.0</ele><time>2026-04-26T08:05:37.999Z</time></trkpt><trkpt lat="45.58854563483182" lon="10.782023099732204"><ele>247.66666666666669</ele><time>2026-04-26T08:05:38.999Z</time></trkpt><trkpt lat="45.58837101436529" lon="10.78188925332513"><ele>246.33333333333334</ele><time>2026-04-26T08:05:39.999Z</time></trkpt><trkpt lat="45.588193678251514" lon="10.781760734866673"><ele>245.0</ele><time>2026-04-26T08:05:40.999Z</time></trkpt><trkpt lat="45.588009824953964" lon="10.781625016786023"><ele>247.33333333333334</ele><time>2026-04-26T08:05:41.999Z</time></trkpt><trkpt lat="45.587827418133564" lon="10.781490548933071"><ele>249.66666666666669</ele><time>2026-04-26T08:05:42.999Z</time></trkpt><trkpt lat="45.58764278034308" lon="10.781352059018397"><ele>252.0</ele><time>2026-04-26T08:05:43.999Z</time></trkpt><trkpt lat="45.58744720315335" lon="10.781207086815035"><ele>252.0</ele><time>2026-04-26T08:05:44.999Z</time></trkpt><trkpt lat="45.58723936051304" lon="10.781051824336574"><ele>252.0</ele><time>2026-04-26T08:05:45.999Z</time></trkpt><trkpt lat="45.58701327330301" lon="10.780888408043355"><ele>250.0</ele><time>2026-04-26T08:05:47Z</time></trkpt><trkpt lat="45.586771887958236" lon="10.78071118450285"><ele>248.0</ele><time>2026-04-26T08:05:48Z</time></trkpt><trkpt lat="45.58653355097298" lon="10.78054370695184"><ele>248.0</ele><time>2026-04-26T08:05:49Z</time></trkpt><trkpt lat="45.586284932980384" lon="10.780365755566134"><ele>248.0</ele><time>2026-04-26T08:05:50Z</time></trkpt><trkpt lat="45.586054500666755" lon="10.780205379479211"><ele>246.5</ele><time>2026-04-26T08:05:51Z</time></trkpt><trkpt lat="45.58584339112755" lon="10.780058059064151"><ele>245.0</ele><time>2026-04-26T08:05:52Z</time></trkpt><trkpt lat="45.58563448614839" lon="10.779911778325808"><ele>245.0</ele><time>2026-04-26T08:05:53Z</time></trkpt><trkpt lat="45.585412002085256" lon="10.779758294750929"><ele>245.0</ele><time>2026-04-26T08:05:54Z</time></trkpt><trkpt lat="45.58518701855247" lon="10.779604553837817"><ele>245.5</ele><time>2026-04-26T08:05:55Z</time></trkpt><trkpt lat="45.5849651699035" lon="10.779454033649106"><ele>246.0</ele><time>2026-04-26T08:05:56Z</time></trkpt><trkpt lat="45.584749891520815" lon="10.779308357484437"><ele>245.0</ele><time>2026-04-26T08:05:57Z</time></trkpt><trkpt lat="45.5845451768194" lon="10.77916932337905"><ele>244.0</ele><time>2026-04-26T08:05:58Z</time></trkpt><trkpt lat="45.58435866413672" lon="10.779036544857757"><ele>243.0</ele><time>2026-04-26T08:05:59Z</time></trkpt><trkpt lat="45.584162696262375" lon="10.778888034274658"><ele>243.0</ele><time>2026-04-26T08:06:00Z</time></trkpt><trkpt lat="45.583977368863394" lon="10.7787228550846"><ele>243.0</ele><time>2026-04-26T08:06:01Z</time></trkpt><trkpt lat="45.58380128082005" lon="10.778536082393519"><ele>243.0</ele><time>2026-04-26T08:06:02Z</time></trkpt><trkpt lat="45.583649560764655" lon="10.778337167069813"><ele>240.75</ele><time>2026-04-26T08:06:03Z</time></trkpt><trkpt lat="45.583540805641576" lon="10.778166672632057"><ele>238.5</ele><time>2026-04-26T08:06:04Z</time></trkpt><trkpt lat="45.58345256906492" lon="10.778023118370193"><ele>236.25</ele><time>2026-04-26T08:06:05Z</time></trkpt><trkpt lat="45.58339580034437" lon="10.777924112198424"><ele>234.0</ele><time>2026-04-26T08:06:06Z</time></trkpt><trkpt lat="45.583349460512274" lon="10.777841670983294"><ele>234.0</ele><time>2026-04-26T08:06:07Z</time></trkpt><trkpt lat="45.583236548142196" lon="10.777913088961029"><ele>233.99999999999997</ele><time>2026-04-26T08:06:12Z</time></trkpt><trkpt lat="45.58319266457839" lon="10.77811508305132"><ele>233.99999999999997</ele><time>2026-04-26T08:06:14Z</time></trkpt><trkpt lat="45.583171003293764" lon="10.778242635370985"><ele>234.0</ele><time>2026-04-26T08:06:15Z</time></trkpt><trkpt lat="45.583162007422914" lon="10.778358090368654"><ele>234.0</ele><time>2026-04-26T08:06:16Z</time></trkpt><trkpt lat="45.58314695443903" lon="10.778481951293681"><ele>234.66666666666669</ele><time>2026-04-26T08:06:17Z</time></trkpt><trkpt lat="45.58311667965242" lon="10.778572803859976"><ele>235.33333333333334</ele><time>2026-04-26T08:06:18Z</time></trkpt><trkpt lat="45.5830378262614" lon="10.7790692140403"><ele>236.0</ele><time>2026-04-26T08:06:20Z</time></trkpt><trkpt lat="45.582999276630346" lon="10.77930812489203"><ele>237.5</ele><time>2026-04-26T08:06:21Z</time></trkpt><trkpt lat="45.58297463126176" lon="10.77951493169927"><ele>239.0</ele><time>2026-04-26T08:06:22Z</time></trkpt><trkpt lat="45.58295269512119" lon="10.779709707342601"><ele>240.5</ele><time>2026-04-26T08:06:23Z</time></trkpt><trkpt lat="45.58292704583587" lon="10.779860081495597"><ele>242.0</ele><time>2026-04-26T08:06:24Z</time></trkpt><trkpt lat="45.58290592781" lon="10.779988028304011"><ele>242.00000000000003</ele><time>2026-04-26T08:06:25Z</time></trkpt><trkpt lat="45.582886709246566" lon="10.780099910327612"><ele>242.0</ele><time>2026-04-26T08:06:26Z</time></trkpt><trkpt lat="45.582870929599444" lon="10.780221663843305"><ele>242.0</ele><time>2026-04-26T08:06:27Z</time></trkpt><trkpt lat="45.58286840680516" lon="10.780368445302916"><ele>242.0</ele><time>2026-04-26T08:06:29Z</time></trkpt><trkpt lat="45.58292494570174" lon="10.780421575576462"><ele>242.00000000000003</ele><time>2026-04-26T08:06:31Z</time></trkpt><trkpt lat="45.583031543734016" lon="10.78038371785961"><ele>242.0</ele><time>2026-04-26T08:06:34Z</time></trkpt><trkpt lat="45.58309712777393" lon="10.780407116153695"><ele>242.00000000000003</ele><time>2026-04-26T08:06:36Z</time></trkpt><trkpt lat="45.583138709906684" lon="10.780527140140508"><ele>242.0</ele><time>2026-04-26T08:06:38Z</time></trkpt><trkpt lat="45.58314275254769" lon="10.780626087525155"><ele>242.0</ele><time>2026-04-26T08:06:39Z</time></trkpt><trkpt lat="45.583147506134175" lon="10.780732035170903"><ele>242.0</ele><time>2026-04-26T08:06:40Z</time></trkpt><trkpt lat="45.58317922726762" lon="10.780835948273296"><ele>242.00000000000003</ele><time>2026-04-26T08:06:41Z</time></trkpt><trkpt lat="45.583218156827904" lon="10.780954996259297"><ele>242.0</ele><time>2026-04-26T08:06:42Z</time></trkpt><trkpt lat="45.58326750120742" lon="10.781111527123477"><ele>242.0</ele><time>2026-04-26T08:06:43Z</time></trkpt><trkpt lat="45.58332769755059" lon="10.781269618904847"><ele>242.0</ele><time>2026-04-26T08:06:44Z</time></trkpt><trkpt lat="45.58340869434247" lon="10.78145864996339"><ele>242.0</ele><time>2026-04-26T08:06:45Z</time></trkpt><trkpt lat="45.583473770801824" lon="10.781636492656881"><ele>242.0</ele><time>2026-04-26T08:06:46Z</time></trkpt><trkpt lat="45.58353040186586" lon="10.781784723451365"><ele>242.6</ele><time>2026-04-26T08:06:46.999Z</time></trkpt><trkpt lat="45.58358031573428" lon="10.781905325826264"><ele>243.2</ele><time>2026-04-26T08:06:47.999Z</time></trkpt><trkpt lat="45.583629746147686" lon="10.782015157410465"><ele>243.8</ele><time>2026-04-26T08:06:48.999Z</time></trkpt><trkpt lat="45.58367792415318" lon="10.782110393982993"><ele>244.4</ele><time>2026-04-26T08:06:49.999Z</time></trkpt><trkpt lat="45.58372802514143" lon="10.78219414025877"><ele>245.0</ele><time>2026-04-26T08:06:50.999Z</time></trkpt><trkpt lat="45.58380846943483" lon="10.78228428857239"><ele>245.2</ele><time>2026-04-26T08:06:51.999Z</time></trkpt><trkpt lat="45.58389193861135" lon="10.782387648618156"><ele>245.4</ele><time>2026-04-26T08:06:52.999Z</time></trkpt><trkpt lat="45.58397382316989" lon="10.782465320234845"><ele>245.60000000000002</ele><time>2026-04-26T08:06:53.999Z</time></trkpt><trkpt lat="45.58407401485821" lon="10.782557227821759"><ele>245.8</ele><time>2026-04-26T08:06:54.999Z</time></trkpt><trkpt lat="45.58417440112727" lon="10.782648969402338"><ele>246.0</ele><time>2026-04-26T08:06:55.999Z</time></trkpt><trkpt lat="45.58425319978175" lon="10.782743667692127"><ele>245.5</ele><time>2026-04-26T08:06:56.999Z</time></trkpt><trkpt lat="45.58433489168999" lon="10.782853359706829"><ele>245.0</ele><time>2026-04-26T08:06:58.999Z</time></trkpt><trkpt lat="45.58439612803072" lon="10.782988001274036"><ele>244.5</ele><time>2026-04-26T08:07:00.999Z</time></trkpt><trkpt lat="45.584430098845765" lon="10.78306758505324"><ele>244.0</ele><time>2026-04-26T08:07:01.999Z</time></trkpt><trkpt lat="45.58445819765053" lon="10.783166645406244"><ele>243.5</ele><time>2026-04-26T08:07:02.999Z</time></trkpt><trkpt lat="45.58447532391239" lon="10.78328182091121"><ele>243.0</ele><time>2026-04-26T08:07:03.999Z</time></trkpt><trkpt lat="45.58447442241893" lon="10.7834341065897"><ele>243.5</ele><time>2026-04-26T08:07:04.999Z</time></trkpt><trkpt lat="45.58447844294764" lon="10.78359578265653"><ele>244.0</ele><time>2026-04-26T08:07:05.999Z</time></trkpt><trkpt lat="45.58448654897729" lon="10.78377823092051"><ele>244.5</ele><time>2026-04-26T08:07:06.999Z</time></trkpt><trkpt lat="45.58449865815498" lon="10.783967231543794"><ele>245.0</ele><time>2026-04-26T08:07:07.999Z</time></trkpt><trkpt lat="45.584506435057435" lon="10.784180951668183"><ele>246.6</ele><time>2026-04-26T08:07:08.999Z</time></trkpt><trkpt lat="45.58451249969709" lon="10.784386090888672"><ele>248.2</ele><time>2026-04-26T08:07:09.999Z</time></trkpt><trkpt lat="45.58451496589497" lon="10.78455712689142"><ele>249.8</ele><time>2026-04-26T08:07:10.999Z</time></trkpt><trkpt lat="45.584522457684635" lon="10.784680155972001"><ele>251.4</ele><time>2026-04-26T08:07:11.999Z</time></trkpt><trkpt lat="45.584522046931" lon="10.78479264288625"><ele>253.0</ele><time>2026-04-26T08:07:12.999Z</time></trkpt><trkpt lat="45.584536581200744" lon="10.784891557127066"><ele>252.99999999999997</ele><time>2026-04-26T08:07:13.999Z</time></trkpt><trkpt lat="45.584596177387716" lon="10.784947783214449"><ele>253.0</ele><time>2026-04-26T08:07:15.999Z</time></trkpt><trkpt lat="45.584663878508714" lon="10.784882699703857"><ele>253.0</ele><time>2026-04-26T08:07:17.999Z</time></trkpt><trkpt lat="45.5847371802866" lon="10.784824503603849"><ele>253.0</ele><time>2026-04-26T08:07:18.999Z</time></trkpt><trkpt lat="45.584806842803225" lon="10.784786395530881"><ele>252.99999999999997</ele><time>2026-04-26T08:07:19.999Z</time></trkpt><trkpt lat="45.584878665276186" lon="10.784740402831122"><ele>253.0</ele><time>2026-04-26T08:07:20.999Z</time></trkpt><trkpt lat="45.584915789097415" lon="10.784622298921542"><ele>253.0</ele><time>2026-04-26T08:07:22.999Z</time></trkpt><trkpt lat="45.584892822918526" lon="10.784519532798447"><ele>253.0</ele><time>2026-04-26T08:07:24.999Z</time></trkpt><trkpt lat="45.584880645849985" lon="10.78433180079052"><ele>253.0</ele><time>2026-04-26T08:07:26.999Z</time></trkpt><trkpt lat="45.584889466049844" lon="10.784216573634701"><ele>253.0</ele><time>2026-04-26T08:07:27.999Z</time></trkpt><trkpt lat="45.58489337514852" lon="10.784118537093157"><ele>253.0</ele><time>2026-04-26T08:07:28.999Z</time></trkpt><trkpt lat="45.58489619827297" lon="10.783979322969586"><ele>253.2</ele><time>2026-04-26T08:07:29.999Z</time></trkpt><trkpt lat="45.58490911266302" lon="10.783852534469924"><ele>253.4</ele><time>2026-04-26T08:07:30.999Z</time></trkpt><trkpt lat="45.584928944333825" lon="10.78370630305033"><ele>253.59999999999997</ele><time>2026-04-26T08:07:31.999Z</time></trkpt><trkpt lat="45.584952395334135" lon="10.783517342891058"><ele>253.79999999999998</ele><time>2026-04-26T08:07:32.999Z</time></trkpt><trkpt lat="45.58497556463681" lon="10.783380106344282"><ele>254.0</ele><time>2026-04-26T08:07:33.999Z</time></trkpt><trkpt lat="45.58498877876054" lon="10.783269705588207"><ele>254.0</ele><time>2026-04-26T08:07:34.999Z</time></trkpt><trkpt lat="45.58500730099226" lon="10.783131595828223"><ele>253.99999999999997</ele><time>2026-04-26T08:07:36.999Z</time></trkpt><trkpt lat="45.584984398847" lon="10.782942013719772"><ele>253.99999999999997</ele><time>2026-04-26T08:07:38.999Z</time></trkpt><trkpt lat="45.5849548194359" lon="10.782788694862836"><ele>254.0</ele><time>2026-04-26T08:07:40.999Z</time></trkpt><trkpt lat="45.58498263229625" lon="10.782670002303098"><ele>254.0</ele><time>2026-04-26T08:07:42.999Z</time></trkpt><trkpt lat="45.58505338837103" lon="10.78253720511469"><ele>254.50000000000003</ele><time>2026-04-26T08:07:44.999Z</time></trkpt><trkpt lat="45.5851035015246" lon="10.782461494127016"><ele>255.0</ele><time>2026-04-26T08:07:45.999Z</time></trkpt><trkpt lat="45.58516994035956" lon="10.782429144651518"><ele>255.5</ele><time>2026-04-26T08:07:47.999Z</time></trkpt><trkpt lat="45.58522886810958" lon="10.782470081535926"><ele>256.0</ele><time>2026-04-26T08:07:50.999Z</time></trkpt><trkpt lat="45.58528116988608" lon="10.782594261864446"><ele>256.5</ele><time>2026-04-26T08:08:02Z</time></trkpt><trkpt lat="45.585338966607665" lon="10.78266891694155"><ele>257.0</ele><time>2026-04-26T08:08:03Z</time></trkpt><trkpt lat="45.5854053813467" lon="10.782746890602887"><ele>257.8</ele><time>2026-04-26T08:08:04Z</time></trkpt><trkpt lat="45.58547836543828" lon="10.782819377639182"><ele>258.6</ele><time>2026-04-26T08:08:05Z</time></trkpt><trkpt lat="45.58554269719073" lon="10.782892704523961"><ele>259.40000000000003</ele><time>2026-04-26T08:08:06Z</time></trkpt><trkpt lat="45.58565974153644" lon="10.782980199675038"><ele>260.2</ele><time>2026-04-26T08:08:08Z</time></trkpt><trkpt lat="45.58575419751231" lon="10.783026999416697"><ele>261.0</ele><time>2026-04-26T08:08:09Z</time></trkpt><trkpt lat="45.585849491488794" lon="10.783069510443184"><ele>261.0</ele><time>2026-04-26T08:08:10Z</time></trkpt><trkpt lat="45.5859648422124" lon="10.783120155250158"><ele>261.0</ele><time>2026-04-26T08:08:11Z</time></trkpt><trkpt lat="45.586081145806084" lon="10.783163801754458"><ele>261.0</ele><time>2026-04-26T08:08:12Z</time></trkpt><trkpt lat="45.58620677215171" lon="10.783211555057585"><ele>261.0</ele><time>2026-04-26T08:08:13Z</time></trkpt><trkpt lat="45.586339310153456" lon="10.783263765681554"><ele>261.5</ele><time>2026-04-26T08:08:14Z</time></trkpt><trkpt lat="45.58646357917304" lon="10.783330179764476"><ele>262.0</ele><time>2026-04-26T08:08:15Z</time></trkpt><trkpt lat="45.58658215695551" lon="10.783412357729992"><ele>262.5</ele><time>2026-04-26T08:08:16Z</time></trkpt><trkpt lat="45.58671401329884" lon="10.78350300031127"><ele>263.0</ele><time>2026-04-26T08:08:17Z</time></trkpt><trkpt lat="45.58685229121109" lon="10.78359837664645"><ele>263.25</ele><time>2026-04-26T08:08:18Z</time></trkpt><trkpt lat="45.586999995567105" lon="10.783699690588213"><ele>263.5</ele><time>2026-04-26T08:08:19Z</time></trkpt><trkpt lat="45.587106515825944" lon="10.78377384703533"><ele>263.75</ele><time>2026-04-26T08:08:20Z</time></trkpt><trkpt lat="45.58721606126588" lon="10.783849617071079"><ele>264.0</ele><time>2026-04-26T08:08:21Z</time></trkpt><trkpt lat="45.58732593952641" lon="10.783927857030623"><ele>263.5</ele><time>2026-04-26T08:08:22Z</time></trkpt><trkpt lat="45.58744425650467" lon="10.783993864590228"><ele>263.0</ele><time>2026-04-26T08:08:23Z</time></trkpt><trkpt lat="45.587549600923865" lon="10.784031727861233"><ele>262.5</ele><time>2026-04-26T08:08:24Z</time></trkpt><trkpt lat="45.58767299243532" lon="10.78407552469573"><ele>262.0</ele><time>2026-04-26T08:08:25Z</time></trkpt><trkpt lat="45.5877837734501" lon="10.784120551537711"><ele>261.8</ele><time>2026-04-26T08:08:26Z</time></trkpt><trkpt lat="45.587909189485856" lon="10.784167664121663"><ele>261.6</ele><time>2026-04-26T08:08:27Z</time></trkpt><trkpt lat="45.58803669406966" lon="10.784235495696846"><ele>261.40000000000003</ele><time>2026-04-26T08:08:28Z</time></trkpt><trkpt lat="45.588101337955024" lon="10.784297352673232"><ele>261.2</ele><time>2026-04-26T08:08:29Z</time></trkpt><trkpt lat="45.588154258913676" lon="10.784347074148595"><ele>261.0</ele><time>2026-04-26T08:08:30Z</time></trkpt><trkpt lat="45.58824840268911" lon="10.784407900883732"><ele>261.0</ele><time>2026-04-26T08:08:31Z</time></trkpt><trkpt lat="45.58836436172602" lon="10.784500207802225"><ele>261.0</ele><time>2026-04-26T08:08:33Z</time></trkpt><trkpt lat="45.5884883927929" lon="10.784508921384317"><ele>261.0</ele><time>2026-04-26T08:08:35Z</time></trkpt><trkpt lat="45.588573090966115" lon="10.784517818214727"><ele>261.0</ele><time>2026-04-26T08:08:36Z</time></trkpt><trkpt lat="45.58865812435371" lon="10.784563124569527"><ele>261.0</ele><time>2026-04-26T08:08:37Z</time></trkpt><trkpt lat="45.58875315564093" lon="10.784687213881094"><ele>261.0</ele><time>2026-04-26T08:08:38Z</time></trkpt><trkpt lat="45.588885298187314" lon="10.784747505883848"><ele>261.0</ele><time>2026-04-26T08:08:39Z</time></trkpt><trkpt lat="45.58900813292133" lon="10.784863194460797"><ele>261.0</ele><time>2026-04-26T08:08:40Z</time></trkpt><trkpt lat="45.58911083605193" lon="10.785012462118495"><ele>261.0</ele><time>2026-04-26T08:08:41Z</time></trkpt><trkpt lat="45.58921108169471" lon="10.785135500378596"><ele>262.0</ele><time>2026-04-26T08:08:42Z</time></trkpt><trkpt lat="45.5893137975027" lon="10.785260704264353"><ele>263.0</ele><time>2026-04-26T08:08:43Z</time></trkpt><trkpt lat="45.58941272330193" lon="10.785358512724281"><ele>264.0</ele><time>2026-04-26T08:08:44Z</time></trkpt><trkpt lat="45.58951223291611" lon="10.785491026607954"><ele>265.0</ele><time>2026-04-26T08:08:45Z</time></trkpt><trkpt lat="45.589607792480415" lon="10.785616073632788"><ele>265.0</ele><time>2026-04-26T08:08:46Z</time></trkpt><trkpt lat="45.58969888567043" lon="10.785729956468378"><ele>265.0</ele><time>2026-04-26T08:08:47Z</time></trkpt><trkpt lat="45.58980103455939" lon="10.785830408061841"><ele>265.0</ele><time>2026-04-26T08:08:48Z</time></trkpt><trkpt lat="45.589903023816284" lon="10.785928053778274"><ele>265.0</ele><time>2026-04-26T08:08:49Z</time></trkpt><trkpt lat="45.590000475259416" lon="10.786040197313284"><ele>265.5</ele><time>2026-04-26T08:08:50Z</time></trkpt><trkpt lat="45.59011807042283" lon="10.786156392496313"><ele>266.0</ele><time>2026-04-26T08:08:51Z</time></trkpt><trkpt lat="45.59024849775083" lon="10.786291484265538"><ele>266.5</ele><time>2026-04-26T08:08:52Z</time></trkpt><trkpt lat="45.590319415327656" lon="10.786370297604595"><ele>267.0</ele><time>2026-04-26T08:08:53Z</time></trkpt><trkpt lat="45.59042867407518" lon="10.786499885242986"><ele>267.0</ele><time>2026-04-26T08:08:54Z</time></trkpt><trkpt lat="45.590557165508905" lon="10.786630602845094"><ele>267.0</ele><time>2026-04-26T08:08:55Z</time></trkpt><trkpt lat="45.590686298199294" lon="10.786786732158332"><ele>267.0</ele><time>2026-04-26T08:08:56Z</time></trkpt><trkpt lat="45.59079392810488" lon="10.786950454845677"><ele>269.0</ele><time>2026-04-26T08:08:57Z</time></trkpt><trkpt lat="45.59090860512219" lon="10.787100389155901"><ele>271.0</ele><time>2026-04-26T08:08:58Z</time></trkpt><trkpt lat="45.59102243300263" lon="10.7872482349734"><ele>273.0</ele><time>2026-04-26T08:08:59Z</time></trkpt><trkpt lat="45.59114343246381" lon="10.787398399895483"><ele>272.6666666666667</ele><time>2026-04-26T08:09:00Z</time></trkpt><trkpt lat="45.59125944931562" lon="10.787536662958834"><ele>272.33333333333337</ele><time>2026-04-26T08:09:01Z</time></trkpt><trkpt lat="45.59137291821108" lon="10.7876757381145"><ele>272.0</ele><time>2026-04-26T08:09:02Z</time></trkpt><trkpt lat="45.59148463279239" lon="10.787819505228"><ele>272.0</ele><time>2026-04-26T08:09:03Z</time></trkpt><trkpt lat="45.59159318657029" lon="10.78795724456068"><ele>272.0</ele><time>2026-04-26T08:09:04Z</time></trkpt><trkpt lat="45.59170731348793" lon="10.788084044891972"><ele>272.0</ele><time>2026-04-26T08:09:05Z</time></trkpt><trkpt lat="45.591812606495104" lon="10.78819495677796"><ele>272.0</ele><time>2026-04-26T08:09:06Z</time></trkpt><trkpt lat="45.59191270964911" lon="10.788299816322713"><ele>272.2</ele><time>2026-04-26T08:09:07Z</time></trkpt><trkpt lat="45.59201473215617" lon="10.788404397340528"><ele>272.4</ele><time>2026-04-26T08:09:08Z</time></trkpt><trkpt lat="45.59210488824814" lon="10.788496653880145"><ele>272.6</ele><time>2026-04-26T08:09:09Z</time></trkpt><trkpt lat="45.59216942299635" lon="10.788596427416028"><ele>272.8</ele><time>2026-04-26T08:09:10Z</time></trkpt><trkpt lat="45.59225239573742" lon="10.788671659660634"><ele>273.0</ele><time>2026-04-26T08:09:11Z</time></trkpt><trkpt lat="45.592313800694654" lon="10.788769424521668"><ele>273.0</ele><time>2026-04-26T08:09:12Z</time></trkpt><trkpt lat="45.59238493419588" lon="10.788853418428568"><ele>273.0</ele><time>2026-04-26T08:09:13Z</time></trkpt><trkpt lat="45.59245734240846" lon="10.788893816779275"><ele>273.0</ele><time>2026-04-26T08:09:13.999Z</time></trkpt><trkpt lat="45.592534203551324" lon="10.788925452571577"><ele>273.0</ele><time>2026-04-26T08:09:14.999Z</time></trkpt><trkpt lat="45.59260946659486" lon="10.78897750325164"><ele>273.0</ele><time>2026-04-26T08:09:15.999Z</time></trkpt><trkpt lat="45.592687922457216" lon="10.789077231719778"><ele>273.0</ele><time>2026-04-26T08:09:16.999Z</time></trkpt><trkpt lat="45.5927833682301" lon="10.78922045103536"><ele>273.8</ele><time>2026-04-26T08:09:17.999Z</time></trkpt><trkpt lat="45.592883839085935" lon="10.789359307933884"><ele>274.6</ele><time>2026-04-26T08:09:18.999Z</time></trkpt><trkpt lat="45.59296489250645" lon="10.789464166202478"><ele>275.4</ele><time>2026-04-26T08:09:19.999Z</time></trkpt><trkpt lat="45.5930145877495" lon="10.789536806940587"><ele>276.2</ele><time>2026-04-26T08:09:20.999Z</time></trkpt><trkpt lat="45.59306066561138" lon="10.789637929138548"><ele>277.0</ele><time>2026-04-26T08:09:22.999Z</time></trkpt><trkpt lat="45.593062463829796" lon="10.789753080776158"><ele>277.0</ele><time>2026-04-26T08:09:24.999Z</time></trkpt><trkpt lat="45.592999649328505" lon="10.789824202307786"><ele>277.0</ele><time>2026-04-26T08:09:26.999Z</time></trkpt><trkpt lat="45.59293433442878" lon="10.789888956044884"><ele>277.0</ele><time>2026-04-26T08:09:29.999Z</time></trkpt><trkpt lat="45.59288868391782" lon="10.789962084648504"><ele>277.0</ele><time>2026-04-26T08:09:30.999Z</time></trkpt><trkpt lat="45.592848767164824" lon="10.790044336148876"><ele>277.0</ele><time>2026-04-26T08:09:31.999Z</time></trkpt><trkpt lat="45.59284963641601" lon="10.790163888941315"><ele>277.0</ele><time>2026-04-26T08:09:33.999Z</time></trkpt><trkpt lat="45.59296368273325" lon="10.790297431832364"><ele>277.5</ele><time>2026-04-26T08:09:35.999Z</time></trkpt><trkpt lat="45.59305932709617" lon="10.790404030162883"><ele>278.0</ele><time>2026-04-26T08:09:36.999Z</time></trkpt><trkpt lat="45.59316039174853" lon="10.790516174406667"><ele>278.5</ele><time>2026-04-26T08:09:37.999Z</time></trkpt><trkpt lat="45.59325536715195" lon="10.790629944448964"><ele>279.0</ele><time>2026-04-26T08:09:38.999Z</time></trkpt><trkpt lat="45.593322302363894" lon="10.790735942784558"><ele>279.0</ele><time>2026-04-26T08:09:39.999Z</time></trkpt><trkpt lat="45.59338902399498" lon="10.79086738369098"><ele>279.0</ele><time>2026-04-26T08:09:40.999Z</time></trkpt><trkpt lat="45.593448183759335" lon="10.79100538779556"><ele>279.0</ele><time>2026-04-26T08:09:41.999Z</time></trkpt><trkpt lat="45.59350935936409" lon="10.791101486816302"><ele>279.0</ele><time>2026-04-26T08:09:42.999Z</time></trkpt><trkpt lat="45.593583418645004" lon="10.791208825124443"><ele>279.0</ele><time>2026-04-26T08:09:43.999Z</time></trkpt><trkpt lat="45.59366874670986" lon="10.79131891714079"><ele>279.59999999999997</ele><time>2026-04-26T08:09:44.999Z</time></trkpt><trkpt lat="45.59376335146615" lon="10.791431674962967"><ele>280.2</ele><time>2026-04-26T08:09:45.999Z</time></trkpt><trkpt lat="45.59383890596465" lon="10.791535716650198"><ele>280.79999999999995</ele><time>2026-04-26T08:09:46.999Z</time></trkpt><trkpt lat="45.5938988382336" lon="10.791632168384409"><ele>281.4</ele><time>2026-04-26T08:09:47.999Z</time></trkpt><trkpt lat="45.59394784584718" lon="10.791728860908677"><ele>282.0</ele><time>2026-04-26T08:09:48.999Z</time></trkpt><trkpt lat="45.593984843669375" lon="10.791844460025686"><ele>282.8</ele><time>2026-04-26T08:09:49.999Z</time></trkpt><trkpt lat="45.59403009179377" lon="10.791998745856409"><ele>283.6</ele><time>2026-04-26T08:09:50.999Z</time></trkpt><trkpt lat="45.59407154653589" lon="10.792113228025048"><ele>284.40000000000003</ele><time>2026-04-26T08:09:51.999Z</time></trkpt><trkpt lat="45.59412589149626" lon="10.792209881077332"><ele>285.2</ele><time>2026-04-26T08:09:52.999Z</time></trkpt><trkpt lat="45.594190516767924" lon="10.792292894605566"><ele>286.0</ele><time>2026-04-26T08:09:53.999Z</time></trkpt><trkpt lat="45.59427194259175" lon="10.792367706939789"><ele>286.0</ele><time>2026-04-26T08:09:54.999Z</time></trkpt><trkpt lat="45.5943463908253" lon="10.792447687356773"><ele>286.0</ele><time>2026-04-26T08:09:55.999Z</time></trkpt><trkpt lat="45.59440541087631" lon="10.792543782401841"><ele>286.0</ele><time>2026-04-26T08:09:56.999Z</time></trkpt><trkpt lat="45.5944808511629" lon="10.792673046713332"><ele>286.0</ele><time>2026-04-26T08:09:57.999Z</time></trkpt><trkpt lat="45.59456552457855" lon="10.792803384387739"><ele>286.0</ele><time>2026-04-26T08:09:59Z</time></trkpt><trkpt lat="45.594665153851714" lon="10.792970905261061"><ele>285.75</ele><time>2026-04-26T08:10:00Z</time></trkpt><trkpt lat="45.594754756270476" lon="10.793134304954522"><ele>285.5</ele><time>2026-04-26T08:10:01Z</time></trkpt><trkpt lat="45.59482060257033" lon="10.79326153221085"><ele>285.25</ele><time>2026-04-26T08:10:02Z</time></trkpt><trkpt lat="45.59488847098343" lon="10.793383980988548"><ele>285.0</ele><time>2026-04-26T08:10:03Z</time></trkpt><trkpt lat="45.59495012049734" lon="10.793476341817467"><ele>285.8</ele><time>2026-04-26T08:10:04Z</time></trkpt><trkpt lat="45.59502167675315" lon="10.793579467540395"><ele>286.6</ele><time>2026-04-26T08:10:05Z</time></trkpt><trkpt lat="45.59509521933102" lon="10.793685832876655"><ele>287.4</ele><time>2026-04-26T08:10:06Z</time></trkpt><trkpt lat="45.59516958037284" lon="10.793777363214582"><ele>288.2</ele><time>2026-04-26T08:10:07Z</time></trkpt><trkpt lat="45.59524229996693" lon="10.793881044834464"><ele>289.0</ele><time>2026-04-26T08:10:08Z</time></trkpt><trkpt lat="45.59531256999571" lon="10.793986595429859"><ele>288.16666666666663</ele><time>2026-04-26T08:10:09Z</time></trkpt><trkpt lat="45.59538249319761" lon="10.794088921954032"><ele>287.3333333333333</ele><time>2026-04-26T08:10:10Z</time></trkpt><trkpt lat="45.59544768267905" lon="10.794183098181428"><ele>286.5</ele><time>2026-04-26T08:10:11Z</time></trkpt><trkpt lat="45.59549722705877" lon="10.794263591009486"><ele>285.6666666666667</ele><time>2026-04-26T08:10:12Z</time></trkpt><trkpt lat="45.595540917273475" lon="10.794339889111404"><ele>284.83333333333337</ele><time>2026-04-26T08:10:13Z</time></trkpt><trkpt lat="45.595606929017386" lon="10.794460213836553"><ele>284.0</ele><time>2026-04-26T08:10:15Z</time></trkpt><trkpt lat="45.59568269144832" lon="10.794543362176109"><ele>284.0</ele><time>2026-04-26T08:10:17Z</time></trkpt><trkpt lat="45.5957496550863" lon="10.794541123920512"><ele>284.0</ele><time>2026-04-26T08:10:18Z</time></trkpt><trkpt lat="45.59585359852061" lon="10.794492322559854"><ele>284.0</ele><time>2026-04-26T08:10:19Z</time></trkpt><trkpt lat="45.59597394167243" lon="10.79445425189835"><ele>284.0</ele><time>2026-04-26T08:10:20Z</time></trkpt><trkpt lat="45.596106761748686" lon="10.794425115695672"><ele>284.0</ele><time>2026-04-26T08:10:21Z</time></trkpt><trkpt lat="45.59624178623321" lon="10.794405072422157"><ele>282.59999999999997</ele><time>2026-04-26T08:10:22Z</time></trkpt><trkpt lat="45.596347585943164" lon="10.794381203959247"><ele>281.2</ele><time>2026-04-26T08:10:23Z</time></trkpt><trkpt lat="45.596443703166734" lon="10.794346930230818"><ele>279.79999999999995</ele><time>2026-04-26T08:10:24Z</time></trkpt><trkpt lat="45.5965348710153" lon="10.794314665085434"><ele>278.4</ele><time>2026-04-26T08:10:25Z</time></trkpt><trkpt lat="45.59664872030537" lon="10.794281342037936"><ele>277.0</ele><time>2026-04-26T08:10:26Z</time></trkpt><trkpt lat="45.59678158545376" lon="10.794267208870298"><ele>276.4</ele><time>2026-04-26T08:10:27Z</time></trkpt><trkpt lat="45.596898708782554" lon="10.79424789472723"><ele>275.79999999999995</ele><time>2026-04-26T08:10:28Z</time></trkpt><trkpt lat="45.597010101474815" lon="10.794252147307326"><ele>275.2</ele><time>2026-04-26T08:10:29Z</time></trkpt><trkpt lat="45.5971136782064" lon="10.794264435306946"><ele>274.59999999999997</ele><time>2026-04-26T08:10:30Z</time></trkpt><trkpt lat="45.59720881783049" lon="10.794287311131836"><ele>274.0</ele><time>2026-04-26T08:10:31Z</time></trkpt><trkpt lat="45.59729326409505" lon="10.794334474856313"><ele>272.0</ele><time>2026-04-26T08:10:32Z</time></trkpt><trkpt lat="45.59740172323085" lon="10.79442338876251"><ele>270.0</ele><time>2026-04-26T08:10:33Z</time></trkpt><trkpt lat="45.59751099362715" lon="10.794515912123384"><ele>268.0</ele><time>2026-04-26T08:10:34Z</time></trkpt><trkpt lat="45.597641307996746" lon="10.794598470428241"><ele>266.0</ele><time>2026-04-26T08:10:35Z</time></trkpt><trkpt lat="45.59775192174638" lon="10.794670835690816"><ele>263.8</ele><time>2026-04-26T08:10:36Z</time></trkpt><trkpt lat="45.59784576204931" lon="10.794731086949144"><ele>261.6</ele><time>2026-04-26T08:10:37Z</time></trkpt><trkpt lat="45.59793635954125" lon="10.794784650900752"><ele>259.4</ele><time>2026-04-26T08:10:38Z</time></trkpt><trkpt lat="45.59802411517813" lon="10.794843323187942"><ele>257.2</ele><time>2026-04-26T08:10:39Z</time></trkpt><trkpt lat="45.5981086887856" lon="10.794907214124414"><ele>255.0</ele><time>2026-04-26T08:10:40Z</time></trkpt><trkpt lat="45.59817643312298" lon="10.794999331150942"><ele>255.0</ele><time>2026-04-26T08:10:41Z</time></trkpt><trkpt lat="45.59823479754018" lon="10.79508656328241"><ele>255.0</ele><time>2026-04-26T08:10:42Z</time></trkpt><trkpt lat="45.598313651891395" lon="10.795132764028887"><ele>255.0</ele><time>2026-04-26T08:10:43Z</time></trkpt><trkpt lat="45.59841195191049" lon="10.79513252298647"><ele>255.0</ele><time>2026-04-26T08:10:44Z</time></trkpt><trkpt lat="45.59853803095515" lon="10.795093939504525"><ele>255.0</ele><time>2026-04-26T08:10:45Z</time></trkpt><trkpt lat="45.59870979258153" lon="10.795022139162903"><ele>253.75</ele><time>2026-04-26T08:10:46Z</time></trkpt><trkpt lat="45.59887103343445" lon="10.794936989248663"><ele>252.5</ele><time>2026-04-26T08:10:47Z</time></trkpt><trkpt lat="45.59900465019361" lon="10.79484582205186"><ele>251.25</ele><time>2026-04-26T08:10:48Z</time></trkpt><trkpt lat="45.599107158471405" lon="10.794775146951588"><ele>250.0</ele><time>2026-04-26T08:10:49Z</time></trkpt><trkpt lat="45.59919337955974" lon="10.794727873356065"><ele>249.99999999999997</ele><time>2026-04-26T08:10:50Z</time></trkpt><trkpt lat="45.599289373814905" lon="10.794707790269817"><ele>250.0</ele><time>2026-04-26T08:10:51Z</time></trkpt><trkpt lat="45.5993783005331" lon="10.794698260108259"><ele>250.0</ele><time>2026-04-26T08:10:52Z</time></trkpt><trkpt lat="45.59946444350683" lon="10.79470827564685"><ele>250.0</ele><time>2026-04-26T08:10:53Z</time></trkpt><trkpt lat="45.5995284035307" lon="10.794732694105903"><ele>249.99999999999997</ele><time>2026-04-26T08:10:54Z</time></trkpt><trkpt lat="45.59960060333147" lon="10.7947352326007"><ele>250.0</ele><time>2026-04-26T08:10:55Z</time></trkpt><trkpt lat="45.59970705870662" lon="10.794697707646186"><ele>249.75</ele><time>2026-04-26T08:10:57Z</time></trkpt><trkpt lat="45.599794535361696" lon="10.794681326851299"><ele>249.5</ele><time>2026-04-26T08:10:59Z</time></trkpt><trkpt lat="45.59995472083587" lon="10.79465536843626"><ele>249.25</ele><time>2026-04-26T08:11:01Z</time></trkpt><trkpt lat="45.600103541059624" lon="10.794627832513074"><ele>249.0</ele><time>2026-04-26T08:11:02Z</time></trkpt><trkpt lat="45.60025886145594" lon="10.794592016419026"><ele>249.0</ele><time>2026-04-26T08:11:03Z</time></trkpt><trkpt lat="45.60038086297902" lon="10.794567006116253"><ele>248.99999999999997</ele><time>2026-04-26T08:11:04Z</time></trkpt><trkpt lat="45.600487027403084" lon="10.794543588006675"><ele>248.99999999999997</ele><time>2026-04-26T08:11:05Z</time></trkpt><trkpt lat="45.60056928006206" lon="10.794529497342724"><ele>249.0</ele><time>2026-04-26T08:11:06Z</time></trkpt><trkpt lat="45.6006397361016" lon="10.794509044780488"><ele>249.0</ele><time>2026-04-26T08:11:07Z</time></trkpt><trkpt lat="45.60073402611446" lon="10.794469354083686"><ele>249.0</ele><time>2026-04-26T08:11:08.999Z</time></trkpt><trkpt lat="45.60083768440735" lon="10.794511876394294"><ele>249.0</ele><time>2026-04-26T08:11:10.999Z</time></trkpt><trkpt lat="45.60091479532814" lon="10.794617283672485"><ele>249.0</ele><time>2026-04-26T08:11:11.999Z</time></trkpt><trkpt lat="45.601020362925915" lon="10.79477374352773"><ele>249.0</ele><time>2026-04-26T08:11:12.999Z</time></trkpt><trkpt lat="45.601144442081804" lon="10.794926808681172"><ele>248.75</ele><time>2026-04-26T08:11:13.999Z</time></trkpt><trkpt lat="45.60125603633438" lon="10.795045914514882"><ele>248.5</ele><time>2026-04-26T08:11:14.999Z</time></trkpt><trkpt lat="45.60137037933331" lon="10.795128224474125"><ele>248.25</ele><time>2026-04-26T08:11:15.999Z</time></trkpt><trkpt lat="45.60149297966335" lon="10.795189650535551"><ele>248.0</ele><time>2026-04-26T08:11:16.999Z</time></trkpt><trkpt lat="45.60161562765329" lon="10.7952041047574"><ele>248.5</ele><time>2026-04-26T08:11:17.999Z</time></trkpt><trkpt lat="45.60174112547885" lon="10.795193781271319"><ele>249.0</ele><time>2026-04-26T08:11:18.999Z</time></trkpt><trkpt lat="45.601876130247526" lon="10.795179023713924"><ele>249.5</ele><time>2026-04-26T08:11:19.999Z</time></trkpt><trkpt lat="45.60201942006367" lon="10.79517832192908"><ele>250.0</ele><time>2026-04-26T08:11:20.999Z</time></trkpt><trkpt lat="45.60214641334371" lon="10.795173530273917"><ele>250.2</ele><time>2026-04-26T08:11:21.999Z</time></trkpt><trkpt lat="45.60225837903528" lon="10.795175524948775"><ele>250.4</ele><time>2026-04-26T08:11:22.999Z</time></trkpt><trkpt lat="45.602359106055985" lon="10.795189508582125"><ele>250.60000000000002</ele><time>2026-04-26T08:11:23.999Z</time></trkpt><trkpt lat="45.60244788002089" lon="10.795202890965905"><ele>250.8</ele><time>2026-04-26T08:11:24.999Z</time></trkpt><trkpt lat="45.60253304920228" lon="10.795236537177024"><ele>251.0</ele><time>2026-04-26T08:11:25.999Z</time></trkpt><trkpt lat="45.60261598000279" lon="10.795330347790935"><ele>251.0</ele><time>2026-04-26T08:11:26.999Z</time></trkpt><trkpt lat="45.602692270371236" lon="10.795476988228176"><ele>251.0</ele><time>2026-04-26T08:11:27.999Z</time></trkpt><trkpt lat="45.60273238484203" lon="10.795638919671445"><ele>251.0</ele><time>2026-04-26T08:11:28.999Z</time></trkpt><trkpt lat="45.6027391187188" lon="10.795841763133412"><ele>251.0</ele><time>2026-04-26T08:11:29.999Z</time></trkpt><trkpt lat="45.602732748589794" lon="10.796091423451326"><ele>251.0</ele><time>2026-04-26T08:11:30.999Z</time></trkpt><trkpt lat="45.60272427830204" lon="10.796295876724297"><ele>251.0</ele><time>2026-04-26T08:11:31.999Z</time></trkpt><trkpt lat="45.60272718409622" lon="10.796479589991172"><ele>251.0</ele><time>2026-04-26T08:11:32.999Z</time></trkpt><trkpt lat="45.60274302929124" lon="10.796642974409218"><ele>251.0</ele><time>2026-04-26T08:11:33.999Z</time></trkpt><trkpt lat="45.60275723042002" lon="10.796790210318362"><ele>251.0</ele><time>2026-04-26T08:11:34.999Z</time></trkpt><trkpt lat="45.60277173499012" lon="10.79692577414146"><ele>251.00000000000003</ele><time>2026-04-26T08:11:35.999Z</time></trkpt><trkpt lat="45.60278064737544" lon="10.797050889164213"><ele>251.00000000000003</ele><time>2026-04-26T08:11:36.999Z</time></trkpt><trkpt lat="45.60280430931413" lon="10.797162965865478"><ele>251.0</ele><time>2026-04-26T08:11:37.999Z</time></trkpt><trkpt lat="45.60287559211677" lon="10.79726416751551"><ele>251.0</ele><time>2026-04-26T08:11:38.999Z</time></trkpt><trkpt lat="45.60299226245561" lon="10.797328514313065"><ele>251.0</ele><time>2026-04-26T08:11:39.999Z</time></trkpt><trkpt lat="45.60310931198747" lon="10.797383256207237"><ele>251.00000000000003</ele><time>2026-04-26T08:11:40.999Z</time></trkpt><trkpt lat="45.60319627387955" lon="10.797449222259363"><ele>251.00000000000003</ele><time>2026-04-26T08:11:41.999Z</time></trkpt><trkpt lat="45.60322532397987" lon="10.797534423298798"><ele>251.0</ele><time>2026-04-26T08:11:42.999Z</time></trkpt><trkpt lat="45.603225336726084" lon="10.797646817642912"><ele>251.0</ele><time>2026-04-26T08:11:43.998Z</time></trkpt><trkpt lat="45.60321106705065" lon="10.7978096007393"><ele>251.0</ele><time>2026-04-26T08:11:44.998Z</time></trkpt><trkpt lat="45.60319992824363" lon="10.797981607408786"><ele>251.00000000000003</ele><time>2026-04-26T08:11:45.998Z</time></trkpt><trkpt lat="45.60323389760875" lon="10.798117772602563"><ele>251.00000000000003</ele><time>2026-04-26T08:11:46.998Z</time></trkpt><trkpt lat="45.60331247908565" lon="10.79819201927787"><ele>251.0</ele><time>2026-04-26T08:11:47.998Z</time></trkpt><trkpt lat="45.603432248124854" lon="10.798257952692573"><ele>251.0</ele><time>2026-04-26T08:11:48.998Z</time></trkpt><trkpt lat="45.60357759780316" lon="10.798318787822305"><ele>251.33333333333334</ele><time>2026-04-26T08:11:49.998Z</time></trkpt><trkpt lat="45.603737051418555" lon="10.798387888438942"><ele>251.66666666666669</ele><time>2026-04-26T08:11:50.998Z</time></trkpt><trkpt lat="45.603906603124386" lon="10.798476830200672"><ele>252.0</ele><time>2026-04-26T08:11:51.998Z</time></trkpt><trkpt lat="45.60406719900234" lon="10.798559445143107"><ele>252.0</ele><time>2026-04-26T08:11:52.998Z</time></trkpt><trkpt lat="45.60419778322492" lon="10.798627604307091"><ele>252.0</ele><time>2026-04-26T08:11:53.998Z</time></trkpt><trkpt lat="45.60431763918441" lon="10.798695899511165"><ele>252.0</ele><time>2026-04-26T08:11:54.998Z</time></trkpt><trkpt lat="45.604430966422065" lon="10.798764381423027"><ele>252.0</ele><time>2026-04-26T08:11:55.998Z</time></trkpt><trkpt lat="45.60453542651015" lon="10.798822298832775"><ele>252.0</ele><time>2026-04-26T08:11:56.998Z</time></trkpt><trkpt lat="45.604658559632725" lon="10.79888519693491"><ele>252.0</ele><time>2026-04-26T08:11:57.998Z</time></trkpt><trkpt lat="45.604799173815735" lon="10.798971439139327"><ele>252.0</ele><time>2026-04-26T08:11:58.998Z</time></trkpt><trkpt lat="45.60493671881401" lon="10.799058880118764"><ele>252.0</ele><time>2026-04-26T08:11:59.998Z</time></trkpt><trkpt lat="45.60506239227552" lon="10.79913237526909"><ele>252.0</ele><time>2026-04-26T08:12:00.998Z</time></trkpt><trkpt lat="45.60517347346975" lon="10.799206548043689"><ele>252.0</ele><time>2026-04-26T08:12:01.998Z</time></trkpt><trkpt lat="45.60527181253639" lon="10.799269911544943"><ele>252.0</ele><time>2026-04-26T08:12:02.998Z</time></trkpt><trkpt lat="45.60536291410929" lon="10.7993210033675"><ele>252.0</ele><time>2026-04-26T08:12:03.999Z</time></trkpt><trkpt lat="45.60544174604906" lon="10.79938359741893"><ele>252.0</ele><time>2026-04-26T08:12:04.999Z</time></trkpt><trkpt lat="45.60549955311014" lon="10.79949253652129"><ele>254.25</ele><time>2026-04-26T08:12:05.999Z</time></trkpt><trkpt lat="45.605532799259024" lon="10.799645429110278"><ele>256.5</ele><time>2026-04-26T08:12:06.999Z</time></trkpt><trkpt lat="45.60554150755329" lon="10.799846083140272"><ele>258.75</ele><time>2026-04-26T08:12:07.999Z</time></trkpt><trkpt lat="45.605525017826736" lon="10.80009035994774"><ele>261.0</ele><time>2026-04-26T08:12:08.999Z</time></trkpt><trkpt lat="45.60549036839725" lon="10.800370384122168"><ele>261.6666666666667</ele><time>2026-04-26T08:12:09.999Z</time></trkpt><trkpt lat="45.60543721813463" lon="10.800658074195026"><ele>262.33333333333337</ele><time>2026-04-26T08:12:10.999Z</time></trkpt><trkpt lat="45.60540658613339" lon="10.800898989208392"><ele>263.0</ele><time>2026-04-26T08:12:11.999Z</time></trkpt><trkpt lat="45.60538037183317" lon="10.801146002330617"><ele>264.6666666666667</ele><time>2026-04-26T08:12:12.999Z</time></trkpt><trkpt lat="45.6053545083421" lon="10.801398303610942"><ele>266.3333333333333</ele><time>2026-04-26T08:12:13.999Z</time></trkpt><trkpt lat="45.6053320632628" lon="10.80163854745974"><ele>268.0</ele><time>2026-04-26T08:12:14.999Z</time></trkpt><trkpt lat="45.605313228320284" lon="10.801855847512508"><ele>265.0</ele><time>2026-04-26T08:12:15.999Z</time></trkpt><trkpt lat="45.605300364253694" lon="10.802041392332335"><ele>262.0</ele><time>2026-04-26T08:12:16.999Z</time></trkpt><trkpt lat="45.60529097340212" lon="10.802225288277501"><ele>259.0</ele><time>2026-04-26T08:12:17.999Z</time></trkpt><trkpt lat="45.60527861473979" lon="10.802419901343583"><ele>256.0</ele><time>2026-04-26T08:12:18.999Z</time></trkpt><trkpt lat="45.60526414539323" lon="10.80262195978321"><ele>256.3333333333333</ele><time>2026-04-26T08:12:19.999Z</time></trkpt><trkpt lat="45.60524724634484" lon="10.802838216199856"><ele>256.6666666666667</ele><time>2026-04-26T08:12:20.999Z</time></trkpt><trkpt lat="45.605234817082945" lon="10.803053056687514"><ele>257.0</ele><time>2026-04-26T08:12:21.999Z</time></trkpt><trkpt lat="45.6052185054044" lon="10.803295080009118"><ele>258.0</ele><time>2026-04-26T08:12:22.999Z</time></trkpt><trkpt lat="45.605198150443464" lon="10.803530108492678"><ele>259.0</ele><time>2026-04-26T08:12:23.999Z</time></trkpt><trkpt lat="45.60517298598598" lon="10.803810757103447"><ele>260.0</ele><time>2026-04-26T08:12:24.999Z</time></trkpt><trkpt lat="45.605146646500955" lon="10.8040700494919"><ele>260.0</ele><time>2026-04-26T08:12:25.999Z</time></trkpt><trkpt lat="45.60512342938316" lon="10.804307221095106"><ele>260.0</ele><time>2026-04-26T08:12:26.999Z</time></trkpt><trkpt lat="45.60510875036202" lon="10.804483532139342"><ele>260.0</ele><time>2026-04-26T08:12:27.999Z</time></trkpt><trkpt lat="45.605112585671996" lon="10.80466351062873"><ele>260.0</ele><time>2026-04-26T08:12:28.999Z</time></trkpt><trkpt lat="45.605102798902564" lon="10.80486225425858"><ele>260.1666666666667</ele><time>2026-04-26T08:12:29.999Z</time></trkpt><trkpt lat="45.60510625790408" lon="10.804970316704237"><ele>260.33333333333337</ele><time>2026-04-26T08:12:30.999Z</time></trkpt><trkpt lat="45.60511621093751" lon="10.80510786160974"><ele>260.5</ele><time>2026-04-26T08:12:32.999Z</time></trkpt><trkpt lat="45.60514926206482" lon="10.805249048345342"><ele>260.6666666666667</ele><time>2026-04-26T08:12:34.999Z</time></trkpt><trkpt lat="45.60519152730962" lon="10.805318995522482"><ele>260.8333333333333</ele><time>2026-04-26T08:12:35.999Z</time></trkpt><trkpt lat="45.605271778920354" lon="10.80539601131677"><ele>261.0</ele><time>2026-04-26T08:12:36.999Z</time></trkpt><trkpt lat="45.605361699116585" lon="10.805487031125471"><ele>262.0</ele><time>2026-04-26T08:12:37.999Z</time></trkpt><trkpt lat="45.6054490816232" lon="10.805592842511965"><ele>263.0</ele><time>2026-04-26T08:12:38.999Z</time></trkpt><trkpt lat="45.60551713757872" lon="10.805719632102376"><ele>264.0</ele><time>2026-04-26T08:12:39.999Z</time></trkpt><trkpt lat="45.60556941623375" lon="10.805876512428636"><ele>265.0</ele><time>2026-04-26T08:12:40.999Z</time></trkpt><trkpt lat="45.605627937551766" lon="10.806079908279226"><ele>265.0</ele><time>2026-04-26T08:12:41.999Z</time></trkpt><trkpt lat="45.60569232577819" lon="10.806320200373275"><ele>265.0</ele><time>2026-04-26T08:12:42.999Z</time></trkpt><trkpt lat="45.60574769587771" lon="10.806544690222124"><ele>265.0</ele><time>2026-04-26T08:12:43.999Z</time></trkpt><trkpt lat="45.605786083503666" lon="10.806723808478866"><ele>264.75</ele><time>2026-04-26T08:12:44.999Z</time></trkpt><trkpt lat="45.60582885679827" lon="10.806895428035007"><ele>264.5</ele><time>2026-04-26T08:12:45.999Z</time></trkpt><trkpt lat="45.60587515417197" lon="10.80708630974729"><ele>264.25</ele><time>2026-04-26T08:12:46.999Z</time></trkpt><trkpt lat="45.60592172640689" lon="10.807276582665118"><ele>264.0</ele><time>2026-04-26T08:12:47.999Z</time></trkpt><trkpt lat="45.605974596712194" lon="10.807459813125911"><ele>264.0</ele><time>2026-04-26T08:12:48.999Z</time></trkpt><trkpt lat="45.60602782687651" lon="10.807629820805287"><ele>264.0</ele><time>2026-04-26T08:12:49.999Z</time></trkpt><trkpt lat="45.606074664009114" lon="10.80778991112189"><ele>264.0</ele><time>2026-04-26T08:12:50.999Z</time></trkpt><trkpt lat="45.60611889337262" lon="10.807956177678822"><ele>264.0</ele><time>2026-04-26T08:12:51.999Z</time></trkpt><trkpt lat="45.60615957792071" lon="10.808139093983984"><ele>264.59999999999997</ele><time>2026-04-26T08:12:52.999Z</time></trkpt><trkpt lat="45.60618983047517" lon="10.808307188341947"><ele>265.2</ele><time>2026-04-26T08:12:53.999Z</time></trkpt><trkpt lat="45.60621990045928" lon="10.808464855741041"><ele>265.79999999999995</ele><time>2026-04-26T08:12:54.999Z</time></trkpt><trkpt lat="45.60626035786703" lon="10.808592322231064"><ele>266.4</ele><time>2026-04-26T08:12:55.999Z</time></trkpt><trkpt lat="45.60631886856971" lon="10.808698357097052"><ele>267.0</ele><time>2026-04-26T08:12:56.999Z</time></trkpt><trkpt lat="45.60640019732692" lon="10.808797507548503"><ele>267.0</ele><time>2026-04-26T08:12:57.999Z</time></trkpt><trkpt lat="45.60650068248719" lon="10.80893015928602"><ele>267.0</ele><time>2026-04-26T08:12:58.999Z</time></trkpt><trkpt lat="45.60661114972119" lon="10.809069057995751"><ele>267.0</ele><time>2026-04-26T08:12:59.999Z</time></trkpt><trkpt lat="45.60669951378216" lon="10.809183295578178"><ele>267.0</ele><time>2026-04-26T08:13:00.999Z</time></trkpt><trkpt lat="45.60676736723684" lon="10.809250782861259"><ele>267.0</ele><time>2026-04-26T08:13:01.999Z</time></trkpt><trkpt lat="45.606842576627805" lon="10.809358894482179"><ele>267.0</ele><time>2026-04-26T08:13:02.999Z</time></trkpt><trkpt lat="45.606899851976905" lon="10.809444173503623"><ele>267.0</ele><time>2026-04-26T08:13:03.999Z</time></trkpt><trkpt lat="45.60694919828113" lon="10.809527921814016"><ele>267.0</ele><time>2026-04-26T08:13:04.999Z</time></trkpt><trkpt lat="45.60699397391628" lon="10.809614269378407"><ele>267.0</ele><time>2026-04-26T08:13:05.999Z</time></trkpt><trkpt lat="45.607036175600925" lon="10.809703928474121"><ele>267.0</ele><time>2026-04-26T08:13:07.999Z</time></trkpt><trkpt lat="45.60698764640456" lon="10.809814345413631"><ele>267.0</ele><time>2026-04-26T08:13:11.999Z</time></trkpt><trkpt lat="45.60688899252829" lon="10.809896877330019"><ele>267.0</ele><time>2026-04-26T08:13:13.999Z</time></trkpt><trkpt lat="45.60682335277041" lon="10.809926351846258"><ele>267.0</ele><time>2026-04-26T08:13:14.999Z</time></trkpt><trkpt lat="45.60675102362773" lon="10.809965798446344"><ele>267.0</ele><time>2026-04-26T08:13:15.999Z</time></trkpt><trkpt lat="45.6066489655333" lon="10.810026544908593"><ele>267.0</ele><time>2026-04-26T08:13:17.999Z</time></trkpt><trkpt lat="45.60656860170867" lon="10.810101429481087"><ele>267.2</ele><time>2026-04-26T08:13:19.999Z</time></trkpt><trkpt lat="45.60650277608248" lon="10.810202922777313"><ele>267.4</ele><time>2026-04-26T08:13:21.999Z</time></trkpt><trkpt lat="45.60644369101491" lon="10.810351877884813"><ele>267.6</ele><time>2026-04-26T08:13:24.999Z</time></trkpt><trkpt lat="45.6063873303684" lon="10.81047616892678"><ele>267.8</ele><time>2026-04-26T08:13:26.999Z</time></trkpt><trkpt lat="45.60633251606032" lon="10.810560521355667"><ele>268.0</ele><time>2026-04-26T08:13:27.999Z</time></trkpt><trkpt lat="45.60628700830629" lon="10.810657066192245"><ele>268.0</ele><time>2026-04-26T08:13:28.999Z</time></trkpt><trkpt lat="45.6062455960915" lon="10.810740741998801"><ele>268.0</ele><time>2026-04-26T08:13:29.999Z</time></trkpt><trkpt lat="45.606195337785984" lon="10.810843632609584"><ele>268.0</ele><time>2026-04-26T08:13:30.999Z</time></trkpt><trkpt lat="45.60614895940205" lon="10.810932447380937"><ele>268.0</ele><time>2026-04-26T08:13:31.999Z</time></trkpt><trkpt lat="45.606101089757644" lon="10.811015414031154"><ele>268.0</ele><time>2026-04-26T08:13:32.999Z</time></trkpt><trkpt lat="45.60605401675248" lon="10.81108956124668"><ele>268.0</ele><time>2026-04-26T08:13:33.999Z</time></trkpt><trkpt lat="45.60598592176586" lon="10.811195427615182"><ele>268.16666666666663</ele><time>2026-04-26T08:13:34.999Z</time></trkpt><trkpt lat="45.60594360745965" lon="10.81127144263524"><ele>268.3333333333333</ele><time>2026-04-26T08:13:36.999Z</time></trkpt><trkpt lat="45.60589834149094" lon="10.811340681739077"><ele>268.5</ele><time>2026-04-26T08:13:37.999Z</time></trkpt><trkpt lat="45.605841747962366" lon="10.811429075941058"><ele>268.6666666666667</ele><time>2026-04-26T08:13:38.999Z</time></trkpt><trkpt lat="45.60578228852047" lon="10.81152038186234"><ele>268.83333333333337</ele><time>2026-04-26T08:13:39.999Z</time></trkpt><trkpt lat="45.60572333644836" lon="10.811612987271827"><ele>269.0</ele><time>2026-04-26T08:13:40.999Z</time></trkpt><trkpt lat="45.605675395734565" lon="10.811693742045737"><ele>269.0</ele><time>2026-04-26T08:13:41.999Z</time></trkpt><trkpt lat="45.60564385663522" lon="10.811788215911191"><ele>269.0</ele><time>2026-04-26T08:13:42.999Z</time></trkpt><trkpt lat="45.60561624885006" lon="10.811899331286858"><ele>269.0</ele><time>2026-04-26T08:13:43.999Z</time></trkpt><trkpt lat="45.605605746066615" lon="10.812000357534226"><ele>269.0</ele><time>2026-04-26T08:13:44.999Z</time></trkpt><trkpt lat="45.605586047594926" lon="10.812123943403941"><ele>269.0</ele><time>2026-04-26T08:13:46.999Z</time></trkpt><trkpt lat="45.60556716877648" lon="10.81221227572359"><ele>269.0</ele><time>2026-04-26T08:13:50.999Z</time></trkpt><trkpt lat="45.605547560463336" lon="10.812322532659262"><ele>269.2</ele><time>2026-04-26T08:13:52.999Z</time></trkpt><trkpt lat="45.605510263261856" lon="10.812434696326585"><ele>269.4</ele><time>2026-04-26T08:13:55.999Z</time></trkpt><trkpt lat="45.60544591063137" lon="10.812525211490172"><ele>269.6</ele><time>2026-04-26T08:13:57.999Z</time></trkpt><trkpt lat="45.60536313090984" lon="10.812622457290157"><ele>269.8</ele><time>2026-04-26T08:13:59.999Z</time></trkpt><trkpt lat="45.60530919638575" lon="10.812739572474221"><ele>270.0</ele><time>2026-04-26T08:14:01.999Z</time></trkpt><trkpt lat="45.60527932485388" lon="10.812828227352126"><ele>269.6666666666667</ele><time>2026-04-26T08:14:02.999Z</time></trkpt><trkpt lat="45.60525056336397" lon="10.81291591120255"><ele>269.3333333333333</ele><time>2026-04-26T08:14:03.999Z</time></trkpt><trkpt lat="45.60521847654567" lon="10.81300096207734"><ele>269.0</ele><time>2026-04-26T08:14:04.999Z</time></trkpt><trkpt lat="45.605183937119016" lon="10.813098896442519"><ele>268.66666666666663</ele><time>2026-04-26T08:14:05.999Z</time></trkpt><trkpt lat="45.60512702543885" lon="10.813263296327733"><ele>268.3333333333333</ele><time>2026-04-26T08:14:07.999Z</time></trkpt><trkpt lat="45.60510190446516" lon="10.813358141835442"><ele>268.0</ele><time>2026-04-26T08:14:08.999Z</time></trkpt><trkpt lat="45.60508113850042" lon="10.813459351946019"><ele>268.0</ele><time>2026-04-26T08:14:10Z</time></trkpt><trkpt lat="45.60504553839041" lon="10.813560794369478"><ele>268.0</ele><time>2026-04-26T08:14:11Z</time></trkpt><trkpt lat="45.60501302385604" lon="10.813686371712244"><ele>268.0</ele><time>2026-04-26T08:14:12Z</time></trkpt><trkpt lat="45.60497850058089" lon="10.813813906069498"><ele>268.0</ele><time>2026-04-26T08:14:13Z</time></trkpt><trkpt lat="45.60494902348366" lon="10.813923507493884"><ele>268.0</ele><time>2026-04-26T08:14:14Z</time></trkpt><trkpt lat="45.60491944309357" lon="10.814068098166835"><ele>268.0</ele><time>2026-04-26T08:14:16Z</time></trkpt><trkpt lat="45.60485700727146" lon="10.814302880164192"><ele>268.0</ele><time>2026-04-26T08:14:18Z</time></trkpt><trkpt lat="45.604823231865815" lon="10.814402517896431"><ele>268.0</ele><time>2026-04-26T08:14:19Z</time></trkpt><trkpt lat="45.60477015070808" lon="10.814514088758006"><ele>268.0</ele><time>2026-04-26T08:14:20Z</time></trkpt><trkpt lat="45.604770079188214" lon="10.814642139426134"><ele>268.0</ele><time>2026-04-26T08:14:21Z</time></trkpt><trkpt lat="45.60474720398003" lon="10.814765899699548"><ele>268.16666666666663</ele><time>2026-04-26T08:14:22Z</time></trkpt><trkpt lat="45.60472577354203" lon="10.814861990613204"><ele>268.3333333333333</ele><time>2026-04-26T08:14:23Z</time></trkpt><trkpt lat="45.60470539598541" lon="10.814969652361114"><ele>268.5</ele><time>2026-04-26T08:14:24Z</time></trkpt><trkpt lat="45.604686807958224" lon="10.815082511334916"><ele>268.6666666666667</ele><time>2026-04-26T08:14:25Z</time></trkpt><trkpt lat="45.60466727959589" lon="10.81519304521278"><ele>268.83333333333337</ele><time>2026-04-26T08:14:26Z</time></trkpt><trkpt lat="45.60465574036577" lon="10.815300025147351"><ele>269.0</ele><time>2026-04-26T08:14:27Z</time></trkpt><trkpt lat="45.604641690566716" lon="10.815396437740219"><ele>269.0</ele><time>2026-04-26T08:14:28Z</time></trkpt><trkpt lat="45.60462944692536" lon="10.815489568956789"><ele>269.0</ele><time>2026-04-26T08:14:29Z</time></trkpt><trkpt lat="45.60462346872096" lon="10.815629789888387"><ele>269.0</ele><time>2026-04-26T08:14:31Z</time></trkpt><trkpt lat="45.60462093649566" lon="10.815774350601416"><ele>269.0</ele><time>2026-04-26T08:14:49Z</time></trkpt><trkpt lat="45.60462727255694" lon="10.815867695836115"><ele>269.0</ele><time>2026-04-26T08:14:50Z</time></trkpt><trkpt lat="45.60466774441965" lon="10.81598330468745"><ele>269.0</ele><time>2026-04-26T08:14:52Z</time></trkpt><trkpt lat="45.6047050129091" lon="10.816060264660143"><ele>269.0</ele><time>2026-04-26T08:14:53Z</time></trkpt><trkpt lat="45.60472192742516" lon="10.816158823108593"><ele>269.0</ele><time>2026-04-26T08:14:54Z</time></trkpt><trkpt lat="45.60472817625877" lon="10.81629071126326"><ele>269.0</ele><time>2026-04-26T08:14:55Z</time></trkpt><trkpt lat="45.60473042706799" lon="10.816457200722015"><ele>269.0</ele><time>2026-04-26T08:14:56Z</time></trkpt><trkpt lat="45.604731302814635" lon="10.816638267394472"><ele>269.0</ele><time>2026-04-26T08:14:57Z</time></trkpt><trkpt lat="45.604725367071936" lon="10.816811042313715"><ele>269.8</ele><time>2026-04-26T08:14:58Z</time></trkpt><trkpt lat="45.60473230092962" lon="10.816951379321477"><ele>270.59999999999997</ele><time>2026-04-26T08:14:59Z</time></trkpt><trkpt lat="45.60477334961681" lon="10.817136380031974"><ele>271.4</ele><time>2026-04-26T08:15:01Z</time></trkpt><trkpt lat="45.60480594303707" lon="10.817263911094695"><ele>272.2</ele><time>2026-04-26T08:15:02Z</time></trkpt><trkpt lat="45.604839143586545" lon="10.817384499706707"><ele>273.0</ele><time>2026-04-26T08:15:03Z</time></trkpt><trkpt lat="45.60487873023174" lon="10.817495211817937"><ele>273.0</ele><time>2026-04-26T08:15:04Z</time></trkpt><trkpt lat="45.60490709716191" lon="10.817581116343895"><ele>273.0</ele><time>2026-04-26T08:15:05Z</time></trkpt><trkpt lat="45.60491219602893" lon="10.817726239441535"><ele>273.0</ele><time>2026-04-26T08:15:07Z</time></trkpt><trkpt lat="45.60484016628093" lon="10.817865633482324"><ele>273.0</ele><time>2026-04-26T08:15:09Z</time></trkpt><trkpt lat="45.604787689327964" lon="10.817962706037273"><ele>273.0</ele><time>2026-04-26T08:15:10Z</time></trkpt><trkpt lat="45.60473385702723" lon="10.818070210035518"><ele>273.1666666666667</ele><time>2026-04-26T08:15:11Z</time></trkpt><trkpt lat="45.60468402482915" lon="10.81818159913634"><ele>273.3333333333333</ele><time>2026-04-26T08:15:12Z</time></trkpt><trkpt lat="45.604640798333556" lon="10.818298642725454"><ele>273.5</ele><time>2026-04-26T08:15:13Z</time></trkpt><trkpt lat="45.604596342478835" lon="10.818418044376738"><ele>273.66666666666663</ele><time>2026-04-26T08:15:14Z</time></trkpt><trkpt lat="45.6045559946495" lon="10.81852478291174"><ele>273.8333333333333</ele><time>2026-04-26T08:15:15Z</time></trkpt><trkpt lat="45.6045196009183" lon="10.818628692875322"><ele>274.0</ele><time>2026-04-26T08:15:15.999Z</time></trkpt><trkpt lat="45.60450157759172" lon="10.81872287229374"><ele>273.4</ele><time>2026-04-26T08:15:16.999Z</time></trkpt><trkpt lat="45.604479506254236" lon="10.818808507062498"><ele>272.79999999999995</ele><time>2026-04-26T08:15:17.999Z</time></trkpt><trkpt lat="45.604452994827504" lon="10.818975236144862"><ele>272.20000000000005</ele><time>2026-04-26T08:15:19.999Z</time></trkpt><trkpt lat="45.60445472631972" lon="10.81912077826224"><ele>271.6</ele><time>2026-04-26T08:15:21.999Z</time></trkpt><trkpt lat="45.604477537518726" lon="10.81922205533093"><ele>271.0</ele><time>2026-04-26T08:15:23.999Z</time></trkpt><trkpt lat="45.60453236003169" lon="10.819375394296607"><ele>273.8</ele><time>2026-04-26T08:15:25.999Z</time></trkpt><trkpt lat="45.60455319312669" lon="10.81946048080086"><ele>276.6</ele><time>2026-04-26T08:15:26.999Z</time></trkpt><trkpt lat="45.60460074059408" lon="10.819609514728578"><ele>279.4</ele><time>2026-04-26T08:15:28.999Z</time></trkpt><trkpt lat="45.6045983970289" lon="10.819778816266934"><ele>282.2</ele><time>2026-04-26T08:15:30.999Z</time></trkpt><trkpt lat="45.604594570914095" lon="10.81991895301421"><ele>285.0</ele><time>2026-04-26T08:15:32.999Z</time></trkpt><trkpt lat="45.60458389818533" lon="10.820075615636592"><ele>286.1666666666667</ele><time>2026-04-26T08:15:34.999Z</time></trkpt><trkpt lat="45.60455174834688" lon="10.820253023542682"><ele>287.3333333333333</ele><time>2026-04-26T08:15:36.999Z</time></trkpt><trkpt lat="45.60452481201779" lon="10.820357849045836"><ele>288.5</ele><time>2026-04-26T08:15:37.999Z</time></trkpt><trkpt lat="45.60450096319897" lon="10.82045549941038"><ele>289.66666666666663</ele><time>2026-04-26T08:15:38.999Z</time></trkpt><trkpt lat="45.60447691361102" lon="10.820546945787816"><ele>290.8333333333333</ele><time>2026-04-26T08:15:39.999Z</time></trkpt><trkpt lat="45.604454063138846" lon="10.820633040774876"><ele>292.0</ele><time>2026-04-26T08:15:40.999Z</time></trkpt><trkpt lat="45.604422941644884" lon="10.820812446491594"><ele>290.16666666666663</ele><time>2026-04-26T08:15:42.999Z</time></trkpt><trkpt lat="45.604411239505616" lon="10.820907892652816"><ele>288.3333333333333</ele><time>2026-04-26T08:15:43.999Z</time></trkpt><trkpt lat="45.60439465821384" lon="10.821005278149672"><ele>286.5</ele><time>2026-04-26T08:15:44.999Z</time></trkpt><trkpt lat="45.60440716609905" lon="10.82115549636181"><ele>284.6666666666667</ele><time>2026-04-26T08:15:46.999Z</time></trkpt><trkpt lat="45.60440288570475" lon="10.82125900196553"><ele>282.83333333333337</ele><time>2026-04-26T08:15:47.999Z</time></trkpt><trkpt lat="45.60439959065714" lon="10.821360353556916"><ele>281.0</ele><time>2026-04-26T08:15:48.999Z</time></trkpt><trkpt lat="45.604396762100045" lon="10.82146665957761"><ele>281.0</ele><time>2026-04-26T08:15:49.999Z</time></trkpt><trkpt lat="45.604383817526426" lon="10.82161066986613"><ele>281.0</ele><time>2026-04-26T08:15:51.999Z</time></trkpt><trkpt lat="45.604373429135684" lon="10.821723332075683"><ele>281.0</ele><time>2026-04-26T08:15:52.999Z</time></trkpt><trkpt lat="45.60435695410112" lon="10.821896215187536"><ele>281.0</ele><time>2026-04-26T08:15:54.999Z</time></trkpt><trkpt lat="45.60428266008316" lon="10.822004772938635"><ele>281.0</ele><time>2026-04-26T08:15:56.999Z</time></trkpt><trkpt lat="45.60415944816922" lon="10.822056289534379"><ele>281.6</ele><time>2026-04-26T08:15:58.999Z</time></trkpt><trkpt lat="45.60406474252384" lon="10.822063199017826"><ele>282.20000000000005</ele><time>2026-04-26T08:15:59.999Z</time></trkpt><trkpt lat="45.60396542308012" lon="10.822051525529593"><ele>282.79999999999995</ele><time>2026-04-26T08:16:00.999Z</time></trkpt><trkpt lat="45.60385709733977" lon="10.822054685216822"><ele>283.4</ele><time>2026-04-26T08:16:01.999Z</time></trkpt><trkpt lat="45.60375078809971" lon="10.822072635857207"><ele>284.0</ele><time>2026-04-26T08:16:02.999Z</time></trkpt><trkpt lat="45.60365791461736" lon="10.82210578046271"><ele>282.8</ele><time>2026-04-26T08:16:03.999Z</time></trkpt><trkpt lat="45.60356633427808" lon="10.822133406863946"><ele>281.59999999999997</ele><time>2026-04-26T08:16:04.999Z</time></trkpt><trkpt lat="45.60345024463342" lon="10.822156641645627"><ele>280.4</ele><time>2026-04-26T08:16:05.999Z</time></trkpt><trkpt lat="45.603324141126706" lon="10.822175438898716"><ele>279.2</ele><time>2026-04-26T08:16:06.999Z</time></trkpt><trkpt lat="45.603262706279644" lon="10.8222230688036"><ele>278.0</ele><time>2026-04-26T08:16:07.999Z</time></trkpt><trkpt lat="45.60317898521241" lon="10.822259013491685"><ele>278.0</ele><time>2026-04-26T08:16:08.999Z</time></trkpt><trkpt lat="45.60308261223253" lon="10.82231076182034"><ele>278.0</ele><time>2026-04-26T08:16:09.999Z</time></trkpt><trkpt lat="45.60297179252206" lon="10.822361086375354"><ele>278.0</ele><time>2026-04-26T08:16:10.999Z</time></trkpt><trkpt lat="45.60286863054819" lon="10.822429168990281"><ele>278.0</ele><time>2026-04-26T08:16:11.999Z</time></trkpt><trkpt lat="45.602798845928916" lon="10.822507289119903"><ele>278.0</ele><time>2026-04-26T08:16:12.999Z</time></trkpt><trkpt lat="45.60269589805947" lon="10.822512500119219"><ele>277.6</ele><time>2026-04-26T08:16:13.999Z</time></trkpt><trkpt lat="45.602596017392635" lon="10.822565318279342"><ele>277.20000000000005</ele><time>2026-04-26T08:16:14.999Z</time></trkpt><trkpt lat="45.60251827547466" lon="10.822622053441478"><ele>276.8</ele><time>2026-04-26T08:16:16Z</time></trkpt><trkpt lat="45.602440783373396" lon="10.822682946083441"><ele>276.40000000000003</ele><time>2026-04-26T08:16:17Z</time></trkpt><trkpt lat="45.60236053628795" lon="10.822738120543086"><ele>276.0</ele><time>2026-04-26T08:16:18Z</time></trkpt><trkpt lat="45.602279005982204" lon="10.822796431682557"><ele>276.6666666666667</ele><time>2026-04-26T08:16:19Z</time></trkpt><trkpt lat="45.602213529198245" lon="10.822849771354237"><ele>277.3333333333333</ele><time>2026-04-26T08:16:20Z</time></trkpt><trkpt lat="45.60212948409838" lon="10.822906249996173"><ele>278.0</ele><time>2026-04-26T08:16:21Z</time></trkpt><trkpt lat="45.60206157201141" lon="10.822957966340365"><ele>278.66666666666663</ele><time>2026-04-26T08:16:22Z</time></trkpt><trkpt lat="45.6019698042939" lon="10.823030959490954"><ele>279.3333333333333</ele><time>2026-04-26T08:16:23Z</time></trkpt><trkpt lat="45.601882422812096" lon="10.82309536977915"><ele>280.0</ele><time>2026-04-26T08:16:24Z</time></trkpt><trkpt lat="45.60180057677183" lon="10.82315501681418"><ele>280.0</ele><time>2026-04-26T08:16:25Z</time></trkpt><trkpt lat="45.601733308578495" lon="10.823203426954255"><ele>280.0</ele><time>2026-04-26T08:16:26Z</time></trkpt><trkpt lat="45.601622873690985" lon="10.823325356271289"><ele>280.0</ele><time>2026-04-26T08:16:28Z</time></trkpt><trkpt lat="45.60155854656359" lon="10.823435411899093"><ele>280.0</ele><time>2026-04-26T08:16:30Z</time></trkpt><trkpt lat="45.60150267419732" lon="10.823534397871528"><ele>280.0</ele><time>2026-04-26T08:16:31Z</time></trkpt><trkpt lat="45.601443603799346" lon="10.823581818436608"><ele>281.66666666666663</ele><time>2026-04-26T08:16:34Z</time></trkpt><trkpt lat="45.60138031231182" lon="10.823636530884125"><ele>283.3333333333333</ele><time>2026-04-26T08:16:37Z</time></trkpt><trkpt lat="45.60129469384279" lon="10.82371157391692"><ele>285.0</ele><time>2026-04-26T08:16:39Z</time></trkpt><trkpt lat="45.60121602963032" lon="10.823764172495506"><ele>286.6666666666667</ele><time>2026-04-26T08:16:45Z</time></trkpt><trkpt lat="45.601157124537885" lon="10.823804037065539"><ele>288.33333333333337</ele><time>2026-04-26T08:16:46Z</time></trkpt><trkpt lat="45.60109109146112" lon="10.82383997813547"><ele>290.0</ele><time>2026-04-26T08:16:47Z</time></trkpt><trkpt lat="45.60099436759031" lon="10.823890211453795"><ele>290.1666666666667</ele><time>2026-04-26T08:16:49Z</time></trkpt><trkpt lat="45.600893645788524" lon="10.823944701609905"><ele>290.33333333333337</ele><time>2026-04-26T08:16:51Z</time></trkpt><trkpt lat="45.60083190952417" lon="10.82398451295231"><ele>290.5</ele><time>2026-04-26T08:16:52Z</time></trkpt><trkpt lat="45.600740837417504" lon="10.824034948364522"><ele>290.6666666666667</ele><time>2026-04-26T08:16:54Z</time></trkpt><trkpt lat="45.60067375692164" lon="10.824066014675298"><ele>290.8333333333333</ele><time>2026-04-26T08:16:55Z</time></trkpt><trkpt lat="45.6005929057953" lon="10.824037225276253"><ele>291.0</ele><time>2026-04-26T08:16:57Z</time></trkpt><trkpt lat="45.60052313708783" lon="10.823990758830092"><ele>291.0</ele><time>2026-04-26T08:16:58Z</time></trkpt><trkpt lat="45.60044666554375" lon="10.823927944684272"><ele>291.0</ele><time>2026-04-26T08:16:59Z</time></trkpt><trkpt lat="45.60036477719153" lon="10.823869858764732"><ele>291.0</ele><time>2026-04-26T08:17:00Z</time></trkpt><trkpt lat="45.600268544783795" lon="10.823802767460483"><ele>291.0</ele><time>2026-04-26T08:17:01Z</time></trkpt><trkpt lat="45.600161979819724" lon="10.823729450729003"><ele>291.0</ele><time>2026-04-26T08:17:02Z</time></trkpt><trkpt lat="45.600052120121966" lon="10.823659666241483"><ele>291.3333333333333</ele><time>2026-04-26T08:17:03Z</time></trkpt><trkpt lat="45.5999597278774" lon="10.823609127970311"><ele>291.6666666666667</ele><time>2026-04-26T08:17:04Z</time></trkpt><trkpt lat="45.59987334175581" lon="10.823561311996166"><ele>292.0</ele><time>2026-04-26T08:17:05Z</time></trkpt><trkpt lat="45.59979542542545" lon="10.823515431880013"><ele>292.33333333333337</ele><time>2026-04-26T08:17:06Z</time></trkpt><trkpt lat="45.599722986769315" lon="10.82346108122124"><ele>292.6666666666667</ele><time>2026-04-26T08:17:07Z</time></trkpt><trkpt lat="45.599659228750156" lon="10.823409068808868"><ele>293.0</ele><time>2026-04-26T08:17:08Z</time></trkpt><trkpt lat="45.59960260315313" lon="10.823349038225807"><ele>291.83333333333337</ele><time>2026-04-26T08:17:09Z</time></trkpt><trkpt lat="45.5995488613155" lon="10.823292429793469"><ele>290.6666666666667</ele><time>2026-04-26T08:17:10Z</time></trkpt><trkpt lat="45.59948955024227" lon="10.823255013842976"><ele>289.5</ele><time>2026-04-26T08:17:11Z</time></trkpt><trkpt lat="45.59941135316015" lon="10.823237003604559"><ele>288.3333333333333</ele><time>2026-04-26T08:17:12Z</time></trkpt><trkpt lat="45.599320411422724" lon="10.823229311582034"><ele>287.16666666666663</ele><time>2026-04-26T08:17:13Z</time></trkpt><trkpt lat="45.599205787432545" lon="10.823208525574536"><ele>286.0</ele><time>2026-04-26T08:17:14Z</time></trkpt><trkpt lat="45.59908184644472" lon="10.823183564647374"><ele>286.0</ele><time>2026-04-26T08:17:15Z</time></trkpt><trkpt lat="45.598992637473565" lon="10.823166873423398"><ele>286.0</ele><time>2026-04-26T08:17:16Z</time></trkpt><trkpt lat="45.598886898185796" lon="10.823135655880593"><ele>286.0</ele><time>2026-04-26T08:17:17Z</time></trkpt><trkpt lat="45.598784767188384" lon="10.823101312567735"><ele>286.0</ele><time>2026-04-26T08:17:18Z</time></trkpt><trkpt lat="45.598691169876474" lon="10.823070270751286"><ele>286.0</ele><time>2026-04-26T08:17:19Z</time></trkpt><trkpt lat="45.59858004388151" lon="10.823042767068044"><ele>286.6</ele><time>2026-04-26T08:17:20Z</time></trkpt><trkpt lat="45.59848854699978" lon="10.823002352913209"><ele>287.20000000000005</ele><time>2026-04-26T08:17:21Z</time></trkpt><trkpt lat="45.59840550428366" lon="10.82296858709451"><ele>287.79999999999995</ele><time>2026-04-26T08:17:22Z</time></trkpt><trkpt lat="45.59831543377659" lon="10.822935936959862"><ele>288.4</ele><time>2026-04-26T08:17:23Z</time></trkpt><trkpt lat="45.59822103349156" lon="10.822915867911506"><ele>289.0</ele><time>2026-04-26T08:17:24Z</time></trkpt><trkpt lat="45.59811479763208" lon="10.82290078656075"><ele>289.0</ele><time>2026-04-26T08:17:25Z</time></trkpt><trkpt lat="45.59802909797692" lon="10.822885452185945"><ele>289.0</ele><time>2026-04-26T08:17:26Z</time></trkpt><trkpt lat="45.597943259557795" lon="10.822868419097396"><ele>289.0</ele><time>2026-04-26T08:17:27Z</time></trkpt><trkpt lat="45.59784607873078" lon="10.822850013275943"><ele>289.0</ele><time>2026-04-26T08:17:28Z</time></trkpt><trkpt lat="45.59773904513196" lon="10.822813722090059"><ele>289.0</ele><time>2026-04-26T08:17:29Z</time></trkpt><trkpt lat="45.597662815527706" lon="10.822783730333125"><ele>288.0</ele><time>2026-04-26T08:17:30Z</time></trkpt><trkpt lat="45.597596376389035" lon="10.8227561734509"><ele>287.0</ele><time>2026-04-26T08:17:31Z</time></trkpt><trkpt lat="45.597521427566235" lon="10.822718480903518"><ele>286.0</ele><time>2026-04-26T08:17:32Z</time></trkpt><trkpt lat="45.597439541059494" lon="10.822682371581637"><ele>285.0</ele><time>2026-04-26T08:17:33Z</time></trkpt><trkpt lat="45.59736117787174" lon="10.822644559389703"><ele>284.0</ele><time>2026-04-26T08:17:34Z</time></trkpt><trkpt lat="45.597268939885176" lon="10.822608763190765"><ele>283.0</ele><time>2026-04-26T08:17:35Z</time></trkpt><trkpt lat="45.59719820616459" lon="10.822583703518506"><ele>281.57142857142856</ele><time>2026-04-26T08:17:36Z</time></trkpt><trkpt lat="45.59712676907927" lon="10.822557861256533"><ele>280.14285714285717</ele><time>2026-04-26T08:17:37Z</time></trkpt><trkpt lat="45.59706787002538" lon="10.822519374317865"><ele>278.7142857142857</ele><time>2026-04-26T08:17:38Z</time></trkpt><trkpt lat="45.59701033033855" lon="10.822463416447263"><ele>277.2857142857143</ele><time>2026-04-26T08:17:39Z</time></trkpt><trkpt lat="45.5969613710933" lon="10.822390288696292"><ele>275.8571428571429</ele><time>2026-04-26T08:17:40Z</time></trkpt><trkpt lat="45.59691302970709" lon="10.822318790334881"><ele>274.42857142857144</ele><time>2026-04-26T08:17:41Z</time></trkpt><trkpt lat="45.596864234135445" lon="10.822232432596124"><ele>273.0</ele><time>2026-04-26T08:17:42Z</time></trkpt><trkpt lat="45.59681772712525" lon="10.822157928885742"><ele>273.0</ele><time>2026-04-26T08:17:43Z</time></trkpt><trkpt lat="45.596769821940015" lon="10.822071228964042"><ele>273.0</ele><time>2026-04-26T08:17:44.999Z</time></trkpt><trkpt lat="45.596704485038444" lon="10.822060108957588"><ele>273.0</ele><time>2026-04-26T08:17:48.999Z</time></trkpt><trkpt lat="45.596622296080476" lon="10.822150269150129"><ele>273.0</ele><time>2026-04-26T08:17:50.999Z</time></trkpt><trkpt lat="45.596523554889096" lon="10.8222281108112"><ele>273.0</ele><time>2026-04-26T08:17:52.999Z</time></trkpt><trkpt lat="45.59646174504315" lon="10.82230621071728"><ele>273.0</ele><time>2026-04-26T08:17:54.999Z</time></trkpt><trkpt lat="45.596383435884505" lon="10.822356547872237"><ele>273.0</ele><time>2026-04-26T08:17:55.999Z</time></trkpt><trkpt lat="45.59629782928827" lon="10.822402976501792"><ele>273.0</ele><time>2026-04-26T08:17:57.999Z</time></trkpt><trkpt lat="45.596213737446355" lon="10.822460296225728"><ele>273.0</ele><time>2026-04-26T08:17:59.999Z</time></trkpt><trkpt lat="45.59614827131879" lon="10.82251744981211"><ele>273.0</ele><time>2026-04-26T08:18:01.999Z</time></trkpt><trkpt lat="45.596042653710754" lon="10.8225881276362"><ele>273.0</ele><time>2026-04-26T08:18:03.999Z</time></trkpt><trkpt lat="45.59593968071508" lon="10.822659056989057"><ele>273.8</ele><time>2026-04-26T08:18:05.999Z</time></trkpt><trkpt lat="45.595837746664735" lon="10.822746369274842"><ele>274.6</ele><time>2026-04-26T08:18:07.999Z</time></trkpt><trkpt lat="45.59574461324838" lon="10.822822197493736"><ele>275.4</ele><time>2026-04-26T08:18:09.999Z</time></trkpt><trkpt lat="45.59567702572465" lon="10.822898228547189"><ele>276.2</ele><time>2026-04-26T08:18:11.999Z</time></trkpt><trkpt lat="45.59558675059748" lon="10.823009589096412"><ele>277.0</ele><time>2026-04-26T08:18:13.999Z</time></trkpt><trkpt lat="45.5955390782507" lon="10.8230743912535"><ele>277.0</ele><time>2026-04-26T08:18:14.999Z</time></trkpt><trkpt lat="45.595497118522225" lon="10.823143186865702"><ele>277.0</ele><time>2026-04-26T08:18:15.999Z</time></trkpt><trkpt lat="45.59545104941736" lon="10.82321495907749"><ele>277.0</ele><time>2026-04-26T08:18:16.999Z</time></trkpt><trkpt lat="45.59540605154931" lon="10.823292631870961"><ele>277.0</ele><time>2026-04-26T08:18:17.999Z</time></trkpt><trkpt lat="45.59537098539462" lon="10.823369675042604"><ele>277.0</ele><time>2026-04-26T08:18:18.999Z</time></trkpt><trkpt lat="45.59530975424541" lon="10.82349869228074"><ele>277.0</ele><time>2026-04-26T08:18:20.999Z</time></trkpt><trkpt lat="45.59525746113356" lon="10.82357857787448"><ele>276.3333333333333</ele><time>2026-04-26T08:18:23Z</time></trkpt><trkpt lat="45.59519833420048" lon="10.823676209344663"><ele>275.66666666666663</ele><time>2026-04-26T08:18:25Z</time></trkpt><trkpt lat="45.595140953729086" lon="10.82373413239091"><ele>275.0</ele><time>2026-04-26T08:18:27Z</time></trkpt><trkpt lat="45.59508507973295" lon="10.823812300258975"><ele>274.3333333333333</ele><time>2026-04-26T08:18:29Z</time></trkpt><trkpt lat="45.59501645351192" lon="10.823912915187316"><ele>273.6666666666667</ele><time>2026-04-26T08:18:31Z</time></trkpt><trkpt lat="45.594975507413004" lon="10.823985512225834"><ele>273.0</ele><time>2026-04-26T08:18:33Z</time></trkpt><trkpt lat="45.59492363328986" lon="10.824055272476803"><ele>273.0</ele><time>2026-04-26T08:18:35Z</time></trkpt><trkpt lat="45.59486455592804" lon="10.824105455591374"><ele>273.0</ele><time>2026-04-26T08:18:37Z</time></trkpt><trkpt lat="45.59478913387625" lon="10.824157162363873"><ele>273.0</ele><time>2026-04-26T08:18:39Z</time></trkpt><trkpt lat="45.59472047351078" lon="10.824187802551045"><ele>273.0</ele><time>2026-04-26T08:18:41Z</time></trkpt><trkpt lat="45.59462870487664" lon="10.824214232475118"><ele>273.0</ele><time>2026-04-26T08:18:43Z</time></trkpt><trkpt lat="45.59456014589094" lon="10.824255361354828"><ele>273.0</ele><time>2026-04-26T08:18:45Z</time></trkpt><trkpt lat="45.59447723766237" lon="10.824292400822292"><ele>271.8</ele><time>2026-04-26T08:18:47Z</time></trkpt><trkpt lat="45.594358331180544" lon="10.824271990165284"><ele>270.6</ele><time>2026-04-26T08:18:49Z</time></trkpt><trkpt lat="45.5942773610188" lon="10.824232254965244"><ele>269.4</ele><time>2026-04-26T08:18:50Z</time></trkpt><trkpt lat="45.59420221317038" lon="10.824178620489567"><ele>268.2</ele><time>2026-04-26T08:18:51Z</time></trkpt><trkpt lat="45.59411692767607" lon="10.82413498703583"><ele>267.0</ele><time>2026-04-26T08:18:52Z</time></trkpt><trkpt lat="45.594043360698564" lon="10.8240912920381"><ele>267.0</ele><time>2026-04-26T08:18:53Z</time></trkpt><trkpt lat="45.59396555626288" lon="10.823963122544006"><ele>267.0</ele><time>2026-04-26T08:18:55Z</time></trkpt><trkpt lat="45.59388853129447" lon="10.823835335749484"><ele>267.0</ele><time>2026-04-26T08:18:57Z</time></trkpt><trkpt lat="45.59383366314877" lon="10.823770966470223"><ele>267.0</ele><time>2026-04-26T08:18:58Z</time></trkpt><trkpt lat="45.593782489124735" lon="10.823709864891962"><ele>267.0</ele><time>2026-04-26T08:18:59Z</time></trkpt><trkpt lat="45.59371003117805" lon="10.823653868112483"><ele>267.6</ele><time>2026-04-26T08:19:00Z</time></trkpt><trkpt lat="45.5936383375036" lon="10.823599485319724"><ele>268.2</ele><time>2026-04-26T08:19:00.999Z</time></trkpt><trkpt lat="45.59354534761688" lon="10.823539237692556"><ele>268.8</ele><time>2026-04-26T08:19:01.999Z</time></trkpt><trkpt lat="45.59344509393496" lon="10.823471174221812"><ele>269.4</ele><time>2026-04-26T08:19:02.999Z</time></trkpt><trkpt lat="45.59335765771755" lon="10.823412578100454"><ele>270.0</ele><time>2026-04-26T08:19:03.999Z</time></trkpt><trkpt lat="45.59327379260675" lon="10.82335895604"><ele>266.8</ele><time>2026-04-26T08:19:04.999Z</time></trkpt><trkpt lat="45.593197788112064" lon="10.823316424665606"><ele>263.6</ele><time>2026-04-26T08:19:05.999Z</time></trkpt><trkpt lat="45.59312611322858" lon="10.823274077627937"><ele>260.4</ele><time>2026-04-26T08:19:06.999Z</time></trkpt><trkpt lat="45.593012805720136" lon="10.82319833076078"><ele>257.2</ele><time>2026-04-26T08:19:08.999Z</time></trkpt><trkpt lat="45.5929388952494" lon="10.823179420043436"><ele>254.0</ele><time>2026-04-26T08:19:09.999Z</time></trkpt><trkpt lat="45.59284741287204" lon="10.82319078649764"><ele>254.16666666666669</ele><time>2026-04-26T08:19:10.999Z</time></trkpt><trkpt lat="45.59277084840324" lon="10.823187725912831"><ele>254.33333333333334</ele><time>2026-04-26T08:19:11.999Z</time></trkpt><trkpt lat="45.59270145709573" lon="10.823168809108186"><ele>254.5</ele><time>2026-04-26T08:19:12.999Z</time></trkpt><trkpt lat="45.592642025154944" lon="10.82313364767253"><ele>254.66666666666669</ele><time>2026-04-26T08:19:13.999Z</time></trkpt><trkpt lat="45.59257878258246" lon="10.823080384359107"><ele>254.83333333333334</ele><time>2026-04-26T08:19:14.999Z</time></trkpt><trkpt lat="45.59248260652515" lon="10.822970360948453"><ele>255.0</ele><time>2026-04-26T08:19:16.999Z</time></trkpt><trkpt lat="45.592413404442354" lon="10.82286820688361"><ele>255.0</ele><time>2026-04-26T08:19:18.999Z</time></trkpt><trkpt lat="45.59241894363528" lon="10.822776208594593"><ele>255.0</ele><time>2026-04-26T08:19:19.999Z</time></trkpt><trkpt lat="45.59243698486734" lon="10.822628723598841"><ele>255.0</ele><time>2026-04-26T08:19:20.999Z</time></trkpt><trkpt lat="45.59247234675688" lon="10.822473767458877"><ele>255.0</ele><time>2026-04-26T08:19:21.999Z</time></trkpt><trkpt lat="45.59249305869205" lon="10.822351081993286"><ele>255.0</ele><time>2026-04-26T08:19:22.999Z</time></trkpt><trkpt lat="45.59250553358098" lon="10.822261162529445"><ele>255.0</ele><time>2026-04-26T08:19:23.999Z</time></trkpt><trkpt lat="45.59246701104588" lon="10.822189529464781"><ele>251.75</ele><time>2026-04-26T08:19:25.999Z</time></trkpt><trkpt lat="45.59235178564929" lon="10.822165578947038"><ele>248.5</ele><time>2026-04-26T08:19:27.999Z</time></trkpt><trkpt lat="45.59225115931476" lon="10.82217321963116"><ele>245.25</ele><time>2026-04-26T08:19:28.999Z</time></trkpt><trkpt lat="45.592116173058464" lon="10.822167680733415"><ele>242.0</ele><time>2026-04-26T08:19:29.999Z</time></trkpt><trkpt lat="45.59197359639952" lon="10.822142651881771"><ele>241.6</ele><time>2026-04-26T08:19:30.999Z</time></trkpt><trkpt lat="45.5918480572084" lon="10.822120410742077"><ele>241.2</ele><time>2026-04-26T08:19:31.999Z</time></trkpt><trkpt lat="45.59174134232459" lon="10.822108105518065"><ele>240.8</ele><time>2026-04-26T08:19:32.999Z</time></trkpt><trkpt lat="45.59163933745904" lon="10.822107862982065"><ele>240.4</ele><time>2026-04-26T08:19:33.999Z</time></trkpt><trkpt lat="45.59154495952188" lon="10.82213028226239"><ele>240.0</ele><time>2026-04-26T08:19:34.999Z</time></trkpt><trkpt lat="45.5914507543609" lon="10.822147907996145"><ele>240.0</ele><time>2026-04-26T08:19:35.999Z</time></trkpt><trkpt lat="45.59136704707501" lon="10.82214965483696"><ele>240.0</ele><time>2026-04-26T08:19:36.999Z</time></trkpt><trkpt lat="45.59128673747212" lon="10.822120341697971"><ele>240.0</ele><time>2026-04-26T08:19:37.999Z</time></trkpt><trkpt lat="45.59118639329096" lon="10.822061486083365"><ele>240.0</ele><time>2026-04-26T08:19:38.999Z</time></trkpt><trkpt lat="45.591061978067074" lon="10.821993664877096"><ele>240.0</ele><time>2026-04-26T08:19:39.999Z</time></trkpt><trkpt lat="45.59094049228141" lon="10.821944370506884"><ele>239.75</ele><time>2026-04-26T08:19:40.999Z</time></trkpt><trkpt lat="45.590827012540906" lon="10.821896413610549"><ele>239.5</ele><time>2026-04-26T08:19:41.999Z</time></trkpt><trkpt lat="45.590719839149166" lon="10.82185886507834"><ele>239.25</ele><time>2026-04-26T08:19:42.999Z</time></trkpt><trkpt lat="45.59061039441395" lon="10.821818695422289"><ele>239.0</ele><time>2026-04-26T08:19:43.999Z</time></trkpt><trkpt lat="45.59050649837939" lon="10.821769050429111"><ele>235.5</ele><time>2026-04-26T08:19:44.999Z</time></trkpt><trkpt lat="45.590403238563816" lon="10.821724173390502"><ele>232.0</ele><time>2026-04-26T08:19:45.999Z</time></trkpt><trkpt lat="45.59028985506827" lon="10.821686054738798"><ele>228.5</ele><time>2026-04-26T08:19:46.999Z</time></trkpt><trkpt lat="45.59017362093168" lon="10.821654850810173"><ele>225.0</ele><time>2026-04-26T08:19:47.999Z</time></trkpt><trkpt lat="45.590055230793304" lon="10.821626564767604"><ele>224.8</ele><time>2026-04-26T08:19:48.999Z</time></trkpt><trkpt lat="45.58994363886641" lon="10.821591862254385"><ele>224.6</ele><time>2026-04-26T08:19:49.999Z</time></trkpt><trkpt lat="45.58983441467167" lon="10.821554300186005"><ele>224.39999999999998</ele><time>2026-04-26T08:19:50.999Z</time></trkpt><trkpt lat="45.58972899053297" lon="10.821525474660689"><ele>224.2</ele><time>2026-04-26T08:19:51.999Z</time></trkpt><trkpt lat="45.58962377935195" lon="10.821523522533903"><ele>224.0</ele><time>2026-04-26T08:19:52.999Z</time></trkpt><trkpt lat="45.58952039010925" lon="10.821550721675507"><ele>223.6</ele><time>2026-04-26T08:19:53.999Z</time></trkpt><trkpt lat="45.58942175699776" lon="10.821589185758084"><ele>223.2</ele><time>2026-04-26T08:19:54.999Z</time></trkpt><trkpt lat="45.58932587256035" lon="10.821610064270995"><ele>222.79999999999998</ele><time>2026-04-26T08:19:55.999Z</time></trkpt><trkpt lat="45.58923404376189" lon="10.82162654440161"><ele>222.39999999999998</ele><time>2026-04-26T08:19:56.999Z</time></trkpt><trkpt lat="45.58914765133998" lon="10.821644678487345"><ele>222.0</ele><time>2026-04-26T08:19:57.999Z</time></trkpt><trkpt lat="45.58907544647515" lon="10.821664923118146"><ele>222.0</ele><time>2026-04-26T08:19:58.999Z</time></trkpt><trkpt lat="45.588980785177334" lon="10.821686886423295"><ele>222.0</ele><time>2026-04-26T08:19:59.999Z</time></trkpt><trkpt lat="45.58889209940844" lon="10.821712171031923"><ele>222.0</ele><time>2026-04-26T08:20:00.999Z</time></trkpt><trkpt lat="45.58881538069634" lon="10.821731256003174"><ele>222.0</ele><time>2026-04-26T08:20:01.999Z</time></trkpt><trkpt lat="45.58873641679585" lon="10.821751199344105"><ele>222.0</ele><time>2026-04-26T08:20:02.999Z</time></trkpt><trkpt lat="45.58866849728853" lon="10.821768523912631"><ele>222.0</ele><time>2026-04-26T08:20:03.999Z</time></trkpt><trkpt lat="45.58860107281672" lon="10.821777993250493"><ele>221.42857142857142</ele><time>2026-04-26T08:20:04.999Z</time></trkpt><trkpt lat="45.58852816852218" lon="10.821780527324645"><ele>220.85714285714286</ele><time>2026-04-26T08:20:05.999Z</time></trkpt><trkpt lat="45.588449927071686" lon="10.821773059062812"><ele>220.28571428571428</ele><time>2026-04-26T08:20:06.999Z</time></trkpt><trkpt lat="45.5883839881947" lon="10.821760373770257"><ele>219.71428571428572</ele><time>2026-04-26T08:20:07.999Z</time></trkpt><trkpt lat="45.58831002547305" lon="10.821748958117611"><ele>219.14285714285717</ele><time>2026-04-26T08:20:08.999Z</time></trkpt><trkpt lat="45.58822268888789" lon="10.82172379105487"><ele>218.57142857142858</ele><time>2026-04-26T08:20:09.999Z</time></trkpt><trkpt lat="45.58815849363848" lon="10.821703500430724"><ele>218.0</ele><time>2026-04-26T08:20:10.999Z</time></trkpt><trkpt lat="45.588079951165916" lon="10.821684933259224"><ele>218.00000000000003</ele><time>2026-04-26T08:20:11.999Z</time></trkpt><trkpt lat="45.58799789963127" lon="10.821663498227887"><ele>218.0</ele><time>2026-04-26T08:20:12.999Z</time></trkpt><trkpt lat="45.58790521445774" lon="10.821638435452723"><ele>218.0</ele><time>2026-04-26T08:20:13.999Z</time></trkpt><trkpt lat="45.58783977426137" lon="10.821607966725985"><ele>218.0</ele><time>2026-04-26T08:20:15.999Z</time></trkpt><trkpt lat="45.58777459600862" lon="10.82159728370727"><ele>218.00000000000003</ele><time>2026-04-26T08:20:16.999Z</time></trkpt><trkpt lat="45.58769986227973" lon="10.82158423779919"><ele>218.0</ele><time>2026-04-26T08:20:17.999Z</time></trkpt><trkpt lat="45.587620528478524" lon="10.821567647144436"><ele>217.50000000000003</ele><time>2026-04-26T08:20:18.999Z</time></trkpt><trkpt lat="45.587556071210045" lon="10.821559219867222"><ele>217.0</ele><time>2026-04-26T08:20:19.999Z</time></trkpt><trkpt lat="45.587440024611816" lon="10.821551449946561"><ele>216.5</ele><time>2026-04-26T08:20:21.999Z</time></trkpt><trkpt lat="45.58735644715051" lon="10.821546507116281"><ele>216.0</ele><time>2026-04-26T08:20:23.999Z</time></trkpt><trkpt lat="45.587294008600914" lon="10.82150929833044"><ele>215.50000000000003</ele><time>2026-04-26T08:20:25.999Z</time></trkpt><trkpt lat="45.587285571003186" lon="10.821386495170126"><ele>215.0</ele><time>2026-04-26T08:20:28Z</time></trkpt><trkpt lat="45.58729312570498" lon="10.821294824597318"><ele>215.0</ele><time>2026-04-26T08:20:29Z</time></trkpt><trkpt lat="45.58723434324821" lon="10.821190368815726"><ele>215.0</ele><time>2026-04-26T08:20:31Z</time></trkpt><trkpt lat="45.587134444876234" lon="10.821152862092614"><ele>215.0</ele><time>2026-04-26T08:20:33Z</time></trkpt><trkpt lat="45.58700773495943" lon="10.82111066145981"><ele>215.0</ele><time>2026-04-26T08:20:35Z</time></trkpt><trkpt lat="45.58694118075339" lon="10.821064009157167"><ele>215.0</ele><time>2026-04-26T08:20:36Z</time></trkpt><trkpt lat="45.58684943531438" lon="10.820985557510419"><ele>212.0</ele><time>2026-04-26T08:20:38Z</time></trkpt><trkpt lat="45.58678466492834" lon="10.820950881579979"><ele>209.0</ele><time>2026-04-26T08:20:39Z</time></trkpt><trkpt lat="45.58673629699906" lon="10.820817140006273"><ele>206.0</ele><time>2026-04-26T08:20:41Z</time></trkpt><trkpt lat="45.586755275368354" lon="10.820729653111494"><ele>203.0</ele><time>2026-04-26T08:20:42Z</time></trkpt><trkpt lat="45.58682824953574" lon="10.820645371455958"><ele>200.0</ele><time>2026-04-26T08:20:44Z</time></trkpt><trkpt lat="45.58695375376397" lon="10.820638405778759"><ele>200.0</ele><time>2026-04-26T08:20:46Z</time></trkpt><trkpt lat="45.587052680084994" lon="10.820608423942787"><ele>200.0</ele><time>2026-04-26T08:20:48Z</time></trkpt><trkpt lat="45.587124745434025" lon="10.82052322824332"><ele>200.0</ele><time>2026-04-26T08:20:50Z</time></trkpt><trkpt lat="45.58711016809736" lon="10.820420310608924"><ele>200.0</ele><time>2026-04-26T08:20:52Z</time></trkpt><trkpt lat="45.58702018602268" lon="10.820320315561826"><ele>200.0</ele><time>2026-04-26T08:20:54Z</time></trkpt><trkpt lat="45.58691859961205" lon="10.820259900499055"><ele>200.0</ele><time>2026-04-26T08:20:56Z</time></trkpt><trkpt lat="45.58683044620302" lon="10.82023385399227"><ele>200.0</ele><time>2026-04-26T08:20:58Z</time></trkpt><trkpt lat="45.586764679981925" lon="10.82012690523614"><ele>200.0</ele><time>2026-04-26T08:21:00Z</time></trkpt><trkpt lat="45.586755327872716" lon="10.82003217375571"><ele>200.0</ele><time>2026-04-26T08:21:01Z</time></trkpt><trkpt lat="45.586755670576565" lon="10.819848651990165"><ele>200.0</ele><time>2026-04-26T08:21:03Z</time></trkpt><trkpt lat="45.5867464496704" lon="10.819721297990222"><ele>199.2</ele><time>2026-04-26T08:21:04Z</time></trkpt><trkpt lat="45.58674394419614" lon="10.81961356048384"><ele>198.4</ele><time>2026-04-26T08:21:05Z</time></trkpt><trkpt lat="45.5867402928839" lon="10.819457279051313"><ele>197.60000000000002</ele><time>2026-04-26T08:21:07Z</time></trkpt><trkpt lat="45.58674196761115" lon="10.819365884215943"><ele>196.8</ele><time>2026-04-26T08:21:08Z</time></trkpt><trkpt lat="45.586747870297216" lon="10.819169630125083"><ele>196.0</ele><time>2026-04-26T08:21:10Z</time></trkpt><trkpt lat="45.586735869609655" lon="10.81906060403013"><ele>195.66666666666666</ele><time>2026-04-26T08:21:11Z</time></trkpt><trkpt lat="45.58673113973288" lon="10.818952511185497"><ele>195.33333333333331</ele><time>2026-04-26T08:21:12Z</time></trkpt><trkpt lat="45.586727561911744" lon="10.818854710961384"><ele>195.0</ele><time>2026-04-26T08:21:13Z</time></trkpt><trkpt lat="45.58672995030814" lon="10.81876270320961"><ele>194.66666666666669</ele><time>2026-04-26T08:21:14Z</time></trkpt><trkpt lat="45.586725544395826" lon="10.818587717765752"><ele>194.33333333333334</ele><time>2026-04-26T08:21:16Z</time></trkpt><trkpt lat="45.58672047155193" lon="10.818477273634427"><ele>194.0</ele><time>2026-04-26T08:21:17Z</time></trkpt><trkpt lat="45.58672331276277" lon="10.81838153067628"><ele>194.0</ele><time>2026-04-26T08:21:18Z</time></trkpt><trkpt lat="45.586719256484486" lon="10.818208304012629"><ele>194.0</ele><time>2026-04-26T08:21:20Z</time></trkpt><trkpt lat="45.58669467514564" lon="10.818094740063893"><ele>194.0</ele><time>2026-04-26T08:21:21Z</time></trkpt><trkpt lat="45.58665887910686" lon="10.817970844419582"><ele>194.0</ele><time>2026-04-26T08:21:22Z</time></trkpt><trkpt lat="45.58663622054181" lon="10.817840903501562"><ele>194.0</ele><time>2026-04-26T08:21:23Z</time></trkpt><trkpt lat="45.58661532928412" lon="10.817716292677995"><ele>193.79999999999998</ele><time>2026-04-26T08:21:24Z</time></trkpt><trkpt lat="45.58661194040586" lon="10.817572479752018"><ele>193.6</ele><time>2026-04-26T08:21:25Z</time></trkpt><trkpt lat="45.586623143681976" lon="10.81743024603716"><ele>193.4</ele><time>2026-04-26T08:21:26Z</time></trkpt><trkpt lat="45.58663594894222" lon="10.817303819294587"><ele>193.2</ele><time>2026-04-26T08:21:27Z</time></trkpt><trkpt lat="45.58663382850789" lon="10.817191975041714"><ele>193.0</ele><time>2026-04-26T08:21:28Z</time></trkpt><trkpt lat="45.58663879844969" lon="10.817059405449903"><ele>193.0</ele><time>2026-04-26T08:21:29Z</time></trkpt><trkpt lat="45.58665041128059" lon="10.816925994383963"><ele>193.0</ele><time>2026-04-26T08:21:30Z</time></trkpt><trkpt lat="45.586659907502174" lon="10.816766683591007"><ele>193.0</ele><time>2026-04-26T08:21:31Z</time></trkpt><trkpt lat="45.58656931970062" lon="10.81678753907517"><ele>193.0</ele><time>2026-04-26T08:21:32Z</time></trkpt><trkpt lat="45.58650077641643" lon="10.81666149268256"><ele>193.0</ele><time>2026-04-26T08:21:33Z</time></trkpt><trkpt lat="45.58640777538531" lon="10.816525799723983"><ele>192.25</ele><time>2026-04-26T08:21:34Z</time></trkpt><trkpt lat="45.58631361188812" lon="10.816378708266937"><ele>191.5</ele><time>2026-04-26T08:21:35Z</time></trkpt><trkpt lat="45.58622404294945" lon="10.816224533372933"><ele>190.75</ele><time>2026-04-26T08:21:36Z</time></trkpt><trkpt lat="45.58613446741995" lon="10.816080652372857"><ele>190.0</ele><time>2026-04-26T08:21:37Z</time></trkpt><trkpt lat="45.586036141142245" lon="10.815933255143555"><ele>188.66666666666669</ele><time>2026-04-26T08:21:38Z</time></trkpt><trkpt lat="45.58590938857424" lon="10.815730407468228"><ele>187.33333333333334</ele><time>2026-04-26T08:21:39Z</time></trkpt><trkpt lat="45.58577587323648" lon="10.81551800074288"><ele>186.0</ele><time>2026-04-26T08:21:40Z</time></trkpt><trkpt lat="45.58566579007432" lon="10.815339018187439"><ele>186.0</ele><time>2026-04-26T08:21:41Z</time></trkpt><trkpt lat="45.58556488043071" lon="10.815181890048049"><ele>186.0</ele><time>2026-04-26T08:21:42Z</time></trkpt><trkpt lat="45.58547220393793" lon="10.815033164754459"><ele>186.0</ele><time>2026-04-26T08:21:43Z</time></trkpt><trkpt lat="45.58539127441886" lon="10.81490285273413"><ele>186.0</ele><time>2026-04-26T08:21:44Z</time></trkpt><trkpt lat="45.58531085442186" lon="10.814773869460614"><ele>185.8</ele><time>2026-04-26T08:21:45Z</time></trkpt><trkpt lat="45.58523417653093" lon="10.814658064789887"><ele>185.60000000000002</ele><time>2026-04-26T08:21:46Z</time></trkpt><trkpt lat="45.58516589625781" lon="10.814543556613003"><ele>185.4</ele><time>2026-04-26T08:21:47Z</time></trkpt><trkpt lat="45.58510662385016" lon="10.814432113706724"><ele>185.2</ele><time>2026-04-26T08:21:48Z</time></trkpt><trkpt lat="45.58505052580622" lon="10.81432199797901"><ele>185.0</ele><time>2026-04-26T08:21:49Z</time></trkpt><trkpt lat="45.58499756414794" lon="10.814219049174177"><ele>185.0</ele><time>2026-04-26T08:21:50Z</time></trkpt><trkpt lat="45.58494850105567" lon="10.814127142145399"><ele>185.0</ele><time>2026-04-26T08:21:51Z</time></trkpt><trkpt lat="45.584906865306635" lon="10.814054363489193"><ele>185.0</ele><time>2026-04-26T08:21:52Z</time></trkpt><trkpt lat="45.58482933884102" lon="10.813949756176932"><ele>185.0</ele><time>2026-04-26T08:21:53.999Z</time></trkpt><trkpt lat="45.58476782567055" lon="10.813903407386396"><ele>185.0</ele><time>2026-04-26T08:21:55.999Z</time></trkpt><trkpt lat="45.58469790537964" lon="10.813945937847341"><ele>185.0</ele><time>2026-04-26T08:21:58.999Z</time></trkpt><trkpt lat="45.584712767214036" lon="10.8140339282083"><ele>185.0</ele><time>2026-04-26T08:22:00.999Z</time></trkpt><trkpt lat="45.58476955415664" lon="10.814179044480529"><ele>185.0</ele><time>2026-04-26T08:22:39Z</time></trkpt><trkpt lat="45.584805851400525" lon="10.81428647561329"><ele>185.0</ele><time>2026-04-26T08:22:40Z</time></trkpt><trkpt lat="45.58484934333966" lon="10.814421696742832"><ele>185.0</ele><time>2026-04-26T08:22:41Z</time></trkpt><trkpt lat="45.58489003863293" lon="10.814568723888792"><ele>185.0</ele><time>2026-04-26T08:22:42Z</time></trkpt><trkpt lat="45.58492675932701" lon="10.814747280881203"><ele>184.0</ele><time>2026-04-26T08:22:43Z</time></trkpt><trkpt lat="45.58494677584199" lon="10.814929650752736"><ele>183.0</ele><time>2026-04-26T08:22:44Z</time></trkpt><trkpt lat="45.58493665636444" lon="10.815138152253917"><ele>182.0</ele><time>2026-04-26T08:22:45Z</time></trkpt><trkpt lat="45.5849005130031" lon="10.815360623017346"><ele>181.0</ele><time>2026-04-26T08:22:46Z</time></trkpt><trkpt lat="45.584859656737436" lon="10.815588173743926"><ele>181.0</ele><time>2026-04-26T08:22:47Z</time></trkpt><trkpt lat="45.58480392128381" lon="10.815805713038385"><ele>181.0</ele><time>2026-04-26T08:22:48Z</time></trkpt><trkpt lat="45.584717695721665" lon="10.816038218644175"><ele>181.0</ele><time>2026-04-26T08:22:49Z</time></trkpt><trkpt lat="45.58461203563152" lon="10.816229896582213"><ele>179.0</ele><time>2026-04-26T08:22:50Z</time></trkpt><trkpt lat="45.584504727754" lon="10.81638892292702"><ele>177.0</ele><time>2026-04-26T08:22:51Z</time></trkpt><trkpt lat="45.58440096445422" lon="10.81654524043497"><ele>175.0</ele><time>2026-04-26T08:22:52Z</time></trkpt><trkpt lat="45.58431374389798" lon="10.816697971520155"><ele>173.0</ele><time>2026-04-26T08:22:53Z</time></trkpt><trkpt lat="45.58423371229676" lon="10.81684698712287"><ele>173.0</ele><time>2026-04-26T08:22:54Z</time></trkpt><trkpt lat="45.584167393811455" lon="10.817023009071436"><ele>173.0</ele><time>2026-04-26T08:22:55Z</time></trkpt><trkpt lat="45.584132642242835" lon="10.817239591461044"><ele>173.0</ele><time>2026-04-26T08:22:56Z</time></trkpt><trkpt lat="45.58413531208693" lon="10.81750437989557"><ele>171.33333333333331</ele><time>2026-04-26T08:22:57Z</time></trkpt><trkpt lat="45.584150023382314" lon="10.817816549651884"><ele>169.66666666666666</ele><time>2026-04-26T08:22:58Z</time></trkpt><trkpt lat="45.58414265823533" lon="10.81808595375639"><ele>168.0</ele><time>2026-04-26T08:22:59Z</time></trkpt><trkpt lat="45.58411387751591" lon="10.818327154536048"><ele>167.0</ele><time>2026-04-26T08:23:00Z</time></trkpt><trkpt lat="45.58408745820266" lon="10.818576946046543"><ele>166.0</ele><time>2026-04-26T08:23:01Z</time></trkpt><trkpt lat="45.584075174152275" lon="10.818816690438101"><ele>165.0</ele><time>2026-04-26T08:23:02Z</time></trkpt><trkpt lat="45.58408037980882" lon="10.819053115042669"><ele>165.0</ele><time>2026-04-26T08:23:03Z</time></trkpt><trkpt lat="45.58410780994383" lon="10.819279036731656"><ele>165.0</ele><time>2026-04-26T08:23:04Z</time></trkpt><trkpt lat="45.58415559456448" lon="10.819478935026327"><ele>165.0</ele><time>2026-04-26T08:23:05Z</time></trkpt><trkpt lat="45.58421040914223" lon="10.819690557913532"><ele>164.2</ele><time>2026-04-26T08:23:06Z</time></trkpt><trkpt lat="45.58425628316412" lon="10.819872057313091"><ele>163.4</ele><time>2026-04-26T08:23:07Z</time></trkpt><trkpt lat="45.584280485489494" lon="10.820044511823632"><ele>162.60000000000002</ele><time>2026-04-26T08:23:08Z</time></trkpt><trkpt lat="45.58427135722332" lon="10.820179651616522"><ele>161.8</ele><time>2026-04-26T08:23:09Z</time></trkpt><trkpt lat="45.58423030302773" lon="10.820283389097227"><ele>161.0</ele><time>2026-04-26T08:23:10Z</time></trkpt><trkpt lat="45.58414805419801" lon="10.820326193862037"><ele>161.0</ele><time>2026-04-26T08:23:11Z</time></trkpt><trkpt lat="45.58405253931747" lon="10.820288819239419"><ele>161.0</ele><time>2026-04-26T08:23:12Z</time></trkpt><trkpt lat="45.583968265742385" lon="10.820177416158426"><ele>161.0</ele><time>2026-04-26T08:23:13Z</time></trkpt><trkpt lat="45.5838879529457" lon="10.820005764322218"><ele>161.0</ele><time>2026-04-26T08:23:14Z</time></trkpt><trkpt lat="45.58379638842166" lon="10.81978173227971"><ele>161.0</ele><time>2026-04-26T08:23:15Z</time></trkpt><trkpt lat="45.583722542663075" lon="10.819553078534971"><ele>161.0</ele><time>2026-04-26T08:23:16Z</time></trkpt><trkpt lat="45.58367110848733" lon="10.81928814607244"><ele>161.0</ele><time>2026-04-26T08:23:17Z</time></trkpt><trkpt lat="45.58364395977601" lon="10.819028653043723"><ele>157.25</ele><time>2026-04-26T08:23:18Z</time></trkpt><trkpt lat="45.583626785963425" lon="10.818816152231292"><ele>153.5</ele><time>2026-04-26T08:23:19Z</time></trkpt><trkpt lat="45.58358880326703" lon="10.818627248517913"><ele>149.75</ele><time>2026-04-26T08:23:20Z</time></trkpt><trkpt lat="45.58352844640747" lon="10.818499921410496"><ele>146.0</ele><time>2026-04-26T08:23:21Z</time></trkpt><trkpt lat="45.58343761308403" lon="10.818435930482648"><ele>146.0</ele><time>2026-04-26T08:23:22Z</time></trkpt><trkpt lat="45.58333326054439" lon="10.818446220128493"><ele>146.0</ele><time>2026-04-26T08:23:23Z</time></trkpt><trkpt lat="45.58325255021108" lon="10.818537532781672"><ele>146.0</ele><time>2026-04-26T08:23:24Z</time></trkpt><trkpt lat="45.58320878401728" lon="10.818683272269144"><ele>146.0</ele><time>2026-04-26T08:23:25Z</time></trkpt><trkpt lat="45.58322218185817" lon="10.818861166963945"><ele>146.0</ele><time>2026-04-26T08:23:26Z</time></trkpt><trkpt lat="45.583259331914704" lon="10.819036185062874"><ele>146.0</ele><time>2026-04-26T08:23:27Z</time></trkpt><trkpt lat="45.58329053989587" lon="10.819227584916355"><ele>146.0</ele><time>2026-04-26T08:23:28Z</time></trkpt><trkpt lat="45.58329186368045" lon="10.819420406694576"><ele>146.0</ele><time>2026-04-26T08:23:29Z</time></trkpt><trkpt lat="45.583263939867294" lon="10.81960413838379"><ele>146.0</ele><time>2026-04-26T08:23:30Z</time></trkpt><trkpt lat="45.58321207351869" lon="10.819767294185034"><ele>144.25</ele><time>2026-04-26T08:23:31Z</time></trkpt><trkpt lat="45.58313780190538" lon="10.81992326547106"><ele>142.5</ele><time>2026-04-26T08:23:32Z</time></trkpt><trkpt lat="45.58304969612511" lon="10.820058525778562"><ele>140.75</ele><time>2026-04-26T08:23:33Z</time></trkpt><trkpt lat="45.58295469188594" lon="10.82017446326035"><ele>139.0</ele><time>2026-04-26T08:23:34Z</time></trkpt><trkpt lat="45.58288320499951" lon="10.820315435059472"><ele>137.66666666666669</ele><time>2026-04-26T08:23:35Z</time></trkpt><trkpt lat="45.58285150034973" lon="10.82051669288737"><ele>136.33333333333334</ele><time>2026-04-26T08:23:36Z</time></trkpt><trkpt lat="45.58283536561543" lon="10.820756428828027"><ele>135.0</ele><time>2026-04-26T08:23:37Z</time></trkpt><trkpt lat="45.58283666969127" lon="10.821005481889733"><ele>133.0</ele><time>2026-04-26T08:23:38Z</time></trkpt><trkpt lat="45.58286422936601" lon="10.821276081505152"><ele>131.0</ele><time>2026-04-26T08:23:39Z</time></trkpt><trkpt lat="45.58291425076898" lon="10.821580136659149"><ele>129.0</ele><time>2026-04-26T08:23:40Z</time></trkpt><trkpt lat="45.582973257994105" lon="10.821906946218295"><ele>126.0</ele><time>2026-04-26T08:23:41Z</time></trkpt><trkpt lat="45.5830310800279" lon="10.822249650233859"><ele>123.0</ele><time>2026-04-26T08:23:42Z</time></trkpt><trkpt lat="45.58308208431102" lon="10.822565342232345"><ele>122.0</ele><time>2026-04-26T08:23:43Z</time></trkpt><trkpt lat="45.583124177199096" lon="10.822841945286642"><ele>121.0</ele><time>2026-04-26T08:23:44Z</time></trkpt><trkpt lat="45.583163141404675" lon="10.823076926662505"><ele>120.0</ele><time>2026-04-26T08:23:45Z</time></trkpt><trkpt lat="45.58320891519352" lon="10.823256730368394"><ele>120.0</ele><time>2026-04-26T08:23:46Z</time></trkpt><trkpt lat="45.58327801597857" lon="10.823395899028876"><ele>120.0</ele><time>2026-04-26T08:23:47Z</time></trkpt><trkpt lat="45.58338527972281" lon="10.823500209332131"><ele>120.0</ele><time>2026-04-26T08:23:48Z</time></trkpt><trkpt lat="45.58354338631231" lon="10.823573088248267"><ele>120.0</ele><time>2026-04-26T08:23:49Z</time></trkpt><trkpt lat="45.58374231711908" lon="10.823617795676983"><ele>116.33333333333334</ele><time>2026-04-26T08:23:50Z</time></trkpt><trkpt lat="45.5839592649646" lon="10.823665569438553"><ele>112.66666666666667</ele><time>2026-04-26T08:23:51Z</time></trkpt><trkpt lat="45.58414543982558" lon="10.82372801044689"><ele>109.0</ele><time>2026-04-26T08:23:52Z</time></trkpt><trkpt lat="45.584318219727265" lon="10.823795905241854"><ele>109.0</ele><time>2026-04-26T08:23:53Z</time></trkpt><trkpt lat="45.584471835458096" lon="10.823882480718442"><ele>109.0</ele><time>2026-04-26T08:23:54Z</time></trkpt><trkpt lat="45.5845746847526" lon="10.824010669130779"><ele>109.0</ele><time>2026-04-26T08:23:55Z</time></trkpt><trkpt lat="45.58465285353688" lon="10.824207592370675"><ele>118.66666666666667</ele><time>2026-04-26T08:23:56Z</time></trkpt><trkpt lat="45.58473456781201" lon="10.824459563094619"><ele>128.33333333333334</ele><time>2026-04-26T08:23:57Z</time></trkpt><trkpt lat="45.58482506060686" lon="10.82472557833032"><ele>138.0</ele><time>2026-04-26T08:23:58Z</time></trkpt><trkpt lat="45.584915852523785" lon="10.824985984737541"><ele>129.0</ele><time>2026-04-26T08:23:59Z</time></trkpt><trkpt lat="45.585013257429694" lon="10.825261429946853"><ele>120.0</ele><time>2026-04-26T08:24:00Z</time></trkpt><trkpt lat="45.58511669817842" lon="10.825554460122728"><ele>111.0</ele><time>2026-04-26T08:24:01Z</time></trkpt><trkpt lat="45.58522220290808" lon="10.825851410376668"><ele>108.0</ele><time>2026-04-26T08:24:02Z</time></trkpt><trkpt lat="45.58531691714564" lon="10.826122221875973"><ele>105.0</ele><time>2026-04-26T08:24:03Z</time></trkpt><trkpt lat="45.58539212064259" lon="10.826343299897621"><ele>102.0</ele><time>2026-04-26T08:24:04Z</time></trkpt><trkpt lat="45.58544615923571" lon="10.826507870687776"><ele>105.19999999999999</ele><time>2026-04-26T08:24:05Z</time></trkpt><trkpt lat="45.585496643388126" lon="10.826655109169506"><ele>108.4</ele><time>2026-04-26T08:24:06Z</time></trkpt><trkpt lat="45.585551706283354" lon="10.826796645999535"><ele>111.60000000000001</ele><time>2026-04-26T08:24:07Z</time></trkpt><trkpt lat="45.58561038901037" lon="10.826929223669074"><ele>114.80000000000001</ele><time>2026-04-26T08:24:08Z</time></trkpt><trkpt lat="45.585666535717024" lon="10.827045675745222"><ele>118.0</ele><time>2026-04-26T08:24:09Z</time></trkpt><trkpt lat="45.585722357830576" lon="10.827162659018576"><ele>118.0</ele><time>2026-04-26T08:24:10Z</time></trkpt><trkpt lat="45.58577859571342" lon="10.827282418095445"><ele>118.0</ele><time>2026-04-26T08:24:11Z</time></trkpt><trkpt lat="45.58584832198446" lon="10.827417298063189"><ele>118.0</ele><time>2026-04-26T08:24:12Z</time></trkpt><trkpt lat="45.5859190330706" lon="10.82759653680962"><ele>118.0</ele><time>2026-04-26T08:24:13Z</time></trkpt><trkpt lat="45.58597511245113" lon="10.827751138587743"><ele>115.60000000000001</ele><time>2026-04-26T08:24:14Z</time></trkpt><trkpt lat="45.58601496669337" lon="10.82787406875904"><ele>113.20000000000002</ele><time>2026-04-26T08:24:15Z</time></trkpt><trkpt lat="45.58604626521452" lon="10.82797032943992"><ele>110.8</ele><time>2026-04-26T08:24:16Z</time></trkpt><trkpt lat="45.586040757747796" lon="10.828146542162465"><ele>108.4</ele><time>2026-04-26T08:24:18Z</time></trkpt><trkpt lat="45.58599260394309" lon="10.828264955191592"><ele>106.0</ele><time>2026-04-26T08:24:19Z</time></trkpt><trkpt lat="45.58592488782234" lon="10.828385690039058"><ele>105.25</ele><time>2026-04-26T08:24:20Z</time></trkpt><trkpt lat="45.5859009226465" lon="10.828513108085971"><ele>104.5</ele><time>2026-04-26T08:24:21Z</time></trkpt><trkpt lat="45.585924866245236" lon="10.828682706838663"><ele>103.75</ele><time>2026-04-26T08:24:22Z</time></trkpt><trkpt lat="45.585952607353356" lon="10.82889040812709"><ele>103.0</ele><time>2026-04-26T08:24:23Z</time></trkpt><trkpt lat="45.58597005075985" lon="10.829087160082523"><ele>103.0</ele><time>2026-04-26T08:24:23.999Z</time></trkpt><trkpt lat="45.58599159532192" lon="10.829268214118404"><ele>103.0</ele><time>2026-04-26T08:24:24.999Z</time></trkpt><trkpt lat="45.58603518786706" lon="10.8294509371903"><ele>103.0</ele><time>2026-04-26T08:24:25.999Z</time></trkpt><trkpt lat="45.58611348210996" lon="10.82961997424639"><ele>103.0</ele><time>2026-04-26T08:24:26.999Z</time></trkpt><trkpt lat="45.58619223761417" lon="10.829799159919459"><ele>105.0</ele><time>2026-04-26T08:24:27.999Z</time></trkpt><trkpt lat="45.58626812710307" lon="10.830022737674568"><ele>107.0</ele><time>2026-04-26T08:24:28.999Z</time></trkpt><trkpt lat="45.58633745389196" lon="10.83029732469864"><ele>109.0</ele><time>2026-04-26T08:24:29.999Z</time></trkpt><trkpt lat="45.586392459818704" lon="10.830561632406397"><ele>109.0</ele><time>2026-04-26T08:24:30.999Z</time></trkpt><trkpt lat="45.586447263597115" lon="10.830800770696381"><ele>109.0</ele><time>2026-04-26T08:24:31.999Z</time></trkpt><trkpt lat="45.58650766856" lon="10.831011715135716"><ele>109.0</ele><time>2026-04-26T08:24:32.999Z</time></trkpt><trkpt lat="45.586575990382634" lon="10.831211811006984"><ele>107.0</ele><time>2026-04-26T08:24:33.999Z</time></trkpt><trkpt lat="45.58666119887201" lon="10.831423214611844"><ele>105.0</ele><time>2026-04-26T08:24:34.999Z</time></trkpt><trkpt lat="45.586757741862975" lon="10.831630811797957"><ele>103.0</ele><time>2026-04-26T08:24:35.999Z</time></trkpt><trkpt lat="45.586861121483636" lon="10.831843674900293"><ele>103.0</ele><time>2026-04-26T08:24:36.999Z</time></trkpt><trkpt lat="45.586960799391555" lon="10.832021435231145"><ele>103.0</ele><time>2026-04-26T08:24:37.999Z</time></trkpt><trkpt lat="45.58708254404504" lon="10.832174668629245"><ele>103.0</ele><time>2026-04-26T08:24:38.999Z</time></trkpt><trkpt lat="45.58721568969301" lon="10.832298803626536"><ele>102.66666666666667</ele><time>2026-04-26T08:24:40Z</time></trkpt><trkpt lat="45.58734632763364" lon="10.832434792118178"><ele>102.33333333333334</ele><time>2026-04-26T08:24:41Z</time></trkpt><trkpt lat="45.587471614587486" lon="10.832595911975643"><ele>102.0</ele><time>2026-04-26T08:24:42Z</time></trkpt><trkpt lat="45.587597630955905" lon="10.832778795011501"><ele>102.0</ele><time>2026-04-26T08:24:43Z</time></trkpt><trkpt lat="45.58772435789812" lon="10.832988117828439"><ele>102.0</ele><time>2026-04-26T08:24:44Z</time></trkpt><trkpt lat="45.587841318580544" lon="10.833223341147226"><ele>102.0</ele><time>2026-04-26T08:24:45Z</time></trkpt><trkpt lat="45.58794571075278" lon="10.833459382554313"><ele>102.33333333333334</ele><time>2026-04-26T08:24:46Z</time></trkpt><trkpt lat="45.58803963543843" lon="10.833668397214083"><ele>102.66666666666667</ele><time>2026-04-26T08:24:47Z</time></trkpt><trkpt lat="45.58813565989454" lon="10.833861217982902"><ele>103.0</ele><time>2026-04-26T08:24:48Z</time></trkpt><trkpt lat="45.58822491711695" lon="10.834023800846909"><ele>103.0</ele><time>2026-04-26T08:24:49Z</time></trkpt><trkpt lat="45.58829072863266" lon="10.834163254756776"><ele>103.0</ele><time>2026-04-26T08:24:50Z</time></trkpt><trkpt lat="45.58831793273706" lon="10.834258615383298"><ele>103.0</ele><time>2026-04-26T08:24:51Z</time></trkpt><trkpt lat="45.588390284345756" lon="10.83439339056021"><ele>103.0</ele><time>2026-04-26T08:24:53Z</time></trkpt><trkpt lat="45.588454797938944" lon="10.83446284278755"><ele>103.0</ele><time>2026-04-26T08:24:54Z</time></trkpt><trkpt lat="45.588533384910264" lon="10.834541737697487"><ele>103.25</ele><time>2026-04-26T08:24:55Z</time></trkpt><trkpt lat="45.58862215098511" lon="10.834626330010334"><ele>103.5</ele><time>2026-04-26T08:24:56Z</time></trkpt><trkpt lat="45.58873080255595" lon="10.83471010811091"><ele>103.75</ele><time>2026-04-26T08:24:57Z</time></trkpt><trkpt lat="45.588860428202544" lon="10.834806570869448"><ele>104.0</ele><time>2026-04-26T08:24:58Z</time></trkpt><trkpt lat="45.588955038064874" lon="10.834855981038345"><ele>103.75</ele><time>2026-04-26T08:24:59Z</time></trkpt><trkpt lat="45.58904949657751" lon="10.834888573211106"><ele>103.5</ele><time>2026-04-26T08:25:00Z</time></trkpt><trkpt lat="45.589129495972244" lon="10.834911790032999"><ele>103.25</ele><time>2026-04-26T08:25:01Z</time></trkpt><trkpt lat="45.589333570454" lon="10.835097331856673"><ele>103.0</ele><time>2026-04-26T08:25:02Z</time></trkpt><trkpt lat="45.58946354932793" lon="10.835171073093349"><ele>103.5</ele><time>2026-04-26T08:25:03Z</time></trkpt><trkpt lat="45.58959396540392" lon="10.835241153668889"><ele>104.0</ele><time>2026-04-26T08:25:04Z</time></trkpt><trkpt lat="45.58970702131002" lon="10.835307742328144"><ele>104.5</ele><time>2026-04-26T08:25:05Z</time></trkpt><trkpt lat="45.58982583916593" lon="10.835367999783223"><ele>105.0</ele><time>2026-04-26T08:25:06Z</time></trkpt><trkpt lat="45.589926677927465" lon="10.835422976897666"><ele>105.0</ele><time>2026-04-26T08:25:07Z</time></trkpt><trkpt lat="45.59001103052199" lon="10.835467351690518"><ele>105.0</ele><time>2026-04-26T08:25:08Z</time></trkpt><trkpt lat="45.59009410684851" lon="10.83550428067509"><ele>105.0</ele><time>2026-04-26T08:25:09Z</time></trkpt><trkpt lat="45.59018050993698" lon="10.835547300879306"><ele>105.0</ele><time>2026-04-26T08:25:10Z</time></trkpt><trkpt lat="45.59026816454252" lon="10.835594635541467"><ele>105.0</ele><time>2026-04-26T08:25:11Z</time></trkpt><trkpt lat="45.59035077599048" lon="10.835637691022189"><ele>105.0</ele><time>2026-04-26T08:25:12Z</time></trkpt><trkpt lat="45.59044468934002" lon="10.835684152793634"><ele>105.0</ele><time>2026-04-26T08:25:13Z</time></trkpt><trkpt lat="45.59051871964265" lon="10.835716925356104"><ele>105.0</ele><time>2026-04-26T08:25:14Z</time></trkpt><trkpt lat="45.59058370259174" lon="10.835743945901337"><ele>105.0</ele><time>2026-04-26T08:25:15Z</time></trkpt><trkpt lat="45.59067490588331" lon="10.835797811829886"><ele>105.0</ele><time>2026-04-26T08:25:17Z</time></trkpt><trkpt lat="45.59073779635822" lon="10.835854813893347"><ele>105.0</ele><time>2026-04-26T08:25:19Z</time></trkpt><trkpt lat="45.59081397033709" lon="10.835899372684484"><ele>105.0</ele><time>2026-04-26T08:25:20.999Z</time></trkpt><trkpt lat="45.590887821961275" lon="10.835938278274059"><ele>105.0</ele><time>2026-04-26T08:25:22.999Z</time></trkpt><trkpt lat="45.5909508042835" lon="10.835983779243563"><ele>105.0</ele><time>2026-04-26T08:25:24.999Z</time></trkpt><trkpt lat="45.59102375282052" lon="10.836012496018135"><ele>105.0</ele><time>2026-04-26T08:25:40.999Z</time></trkpt><trkpt lat="45.591081295255414" lon="10.836053216582298"><ele>105.0</ele><time>2026-04-26T08:25:45.999Z</time></trkpt><trkpt lat="45.591143063088424" lon="10.836086399996544"><ele>105.0</ele><time>2026-04-26T08:25:49.999Z</time></trkpt><trkpt lat="45.59122019277508" lon="10.836136661323643"><ele>105.0</ele><time>2026-04-26T08:25:58.999Z</time></trkpt><trkpt lat="45.59130147798627" lon="10.836147621131628"><ele>107.0</ele><time>2026-04-26T08:26:00.999Z</time></trkpt><trkpt lat="45.59132467551978" lon="10.836234247628026"><ele>109.0</ele><time>2026-04-26T08:27:10Z</time></trkpt><trkpt lat="45.59139683494955" lon="10.836327228732749"><ele>111.0</ele><time>2026-04-26T08:27:12Z</time></trkpt><trkpt lat="45.591466041001695" lon="10.83638255718207"><ele>113.0</ele><time>2026-04-26T08:27:13Z</time></trkpt><trkpt lat="45.591524662750054" lon="10.83642411693432"><ele>115.0</ele><time>2026-04-26T08:27:14Z</time></trkpt><trkpt lat="45.591599549610606" lon="10.836430747066231"><ele>117.0</ele><time>2026-04-26T08:27:17Z</time></trkpt><trkpt lat="45.591674884448985" lon="10.83633021931316"><ele>117.0</ele><time>2026-04-26T08:27:19Z</time></trkpt><trkpt lat="45.59170935988158" lon="10.83624757519684"><ele>116.99999999999999</ele><time>2026-04-26T08:27:20Z</time></trkpt><trkpt lat="45.591757298551734" lon="10.836134678663614"><ele>116.99999999999999</ele><time>2026-04-26T08:27:21Z</time></trkpt><trkpt lat="45.59181964895001" lon="10.835969736457114"><ele>117.0</ele><time>2026-04-26T08:27:23Z</time></trkpt><trkpt lat="45.59185481141283" lon="10.835835757873824"><ele>117.0</ele><time>2026-04-26T08:27:25Z</time></trkpt><trkpt lat="45.59186283683738" lon="10.835717302959138"><ele>117.5</ele><time>2026-04-26T08:27:27Z</time></trkpt><trkpt lat="45.591880175579924" lon="10.835578541848069"><ele>118.0</ele><time>2026-04-26T08:27:29Z</time></trkpt><trkpt lat="45.59191382125367" lon="10.835500703915793"><ele>118.5</ele><time>2026-04-26T08:27:30Z</time></trkpt><trkpt lat="45.591989577903995" lon="10.835459708717263"><ele>119.0</ele><time>2026-04-26T08:27:33Z</time></trkpt><trkpt lat="45.59208195530763" lon="10.835517686283856"><ele>119.5</ele><time>2026-04-26T08:27:35Z</time></trkpt><trkpt lat="45.592170784905235" lon="10.835595690725052"><ele>120.0</ele><time>2026-04-26T08:27:36Z</time></trkpt><trkpt lat="45.592259842424724" lon="10.835660897748745"><ele>121.4</ele><time>2026-04-26T08:27:37Z</time></trkpt><trkpt lat="45.59235787198507" lon="10.835746919430822"><ele>122.8</ele><time>2026-04-26T08:27:38Z</time></trkpt><trkpt lat="45.59242458549774" lon="10.835799173774712"><ele>124.19999999999999</ele><time>2026-04-26T08:27:39Z</time></trkpt><trkpt lat="45.59247485491105" lon="10.835860652835295"><ele>125.6</ele><time>2026-04-26T08:28:02.999Z</time></trkpt><trkpt lat="45.5925729714559" lon="10.835941419052697"><ele>127.0</ele><time>2026-04-26T08:28:04.999Z</time></trkpt><trkpt lat="45.59264591907298" lon="10.83602392815873"><ele>127.0</ele><time>2026-04-26T08:28:05.999Z</time></trkpt><trkpt lat="45.59274958914183" lon="10.836144512241617"><ele>127.0</ele><time>2026-04-26T08:28:06.999Z</time></trkpt><trkpt lat="45.59285490157418" lon="10.836268459506574"><ele>127.0</ele><time>2026-04-26T08:28:07.999Z</time></trkpt><trkpt lat="45.59293254675299" lon="10.836359317900401"><ele>127.0</ele><time>2026-04-26T08:28:08.999Z</time></trkpt><trkpt lat="45.593023641022214" lon="10.836469478685315"><ele>127.39999999999999</ele><time>2026-04-26T08:28:10.999Z</time></trkpt><trkpt lat="45.59306298109362" lon="10.836562139354465"><ele>127.79999999999998</ele><time>2026-04-26T08:28:12.999Z</time></trkpt><trkpt lat="45.592988005994265" lon="10.836624322342336"><ele>128.2</ele><time>2026-04-26T08:28:25.999Z</time></trkpt><trkpt lat="45.59296727966348" lon="10.836741955190822"><ele>128.6</ele><time>2026-04-26T08:28:26.999Z</time></trkpt><trkpt lat="45.5929186512002" lon="10.83688118558272"><ele>129.0</ele><time>2026-04-26T08:28:27.999Z</time></trkpt><trkpt lat="45.59287831144757" lon="10.837010125776343"><ele>129.0</ele><time>2026-04-26T08:28:28.999Z</time></trkpt><trkpt lat="45.592878591965295" lon="10.837118661433898"><ele>129.0</ele><time>2026-04-26T08:28:30.999Z</time></trkpt><trkpt lat="45.592996976161785" lon="10.837210084769412"><ele>129.0</ele><time>2026-04-26T08:28:32.999Z</time></trkpt><trkpt lat="45.5930991781361" lon="10.837263292478243"><ele>129.0</ele><time>2026-04-26T08:28:33.999Z</time></trkpt><trkpt lat="45.593220987262264" lon="10.837324491105937"><ele>129.0</ele><time>2026-04-26T08:28:34.999Z</time></trkpt><trkpt lat="45.593356972207694" lon="10.837403445121923"><ele>129.0</ele><time>2026-04-26T08:28:35.999Z</time></trkpt><trkpt lat="45.593510463500735" lon="10.837501275627577"><ele>129.0</ele><time>2026-04-26T08:28:36.999Z</time></trkpt><trkpt lat="45.59368591024721" lon="10.837608631280085"><ele>129.0</ele><time>2026-04-26T08:28:37.999Z</time></trkpt><trkpt lat="45.59385286800327" lon="10.837707112676386"><ele>128.25</ele><time>2026-04-26T08:28:38.999Z</time></trkpt><trkpt lat="45.59399340611681" lon="10.83779485290355"><ele>127.5</ele><time>2026-04-26T08:28:39.999Z</time></trkpt><trkpt lat="45.59411431049219" lon="10.837879901293578"><ele>126.75</ele><time>2026-04-26T08:28:40.999Z</time></trkpt><trkpt lat="45.59423926510801" lon="10.837962336889403"><ele>126.0</ele><time>2026-04-26T08:28:41.999Z</time></trkpt><trkpt lat="45.594368153782725" lon="10.83805242943641"><ele>126.0</ele><time>2026-04-26T08:28:42.999Z</time></trkpt><trkpt lat="45.5945018685658" lon="10.838143783965739"><ele>126.0</ele><time>2026-04-26T08:28:43.999Z</time></trkpt><trkpt lat="45.59464560780718" lon="10.838244028908013"><ele>126.0</ele><time>2026-04-26T08:28:44.999Z</time></trkpt><trkpt lat="45.594790961358655" lon="10.83834746945366"><ele>126.25</ele><time>2026-04-26T08:28:45.999Z</time></trkpt><trkpt lat="45.59491747242619" lon="10.83844619891541"><ele>126.5</ele><time>2026-04-26T08:28:46.999Z</time></trkpt><trkpt lat="45.59503189924788" lon="10.838547540567028"><ele>126.75</ele><time>2026-04-26T08:28:47.999Z</time></trkpt><trkpt lat="45.59514916044946" lon="10.838645912455668"><ele>127.0</ele><time>2026-04-26T08:28:48.999Z</time></trkpt><trkpt lat="45.595272046973506" lon="10.838746185444203"><ele>127.33333333333334</ele><time>2026-04-26T08:28:49.999Z</time></trkpt><trkpt lat="45.59540756724984" lon="10.838860494241816"><ele>127.66666666666666</ele><time>2026-04-26T08:28:50.999Z</time></trkpt><trkpt lat="45.59544426776248" lon="10.839228530831997"><ele>128.0</ele><time>2026-04-26T08:28:52Z</time></trkpt><trkpt lat="45.59559030773586" lon="10.839345928377977"><ele>128.0</ele><time>2026-04-26T08:28:53Z</time></trkpt><trkpt lat="45.59574899755665" lon="10.839475725070574"><ele>128.0</ele><time>2026-04-26T08:28:54Z</time></trkpt><trkpt lat="45.59588598589823" lon="10.839591950504081"><ele>128.0</ele><time>2026-04-26T08:28:55Z</time></trkpt><trkpt lat="45.59602982631878" lon="10.839716119841457"><ele>128.0</ele><time>2026-04-26T08:28:56Z</time></trkpt><trkpt lat="45.5961649464939" lon="10.839832912516636"><ele>128.0</ele><time>2026-04-26T08:28:57Z</time></trkpt><trkpt lat="45.596293114740966" lon="10.839946183869838"><ele>128.0</ele><time>2026-04-26T08:28:58Z</time></trkpt><trkpt lat="45.59642443726964" lon="10.840064198463635"><ele>127.66666666666666</ele><time>2026-04-26T08:28:59Z</time></trkpt><trkpt lat="45.59655810101682" lon="10.840185678597157"><ele>127.33333333333334</ele><time>2026-04-26T08:29:00Z</time></trkpt><trkpt lat="45.59668489452257" lon="10.840300914720961"><ele>127.0</ele><time>2026-04-26T08:29:01Z</time></trkpt><trkpt lat="45.59682327697336" lon="10.840427741301829"><ele>127.0</ele><time>2026-04-26T08:29:03Z</time></trkpt><trkpt lat="45.596893212295626" lon="10.840491836263856"><ele>127.0</ele><time>2026-04-26T08:29:04Z</time></trkpt><trkpt lat="45.59697888137634" lon="10.84057035103214"><ele>127.0</ele><time>2026-04-26T08:29:06Z</time></trkpt><trkpt lat="45.59704227959688" lon="10.840628454806387"><ele>127.0</ele><time>2026-04-26T08:29:08Z</time></trkpt><trkpt lat="45.59725806823541" lon="10.840228827095528"><ele>126.83333333333334</ele><time>2026-04-26T08:29:10Z</time></trkpt><trkpt lat="45.59730002353221" lon="10.8401475657652"><ele>126.66666666666667</ele><time>2026-04-26T08:29:11Z</time></trkpt><trkpt lat="45.59734596351691" lon="10.84008436743073"><ele>126.5</ele><time>2026-04-26T08:29:12Z</time></trkpt><trkpt lat="45.59746229242551" lon="10.840112721962695"><ele>126.33333333333334</ele><time>2026-04-26T08:29:14Z</time></trkpt><trkpt lat="45.597520838623005" lon="10.840175047673556"><ele>126.16666666666667</ele><time>2026-04-26T08:29:15Z</time></trkpt><trkpt lat="45.59760248376688" lon="10.84026032752088"><ele>126.0</ele><time>2026-04-26T08:29:16Z</time></trkpt><trkpt lat="45.59768681378716" lon="10.840350348085671"><ele>126.0</ele><time>2026-04-26T08:29:17Z</time></trkpt><trkpt lat="45.597775993031064" lon="10.840420267772322"><ele>126.0</ele><time>2026-04-26T08:29:18Z</time></trkpt><trkpt lat="45.5978521231664" lon="10.840476675723231"><ele>126.0</ele><time>2026-04-26T08:29:19Z</time></trkpt><trkpt lat="45.59794180380346" lon="10.840529071301482"><ele>126.0</ele><time>2026-04-26T08:29:20Z</time></trkpt><trkpt lat="45.598033701032385" lon="10.840588373275692"><ele>126.0</ele><time>2026-04-26T08:29:21Z</time></trkpt><trkpt lat="45.59810739431618" lon="10.840634472620561"><ele>126.0</ele><time>2026-04-26T08:29:22Z</time></trkpt><trkpt lat="45.598218164823344" lon="10.840694682958716"><ele>126.0</ele><time>2026-04-26T08:29:24Z</time></trkpt><trkpt lat="45.59822690143272" lon="10.840809024786118"><ele>126.0</ele><time>2026-04-26T08:29:26Z</time></trkpt><trkpt lat="45.59813865201358" lon="10.840981195602323"><ele>126.0</ele><time>2026-04-26T08:29:28Z</time></trkpt><trkpt lat="45.598060421209155" lon="10.841124054616401"><ele>126.0</ele><time>2026-04-26T08:29:29Z</time></trkpt><trkpt lat="45.59798241238744" lon="10.841281040705063"><ele>126.0</ele><time>2026-04-26T08:29:30Z</time></trkpt><trkpt lat="45.597911578765384" lon="10.841446102527994"><ele>126.0</ele><time>2026-04-26T08:29:31Z</time></trkpt><trkpt lat="45.59785407854505" lon="10.841572315148568"><ele>126.0</ele><time>2026-04-26T08:29:32Z</time></trkpt><trkpt lat="45.59780991203698" lon="10.84167792997204"><ele>126.16666666666667</ele><time>2026-04-26T08:29:33Z</time></trkpt><trkpt lat="45.59776729591429" lon="10.841773198496748"><ele>126.33333333333334</ele><time>2026-04-26T08:29:34Z</time></trkpt><trkpt lat="45.59773478823927" lon="10.841863814751774"><ele>126.5</ele><time>2026-04-26T08:29:35Z</time></trkpt><trkpt lat="45.597731330838464" lon="10.84196159247476"><ele>126.66666666666667</ele><time>2026-04-26T08:29:36Z</time></trkpt><trkpt lat="45.59776119386271" lon="10.842061330696994"><ele>126.83333333333334</ele><time>2026-04-26T08:29:37Z</time></trkpt><trkpt lat="45.597821188919276" lon="10.842167535645034"><ele>127.0</ele><time>2026-04-26T08:29:38Z</time></trkpt><trkpt lat="45.59791072712843" lon="10.842275936179215"><ele>126.6</ele><time>2026-04-26T08:29:39Z</time></trkpt><trkpt lat="45.59800844638973" lon="10.842374851882528"><ele>126.19999999999999</ele><time>2026-04-26T08:29:40Z</time></trkpt><trkpt lat="45.59809276517672" lon="10.842457246961976"><ele>125.8</ele><time>2026-04-26T08:29:41Z</time></trkpt><trkpt lat="45.59818094236877" lon="10.842549653892128"><ele>125.4</ele><time>2026-04-26T08:29:42Z</time></trkpt><trkpt lat="45.5982691832826" lon="10.842639531440895"><ele>125.0</ele><time>2026-04-26T08:29:43Z</time></trkpt><trkpt lat="45.59835530171942" lon="10.842725101052615"><ele>124.8</ele><time>2026-04-26T08:29:44Z</time></trkpt><trkpt lat="45.59842882041895" lon="10.84279308436295"><ele>124.6</ele><time>2026-04-26T08:29:45Z</time></trkpt><trkpt lat="45.59850703718601" lon="10.842865107433282"><ele>124.4</ele><time>2026-04-26T08:29:46Z</time></trkpt><trkpt lat="45.59859486584309" lon="10.84295545847622"><ele>124.2</ele><time>2026-04-26T08:29:47Z</time></trkpt><trkpt lat="45.598700807498794" lon="10.843067908777362"><ele>124.0</ele><time>2026-04-26T08:29:48Z</time></trkpt><trkpt lat="45.59882736950927" lon="10.843188963630588"><ele>124.0</ele><time>2026-04-26T08:29:49Z</time></trkpt><trkpt lat="45.5989656953447" lon="10.8433040174392"><ele>124.0</ele><time>2026-04-26T08:29:50Z</time></trkpt><trkpt lat="45.59909942865334" lon="10.843404987542392"><ele>124.0</ele><time>2026-04-26T08:29:51Z</time></trkpt><trkpt lat="45.599228579434985" lon="10.843521326187178"><ele>123.33333333333334</ele><time>2026-04-26T08:29:52Z</time></trkpt><trkpt lat="45.59937759561656" lon="10.843611701436853"><ele>122.66666666666666</ele><time>2026-04-26T08:29:53Z</time></trkpt><trkpt lat="45.59951261387251" lon="10.84372785506424"><ele>122.0</ele><time>2026-04-26T08:29:54Z</time></trkpt><trkpt lat="45.5996677370161" lon="10.843846560131992"><ele>122.0</ele><time>2026-04-26T08:29:55Z</time></trkpt><trkpt lat="45.599829183604164" lon="10.84395236258875"><ele>122.0</ele><time>2026-04-26T08:29:56Z</time></trkpt><trkpt lat="45.600003778062835" lon="10.844055364766144"><ele>122.0</ele><time>2026-04-26T08:29:57Z</time></trkpt><trkpt lat="45.60017554143853" lon="10.84416493497107"><ele>123.0</ele><time>2026-04-26T08:29:58Z</time></trkpt><trkpt lat="45.60035446508393" lon="10.844290666270545"><ele>124.0</ele><time>2026-04-26T08:29:59Z</time></trkpt><trkpt lat="45.6005209248732" lon="10.84442535207477"><ele>125.0</ele><time>2026-04-26T08:30:00Z</time></trkpt><trkpt lat="45.60068009747542" lon="10.844586593255888"><ele>125.0</ele><time>2026-04-26T08:30:01Z</time></trkpt><trkpt lat="45.60083707797534" lon="10.844758569773434"><ele>125.0</ele><time>2026-04-26T08:30:02Z</time></trkpt><trkpt lat="45.60100116980604" lon="10.844915177557388"><ele>125.0</ele><time>2026-04-26T08:30:03Z</time></trkpt><trkpt lat="45.60117921435944" lon="10.84506554887782"><ele>123.0</ele><time>2026-04-26T08:30:04Z</time></trkpt><trkpt lat="45.60136384486418" lon="10.845207925468028"><ele>121.0</ele><time>2026-04-26T08:30:05Z</time></trkpt><trkpt lat="45.6015562083877" lon="10.845353374943613"><ele>119.0</ele><time>2026-04-26T08:30:06Z</time></trkpt><trkpt lat="45.601751635716845" lon="10.845504257209502"><ele>119.0</ele><time>2026-04-26T08:30:06.999Z</time></trkpt><trkpt lat="45.60194320047368" lon="10.845655300312835"><ele>119.0</ele><time>2026-04-26T08:30:07.999Z</time></trkpt><trkpt lat="45.60211426754241" lon="10.845792795459163"><ele>119.0</ele><time>2026-04-26T08:30:08.999Z</time></trkpt><trkpt lat="45.60230023845006" lon="10.845938785697786"><ele>118.66666666666666</ele><time>2026-04-26T08:30:09.999Z</time></trkpt><trkpt lat="45.60248574087789" lon="10.846083972657341"><ele>118.33333333333334</ele><time>2026-04-26T08:30:10.999Z</time></trkpt><trkpt lat="45.60268746628837" lon="10.846246257229557"><ele>118.0</ele><time>2026-04-26T08:30:11.999Z</time></trkpt><trkpt lat="45.60288901290404" lon="10.846418877734552"><ele>117.33333333333334</ele><time>2026-04-26T08:30:12.999Z</time></trkpt><trkpt lat="45.603087014957204" lon="10.846595737861833"><ele>116.66666666666666</ele><time>2026-04-26T08:30:13.999Z</time></trkpt><trkpt lat="45.60326639188094" lon="10.8467557699959"><ele>116.0</ele><time>2026-04-26T08:30:14.999Z</time></trkpt><trkpt lat="45.6034486150639" lon="10.846917401007497"><ele>116.33333333333333</ele><time>2026-04-26T08:30:15.999Z</time></trkpt><trkpt lat="45.60363369568428" lon="10.847077669326724"><ele>116.66666666666666</ele><time>2026-04-26T08:30:16.999Z</time></trkpt><trkpt lat="45.603823056134" lon="10.847240335570028"><ele>117.0</ele><time>2026-04-26T08:30:17.999Z</time></trkpt><trkpt lat="45.604003791168196" lon="10.847402479785352"><ele>117.0</ele><time>2026-04-26T08:30:18.999Z</time></trkpt><trkpt lat="45.60418383155145" lon="10.84756378616315"><ele>117.0</ele><time>2026-04-26T08:30:19.999Z</time></trkpt><trkpt lat="45.60436411928086" lon="10.847727907813859"><ele>117.0</ele><time>2026-04-26T08:30:20.999Z</time></trkpt><trkpt lat="45.60454300650087" lon="10.84788323908851"><ele>116.66666666666666</ele><time>2026-04-26T08:30:21.999Z</time></trkpt><trkpt lat="45.604721322607524" lon="10.848038683617142"><ele>116.33333333333333</ele><time>2026-04-26T08:30:22.999Z</time></trkpt><trkpt lat="45.60489366827575" lon="10.848191334250629"><ele>116.0</ele><time>2026-04-26T08:30:23.999Z</time></trkpt><trkpt lat="45.60507344467714" lon="10.848348898471984"><ele>115.33333333333333</ele><time>2026-04-26T08:30:24.999Z</time></trkpt><trkpt lat="45.60525488047319" lon="10.84850079725864"><ele>114.66666666666666</ele><time>2026-04-26T08:30:25.999Z</time></trkpt><trkpt lat="45.60543363152638" lon="10.848655740272545"><ele>114.0</ele><time>2026-04-26T08:30:26.999Z</time></trkpt><trkpt lat="45.605611359002715" lon="10.848818409951324"><ele>114.0</ele><time>2026-04-26T08:30:27.999Z</time></trkpt><trkpt lat="45.60579274249338" lon="10.848984489201227"><ele>114.0</ele><time>2026-04-26T08:30:28.999Z</time></trkpt><trkpt lat="45.60597531841423" lon="10.849144571897126"><ele>114.0</ele><time>2026-04-26T08:30:29.999Z</time></trkpt><trkpt lat="45.60616035117007" lon="10.849304592074416"><ele>114.0</ele><time>2026-04-26T08:30:30.999Z</time></trkpt><trkpt lat="45.606333073890546" lon="10.849452904116548"><ele>114.0</ele><time>2026-04-26T08:30:31.999Z</time></trkpt><trkpt lat="45.60649833492796" lon="10.849598906286328"><ele>114.0</ele><time>2026-04-26T08:30:32.999Z</time></trkpt><trkpt lat="45.606671802625975" lon="10.849749305418587"><ele>114.0</ele><time>2026-04-26T08:30:33.999Z</time></trkpt><trkpt lat="45.60685144108572" lon="10.849895342889642"><ele>114.0</ele><time>2026-04-26T08:30:34.999Z</time></trkpt><trkpt lat="45.60703458882988" lon="10.850037042132405"><ele>114.0</ele><time>2026-04-26T08:30:35.999Z</time></trkpt><trkpt lat="45.607226600757166" lon="10.850166622034651"><ele>113.33333333333334</ele><time>2026-04-26T08:30:36.999Z</time></trkpt><trkpt lat="45.60742085969986" lon="10.850303270028117"><ele>112.66666666666667</ele><time>2026-04-26T08:30:37.999Z</time></trkpt><trkpt lat="45.607627543484135" lon="10.85037088005833"><ele>112.0</ele><time>2026-04-26T08:30:38.999Z</time></trkpt><trkpt lat="45.60781936461201" lon="10.850451703249613"><ele>112.0</ele><time>2026-04-26T08:30:39.999Z</time></trkpt><trkpt lat="45.60801446111221" lon="10.850536135593062"><ele>112.0</ele><time>2026-04-26T08:30:40.999Z</time></trkpt><trkpt lat="45.60821903051944" lon="10.850626137471904"><ele>112.0</ele><time>2026-04-26T08:30:41.999Z</time></trkpt><trkpt lat="45.6084269087658" lon="10.850722596988346"><ele>115.0</ele><time>2026-04-26T08:30:42.999Z</time></trkpt><trkpt lat="45.608694588913586" lon="10.850559945000798"><ele>118.0</ele><time>2026-04-26T08:30:43.999Z</time></trkpt><trkpt lat="45.60907206796864" lon="10.850764570032203"><ele>118.0</ele><time>2026-04-26T08:30:45.999Z</time></trkpt><trkpt lat="45.609266344183055" lon="10.850862297478201"><ele>118.0</ele><time>2026-04-26T08:30:46.999Z</time></trkpt><trkpt lat="45.609474807786164" lon="10.850967277796725"><ele>118.0</ele><time>2026-04-26T08:30:47.999Z</time></trkpt><trkpt lat="45.6096829354732" lon="10.85107337066181"><ele>116.0</ele><time>2026-04-26T08:30:48.999Z</time></trkpt><trkpt lat="45.60987950396565" lon="10.851173571209829"><ele>114.0</ele><time>2026-04-26T08:30:49.999Z</time></trkpt><trkpt lat="45.61007470538316" lon="10.85127462586042"><ele>112.0</ele><time>2026-04-26T08:30:50.999Z</time></trkpt><trkpt lat="45.6102766092448" lon="10.851383595576252"><ele>111.33333333333334</ele><time>2026-04-26T08:30:51.999Z</time></trkpt><trkpt lat="45.610482918239" lon="10.851495380887739"><ele>110.66666666666666</ele><time>2026-04-26T08:30:52.999Z</time></trkpt><trkpt lat="45.61067752723082" lon="10.851606049023747"><ele>110.0</ele><time>2026-04-26T08:30:53.999Z</time></trkpt><trkpt lat="45.6108557230326" lon="10.851712715484627"><ele>110.0</ele><time>2026-04-26T08:30:54.999Z</time></trkpt><trkpt lat="45.611044422069604" lon="10.851830179492291"><ele>110.0</ele><time>2026-04-26T08:30:55.999Z</time></trkpt><trkpt lat="45.61123668135887" lon="10.851959011772262"><ele>110.0</ele><time>2026-04-26T08:30:56.999Z</time></trkpt><trkpt lat="45.61141524499368" lon="10.85208528011718"><ele>109.33333333333333</ele><time>2026-04-26T08:30:57.999Z</time></trkpt><trkpt lat="45.61158404159717" lon="10.852210885861723"><ele>108.66666666666666</ele><time>2026-04-26T08:30:58.999Z</time></trkpt><trkpt lat="45.611733513094045" lon="10.852326028727356"><ele>108.0</ele><time>2026-04-26T08:30:59.999Z</time></trkpt><trkpt lat="45.611868426617555" lon="10.852434857472492"><ele>107.33333333333334</ele><time>2026-04-26T08:31:00.999Z</time></trkpt><trkpt lat="45.6120191413099" lon="10.852508780395578"><ele>106.66666666666667</ele><time>2026-04-26T08:31:01.999Z</time></trkpt><trkpt lat="45.612217052798265" lon="10.852493754628098"><ele>106.0</ele><time>2026-04-26T08:31:02.999Z</time></trkpt><trkpt lat="45.61238111358764" lon="10.852585577974935"><ele>106.0</ele><time>2026-04-26T08:31:03.999Z</time></trkpt><trkpt lat="45.61276119951105" lon="10.852166421960044"><ele>104.66666666666667</ele><time>2026-04-26T08:31:04.999Z</time></trkpt><trkpt lat="45.61296752573263" lon="10.85207820472759"><ele>103.33333333333334</ele><time>2026-04-26T08:31:05.999Z</time></trkpt><trkpt lat="45.61316005924518" lon="10.851995347033707"><ele>102.0</ele><time>2026-04-26T08:31:06.999Z</time></trkpt><trkpt lat="45.61334625235418" lon="10.851915874655065"><ele>102.0</ele><time>2026-04-26T08:31:07.999Z</time></trkpt><trkpt lat="45.61352014497403" lon="10.851841333125538"><ele>102.0</ele><time>2026-04-26T08:31:08.999Z</time></trkpt><trkpt lat="45.61367710540588" lon="10.851781111369569"><ele>102.0</ele><time>2026-04-26T08:31:09.999Z</time></trkpt><trkpt lat="45.613841252901366" lon="10.851750931302325"><ele>102.0</ele><time>2026-04-26T08:31:10.999Z</time></trkpt><trkpt lat="45.61402334067725" lon="10.851765862709692"><ele>102.0</ele><time>2026-04-26T08:31:11.999Z</time></trkpt><trkpt lat="45.61422251625445" lon="10.851810649484019"><ele>102.0</ele><time>2026-04-26T08:31:12.999Z</time></trkpt><trkpt lat="45.61443433779436" lon="10.851846615361067"><ele>103.0</ele><time>2026-04-26T08:31:13.999Z</time></trkpt><trkpt lat="45.61465212196049" lon="10.851864278078482"><ele>104.0</ele><time>2026-04-26T08:31:14.999Z</time></trkpt><trkpt lat="45.61487878303347" lon="10.851904401195478"><ele>105.0</ele><time>2026-04-26T08:31:15.999Z</time></trkpt><trkpt lat="45.61511243702151" lon="10.851968224260832"><ele>104.5</ele><time>2026-04-26T08:31:16.999Z</time></trkpt><trkpt lat="45.61535211755766" lon="10.852039324746203"><ele>104.0</ele><time>2026-04-26T08:31:17.999Z</time></trkpt><trkpt lat="45.61559096967051" lon="10.852095470440135"><ele>104.0</ele><time>2026-04-26T08:31:18.999Z</time></trkpt><trkpt lat="45.615827862066936" lon="10.85213793444997"><ele>104.0</ele><time>2026-04-26T08:31:19.999Z</time></trkpt><trkpt lat="45.61608617965281" lon="10.85217286362698"><ele>104.0</ele><time>2026-04-26T08:31:20.999Z</time></trkpt><trkpt lat="45.616357502299785" lon="10.85220398225014"><ele>104.0</ele><time>2026-04-26T08:31:21.999Z</time></trkpt><trkpt lat="45.61661218190546" lon="10.852230929335748"><ele>104.0</ele><time>2026-04-26T08:31:22.999Z</time></trkpt><trkpt lat="45.616865544883446" lon="10.852266771285574"><ele>104.0</ele><time>2026-04-26T08:31:23.999Z</time></trkpt><trkpt lat="45.61709772846461" lon="10.852322293498508"><ele>105.5</ele><time>2026-04-26T08:31:24.999Z</time></trkpt><trkpt lat="45.61731973700123" lon="10.852385827915322"><ele>107.0</ele><time>2026-04-26T08:31:25.999Z</time></trkpt><trkpt lat="45.61754314994105" lon="10.852452622159626"><ele>107.0</ele><time>2026-04-26T08:31:26.999Z</time></trkpt><trkpt lat="45.617761819209164" lon="10.852509019318598"><ele>107.0</ele><time>2026-04-26T08:31:27.999Z</time></trkpt><trkpt lat="45.61798135291515" lon="10.852563886756268"><ele>107.0</ele><time>2026-04-26T08:31:28.999Z</time></trkpt><trkpt lat="45.61819667604144" lon="10.852617284245621"><ele>105.33333333333333</ele><time>2026-04-26T08:31:29.999Z</time></trkpt><trkpt lat="45.61841535811188" lon="10.852668642317198"><ele>103.66666666666666</ele><time>2026-04-26T08:31:30.999Z</time></trkpt><trkpt lat="45.61863156111206" lon="10.852703428440329"><ele>102.0</ele><time>2026-04-26T08:31:31.999Z</time></trkpt><trkpt lat="45.618840067793506" lon="10.852734510719186"><ele>102.0</ele><time>2026-04-26T08:31:32.999Z</time></trkpt><trkpt lat="45.61903361549801" lon="10.85279365759158"><ele>102.0</ele><time>2026-04-26T08:31:33.999Z</time></trkpt><trkpt lat="45.61924149324704" lon="10.852897833736652"><ele>102.0</ele><time>2026-04-26T08:31:34.999Z</time></trkpt><trkpt lat="45.619445092801826" lon="10.853024157868273"><ele>107.0</ele><time>2026-04-26T08:31:35.999Z</time></trkpt><trkpt lat="45.61965206293364" lon="10.853159116651279"><ele>112.0</ele><time>2026-04-26T08:31:36.999Z</time></trkpt><trkpt lat="45.61985633087697" lon="10.853290939533945"><ele>112.0</ele><time>2026-04-26T08:31:37.999Z</time></trkpt><trkpt lat="45.620071530514416" lon="10.85342605396593"><ele>112.0</ele><time>2026-04-26T08:31:38.999Z</time></trkpt><trkpt lat="45.62027387833237" lon="10.853542916820883"><ele>110.33333333333334</ele><time>2026-04-26T08:31:39.999Z</time></trkpt><trkpt lat="45.620470426521166" lon="10.853661536661066"><ele>108.66666666666666</ele><time>2026-04-26T08:31:40.999Z</time></trkpt><trkpt lat="45.62066315645373" lon="10.853767812058017"><ele>107.0</ele><time>2026-04-26T08:31:41.999Z</time></trkpt><trkpt lat="45.620841179858026" lon="10.853867471469659"><ele>107.0</ele><time>2026-04-26T08:31:42.999Z</time></trkpt><trkpt lat="45.62103452475185" lon="10.854002967944853"><ele>107.0</ele><time>2026-04-26T08:31:43.999Z</time></trkpt><trkpt lat="45.62121203128538" lon="10.854205575150118"><ele>107.0</ele><time>2026-04-26T08:31:44.999Z</time></trkpt><trkpt lat="45.62140493755634" lon="10.854407757933945"><ele>108.33333333333333</ele><time>2026-04-26T08:31:45.999Z</time></trkpt><trkpt lat="45.62158097596616" lon="10.854616648330591"><ele>109.66666666666666</ele><time>2026-04-26T08:31:46.999Z</time></trkpt><trkpt lat="45.62175706981516" lon="10.854803052091981"><ele>111.0</ele><time>2026-04-26T08:31:47.999Z</time></trkpt><trkpt lat="45.621925948663204" lon="10.85497425922525"><ele>114.0</ele><time>2026-04-26T08:31:48.999Z</time></trkpt><trkpt lat="45.62208687078366" lon="10.85516113213918"><ele>117.0</ele><time>2026-04-26T08:31:49.999Z</time></trkpt><trkpt lat="45.62220372447965" lon="10.855404654776207"><ele>120.0</ele><time>2026-04-26T08:31:50.999Z</time></trkpt><trkpt lat="45.62233432558619" lon="10.855635339852107"><ele>120.0</ele><time>2026-04-26T08:31:51.999Z</time></trkpt><trkpt lat="45.62244457966723" lon="10.855880176722053"><ele>120.0</ele><time>2026-04-26T08:31:52.999Z</time></trkpt><trkpt lat="45.62255634638093" lon="10.85611616005789"><ele>120.0</ele><time>2026-04-26T08:31:53.999Z</time></trkpt><trkpt lat="45.62266679038294" lon="10.856346182401994"><ele>120.0</ele><time>2026-04-26T08:31:54.999Z</time></trkpt><trkpt lat="45.62278430973226" lon="10.856572489269755"><ele>120.0</ele><time>2026-04-26T08:31:55.999Z</time></trkpt><trkpt lat="45.6229043571444" lon="10.85680796626431"><ele>120.0</ele><time>2026-04-26T08:31:56.999Z</time></trkpt><trkpt lat="45.623023731638085" lon="10.857041937741018"><ele>120.0</ele><time>2026-04-26T08:31:57.999Z</time></trkpt><trkpt lat="45.62314221126456" lon="10.857281230151347"><ele>120.0</ele><time>2026-04-26T08:31:58.999Z</time></trkpt><trkpt lat="45.6232525464521" lon="10.85750742749221"><ele>120.0</ele><time>2026-04-26T08:31:59.999Z</time></trkpt><trkpt lat="45.623358921422586" lon="10.857719672191912"><ele>120.0</ele><time>2026-04-26T08:32:00.999Z</time></trkpt><trkpt lat="45.62346423244129" lon="10.857930859439092"><ele>120.0</ele><time>2026-04-26T08:32:01.999Z</time></trkpt><trkpt lat="45.623574042545" lon="10.858151037173155"><ele>120.0</ele><time>2026-04-26T08:32:02.999Z</time></trkpt><trkpt lat="45.6236868962615" lon="10.85838083458593"><ele>123.33333333333334</ele><time>2026-04-26T08:32:03.999Z</time></trkpt><trkpt lat="45.62379341106741" lon="10.858636463514443"><ele>126.66666666666667</ele><time>2026-04-26T08:32:04.999Z</time></trkpt><trkpt lat="45.62388049762783" lon="10.85892129984143"><ele>130.0</ele><time>2026-04-26T08:32:05.999Z</time></trkpt><trkpt lat="45.62393376921227" lon="10.859188529939114"><ele>130.0</ele><time>2026-04-26T08:32:06.999Z</time></trkpt><trkpt lat="45.62398417043915" lon="10.859439474210976"><ele>130.0</ele><time>2026-04-26T08:32:07.999Z</time></trkpt><trkpt lat="45.624042266296094" lon="10.859708871339157"><ele>130.0</ele><time>2026-04-26T08:32:08.999Z</time></trkpt><trkpt lat="45.62409963621092" lon="10.859972135016006"><ele>130.66666666666669</ele><time>2026-04-26T08:32:09.999Z</time></trkpt><trkpt lat="45.62415320237378" lon="10.860210105221338"><ele>131.33333333333334</ele><time>2026-04-26T08:32:10.999Z</time></trkpt><trkpt lat="45.624204436515136" lon="10.860442380921986"><ele>132.0</ele><time>2026-04-26T08:32:11.999Z</time></trkpt><trkpt lat="45.62426111910426" lon="10.860700758712582"><ele>131.0</ele><time>2026-04-26T08:32:12.999Z</time></trkpt><trkpt lat="45.624328057142364" lon="10.860974092619706"><ele>130.0</ele><time>2026-04-26T08:32:13.999Z</time></trkpt><trkpt lat="45.624421796992756" lon="10.861274576713528"><ele>129.0</ele><time>2026-04-26T08:32:14.999Z</time></trkpt><trkpt lat="45.624533591011655" lon="10.861576372426532"><ele>129.0</ele><time>2026-04-26T08:32:15.999Z</time></trkpt><trkpt lat="45.62464541299721" lon="10.861855469142538"><ele>129.0</ele><time>2026-04-26T08:32:16.999Z</time></trkpt><trkpt lat="45.62474536808663" lon="10.862114831626073"><ele>129.0</ele><time>2026-04-26T08:32:17.999Z</time></trkpt><trkpt lat="45.62483013171138" lon="10.862342895101811"><ele>129.0</ele><time>2026-04-26T08:32:18.999Z</time></trkpt><trkpt lat="45.624897337480085" lon="10.862521032156758"><ele>129.0</ele><time>2026-04-26T08:32:19.999Z</time></trkpt><trkpt lat="45.624958613400224" lon="10.86265632696233"><ele>129.0</ele><time>2026-04-26T08:32:20.999Z</time></trkpt><trkpt lat="45.62502798004807" lon="10.86277228398565"><ele>129.0</ele><time>2026-04-26T08:32:21.999Z</time></trkpt><trkpt lat="45.62508346350329" lon="10.862844464218318"><ele>129.0</ele><time>2026-04-26T08:32:22.999Z</time></trkpt><trkpt lat="45.625107401243646" lon="10.862965422950227"><ele>128.8</ele><time>2026-04-26T08:32:24.999Z</time></trkpt><trkpt lat="45.62505360117387" lon="10.863021754912042"><ele>128.60000000000002</ele><time>2026-04-26T08:32:25.999Z</time></trkpt><trkpt lat="45.6250169128336" lon="10.863136522333075"><ele>128.4</ele><time>2026-04-26T08:32:26.999Z</time></trkpt><trkpt lat="45.62498520521609" lon="10.863295982396677"><ele>128.20000000000002</ele><time>2026-04-26T08:32:27.999Z</time></trkpt><trkpt lat="45.62495213241295" lon="10.863482776914024"><ele>128.0</ele><time>2026-04-26T08:32:28.999Z</time></trkpt><trkpt lat="45.62495124229312" lon="10.86367756641831"><ele>127.5</ele><time>2026-04-26T08:32:29.999Z</time></trkpt><trkpt lat="45.624960212475216" lon="10.863871322396877"><ele>127.0</ele><time>2026-04-26T08:32:30.999Z</time></trkpt><trkpt lat="45.62493285766266" lon="10.864039662737055"><ele>126.5</ele><time>2026-04-26T08:32:31.999Z</time></trkpt><trkpt lat="45.62489047135964" lon="10.864185628975681"><ele>126.0</ele><time>2026-04-26T08:32:32.999Z</time></trkpt><trkpt lat="45.624824193194584" lon="10.86433142697414"><ele>125.6</ele><time>2026-04-26T08:32:33.999Z</time></trkpt><trkpt lat="45.62477187459013" lon="10.864487073284355"><ele>125.19999999999999</ele><time>2026-04-26T08:32:34.999Z</time></trkpt><trkpt lat="45.62469725567114" lon="10.864646413723312"><ele>124.80000000000001</ele><time>2026-04-26T08:32:35.999Z</time></trkpt><trkpt lat="45.62464572819863" lon="10.864801704415903"><ele>124.4</ele><time>2026-04-26T08:32:36.999Z</time></trkpt><trkpt lat="45.62461058247845" lon="10.86488861603541"><ele>124.0</ele><time>2026-04-26T08:32:37.999Z</time></trkpt><trkpt lat="45.62476907680571" lon="10.864962894666853"><ele>124.0</ele><time>2026-04-26T08:32:42.999Z</time></trkpt><trkpt lat="45.62484475240293" lon="10.865007413155507"><ele>124.0</ele><time>2026-04-26T08:32:43.999Z</time></trkpt><trkpt lat="45.62493729258183" lon="10.865047307048709"><ele>124.0</ele><time>2026-04-26T08:32:44.999Z</time></trkpt><trkpt lat="45.625064964022364" lon="10.865102339822815"><ele>124.0</ele><time>2026-04-26T08:32:45.999Z</time></trkpt><trkpt lat="45.62519836096876" lon="10.865140400240715"><ele>124.0</ele><time>2026-04-26T08:32:46.999Z</time></trkpt><trkpt lat="45.62532579273693" lon="10.865235656030057"><ele>124.0</ele><time>2026-04-26T08:32:47.999Z</time></trkpt><trkpt lat="45.625451955822385" lon="10.865330858160263"><ele>124.0</ele><time>2026-04-26T08:32:48.999Z</time></trkpt><trkpt lat="45.625574902181214" lon="10.865432144135873"><ele>124.0</ele><time>2026-04-26T08:32:49.999Z</time></trkpt><trkpt lat="45.62571499019292" lon="10.865554521057067"><ele>124.0</ele><time>2026-04-26T08:32:50.999Z</time></trkpt><trkpt lat="45.625849374125615" lon="10.865647760458668"><ele>124.0</ele><time>2026-04-26T08:32:51.999Z</time></trkpt><trkpt lat="45.62598028086946" lon="10.865760136822654"><ele>124.0</ele><time>2026-04-26T08:32:52.999Z</time></trkpt><trkpt lat="45.62614687963183" lon="10.865887370793047"><ele>124.0</ele><time>2026-04-26T08:32:53.999Z</time></trkpt><trkpt lat="45.62628935855231" lon="10.86601010080479"><ele>123.66666666666667</ele><time>2026-04-26T08:32:54.999Z</time></trkpt><trkpt lat="45.62644224927606" lon="10.866149562739887"><ele>123.33333333333334</ele><time>2026-04-26T08:32:55.999Z</time></trkpt><trkpt lat="45.62656193251423" lon="10.866272777737755"><ele>123.0</ele><time>2026-04-26T08:32:56.999Z</time></trkpt><trkpt lat="45.626711671176515" lon="10.866405870499237"><ele>123.0</ele><time>2026-04-26T08:32:57.999Z</time></trkpt><trkpt lat="45.62686357388206" lon="10.866533025047687"><ele>123.0</ele><time>2026-04-26T08:32:58.999Z</time></trkpt><trkpt lat="45.627017915727954" lon="10.866658175574722"><ele>123.0</ele><time>2026-04-26T08:32:59.999Z</time></trkpt><trkpt lat="45.627150858185985" lon="10.866768866013764"><ele>122.33333333333334</ele><time>2026-04-26T08:33:00.999Z</time></trkpt><trkpt lat="45.62729004473621" lon="10.8668924666783"><ele>121.66666666666667</ele><time>2026-04-26T08:33:01.999Z</time></trkpt><trkpt lat="45.627451708381884" lon="10.867013043676165"><ele>121.0</ele><time>2026-04-26T08:33:02.999Z</time></trkpt><trkpt lat="45.62756376988185" lon="10.86713028203883"><ele>121.0</ele><time>2026-04-26T08:33:03.999Z</time></trkpt><trkpt lat="45.62769920778216" lon="10.86722137484339"><ele>121.0</ele><time>2026-04-26T08:33:04.999Z</time></trkpt><trkpt lat="45.62779141534634" lon="10.867301226212538"><ele>121.0</ele><time>2026-04-26T08:33:05.999Z</time></trkpt><trkpt lat="45.62785903324427" lon="10.867373838710819"><ele>121.0</ele><time>2026-04-26T08:33:06.999Z</time></trkpt><trkpt lat="45.62817182755922" lon="10.86761853333052"><ele>121.5</ele><time>2026-04-26T08:33:08.999Z</time></trkpt><trkpt lat="45.62827353797044" lon="10.86772687720925"><ele>122.0</ele><time>2026-04-26T08:33:09.999Z</time></trkpt><trkpt lat="45.62839836738991" lon="10.86781376695996"><ele>122.5</ele><time>2026-04-26T08:33:10.999Z</time></trkpt><trkpt lat="45.62853333084057" lon="10.867920665232631"><ele>123.0</ele><time>2026-04-26T08:33:11.999Z</time></trkpt><trkpt lat="45.62865732569485" lon="10.868052776805593"><ele>123.66666666666666</ele><time>2026-04-26T08:33:12.999Z</time></trkpt><trkpt lat="45.628779508485884" lon="10.8681582305057"><ele>124.33333333333333</ele><time>2026-04-26T08:33:13.999Z</time></trkpt><trkpt lat="45.62891550057009" lon="10.868278696238194"><ele>125.0</ele><time>2026-04-26T08:33:14.999Z</time></trkpt><trkpt lat="45.62905471743011" lon="10.868404795011326"><ele>124.0</ele><time>2026-04-26T08:33:15.999Z</time></trkpt><trkpt lat="45.62919137604676" lon="10.868520610829323"><ele>123.0</ele><time>2026-04-26T08:33:16.999Z</time></trkpt><trkpt lat="45.62934338916631" lon="10.868656852573947"><ele>122.0</ele><time>2026-04-26T08:33:17.999Z</time></trkpt><trkpt lat="45.62947247680092" lon="10.868772345391033"><ele>122.66666666666666</ele><time>2026-04-26T08:33:18.999Z</time></trkpt><trkpt lat="45.629595656696715" lon="10.868881711410015"><ele>123.33333333333334</ele><time>2026-04-26T08:33:19.999Z</time></trkpt><trkpt lat="45.62974064591747" lon="10.8690065500877"><ele>124.0</ele><time>2026-04-26T08:33:20.999Z</time></trkpt><trkpt lat="45.629887835621304" lon="10.869129887903942"><ele>124.0</ele><time>2026-04-26T08:33:21.999Z</time></trkpt><trkpt lat="45.63001547233091" lon="10.869236118947843"><ele>124.0</ele><time>2026-04-26T08:33:22.999Z</time></trkpt><trkpt lat="45.63015640629733" lon="10.869352933793888"><ele>124.0</ele><time>2026-04-26T08:33:23.999Z</time></trkpt><trkpt lat="45.63029455355731" lon="10.869468383206437"><ele>123.33333333333334</ele><time>2026-04-26T08:33:24.999Z</time></trkpt><trkpt lat="45.630423518208666" lon="10.869577171602677"><ele>122.66666666666666</ele><time>2026-04-26T08:33:25.999Z</time></trkpt><trkpt lat="45.63055185058908" lon="10.86968542660132"><ele>122.0</ele><time>2026-04-26T08:33:26.999Z</time></trkpt><trkpt lat="45.63069673544244" lon="10.86978029873045"><ele>122.0</ele><time>2026-04-26T08:33:27.999Z</time></trkpt><trkpt lat="45.63083972818354" lon="10.86992985943534"><ele>122.0</ele><time>2026-04-26T08:33:28.999Z</time></trkpt><trkpt lat="45.63098514024677" lon="10.87005475021201"><ele>122.0</ele><time>2026-04-26T08:33:29.999Z</time></trkpt><trkpt lat="45.63113199297494" lon="10.870185207296046"><ele>122.0</ele><time>2026-04-26T08:33:30.999Z</time></trkpt><trkpt lat="45.63127229543859" lon="10.870330120560341"><ele>122.0</ele><time>2026-04-26T08:33:31.999Z</time></trkpt><trkpt lat="45.63140394052319" lon="10.870470406825689"><ele>122.0</ele><time>2026-04-26T08:33:32.999Z</time></trkpt><trkpt lat="45.63153586902263" lon="10.870610728596853"><ele>122.0</ele><time>2026-04-26T08:33:33.999Z</time></trkpt><trkpt lat="45.631650919184644" lon="10.870729102206955"><ele>122.0</ele><time>2026-04-26T08:33:34.999Z</time></trkpt><trkpt lat="45.63178886721509" lon="10.870868202743452"><ele>122.0</ele><time>2026-04-26T08:33:35.999Z</time></trkpt><trkpt lat="45.63189778031701" lon="10.870986991556459"><ele>122.0</ele><time>2026-04-26T08:33:36.999Z</time></trkpt><trkpt lat="45.63199217449252" lon="10.871084905233113"><ele>122.49999999999999</ele><time>2026-04-26T08:33:37.999Z</time></trkpt><trkpt lat="45.632075440334845" lon="10.871171275410076"><ele>123.0</ele><time>2026-04-26T08:33:38.999Z</time></trkpt><trkpt lat="45.63214755497354" lon="10.871246078549364"><ele>123.5</ele><time>2026-04-26T08:33:39.999Z</time></trkpt><trkpt lat="45.63221346766796" lon="10.87131318312999"><ele>124.0</ele><time>2026-04-26T08:33:40.999Z</time></trkpt><trkpt lat="45.63228205644672" lon="10.871378772625457"><ele>124.49999999999999</ele><time>2026-04-26T08:33:41.999Z</time></trkpt><trkpt lat="45.632354598537034" lon="10.871412088995061"><ele>125.0</ele><time>2026-04-26T08:33:42.999Z</time></trkpt><trkpt lat="45.63240569365463" lon="10.871476882882037"><ele>125.0</ele><time>2026-04-26T08:33:43.999Z</time></trkpt><trkpt lat="45.63242014590221" lon="10.87170807333641"><ele>125.0</ele><time>2026-04-26T08:33:45.999Z</time></trkpt><trkpt lat="45.632423171011276" lon="10.871866601271291"><ele>125.0</ele><time>2026-04-26T08:33:46.999Z</time></trkpt><trkpt lat="45.6324097601198" lon="10.872031552214354"><ele>125.0</ele><time>2026-04-26T08:33:47.999Z</time></trkpt><trkpt lat="45.63240652248341" lon="10.872173090573797"><ele>124.75</ele><time>2026-04-26T08:33:48.999Z</time></trkpt><trkpt lat="45.63242644681743" lon="10.872297218576637"><ele>124.5</ele><time>2026-04-26T08:33:49.999Z</time></trkpt><trkpt lat="45.632486317686364" lon="10.872406796317831"><ele>124.25</ele><time>2026-04-26T08:33:50.999Z</time></trkpt><trkpt lat="45.63259023527332" lon="10.872488461390924"><ele>124.0</ele><time>2026-04-26T08:33:51.999Z</time></trkpt><trkpt lat="45.63274194280623" lon="10.872568450073917"><ele>124.33333333333334</ele><time>2026-04-26T08:33:52.999Z</time></trkpt><trkpt lat="45.63290732862503" lon="10.872694009326457"><ele>124.66666666666666</ele><time>2026-04-26T08:33:53.999Z</time></trkpt><trkpt lat="45.633096027033325" lon="10.872819532692938"><ele>125.0</ele><time>2026-04-26T08:33:54.999Z</time></trkpt><trkpt lat="45.63329746521895" lon="10.872926851495397"><ele>125.0</ele><time>2026-04-26T08:33:55.999Z</time></trkpt><trkpt lat="45.63347633705318" lon="10.873055460661819"><ele>125.0</ele><time>2026-04-26T08:33:56.999Z</time></trkpt><trkpt lat="45.63368055805419" lon="10.873196772439988"><ele>125.0</ele><time>2026-04-26T08:33:57.999Z</time></trkpt><trkpt lat="45.63387782016537" lon="10.873338514376492"><ele>123.66666666666666</ele><time>2026-04-26T08:33:58.999Z</time></trkpt><trkpt lat="45.63404542180138" lon="10.873491376227753"><ele>122.33333333333334</ele><time>2026-04-26T08:33:59.999Z</time></trkpt><trkpt lat="45.63420240793395" lon="10.873586479104663"><ele>121.0</ele><time>2026-04-26T08:34:00.999Z</time></trkpt><trkpt lat="45.634329669320124" lon="10.873690625835861"><ele>121.0</ele><time>2026-04-26T08:34:01.999Z</time></trkpt><trkpt lat="45.634442094126506" lon="10.873782207005746"><ele>121.0</ele><time>2026-04-26T08:34:02.999Z</time></trkpt><trkpt lat="45.634538487661715" lon="10.87385946380087"><ele>121.0</ele><time>2026-04-26T08:34:03.999Z</time></trkpt><trkpt lat="45.63460668109277" lon="10.87391577809945"><ele>121.0</ele><time>2026-04-26T08:34:04.999Z</time></trkpt><trkpt lat="45.63469830603018" lon="10.873945843579492"><ele>121.0</ele><time>2026-04-26T08:34:06.999Z</time></trkpt><trkpt lat="45.63477965378212" lon="10.873806550912866"><ele>121.16666666666667</ele><time>2026-04-26T08:34:08.999Z</time></trkpt><trkpt lat="45.63481552276313" lon="10.873719565966168"><ele>121.33333333333334</ele><time>2026-04-26T08:34:09.999Z</time></trkpt><trkpt lat="45.63485668668852" lon="10.87361974091065"><ele>121.5</ele><time>2026-04-26T08:34:10.999Z</time></trkpt><trkpt lat="45.634919990916366" lon="10.873490850704847"><ele>121.66666666666666</ele><time>2026-04-26T08:34:12.999Z</time></trkpt><trkpt lat="45.63498754873619" lon="10.873456632395389"><ele>121.83333333333333</ele><time>2026-04-26T08:34:17.999Z</time></trkpt><trkpt lat="45.63504698492462" lon="10.87352882017073"><ele>122.0</ele><time>2026-04-26T08:34:20.999Z</time></trkpt><trkpt lat="45.635155511869186" lon="10.87362396614736"><ele>122.0</ele><time>2026-04-26T08:34:22.999Z</time></trkpt><trkpt lat="45.63526528975709" lon="10.873689357739863"><ele>121.99999999999999</ele><time>2026-04-26T08:34:24.999Z</time></trkpt><trkpt lat="45.6353241531561" lon="10.873731233860086"><ele>121.99999999999999</ele><time>2026-04-26T08:34:25.999Z</time></trkpt><trkpt lat="45.63539865143547" lon="10.873795352205859"><ele>122.0</ele><time>2026-04-26T08:34:26.999Z</time></trkpt><trkpt lat="45.635502757878406" lon="10.8738942347269"><ele>122.0</ele><time>2026-04-26T08:34:27.999Z</time></trkpt><trkpt lat="45.63561897653397" lon="10.873997334984596"><ele>122.0</ele><time>2026-04-26T08:34:28.999Z</time></trkpt><trkpt lat="45.63574912918872" lon="10.874122502333405"><ele>122.0</ele><time>2026-04-26T08:34:29.999Z</time></trkpt><trkpt lat="45.63587416813833" lon="10.874245575441355"><ele>122.0</ele><time>2026-04-26T08:34:30.999Z</time></trkpt><trkpt lat="45.636015206805205" lon="10.874374151385549"><ele>121.66666666666666</ele><time>2026-04-26T08:34:31.999Z</time></trkpt><trkpt lat="45.63617350817965" lon="10.874531977288864"><ele>121.33333333333334</ele><time>2026-04-26T08:34:32.999Z</time></trkpt><trkpt lat="45.636335731583884" lon="10.874687771597786"><ele>121.0</ele><time>2026-04-26T08:34:33.999Z</time></trkpt><trkpt lat="45.63651967160639" lon="10.87486689984744"><ele>121.0</ele><time>2026-04-26T08:34:34.999Z</time></trkpt><trkpt lat="45.63670955600891" lon="10.875078839066441"><ele>121.0</ele><time>2026-04-26T08:34:35.999Z</time></trkpt><trkpt lat="45.63687578320588" lon="10.875218790045682"><ele>121.0</ele><time>2026-04-26T08:34:36.999Z</time></trkpt><trkpt lat="45.63702975069757" lon="10.87538594022479"><ele>121.0</ele><time>2026-04-26T08:34:37.999Z</time></trkpt><trkpt lat="45.63717671677187" lon="10.875499915335636"><ele>121.0</ele><time>2026-04-26T08:34:38.999Z</time></trkpt><trkpt lat="45.63729708751406" lon="10.875617589775489"><ele>121.0</ele><time>2026-04-26T08:34:39.999Z</time></trkpt><trkpt lat="45.63739449560399" lon="10.875744192030032"><ele>121.0</ele><time>2026-04-26T08:34:40.999Z</time></trkpt><trkpt lat="45.63749366286063" lon="10.875815960313961"><ele>121.00000000000001</ele><time>2026-04-26T08:34:41.999Z</time></trkpt><trkpt lat="45.63756256675276" lon="10.87588775585605"><ele>121.0</ele><time>2026-04-26T08:34:42.999Z</time></trkpt><trkpt lat="45.63761804729025" lon="10.87601865593921"><ele>121.0</ele><time>2026-04-26T08:34:44.999Z</time></trkpt><trkpt lat="45.63758285059125" lon="10.876101102993479"><ele>121.0</ele><time>2026-04-26T08:34:45.999Z</time></trkpt><trkpt lat="45.637584508011734" lon="10.876241980104343"><ele>121.00000000000001</ele><time>2026-04-26T08:34:46.999Z</time></trkpt><trkpt lat="45.637603587115464" lon="10.876351767583001"><ele>121.0</ele><time>2026-04-26T08:34:47.999Z</time></trkpt><trkpt lat="45.63767207847963" lon="10.876515217201534"><ele>120.75</ele><time>2026-04-26T08:34:49.999Z</time></trkpt><trkpt lat="45.63779307014426" lon="10.876593452184036"><ele>120.5</ele><time>2026-04-26T08:34:51.999Z</time></trkpt><trkpt lat="45.63789079671534" lon="10.876667922042488"><ele>120.25</ele><time>2026-04-26T08:34:52.999Z</time></trkpt><trkpt lat="45.63801724800878" lon="10.876725824673429"><ele>120.0</ele><time>2026-04-26T08:34:53.999Z</time></trkpt><trkpt lat="45.638104540290335" lon="10.876773554218525"><ele>119.6</ele><time>2026-04-26T08:34:54.999Z</time></trkpt><trkpt lat="45.638093323783885" lon="10.87689699855518"><ele>119.2</ele><time>2026-04-26T08:34:57.999Z</time></trkpt><trkpt lat="45.638126187599866" lon="10.877014622568487"><ele>118.80000000000001</ele><time>2026-04-26T08:34:59.999Z</time></trkpt><trkpt lat="45.63824217463258" lon="10.877076571037158"><ele>118.4</ele><time>2026-04-26T08:35:01.999Z</time></trkpt><trkpt lat="45.638310248775426" lon="10.877127153535664"><ele>118.0</ele><time>2026-04-26T08:35:02.999Z</time></trkpt><trkpt lat="45.63844094524557" lon="10.877096154470127"><ele>118.0</ele><time>2026-04-26T08:35:03.999Z</time></trkpt><trkpt lat="45.63852181300705" lon="10.877115509345858"><ele>118.0</ele><time>2026-04-26T08:35:04.999Z</time></trkpt><trkpt lat="45.63864552755902" lon="10.877170057233958"><ele>118.0</ele><time>2026-04-26T08:35:06.999Z</time></trkpt><trkpt lat="45.63871319048387" lon="10.877246870185127"><ele>118.0</ele><time>2026-04-26T08:35:07.999Z</time></trkpt><trkpt lat="45.63886509136995" lon="10.877193168494559"><ele>118.0</ele><time>2026-04-26T08:35:08.999Z</time></trkpt><trkpt lat="45.638945877320566" lon="10.877296449980028"><ele>118.0</ele><time>2026-04-26T08:35:10Z</time></trkpt><trkpt lat="45.63903683188429" lon="10.877412731356353"><ele>118.0</ele><time>2026-04-26T08:35:11Z</time></trkpt><trkpt lat="45.639127191542435" lon="10.877527755898628"><ele>118.0</ele><time>2026-04-26T08:35:12Z</time></trkpt><trkpt lat="45.639237419824404" lon="10.877664620712713"><ele>118.0</ele><time>2026-04-26T08:35:13Z</time></trkpt><trkpt lat="45.63934408643068" lon="10.877793509081704"><ele>118.0</ele><time>2026-04-26T08:35:14Z</time></trkpt><trkpt lat="45.63943864845899" lon="10.877901610503233"><ele>118.0</ele><time>2026-04-26T08:35:15Z</time></trkpt><trkpt lat="45.639529539211225" lon="10.878003965847958"><ele>118.0</ele><time>2026-04-26T08:35:16Z</time></trkpt><trkpt lat="45.63963859541284" lon="10.878124383116079"><ele>118.66666666666667</ele><time>2026-04-26T08:35:17Z</time></trkpt><trkpt lat="45.63976575242551" lon="10.878259382938685"><ele>119.33333333333334</ele><time>2026-04-26T08:35:18Z</time></trkpt><trkpt lat="45.639900009690784" lon="10.878392405642582"><ele>120.0</ele><time>2026-04-26T08:35:19Z</time></trkpt><trkpt lat="45.6400228020968" lon="10.87850879660736"><ele>119.0</ele><time>2026-04-26T08:35:20Z</time></trkpt><trkpt lat="45.640134447199436" lon="10.878611220152107"><ele>118.0</ele><time>2026-04-26T08:35:21Z</time></trkpt><trkpt lat="45.64027704211111" lon="10.878738099945513"><ele>117.0</ele><time>2026-04-26T08:35:22Z</time></trkpt><trkpt lat="45.64042539660878" lon="10.87885944148266"><ele>117.0</ele><time>2026-04-26T08:35:23Z</time></trkpt><trkpt lat="45.64056903270842" lon="10.87896927241423"><ele>117.0</ele><time>2026-04-26T08:35:24Z</time></trkpt><trkpt lat="45.64073889487499" lon="10.879097284324404"><ele>117.0</ele><time>2026-04-26T08:35:25Z</time></trkpt><trkpt lat="45.640888289278244" lon="10.879207983521523"><ele>116.75</ele><time>2026-04-26T08:35:26Z</time></trkpt><trkpt lat="45.64102260927332" lon="10.879306811653997"><ele>116.5</ele><time>2026-04-26T08:35:27Z</time></trkpt><trkpt lat="45.64114455464418" lon="10.879396534691699"><ele>116.25</ele><time>2026-04-26T08:35:28Z</time></trkpt><trkpt lat="45.641253772869526" lon="10.879476893677536"><ele>116.0</ele><time>2026-04-26T08:35:29Z</time></trkpt><trkpt lat="45.641348141209484" lon="10.87954632652436"><ele>116.0</ele><time>2026-04-26T08:35:30Z</time></trkpt><trkpt lat="45.64145536422866" lon="10.879625217467018"><ele>116.0</ele><time>2026-04-26T08:35:31Z</time></trkpt><trkpt lat="45.64156962287183" lon="10.879710087240795"><ele>116.0</ele><time>2026-04-26T08:35:32Z</time></trkpt><trkpt lat="45.64168522138949" lon="10.879801482958591"><ele>116.0</ele><time>2026-04-26T08:35:33Z</time></trkpt><trkpt lat="45.641792383027" lon="10.879890892358038"><ele>116.0</ele><time>2026-04-26T08:35:34Z</time></trkpt><trkpt lat="45.64187525008916" lon="10.879960521305936"><ele>116.0</ele><time>2026-04-26T08:35:35Z</time></trkpt><trkpt lat="45.64196464219025" lon="10.880036469058389"><ele>116.0</ele><time>2026-04-26T08:35:36Z</time></trkpt><trkpt lat="45.642071961776004" lon="10.880131812071669"><ele>116.0</ele><time>2026-04-26T08:35:37Z</time></trkpt><trkpt lat="45.642163097310466" lon="10.8802162011076"><ele>116.0</ele><time>2026-04-26T08:35:38Z</time></trkpt><trkpt lat="45.64224577106954" lon="10.88029359485427"><ele>114.8</ele><time>2026-04-26T08:35:39Z</time></trkpt><trkpt lat="45.64232950886042" lon="10.880374004709065"><ele>113.6</ele><time>2026-04-26T08:35:40Z</time></trkpt><trkpt lat="45.64241591825394" lon="10.880456979936547"><ele>112.4</ele><time>2026-04-26T08:35:41Z</time></trkpt><trkpt lat="45.642483645499865" lon="10.880522015487072"><ele>111.2</ele><time>2026-04-26T08:35:42Z</time></trkpt><trkpt lat="45.642571290352365" lon="10.880606176402374"><ele>110.0</ele><time>2026-04-26T08:35:44Z</time></trkpt><trkpt lat="45.642684445760835" lon="10.880587629540642"><ele>110.0</ele><time>2026-04-26T08:35:47Z</time></trkpt><trkpt lat="45.64276557522103" lon="10.880526982031075"><ele>110.0</ele><time>2026-04-26T08:35:48Z</time></trkpt><trkpt lat="45.64286441966925" lon="10.880460673727253"><ele>110.0</ele><time>2026-04-26T08:35:49Z</time></trkpt><trkpt lat="45.64295942442554" lon="10.880414035814242"><ele>110.0</ele><time>2026-04-26T08:35:50Z</time></trkpt><trkpt lat="45.643071856165584" lon="10.880348335305706"><ele>110.0</ele><time>2026-04-26T08:35:51Z</time></trkpt><trkpt lat="45.64314147124591" lon="10.880272780093527"><ele>109.8</ele><time>2026-04-26T08:35:52Z</time></trkpt><trkpt lat="45.64319625970341" lon="10.880199773338592"><ele>109.6</ele><time>2026-04-26T08:35:53Z</time></trkpt><trkpt lat="45.64322758886043" lon="10.880121107683266"><ele>109.4</ele><time>2026-04-26T08:35:54Z</time></trkpt><trkpt lat="45.64328146229768" lon="10.88001173738498"><ele>109.2</ele><time>2026-04-26T08:35:55Z</time></trkpt><trkpt lat="45.64330179076937" lon="10.87986985596141"><ele>109.0</ele><time>2026-04-26T08:35:56Z</time></trkpt><trkpt lat="45.64331341315458" lon="10.879672891886896"><ele>109.0</ele><time>2026-04-26T08:35:57Z</time></trkpt><trkpt lat="45.6433201359555" lon="10.879439097430684"><ele>109.0</ele><time>2026-04-26T08:35:58Z</time></trkpt><trkpt lat="45.64329881322065" lon="10.879286562721967"><ele>109.0</ele><time>2026-04-26T08:35:59Z</time></trkpt><trkpt lat="45.64326897673828" lon="10.879103331505346"><ele>109.0</ele><time>2026-04-26T08:36:00Z</time></trkpt><trkpt lat="45.64322468822508" lon="10.878907504990602"><ele>109.83333333333334</ele><time>2026-04-26T08:36:01Z</time></trkpt><trkpt lat="45.64318038488573" lon="10.878780619862178"><ele>110.66666666666667</ele><time>2026-04-26T08:36:02Z</time></trkpt><trkpt lat="45.6431241890167" lon="10.878649458924615"><ele>111.5</ele><time>2026-04-26T08:36:03Z</time></trkpt><trkpt lat="45.643084491416" lon="10.87856406606323"><ele>112.33333333333334</ele><time>2026-04-26T08:36:04Z</time></trkpt><trkpt lat="45.64306133030154" lon="10.878448088536258"><ele>113.16666666666667</ele><time>2026-04-26T08:36:06Z</time></trkpt><trkpt lat="45.643127972920986" lon="10.878420342835987"><ele>114.0</ele><time>2026-04-26T08:36:10Z</time></trkpt><trkpt lat="45.64318628677634" lon="10.8784544254454"><ele>114.0</ele><time>2026-04-26T08:36:13Z</time></trkpt><trkpt lat="45.643273241834095" lon="10.87848545569937"><ele>113.99999999999999</ele><time>2026-04-26T08:36:17Z</time></trkpt><trkpt lat="45.64334472492354" lon="10.878517985117005"><ele>114.0</ele><time>2026-04-26T08:36:20Z</time></trkpt><trkpt lat="45.64341603863107" lon="10.878546661370091"><ele>114.0</ele><time>2026-04-26T08:36:23Z</time></trkpt><trkpt lat="45.643485751847315" lon="10.878563784560766"><ele>113.99999999999999</ele><time>2026-04-26T08:36:25Z</time></trkpt><trkpt lat="45.643548730008895" lon="10.87857529227855"><ele>114.0</ele><time>2026-04-26T08:36:27Z</time></trkpt><trkpt lat="45.643616872131496" lon="10.878596663231061"><ele>114.0</ele><time>2026-04-26T08:36:28Z</time></trkpt><trkpt lat="45.6437438396738" lon="10.878636422678392"><ele>114.66666666666666</ele><time>2026-04-26T08:36:29Z</time></trkpt><trkpt lat="45.64390307435782" lon="10.87869295556081"><ele>115.33333333333333</ele><time>2026-04-26T08:36:30Z</time></trkpt><trkpt lat="45.64406710604763" lon="10.878743554943833"><ele>116.0</ele><time>2026-04-26T08:36:31Z</time></trkpt><trkpt lat="45.64421623725816" lon="10.878807146136985"><ele>116.0</ele><time>2026-04-26T08:36:32Z</time></trkpt><trkpt lat="45.64437733029203" lon="10.878872473406101"><ele>116.0</ele><time>2026-04-26T08:36:33Z</time></trkpt><trkpt lat="45.64453730149244" lon="10.878926818794861"><ele>116.0</ele><time>2026-04-26T08:36:34Z</time></trkpt><trkpt lat="45.644707852774104" lon="10.878979491938512"><ele>118.0</ele><time>2026-04-26T08:36:35Z</time></trkpt><trkpt lat="45.644867299745755" lon="10.879032531201164"><ele>120.0</ele><time>2026-04-26T08:36:36Z</time></trkpt><trkpt lat="45.64502841472528" lon="10.879093966781454"><ele>122.0</ele><time>2026-04-26T08:36:37Z</time></trkpt><trkpt lat="45.645205275797544" lon="10.879161594913423"><ele>124.0</ele><time>2026-04-26T08:36:38Z</time></trkpt><trkpt lat="45.64539223277304" lon="10.879224985853545"><ele>126.0</ele><time>2026-04-26T08:36:39Z</time></trkpt><trkpt lat="45.64556819598035" lon="10.879287759525756"><ele>128.0</ele><time>2026-04-26T08:36:40Z</time></trkpt><trkpt lat="45.64575586741685" lon="10.879348161688819"><ele>129.33333333333331</ele><time>2026-04-26T08:36:41Z</time></trkpt><trkpt lat="45.645935208176475" lon="10.879408370804486"><ele>130.66666666666666</ele><time>2026-04-26T08:36:42Z</time></trkpt><trkpt lat="45.64610173577871" lon="10.879467253705888"><ele>132.0</ele><time>2026-04-26T08:36:43Z</time></trkpt><trkpt lat="45.646262433339544" lon="10.879546857456987"><ele>132.0</ele><time>2026-04-26T08:36:44Z</time></trkpt><trkpt lat="45.64642993266206" lon="10.879668705308035"><ele>132.0</ele><time>2026-04-26T08:36:45Z</time></trkpt><trkpt lat="45.646583050392735" lon="10.879828263499153"><ele>132.0</ele><time>2026-04-26T08:36:46Z</time></trkpt><trkpt lat="45.64672760749499" lon="10.880044501706575"><ele>127.33333333333334</ele><time>2026-04-26T08:36:47Z</time></trkpt><trkpt lat="45.64685409172132" lon="10.880307318145027"><ele>122.66666666666667</ele><time>2026-04-26T08:36:48Z</time></trkpt><trkpt lat="45.64696827843279" lon="10.880584106385186"><ele>118.0</ele><time>2026-04-26T08:36:49Z</time></trkpt><trkpt lat="45.647097121632854" lon="10.880855025668776"><ele>125.0</ele><time>2026-04-26T08:36:50Z</time></trkpt><trkpt lat="45.64723394582934" lon="10.881133449356737"><ele>132.0</ele><time>2026-04-26T08:36:51Z</time></trkpt><trkpt lat="45.64737366177687" lon="10.881416598510057"><ele>132.0</ele><time>2026-04-26T08:36:52Z</time></trkpt><trkpt lat="45.647503471095774" lon="10.88168351165336"><ele>132.0</ele><time>2026-04-26T08:36:53Z</time></trkpt><trkpt lat="45.64761766474249" lon="10.881926527394068"><ele>132.0</ele><time>2026-04-26T08:36:54Z</time></trkpt><trkpt lat="45.647726884501" lon="10.882149858296424"><ele>132.33333333333334</ele><time>2026-04-26T08:36:55Z</time></trkpt><trkpt lat="45.64783327700895" lon="10.88235617825278"><ele>132.66666666666669</ele><time>2026-04-26T08:36:56Z</time></trkpt><trkpt lat="45.64793201859616" lon="10.882532998399686"><ele>133.0</ele><time>2026-04-26T08:36:57Z</time></trkpt><trkpt lat="45.64804387024844" lon="10.882701452846069"><ele>129.66666666666669</ele><time>2026-04-26T08:36:58Z</time></trkpt><trkpt lat="45.64816211089118" lon="10.88287003918013"><ele>126.33333333333334</ele><time>2026-04-26T08:36:59Z</time></trkpt><trkpt lat="45.64828875721368" lon="10.883037021576829"><ele>123.0</ele><time>2026-04-26T08:37:00Z</time></trkpt><trkpt lat="45.64842726433764" lon="10.88320787460221"><ele>123.0</ele><time>2026-04-26T08:37:01Z</time></trkpt><trkpt lat="45.64858328088399" lon="10.883379533510583"><ele>123.0</ele><time>2026-04-26T08:37:02Z</time></trkpt><trkpt lat="45.64875038121585" lon="10.883548919149312"><ele>123.0</ele><time>2026-04-26T08:37:03Z</time></trkpt><trkpt lat="45.64891647128291" lon="10.883700367350848"><ele>123.0</ele><time>2026-04-26T08:37:04Z</time></trkpt><trkpt lat="45.64908392487515" lon="10.883847943175974"><ele>123.0</ele><time>2026-04-26T08:37:05Z</time></trkpt><trkpt lat="45.64925287453643" lon="10.883994279336209"><ele>123.0</ele><time>2026-04-26T08:37:06Z</time></trkpt><trkpt lat="45.64942866210412" lon="10.884153131497113"><ele>125.0</ele><time>2026-04-26T08:37:07Z</time></trkpt><trkpt lat="45.64959877968933" lon="10.884315688301076"><ele>127.0</ele><time>2026-04-26T08:37:08Z</time></trkpt><trkpt lat="45.64975742505064" lon="10.884468402526112"><ele>129.0</ele><time>2026-04-26T08:37:09Z</time></trkpt><trkpt lat="45.64992058427536" lon="10.884620856173566"><ele>129.0</ele><time>2026-04-26T08:37:10Z</time></trkpt><trkpt lat="45.65008996247373" lon="10.884776110260693"><ele>129.0</ele><time>2026-04-26T08:37:10.999Z</time></trkpt><trkpt lat="45.65026314172406" lon="10.884943511319062"><ele>129.0</ele><time>2026-04-26T08:37:11.999Z</time></trkpt><trkpt lat="45.65043681985604" lon="10.885134293429058"><ele>129.0</ele><time>2026-04-26T08:37:12.999Z</time></trkpt><trkpt lat="45.650601422448105" lon="10.885360381707608"><ele>129.0</ele><time>2026-04-26T08:37:13.999Z</time></trkpt><trkpt lat="45.650740322546284" lon="10.885576456290304"><ele>129.0</ele><time>2026-04-26T08:37:14.999Z</time></trkpt><trkpt lat="45.65086433499014" lon="10.885769746670787"><ele>127.66666666666666</ele><time>2026-04-26T08:37:16Z</time></trkpt><trkpt lat="45.65097918280649" lon="10.885943795759975"><ele>126.33333333333333</ele><time>2026-04-26T08:37:17Z</time></trkpt><trkpt lat="45.65108286141864" lon="10.886092928671385"><ele>125.0</ele><time>2026-04-26T08:37:18Z</time></trkpt><trkpt lat="45.65119075444892" lon="10.886249800300456"><ele>126.0</ele><time>2026-04-26T08:37:19Z</time></trkpt><trkpt lat="45.65130143183772" lon="10.88641620506105"><ele>127.0</ele><time>2026-04-26T08:37:20Z</time></trkpt><trkpt lat="45.65142608747249" lon="10.886603678416794"><ele>128.0</ele><time>2026-04-26T08:37:21Z</time></trkpt><trkpt lat="45.65156007229558" lon="10.886793088546812"><ele>128.0</ele><time>2026-04-26T08:37:22Z</time></trkpt><trkpt lat="45.65167973990251" lon="10.886964958231324"><ele>128.0</ele><time>2026-04-26T08:37:23Z</time></trkpt><trkpt lat="45.651800434956805" lon="10.887147510228361"><ele>128.0</ele><time>2026-04-26T08:37:24Z</time></trkpt><trkpt lat="45.65191902655522" lon="10.88732085037104"><ele>129.33333333333331</ele><time>2026-04-26T08:37:25Z</time></trkpt><trkpt lat="45.65203900011199" lon="10.887477786885858"><ele>130.66666666666666</ele><time>2026-04-26T08:37:25.999Z</time></trkpt><trkpt lat="45.65216606835383" lon="10.88763063606517"><ele>132.0</ele><time>2026-04-26T08:37:26.999Z</time></trkpt><trkpt lat="45.65229105475957" lon="10.887770176766297"><ele>132.0</ele><time>2026-04-26T08:37:27.999Z</time></trkpt><trkpt lat="45.65241732992368" lon="10.887901284564892"><ele>132.0</ele><time>2026-04-26T08:37:28.999Z</time></trkpt><trkpt lat="45.652528945557656" lon="10.888011730096123"><ele>132.0</ele><time>2026-04-26T08:37:29.999Z</time></trkpt><trkpt lat="45.652621177368836" lon="10.88809712816301"><ele>132.0</ele><time>2026-04-26T08:37:30.999Z</time></trkpt><trkpt lat="45.65270649224319" lon="10.888173597243284"><ele>132.0</ele><time>2026-04-26T08:37:31.999Z</time></trkpt><trkpt lat="45.65277879959872" lon="10.888268586262877"><ele>132.0</ele><time>2026-04-26T08:37:32.999Z</time></trkpt><trkpt lat="45.652829099140384" lon="10.888397264562316"><ele>132.0</ele><time>2026-04-26T08:37:33.999Z</time></trkpt><trkpt lat="45.65286301718713" lon="10.888569207576923"><ele>132.0</ele><time>2026-04-26T08:37:34.999Z</time></trkpt><trkpt lat="45.65289812900126" lon="10.888727434522757"><ele>132.0</ele><time>2026-04-26T08:37:35.999Z</time></trkpt><trkpt lat="45.65293281645097" lon="10.888874376823615"><ele>131.83333333333334</ele><time>2026-04-26T08:37:36.999Z</time></trkpt><trkpt lat="45.652961696366184" lon="10.889002598681888"><ele>131.66666666666666</ele><time>2026-04-26T08:37:37.999Z</time></trkpt><trkpt lat="45.65299277332353" lon="10.889122014365523"><ele>131.5</ele><time>2026-04-26T08:37:38.999Z</time></trkpt><trkpt lat="45.653021364262614" lon="10.889236675360365"><ele>131.33333333333331</ele><time>2026-04-26T08:37:39.999Z</time></trkpt><trkpt lat="45.653048679329316" lon="10.889348830021747"><ele>131.16666666666666</ele><time>2026-04-26T08:37:40.999Z</time></trkpt><trkpt lat="45.653076128930515" lon="10.889473079494431"><ele>131.0</ele><time>2026-04-26T08:37:41.999Z</time></trkpt><trkpt lat="45.6531090942346" lon="10.889604775070369"><ele>130.6</ele><time>2026-04-26T08:37:42.999Z</time></trkpt><trkpt lat="45.65314565983129" lon="10.889740526298759"><ele>130.2</ele><time>2026-04-26T08:37:43.999Z</time></trkpt><trkpt lat="45.653176176213925" lon="10.889868133729232"><ele>129.8</ele><time>2026-04-26T08:37:44.999Z</time></trkpt><trkpt lat="45.65320977769484" lon="10.889993622360201"><ele>129.4</ele><time>2026-04-26T08:37:45.999Z</time></trkpt><trkpt lat="45.65324612239558" lon="10.89013532710533"><ele>129.0</ele><time>2026-04-26T08:37:46.999Z</time></trkpt><trkpt lat="45.65328663792647" lon="10.89029862494629"><ele>128.5</ele><time>2026-04-26T08:37:47.999Z</time></trkpt><trkpt lat="45.65333332751725" lon="10.890469039897996"><ele>128.0</ele><time>2026-04-26T08:37:48.999Z</time></trkpt><trkpt lat="45.653386255860745" lon="10.890626321026314"><ele>127.5</ele><time>2026-04-26T08:37:49.999Z</time></trkpt><trkpt lat="45.65344864860689" lon="10.890767858311213"><ele>127.0</ele><time>2026-04-26T08:37:50.999Z</time></trkpt><trkpt lat="45.65352029843522" lon="10.890897683292133"><ele>127.0</ele><time>2026-04-26T08:37:51.999Z</time></trkpt><trkpt lat="45.65359814822757" lon="10.891033514029905"><ele>127.0</ele><time>2026-04-26T08:37:52.999Z</time></trkpt><trkpt lat="45.65367811809327" lon="10.891171730296453"><ele>127.0</ele><time>2026-04-26T08:37:53.999Z</time></trkpt><trkpt lat="45.65375516638465" lon="10.89130805818128"><ele>127.0</ele><time>2026-04-26T08:37:54.999Z</time></trkpt><trkpt lat="45.653822056958724" lon="10.891425602201435"><ele>127.0</ele><time>2026-04-26T08:37:55.999Z</time></trkpt><trkpt lat="45.653885298887126" lon="10.891544370431403"><ele>126.99999999999999</ele><time>2026-04-26T08:37:56.999Z</time></trkpt><trkpt lat="45.65395200213636" lon="10.891671566401612"><ele>126.99999999999999</ele><time>2026-04-26T08:37:57.999Z</time></trkpt><trkpt lat="45.654022769420116" lon="10.891802569770666"><ele>127.0</ele><time>2026-04-26T08:37:58.999Z</time></trkpt><trkpt lat="45.654092353254384" lon="10.891934501385176"><ele>127.0</ele><time>2026-04-26T08:37:59.999Z</time></trkpt><trkpt lat="45.654152207728316" lon="10.892057857869013"><ele>126.8</ele><time>2026-04-26T08:38:00.999Z</time></trkpt><trkpt lat="45.65420449777867" lon="10.89219650499728"><ele>126.6</ele><time>2026-04-26T08:38:01.999Z</time></trkpt><trkpt lat="45.65424680237853" lon="10.892346558227226"><ele>126.39999999999999</ele><time>2026-04-26T08:38:02.999Z</time></trkpt><trkpt lat="45.654285124740106" lon="10.892496243263597"><ele>126.19999999999999</ele><time>2026-04-26T08:38:03.999Z</time></trkpt><trkpt lat="45.65432373472618" lon="10.892636480035788"><ele>126.0</ele><time>2026-04-26T08:38:04.999Z</time></trkpt><trkpt lat="45.65435787165275" lon="10.892765933122691"><ele>125.83333333333333</ele><time>2026-04-26T08:38:05.999Z</time></trkpt><trkpt lat="45.65439096052282" lon="10.892886986963061"><ele>125.66666666666666</ele><time>2026-04-26T08:38:06.999Z</time></trkpt><trkpt lat="45.6544236921201" lon="10.893006824278203"><ele>125.5</ele><time>2026-04-26T08:38:07.999Z</time></trkpt><trkpt lat="45.65445132113137" lon="10.89310793619266"><ele>125.33333333333333</ele><time>2026-04-26T08:38:08.999Z</time></trkpt><trkpt lat="45.65448721719368" lon="10.893198874574447"><ele>125.16666666666666</ele><time>2026-04-26T08:38:09.999Z</time></trkpt><trkpt lat="45.65453572303069" lon="10.893302817266333"><ele>125.0</ele><time>2026-04-26T08:38:10.999Z</time></trkpt><trkpt lat="45.65460375918328" lon="10.893423994069199"><ele>123.5</ele><time>2026-04-26T08:38:11.999Z</time></trkpt><trkpt lat="45.6546859514898" lon="10.893545317487419"><ele>122.0</ele><time>2026-04-26T08:38:12.999Z</time></trkpt><trkpt lat="45.654783452653625" lon="10.893662161640917"><ele>120.5</ele><time>2026-04-26T08:38:13.999Z</time></trkpt><trkpt lat="45.65489952866321" lon="10.893748606833102"><ele>119.0</ele><time>2026-04-26T08:38:14.999Z</time></trkpt><trkpt lat="45.65504049994623" lon="10.893805613307771"><ele>119.0</ele><time>2026-04-26T08:38:15.999Z</time></trkpt><trkpt lat="45.65520355043447" lon="10.893850590801877"><ele>119.0</ele><time>2026-04-26T08:38:16.999Z</time></trkpt><trkpt lat="45.65537370858082" lon="10.893878105434917"><ele>119.0</ele><time>2026-04-26T08:38:17.999Z</time></trkpt><trkpt lat="45.65555854651459" lon="10.893892682145289"><ele>119.5</ele><time>2026-04-26T08:38:18.999Z</time></trkpt><trkpt lat="45.65571927370994" lon="10.8938963368598"><ele>120.0</ele><time>2026-04-26T08:38:19.999Z</time></trkpt><trkpt lat="45.65585806356381" lon="10.89390990658484"><ele>120.5</ele><time>2026-04-26T08:38:20.999Z</time></trkpt><trkpt lat="45.65599089410167" lon="10.893945549406933"><ele>121.0</ele><time>2026-04-26T08:38:21.999Z</time></trkpt><trkpt lat="45.65611581638088" lon="10.893980136473312"><ele>120.6</ele><time>2026-04-26T08:38:22.999Z</time></trkpt><trkpt lat="45.65623207859003" lon="10.894006521537692"><ele>120.19999999999999</ele><time>2026-04-26T08:38:23.999Z</time></trkpt><trkpt lat="45.65634092577276" lon="10.89402800478699"><ele>119.80000000000001</ele><time>2026-04-26T08:38:24.999Z</time></trkpt><trkpt lat="45.65644114912675" lon="10.894045342688985"><ele>119.4</ele><time>2026-04-26T08:38:25.999Z</time></trkpt><trkpt lat="45.656538289658634" lon="10.894073280415714"><ele>119.0</ele><time>2026-04-26T08:38:26.999Z</time></trkpt><trkpt lat="45.656628282095916" lon="10.894104796277295"><ele>119.0</ele><time>2026-04-26T08:38:27.999Z</time></trkpt><trkpt lat="45.65672075439023" lon="10.89412676564477"><ele>119.0</ele><time>2026-04-26T08:38:28.999Z</time></trkpt><trkpt lat="45.65683286624074" lon="10.894142889487412"><ele>119.0</ele><time>2026-04-26T08:38:29.999Z</time></trkpt><trkpt lat="45.656960034625044" lon="10.894151249809703"><ele>119.0</ele><time>2026-04-26T08:38:30.999Z</time></trkpt><trkpt lat="45.65710338004684" lon="10.89415631087363"><ele>119.5</ele><time>2026-04-26T08:38:31.999Z</time></trkpt><trkpt lat="45.65726374142945" lon="10.894160609137488"><ele>120.0</ele><time>2026-04-26T08:38:32.999Z</time></trkpt><trkpt lat="45.65741584066819" lon="10.894167529254458"><ele>120.5</ele><time>2026-04-26T08:38:33.999Z</time></trkpt><trkpt lat="45.65752738426124" lon="10.894174796219938"><ele>121.0</ele><time>2026-04-26T08:38:34.999Z</time></trkpt><trkpt lat="45.65760168968223" lon="10.894179904299737"><ele>121.0</ele><time>2026-04-26T08:38:35.999Z</time></trkpt><trkpt lat="45.65768672301209" lon="10.894182740664288"><ele>121.0</ele><time>2026-04-26T08:38:37.999Z</time></trkpt><trkpt lat="45.657746531595315" lon="10.894134139795696"><ele>121.0</ele><time>2026-04-26T08:38:39.999Z</time></trkpt></trkseg><trkseg><trkpt lat="45.65704844926581" lon="10.894113726640748"><ele>121.0</ele><time>2026-04-26T08:50:45.999Z</time></trkpt><trkpt lat="45.65695744953261" lon="10.894111620517421"><ele>121.0</ele><time>2026-04-26T08:50:47.999Z</time></trkpt><trkpt lat="45.65685936507965" lon="10.894110315080995"><ele>121.0</ele><time>2026-04-26T08:50:49.999Z</time></trkpt><trkpt lat="45.65676062970958" lon="10.894105641411118"><ele>121.0</ele><time>2026-04-26T08:50:51.999Z</time></trkpt><trkpt lat="45.65667578441845" lon="10.894223807385856"><ele>121.0</ele><time>2026-04-26T08:50:53.999Z</time></trkpt><trkpt lat="45.65668597763734" lon="10.894348867236385"><ele>119.66666666666667</ele><time>2026-04-26T08:50:54.999Z</time></trkpt><trkpt lat="45.65667897845701" lon="10.894474043915672"><ele>118.33333333333334</ele><time>2026-04-26T08:50:55.999Z</time></trkpt><trkpt lat="45.656663087078265" lon="10.894609422622835"><ele>117.0</ele><time>2026-04-26T08:50:56.999Z</time></trkpt><trkpt lat="45.65664964625108" lon="10.894733516472405"><ele>115.66666666666666</ele><time>2026-04-26T08:50:57.999Z</time></trkpt><trkpt lat="45.6566361982631" lon="10.894861092620626"><ele>114.33333333333333</ele><time>2026-04-26T08:50:58.999Z</time></trkpt><trkpt lat="45.65662678153304" lon="10.894976258991933"><ele>113.0</ele><time>2026-04-26T08:50:59.999Z</time></trkpt><trkpt lat="45.65661702952547" lon="10.895109161210904"><ele>113.0</ele><time>2026-04-26T08:51:00.999Z</time></trkpt><trkpt lat="45.656603861040644" lon="10.895257224739241"><ele>113.00000000000001</ele><time>2026-04-26T08:51:01.999Z</time></trkpt><trkpt lat="45.65659021806638" lon="10.895397770069158"><ele>113.00000000000001</ele><time>2026-04-26T08:51:02.999Z</time></trkpt><trkpt lat="45.656578495760876" lon="10.895519085744134"><ele>113.0</ele><time>2026-04-26T08:51:03.999Z</time></trkpt><trkpt lat="45.65657147119129" lon="10.895620471628979"><ele>113.0</ele><time>2026-04-26T08:51:04.999Z</time></trkpt><trkpt lat="45.65654886680221" lon="10.895796387124859"><ele>113.0</ele><time>2026-04-26T08:51:06.999Z</time></trkpt><trkpt lat="45.656534754105785" lon="10.895914819130521"><ele>113.0</ele><time>2026-04-26T08:51:07.999Z</time></trkpt><trkpt lat="45.65652168854982" lon="10.89607942135767"><ele>113.0</ele><time>2026-04-26T08:51:08.999Z</time></trkpt><trkpt lat="45.65650257138101" lon="10.896265806504962"><ele>113.0</ele><time>2026-04-26T08:51:09.999Z</time></trkpt><trkpt lat="45.65648376371552" lon="10.896479171723689"><ele>114.0</ele><time>2026-04-26T08:51:10.999Z</time></trkpt><trkpt lat="45.65646105923294" lon="10.896704989642892"><ele>115.0</ele><time>2026-04-26T08:51:11.999Z</time></trkpt><trkpt lat="45.656440329971026" lon="10.896909405142969"><ele>116.0</ele><time>2026-04-26T08:51:12.999Z</time></trkpt><trkpt lat="45.65642362911285" lon="10.89708889348716"><ele>117.0</ele><time>2026-04-26T08:51:13.999Z</time></trkpt><trkpt lat="45.656409396862536" lon="10.897248978853213"><ele>117.39999999999999</ele><time>2026-04-26T08:51:14.999Z</time></trkpt><trkpt lat="45.656396837388534" lon="10.89739067707167"><ele>117.79999999999998</ele><time>2026-04-26T08:51:15.999Z</time></trkpt><trkpt lat="45.65637388310198" lon="10.897508875074331"><ele>118.2</ele><time>2026-04-26T08:51:16.999Z</time></trkpt><trkpt lat="45.65635909851803" lon="10.897612164204968"><ele>118.6</ele><time>2026-04-26T08:51:17.999Z</time></trkpt><trkpt lat="45.65636662811047" lon="10.897433951297778"><ele>119.0</ele><time>2026-04-26T08:51:23.999Z</time></trkpt><trkpt lat="45.65638078399454" lon="10.897324261485117"><ele>119.0</ele><time>2026-04-26T08:51:24.999Z</time></trkpt><trkpt lat="45.65639243253406" lon="10.897219607652302"><ele>119.0</ele><time>2026-04-26T08:51:25.999Z</time></trkpt><trkpt lat="45.65641132103811" lon="10.89704880668041"><ele>119.0</ele><time>2026-04-26T08:51:27.999Z</time></trkpt><trkpt lat="45.65637213972521" lon="10.89691270772151"><ele>119.0</ele><time>2026-04-26T08:51:28.999Z</time></trkpt><trkpt lat="45.656381717231" lon="10.896790227144994"><ele>119.0</ele><time>2026-04-26T08:51:29.999Z</time></trkpt><trkpt lat="45.65639573120795" lon="10.896640991694685"><ele>118.5</ele><time>2026-04-26T08:51:30.999Z</time></trkpt><trkpt lat="45.6564106132566" lon="10.896466767124625"><ele>118.0</ele><time>2026-04-26T08:51:31.999Z</time></trkpt><trkpt lat="45.65643539829786" lon="10.89626829987587"><ele>117.5</ele><time>2026-04-26T08:51:32.999Z</time></trkpt><trkpt lat="45.65645503944545" lon="10.896079502964108"><ele>117.0</ele><time>2026-04-26T08:51:33.999Z</time></trkpt><trkpt lat="45.65656950386562" lon="10.89596794281048"><ele>116.0</ele><time>2026-04-26T08:51:34.999Z</time></trkpt><trkpt lat="45.656581593774945" lon="10.89584044504724"><ele>115.0</ele><time>2026-04-26T08:51:35.999Z</time></trkpt><trkpt lat="45.65659052106831" lon="10.895746295772975"><ele>114.0</ele><time>2026-04-26T08:51:36.999Z</time></trkpt><trkpt lat="45.65660407267463" lon="10.895603244731525"><ele>113.0</ele><time>2026-04-26T08:51:38.999Z</time></trkpt><trkpt lat="45.65640478008588" lon="10.895540666471398"><ele>113.0</ele><time>2026-04-26T08:51:40.999Z</time></trkpt><trkpt lat="45.65623590087099" lon="10.89549186997867"><ele>113.0</ele><time>2026-04-26T08:51:42.999Z</time></trkpt><trkpt lat="45.656157378021106" lon="10.895495187177463"><ele>113.0</ele><time>2026-04-26T08:51:43.999Z</time></trkpt><trkpt lat="45.65601822423557" lon="10.895482978494753"><ele>113.0</ele><time>2026-04-26T08:51:44.999Z</time></trkpt><trkpt lat="45.65586715005315" lon="10.895463496927036"><ele>113.33333333333333</ele><time>2026-04-26T08:51:45.999Z</time></trkpt><trkpt lat="45.655722931111036" lon="10.895450135254164"><ele>113.66666666666666</ele><time>2026-04-26T08:51:46.999Z</time></trkpt><trkpt lat="45.655549211426596" lon="10.895467683896138"><ele>114.0</ele><time>2026-04-26T08:51:47.999Z</time></trkpt><trkpt lat="45.655384628639844" lon="10.895486745469256"><ele>114.0</ele><time>2026-04-26T08:51:48.999Z</time></trkpt><trkpt lat="45.65522052360417" lon="10.895501121881601"><ele>114.0</ele><time>2026-04-26T08:51:49.999Z</time></trkpt><trkpt lat="45.655048760218136" lon="10.895520487747017"><ele>114.0</ele><time>2026-04-26T08:51:50.999Z</time></trkpt><trkpt lat="45.654828030292" lon="10.895575633407722"><ele>114.0</ele><time>2026-04-26T08:51:51.999Z</time></trkpt><trkpt lat="45.654750207498886" lon="10.895583429750323"><ele>114.0</ele><time>2026-04-26T08:51:53.999Z</time></trkpt><trkpt lat="45.65469073566761" lon="10.895627297161896"><ele>114.0</ele><time>2026-04-26T08:51:54.999Z</time></trkpt><trkpt lat="45.65464614217558" lon="10.895724011310579"><ele>114.0</ele><time>2026-04-26T08:51:56.999Z</time></trkpt><trkpt lat="45.6546472792039" lon="10.895874209774561"><ele>114.0</ele><time>2026-04-26T08:51:59.998Z</time></trkpt><trkpt lat="45.6546329310371" lon="10.89600157422947"><ele>114.0</ele><time>2026-04-26T08:52:01.998Z</time></trkpt><trkpt lat="45.65456139959305" lon="10.896043999020003"><ele>114.0</ele><time>2026-04-26T08:52:04.999Z</time></trkpt><trkpt lat="45.65447370612042" lon="10.896033361523914"><ele>114.0</ele><time>2026-04-26T08:52:08.999Z</time></trkpt><trkpt lat="45.654398929824524" lon="10.895988106705413"><ele>114.0</ele><time>2026-04-26T08:52:15.999Z</time></trkpt><trkpt lat="45.65433275720183" lon="10.895938312046935"><ele>114.0</ele><time>2026-04-26T08:52:16.999Z</time></trkpt><trkpt lat="45.6542911249632" lon="10.89586985971804"><ele>114.0</ele><time>2026-04-26T08:52:17.999Z</time></trkpt><trkpt lat="45.65426546114016" lon="10.895693330181592"><ele>114.0</ele><time>2026-04-26T08:52:19.999Z</time></trkpt><trkpt lat="45.654254752935955" lon="10.895602142286398"><ele>114.0</ele><time>2026-04-26T08:52:20.999Z</time></trkpt><trkpt lat="45.65415368606425" lon="10.895589721098402"><ele>114.0</ele><time>2026-04-26T08:52:22.999Z</time></trkpt><trkpt lat="45.6540641625929" lon="10.895603752157696"><ele>114.0</ele><time>2026-04-26T08:52:23.999Z</time></trkpt><trkpt lat="45.65395527912542" lon="10.895637902980345"><ele>114.0</ele><time>2026-04-26T08:52:24.999Z</time></trkpt><trkpt lat="45.653852538985966" lon="10.895675909728206"><ele>114.0</ele><time>2026-04-26T08:52:25.999Z</time></trkpt><trkpt lat="45.65376425618061" lon="10.89570108252595"><ele>114.0</ele><time>2026-04-26T08:52:26.999Z</time></trkpt><trkpt lat="45.65365010081672" lon="10.8957159165161"><ele>114.0</ele><time>2026-04-26T08:52:27.999Z</time></trkpt><trkpt lat="45.653541986587676" lon="10.895744034784117"><ele>114.0</ele><time>2026-04-26T08:52:28.999Z</time></trkpt><trkpt lat="45.65345652607867" lon="10.89577238799588"><ele>114.0</ele><time>2026-04-26T08:52:29.999Z</time></trkpt><trkpt lat="45.6533757826903" lon="10.895806042499817"><ele>114.0</ele><time>2026-04-26T08:52:30.999Z</time></trkpt><trkpt lat="45.653270549355554" lon="10.895849910217663"><ele>114.0</ele><time>2026-04-26T08:52:31.999Z</time></trkpt><trkpt lat="45.65315522184672" lon="10.895893664912473"><ele>114.0</ele><time>2026-04-26T08:52:32.999Z</time></trkpt><trkpt lat="45.65305965595033" lon="10.895933199033822"><ele>114.0</ele><time>2026-04-26T08:52:33.999Z</time></trkpt><trkpt lat="45.65295712140997" lon="10.895984948910451"><ele>114.0</ele><time>2026-04-26T08:52:34.999Z</time></trkpt><trkpt lat="45.65286576043559" lon="10.896020424300096"><ele>114.0</ele><time>2026-04-26T08:52:35.999Z</time></trkpt><trkpt lat="45.65277524404538" lon="10.896046342661673"><ele>114.33333333333333</ele><time>2026-04-26T08:52:36.999Z</time></trkpt><trkpt lat="45.65269840164024" lon="10.896071499995198"><ele>114.66666666666666</ele><time>2026-04-26T08:52:37.999Z</time></trkpt><trkpt lat="45.652608282457855" lon="10.896156670003187"><ele>115.0</ele><time>2026-04-26T08:52:39.999Z</time></trkpt><trkpt lat="45.652536445692895" lon="10.896190008249203"><ele>115.33333333333333</ele><time>2026-04-26T08:52:42.999Z</time></trkpt><trkpt lat="45.6525856107716" lon="10.896249635275783"><ele>115.66666666666666</ele><time>2026-04-26T08:52:54.999Z</time></trkpt><trkpt lat="45.652668992188296" lon="10.896350999263657"><ele>116.0</ele><time>2026-04-26T08:55:56.001Z</time></trkpt><trkpt lat="45.65268718074232" lon="10.896449894500478"><ele>116.0</ele><time>2026-04-26T08:55:57.001Z</time></trkpt><trkpt lat="45.65270033239032" lon="10.89657041262545"><ele>116.0</ele><time>2026-04-26T08:55:58.001Z</time></trkpt><trkpt lat="45.65271434465185" lon="10.896705263250894"><ele>116.0</ele><time>2026-04-26T08:55:59.001Z</time></trkpt><trkpt lat="45.65273612813248" lon="10.896831523418333"><ele>116.0</ele><time>2026-04-26T08:56:00.001Z</time></trkpt><trkpt lat="45.652760827453925" lon="10.896965590768241"><ele>116.0</ele><time>2026-04-26T08:56:01.001Z</time></trkpt><trkpt lat="45.65278787842804" lon="10.897139753672578"><ele>115.75</ele><time>2026-04-26T08:56:02.001Z</time></trkpt><trkpt lat="45.65281210950411" lon="10.897301519729707"><ele>115.5</ele><time>2026-04-26T08:56:03.001Z</time></trkpt><trkpt lat="45.65282403370179" lon="10.897457834425404"><ele>115.25</ele><time>2026-04-26T08:56:04.001Z</time></trkpt><trkpt lat="45.652829867509865" lon="10.897642570206175"><ele>115.0</ele><time>2026-04-26T08:56:05.001Z</time></trkpt><trkpt lat="45.65282667851074" lon="10.897824066211108"><ele>115.33333333333334</ele><time>2026-04-26T08:56:06.001Z</time></trkpt><trkpt lat="45.65282901067407" lon="10.897995239890722"><ele>115.66666666666667</ele><time>2026-04-26T08:56:07.001Z</time></trkpt><trkpt lat="45.652817606915434" lon="10.898109582916906"><ele>116.0</ele><time>2026-04-26T08:56:08.001Z</time></trkpt><trkpt lat="45.65281599041927" lon="10.8982200647838"><ele>116.33333333333334</ele><time>2026-04-26T08:56:09.001Z</time></trkpt><trkpt lat="45.65280926765001" lon="10.898341904519512"><ele>116.66666666666667</ele><time>2026-04-26T08:56:10.001Z</time></trkpt><trkpt lat="45.652808969869305" lon="10.898435852258787"><ele>117.0</ele><time>2026-04-26T08:56:11.001Z</time></trkpt><trkpt lat="45.65287624625543" lon="10.898481392649057"><ele>117.0</ele><time>2026-04-26T08:56:14.001Z</time></trkpt><trkpt lat="45.65287041967174" lon="10.898382228261884"><ele>117.0</ele><time>2026-04-26T08:56:21Z</time></trkpt><trkpt lat="45.65281855287066" lon="10.8984716118436"><ele>117.0</ele><time>2026-04-26T08:56:24Z</time></trkpt><trkpt lat="45.652771149828894" lon="10.898536625192014"><ele>117.0</ele><time>2026-04-26T08:56:26Z</time></trkpt><trkpt lat="45.65276647044758" lon="10.898648923851564"><ele>117.0</ele><time>2026-04-26T08:56:27Z</time></trkpt><trkpt lat="45.65275189619188" lon="10.898768085833655"><ele>117.0</ele><time>2026-04-26T08:56:28Z</time></trkpt><trkpt lat="45.652722271710076" lon="10.898892370588227"><ele>117.8</ele><time>2026-04-26T08:56:29Z</time></trkpt><trkpt lat="45.652719973928754" lon="10.899020558853525"><ele>118.6</ele><time>2026-04-26T08:56:30Z</time></trkpt><trkpt lat="45.652691802496214" lon="10.89918738734588"><ele>119.39999999999999</ele><time>2026-04-26T08:56:31Z</time></trkpt><trkpt lat="45.65267044006466" lon="10.899321976419593"><ele>120.19999999999999</ele><time>2026-04-26T08:56:32Z</time></trkpt><trkpt lat="45.65265963550955" lon="10.899471082420723"><ele>121.0</ele><time>2026-04-26T08:56:33Z</time></trkpt><trkpt lat="45.652635866731316" lon="10.899617489103617"><ele>123.19999999999999</ele><time>2026-04-26T08:56:34Z</time></trkpt><trkpt lat="45.65265965342927" lon="10.899743119953374"><ele>125.39999999999999</ele><time>2026-04-26T08:56:35Z</time></trkpt><trkpt lat="45.652674002242875" lon="10.899860812034538"><ele>127.6</ele><time>2026-04-26T08:56:36Z</time></trkpt><trkpt lat="45.65272599610606" lon="10.899972360267865"><ele>129.79999999999998</ele><time>2026-04-26T08:56:37Z</time></trkpt><trkpt lat="45.65278855836184" lon="10.900071996002291"><ele>132.0</ele><time>2026-04-26T08:56:38Z</time></trkpt><trkpt lat="45.65286720642703" lon="10.900153187039656"><ele>132.4</ele><time>2026-04-26T08:56:39Z</time></trkpt><trkpt lat="45.65293690620694" lon="10.90020825077626"><ele>132.79999999999998</ele><time>2026-04-26T08:56:40Z</time></trkpt><trkpt lat="45.6530314564976" lon="10.900291813880889"><ele>133.2</ele><time>2026-04-26T08:56:42Z</time></trkpt><trkpt lat="45.65308880877301" lon="10.90035157778568"><ele>133.6</ele><time>2026-04-26T08:56:44Z</time></trkpt><trkpt lat="45.652932913969096" lon="10.900222671599648"><ele>134.0</ele><time>2026-04-26T08:56:49Z</time></trkpt><trkpt lat="45.65280349536742" lon="10.900124048703338"><ele>133.33333333333331</ele><time>2026-04-26T08:56:50Z</time></trkpt><trkpt lat="45.652673124612576" lon="10.900014869314386"><ele>132.66666666666666</ele><time>2026-04-26T08:56:51Z</time></trkpt><trkpt lat="45.65252722916028" lon="10.899937355949708"><ele>132.0</ele><time>2026-04-26T08:56:52Z</time></trkpt><trkpt lat="45.65238084163423" lon="10.899808209726057"><ele>132.0</ele><time>2026-04-26T08:56:53Z</time></trkpt><trkpt lat="45.65221199307485" lon="10.899669632962262"><ele>132.0</ele><time>2026-04-26T08:56:54Z</time></trkpt><trkpt lat="45.652033053405425" lon="10.899526695418771"><ele>132.0</ele><time>2026-04-26T08:56:55Z</time></trkpt><trkpt lat="45.65185672124583" lon="10.899385213840603"><ele>130.66666666666666</ele><time>2026-04-26T08:56:56Z</time></trkpt><trkpt lat="45.65167112258689" lon="10.899236560975641"><ele>129.33333333333331</ele><time>2026-04-26T08:56:57Z</time></trkpt><trkpt lat="45.65148271392425" lon="10.899087688765178"><ele>128.0</ele><time>2026-04-26T08:56:58Z</time></trkpt><trkpt lat="45.65128190272479" lon="10.89894246865738"><ele>135.5</ele><time>2026-04-26T08:56:59Z</time></trkpt><trkpt lat="45.65105620523133" lon="10.898799781514263"><ele>143.0</ele><time>2026-04-26T08:57:00Z</time></trkpt><trkpt lat="45.65080795635083" lon="10.898653297349059"><ele>143.0</ele><time>2026-04-26T08:57:01Z</time></trkpt><trkpt lat="45.65054656108007" lon="10.898506155568375"><ele>143.0</ele><time>2026-04-26T08:57:02Z</time></trkpt><trkpt lat="45.65030152426186" lon="10.89836888570168"><ele>136.5</ele><time>2026-04-26T08:57:03Z</time></trkpt><trkpt lat="45.650063674702515" lon="10.898229405198776"><ele>130.0</ele><time>2026-04-26T08:57:04Z</time></trkpt><trkpt lat="45.64982252617044" lon="10.898095052347177"><ele>130.0</ele><time>2026-04-26T08:57:05Z</time></trkpt><trkpt lat="45.64959930846595" lon="10.897972995908248"><ele>130.0</ele><time>2026-04-26T08:57:06Z</time></trkpt><trkpt lat="45.6493809115153" lon="10.897852800848188"><ele>125.5</ele><time>2026-04-26T08:57:07Z</time></trkpt><trkpt lat="45.6491563906924" lon="10.897724552559062"><ele>121.0</ele><time>2026-04-26T08:57:08Z</time></trkpt><trkpt lat="45.648925432311444" lon="10.897583605476715"><ele>121.0</ele><time>2026-04-26T08:57:09Z</time></trkpt><trkpt lat="45.648694960631154" lon="10.897433004512376"><ele>121.0</ele><time>2026-04-26T08:57:10Z</time></trkpt><trkpt lat="45.648460093009376" lon="10.897271643249054"><ele>128.0</ele><time>2026-04-26T08:57:11Z</time></trkpt><trkpt lat="45.64822391354609" lon="10.897105460597091"><ele>135.0</ele><time>2026-04-26T08:57:12Z</time></trkpt><trkpt lat="45.647991994060874" lon="10.896930008587358"><ele>134.0</ele><time>2026-04-26T08:57:13Z</time></trkpt><trkpt lat="45.64776779936848" lon="10.896736322363896"><ele>133.0</ele><time>2026-04-26T08:57:14Z</time></trkpt><trkpt lat="45.64754518367743" lon="10.896539222815605"><ele>133.0</ele><time>2026-04-26T08:57:15Z</time></trkpt><trkpt lat="45.64733769246874" lon="10.896348599535553"><ele>133.0</ele><time>2026-04-26T08:57:16Z</time></trkpt><trkpt lat="45.64713612529271" lon="10.896158331683422"><ele>132.33333333333334</ele><time>2026-04-26T08:57:17Z</time></trkpt><trkpt lat="45.64694748754197" lon="10.89598177958853"><ele>131.66666666666666</ele><time>2026-04-26T08:57:18Z</time></trkpt><trkpt lat="45.6467763757243" lon="10.895815801091464"><ele>131.0</ele><time>2026-04-26T08:57:19Z</time></trkpt><trkpt lat="45.64661597453707" lon="10.89564393449433"><ele>131.0</ele><time>2026-04-26T08:57:20Z</time></trkpt><trkpt lat="45.64646793114107" lon="10.895457303890943"><ele>131.0</ele><time>2026-04-26T08:57:21Z</time></trkpt><trkpt lat="45.64633355557851" lon="10.895261030435229"><ele>131.0</ele><time>2026-04-26T08:57:22Z</time></trkpt><trkpt lat="45.64621387982919" lon="10.895069087772066"><ele>132.25</ele><time>2026-04-26T08:57:23Z</time></trkpt><trkpt lat="45.646113523219576" lon="10.894899298197352"><ele>133.5</ele><time>2026-04-26T08:57:24Z</time></trkpt><trkpt lat="45.64602426007535" lon="10.894740160227549"><ele>134.75</ele><time>2026-04-26T08:57:25Z</time></trkpt><trkpt lat="45.64594385975879" lon="10.89460324975396"><ele>136.0</ele><time>2026-04-26T08:57:26Z</time></trkpt><trkpt lat="45.64588489809818" lon="10.894493007749803"><ele>136.0</ele><time>2026-04-26T08:57:27Z</time></trkpt><trkpt lat="45.6458444330906" lon="10.894411930750014"><ele>136.0</ele><time>2026-04-26T08:57:28Z</time></trkpt><trkpt lat="45.64577043220735" lon="10.894391933727501"><ele>136.0</ele><time>2026-04-26T08:57:30Z</time></trkpt><trkpt lat="45.64569141204855" lon="10.894538251865226"><ele>136.0</ele><time>2026-04-26T08:57:32Z</time></trkpt><trkpt lat="45.64561051077438" lon="10.89462494026816"><ele>136.0</ele><time>2026-04-26T08:57:33Z</time></trkpt><trkpt lat="45.64552548999275" lon="10.89472453694082"><ele>136.0</ele><time>2026-04-26T08:57:34Z</time></trkpt><trkpt lat="45.645446630095066" lon="10.894805144036138"><ele>136.0</ele><time>2026-04-26T08:57:35Z</time></trkpt><trkpt lat="45.645376659550465" lon="10.894874316142767"><ele>136.0</ele><time>2026-04-26T08:57:36Z</time></trkpt><trkpt lat="45.64530600208482" lon="10.894916983096559"><ele>136.0</ele><time>2026-04-26T08:57:37Z</time></trkpt><trkpt lat="45.64524000744358" lon="10.894935940017138"><ele>136.0</ele><time>2026-04-26T08:57:38Z</time></trkpt><trkpt lat="45.64517011243787" lon="10.894960818448178"><ele>136.0</ele><time>2026-04-26T08:57:39Z</time></trkpt><trkpt lat="45.64509653425318" lon="10.894963194803843"><ele>139.4</ele><time>2026-04-26T08:57:40Z</time></trkpt><trkpt lat="45.645018549718564" lon="10.89490816612406"><ele>142.8</ele><time>2026-04-26T08:57:41Z</time></trkpt><trkpt lat="45.64493012047642" lon="10.894838255309194"><ele>146.20000000000002</ele><time>2026-04-26T08:57:42Z</time></trkpt><trkpt lat="45.644834325493456" lon="10.894788088264415"><ele>149.6</ele><time>2026-04-26T08:57:43Z</time></trkpt><trkpt lat="45.64473801328054" lon="10.894761249339938"><ele>153.0</ele><time>2026-04-26T08:57:44Z</time></trkpt><trkpt lat="45.64465337657693" lon="10.8947223131621"><ele>153.0</ele><time>2026-04-26T08:57:45Z</time></trkpt><trkpt lat="45.64455157337693" lon="10.894651312486344"><ele>153.0</ele><time>2026-04-26T08:57:46Z</time></trkpt><trkpt lat="45.644470900800236" lon="10.894591546845245"><ele>153.0</ele><time>2026-04-26T08:57:47Z</time></trkpt><trkpt lat="45.64438943799268" lon="10.894525810068565"><ele>153.0</ele><time>2026-04-26T08:57:48Z</time></trkpt><trkpt lat="45.6443152730495" lon="10.894495129369934"><ele>153.0</ele><time>2026-04-26T08:57:49Z</time></trkpt><trkpt lat="45.644239953150745" lon="10.894423990244713"><ele>154.0</ele><time>2026-04-26T08:57:50Z</time></trkpt><trkpt lat="45.64414498494627" lon="10.894368409970584"><ele>155.0</ele><time>2026-04-26T08:57:51Z</time></trkpt><trkpt lat="45.6440491097043" lon="10.89433299608094"><ele>156.0</ele><time>2026-04-26T08:57:52Z</time></trkpt><trkpt lat="45.643959293619695" lon="10.894309808516088"><ele>157.0</ele><time>2026-04-26T08:57:53Z</time></trkpt><trkpt lat="45.643871705647925" lon="10.894292777413636"><ele>158.0</ele><time>2026-04-26T08:57:54Z</time></trkpt><trkpt lat="45.643795241195" lon="10.894239574868907"><ele>158.0</ele><time>2026-04-26T08:57:55Z</time></trkpt><trkpt lat="45.64369683979021" lon="10.894184846678952"><ele>158.0</ele><time>2026-04-26T08:57:56Z</time></trkpt><trkpt lat="45.64359633706208" lon="10.894124722271439"><ele>158.0</ele><time>2026-04-26T08:57:57Z</time></trkpt><trkpt lat="45.6435089702084" lon="10.894089074456934"><ele>158.0</ele><time>2026-04-26T08:57:58Z</time></trkpt><trkpt lat="45.6434171852726" lon="10.894079221814554"><ele>158.0</ele><time>2026-04-26T08:57:59Z</time></trkpt><trkpt lat="45.64333553463534" lon="10.894056620173027"><ele>160.0</ele><time>2026-04-26T08:58:00Z</time></trkpt><trkpt lat="45.64327106265496" lon="10.894037969356727"><ele>162.0</ele><time>2026-04-26T08:58:01Z</time></trkpt><trkpt lat="45.64318673092033" lon="10.894009599591946"><ele>164.0</ele><time>2026-04-26T08:58:02Z</time></trkpt><trkpt lat="45.643103517951936" lon="10.893871531845999"><ele>166.0</ele><time>2026-04-26T08:58:04Z</time></trkpt><trkpt lat="45.64302731251468" lon="10.893821277082866"><ele>168.0</ele><time>2026-04-26T08:58:05Z</time></trkpt><trkpt lat="45.64294970758097" lon="10.893787778392154"><ele>170.0</ele><time>2026-04-26T08:58:06Z</time></trkpt><trkpt lat="45.64288261753928" lon="10.893776215238054"><ele>170.0</ele><time>2026-04-26T08:58:07Z</time></trkpt><trkpt lat="45.642815306120006" lon="10.893773150615766"><ele>170.0</ele><time>2026-04-26T08:58:08.001Z</time></trkpt><trkpt lat="45.64274847009851" lon="10.893775639820765"><ele>170.0</ele><time>2026-04-26T08:58:09.001Z</time></trkpt><trkpt lat="45.642653446477055" lon="10.893785179238597"><ele>170.0</ele><time>2026-04-26T08:58:11.001Z</time></trkpt><trkpt lat="45.64258430717631" lon="10.893781783351589"><ele>170.0</ele><time>2026-04-26T08:58:13.001Z</time></trkpt><trkpt lat="45.64248327697544" lon="10.893786126496655"><ele>170.0</ele><time>2026-04-26T08:58:15.001Z</time></trkpt><trkpt lat="45.64239883406101" lon="10.893851950424706"><ele>171.0</ele><time>2026-04-26T08:58:17Z</time></trkpt><trkpt lat="45.642338271864226" lon="10.893908069902801"><ele>172.0</ele><time>2026-04-26T08:58:20Z</time></trkpt><trkpt lat="45.642288040824205" lon="10.893833915961203"><ele>173.0</ele><time>2026-04-26T08:59:19.001Z</time></trkpt><trkpt lat="45.64222800703077" lon="10.89372206089211"><ele>174.0</ele><time>2026-04-26T08:59:45.001Z</time></trkpt><trkpt lat="45.64217856912125" lon="10.893620502283259"><ele>175.0</ele><time>2026-04-26T09:00:20.001Z</time></trkpt><trkpt lat="45.64212646387838" lon="10.89355041049193"><ele>176.0</ele><time>2026-04-26T09:00:21.001Z</time></trkpt><trkpt lat="45.64209130215243" lon="10.893453128240202"><ele>176.0</ele><time>2026-04-26T09:00:23.002Z</time></trkpt><trkpt lat="45.6420279959863" lon="10.893520901245733"><ele>176.0</ele><time>2026-04-26T09:00:57.001Z</time></trkpt><trkpt lat="45.642045500380945" lon="10.893405004681727"><ele>176.0</ele><time>2026-04-26T09:01:10.001Z</time></trkpt><trkpt lat="45.64209791587252" lon="10.893343020785286"><ele>176.0</ele><time>2026-04-26T09:01:24.001Z</time></trkpt><trkpt lat="45.642144803713435" lon="10.893237992867165"><ele>176.0</ele><time>2026-04-26T09:01:26.001Z</time></trkpt><trkpt lat="45.64217610269489" lon="10.893152106145145"><ele>176.0</ele><time>2026-04-26T09:01:27.001Z</time></trkpt><trkpt lat="45.642203867476134" lon="10.893040171454551"><ele>174.20000000000002</ele><time>2026-04-26T09:01:29.001Z</time></trkpt><trkpt lat="45.64227480195813" lon="10.892905460372189"><ele>172.4</ele><time>2026-04-26T09:01:31.001Z</time></trkpt><trkpt lat="45.642270646661444" lon="10.892791576218084"><ele>170.6</ele><time>2026-04-26T09:01:33.001Z</time></trkpt><trkpt lat="45.642235591369655" lon="10.892683716390335"><ele>168.8</ele><time>2026-04-26T09:01:35.001Z</time></trkpt><trkpt lat="45.64219591520331" lon="10.892559600177748"><ele>167.0</ele><time>2026-04-26T09:01:37.001Z</time></trkpt><trkpt lat="45.642179891047626" lon="10.892423141196868"><ele>165.83333333333331</ele><time>2026-04-26T09:01:39.001Z</time></trkpt><trkpt lat="45.642179236967536" lon="10.892328770432405"><ele>164.66666666666666</ele><time>2026-04-26T09:01:40.001Z</time></trkpt><trkpt lat="45.64220054205717" lon="10.892199777434119"><ele>163.5</ele><time>2026-04-26T09:01:41.001Z</time></trkpt><trkpt lat="45.642214563783476" lon="10.892095414542528"><ele>162.33333333333334</ele><time>2026-04-26T09:01:42.001Z</time></trkpt><trkpt lat="45.64224126209082" lon="10.89192851915289"><ele>161.16666666666669</ele><time>2026-04-26T09:01:44.001Z</time></trkpt><trkpt lat="45.642277578839376" lon="10.891811359858483"><ele>160.0</ele><time>2026-04-26T09:01:46.001Z</time></trkpt><trkpt lat="45.642298806561264" lon="10.891682732667652"><ele>158.8</ele><time>2026-04-26T09:01:49.001Z</time></trkpt><trkpt lat="45.64233509370764" lon="10.891581837320313"><ele>157.6</ele><time>2026-04-26T09:01:52.001Z</time></trkpt><trkpt lat="45.64235160101508" lon="10.89147754717521"><ele>156.4</ele><time>2026-04-26T09:01:54.001Z</time></trkpt><trkpt lat="45.642382771532844" lon="10.891282694524087"><ele>155.2</ele><time>2026-04-26T09:01:56.001Z</time></trkpt><trkpt lat="45.64240295545534" lon="10.891180415081669"><ele>154.0</ele><time>2026-04-26T09:01:57.001Z</time></trkpt><trkpt lat="45.642436911962825" lon="10.891039515353594"><ele>152.2</ele><time>2026-04-26T09:01:58.001Z</time></trkpt><trkpt lat="45.642476840016286" lon="10.89088155558211"><ele>150.4</ele><time>2026-04-26T09:01:59.001Z</time></trkpt><trkpt lat="45.642511902547724" lon="10.890739419458953"><ele>148.6</ele><time>2026-04-26T09:02:00.001Z</time></trkpt><trkpt lat="45.642541947171814" lon="10.890593895397771"><ele>146.8</ele><time>2026-04-26T09:02:01.001Z</time></trkpt><trkpt lat="45.642571513798266" lon="10.890460984601173"><ele>145.0</ele><time>2026-04-26T09:02:02.001Z</time></trkpt><trkpt lat="45.64259918201432" lon="10.890340213382071"><ele>145.0</ele><time>2026-04-26T09:02:03.001Z</time></trkpt><trkpt lat="45.642624080128" lon="10.890232977258412"><ele>145.0</ele><time>2026-04-26T09:02:04.001Z</time></trkpt><trkpt lat="45.642645562431625" lon="10.890130423787113"><ele>145.0</ele><time>2026-04-26T09:02:05.001Z</time></trkpt><trkpt lat="45.64266717629802" lon="10.89004429078286"><ele>145.0</ele><time>2026-04-26T09:02:06.001Z</time></trkpt><trkpt lat="45.64272505703605" lon="10.889995826866473"><ele>145.0</ele><time>2026-04-26T09:02:11.001Z</time></trkpt><trkpt lat="45.642823386473246" lon="10.889979046416299"><ele>145.0</ele><time>2026-04-26T09:02:13.001Z</time></trkpt><trkpt lat="45.64291037388521" lon="10.890009796743502"><ele>143.0</ele><time>2026-04-26T09:02:14.001Z</time></trkpt><trkpt lat="45.64298447238042" lon="10.89001289512185"><ele>141.0</ele><time>2026-04-26T09:02:15.001Z</time></trkpt><trkpt lat="45.64305488750519" lon="10.889854339387334"><ele>139.0</ele><time>2026-04-26T09:02:17.001Z</time></trkpt><trkpt lat="45.643085889431134" lon="10.889717376453971"><ele>137.0</ele><time>2026-04-26T09:02:18.001Z</time></trkpt><trkpt lat="45.64310094874985" lon="10.889571172706145"><ele>135.0</ele><time>2026-04-26T09:02:19.001Z</time></trkpt><trkpt lat="45.643113681723506" lon="10.88943166490933"><ele>135.0</ele><time>2026-04-26T09:02:20.001Z</time></trkpt><trkpt lat="45.64312597638683" lon="10.889314262299933"><ele>135.0</ele><time>2026-04-26T09:02:21.001Z</time></trkpt><trkpt lat="45.64313972757607" lon="10.889219056907688"><ele>135.0</ele><time>2026-04-26T09:02:22.001Z</time></trkpt><trkpt lat="45.6431732273282" lon="10.889109554365518"><ele>135.0</ele><time>2026-04-26T09:02:24.001Z</time></trkpt><trkpt lat="45.64302959771737" lon="10.889032967525038"><ele>135.0</ele><time>2026-04-26T09:02:43.001Z</time></trkpt><trkpt lat="45.64298097322637" lon="10.888962697041697"><ele>134.6</ele><time>2026-04-26T09:02:44.001Z</time></trkpt><trkpt lat="45.642924791574664" lon="10.888905869349589"><ele>134.2</ele><time>2026-04-26T09:02:45.001Z</time></trkpt><trkpt lat="45.64285435565429" lon="10.888824648458817"><ele>133.8</ele><time>2026-04-26T09:02:46.001Z</time></trkpt><trkpt lat="45.64277620373564" lon="10.888731329375092"><ele>133.4</ele><time>2026-04-26T09:02:47.001Z</time></trkpt><trkpt lat="45.64269074949561" lon="10.888635775658503"><ele>133.0</ele><time>2026-04-26T09:02:48.001Z</time></trkpt><trkpt lat="45.64261196192487" lon="10.88854619711526"><ele>133.0</ele><time>2026-04-26T09:02:49.001Z</time></trkpt><trkpt lat="45.642527332066514" lon="10.888451240913245"><ele>133.0</ele><time>2026-04-26T09:02:50.001Z</time></trkpt><trkpt lat="45.64244488622116" lon="10.888359640411872"><ele>133.0</ele><time>2026-04-26T09:02:51.001Z</time></trkpt><trkpt lat="45.642374048829666" lon="10.888283450113306"><ele>133.0</ele><time>2026-04-26T09:02:52.001Z</time></trkpt><trkpt lat="45.64230752050828" lon="10.88820350635866"><ele>133.0</ele><time>2026-04-26T09:02:53.001Z</time></trkpt><trkpt lat="45.64223123695589" lon="10.888119891545854"><ele>132.6</ele><time>2026-04-26T09:02:54.001Z</time></trkpt><trkpt lat="45.64213004397901" lon="10.888012787486147"><ele>132.20000000000002</ele><time>2026-04-26T09:02:55Z</time></trkpt><trkpt lat="45.64204380554755" lon="10.887924380082161"><ele>131.8</ele><time>2026-04-26T09:02:56Z</time></trkpt><trkpt lat="45.64197044555705" lon="10.887840784212166"><ele>131.4</ele><time>2026-04-26T09:02:57Z</time></trkpt><trkpt lat="45.64189207164722" lon="10.887759755755587"><ele>131.0</ele><time>2026-04-26T09:02:58Z</time></trkpt><trkpt lat="45.64181001097357" lon="10.887673506601796"><ele>131.0</ele><time>2026-04-26T09:02:59Z</time></trkpt><trkpt lat="45.64173743596334" lon="10.887598666154297"><ele>131.0</ele><time>2026-04-26T09:03:00Z</time></trkpt><trkpt lat="45.641661144410534" lon="10.887517289674133"><ele>131.0</ele><time>2026-04-26T09:03:01Z</time></trkpt><trkpt lat="45.64157627477828" lon="10.88742873692703"><ele>131.0</ele><time>2026-04-26T09:03:02Z</time></trkpt><trkpt lat="45.64148147495792" lon="10.887328848315265"><ele>131.0</ele><time>2026-04-26T09:03:03Z</time></trkpt><trkpt lat="45.64138790543843" lon="10.887230337532069"><ele>130.0</ele><time>2026-04-26T09:03:04Z</time></trkpt><trkpt lat="45.64130048956883" lon="10.88713195509682"><ele>129.0</ele><time>2026-04-26T09:03:05Z</time></trkpt><trkpt lat="45.64121334460467" lon="10.887039780307726"><ele>128.0</ele><time>2026-04-26T09:03:06Z</time></trkpt><trkpt lat="45.641126956066195" lon="10.886951420175356"><ele>127.0</ele><time>2026-04-26T09:03:07Z</time></trkpt><trkpt lat="45.64104434883529" lon="10.88685541025347"><ele>126.0</ele><time>2026-04-26T09:03:08Z</time></trkpt><trkpt lat="45.64096586788034" lon="10.88675346956676"><ele>125.25</ele><time>2026-04-26T09:03:09Z</time></trkpt><trkpt lat="45.640882903487594" lon="10.88665218044924"><ele>124.5</ele><time>2026-04-26T09:03:10Z</time></trkpt><trkpt lat="45.64078109107249" lon="10.886546745949579"><ele>123.75</ele><time>2026-04-26T09:03:11Z</time></trkpt><trkpt lat="45.64066769824862" lon="10.886431301192243"><ele>123.0</ele><time>2026-04-26T09:03:12Z</time></trkpt><trkpt lat="45.64055916995573" lon="10.886319002167628"><ele>123.0</ele><time>2026-04-26T09:03:13Z</time></trkpt><trkpt lat="45.64045138560254" lon="10.886213852990904"><ele>123.00000000000001</ele><time>2026-04-26T09:03:14Z</time></trkpt><trkpt lat="45.64035910854052" lon="10.886125828029956"><ele>123.00000000000001</ele><time>2026-04-26T09:03:15Z</time></trkpt><trkpt lat="45.640276890042266" lon="10.886050211918853"><ele>123.0</ele><time>2026-04-26T09:03:16Z</time></trkpt><trkpt lat="45.640187964577514" lon="10.885976429409139"><ele>123.0</ele><time>2026-04-26T09:03:17Z</time></trkpt><trkpt lat="45.640088158451334" lon="10.88586288969328"><ele>123.5</ele><time>2026-04-26T09:03:18Z</time></trkpt><trkpt lat="45.63998493616368" lon="10.885750525106161"><ele>124.0</ele><time>2026-04-26T09:03:19Z</time></trkpt><trkpt lat="45.63986874586233" lon="10.885656126644376"><ele>124.5</ele><time>2026-04-26T09:03:20Z</time></trkpt><trkpt lat="45.63976511378108" lon="10.885566120266082"><ele>125.0</ele><time>2026-04-26T09:03:21Z</time></trkpt><trkpt lat="45.639672997173534" lon="10.88548534787286"><ele>125.0</ele><time>2026-04-26T09:03:22Z</time></trkpt><trkpt lat="45.63955367081383" lon="10.885371058001923"><ele>125.0</ele><time>2026-04-26T09:03:23Z</time></trkpt><trkpt lat="45.63946800713395" lon="10.885291764500257"><ele>125.0</ele><time>2026-04-26T09:03:24Z</time></trkpt><trkpt lat="45.639397978774674" lon="10.885219245055875"><ele>125.0</ele><time>2026-04-26T09:03:25Z</time></trkpt><trkpt lat="45.63932408171013" lon="10.885151955949784"><ele>125.0</ele><time>2026-04-26T09:03:26Z</time></trkpt><trkpt lat="45.63923375924329" lon="10.885069730705338"><ele>124.8</ele><time>2026-04-26T09:03:27Z</time></trkpt><trkpt lat="45.63913556756447" lon="10.884995755520261"><ele>124.6</ele><time>2026-04-26T09:03:28Z</time></trkpt><trkpt lat="45.6390536484255" lon="10.88491410814881"><ele>124.4</ele><time>2026-04-26T09:03:29Z</time></trkpt><trkpt lat="45.638985047973954" lon="10.884846557950727"><ele>124.2</ele><time>2026-04-26T09:03:30Z</time></trkpt><trkpt lat="45.63890221331966" lon="10.88476264059823"><ele>124.0</ele><time>2026-04-26T09:03:31Z</time></trkpt><trkpt lat="45.63882309070562" lon="10.884683552247067"><ele>124.0</ele><time>2026-04-26T09:03:32Z</time></trkpt><trkpt lat="45.63873883419253" lon="10.88459866067484"><ele>124.0</ele><time>2026-04-26T09:03:33Z</time></trkpt><trkpt lat="45.63865884451927" lon="10.884516282752855"><ele>124.0</ele><time>2026-04-26T09:03:34Z</time></trkpt><trkpt lat="45.63857643003094" lon="10.884438061437182"><ele>124.0</ele><time>2026-04-26T09:03:35Z</time></trkpt><trkpt lat="45.638498307156475" lon="10.884366555321451"><ele>124.0</ele><time>2026-04-26T09:03:36Z</time></trkpt><trkpt lat="45.63841714161162" lon="10.884288571985751"><ele>123.75</ele><time>2026-04-26T09:03:37Z</time></trkpt><trkpt lat="45.638330311749485" lon="10.88420949124217"><ele>123.5</ele><time>2026-04-26T09:03:38Z</time></trkpt><trkpt lat="45.638242951830904" lon="10.884124190065526"><ele>123.25</ele><time>2026-04-26T09:03:39Z</time></trkpt><trkpt lat="45.63813815909823" lon="10.884024326471252"><ele>123.0</ele><time>2026-04-26T09:03:40Z</time></trkpt><trkpt lat="45.63803118126808" lon="10.883918528820272"><ele>123.0</ele><time>2026-04-26T09:03:41Z</time></trkpt><trkpt lat="45.637933197535695" lon="10.883817743704688"><ele>123.00000000000001</ele><time>2026-04-26T09:03:42Z</time></trkpt><trkpt lat="45.637835429027184" lon="10.883722851323258"><ele>123.00000000000001</ele><time>2026-04-26T09:03:43Z</time></trkpt><trkpt lat="45.63774419002732" lon="10.883644805929153"><ele>123.0</ele><time>2026-04-26T09:03:44Z</time></trkpt><trkpt lat="45.63765774953001" lon="10.883566605613154"><ele>123.0</ele><time>2026-04-26T09:03:45Z</time></trkpt><trkpt lat="45.637546597759915" lon="10.88345762891532"><ele>123.0</ele><time>2026-04-26T09:03:46Z</time></trkpt><trkpt lat="45.6374456920706" lon="10.88335338265881"><ele>123.0</ele><time>2026-04-26T09:03:47Z</time></trkpt><trkpt lat="45.63734706990865" lon="10.883256340094377"><ele>123.0</ele><time>2026-04-26T09:03:48Z</time></trkpt><trkpt lat="45.63723371532883" lon="10.88314958842053"><ele>123.0</ele><time>2026-04-26T09:03:49Z</time></trkpt><trkpt lat="45.63712111970889" lon="10.883050701159581"><ele>123.0</ele><time>2026-04-26T09:03:50Z</time></trkpt><trkpt lat="45.637033360483876" lon="10.882963098656177"><ele>123.0</ele><time>2026-04-26T09:03:51Z</time></trkpt><trkpt lat="45.63692808269996" lon="10.882860881300415"><ele>123.0</ele><time>2026-04-26T09:03:52Z</time></trkpt><trkpt lat="45.636802090962426" lon="10.882741517151949"><ele>123.0</ele><time>2026-04-26T09:03:53Z</time></trkpt><trkpt lat="45.63669244643486" lon="10.882630765084837"><ele>123.2</ele><time>2026-04-26T09:03:54Z</time></trkpt><trkpt lat="45.63659987157012" lon="10.882550229858836"><ele>123.4</ele><time>2026-04-26T09:03:55Z</time></trkpt><trkpt lat="45.63650665374803" lon="10.882463317836807"><ele>123.60000000000001</ele><time>2026-04-26T09:03:56Z</time></trkpt><trkpt lat="45.63641282658601" lon="10.882371525977696"><ele>123.80000000000001</ele><time>2026-04-26T09:03:57Z</time></trkpt><trkpt lat="45.63633639419116" lon="10.882298164355076"><ele>124.0</ele><time>2026-04-26T09:03:58Z</time></trkpt><trkpt lat="45.63625588502578" lon="10.882221223889756"><ele>124.0</ele><time>2026-04-26T09:03:59Z</time></trkpt><trkpt lat="45.63615910671922" lon="10.882121387968123"><ele>124.0</ele><time>2026-04-26T09:04:00Z</time></trkpt><trkpt lat="45.636070581050866" lon="10.882036375636499"><ele>124.0</ele><time>2026-04-26T09:04:01Z</time></trkpt><trkpt lat="45.63598845974976" lon="10.881957275941533"><ele>124.0</ele><time>2026-04-26T09:04:02Z</time></trkpt><trkpt lat="45.63589004861306" lon="10.881866198052302"><ele>124.0</ele><time>2026-04-26T09:04:03Z</time></trkpt><trkpt lat="45.635791916862416" lon="10.881777447781637"><ele>124.0</ele><time>2026-04-26T09:04:04Z</time></trkpt><trkpt lat="45.63571872685674" lon="10.881705826288005"><ele>124.0</ele><time>2026-04-26T09:04:06Z</time></trkpt><trkpt lat="45.635669547702214" lon="10.881850116419685"><ele>124.0</ele><time>2026-04-26T09:04:09Z</time></trkpt><trkpt lat="45.635660789320745" lon="10.881995078568615"><ele>124.0</ele><time>2026-04-26T09:04:10Z</time></trkpt><trkpt lat="45.63564212852005" lon="10.882183282207759"><ele>124.0</ele><time>2026-04-26T09:04:11Z</time></trkpt><trkpt lat="45.635622640918356" lon="10.882319315892373"><ele>124.80000000000001</ele><time>2026-04-26T09:04:12Z</time></trkpt><trkpt lat="45.635584364374004" lon="10.882444942066956"><ele>125.60000000000001</ele><time>2026-04-26T09:04:14Z</time></trkpt><trkpt lat="45.63551068160964" lon="10.882460986171944"><ele>126.4</ele><time>2026-04-26T09:04:22Z</time></trkpt><trkpt lat="45.63542224341723" lon="10.88236894350991"><ele>127.2</ele><time>2026-04-26T09:04:24Z</time></trkpt><trkpt lat="45.63535620489785" lon="10.882238405932796"><ele>128.0</ele><time>2026-04-26T09:04:25Z</time></trkpt><trkpt lat="45.63529222572524" lon="10.882059993573355"><ele>128.5</ele><time>2026-04-26T09:04:26Z</time></trkpt><trkpt lat="45.635236415485" lon="10.881896059812656"><ele>129.0</ele><time>2026-04-26T09:04:27Z</time></trkpt><trkpt lat="45.6351593667625" lon="10.881696760941628"><ele>129.5</ele><time>2026-04-26T09:04:28Z</time></trkpt><trkpt lat="45.63508081619172" lon="10.881501693986477"><ele>130.0</ele><time>2026-04-26T09:04:29Z</time></trkpt><trkpt lat="45.634996031097224" lon="10.881287013199941"><ele>130.0</ele><time>2026-04-26T09:04:30Z</time></trkpt><trkpt lat="45.63489524957338" lon="10.881091173901272"><ele>130.0</ele><time>2026-04-26T09:04:31Z</time></trkpt><trkpt lat="45.634765768126" lon="10.880901487030124"><ele>130.0</ele><time>2026-04-26T09:04:32Z</time></trkpt><trkpt lat="45.63461001675671" lon="10.88071683826176"><ele>129.33333333333334</ele><time>2026-04-26T09:04:33.001Z</time></trkpt><trkpt lat="45.634433771465844" lon="10.88054453130624"><ele>128.66666666666666</ele><time>2026-04-26T09:04:34.001Z</time></trkpt><trkpt lat="45.63425275755005" lon="10.880407132857297"><ele>128.0</ele><time>2026-04-26T09:04:35.001Z</time></trkpt><trkpt lat="45.634049567348804" lon="10.880278421814458"><ele>128.0</ele><time>2026-04-26T09:04:36.001Z</time></trkpt><trkpt lat="45.63382440493331" lon="10.880152797377665"><ele>128.0</ele><time>2026-04-26T09:04:37.001Z</time></trkpt><trkpt lat="45.63361382104362" lon="10.880061689496685"><ele>127.0</ele><time>2026-04-26T09:04:38.001Z</time></trkpt><trkpt lat="45.63340258435589" lon="10.879996025357991"><ele>126.0</ele><time>2026-04-26T09:04:39.001Z</time></trkpt><trkpt lat="45.63318686481356" lon="10.879946911099458"><ele>125.0</ele><time>2026-04-26T09:04:40.001Z</time></trkpt><trkpt lat="45.63297489749408" lon="10.879910620114233"><ele>126.33333333333333</ele><time>2026-04-26T09:04:41.001Z</time></trkpt><trkpt lat="45.63276209020904" lon="10.879869419386013"><ele>127.66666666666666</ele><time>2026-04-26T09:04:42.001Z</time></trkpt><trkpt lat="45.632561108267026" lon="10.879821646055737"><ele>129.0</ele><time>2026-04-26T09:04:43.001Z</time></trkpt><trkpt lat="45.632364552778796" lon="10.879763051902689"><ele>129.0</ele><time>2026-04-26T09:04:44.001Z</time></trkpt><trkpt lat="45.63218599187197" lon="10.879693205830295"><ele>129.0</ele><time>2026-04-26T09:04:45.001Z</time></trkpt><trkpt lat="45.63202305445728" lon="10.879607808897152"><ele>129.0</ele><time>2026-04-26T09:04:46.001Z</time></trkpt><trkpt lat="45.631860439983434" lon="10.879521616972395"><ele>127.33333333333334</ele><time>2026-04-26T09:04:47.001Z</time></trkpt><trkpt lat="45.63169290355059" lon="10.87942902697539"><ele>125.66666666666667</ele><time>2026-04-26T09:04:48.001Z</time></trkpt><trkpt lat="45.63152486529781" lon="10.879319280642202"><ele>124.0</ele><time>2026-04-26T09:04:49.001Z</time></trkpt><trkpt lat="45.63136357198777" lon="10.87919575268167"><ele>124.0</ele><time>2026-04-26T09:04:50.001Z</time></trkpt><trkpt lat="45.63124843878097" lon="10.879089752395284"><ele>124.0</ele><time>2026-04-26T09:04:51Z</time></trkpt><trkpt lat="45.63117006332873" lon="10.87901740072885"><ele>124.0</ele><time>2026-04-26T09:04:52Z</time></trkpt><trkpt lat="45.63123584302088" lon="10.87893955125139"><ele>124.0</ele><time>2026-04-26T09:04:56Z</time></trkpt><trkpt lat="45.6313330620974" lon="10.878994686429182"><ele>124.0</ele><time>2026-04-26T09:04:58Z</time></trkpt><trkpt lat="45.63141042009994" lon="10.879056344141409"><ele>124.0</ele><time>2026-04-26T09:04:59Z</time></trkpt><trkpt lat="45.63152720641816" lon="10.879133926307064"><ele>124.0</ele><time>2026-04-26T09:05:00Z</time></trkpt><trkpt lat="45.63167039200829" lon="10.879202325931367"><ele>124.0</ele><time>2026-04-26T09:05:01Z</time></trkpt><trkpt lat="45.631803063564085" lon="10.879264106351805"><ele>124.0</ele><time>2026-04-26T09:05:02Z</time></trkpt><trkpt lat="45.631915304892125" lon="10.879315162371213"><ele>124.83333333333334</ele><time>2026-04-26T09:05:03Z</time></trkpt><trkpt lat="45.63199433738538" lon="10.87936537719915"><ele>125.66666666666667</ele><time>2026-04-26T09:05:04Z</time></trkpt><trkpt lat="45.63206201635819" lon="10.879424973770607"><ele>126.5</ele><time>2026-04-26T09:05:05Z</time></trkpt><trkpt lat="45.63211674451698" lon="10.879480489280676"><ele>127.33333333333334</ele><time>2026-04-26T09:05:06Z</time></trkpt><trkpt lat="45.63218618093992" lon="10.87953291819121"><ele>128.16666666666666</ele><time>2026-04-26T09:05:07Z</time></trkpt><trkpt lat="45.63227861191833" lon="10.879578324108424"><ele>129.0</ele><time>2026-04-26T09:05:09Z</time></trkpt><trkpt lat="45.632268088052854" lon="10.879483437487885"><ele>129.0</ele><time>2026-04-26T09:05:14Z</time></trkpt><trkpt lat="45.632158895202366" lon="10.879449998552696"><ele>129.0</ele><time>2026-04-26T09:05:16Z</time></trkpt><trkpt lat="45.632165569538515" lon="10.879329697142346"><ele>129.0</ele><time>2026-04-26T09:05:19Z</time></trkpt><trkpt lat="45.632208226264446" lon="10.879207280641754"><ele>129.0</ele><time>2026-04-26T09:05:21Z</time></trkpt><trkpt lat="45.63225585964471" lon="10.879123215960309"><ele>129.0</ele><time>2026-04-26T09:05:23Z</time></trkpt><trkpt lat="45.63229953441722" lon="10.878775332058364"><ele>126.2</ele><time>2026-04-26T09:05:26Z</time></trkpt><trkpt lat="45.63233994862991" lon="10.878614864204811"><ele>123.4</ele><time>2026-04-26T09:05:27Z</time></trkpt><trkpt lat="45.6323702246608" lon="10.878494642246029"><ele>120.6</ele><time>2026-04-26T09:05:28Z</time></trkpt><trkpt lat="45.63240875269229" lon="10.87836187097688"><ele>117.8</ele><time>2026-04-26T09:05:29Z</time></trkpt><trkpt lat="45.63243942023679" lon="10.87824861215734"><ele>115.0</ele><time>2026-04-26T09:05:30Z</time></trkpt><trkpt lat="45.632463364573006" lon="10.878145000317659"><ele>113.6</ele><time>2026-04-26T09:05:31Z</time></trkpt><trkpt lat="45.63250636581787" lon="10.877972318596743"><ele>112.2</ele><time>2026-04-26T09:05:33Z</time></trkpt><trkpt lat="45.63254116488713" lon="10.8778455359909"><ele>110.80000000000001</ele><time>2026-04-26T09:05:35Z</time></trkpt><trkpt lat="45.63256745290866" lon="10.877761922890333"><ele>109.4</ele><time>2026-04-26T09:05:37Z</time></trkpt><trkpt lat="45.63248379757445" lon="10.87769538996905"><ele>108.0</ele><time>2026-04-26T09:06:17Z</time></trkpt><trkpt lat="45.63240905156992" lon="10.877668557706311"><ele>108.0</ele><time>2026-04-26T09:06:18Z</time></trkpt><trkpt lat="45.632320565494375" lon="10.877626810893076"><ele>108.0</ele><time>2026-04-26T09:06:19Z</time></trkpt><trkpt lat="45.632211810518626" lon="10.877598333217687"><ele>108.0</ele><time>2026-04-26T09:06:20Z</time></trkpt><trkpt lat="45.632100695345045" lon="10.877584221043318"><ele>108.0</ele><time>2026-04-26T09:06:21Z</time></trkpt><trkpt lat="45.63196355682847" lon="10.877563977391869"><ele>108.33333333333334</ele><time>2026-04-26T09:06:22Z</time></trkpt><trkpt lat="45.63179836409789" lon="10.87754488671826"><ele>108.66666666666667</ele><time>2026-04-26T09:06:23Z</time></trkpt><trkpt lat="45.6316463952922" lon="10.877536674840405"><ele>109.0</ele><time>2026-04-26T09:06:24Z</time></trkpt><trkpt lat="45.63149454491035" lon="10.877521434135875"><ele>109.0</ele><time>2026-04-26T09:06:25Z</time></trkpt><trkpt lat="45.631362780733575" lon="10.877507471374107"><ele>109.0</ele><time>2026-04-26T09:06:26Z</time></trkpt><trkpt lat="45.63124363797342" lon="10.877502125866393"><ele>109.0</ele><time>2026-04-26T09:06:27Z</time></trkpt><trkpt lat="45.631108847372346" lon="10.87748210871812"><ele>109.0</ele><time>2026-04-26T09:06:28Z</time></trkpt><trkpt lat="45.630978051359186" lon="10.877463359740371"><ele>108.75</ele><time>2026-04-26T09:06:29Z</time></trkpt><trkpt lat="45.63084319445715" lon="10.877445161279033"><ele>108.5</ele><time>2026-04-26T09:06:30Z</time></trkpt><trkpt lat="45.63070596503713" lon="10.87742298145609"><ele>108.25</ele><time>2026-04-26T09:06:31Z</time></trkpt><trkpt lat="45.630566518877096" lon="10.877388357885536"><ele>108.0</ele><time>2026-04-26T09:06:32Z</time></trkpt><trkpt lat="45.6304468006578" lon="10.877358738837506"><ele>108.0</ele><time>2026-04-26T09:06:33Z</time></trkpt><trkpt lat="45.63033958101219" lon="10.877327859712087"><ele>108.0</ele><time>2026-04-26T09:06:34Z</time></trkpt><trkpt lat="45.63024125105531" lon="10.877288796339236"><ele>108.0</ele><time>2026-04-26T09:06:35Z</time></trkpt><trkpt lat="45.63016869802395" lon="10.87725050910211"><ele>108.0</ele><time>2026-04-26T09:06:36Z</time></trkpt><trkpt lat="45.630105049045355" lon="10.877214175972696"><ele>108.0</ele><time>2026-04-26T09:06:37Z</time></trkpt><trkpt lat="45.630040416484334" lon="10.877210285297243"><ele>108.0</ele><time>2026-04-26T09:06:39.001Z</time></trkpt><trkpt lat="45.63001558268326" lon="10.877299165972733"><ele>109.66666666666667</ele><time>2026-04-26T09:06:41.001Z</time></trkpt><trkpt lat="45.63004473620232" lon="10.877415095306107"><ele>111.33333333333334</ele><time>2026-04-26T09:06:43.001Z</time></trkpt><trkpt lat="45.63014205546696" lon="10.87748824006709"><ele>113.0</ele><time>2026-04-26T09:06:45.001Z</time></trkpt><trkpt lat="45.6302054862028" lon="10.877534976269414"><ele>114.66666666666667</ele><time>2026-04-26T09:06:46.001Z</time></trkpt><trkpt lat="45.63027000656091" lon="10.877584534148925"><ele>116.33333333333334</ele><time>2026-04-26T09:06:47.001Z</time></trkpt><trkpt lat="45.6303550656666" lon="10.877634132808787"><ele>118.0</ele><time>2026-04-26T09:06:48.001Z</time></trkpt><trkpt lat="45.63045639417667" lon="10.877684162222865"><ele>118.00000000000001</ele><time>2026-04-26T09:06:50.001Z</time></trkpt><trkpt lat="45.63052327340523" lon="10.877740799735104"><ele>118.0</ele><time>2026-04-26T09:06:52.001Z</time></trkpt><trkpt lat="45.630425986414" lon="10.877764325086554"><ele>118.0</ele><time>2026-04-26T09:06:57.001Z</time></trkpt><trkpt lat="45.63035531115354" lon="10.877712751002953"><ele>118.0</ele><time>2026-04-26T09:06:58.001Z</time></trkpt><trkpt lat="45.630283000743155" lon="10.877655326546906"><ele>118.00000000000001</ele><time>2026-04-26T09:06:59.001Z</time></trkpt><trkpt lat="45.63021627381394" lon="10.877613227254436"><ele>118.0</ele><time>2026-04-26T09:07:00.001Z</time></trkpt><trkpt lat="45.6301453878639" lon="10.877562371648166"><ele>118.0</ele><time>2026-04-26T09:07:01.001Z</time></trkpt><trkpt lat="45.63004083733351" lon="10.877494830876875"><ele>118.00000000000001</ele><time>2026-04-26T09:07:02.001Z</time></trkpt><trkpt lat="45.62993363785956" lon="10.877425621714456"><ele>118.00000000000001</ele><time>2026-04-26T09:07:03.001Z</time></trkpt><trkpt lat="45.62983488628471" lon="10.87736315535491"><ele>118.0</ele><time>2026-04-26T09:07:04.001Z</time></trkpt><trkpt lat="45.62975170528894" lon="10.877299533933066"><ele>118.0</ele><time>2026-04-26T09:07:05Z</time></trkpt><trkpt lat="45.629694315938295" lon="10.877249409904785"><ele>118.0</ele><time>2026-04-26T09:07:06Z</time></trkpt><trkpt lat="45.629596117271966" lon="10.877196490602836"><ele>118.00000000000001</ele><time>2026-04-26T09:07:08Z</time></trkpt><trkpt lat="45.62948613958764" lon="10.877101899556992"><ele>118.00000000000001</ele><time>2026-04-26T09:07:10Z</time></trkpt><trkpt lat="45.62943226239855" lon="10.877013441508174"><ele>118.0</ele><time>2026-04-26T09:07:11Z</time></trkpt><trkpt lat="45.629376480474" lon="10.876938728054"><ele>118.0</ele><time>2026-04-26T09:07:12Z</time></trkpt><trkpt lat="45.62931711835747" lon="10.876865751195298"><ele>117.80000000000001</ele><time>2026-04-26T09:07:13Z</time></trkpt><trkpt lat="45.62924586113278" lon="10.876771572239857"><ele>117.60000000000001</ele><time>2026-04-26T09:07:14Z</time></trkpt><trkpt lat="45.629176321715384" lon="10.876677396944121"><ele>117.39999999999999</ele><time>2026-04-26T09:07:15Z</time></trkpt><trkpt lat="45.62910451567436" lon="10.876574512275061"><ele>117.19999999999999</ele><time>2026-04-26T09:07:16Z</time></trkpt><trkpt lat="45.62903107856546" lon="10.876468905566062"><ele>117.0</ele><time>2026-04-26T09:07:17Z</time></trkpt><trkpt lat="45.62895895820521" lon="10.876358407375905"><ele>117.0</ele><time>2026-04-26T09:07:18Z</time></trkpt><trkpt lat="45.62888660829731" lon="10.876245462252939"><ele>116.99999999999999</ele><time>2026-04-26T09:07:19Z</time></trkpt><trkpt lat="45.62882096406375" lon="10.876140477473081"><ele>116.99999999999999</ele><time>2026-04-26T09:07:20Z</time></trkpt><trkpt lat="45.62876133779459" lon="10.876033870195316"><ele>117.0</ele><time>2026-04-26T09:07:21Z</time></trkpt><trkpt lat="45.62870141521648" lon="10.87592705815354"><ele>117.0</ele><time>2026-04-26T09:07:22Z</time></trkpt><trkpt lat="45.62864010854552" lon="10.87581599739842"><ele>117.8</ele><time>2026-04-26T09:07:23Z</time></trkpt><trkpt lat="45.62858177599207" lon="10.875699788538183"><ele>118.6</ele><time>2026-04-26T09:07:24Z</time></trkpt><trkpt lat="45.62852458078033" lon="10.875581869977232"><ele>119.39999999999999</ele><time>2026-04-26T09:07:25Z</time></trkpt><trkpt lat="45.62846464669839" lon="10.875462186799892"><ele>120.19999999999999</ele><time>2026-04-26T09:07:26Z</time></trkpt><trkpt lat="45.62840376415634" lon="10.8753397178742"><ele>121.0</ele><time>2026-04-26T09:07:27Z</time></trkpt><trkpt lat="45.628340388929985" lon="10.87521889087124"><ele>119.4</ele><time>2026-04-26T09:07:28Z</time></trkpt><trkpt lat="45.62827548023322" lon="10.875096898489106"><ele>117.8</ele><time>2026-04-26T09:07:29Z</time></trkpt><trkpt lat="45.6282116166819" lon="10.874975213584797"><ele>116.20000000000002</ele><time>2026-04-26T09:07:30Z</time></trkpt><trkpt lat="45.62814428274688" lon="10.874852490900395"><ele>114.60000000000001</ele><time>2026-04-26T09:07:31Z</time></trkpt><trkpt lat="45.62807275593408" lon="10.874730641546419"><ele>113.0</ele><time>2026-04-26T09:07:32Z</time></trkpt><trkpt lat="45.62800252687474" lon="10.874610710274997"><ele>113.0</ele><time>2026-04-26T09:07:33Z</time></trkpt><trkpt lat="45.62792739584064" lon="10.874486700454474"><ele>113.00000000000001</ele><time>2026-04-26T09:07:34Z</time></trkpt><trkpt lat="45.627850087059734" lon="10.874362779124887"><ele>113.00000000000001</ele><time>2026-04-26T09:07:35Z</time></trkpt><trkpt lat="45.627779249698975" lon="10.874251017946808"><ele>113.0</ele><time>2026-04-26T09:07:36Z</time></trkpt><trkpt lat="45.627712186957915" lon="10.874151399472833"><ele>113.0</ele><time>2026-04-26T09:07:37Z</time></trkpt><trkpt lat="45.62764841626277" lon="10.874056946283444"><ele>113.83333333333333</ele><time>2026-04-26T09:07:38Z</time></trkpt><trkpt lat="45.62759039742334" lon="10.87397222554094"><ele>114.66666666666666</ele><time>2026-04-26T09:07:39Z</time></trkpt><trkpt lat="45.62753410800389" lon="10.873889631584841"><ele>115.5</ele><time>2026-04-26T09:07:40Z</time></trkpt><trkpt lat="45.62748443905914" lon="10.873819119399961"><ele>116.33333333333334</ele><time>2026-04-26T09:07:41Z</time></trkpt><trkpt lat="45.62744370154906" lon="10.873706326476444"><ele>117.16666666666667</ele><time>2026-04-26T09:07:44Z</time></trkpt><trkpt lat="45.62742632416171" lon="10.873554855191324"><ele>118.0</ele><time>2026-04-26T09:07:46Z</time></trkpt><trkpt lat="45.62738770969711" lon="10.873449424028577"><ele>116.2</ele><time>2026-04-26T09:07:47Z</time></trkpt><trkpt lat="45.62736101056964" lon="10.873363295355142"><ele>114.4</ele><time>2026-04-26T09:07:48Z</time></trkpt><trkpt lat="45.627338005864516" lon="10.87325420599837"><ele>112.60000000000001</ele><time>2026-04-26T09:07:49Z</time></trkpt><trkpt lat="45.62728748814116" lon="10.873091846082195"><ele>110.80000000000001</ele><time>2026-04-26T09:07:51Z</time></trkpt><trkpt lat="45.627227089183904" lon="10.872996926903376"><ele>109.0</ele><time>2026-04-26T09:07:52Z</time></trkpt><trkpt lat="45.62714268705902" lon="10.872879135720982"><ele>109.0</ele><time>2026-04-26T09:07:53Z</time></trkpt><trkpt lat="45.62707298208385" lon="10.872762930043084"><ele>109.0</ele><time>2026-04-26T09:07:54Z</time></trkpt><trkpt lat="45.62697996063507" lon="10.872577004432875"><ele>109.0</ele><time>2026-04-26T09:07:55Z</time></trkpt><trkpt lat="45.626879834356245" lon="10.87236507689834"><ele>109.0</ele><time>2026-04-26T09:07:56Z</time></trkpt><trkpt lat="45.62677770987715" lon="10.872152635851208"><ele>108.6</ele><time>2026-04-26T09:07:57Z</time></trkpt><trkpt lat="45.62672183282931" lon="10.872058929185963"><ele>108.2</ele><time>2026-04-26T09:07:59Z</time></trkpt><trkpt lat="45.62665400671896" lon="10.871923168046878"><ele>107.79999999999998</ele><time>2026-04-26T09:08:00Z</time></trkpt><trkpt lat="45.62659872685382" lon="10.871808020995278"><ele>107.39999999999999</ele><time>2026-04-26T09:08:01Z</time></trkpt><trkpt lat="45.62653690001567" lon="10.87169555599628"><ele>107.0</ele><time>2026-04-26T09:08:02Z</time></trkpt><trkpt lat="45.62646102588619" lon="10.871587375815006"><ele>107.0</ele><time>2026-04-26T09:08:03Z</time></trkpt><trkpt lat="45.62636425018662" lon="10.871471012449973"><ele>107.0</ele><time>2026-04-26T09:08:04Z</time></trkpt><trkpt lat="45.62624926842582" lon="10.871335807710796"><ele>107.0</ele><time>2026-04-26T09:08:05Z</time></trkpt><trkpt lat="45.62611783063674" lon="10.871184630708639"><ele>107.0</ele><time>2026-04-26T09:08:06Z</time></trkpt><trkpt lat="45.62597053024164" lon="10.871037792272823"><ele>107.66666666666666</ele><time>2026-04-26T09:08:07Z</time></trkpt><trkpt lat="45.62581872332306" lon="10.870894070714655"><ele>108.33333333333334</ele><time>2026-04-26T09:08:08Z</time></trkpt><trkpt lat="45.62566011133785" lon="10.870738936421699"><ele>109.0</ele><time>2026-04-26T09:08:09Z</time></trkpt><trkpt lat="45.625521712147176" lon="10.870608959836899"><ele>109.0</ele><time>2026-04-26T09:08:10Z</time></trkpt><trkpt lat="45.62539107677822" lon="10.870483563689838"><ele>109.0</ele><time>2026-04-26T09:08:11Z</time></trkpt><trkpt lat="45.6252346478947" lon="10.870357065385344"><ele>109.0</ele><time>2026-04-26T09:08:12Z</time></trkpt><trkpt lat="45.62507083388786" lon="10.870226723435167"><ele>108.33333333333334</ele><time>2026-04-26T09:08:13Z</time></trkpt><trkpt lat="45.62490638205756" lon="10.8700955830143"><ele>107.66666666666666</ele><time>2026-04-26T09:08:14Z</time></trkpt><trkpt lat="45.62475045437417" lon="10.869975808073459"><ele>107.0</ele><time>2026-04-26T09:08:15Z</time></trkpt><trkpt lat="45.6245877328582" lon="10.86985519764918"><ele>107.66666666666666</ele><time>2026-04-26T09:08:16Z</time></trkpt><trkpt lat="45.62442282915633" lon="10.869739779330551"><ele>108.33333333333334</ele><time>2026-04-26T09:08:17Z</time></trkpt><trkpt lat="45.624261290310436" lon="10.869619218623214"><ele>109.0</ele><time>2026-04-26T09:08:18Z</time></trkpt><trkpt lat="45.62409368580078" lon="10.869499950849272"><ele>109.0</ele><time>2026-04-26T09:08:19Z</time></trkpt><trkpt lat="45.624000213677185" lon="10.869409717890942"><ele>109.0</ele><time>2026-04-26T09:08:20Z</time></trkpt><trkpt lat="45.62388837367061" lon="10.869303390730845"><ele>109.0</ele><time>2026-04-26T09:08:21Z</time></trkpt><trkpt lat="45.62358195526983" lon="10.869123980247297"><ele>108.66666666666667</ele><time>2026-04-26T09:08:22Z</time></trkpt><trkpt lat="45.62341871846382" lon="10.868992962794923"><ele>108.33333333333334</ele><time>2026-04-26T09:08:23Z</time></trkpt><trkpt lat="45.623281393844586" lon="10.868877921815086"><ele>108.0</ele><time>2026-04-26T09:08:24Z</time></trkpt><trkpt lat="45.62313042612599" lon="10.868746587476322"><ele>108.0</ele><time>2026-04-26T09:08:25Z</time></trkpt><trkpt lat="45.62297460032804" lon="10.868610868028727"><ele>108.0</ele><time>2026-04-26T09:08:26Z</time></trkpt><trkpt lat="45.622831188494516" lon="10.868471120222424"><ele>108.0</ele><time>2026-04-26T09:08:27Z</time></trkpt><trkpt lat="45.622706352700725" lon="10.868348957639158"><ele>108.4</ele><time>2026-04-26T09:08:28Z</time></trkpt><trkpt lat="45.62261027995466" lon="10.868250367296103"><ele>108.80000000000001</ele><time>2026-04-26T09:08:29Z</time></trkpt><trkpt lat="45.62252835446491" lon="10.868166950668591"><ele>109.2</ele><time>2026-04-26T09:08:30Z</time></trkpt><trkpt lat="45.622452815061564" lon="10.868096095988053"><ele>109.6</ele><time>2026-04-26T09:08:31Z</time></trkpt><trkpt lat="45.622391068868005" lon="10.868051722898656"><ele>110.0</ele><time>2026-04-26T09:08:32Z</time></trkpt><trkpt lat="45.62228720673715" lon="10.868084515023813"><ele>109.99999999999999</ele><time>2026-04-26T09:08:34Z</time></trkpt><trkpt lat="45.62223767572308" lon="10.868221471745768"><ele>110.0</ele><time>2026-04-26T09:08:36Z</time></trkpt><trkpt lat="45.62222233342356" lon="10.8683122249045"><ele>110.0</ele><time>2026-04-26T09:08:37Z</time></trkpt><trkpt lat="45.62224045186259" lon="10.868467049297374"><ele>110.0</ele><time>2026-04-26T09:08:39Z</time></trkpt><trkpt lat="45.622282763304604" lon="10.868544723058461"><ele>109.99999999999999</ele><time>2026-04-26T09:08:40Z</time></trkpt><trkpt lat="45.62234023425702" lon="10.868593240409442"><ele>110.0</ele><time>2026-04-26T09:08:41Z</time></trkpt><trkpt lat="45.622399745990855" lon="10.868652847649962"><ele>111.33333333333333</ele><time>2026-04-26T09:08:42Z</time></trkpt><trkpt lat="45.62248093475259" lon="10.868688539642523"><ele>112.66666666666666</ele><time>2026-04-26T09:08:44Z</time></trkpt><trkpt lat="45.62241684721519" lon="10.868713613341402"><ele>114.0</ele><time>2026-04-26T09:08:48.001Z</time></trkpt><trkpt lat="45.62236222074956" lon="10.86864506633164"><ele>115.33333333333334</ele><time>2026-04-26T09:08:52.001Z</time></trkpt><trkpt lat="45.62230492918846" lon="10.868596236331031"><ele>116.66666666666667</ele><time>2026-04-26T09:08:53.001Z</time></trkpt><trkpt lat="45.62222327044633" lon="10.868533796536031"><ele>118.0</ele><time>2026-04-26T09:08:54.001Z</time></trkpt><trkpt lat="45.6221289137433" lon="10.868473910084802"><ele>117.80000000000001</ele><time>2026-04-26T09:08:55.001Z</time></trkpt><trkpt lat="45.622044705385846" lon="10.868431355617838"><ele>117.60000000000001</ele><time>2026-04-26T09:08:56.001Z</time></trkpt><trkpt lat="45.62195949670396" lon="10.868393624584183"><ele>117.39999999999999</ele><time>2026-04-26T09:08:58.001Z</time></trkpt><trkpt lat="45.62187982657213" lon="10.868334147634895"><ele>117.19999999999999</ele><time>2026-04-26T09:08:59.001Z</time></trkpt><trkpt lat="45.621792823386535" lon="10.868245306027358"><ele>117.0</ele><time>2026-04-26T09:09:00.001Z</time></trkpt><trkpt lat="45.62169341574724" lon="10.86814097888209"><ele>117.0</ele><time>2026-04-26T09:09:01.001Z</time></trkpt><trkpt lat="45.62159405795611" lon="10.868049934726448"><ele>117.0</ele><time>2026-04-26T09:09:02.001Z</time></trkpt><trkpt lat="45.621491501406695" lon="10.8679454937166"><ele>117.0</ele><time>2026-04-26T09:09:03.001Z</time></trkpt><trkpt lat="45.62138654604029" lon="10.867849286104649"><ele>117.0</ele><time>2026-04-26T09:09:04.001Z</time></trkpt><trkpt lat="45.621279948485586" lon="10.867759529141464"><ele>117.0</ele><time>2026-04-26T09:09:05Z</time></trkpt><trkpt lat="45.62117885957747" lon="10.867641404947497"><ele>117.0</ele><time>2026-04-26T09:09:06Z</time></trkpt><trkpt lat="45.62108143899174" lon="10.867525256881533"><ele>117.0</ele><time>2026-04-26T09:09:07Z</time></trkpt><trkpt lat="45.62097458985096" lon="10.867397298162475"><ele>117.0</ele><time>2026-04-26T09:09:08Z</time></trkpt><trkpt lat="45.620831309032816" lon="10.867236047135473"><ele>117.66666666666666</ele><time>2026-04-26T09:09:09Z</time></trkpt><trkpt lat="45.62066332229395" lon="10.867060303822363"><ele>118.33333333333333</ele><time>2026-04-26T09:09:10Z</time></trkpt><trkpt lat="45.620500754944494" lon="10.866901023094476"><ele>119.0</ele><time>2026-04-26T09:09:11Z</time></trkpt><trkpt lat="45.620365797627876" lon="10.866760836453427"><ele>119.75</ele><time>2026-04-26T09:09:12Z</time></trkpt><trkpt lat="45.62025334700332" lon="10.866636152297234"><ele>120.5</ele><time>2026-04-26T09:09:13Z</time></trkpt><trkpt lat="45.620153576999705" lon="10.866502211619206"><ele>121.25</ele><time>2026-04-26T09:09:14Z</time></trkpt><trkpt lat="45.62005738213956" lon="10.866361661767"><ele>122.0</ele><time>2026-04-26T09:09:15Z</time></trkpt><trkpt lat="45.61995887540005" lon="10.866217514051593"><ele>122.0</ele><time>2026-04-26T09:09:16Z</time></trkpt><trkpt lat="45.61985689561361" lon="10.86606079465162"><ele>122.0</ele><time>2026-04-26T09:09:17Z</time></trkpt><trkpt lat="45.61976133958362" lon="10.865890114131554"><ele>122.0</ele><time>2026-04-26T09:09:18Z</time></trkpt><trkpt lat="45.61965717757026" lon="10.865706146641202"><ele>124.33333333333333</ele><time>2026-04-26T09:09:19Z</time></trkpt><trkpt lat="45.61954006415626" lon="10.865523153962355"><ele>126.66666666666666</ele><time>2026-04-26T09:09:20Z</time></trkpt><trkpt lat="45.619435664336244" lon="10.86536759677376"><ele>129.0</ele><time>2026-04-26T09:09:21Z</time></trkpt><trkpt lat="45.61933622028957" lon="10.865243464437398"><ele>129.0</ele><time>2026-04-26T09:09:22Z</time></trkpt><trkpt lat="45.619251099945814" lon="10.865125553751993"><ele>129.0</ele><time>2026-04-26T09:09:23Z</time></trkpt><trkpt lat="45.61917635942083" lon="10.86501774561641"><ele>129.0</ele><time>2026-04-26T09:09:24Z</time></trkpt><trkpt lat="45.61911666631899" lon="10.864918548705253"><ele>129.0</ele><time>2026-04-26T09:09:25Z</time></trkpt><trkpt lat="45.61905852316758" lon="10.864814981805358"><ele>129.0</ele><time>2026-04-26T09:09:26Z</time></trkpt><trkpt lat="45.61901710462188" lon="10.864723710573761"><ele>127.0</ele><time>2026-04-26T09:09:27Z</time></trkpt><trkpt lat="45.61896676353848" lon="10.864626184697313"><ele>125.0</ele><time>2026-04-26T09:09:28Z</time></trkpt><trkpt lat="45.61890029411971" lon="10.864512990121915"><ele>123.0</ele><time>2026-04-26T09:09:29Z</time></trkpt><trkpt lat="45.6188360631716" lon="10.864389655922848"><ele>121.0</ele><time>2026-04-26T09:09:30Z</time></trkpt><trkpt lat="45.61878594275795" lon="10.864275906712075"><ele>119.0</ele><time>2026-04-26T09:09:31Z</time></trkpt><trkpt lat="45.61874431914576" lon="10.864165261677327"><ele>118.75</ele><time>2026-04-26T09:09:32Z</time></trkpt><trkpt lat="45.6187048219675" lon="10.864049641146424"><ele>118.5</ele><time>2026-04-26T09:09:33Z</time></trkpt><trkpt lat="45.61864831089053" lon="10.86390643777582"><ele>118.25</ele><time>2026-04-26T09:09:34Z</time></trkpt><trkpt lat="45.61857334569593" lon="10.8637528286732"><ele>118.0</ele><time>2026-04-26T09:09:35Z</time></trkpt><trkpt lat="45.61847931365868" lon="10.86359854428368"><ele>118.0</ele><time>2026-04-26T09:09:36Z</time></trkpt><trkpt lat="45.61839207002855" lon="10.86347307384616"><ele>118.00000000000001</ele><time>2026-04-26T09:09:37Z</time></trkpt><trkpt lat="45.61831818017399" lon="10.863360735953238"><ele>118.00000000000001</ele><time>2026-04-26T09:09:38Z</time></trkpt><trkpt lat="45.618259813073024" lon="10.863265538354987"><ele>118.0</ele><time>2026-04-26T09:09:39Z</time></trkpt><trkpt lat="45.61820074130666" lon="10.863177474971769"><ele>118.0</ele><time>2026-04-26T09:09:40Z</time></trkpt><trkpt lat="45.61815156333958" lon="10.863099055855935"><ele>117.00000000000001</ele><time>2026-04-26T09:09:41Z</time></trkpt><trkpt lat="45.61811266849001" lon="10.863020905936674"><ele>116.0</ele><time>2026-04-26T09:09:42Z</time></trkpt><trkpt lat="45.61805907232475" lon="10.86289924204563"><ele>115.0</ele><time>2026-04-26T09:09:44Z</time></trkpt><trkpt lat="45.61801140261354" lon="10.862808944530881"><ele>114.0</ele><time>2026-04-26T09:09:46Z</time></trkpt><trkpt lat="45.61797569561687" lon="10.862718631062407"><ele>113.00000000000001</ele><time>2026-04-26T09:09:48Z</time></trkpt><trkpt lat="45.617928354380396" lon="10.862580822970067"><ele>112.0</ele><time>2026-04-26T09:09:50Z</time></trkpt><trkpt lat="45.61787891882743" lon="10.862425785379415"><ele>111.66666666666667</ele><time>2026-04-26T09:09:52Z</time></trkpt><trkpt lat="45.617835222928726" lon="10.86228578080306"><ele>111.33333333333334</ele><time>2026-04-26T09:09:54Z</time></trkpt><trkpt lat="45.61781563159781" lon="10.8621938185823"><ele>111.0</ele><time>2026-04-26T09:09:56Z</time></trkpt><trkpt lat="45.61778384385911" lon="10.862089456732264"><ele>110.66666666666666</ele><time>2026-04-26T09:09:58Z</time></trkpt><trkpt lat="45.61775185581248" lon="10.861943939909407"><ele>110.33333333333333</ele><time>2026-04-26T09:10:02Z</time></trkpt><trkpt lat="45.61773563796185" lon="10.86183579828831"><ele>110.0</ele><time>2026-04-26T09:10:03Z</time></trkpt><trkpt lat="45.61771481063663" lon="10.861665165008134"><ele>111.33333333333333</ele><time>2026-04-26T09:10:04Z</time></trkpt><trkpt lat="45.61768901396935" lon="10.86148643715119"><ele>112.66666666666666</ele><time>2026-04-26T09:10:05Z</time></trkpt><trkpt lat="45.617668229406135" lon="10.861344333587965"><ele>114.0</ele><time>2026-04-26T09:10:06Z</time></trkpt><trkpt lat="45.61765166142971" lon="10.861239051042144"><ele>115.33333333333334</ele><time>2026-04-26T09:10:07Z</time></trkpt><trkpt lat="45.61764406621749" lon="10.86114022753917"><ele>116.66666666666667</ele><time>2026-04-26T09:10:08Z</time></trkpt><trkpt lat="45.61763382662756" lon="10.861035585422236"><ele>118.0</ele><time>2026-04-26T09:10:09Z</time></trkpt><trkpt lat="45.617629954640556" lon="10.860900860832789"><ele>118.5</ele><time>2026-04-26T09:10:10Z</time></trkpt><trkpt lat="45.61762740139579" lon="10.860760489106626"><ele>119.0</ele><time>2026-04-26T09:10:11Z</time></trkpt><trkpt lat="45.61762769999144" lon="10.860589598468723"><ele>119.5</ele><time>2026-04-26T09:10:12Z</time></trkpt><trkpt lat="45.617632747688106" lon="10.860409992574807"><ele>120.0</ele><time>2026-04-26T09:10:13Z</time></trkpt><trkpt lat="45.61764092346427" lon="10.860229277757023"><ele>120.0</ele><time>2026-04-26T09:10:14Z</time></trkpt><trkpt lat="45.61766619101415" lon="10.860036124764463"><ele>120.0</ele><time>2026-04-26T09:10:15Z</time></trkpt><trkpt lat="45.61770297518395" lon="10.859850184574428"><ele>120.0</ele><time>2026-04-26T09:10:16Z</time></trkpt><trkpt lat="45.61774480397191" lon="10.859673202966508"><ele>120.0</ele><time>2026-04-26T09:10:17Z</time></trkpt><trkpt lat="45.617795244634" lon="10.85949175122611"><ele>118.4</ele><time>2026-04-26T09:10:18Z</time></trkpt><trkpt lat="45.617858330844214" lon="10.859325698217782"><ele>116.8</ele><time>2026-04-26T09:10:19Z</time></trkpt><trkpt lat="45.6179241972202" lon="10.859185388767946"><ele>115.19999999999999</ele><time>2026-04-26T09:10:20Z</time></trkpt><trkpt lat="45.61797854831073" lon="10.859085397776035"><ele>113.6</ele><time>2026-04-26T09:10:21Z</time></trkpt><trkpt lat="45.61802673410831" lon="10.85899712017472"><ele>112.0</ele><time>2026-04-26T09:10:22Z</time></trkpt><trkpt lat="45.61808144392398" lon="10.85890120083515"><ele>112.0</ele><time>2026-04-26T09:10:23Z</time></trkpt><trkpt lat="45.618114199489575" lon="10.858766706267524"><ele>111.99999999999999</ele><time>2026-04-26T09:10:25Z</time></trkpt><trkpt lat="45.618033200910645" lon="10.858657029828944"><ele>111.99999999999999</ele><time>2026-04-26T09:10:27Z</time></trkpt><trkpt lat="45.61794816743484" lon="10.858586003327249"><ele>112.0</ele><time>2026-04-26T09:10:28Z</time></trkpt><trkpt lat="45.61786139887627" lon="10.858510313075676"><ele>112.0</ele><time>2026-04-26T09:10:29Z</time></trkpt><trkpt lat="45.61778586115382" lon="10.858437157763882"><ele>113.6</ele><time>2026-04-26T09:10:30Z</time></trkpt><trkpt lat="45.61768361959708" lon="10.858332879594522"><ele>115.19999999999999</ele><time>2026-04-26T09:10:32Z</time></trkpt><trkpt lat="45.617612956030065" lon="10.858256448356157"><ele>116.8</ele><time>2026-04-26T09:10:33Z</time></trkpt><trkpt lat="45.61754669870263" lon="10.858188596587837"><ele>118.4</ele><time>2026-04-26T09:10:34Z</time></trkpt><trkpt lat="45.61747633244147" lon="10.858104059585637"><ele>120.0</ele><time>2026-04-26T09:10:35Z</time></trkpt><trkpt lat="45.61740743410472" lon="10.85803623886802"><ele>120.0</ele><time>2026-04-26T09:10:36Z</time></trkpt><trkpt lat="45.6173506015518" lon="10.857976236492725"><ele>120.0</ele><time>2026-04-26T09:10:37Z</time></trkpt><trkpt lat="45.6172961931229" lon="10.857917574957126"><ele>120.0</ele><time>2026-04-26T09:10:38Z</time></trkpt><trkpt lat="45.61724411851878" lon="10.857863997581683"><ele>120.0</ele><time>2026-04-26T09:10:39Z</time></trkpt><trkpt lat="45.61717937422654" lon="10.85780787819445"><ele>120.0</ele><time>2026-04-26T09:10:40Z</time></trkpt><trkpt lat="45.61709727915942" lon="10.857727199817067"><ele>120.0</ele><time>2026-04-26T09:10:41Z</time></trkpt><trkpt lat="45.61700890488598" lon="10.85764101729401"><ele>120.0</ele><time>2026-04-26T09:10:42Z</time></trkpt><trkpt lat="45.61689580056918" lon="10.857538748482888"><ele>120.0</ele><time>2026-04-26T09:10:43Z</time></trkpt><trkpt lat="45.616785581799135" lon="10.857440120485622"><ele>120.0</ele><time>2026-04-26T09:10:44Z</time></trkpt><trkpt lat="45.61667125199992" lon="10.857329216010674"><ele>120.0</ele><time>2026-04-26T09:10:45Z</time></trkpt><trkpt lat="45.616556743318064" lon="10.857201823094336"><ele>120.0</ele><time>2026-04-26T09:10:46Z</time></trkpt><trkpt lat="45.61644250086335" lon="10.85708190881335"><ele>120.0</ele><time>2026-04-26T09:10:47Z</time></trkpt><trkpt lat="45.61629888128683" lon="10.856945070916048"><ele>120.0</ele><time>2026-04-26T09:10:48Z</time></trkpt><trkpt lat="45.61614542738926" lon="10.85679835760652"><ele>119.66666666666666</ele><time>2026-04-26T09:10:49Z</time></trkpt><trkpt lat="45.61597637415323" lon="10.856638699444122"><ele>119.33333333333333</ele><time>2026-04-26T09:10:50Z</time></trkpt><trkpt lat="45.615819305834705" lon="10.85648265076082"><ele>119.0</ele><time>2026-04-26T09:10:51Z</time></trkpt><trkpt lat="45.61565733786204" lon="10.856327565687488"><ele>119.0</ele><time>2026-04-26T09:10:52Z</time></trkpt><trkpt lat="45.61552737293721" lon="10.856197527282655"><ele>119.0</ele><time>2026-04-26T09:10:53Z</time></trkpt><trkpt lat="45.615409171771496" lon="10.85607427916144"><ele>119.0</ele><time>2026-04-26T09:10:54Z</time></trkpt><trkpt lat="45.61530288121517" lon="10.85597339368411"><ele>119.0</ele><time>2026-04-26T09:10:55Z</time></trkpt><trkpt lat="45.61521388319907" lon="10.85588722048647"><ele>119.16666666666666</ele><time>2026-04-26T09:10:56Z</time></trkpt><trkpt lat="45.61513724273794" lon="10.855822041267617"><ele>119.33333333333333</ele><time>2026-04-26T09:10:57Z</time></trkpt><trkpt lat="45.61507547962206" lon="10.855784248110242"><ele>119.5</ele><time>2026-04-26T09:10:58Z</time></trkpt><trkpt lat="45.61498237248304" lon="10.855830601992432"><ele>119.66666666666666</ele><time>2026-04-26T09:11:00Z</time></trkpt><trkpt lat="45.614916378844484" lon="10.855917187782875"><ele>119.83333333333333</ele><time>2026-04-26T09:11:02Z</time></trkpt><trkpt lat="45.614914917869264" lon="10.855800142844432"><ele>120.0</ele><time>2026-04-26T09:11:06Z</time></trkpt><trkpt lat="45.61502338100417" lon="10.85565379630548"><ele>120.0</ele><time>2026-04-26T09:11:08Z</time></trkpt><trkpt lat="45.61508404285242" lon="10.85555462287944"><ele>120.0</ele><time>2026-04-26T09:11:09Z</time></trkpt><trkpt lat="45.61514748236621" lon="10.855416078834905"><ele>120.0</ele><time>2026-04-26T09:11:10Z</time></trkpt><trkpt lat="45.61519413970962" lon="10.855304629323879"><ele>120.0</ele><time>2026-04-26T09:11:11Z</time></trkpt><trkpt lat="45.61523692649023" lon="10.85521090956845"><ele>120.0</ele><time>2026-04-26T09:11:12Z</time></trkpt><trkpt lat="45.615276736034225" lon="10.855127191525765"><ele>120.0</ele><time>2026-04-26T09:11:13Z</time></trkpt><trkpt lat="45.61531346736128" lon="10.855050173876887"><ele>119.4</ele><time>2026-04-26T09:11:14Z</time></trkpt><trkpt lat="45.61533863506327" lon="10.854940934989743"><ele>118.8</ele><time>2026-04-26T09:11:15Z</time></trkpt><trkpt lat="45.615366474562705" lon="10.854821160050076"><ele>118.19999999999999</ele><time>2026-04-26T09:11:16Z</time></trkpt><trkpt lat="45.61539645294705" lon="10.854722321113465"><ele>117.6</ele><time>2026-04-26T09:11:17Z</time></trkpt><trkpt lat="45.61545688076854" lon="10.854591835196228"><ele>117.0</ele><time>2026-04-26T09:11:19Z</time></trkpt><trkpt lat="45.61555735484534" lon="10.85452314606655"><ele>117.0</ele><time>2026-04-26T09:11:21Z</time></trkpt><trkpt lat="45.61562588511065" lon="10.854527033183881"><ele>117.0</ele><time>2026-04-26T09:11:22Z</time></trkpt><trkpt lat="45.61574970590798" lon="10.854538542706049"><ele>117.0</ele><time>2026-04-26T09:11:23Z</time></trkpt><trkpt lat="45.61590743815072" lon="10.854565305158241"><ele>117.0</ele><time>2026-04-26T09:11:24Z</time></trkpt><trkpt lat="45.61606799486589" lon="10.854587113460404"><ele>116.33333333333334</ele><time>2026-04-26T09:11:25Z</time></trkpt><trkpt lat="45.616245153246304" lon="10.85460676732951"><ele>115.66666666666667</ele><time>2026-04-26T09:11:26Z</time></trkpt><trkpt lat="45.6164355010795" lon="10.854635456782916"><ele>115.0</ele><time>2026-04-26T09:11:27Z</time></trkpt><trkpt lat="45.61663391420284" lon="10.854667174558045"><ele>115.0</ele><time>2026-04-26T09:11:28Z</time></trkpt><trkpt lat="45.61680552397849" lon="10.854684538645136"><ele>115.0</ele><time>2026-04-26T09:11:29Z</time></trkpt><trkpt lat="45.61699182075513" lon="10.854704205130405"><ele>115.0</ele><time>2026-04-26T09:11:30Z</time></trkpt><trkpt lat="45.61718569989326" lon="10.854706310694878"><ele>114.25</ele><time>2026-04-26T09:11:31Z</time></trkpt><trkpt lat="45.61734772131436" lon="10.854703895144597"><ele>113.5</ele><time>2026-04-26T09:11:32Z</time></trkpt><trkpt lat="45.6174791441526" lon="10.854707504900585"><ele>112.75</ele><time>2026-04-26T09:11:33Z</time></trkpt><trkpt lat="45.6175935187718" lon="10.85471529679911"><ele>112.0</ele><time>2026-04-26T09:11:34Z</time></trkpt><trkpt lat="45.61773383547597" lon="10.854731411691235"><ele>113.0</ele><time>2026-04-26T09:11:35Z</time></trkpt><trkpt lat="45.61788566146741" lon="10.854739396095791"><ele>114.0</ele><time>2026-04-26T09:11:36Z</time></trkpt><trkpt lat="45.61805369719709" lon="10.854747550631185"><ele>115.0</ele><time>2026-04-26T09:11:37Z</time></trkpt><trkpt lat="45.61824537524317" lon="10.854747450798103"><ele>115.0</ele><time>2026-04-26T09:11:38Z</time></trkpt><trkpt lat="45.618392308583175" lon="10.85476061479918"><ele>115.0</ele><time>2026-04-26T09:11:39Z</time></trkpt><trkpt lat="45.61855103190198" lon="10.854787282616348"><ele>115.0</ele><time>2026-04-26T09:11:40Z</time></trkpt><trkpt lat="45.61870118546592" lon="10.854817489546209"><ele>114.0</ele><time>2026-04-26T09:11:41Z</time></trkpt><trkpt lat="45.61884348027951" lon="10.854851878837868"><ele>113.0</ele><time>2026-04-26T09:11:42Z</time></trkpt><trkpt lat="45.618994068752734" lon="10.854906221650586"><ele>112.0</ele><time>2026-04-26T09:11:43Z</time></trkpt><trkpt lat="45.619139269353404" lon="10.854978820833509"><ele>112.0</ele><time>2026-04-26T09:11:44Z</time></trkpt><trkpt lat="45.61930215584358" lon="10.85507490410695"><ele>112.0</ele><time>2026-04-26T09:11:45Z</time></trkpt><trkpt lat="45.61945858373921" lon="10.855171905281564"><ele>112.0</ele><time>2026-04-26T09:11:46Z</time></trkpt><trkpt lat="45.61959217493677" lon="10.855252503005643"><ele>112.00000000000001</ele><time>2026-04-26T09:11:47Z</time></trkpt><trkpt lat="45.6197102303474" lon="10.8553201378637"><ele>112.0</ele><time>2026-04-26T09:11:48Z</time></trkpt><trkpt lat="45.619799603006" lon="10.85538298664327"><ele>112.0</ele><time>2026-04-26T09:11:49Z</time></trkpt><trkpt lat="45.61986657097447" lon="10.855442814658582"><ele>112.0</ele><time>2026-04-26T09:11:50Z</time></trkpt><trkpt lat="45.61990646724405" lon="10.855519670116397"><ele>112.00000000000001</ele><time>2026-04-26T09:11:51Z</time></trkpt><trkpt lat="45.61992922747636" lon="10.855619266146489"><ele>112.0</ele><time>2026-04-26T09:11:52Z</time></trkpt><trkpt lat="45.61994115538122" lon="10.85577400871531"><ele>112.00000000000001</ele><time>2026-04-26T09:11:53Z</time></trkpt><trkpt lat="45.619927739678275" lon="10.855913618784268"><ele>112.0</ele><time>2026-04-26T09:11:54Z</time></trkpt><trkpt lat="45.61990375536068" lon="10.856012961900447"><ele>112.0</ele><time>2026-04-26T09:11:55Z</time></trkpt><trkpt lat="45.61995971517848" lon="10.855946465441257"><ele>112.0</ele><time>2026-04-26T09:12:09Z</time></trkpt><trkpt lat="45.619974617876416" lon="10.855852837302889"><ele>112.00000000000001</ele><time>2026-04-26T09:12:10Z</time></trkpt><trkpt lat="45.61998839161711" lon="10.855728119634193"><ele>112.0</ele><time>2026-04-26T09:12:11Z</time></trkpt><trkpt lat="45.620001936922485" lon="10.855605391117825"><ele>112.0</ele><time>2026-04-26T09:12:12Z</time></trkpt><trkpt lat="45.62000050010542" lon="10.855472011536396"><ele>111.99999999999999</ele><time>2026-04-26T09:12:14Z</time></trkpt><trkpt lat="45.619998568975895" lon="10.855381266194422"><ele>111.99999999999999</ele><time>2026-04-26T09:12:15Z</time></trkpt><trkpt lat="45.61997029543328" lon="10.855226752412916"><ele>112.0</ele><time>2026-04-26T09:12:17Z</time></trkpt><trkpt lat="45.61988969838807" lon="10.855129490213859"><ele>112.0</ele><time>2026-04-26T09:12:19Z</time></trkpt><trkpt lat="45.61973214247189" lon="10.855077557070741"><ele>112.0</ele><time>2026-04-26T09:12:21Z</time></trkpt><trkpt lat="45.61961233083742" lon="10.85503388145951"><ele>112.0</ele><time>2026-04-26T09:12:22Z</time></trkpt><trkpt lat="45.61948527881836" lon="10.854963452491122"><ele>112.0</ele><time>2026-04-26T09:12:23Z</time></trkpt><trkpt lat="45.61933818835424" lon="10.85486460813961"><ele>112.0</ele><time>2026-04-26T09:12:24Z</time></trkpt><trkpt lat="45.61919609313542" lon="10.854768076322319"><ele>112.0</ele><time>2026-04-26T09:12:25Z</time></trkpt><trkpt lat="45.61907684043032" lon="10.854685777121773"><ele>112.0</ele><time>2026-04-26T09:12:26Z</time></trkpt><trkpt lat="45.61895750848669" lon="10.854614284492008"><ele>112.0</ele><time>2026-04-26T09:12:27Z</time></trkpt><trkpt lat="45.61883348984121" lon="10.854561892211503"><ele>112.0</ele><time>2026-04-26T09:12:28Z</time></trkpt><trkpt lat="45.6186856566251" lon="10.854518801900003"><ele>112.75</ele><time>2026-04-26T09:12:29Z</time></trkpt><trkpt lat="45.61855315129225" lon="10.854501415598957"><ele>113.5</ele><time>2026-04-26T09:12:30Z</time></trkpt><trkpt lat="45.61842741947691" lon="10.854485418977829"><ele>114.25</ele><time>2026-04-26T09:12:31Z</time></trkpt><trkpt lat="45.618292999459804" lon="10.854477810848008"><ele>115.0</ele><time>2026-04-26T09:12:32Z</time></trkpt><trkpt lat="45.618178288808316" lon="10.854478673489966"><ele>115.0</ele><time>2026-04-26T09:12:33Z</time></trkpt><trkpt lat="45.618058011516254" lon="10.854491254730474"><ele>115.0</ele><time>2026-04-26T09:12:34Z</time></trkpt><trkpt lat="45.6179302031501" lon="10.854502539387001"><ele>115.0</ele><time>2026-04-26T09:12:35Z</time></trkpt><trkpt lat="45.617792063293706" lon="10.854502839430095"><ele>115.0</ele><time>2026-04-26T09:12:36Z</time></trkpt><trkpt lat="45.61763043149401" lon="10.85449746962192"><ele>114.0</ele><time>2026-04-26T09:12:37Z</time></trkpt><trkpt lat="45.61745101508123" lon="10.854494632799861"><ele>113.0</ele><time>2026-04-26T09:12:38Z</time></trkpt><trkpt lat="45.6172904760041" lon="10.854485486550525"><ele>112.0</ele><time>2026-04-26T09:12:39Z</time></trkpt><trkpt lat="45.61713168988913" lon="10.854474224535245"><ele>112.0</ele><time>2026-04-26T09:12:40Z</time></trkpt><trkpt lat="45.61698895097458" lon="10.854473529440343"><ele>112.0</ele><time>2026-04-26T09:12:41Z</time></trkpt><trkpt lat="45.61682786254809" lon="10.854468792890492"><ele>112.0</ele><time>2026-04-26T09:12:42Z</time></trkpt><trkpt lat="45.61667099943314" lon="10.85444812924004"><ele>113.0</ele><time>2026-04-26T09:12:43Z</time></trkpt><trkpt lat="45.61650067650832" lon="10.854426308675816"><ele>114.0</ele><time>2026-04-26T09:12:44Z</time></trkpt><trkpt lat="45.61635290809524" lon="10.85439858475956"><ele>115.0</ele><time>2026-04-26T09:12:45Z</time></trkpt><trkpt lat="45.61620711902878" lon="10.854324537735781"><ele>115.5</ele><time>2026-04-26T09:12:46Z</time></trkpt><trkpt lat="45.61608729513188" lon="10.854354311725753"><ele>116.0</ele><time>2026-04-26T09:12:48Z</time></trkpt><trkpt lat="45.61599145031799" lon="10.854298124406448"><ele>116.5</ele><time>2026-04-26T09:12:49Z</time></trkpt><trkpt lat="45.6158613707636" lon="10.854242899749122"><ele>117.0</ele><time>2026-04-26T09:12:50Z</time></trkpt><trkpt lat="45.61569631011362" lon="10.854215009174819"><ele>113.33333333333334</ele><time>2026-04-26T09:12:51Z</time></trkpt><trkpt lat="45.61549728278496" lon="10.854183170361562"><ele>109.66666666666667</ele><time>2026-04-26T09:12:52Z</time></trkpt><trkpt lat="45.61527367730375" lon="10.854172499742415"><ele>106.0</ele><time>2026-04-26T09:12:53Z</time></trkpt><trkpt lat="45.61514409921479" lon="10.854176246578351"><ele>106.0</ele><time>2026-04-26T09:12:54Z</time></trkpt><trkpt lat="45.615041027499544" lon="10.85417001693018"><ele>106.0</ele><time>2026-04-26T09:12:55Z</time></trkpt><trkpt lat="45.61489811401306" lon="10.854140424463756"><ele>106.0</ele><time>2026-04-26T09:12:56Z</time></trkpt><trkpt lat="45.61476636168084" lon="10.854138560385417"><ele>106.0</ele><time>2026-04-26T09:12:57Z</time></trkpt><trkpt lat="45.61462310747949" lon="10.854146748060835"><ele>106.0</ele><time>2026-04-26T09:12:58Z</time></trkpt><trkpt lat="45.61449600778625" lon="10.854147098149044"><ele>106.0</ele><time>2026-04-26T09:12:59Z</time></trkpt><trkpt lat="45.61437631686907" lon="10.854135866638908"><ele>106.0</ele><time>2026-04-26T09:13:00Z</time></trkpt><trkpt lat="45.61425028430719" lon="10.854127801049826"><ele>106.0</ele><time>2026-04-26T09:13:01Z</time></trkpt><trkpt lat="45.6141357846195" lon="10.854128412649416"><ele>105.75</ele><time>2026-04-26T09:13:02Z</time></trkpt><trkpt lat="45.61400285959104" lon="10.854130731645514"><ele>105.5</ele><time>2026-04-26T09:13:03Z</time></trkpt><trkpt lat="45.61385491367836" lon="10.85413328993066"><ele>105.25</ele><time>2026-04-26T09:13:04Z</time></trkpt><trkpt lat="45.613704761530975" lon="10.854130524841185"><ele>105.0</ele><time>2026-04-26T09:13:05Z</time></trkpt><trkpt lat="45.61356075035303" lon="10.85415437445346"><ele>105.0</ele><time>2026-04-26T09:13:06Z</time></trkpt><trkpt lat="45.613399986410194" lon="10.854158775528989"><ele>105.0</ele><time>2026-04-26T09:13:07Z</time></trkpt><trkpt lat="45.61324316853213" lon="10.854165572158431"><ele>105.0</ele><time>2026-04-26T09:13:08Z</time></trkpt><trkpt lat="45.61309627586117" lon="10.854206386282163"><ele>105.0</ele><time>2026-04-26T09:13:09Z</time></trkpt><trkpt lat="45.61296272082839" lon="10.854259439451416"><ele>105.0</ele><time>2026-04-26T09:13:10Z</time></trkpt><trkpt lat="45.61283997719137" lon="10.854281154185687"><ele>105.0</ele><time>2026-04-26T09:13:11Z</time></trkpt><trkpt lat="45.61271672897512" lon="10.854299629423389"><ele>105.0</ele><time>2026-04-26T09:13:12Z</time></trkpt><trkpt lat="45.61258493749439" lon="10.854341191934617"><ele>107.0</ele><time>2026-04-26T09:13:13Z</time></trkpt><trkpt lat="45.61246829230261" lon="10.854395831574031"><ele>109.0</ele><time>2026-04-26T09:13:14Z</time></trkpt><trkpt lat="45.61234068630161" lon="10.854472490579544"><ele>111.0</ele><time>2026-04-26T09:13:15Z</time></trkpt><trkpt lat="45.612153654976545" lon="10.854540340637861"><ele>110.66666666666666</ele><time>2026-04-26T09:13:16Z</time></trkpt><trkpt lat="45.611958819562275" lon="10.854580997747984"><ele>110.33333333333333</ele><time>2026-04-26T09:13:17Z</time></trkpt><trkpt lat="45.61180328123423" lon="10.854602255769247"><ele>110.0</ele><time>2026-04-26T09:13:18Z</time></trkpt><trkpt lat="45.61166856358705" lon="10.854672911268667"><ele>110.0</ele><time>2026-04-26T09:13:19Z</time></trkpt><trkpt lat="45.61152646934325" lon="10.854726255321385"><ele>110.0</ele><time>2026-04-26T09:13:20Z</time></trkpt><trkpt lat="45.61140619518157" lon="10.854781681182677"><ele>110.0</ele><time>2026-04-26T09:13:21Z</time></trkpt><trkpt lat="45.61131004824643" lon="10.854825588879828"><ele>110.0</ele><time>2026-04-26T09:13:22Z</time></trkpt><trkpt lat="45.61120758963387" lon="10.854865309578045"><ele>109.25</ele><time>2026-04-26T09:13:23Z</time></trkpt><trkpt lat="45.61108984670406" lon="10.8549266509565"><ele>108.5</ele><time>2026-04-26T09:13:24Z</time></trkpt><trkpt lat="45.610992379340765" lon="10.854980434818872"><ele>107.75</ele><time>2026-04-26T09:13:25Z</time></trkpt><trkpt lat="45.61089608602862" lon="10.8550435553345"><ele>107.0</ele><time>2026-04-26T09:13:26Z</time></trkpt><trkpt lat="45.610791688743475" lon="10.855126585628252"><ele>108.49999999999999</ele><time>2026-04-26T09:13:27Z</time></trkpt><trkpt lat="45.6106958710404" lon="10.855215548857698"><ele>110.0</ele><time>2026-04-26T09:13:28Z</time></trkpt><trkpt lat="45.610628152400295" lon="10.855284401547468"><ele>111.5</ele><time>2026-04-26T09:13:29Z</time></trkpt><trkpt lat="45.61056735082221" lon="10.85540976104899"><ele>113.0</ele><time>2026-04-26T09:13:31Z</time></trkpt><trkpt lat="45.61054119450792" lon="10.855501843930504"><ele>114.49999999999999</ele><time>2026-04-26T09:13:32Z</time></trkpt><trkpt lat="45.61051494259879" lon="10.855593801256635"><ele>116.0</ele><time>2026-04-26T09:13:33Z</time></trkpt><trkpt lat="45.61049212586588" lon="10.855709310533348"><ele>116.0</ele><time>2026-04-26T09:13:34Z</time></trkpt><trkpt lat="45.61049414314612" lon="10.855828954142194"><ele>116.0</ele><time>2026-04-26T09:13:36Z</time></trkpt><trkpt lat="45.61048966812942" lon="10.855953382439827"><ele>116.0</ele><time>2026-04-26T09:13:38Z</time></trkpt><trkpt lat="45.61044736539778" lon="10.856113295013765"><ele>116.0</ele><time>2026-04-26T09:13:40Z</time></trkpt><trkpt lat="45.61042172375332" lon="10.856246414792444"><ele>116.0</ele><time>2026-04-26T09:13:41Z</time></trkpt><trkpt lat="45.61039174272989" lon="10.85639512886755"><ele>116.0</ele><time>2026-04-26T09:13:42Z</time></trkpt><trkpt lat="45.610402569916104" lon="10.856521872583262"><ele>116.0</ele><time>2026-04-26T09:13:44Z</time></trkpt><trkpt lat="45.61039979934274" lon="10.856619494449212"><ele>116.0</ele><time>2026-04-26T09:13:45Z</time></trkpt><trkpt lat="45.61035489506208" lon="10.856736030299507"><ele>116.0</ele><time>2026-04-26T09:13:47Z</time></trkpt><trkpt lat="45.61026252886118" lon="10.856851176879815"><ele>116.0</ele><time>2026-04-26T09:13:49Z</time></trkpt><trkpt lat="45.610183158523874" lon="10.85695850068068"><ele>116.0</ele><time>2026-04-26T09:13:51Z</time></trkpt><trkpt lat="45.61017432833705" lon="10.857080641601982"><ele>116.0</ele><time>2026-04-26T09:13:53Z</time></trkpt><trkpt lat="45.6102770684691" lon="10.857209849291735"><ele>116.0</ele><time>2026-04-26T09:13:55Z</time></trkpt><trkpt lat="45.61036864359543" lon="10.857305230860463"><ele>116.0</ele><time>2026-04-26T09:13:56Z</time></trkpt><trkpt lat="45.610412331309995" lon="10.857419043509328"><ele>116.0</ele><time>2026-04-26T09:13:58Z</time></trkpt><trkpt lat="45.61048066072968" lon="10.857462387274856"><ele>117.0</ele><time>2026-04-26T09:14:17Z</time></trkpt></trkseg><trkseg><trkpt lat="45.61029678164274" lon="10.857226507279101"><ele>116.0</ele><time>2026-04-26T09:38:03.999Z</time></trkpt><trkpt lat="45.610212565070725" lon="10.857101356778847"><ele>116.0</ele><time>2026-04-26T09:38:08.999Z</time></trkpt><trkpt lat="45.61010786845432" lon="10.857063564798823"><ele>116.0</ele><time>2026-04-26T09:38:10.999Z</time></trkpt><trkpt lat="45.60998796945041" lon="10.857044491330221"><ele>116.0</ele><time>2026-04-26T09:38:12.999Z</time></trkpt><trkpt lat="45.60987342922301" lon="10.857050210918068"><ele>116.0</ele><time>2026-04-26T09:38:14.999Z</time></trkpt><trkpt lat="45.60975865479953" lon="10.857063218501175"><ele>116.0</ele><time>2026-04-26T09:38:16.999Z</time></trkpt><trkpt lat="45.609640011823906" lon="10.857098034802286"><ele>116.0</ele><time>2026-04-26T09:38:18.999Z</time></trkpt><trkpt lat="45.609523989650626" lon="10.857108438768472"><ele>116.0</ele><time>2026-04-26T09:38:20.999Z</time></trkpt><trkpt lat="45.609382407198495" lon="10.85710473639877"><ele>115.83333333333333</ele><time>2026-04-26T09:38:22.999Z</time></trkpt><trkpt lat="45.609304046426885" lon="10.857132919855959"><ele>115.66666666666666</ele><time>2026-04-26T09:38:23.999Z</time></trkpt><trkpt lat="45.609212228336034" lon="10.857095011746194"><ele>115.5</ele><time>2026-04-26T09:38:24.999Z</time></trkpt><trkpt lat="45.60912608724375" lon="10.85705456107252"><ele>115.33333333333334</ele><time>2026-04-26T09:38:25.999Z</time></trkpt><trkpt lat="45.60904163068433" lon="10.857014194051422"><ele>115.16666666666667</ele><time>2026-04-26T09:38:26.999Z</time></trkpt><trkpt lat="45.60896280405119" lon="10.856976517932274"><ele>115.0</ele><time>2026-04-26T09:38:27.999Z</time></trkpt><trkpt lat="45.60889072050035" lon="10.856942064741101"><ele>115.00000000000001</ele><time>2026-04-26T09:38:28.999Z</time></trkpt><trkpt lat="45.60880600033217" lon="10.856904198942866"><ele>115.0</ele><time>2026-04-26T09:38:29.999Z</time></trkpt><trkpt lat="45.608718109397905" lon="10.856870561594183"><ele>115.0</ele><time>2026-04-26T09:38:30.999Z</time></trkpt><trkpt lat="45.608640577920724" lon="10.856857666837106"><ele>115.0</ele><time>2026-04-26T09:38:31.999Z</time></trkpt><trkpt lat="45.60856623814542" lon="10.856823404670179"><ele>115.00000000000001</ele><time>2026-04-26T09:38:32.999Z</time></trkpt><trkpt lat="45.608503199730556" lon="10.856796552315242"><ele>115.0</ele><time>2026-04-26T09:38:33.999Z</time></trkpt><trkpt lat="45.608443481775886" lon="10.856755052542246"><ele>113.66666666666667</ele><time>2026-04-26T09:38:34.999Z</time></trkpt><trkpt lat="45.60838388360699" lon="10.856725716748924"><ele>112.33333333333334</ele><time>2026-04-26T09:38:35.999Z</time></trkpt><trkpt lat="45.608306810112175" lon="10.85670080383652"><ele>111.0</ele><time>2026-04-26T09:38:36.999Z</time></trkpt><trkpt lat="45.608213223481414" lon="10.856652556710797"><ele>109.66666666666666</ele><time>2026-04-26T09:38:37.999Z</time></trkpt><trkpt lat="45.608117273002016" lon="10.856580331895506"><ele>108.33333333333333</ele><time>2026-04-26T09:38:38.999Z</time></trkpt><trkpt lat="45.60803353198875" lon="10.85653424534015"><ele>107.0</ele><time>2026-04-26T09:38:39.999Z</time></trkpt><trkpt lat="45.60795833396152" lon="10.85649522884614"><ele>107.0</ele><time>2026-04-26T09:38:40.999Z</time></trkpt><trkpt lat="45.60788323946612" lon="10.856475958299404"><ele>106.99999999999999</ele><time>2026-04-26T09:38:41.999Z</time></trkpt><trkpt lat="45.60782320702629" lon="10.856419485070932"><ele>106.99999999999999</ele><time>2026-04-26T09:38:42.999Z</time></trkpt><trkpt lat="45.60772737748205" lon="10.856333823449885"><ele>107.0</ele><time>2026-04-26T09:38:44.999Z</time></trkpt><trkpt lat="45.60763838025546" lon="10.856314778471965"><ele>107.0</ele><time>2026-04-26T09:38:46.999Z</time></trkpt><trkpt lat="45.60757718596253" lon="10.856434645379041"><ele>107.39999999999999</ele><time>2026-04-26T09:38:48.999Z</time></trkpt><trkpt lat="45.60756178991135" lon="10.856530133427416"><ele>107.79999999999998</ele><time>2026-04-26T09:38:49.999Z</time></trkpt><trkpt lat="45.607507147302975" lon="10.856640216754395"><ele>108.2</ele><time>2026-04-26T09:38:51.999Z</time></trkpt><trkpt lat="45.60747097775091" lon="10.856754069723927"><ele>108.6</ele><time>2026-04-26T09:38:53.999Z</time></trkpt><trkpt lat="45.60732151161121" lon="10.856670900662607"><ele>109.0</ele><time>2026-04-26T09:38:55.999Z</time></trkpt><trkpt lat="45.607228005085815" lon="10.856642280002623"><ele>109.0</ele><time>2026-04-26T09:38:57.999Z</time></trkpt><trkpt lat="45.60715379833375" lon="10.856670597120681"><ele>109.0</ele><time>2026-04-26T09:38:59.999Z</time></trkpt><trkpt lat="45.607081152806465" lon="10.85664613818617"><ele>109.0</ele><time>2026-04-26T09:39:00.999Z</time></trkpt><trkpt lat="45.60699669979688" lon="10.856576563512503"><ele>109.0</ele><time>2026-04-26T09:39:01.999Z</time></trkpt><trkpt lat="45.606896460147354" lon="10.856485018596528"><ele>109.0</ele><time>2026-04-26T09:39:02.999Z</time></trkpt><trkpt lat="45.60679122664265" lon="10.85639277315925"><ele>110.5</ele><time>2026-04-26T09:39:03.999Z</time></trkpt><trkpt lat="45.60667965820183" lon="10.856310683005969"><ele>112.0</ele><time>2026-04-26T09:39:04.999Z</time></trkpt><trkpt lat="45.60655277334528" lon="10.856210964126825"><ele>113.5</ele><time>2026-04-26T09:39:05.999Z</time></trkpt><trkpt lat="45.60643443440317" lon="10.856107138632618"><ele>115.0</ele><time>2026-04-26T09:39:06.999Z</time></trkpt><trkpt lat="45.60631971056585" lon="10.855998570530957"><ele>113.33333333333334</ele><time>2026-04-26T09:39:07.999Z</time></trkpt><trkpt lat="45.60619586061958" lon="10.855868715778696"><ele>111.66666666666666</ele><time>2026-04-26T09:39:08.999Z</time></trkpt><trkpt lat="45.60607978583384" lon="10.855723558115582"><ele>110.0</ele><time>2026-04-26T09:39:09.999Z</time></trkpt><trkpt lat="45.605961790700405" lon="10.855553502332278"><ele>111.0</ele><time>2026-04-26T09:39:10.999Z</time></trkpt><trkpt lat="45.605855849392405" lon="10.85539215112695"><ele>112.0</ele><time>2026-04-26T09:39:11.999Z</time></trkpt><trkpt lat="45.60576034880489" lon="10.855225775337294"><ele>113.0</ele><time>2026-04-26T09:39:12.999Z</time></trkpt><trkpt lat="45.605662877601" lon="10.855052049531134"><ele>113.0</ele><time>2026-04-26T09:39:13.999Z</time></trkpt><trkpt lat="45.60555875943379" lon="10.854875726422335"><ele>113.0</ele><time>2026-04-26T09:39:14.999Z</time></trkpt><trkpt lat="45.605442727046004" lon="10.85470441023329"><ele>113.0</ele><time>2026-04-26T09:39:15.999Z</time></trkpt><trkpt lat="45.6053117426814" lon="10.854535859428672"><ele>113.66666666666666</ele><time>2026-04-26T09:39:16.999Z</time></trkpt><trkpt lat="45.605184572499674" lon="10.854396026786107"><ele>114.33333333333334</ele><time>2026-04-26T09:39:17.999Z</time></trkpt><trkpt lat="45.60505646817997" lon="10.854261789515167"><ele>115.0</ele><time>2026-04-26T09:39:18.999Z</time></trkpt><trkpt lat="45.604922712838906" lon="10.85411014579214"><ele>115.0</ele><time>2026-04-26T09:39:19.999Z</time></trkpt><trkpt lat="45.60479929378302" lon="10.853974926263893"><ele>115.0</ele><time>2026-04-26T09:39:20.999Z</time></trkpt><trkpt lat="45.604662668709906" lon="10.853831293773338"><ele>115.0</ele><time>2026-04-26T09:39:21.999Z</time></trkpt><trkpt lat="45.60454050328464" lon="10.853700059909773"><ele>115.25</ele><time>2026-04-26T09:39:22.999Z</time></trkpt><trkpt lat="45.60442594291237" lon="10.853574454073353"><ele>115.5</ele><time>2026-04-26T09:39:23.999Z</time></trkpt><trkpt lat="45.60431951384275" lon="10.853460550368382"><ele>115.75</ele><time>2026-04-26T09:39:24.999Z</time></trkpt><trkpt lat="45.60421090194573" lon="10.853341643715755"><ele>116.0</ele><time>2026-04-26T09:39:25.999Z</time></trkpt><trkpt lat="45.60408715786774" lon="10.853218680178642"><ele>116.0</ele><time>2026-04-26T09:39:26.999Z</time></trkpt><trkpt lat="45.603948302166266" lon="10.853089631290036"><ele>116.0</ele><time>2026-04-26T09:39:27.999Z</time></trkpt><trkpt lat="45.60379894171266" lon="10.852970062180525"><ele>116.0</ele><time>2026-04-26T09:39:28.999Z</time></trkpt><trkpt lat="45.60363824712877" lon="10.852860336166927"><ele>115.66666666666666</ele><time>2026-04-26T09:39:29.999Z</time></trkpt><trkpt lat="45.603460417025744" lon="10.852754873188593"><ele>115.33333333333334</ele><time>2026-04-26T09:39:30.999Z</time></trkpt><trkpt lat="45.60326665278195" lon="10.852656534784119"><ele>115.0</ele><time>2026-04-26T09:39:31.999Z</time></trkpt><trkpt lat="45.603057788028565" lon="10.852553688096165"><ele>115.0</ele><time>2026-04-26T09:39:32.999Z</time></trkpt><trkpt lat="45.60287067540606" lon="10.852457787512694"><ele>115.0</ele><time>2026-04-26T09:39:33.999Z</time></trkpt><trkpt lat="45.60270400983622" lon="10.852370580812687"><ele>115.0</ele><time>2026-04-26T09:39:34.999Z</time></trkpt><trkpt lat="45.60254116559158" lon="10.852282178223517"><ele>115.0</ele><time>2026-04-26T09:39:35.999Z</time></trkpt><trkpt lat="45.60237796326171" lon="10.852196653667157"><ele>115.0</ele><time>2026-04-26T09:39:36.999Z</time></trkpt><trkpt lat="45.602211132916466" lon="10.85211153731445"><ele>115.0</ele><time>2026-04-26T09:39:37.999Z</time></trkpt><trkpt lat="45.602046293178915" lon="10.852024231468071"><ele>115.33333333333334</ele><time>2026-04-26T09:39:38.999Z</time></trkpt><trkpt lat="45.60188683743036" lon="10.851933044892496"><ele>115.66666666666666</ele><time>2026-04-26T09:39:39.999Z</time></trkpt><trkpt lat="45.60173603683408" lon="10.851837862182263"><ele>116.0</ele><time>2026-04-26T09:39:40.999Z</time></trkpt><trkpt lat="45.60161439605498" lon="10.85174947962995"><ele>115.4</ele><time>2026-04-26T09:39:41.999Z</time></trkpt><trkpt lat="45.601512143146564" lon="10.851668554133282"><ele>114.8</ele><time>2026-04-26T09:39:42.999Z</time></trkpt><trkpt lat="45.60141080736229" lon="10.851591409481648"><ele>114.20000000000002</ele><time>2026-04-26T09:39:43.999Z</time></trkpt><trkpt lat="45.60133069229886" lon="10.851532988082782"><ele>113.60000000000001</ele><time>2026-04-26T09:39:44.999Z</time></trkpt><trkpt lat="45.601271848254896" lon="10.851493229166078"><ele>113.0</ele><time>2026-04-26T09:39:45.999Z</time></trkpt><trkpt lat="45.60120428138286" lon="10.851404896492376"><ele>113.0</ele><time>2026-04-26T09:39:47.999Z</time></trkpt><trkpt lat="45.60127313638506" lon="10.851348550236526"><ele>113.00000000000001</ele><time>2026-04-26T09:39:49.999Z</time></trkpt><trkpt lat="45.60134992182895" lon="10.85127318704355"><ele>113.00000000000001</ele><time>2026-04-26T09:39:51.999Z</time></trkpt><trkpt lat="45.60143668044646" lon="10.851200538976313"><ele>113.0</ele><time>2026-04-26T09:39:53.999Z</time></trkpt><trkpt lat="45.60153765785127" lon="10.85115490503321"><ele>113.0</ele><time>2026-04-26T09:39:55.999Z</time></trkpt><trkpt lat="45.60159716140834" lon="10.851088131233002"><ele>113.0</ele><time>2026-04-26T09:39:56.999Z</time></trkpt><trkpt lat="45.601643228705925" lon="10.85100309160045"><ele>113.00000000000001</ele><time>2026-04-26T09:39:57.999Z</time></trkpt><trkpt lat="45.60171971679092" lon="10.850939777267206"><ele>113.00000000000001</ele><time>2026-04-26T09:39:58.999Z</time></trkpt><trkpt lat="45.601775175432834" lon="10.850866977088607"><ele>113.0</ele><time>2026-04-26T09:39:59.999Z</time></trkpt><trkpt lat="45.60185925114715" lon="10.85074431467741"><ele>113.0</ele><time>2026-04-26T09:40:01.999Z</time></trkpt><trkpt lat="45.60191933249536" lon="10.85064467591113"><ele>112.80000000000001</ele><time>2026-04-26T09:40:03.999Z</time></trkpt><trkpt lat="45.601949773634246" lon="10.850455679169587"><ele>112.60000000000001</ele><time>2026-04-26T09:40:05.999Z</time></trkpt><trkpt lat="45.60189449930425" lon="10.85036245588968"><ele>112.39999999999999</ele><time>2026-04-26T09:40:06.999Z</time></trkpt><trkpt lat="45.60179421058275" lon="10.85032470198274"><ele>112.19999999999999</ele><time>2026-04-26T09:40:07.999Z</time></trkpt><trkpt lat="45.601703233465074" lon="10.85029510855309"><ele>112.0</ele><time>2026-04-26T09:40:08.999Z</time></trkpt><trkpt lat="45.601606134216645" lon="10.850252760137538"><ele>112.0</ele><time>2026-04-26T09:40:09.999Z</time></trkpt><trkpt lat="45.60150292069951" lon="10.8502064825111"><ele>112.0</ele><time>2026-04-26T09:40:10.999Z</time></trkpt><trkpt lat="45.601396251670195" lon="10.85018449265869"><ele>112.0</ele><time>2026-04-26T09:40:11.999Z</time></trkpt><trkpt lat="45.60127792307916" lon="10.850178875504414"><ele>112.0</ele><time>2026-04-26T09:40:12.999Z</time></trkpt><trkpt lat="45.60115296820436" lon="10.850164789001584"><ele>112.0</ele><time>2026-04-26T09:40:13.999Z</time></trkpt><trkpt lat="45.601023511233386" lon="10.850140152803174"><ele>112.0</ele><time>2026-04-26T09:40:14.999Z</time></trkpt><trkpt lat="45.60088588747471" lon="10.85009621188679"><ele>112.0</ele><time>2026-04-26T09:40:15.999Z</time></trkpt><trkpt lat="45.60074967045768" lon="10.850050342251262"><ele>112.0</ele><time>2026-04-26T09:40:16.999Z</time></trkpt><trkpt lat="45.6006222252635" lon="10.850006349727122"><ele>112.0</ele><time>2026-04-26T09:40:17.999Z</time></trkpt><trkpt lat="45.600487142702804" lon="10.849960486618622"><ele>112.0</ele><time>2026-04-26T09:40:18.999Z</time></trkpt><trkpt lat="45.60035801533187" lon="10.849915167747247"><ele>112.0</ele><time>2026-04-26T09:40:19.999Z</time></trkpt><trkpt lat="45.60024687306457" lon="10.849880538431991"><ele>112.0</ele><time>2026-04-26T09:40:20.999Z</time></trkpt><trkpt lat="45.600153542193105" lon="10.84985158312195"><ele>111.50000000000001</ele><time>2026-04-26T09:40:21.999Z</time></trkpt><trkpt lat="45.60007361666605" lon="10.849827593790652"><ele>111.0</ele><time>2026-04-26T09:40:22.999Z</time></trkpt><trkpt lat="45.60000390647778" lon="10.84980461293665"><ele>110.5</ele><time>2026-04-26T09:40:23.999Z</time></trkpt><trkpt lat="45.59991853908848" lon="10.849754627261254"><ele>110.0</ele><time>2026-04-26T09:40:25.999Z</time></trkpt><trkpt lat="45.599855637334905" lon="10.849700411787158"><ele>109.50000000000001</ele><time>2026-04-26T09:40:29.999Z</time></trkpt><trkpt lat="45.599865210090314" lon="10.849542584651815"><ele>109.0</ele><time>2026-04-26T09:40:30.999Z</time></trkpt><trkpt lat="45.599889541321026" lon="10.849442122762312"><ele>109.0</ele><time>2026-04-26T09:40:31.999Z</time></trkpt><trkpt lat="45.599932289242325" lon="10.849324060645866"><ele>109.0</ele><time>2026-04-26T09:40:32.999Z</time></trkpt><trkpt lat="45.5999624398475" lon="10.849212919312482"><ele>109.0</ele><time>2026-04-26T09:40:33.999Z</time></trkpt><trkpt lat="45.59999048236541" lon="10.849086744991329"><ele>109.0</ele><time>2026-04-26T09:40:34.999Z</time></trkpt><trkpt lat="45.60002558452609" lon="10.848947921127158"><ele>109.0</ele><time>2026-04-26T09:40:35.999Z</time></trkpt><trkpt lat="45.600070947506254" lon="10.848790546492278"><ele>108.5</ele><time>2026-04-26T09:40:36.999Z</time></trkpt><trkpt lat="45.60012950748924" lon="10.848599171866093"><ele>108.0</ele><time>2026-04-26T09:40:37.999Z</time></trkpt><trkpt lat="45.600187185413176" lon="10.848430242827696"><ele>107.5</ele><time>2026-04-26T09:40:38.999Z</time></trkpt><trkpt lat="45.6002380269331" lon="10.848293164827782"><ele>107.0</ele><time>2026-04-26T09:40:39.999Z</time></trkpt><trkpt lat="45.60028724880295" lon="10.848172100238573"><ele>106.83333333333333</ele><time>2026-04-26T09:40:40.999Z</time></trkpt><trkpt lat="45.60033363561151" lon="10.848056957721942"><ele>106.66666666666666</ele><time>2026-04-26T09:40:41.999Z</time></trkpt><trkpt lat="45.60037142688443" lon="10.847959976602725"><ele>106.5</ele><time>2026-04-26T09:40:42.999Z</time></trkpt><trkpt lat="45.600406859493376" lon="10.84786228360316"><ele>106.33333333333334</ele><time>2026-04-26T09:40:43.999Z</time></trkpt><trkpt lat="45.6004816630018" lon="10.847748507633758"><ele>106.16666666666667</ele><time>2026-04-26T09:40:45.999Z</time></trkpt><trkpt lat="45.60053473526605" lon="10.847653437781206"><ele>106.0</ele><time>2026-04-26T09:40:48.999Z</time></trkpt><trkpt lat="45.6006081765921" lon="10.847555601075452"><ele>105.8</ele><time>2026-04-26T09:40:50.999Z</time></trkpt><trkpt lat="45.60066892109885" lon="10.847505859336772"><ele>105.6</ele><time>2026-04-26T09:40:51.999Z</time></trkpt><trkpt lat="45.60073453628616" lon="10.847399259830643"><ele>105.4</ele><time>2026-04-26T09:40:53.999Z</time></trkpt><trkpt lat="45.60081937263494" lon="10.847397945238558"><ele>105.2</ele><time>2026-04-26T09:40:54.999Z</time></trkpt><trkpt lat="45.6008807465464" lon="10.847294740934325"><ele>105.0</ele><time>2026-04-26T09:40:56.999Z</time></trkpt><trkpt lat="45.600894220166055" lon="10.847148852422759"><ele>105.0</ele><time>2026-04-26T09:40:58.999Z</time></trkpt><trkpt lat="45.60088499762271" lon="10.847030011074429"><ele>105.0</ele><time>2026-04-26T09:41:00.999Z</time></trkpt><trkpt lat="45.60084500631478" lon="10.846947602705702"><ele>105.0</ele><time>2026-04-26T09:41:05.999Z</time></trkpt><trkpt lat="45.600823126061464" lon="10.847033208176764"><ele>105.0</ele><time>2026-04-26T09:41:18.999Z</time></trkpt><trkpt lat="45.60086333960827" lon="10.8471481177375"><ele>105.0</ele><time>2026-04-26T09:41:20.999Z</time></trkpt><trkpt lat="45.600882195619924" lon="10.847289144330444"><ele>105.0</ele><time>2026-04-26T09:41:22.999Z</time></trkpt><trkpt lat="45.60084097800848" lon="10.847364418305775"><ele>105.0</ele><time>2026-04-26T09:41:24.999Z</time></trkpt><trkpt lat="45.60076554854744" lon="10.84742384726565"><ele>105.0</ele><time>2026-04-26T09:41:27.999Z</time></trkpt><trkpt lat="45.6007083642991" lon="10.847480725412437"><ele>105.0</ele><time>2026-04-26T09:41:29.999Z</time></trkpt><trkpt lat="45.600610480965905" lon="10.84747971809888"><ele>105.0</ele><time>2026-04-26T09:41:31.999Z</time></trkpt><trkpt lat="45.60049788773671" lon="10.847231983373987"><ele>105.0</ele><time>2026-04-26T09:41:37.999Z</time></trkpt><trkpt lat="45.60043847761326" lon="10.847114974754062"><ele>105.0</ele><time>2026-04-26T09:41:38.999Z</time></trkpt><trkpt lat="45.600377022272056" lon="10.847011387685358"><ele>105.0</ele><time>2026-04-26T09:41:39.999Z</time></trkpt><trkpt lat="45.600286765443094" lon="10.846905479819268"><ele>105.0</ele><time>2026-04-26T09:41:40.999Z</time></trkpt><trkpt lat="45.600195686549355" lon="10.846802857719396"><ele>105.0</ele><time>2026-04-26T09:41:41.999Z</time></trkpt><trkpt lat="45.600123882836435" lon="10.846701932212508"><ele>104.2</ele><time>2026-04-26T09:41:42.999Z</time></trkpt><trkpt lat="45.600061972753664" lon="10.846616030222467"><ele>103.4</ele><time>2026-04-26T09:41:43.999Z</time></trkpt><trkpt lat="45.59999958368765" lon="10.846540381955656"><ele>102.6</ele><time>2026-04-26T09:41:44.999Z</time></trkpt><trkpt lat="45.5998948703112" lon="10.846463435702189"><ele>101.8</ele><time>2026-04-26T09:41:45.999Z</time></trkpt><trkpt lat="45.599800987356986" lon="10.846414872775128"><ele>101.0</ele><time>2026-04-26T09:41:46.999Z</time></trkpt><trkpt lat="45.599694840404034" lon="10.846353335473308"><ele>101.0</ele><time>2026-04-26T09:41:47.999Z</time></trkpt><trkpt lat="45.59959874040645" lon="10.84629128234722"><ele>101.0</ele><time>2026-04-26T09:41:48.999Z</time></trkpt><trkpt lat="45.59953700497816" lon="10.846229014305479"><ele>101.0</ele><time>2026-04-26T09:41:49.999Z</time></trkpt><trkpt lat="45.599456018969036" lon="10.846164561618446"><ele>101.0</ele><time>2026-04-26T09:41:50.999Z</time></trkpt><trkpt lat="45.599324029019535" lon="10.84626002149587"><ele>101.0</ele><time>2026-04-26T09:41:51.999Z</time></trkpt><trkpt lat="45.59923091125501" lon="10.846196261995349"><ele>100.75</ele><time>2026-04-26T09:41:52.999Z</time></trkpt><trkpt lat="45.59913548993752" lon="10.846130925006156"><ele>100.5</ele><time>2026-04-26T09:41:53.999Z</time></trkpt><trkpt lat="45.59910062034425" lon="10.845885557659598"><ele>100.25</ele><time>2026-04-26T09:41:54.999Z</time></trkpt><trkpt lat="45.59900930310962" lon="10.845845955875978"><ele>100.0</ele><time>2026-04-26T09:41:55.999Z</time></trkpt><trkpt lat="45.59890065494255" lon="10.845770655926108"><ele>100.0</ele><time>2026-04-26T09:41:56.999Z</time></trkpt><trkpt lat="45.59880843452672" lon="10.845699587532593"><ele>100.0</ele><time>2026-04-26T09:41:57.999Z</time></trkpt><trkpt lat="45.59871998111107" lon="10.845643240550702"><ele>100.0</ele><time>2026-04-26T09:41:58.999Z</time></trkpt><trkpt lat="45.59864097980521" lon="10.84559819437781"><ele>100.0</ele><time>2026-04-26T09:41:59.999Z</time></trkpt><trkpt lat="45.59855435078623" lon="10.845572834093499"><ele>100.0</ele><time>2026-04-26T09:42:00.999Z</time></trkpt><trkpt lat="45.59846026295446" lon="10.845547550305298"><ele>100.0</ele><time>2026-04-26T09:42:01.999Z</time></trkpt><trkpt lat="45.59836348213165" lon="10.845493361825602"><ele>100.0</ele><time>2026-04-26T09:42:02.999Z</time></trkpt><trkpt lat="45.598289342543396" lon="10.845408491985458"><ele>100.0</ele><time>2026-04-26T09:42:03.999Z</time></trkpt><trkpt lat="45.59821801886037" lon="10.845353131349322"><ele>100.0</ele><time>2026-04-26T09:42:04.999Z</time></trkpt><trkpt lat="45.59814969110821" lon="10.845300773846944"><ele>100.0</ele><time>2026-04-26T09:42:05.999Z</time></trkpt><trkpt lat="45.59806552415203" lon="10.84524798847777"><ele>100.00000000000001</ele><time>2026-04-26T09:42:06.999Z</time></trkpt><trkpt lat="45.597974758394905" lon="10.845183979193223"><ele>100.0</ele><time>2026-04-26T09:42:07.999Z</time></trkpt><trkpt lat="45.5979110346126" lon="10.84515020263938"><ele>100.0</ele><time>2026-04-26T09:42:08.999Z</time></trkpt><trkpt lat="45.597851699902684" lon="10.845113427008886"><ele>100.0</ele><time>2026-04-26T09:42:09.999Z</time></trkpt><trkpt lat="45.59778498665095" lon="10.845072883549705"><ele>100.00000000000001</ele><time>2026-04-26T09:42:10.999Z</time></trkpt><trkpt lat="45.597691994929114" lon="10.845023102211357"><ele>100.0</ele><time>2026-04-26T09:42:12.999Z</time></trkpt><trkpt lat="45.597623410575785" lon="10.84500378065297"><ele>100.00000000000001</ele><time>2026-04-26T09:42:14.999Z</time></trkpt><trkpt lat="45.59759588793873" lon="10.845101770229311"><ele>100.0</ele><time>2026-04-26T09:42:16.999Z</time></trkpt><trkpt lat="45.59764552831145" lon="10.845222917860248"><ele>100.0</ele><time>2026-04-26T09:42:18.999Z</time></trkpt><trkpt lat="45.597708864469524" lon="10.845250149856769"><ele>100.0</ele><time>2026-04-26T09:42:19.999Z</time></trkpt><trkpt lat="45.597796728525175" lon="10.84528663882591"><ele>100.00000000000001</ele><time>2026-04-26T09:42:20.999Z</time></trkpt><trkpt lat="45.59790165054077" lon="10.845336936849145"><ele>100.0</ele><time>2026-04-26T09:42:22Z</time></trkpt><trkpt lat="45.597969409914526" lon="10.845376063294244"><ele>100.00000000000001</ele><time>2026-04-26T09:42:23Z</time></trkpt><trkpt lat="45.597988652896056" lon="10.845473580987354"><ele>100.0</ele><time>2026-04-26T09:42:26Z</time></trkpt><trkpt lat="45.598099467796544" lon="10.84556961624684"><ele>100.0</ele><time>2026-04-26T09:42:32Z</time></trkpt><trkpt lat="45.598169045895276" lon="10.845592206035409"><ele>100.0</ele><time>2026-04-26T09:42:33Z</time></trkpt><trkpt lat="45.59825346718739" lon="10.845627025697969"><ele>100.00000000000001</ele><time>2026-04-26T09:42:35Z</time></trkpt><trkpt lat="45.598339042881584" lon="10.845660981631502"><ele>100.0</ele><time>2026-04-26T09:42:37Z</time></trkpt><trkpt lat="45.59827609921708" lon="10.8457098775346"><ele>100.0</ele><time>2026-04-26T09:42:44Z</time></trkpt><trkpt lat="45.59819667873301" lon="10.845634400682291"><ele>100.0</ele><time>2026-04-26T09:42:45Z</time></trkpt><trkpt lat="45.598124247455814" lon="10.84556352119552"><ele>100.0</ele><time>2026-04-26T09:42:46Z</time></trkpt><trkpt lat="45.59801531428532" lon="10.8455012377429"><ele>100.0</ele><time>2026-04-26T09:42:47Z</time></trkpt><trkpt lat="45.597887467482934" lon="10.845435742161406"><ele>100.0</ele><time>2026-04-26T09:42:48Z</time></trkpt><trkpt lat="45.59777315634624" lon="10.845355437877817"><ele>100.33333333333334</ele><time>2026-04-26T09:42:49Z</time></trkpt><trkpt lat="45.59761724448053" lon="10.845273808122608"><ele>100.66666666666666</ele><time>2026-04-26T09:42:50Z</time></trkpt><trkpt lat="45.59745655406022" lon="10.845204765562231"><ele>101.0</ele><time>2026-04-26T09:42:51Z</time></trkpt><trkpt lat="45.59729116326137" lon="10.84513670158608"><ele>101.0</ele><time>2026-04-26T09:42:52Z</time></trkpt><trkpt lat="45.59719327115081" lon="10.845074286562577"><ele>101.0</ele><time>2026-04-26T09:42:54Z</time></trkpt><trkpt lat="45.59706624357215" lon="10.845004857176699"><ele>101.0</ele><time>2026-04-26T09:42:55Z</time></trkpt><trkpt lat="45.596923984709875" lon="10.844921306289207"><ele>101.0</ele><time>2026-04-26T09:42:56Z</time></trkpt><trkpt lat="45.59678036110491" lon="10.844832086021817"><ele>101.0</ele><time>2026-04-26T09:42:57Z</time></trkpt><trkpt lat="45.596656375068406" lon="10.844755703964264"><ele>101.0</ele><time>2026-04-26T09:42:58Z</time></trkpt><trkpt lat="45.596554308627496" lon="10.844693156888026"><ele>101.0</ele><time>2026-04-26T09:42:59Z</time></trkpt><trkpt lat="45.59645372267482" lon="10.8446297831517"><ele>101.0</ele><time>2026-04-26T09:43:00Z</time></trkpt><trkpt lat="45.59633273731795" lon="10.844560031402375"><ele>101.0</ele><time>2026-04-26T09:43:01Z</time></trkpt><trkpt lat="45.596198491596" lon="10.84448661267269"><ele>101.0</ele><time>2026-04-26T09:43:02Z</time></trkpt><trkpt lat="45.59607312490722" lon="10.844420548312074"><ele>101.0</ele><time>2026-04-26T09:43:03Z</time></trkpt><trkpt lat="45.5959552801625" lon="10.844369297500812"><ele>101.0</ele><time>2026-04-26T09:43:04Z</time></trkpt><trkpt lat="45.59584436625176" lon="10.844322335928453"><ele>101.19999999999999</ele><time>2026-04-26T09:43:05Z</time></trkpt><trkpt lat="45.59574931790091" lon="10.844280696541688"><ele>101.39999999999999</ele><time>2026-04-26T09:43:06Z</time></trkpt><trkpt lat="45.59565614800874" lon="10.84424345808942"><ele>101.6</ele><time>2026-04-26T09:43:07Z</time></trkpt><trkpt lat="45.59556070029572" lon="10.844206074011446"><ele>101.8</ele><time>2026-04-26T09:43:08Z</time></trkpt><trkpt lat="45.59547219313714" lon="10.844170347275458"><ele>102.0</ele><time>2026-04-26T09:43:09Z</time></trkpt><trkpt lat="45.59538966594668" lon="10.844137445931642"><ele>101.6</ele><time>2026-04-26T09:43:10Z</time></trkpt><trkpt lat="45.59530647922572" lon="10.844112708248332"><ele>101.19999999999999</ele><time>2026-04-26T09:43:11Z</time></trkpt><trkpt lat="45.59521973105038" lon="10.844117468233868"><ele>100.8</ele><time>2026-04-26T09:43:12Z</time></trkpt><trkpt lat="45.59511927980772" lon="10.844120623448912"><ele>100.4</ele><time>2026-04-26T09:43:13Z</time></trkpt><trkpt lat="45.59499617834233" lon="10.844088168973657"><ele>100.0</ele><time>2026-04-26T09:43:14Z</time></trkpt><trkpt lat="45.59485459745565" lon="10.844038728907018"><ele>100.0</ele><time>2026-04-26T09:43:15Z</time></trkpt><trkpt lat="45.594712399312385" lon="10.84400474499861"><ele>100.0</ele><time>2026-04-26T09:43:16Z</time></trkpt><trkpt lat="45.59460657804615" lon="10.843980492742496"><ele>100.0</ele><time>2026-04-26T09:43:17Z</time></trkpt><trkpt lat="45.59453141504601" lon="10.843963163539819"><ele>100.0</ele><time>2026-04-26T09:43:18Z</time></trkpt><trkpt lat="45.59442507553871" lon="10.843974398316977"><ele>100.0</ele><time>2026-04-26T09:43:20Z</time></trkpt><trkpt lat="45.59437640872397" lon="10.844110852063727"><ele>100.25</ele><time>2026-04-26T09:43:22Z</time></trkpt><trkpt lat="45.59436366299936" lon="10.844292951136856"><ele>100.5</ele><time>2026-04-26T09:43:23Z</time></trkpt><trkpt lat="45.5943387033004" lon="10.84448823652733"><ele>100.75</ele><time>2026-04-26T09:43:24Z</time></trkpt><trkpt lat="45.59429749581737" lon="10.844719212472027"><ele>101.0</ele><time>2026-04-26T09:43:25Z</time></trkpt><trkpt lat="45.59425440761299" lon="10.844955207734813"><ele>100.8</ele><time>2026-04-26T09:43:26Z</time></trkpt><trkpt lat="45.59421395561724" lon="10.845134356915244"><ele>100.6</ele><time>2026-04-26T09:43:27Z</time></trkpt><trkpt lat="45.59419306025283" lon="10.845257040887171"><ele>100.4</ele><time>2026-04-26T09:43:28Z</time></trkpt><trkpt lat="45.59415853442482" lon="10.84536601291265"><ele>100.2</ele><time>2026-04-26T09:43:30Z</time></trkpt><trkpt lat="45.594057443691185" lon="10.845352275280124"><ele>100.0</ele><time>2026-04-26T09:43:32Z</time></trkpt><trkpt lat="45.59397101998258" lon="10.845315782612364"><ele>100.0</ele><time>2026-04-26T09:43:33Z</time></trkpt><trkpt lat="45.59386751891166" lon="10.845251418896888"><ele>100.0</ele><time>2026-04-26T09:43:34Z</time></trkpt><trkpt lat="45.59374018113991" lon="10.845169589361896"><ele>100.0</ele><time>2026-04-26T09:43:35Z</time></trkpt><trkpt lat="45.59363226467146" lon="10.845121709425083"><ele>100.0</ele><time>2026-04-26T09:43:36Z</time></trkpt><trkpt lat="45.593556911379935" lon="10.845078847746004"><ele>100.0</ele><time>2026-04-26T09:43:37Z</time></trkpt><trkpt lat="45.59349247820419" lon="10.844990510666634"><ele>100.5</ele><time>2026-04-26T09:43:39Z</time></trkpt><trkpt lat="45.593486186397236" lon="10.844882041127205"><ele>101.0</ele><time>2026-04-26T09:43:40Z</time></trkpt><trkpt lat="45.593506442573684" lon="10.844723830051853"><ele>101.5</ele><time>2026-04-26T09:43:41Z</time></trkpt><trkpt lat="45.59354621827662" lon="10.844515885228937"><ele>102.0</ele><time>2026-04-26T09:43:42Z</time></trkpt><trkpt lat="45.59357287579101" lon="10.844337757946438"><ele>102.0</ele><time>2026-04-26T09:43:43Z</time></trkpt><trkpt lat="45.59352122917435" lon="10.844280851158208"><ele>102.0</ele><time>2026-04-26T09:43:46Z</time></trkpt><trkpt lat="45.59344557771769" lon="10.844278640394533"><ele>102.0</ele><time>2026-04-26T09:43:47Z</time></trkpt><trkpt lat="45.59334136225859" lon="10.844281132070934"><ele>102.0</ele><time>2026-04-26T09:43:48Z</time></trkpt><trkpt lat="45.59320989542657" lon="10.844265786554363"><ele>102.0</ele><time>2026-04-26T09:43:49Z</time></trkpt><trkpt lat="45.593052125352855" lon="10.84425612984301"><ele>102.0</ele><time>2026-04-26T09:43:50Z</time></trkpt><trkpt lat="45.5929404574555" lon="10.844244562638284"><ele>102.0</ele><time>2026-04-26T09:43:51Z</time></trkpt><trkpt lat="45.5928356653815" lon="10.844236198300184"><ele>102.0</ele><time>2026-04-26T09:43:53Z</time></trkpt><trkpt lat="45.592862319141375" lon="10.844079525281222"><ele>102.0</ele><time>2026-04-26T09:43:55Z</time></trkpt><trkpt lat="45.592879166729496" lon="10.843926088740874"><ele>102.0</ele><time>2026-04-26T09:43:56Z</time></trkpt><trkpt lat="45.59287028047205" lon="10.843825900405193"><ele>101.25</ele><time>2026-04-26T09:43:57Z</time></trkpt><trkpt lat="45.592788470881004" lon="10.843760588304153"><ele>100.5</ele><time>2026-04-26T09:43:59Z</time></trkpt><trkpt lat="45.592693794184555" lon="10.843762352009485"><ele>99.75</ele><time>2026-04-26T09:44:00Z</time></trkpt><trkpt lat="45.5925709532" lon="10.84378921634497"><ele>99.0</ele><time>2026-04-26T09:44:01Z</time></trkpt><trkpt lat="45.592402565109026" lon="10.84382731156708"><ele>99.0</ele><time>2026-04-26T09:44:02Z</time></trkpt><trkpt lat="45.59219473278017" lon="10.84386540820691"><ele>99.0</ele><time>2026-04-26T09:44:03Z</time></trkpt><trkpt lat="45.59200411422665" lon="10.843894602219393"><ele>99.0</ele><time>2026-04-26T09:44:04Z</time></trkpt><trkpt lat="45.59178923417075" lon="10.843904507889304"><ele>99.75</ele><time>2026-04-26T09:44:05Z</time></trkpt><trkpt lat="45.5916325928123" lon="10.843926271798534"><ele>100.5</ele><time>2026-04-26T09:44:06Z</time></trkpt><trkpt lat="45.59149428396101" lon="10.843948498986888"><ele>101.25</ele><time>2026-04-26T09:44:07Z</time></trkpt><trkpt lat="45.59136884734005" lon="10.843961369307207"><ele>102.0</ele><time>2026-04-26T09:44:08Z</time></trkpt><trkpt lat="45.59125713302025" lon="10.843962711677888"><ele>101.75</ele><time>2026-04-26T09:44:09Z</time></trkpt><trkpt lat="45.591145002292535" lon="10.843937769141728"><ele>101.5</ele><time>2026-04-26T09:44:10Z</time></trkpt><trkpt lat="45.590993709025405" lon="10.843941015996414"><ele>101.25</ele><time>2026-04-26T09:44:11Z</time></trkpt><trkpt lat="45.590852322878" lon="10.843984309689203"><ele>101.0</ele><time>2026-04-26T09:44:12Z</time></trkpt><trkpt lat="45.59069214723977" lon="10.844041938580661"><ele>101.0</ele><time>2026-04-26T09:44:13Z</time></trkpt><trkpt lat="45.5905039325966" lon="10.844089179685502"><ele>101.0</ele><time>2026-04-26T09:44:14Z</time></trkpt><trkpt lat="45.590291445173726" lon="10.844139629670606"><ele>101.0</ele><time>2026-04-26T09:44:15Z</time></trkpt><trkpt lat="45.590106365905875" lon="10.844195346544884"><ele>101.0</ele><time>2026-04-26T09:44:16Z</time></trkpt><trkpt lat="45.589934064514054" lon="10.844235121187516"><ele>101.0</ele><time>2026-04-26T09:44:17Z</time></trkpt><trkpt lat="45.58975344010466" lon="10.844266739505883"><ele>101.0</ele><time>2026-04-26T09:44:17.999Z</time></trkpt><trkpt lat="45.58955018975748" lon="10.84427783677808"><ele>101.0</ele><time>2026-04-26T09:44:18.999Z</time></trkpt><trkpt lat="45.58936513334649" lon="10.844321574120475"><ele>101.0</ele><time>2026-04-26T09:44:19.999Z</time></trkpt><trkpt lat="45.58920843658902" lon="10.844347394820735"><ele>101.0</ele><time>2026-04-26T09:44:20.999Z</time></trkpt><trkpt lat="45.58905780745131" lon="10.844373219094479"><ele>101.0</ele><time>2026-04-26T09:44:21.999Z</time></trkpt><trkpt lat="45.58890176503691" lon="10.844424840503304"><ele>101.0</ele><time>2026-04-26T09:44:22.999Z</time></trkpt><trkpt lat="45.58871629656061" lon="10.844490805316296"><ele>101.0</ele><time>2026-04-26T09:44:23.999Z</time></trkpt><trkpt lat="45.588509143861735" lon="10.84457392195628"><ele>100.66666666666666</ele><time>2026-04-26T09:44:24.999Z</time></trkpt><trkpt lat="45.5883127484957" lon="10.844648774816397"><ele>100.33333333333334</ele><time>2026-04-26T09:44:25.999Z</time></trkpt><trkpt lat="45.5881435144498" lon="10.844705899238393"><ele>100.0</ele><time>2026-04-26T09:44:26.999Z</time></trkpt><trkpt lat="45.58800523076042" lon="10.844748259854207"><ele>100.00000000000001</ele><time>2026-04-26T09:44:27.999Z</time></trkpt><trkpt lat="45.587900072681244" lon="10.844781484341748"><ele>100.0</ele><time>2026-04-26T09:44:28.999Z</time></trkpt><trkpt lat="45.58780628929482" lon="10.844819788683964"><ele>100.0</ele><time>2026-04-26T09:44:29.999Z</time></trkpt><trkpt lat="45.58773091298699" lon="10.844862052361151"><ele>100.0</ele><time>2026-04-26T09:44:30.999Z</time></trkpt><trkpt lat="45.58767453172326" lon="10.844927542281127"><ele>100.00000000000001</ele><time>2026-04-26T09:44:31.999Z</time></trkpt><trkpt lat="45.58763127929823" lon="10.84500239176715"><ele>100.0</ele><time>2026-04-26T09:44:32.999Z</time></trkpt><trkpt lat="45.58759859256935" lon="10.845114501240685"><ele>100.66666666666667</ele><time>2026-04-26T09:44:33.999Z</time></trkpt><trkpt lat="45.58757523000105" lon="10.845249052013402"><ele>101.33333333333334</ele><time>2026-04-26T09:44:34.999Z</time></trkpt><trkpt lat="45.58755677914726" lon="10.845374247966172"><ele>102.0</ele><time>2026-04-26T09:44:35.999Z</time></trkpt><trkpt lat="45.587554587592294" lon="10.84549248961054"><ele>102.66666666666666</ele><time>2026-04-26T09:44:37.999Z</time></trkpt><trkpt lat="45.58745717071378" lon="10.845490382764499"><ele>103.33333333333333</ele><time>2026-04-26T09:44:45.999Z</time></trkpt><trkpt lat="45.58739340301305" lon="10.845472868387436"><ele>104.0</ele><time>2026-04-26T09:44:46.999Z</time></trkpt><trkpt lat="45.58730510623306" lon="10.845466728999329"><ele>104.0</ele><time>2026-04-26T09:44:47.999Z</time></trkpt><trkpt lat="45.58723466964668" lon="10.845450118977014"><ele>104.0</ele><time>2026-04-26T09:44:48.999Z</time></trkpt><trkpt lat="45.587305201860836" lon="10.84542709767204"><ele>104.0</ele><time>2026-04-26T09:45:20.999Z</time></trkpt><trkpt lat="45.58737287729128" lon="10.84545691995078"><ele>104.0</ele><time>2026-04-26T09:45:21.999Z</time></trkpt><trkpt lat="45.587457506421785" lon="10.845489374151123"><ele>104.0</ele><time>2026-04-26T09:45:22.999Z</time></trkpt><trkpt lat="45.58761228706018" lon="10.845542880911403"><ele>104.0</ele><time>2026-04-26T09:45:23.999Z</time></trkpt><trkpt lat="45.587780753513094" lon="10.845589135772936"><ele>104.0</ele><time>2026-04-26T09:45:24.999Z</time></trkpt><trkpt lat="45.5878838879452" lon="10.845639016714093"><ele>104.0</ele><time>2026-04-26T09:45:25.999Z</time></trkpt><trkpt lat="45.5879944645697" lon="10.845671693232472"><ele>104.0</ele><time>2026-04-26T09:45:26.999Z</time></trkpt><trkpt lat="45.588093812193144" lon="10.845692231384424"><ele>103.5</ele><time>2026-04-26T09:45:27.999Z</time></trkpt><trkpt lat="45.588206737912884" lon="10.845737165805062"><ele>103.0</ele><time>2026-04-26T09:45:28.999Z</time></trkpt><trkpt lat="45.588332684034604" lon="10.845787924727508"><ele>102.5</ele><time>2026-04-26T09:45:29.999Z</time></trkpt><trkpt lat="45.58849350128882" lon="10.845846903344063"><ele>102.0</ele><time>2026-04-26T09:45:30.999Z</time></trkpt><trkpt lat="45.588665396376015" lon="10.84590879416124"><ele>102.66666666666666</ele><time>2026-04-26T09:45:31.999Z</time></trkpt><trkpt lat="45.58884716437145" lon="10.845979011712233"><ele>103.33333333333333</ele><time>2026-04-26T09:45:32.999Z</time></trkpt><trkpt lat="45.58903517254462" lon="10.8460482228893"><ele>104.0</ele><time>2026-04-26T09:45:33.999Z</time></trkpt><trkpt lat="45.58924640188601" lon="10.846119220301112"><ele>104.0</ele><time>2026-04-26T09:45:34.999Z</time></trkpt><trkpt lat="45.58945882053677" lon="10.846190050622406"><ele>104.0</ele><time>2026-04-26T09:45:35.999Z</time></trkpt><trkpt lat="45.58965167872862" lon="10.84625171755161"><ele>104.0</ele><time>2026-04-26T09:45:36.999Z</time></trkpt><trkpt lat="45.58982065431227" lon="10.84631854162269"><ele>103.75</ele><time>2026-04-26T09:45:37.999Z</time></trkpt><trkpt lat="45.58998357172373" lon="10.846379062112408"><ele>103.5</ele><time>2026-04-26T09:45:38.999Z</time></trkpt><trkpt lat="45.590120937514136" lon="10.846429974352576"><ele>103.25</ele><time>2026-04-26T09:45:39.999Z</time></trkpt><trkpt lat="45.59023915863387" lon="10.846471941313421"><ele>103.0</ele><time>2026-04-26T09:45:40.999Z</time></trkpt><trkpt lat="45.59034698233692" lon="10.846506959303573"><ele>103.00000000000001</ele><time>2026-04-26T09:45:41.999Z</time></trkpt><trkpt lat="45.59044414170674" lon="10.84653769525697"><ele>103.0</ele><time>2026-04-26T09:45:42.999Z</time></trkpt><trkpt lat="45.590534387372855" lon="10.846563336005367"><ele>103.0</ele><time>2026-04-26T09:45:43.999Z</time></trkpt><trkpt lat="45.59059710082159" lon="10.846584635384406"><ele>103.0</ele><time>2026-04-26T09:45:44.999Z</time></trkpt><trkpt lat="45.59063431420578" lon="10.846668471408341"><ele>103.00000000000001</ele><time>2026-04-26T09:45:46.999Z</time></trkpt><trkpt lat="45.590629432715964" lon="10.84676308121842"><ele>103.0</ele><time>2026-04-26T09:45:47.999Z</time></trkpt><trkpt lat="45.590593986184274" lon="10.846850202770419"><ele>103.0</ele><time>2026-04-26T09:45:48.999Z</time></trkpt><trkpt lat="45.59055087674673" lon="10.846974290579247"><ele>103.0</ele><time>2026-04-26T09:45:49.999Z</time></trkpt><trkpt lat="45.590526673569705" lon="10.847127935497719"><ele>103.0</ele><time>2026-04-26T09:45:50.999Z</time></trkpt><trkpt lat="45.59049443796791" lon="10.84725285887844"><ele>103.0</ele><time>2026-04-26T09:45:51.999Z</time></trkpt><trkpt lat="45.59046327133478" lon="10.847370638161546"><ele>103.0</ele><time>2026-04-26T09:45:52.999Z</time></trkpt><trkpt lat="45.5904347165364" lon="10.847461436316525"><ele>103.0</ele><time>2026-04-26T09:45:53.999Z</time></trkpt><trkpt lat="45.590381260000804" lon="10.84760117089222"><ele>103.0</ele><time>2026-04-26T09:45:56Z</time></trkpt><trkpt lat="45.59033960522108" lon="10.847722704908897"><ele>103.0</ele><time>2026-04-26T09:45:58Z</time></trkpt><trkpt lat="45.59029571621839" lon="10.847861223095592"><ele>103.0</ele><time>2026-04-26T09:46:00Z</time></trkpt><trkpt lat="45.59022955851949" lon="10.847934156121221"><ele>103.0</ele><time>2026-04-26T09:46:02Z</time></trkpt><trkpt lat="45.5901284407826" lon="10.847891660923091"><ele>103.0</ele><time>2026-04-26T09:46:04Z</time></trkpt><trkpt lat="45.590050053211726" lon="10.847834294416346"><ele>103.0</ele><time>2026-04-26T09:46:05Z</time></trkpt><trkpt lat="45.58995806527603" lon="10.847770514731595"><ele>103.0</ele><time>2026-04-26T09:46:06Z</time></trkpt><trkpt lat="45.58985910136147" lon="10.847696339905706"><ele>103.0</ele><time>2026-04-26T09:46:07Z</time></trkpt><trkpt lat="45.589753402834006" lon="10.847626486398887"><ele>103.0</ele><time>2026-04-26T09:46:08Z</time></trkpt><trkpt lat="45.589657342625294" lon="10.847570293648337"><ele>103.0</ele><time>2026-04-26T09:46:09Z</time></trkpt><trkpt lat="45.589552367983785" lon="10.84751106478205"><ele>103.0</ele><time>2026-04-26T09:46:10Z</time></trkpt><trkpt lat="45.58942607856447" lon="10.847459018242928"><ele>103.0</ele><time>2026-04-26T09:46:11Z</time></trkpt><trkpt lat="45.58930972510719" lon="10.847394809721681"><ele>103.0</ele><time>2026-04-26T09:46:12Z</time></trkpt><trkpt lat="45.58919397277735" lon="10.847349189689286"><ele>104.4</ele><time>2026-04-26T09:46:13Z</time></trkpt><trkpt lat="45.58906525626176" lon="10.847278911732001"><ele>105.80000000000001</ele><time>2026-04-26T09:46:14Z</time></trkpt><trkpt lat="45.58897158231443" lon="10.847225264724566"><ele>107.2</ele><time>2026-04-26T09:46:15Z</time></trkpt><trkpt lat="45.58887742593973" lon="10.847163158604886"><ele>108.6</ele><time>2026-04-26T09:46:16Z</time></trkpt><trkpt lat="45.58879249896668" lon="10.847116109479815"><ele>110.0</ele><time>2026-04-26T09:46:17Z</time></trkpt><trkpt lat="45.588707394166185" lon="10.847086118209836"><ele>111.33333333333333</ele><time>2026-04-26T09:46:18Z</time></trkpt><trkpt lat="45.58863495090102" lon="10.847061846395302"><ele>112.66666666666666</ele><time>2026-04-26T09:46:19Z</time></trkpt><trkpt lat="45.58855634467362" lon="10.847040410223386"><ele>114.0</ele><time>2026-04-26T09:46:20Z</time></trkpt><trkpt lat="45.588479485442605" lon="10.847008036350475"><ele>115.33333333333334</ele><time>2026-04-26T09:46:22Z</time></trkpt><trkpt lat="45.58835479528021" lon="10.846983352446225"><ele>116.66666666666667</ele><time>2026-04-26T09:46:24Z</time></trkpt><trkpt lat="45.588389832668085" lon="10.847061513413111"><ele>118.0</ele><time>2026-04-26T09:46:27Z</time></trkpt><trkpt lat="45.588469691830376" lon="10.84711569745905"><ele>118.0</ele><time>2026-04-26T09:46:29Z</time></trkpt><trkpt lat="45.58855363177902" lon="10.847188077411172"><ele>118.00000000000001</ele><time>2026-04-26T09:46:31Z</time></trkpt><trkpt lat="45.588630281244384" lon="10.847237027056774"><ele>118.00000000000001</ele><time>2026-04-26T09:46:33Z</time></trkpt><trkpt lat="45.58871789687997" lon="10.847317219053425"><ele>118.0</ele><time>2026-04-26T09:46:35Z</time></trkpt><trkpt lat="45.58870229122517" lon="10.847408122170505"><ele>118.0</ele><time>2026-04-26T09:46:37Z</time></trkpt><trkpt lat="45.588581006616" lon="10.847407736274569"><ele>118.0</ele><time>2026-04-26T09:46:40Z</time></trkpt><trkpt lat="45.5884800915157" lon="10.84735691538954"><ele>118.0</ele><time>2026-04-26T09:46:41Z</time></trkpt><trkpt lat="45.58836108485633" lon="10.847280620624984"><ele>118.0</ele><time>2026-04-26T09:46:42Z</time></trkpt><trkpt lat="45.58823678591796" lon="10.847195636877135"><ele>118.0</ele><time>2026-04-26T09:46:43Z</time></trkpt><trkpt lat="45.58809010152065" lon="10.847095907871685"><ele>118.0</ele><time>2026-04-26T09:46:44Z</time></trkpt><trkpt lat="45.58792667617396" lon="10.84696932112939"><ele>118.0</ele><time>2026-04-26T09:46:45Z</time></trkpt><trkpt lat="45.587730273428114" lon="10.846808237219138"><ele>118.0</ele><time>2026-04-26T09:46:46Z</time></trkpt><trkpt lat="45.58756299711514" lon="10.84667882521438"><ele>116.33333333333334</ele><time>2026-04-26T09:46:47Z</time></trkpt><trkpt lat="45.58737511905422" lon="10.846538114873733"><ele>114.66666666666666</ele><time>2026-04-26T09:46:48Z</time></trkpt><trkpt lat="45.58718486863272" lon="10.846390250547094"><ele>113.0</ele><time>2026-04-26T09:46:49Z</time></trkpt><trkpt lat="45.58698818243785" lon="10.8462220363074"><ele>111.5</ele><time>2026-04-26T09:46:50Z</time></trkpt><trkpt lat="45.586773664044074" lon="10.846027795377175"><ele>110.0</ele><time>2026-04-26T09:46:51Z</time></trkpt><trkpt lat="45.58656426037722" lon="10.84583241843223"><ele>110.0</ele><time>2026-04-26T09:46:52Z</time></trkpt><trkpt lat="45.58635794901909" lon="10.845636245655726"><ele>110.0</ele><time>2026-04-26T09:46:53Z</time></trkpt><trkpt lat="45.586138310451034" lon="10.84543118732516"><ele>110.5</ele><time>2026-04-26T09:46:54Z</time></trkpt><trkpt lat="45.585929949583495" lon="10.845236504122006"><ele>111.0</ele><time>2026-04-26T09:46:55Z</time></trkpt><trkpt lat="45.58574025068326" lon="10.845053929949653"><ele>111.0</ele><time>2026-04-26T09:46:56Z</time></trkpt><trkpt lat="45.585554632398136" lon="10.844872913459678"><ele>111.0</ele><time>2026-04-26T09:46:57Z</time></trkpt><trkpt lat="45.58535476456098" lon="10.844674063167632"><ele>111.5</ele><time>2026-04-26T09:46:58Z</time></trkpt><trkpt lat="45.58515665763013" lon="10.844465620355985"><ele>112.0</ele><time>2026-04-26T09:46:59Z</time></trkpt><trkpt lat="45.58495409935305" lon="10.844253697459699"><ele>112.0</ele><time>2026-04-26T09:47:00Z</time></trkpt><trkpt lat="45.584771572827535" lon="10.844058640768317"><ele>112.0</ele><time>2026-04-26T09:47:01Z</time></trkpt><trkpt lat="45.58459550977565" lon="10.843871074485286"><ele>112.0</ele><time>2026-04-26T09:47:02Z</time></trkpt><trkpt lat="45.5844159208978" lon="10.843664262160594"><ele>116.0</ele><time>2026-04-26T09:47:03Z</time></trkpt><trkpt lat="45.5842422507306" lon="10.843428189434698"><ele>120.0</ele><time>2026-04-26T09:47:04Z</time></trkpt><trkpt lat="45.584073868074746" lon="10.843161718852636"><ele>120.0</ele><time>2026-04-26T09:47:05Z</time></trkpt><trkpt lat="45.583909376235134" lon="10.84287764618958"><ele>120.0</ele><time>2026-04-26T09:47:06Z</time></trkpt><trkpt lat="45.583740111676256" lon="10.842589140022596"><ele>124.5</ele><time>2026-04-26T09:47:07Z</time></trkpt><trkpt lat="45.58355894678707" lon="10.842288529993885"><ele>129.0</ele><time>2026-04-26T09:47:08Z</time></trkpt><trkpt lat="45.58337568766578" lon="10.841987959661173"><ele>119.5</ele><time>2026-04-26T09:47:09Z</time></trkpt><trkpt lat="45.58321717919961" lon="10.841711357656347"><ele>110.0</ele><time>2026-04-26T09:47:10Z</time></trkpt><trkpt lat="45.58307537571397" lon="10.84144350735799"><ele>110.0</ele><time>2026-04-26T09:47:11Z</time></trkpt><trkpt lat="45.58293322480704" lon="10.841159454659472"><ele>110.0</ele><time>2026-04-26T09:47:12Z</time></trkpt><trkpt lat="45.58279304954033" lon="10.840872847990768"><ele>110.66666666666666</ele><time>2026-04-26T09:47:13Z</time></trkpt><trkpt lat="45.58266687583563" lon="10.840603208691325"><ele>111.33333333333334</ele><time>2026-04-26T09:47:14Z</time></trkpt><trkpt lat="45.58255525195254" lon="10.840348230970061"><ele>112.0</ele><time>2026-04-26T09:47:15Z</time></trkpt><trkpt lat="45.582456330918745" lon="10.840097132238478"><ele>112.0</ele><time>2026-04-26T09:47:16Z</time></trkpt><trkpt lat="45.582365341475494" lon="10.839832133244341"><ele>112.0</ele><time>2026-04-26T09:47:17Z</time></trkpt><trkpt lat="45.58227899979101" lon="10.839550285016319"><ele>112.0</ele><time>2026-04-26T09:47:18Z</time></trkpt><trkpt lat="45.58218710967607" lon="10.8392595279843"><ele>109.0</ele><time>2026-04-26T09:47:19Z</time></trkpt><trkpt lat="45.58209158900434" lon="10.83896701774037"><ele>106.0</ele><time>2026-04-26T09:47:20Z</time></trkpt><trkpt lat="45.58199359020768" lon="10.83866929013047"><ele>109.66666666666667</ele><time>2026-04-26T09:47:21Z</time></trkpt><trkpt lat="45.58190124532239" lon="10.838385636315785"><ele>113.33333333333334</ele><time>2026-04-26T09:47:22Z</time></trkpt><trkpt lat="45.58181494088501" lon="10.838127567091332"><ele>117.0</ele><time>2026-04-26T09:47:23Z</time></trkpt><trkpt lat="45.58173189076729" lon="10.837872558728952"><ele>117.0</ele><time>2026-04-26T09:47:24Z</time></trkpt><trkpt lat="45.58165757446952" lon="10.837640518073865"><ele>117.0</ele><time>2026-04-26T09:47:25Z</time></trkpt><trkpt lat="45.58157970694422" lon="10.837396594053546"><ele>117.0</ele><time>2026-04-26T09:47:26Z</time></trkpt><trkpt lat="45.58149840915317" lon="10.837151467846397"><ele>113.66666666666666</ele><time>2026-04-26T09:47:27Z</time></trkpt><trkpt lat="45.581409404544836" lon="10.836876566759452"><ele>110.33333333333333</ele><time>2026-04-26T09:47:28Z</time></trkpt><trkpt lat="45.581327138539656" lon="10.836618256741296"><ele>107.0</ele><time>2026-04-26T09:47:29Z</time></trkpt><trkpt lat="45.58125175955466" lon="10.83639636335076"><ele>106.39999999999999</ele><time>2026-04-26T09:47:30Z</time></trkpt><trkpt lat="45.58118921668891" lon="10.836218898415906"><ele>105.79999999999998</ele><time>2026-04-26T09:47:31Z</time></trkpt><trkpt lat="45.581140149471544" lon="10.83607889514801"><ele>105.2</ele><time>2026-04-26T09:47:32Z</time></trkpt><trkpt lat="45.58109591943993" lon="10.835948809300355"><ele>104.6</ele><time>2026-04-26T09:47:33Z</time></trkpt><trkpt lat="45.581054945587645" lon="10.835827411529644"><ele>104.0</ele><time>2026-04-26T09:47:34Z</time></trkpt><trkpt lat="45.58101795242785" lon="10.835723564611618"><ele>103.99999999999999</ele><time>2026-04-26T09:47:35Z</time></trkpt><trkpt lat="45.58099203440391" lon="10.83563795535634"><ele>104.0</ele><time>2026-04-26T09:47:36Z</time></trkpt><trkpt lat="45.581030950056125" lon="10.83553935833982"><ele>104.0</ele><time>2026-04-26T09:47:38Z</time></trkpt><trkpt lat="45.58111674172884" lon="10.835555154655507"><ele>104.0</ele><time>2026-04-26T09:47:41Z</time></trkpt><trkpt lat="45.58118208472483" lon="10.835496317342084"><ele>103.99999999999999</ele><time>2026-04-26T09:47:44Z</time></trkpt><trkpt lat="45.58123456879158" lon="10.835406696319614"><ele>104.0</ele><time>2026-04-26T09:47:47Z</time></trkpt><trkpt lat="45.58118747878921" lon="10.835233262132393"><ele>103.75</ele><time>2026-04-26T09:47:49Z</time></trkpt><trkpt lat="45.58114830778914" lon="10.835102230611747"><ele>103.5</ele><time>2026-04-26T09:47:50Z</time></trkpt><trkpt lat="45.5811158632678" lon="10.83494066869379"><ele>103.25</ele><time>2026-04-26T09:47:51Z</time></trkpt><trkpt lat="45.58109164114675" lon="10.834759924006637"><ele>103.0</ele><time>2026-04-26T09:47:52Z</time></trkpt><trkpt lat="45.5810748775273" lon="10.83457250538639"><ele>103.0</ele><time>2026-04-26T09:47:53Z</time></trkpt><trkpt lat="45.581061526540516" lon="10.83436954847681"><ele>103.0</ele><time>2026-04-26T09:47:54Z</time></trkpt><trkpt lat="45.58105069842153" lon="10.834146860270327"><ele>103.0</ele><time>2026-04-26T09:47:55Z</time></trkpt><trkpt lat="45.58103371450517" lon="10.833903952439025"><ele>102.75</ele><time>2026-04-26T09:47:56Z</time></trkpt><trkpt lat="45.58102343910168" lon="10.833690125150474"><ele>102.5</ele><time>2026-04-26T09:47:57Z</time></trkpt><trkpt lat="45.581016754021675" lon="10.83349432220404"><ele>102.25</ele><time>2026-04-26T09:47:58Z</time></trkpt><trkpt lat="45.58100997563427" lon="10.833321352343889"><ele>102.0</ele><time>2026-04-26T09:47:59Z</time></trkpt><trkpt lat="45.581001002773974" lon="10.833136995445848"><ele>101.25</ele><time>2026-04-26T09:48:00Z</time></trkpt><trkpt lat="45.58098879048895" lon="10.832946698895295"><ele>100.5</ele><time>2026-04-26T09:48:01Z</time></trkpt><trkpt lat="45.58097822389452" lon="10.832765940103315"><ele>99.75</ele><time>2026-04-26T09:48:02.001Z</time></trkpt><trkpt lat="45.5809683182178" lon="10.83259450165044"><ele>99.0</ele><time>2026-04-26T09:48:03.001Z</time></trkpt><trkpt lat="45.580962174601" lon="10.832429989060508"><ele>98.75</ele><time>2026-04-26T09:48:04.001Z</time></trkpt><trkpt lat="45.580966336184424" lon="10.832267559673133"><ele>98.5</ele><time>2026-04-26T09:48:05.001Z</time></trkpt><trkpt lat="45.580977138731235" lon="10.83210219859718"><ele>98.25</ele><time>2026-04-26T09:48:06.001Z</time></trkpt><trkpt lat="45.58098731422844" lon="10.831931671688002"><ele>98.0</ele><time>2026-04-26T09:48:07.001Z</time></trkpt><trkpt lat="45.58099722554389" lon="10.831747574683488"><ele>98.0</ele><time>2026-04-26T09:48:08.001Z</time></trkpt><trkpt lat="45.5810149634756" lon="10.83152911147633"><ele>98.0</ele><time>2026-04-26T09:48:09.001Z</time></trkpt><trkpt lat="45.58103532263812" lon="10.831300807441231"><ele>98.0</ele><time>2026-04-26T09:48:10.001Z</time></trkpt><trkpt lat="45.58105359085911" lon="10.831067431072759"><ele>98.0</ele><time>2026-04-26T09:48:11.001Z</time></trkpt><trkpt lat="45.581068456641894" lon="10.830865953913731"><ele>98.0</ele><time>2026-04-26T09:48:12.001Z</time></trkpt><trkpt lat="45.58108446006406" lon="10.830671396335612"><ele>98.0</ele><time>2026-04-26T09:48:13.001Z</time></trkpt><trkpt lat="45.58110376048238" lon="10.830462541587256"><ele>98.0</ele><time>2026-04-26T09:48:14.001Z</time></trkpt><trkpt lat="45.58111963285646" lon="10.830271356581786"><ele>98.25</ele><time>2026-04-26T09:48:15.001Z</time></trkpt><trkpt lat="45.581123147787885" lon="10.830096568927116"><ele>98.5</ele><time>2026-04-26T09:48:16.001Z</time></trkpt><trkpt lat="45.581102191239445" lon="10.82993582699783"><ele>98.75</ele><time>2026-04-26T09:48:17.001Z</time></trkpt><trkpt lat="45.58104849112824" lon="10.829776419848054"><ele>99.0</ele><time>2026-04-26T09:48:18.001Z</time></trkpt><trkpt lat="45.58097428778125" lon="10.829625867097803"><ele>99.0</ele><time>2026-04-26T09:48:19.001Z</time></trkpt><trkpt lat="45.58089684085905" lon="10.829476415952438"><ele>99.0</ele><time>2026-04-26T09:48:20.001Z</time></trkpt><trkpt lat="45.58082471530124" lon="10.829340111139686"><ele>99.0</ele><time>2026-04-26T09:48:21.001Z</time></trkpt><trkpt lat="45.58076155364692" lon="10.829215649963887"><ele>99.0</ele><time>2026-04-26T09:48:22.001Z</time></trkpt><trkpt lat="45.58070113336461" lon="10.829091765389917"><ele>99.0</ele><time>2026-04-26T09:48:23.001Z</time></trkpt><trkpt lat="45.58064449239771" lon="10.828970997650929"><ele>99.0</ele><time>2026-04-26T09:48:24.001Z</time></trkpt><trkpt lat="45.58059051243596" lon="10.828859093192698"><ele>99.0</ele><time>2026-04-26T09:48:25Z</time></trkpt><trkpt lat="45.58054221443773" lon="10.828759099884108"><ele>99.0</ele><time>2026-04-26T09:48:26Z</time></trkpt><trkpt lat="45.5804971641727" lon="10.828674629832747"><ele>99.0</ele><time>2026-04-26T09:48:27Z</time></trkpt><trkpt lat="45.5804463302118" lon="10.828607463140115"><ele>99.0</ele><time>2026-04-26T09:48:28Z</time></trkpt><trkpt lat="45.580334678654765" lon="10.828540916663547"><ele>99.25</ele><time>2026-04-26T09:48:30Z</time></trkpt><trkpt lat="45.580218353506375" lon="10.828437951417424"><ele>99.5</ele><time>2026-04-26T09:48:32Z</time></trkpt><trkpt lat="45.580159289655086" lon="10.828333552391355"><ele>99.75</ele><time>2026-04-26T09:48:33Z</time></trkpt><trkpt lat="45.58008849846828" lon="10.828214570045928"><ele>100.0</ele><time>2026-04-26T09:48:34Z</time></trkpt><trkpt lat="45.58000353782647" lon="10.828078156616911"><ele>100.0</ele><time>2026-04-26T09:48:35Z</time></trkpt><trkpt lat="45.57992253899787" lon="10.827952701624014"><ele>100.0</ele><time>2026-04-26T09:48:36Z</time></trkpt><trkpt lat="45.579848396630354" lon="10.82784245316096"><ele>100.0</ele><time>2026-04-26T09:48:37Z</time></trkpt><trkpt lat="45.57978821260719" lon="10.827755406419472"><ele>100.0</ele><time>2026-04-26T09:48:38Z</time></trkpt><trkpt lat="45.57975516902661" lon="10.827639783800038"><ele>100.0</ele><time>2026-04-26T09:48:40Z</time></trkpt><trkpt lat="45.57981441659066" lon="10.827529823918171"><ele>100.0</ele><time>2026-04-26T09:48:42Z</time></trkpt><trkpt lat="45.57987167106068" lon="10.827445689227188"><ele>100.0</ele><time>2026-04-26T09:48:43Z</time></trkpt><trkpt lat="45.57993736250284" lon="10.827343831678395"><ele>100.0</ele><time>2026-04-26T09:48:44Z</time></trkpt><trkpt lat="45.58001667204658" lon="10.82721439680724"><ele>100.0</ele><time>2026-04-26T09:48:45Z</time></trkpt><trkpt lat="45.58008774937874" lon="10.827095386668677"><ele>100.0</ele><time>2026-04-26T09:48:46Z</time></trkpt><trkpt lat="45.58017214571294" lon="10.826954824104565"><ele>100.0</ele><time>2026-04-26T09:48:47Z</time></trkpt><trkpt lat="45.5802658838266" lon="10.82680011073481"><ele>100.0</ele><time>2026-04-26T09:48:48Z</time></trkpt><trkpt lat="45.58030795642678" lon="10.826728025712498"><ele>100.0</ele><time>2026-04-26T09:48:49Z</time></trkpt><trkpt lat="45.58037558300276" lon="10.826612936211125"><ele>100.0</ele><time>2026-04-26T09:48:50Z</time></trkpt><trkpt lat="45.58043925923598" lon="10.82650845468046"><ele>100.0</ele><time>2026-04-26T09:48:51Z</time></trkpt><trkpt lat="45.58050258951933" lon="10.826400443044585"><ele>100.0</ele><time>2026-04-26T09:48:52Z</time></trkpt><trkpt lat="45.580568411483846" lon="10.826289601466268"><ele>100.0</ele><time>2026-04-26T09:48:53Z</time></trkpt><trkpt lat="45.58064114867125" lon="10.826170143875519"><ele>100.0</ele><time>2026-04-26T09:48:54Z</time></trkpt><trkpt lat="45.58070343215642" lon="10.826070288848225"><ele>100.0</ele><time>2026-04-26T09:48:55Z</time></trkpt><trkpt lat="45.58076326933426" lon="10.825971676630044"><ele>100.0</ele><time>2026-04-26T09:48:56Z</time></trkpt><trkpt lat="45.58082104186482" lon="10.825872347230247"><ele>99.8</ele><time>2026-04-26T09:48:57Z</time></trkpt><trkpt lat="45.58087520595594" lon="10.825758956412278"><ele>99.6</ele><time>2026-04-26T09:48:58Z</time></trkpt><trkpt lat="45.58093615247596" lon="10.825639871312843"><ele>99.4</ele><time>2026-04-26T09:48:59Z</time></trkpt><trkpt lat="45.58099842909662" lon="10.825542737933839"><ele>99.2</ele><time>2026-04-26T09:49:00Z</time></trkpt><trkpt lat="45.5810747014243" lon="10.825459151411506"><ele>99.0</ele><time>2026-04-26T09:49:01.001Z</time></trkpt><trkpt lat="45.58114705620819" lon="10.825359076453827"><ele>99.0</ele><time>2026-04-26T09:49:02.001Z</time></trkpt><trkpt lat="45.58120882532494" lon="10.825242286846066"><ele>99.0</ele><time>2026-04-26T09:49:03.001Z</time></trkpt><trkpt lat="45.581261197503906" lon="10.825151107527978"><ele>99.0</ele><time>2026-04-26T09:49:04.001Z</time></trkpt><trkpt lat="45.58132294126386" lon="10.825026127235637"><ele>99.0</ele><time>2026-04-26T09:49:06.001Z</time></trkpt><trkpt lat="45.581321400017146" lon="10.824879378252183"><ele>99.0</ele><time>2026-04-26T09:49:08.001Z</time></trkpt><trkpt lat="45.581287387698" lon="10.824795478396144"><ele>99.0</ele><time>2026-04-26T09:49:09.001Z</time></trkpt><trkpt lat="45.581235719041196" lon="10.824673090460886"><ele>99.0</ele><time>2026-04-26T09:49:10.001Z</time></trkpt><trkpt lat="45.581165443359474" lon="10.8245416726328"><ele>99.0</ele><time>2026-04-26T09:49:11.001Z</time></trkpt><trkpt lat="45.58110286195179" lon="10.824423539934887"><ele>99.0</ele><time>2026-04-26T09:49:12.001Z</time></trkpt><trkpt lat="45.5810550719526" lon="10.82431869694913"><ele>99.0</ele><time>2026-04-26T09:49:13.001Z</time></trkpt><trkpt lat="45.58098551819194" lon="10.824193358998325"><ele>99.4</ele><time>2026-04-26T09:49:14.001Z</time></trkpt><trkpt lat="45.5809090452554" lon="10.824073780957615"><ele>99.80000000000001</ele><time>2026-04-26T09:49:15.001Z</time></trkpt><trkpt lat="45.5808348461425" lon="10.823972507185003"><ele>100.19999999999999</ele><time>2026-04-26T09:49:16.001Z</time></trkpt><trkpt lat="45.580771987015055" lon="10.823888251768729"><ele>100.6</ele><time>2026-04-26T09:49:17.001Z</time></trkpt><trkpt lat="45.5807041682018" lon="10.82381681626333"><ele>101.0</ele><time>2026-04-26T09:49:18.001Z</time></trkpt><trkpt lat="45.58062044512696" lon="10.823762649968838"><ele>101.0</ele><time>2026-04-26T09:49:19.001Z</time></trkpt><trkpt lat="45.58055194397633" lon="10.823692009297165"><ele>101.0</ele><time>2026-04-26T09:49:20.001Z</time></trkpt><trkpt lat="45.580469289033914" lon="10.823629598665127"><ele>101.0</ele><time>2026-04-26T09:49:21.001Z</time></trkpt><trkpt lat="45.58038465959564" lon="10.823591317096367"><ele>101.0</ele><time>2026-04-26T09:49:22.001Z</time></trkpt><trkpt lat="45.580287972192046" lon="10.82355675733835"><ele>101.0</ele><time>2026-04-26T09:49:23.001Z</time></trkpt><trkpt lat="45.58018099064605" lon="10.823519382052305"><ele>100.6</ele><time>2026-04-26T09:49:24.001Z</time></trkpt><trkpt lat="45.58010474938573" lon="10.823495346753052"><ele>100.19999999999999</ele><time>2026-04-26T09:49:25.001Z</time></trkpt><trkpt lat="45.58002372743363" lon="10.82346692201432"><ele>99.80000000000001</ele><time>2026-04-26T09:49:26.001Z</time></trkpt><trkpt lat="45.57992111068476" lon="10.82343388962976"><ele>99.4</ele><time>2026-04-26T09:49:27.001Z</time></trkpt><trkpt lat="45.57980879281891" lon="10.823399807243915"><ele>99.0</ele><time>2026-04-26T09:49:28.001Z</time></trkpt><trkpt lat="45.57969910749517" lon="10.82337149760364"><ele>99.0</ele><time>2026-04-26T09:49:29.001Z</time></trkpt><trkpt lat="45.579574611547436" lon="10.823348499472628"><ele>99.0</ele><time>2026-04-26T09:49:30.001Z</time></trkpt><trkpt lat="45.57943352303627" lon="10.823319302112463"><ele>99.0</ele><time>2026-04-26T09:49:31.001Z</time></trkpt><trkpt lat="45.57932623995786" lon="10.823293700658311"><ele>99.0</ele><time>2026-04-26T09:49:32.001Z</time></trkpt><trkpt lat="45.57922357347834" lon="10.823255628725343"><ele>98.4</ele><time>2026-04-26T09:49:33.001Z</time></trkpt><trkpt lat="45.579130611352134" lon="10.823219874491755"><ele>97.80000000000001</ele><time>2026-04-26T09:49:34.001Z</time></trkpt><trkpt lat="45.57903994855155" lon="10.823194921480644"><ele>97.19999999999999</ele><time>2026-04-26T09:49:35.001Z</time></trkpt><trkpt lat="45.578949576140666" lon="10.823171726725512"><ele>96.6</ele><time>2026-04-26T09:49:36.001Z</time></trkpt><trkpt lat="45.578850691823504" lon="10.823144206731719"><ele>96.0</ele><time>2026-04-26T09:49:37.001Z</time></trkpt><trkpt lat="45.57875586931521" lon="10.82310185464323"><ele>96.0</ele><time>2026-04-26T09:49:38.001Z</time></trkpt><trkpt lat="45.578655460375664" lon="10.823050532163474"><ele>96.0</ele><time>2026-04-26T09:49:39.001Z</time></trkpt><trkpt lat="45.57856699099364" lon="10.82299366554503"><ele>96.0</ele><time>2026-04-26T09:49:40.001Z</time></trkpt><trkpt lat="45.57847557488158" lon="10.822931213263672"><ele>96.0</ele><time>2026-04-26T09:49:41.001Z</time></trkpt><trkpt lat="45.578378771694304" lon="10.822869351761419"><ele>96.0</ele><time>2026-04-26T09:49:42.001Z</time></trkpt><trkpt lat="45.57827501035257" lon="10.822810965674218"><ele>96.0</ele><time>2026-04-26T09:49:43.001Z</time></trkpt><trkpt lat="45.5781880899627" lon="10.822757574223164"><ele>96.0</ele><time>2026-04-26T09:49:44.001Z</time></trkpt><trkpt lat="45.5781083981909" lon="10.822694858238863"><ele>96.0</ele><time>2026-04-26T09:49:45.001Z</time></trkpt><trkpt lat="45.57803512135145" lon="10.822625663593696"><ele>96.0</ele><time>2026-04-26T09:49:46.001Z</time></trkpt><trkpt lat="45.577947630432874" lon="10.822552698857022"><ele>96.0</ele><time>2026-04-26T09:49:47.001Z</time></trkpt><trkpt lat="45.57784399892206" lon="10.822483015976207"><ele>96.0</ele><time>2026-04-26T09:49:48.001Z</time></trkpt><trkpt lat="45.57773938914522" lon="10.822414494257947"><ele>96.0</ele><time>2026-04-26T09:49:49.001Z</time></trkpt><trkpt lat="45.577634328934764" lon="10.822350557316028"><ele>96.0</ele><time>2026-04-26T09:49:50.001Z</time></trkpt><trkpt lat="45.57753700534608" lon="10.822286869762493"><ele>96.0</ele><time>2026-04-26T09:49:51.001Z</time></trkpt><trkpt lat="45.577452643330496" lon="10.82223611007853"><ele>96.0</ele><time>2026-04-26T09:49:52.001Z</time></trkpt><trkpt lat="45.57736592672714" lon="10.82218708609506"><ele>96.0</ele><time>2026-04-26T09:49:53.001Z</time></trkpt><trkpt lat="45.577274185759805" lon="10.822158515469747"><ele>96.0</ele><time>2026-04-26T09:49:54.001Z</time></trkpt><trkpt lat="45.57716702656104" lon="10.822151573130853"><ele>96.0</ele><time>2026-04-26T09:49:55.001Z</time></trkpt><trkpt lat="45.577081644019486" lon="10.822159289244293"><ele>96.0</ele><time>2026-04-26T09:49:56.001Z</time></trkpt><trkpt lat="45.57699033028221" lon="10.822144398257544"><ele>96.0</ele><time>2026-04-26T09:49:57.001Z</time></trkpt><trkpt lat="45.57689881115766" lon="10.82211056777308"><ele>96.4</ele><time>2026-04-26T09:49:58.001Z</time></trkpt><trkpt lat="45.57677669646127" lon="10.822062227532907"><ele>96.8</ele><time>2026-04-26T09:49:59.001Z</time></trkpt><trkpt lat="45.5766484582485" lon="10.822035071337508"><ele>97.2</ele><time>2026-04-26T09:50:00.001Z</time></trkpt><trkpt lat="45.57657254728387" lon="10.82200774357797"><ele>97.60000000000001</ele><time>2026-04-26T09:50:01.001Z</time></trkpt><trkpt lat="45.57646530136761" lon="10.82196815178278"><ele>98.0</ele><time>2026-04-26T09:50:02.001Z</time></trkpt><trkpt lat="45.576340031138464" lon="10.821922057747045"><ele>97.75</ele><time>2026-04-26T09:50:03.001Z</time></trkpt><trkpt lat="45.57616065690563" lon="10.821890464250282"><ele>97.5</ele><time>2026-04-26T09:50:04.001Z</time></trkpt><trkpt lat="45.57604759908168" lon="10.821873433004424"><ele>97.25</ele><time>2026-04-26T09:50:05.001Z</time></trkpt><trkpt lat="45.57592379153222" lon="10.821847662156111"><ele>97.0</ele><time>2026-04-26T09:50:06.001Z</time></trkpt><trkpt lat="45.57580260700695" lon="10.82181654204901"><ele>96.5</ele><time>2026-04-26T09:50:07.001Z</time></trkpt><trkpt lat="45.57568835841485" lon="10.821772270845688"><ele>96.0</ele><time>2026-04-26T09:50:08.001Z</time></trkpt><trkpt lat="45.575560660243895" lon="10.821721882601974"><ele>95.5</ele><time>2026-04-26T09:50:09.001Z</time></trkpt><trkpt lat="45.57540079476092" lon="10.82164569369236"><ele>95.0</ele><time>2026-04-26T09:50:10.001Z</time></trkpt><trkpt lat="45.575258443234496" lon="10.821571682580124"><ele>95.0</ele><time>2026-04-26T09:50:11.001Z</time></trkpt><trkpt lat="45.575122531660526" lon="10.82150246187579"><ele>95.0</ele><time>2026-04-26T09:50:12.001Z</time></trkpt><trkpt lat="45.575003926243625" lon="10.821447115493484"><ele>95.0</ele><time>2026-04-26T09:50:13.001Z</time></trkpt><trkpt lat="45.57489651332143" lon="10.821397264781243"><ele>95.0</ele><time>2026-04-26T09:50:14.001Z</time></trkpt><trkpt lat="45.574775557451474" lon="10.821342885465555"><ele>95.0</ele><time>2026-04-26T09:50:15.001Z</time></trkpt><trkpt lat="45.57466736205047" lon="10.821302066199966"><ele>95.0</ele><time>2026-04-26T09:50:16.001Z</time></trkpt><trkpt lat="45.57456069412103" lon="10.821267346191389"><ele>95.0</ele><time>2026-04-26T09:50:17.001Z</time></trkpt><trkpt lat="45.574468884332234" lon="10.821253320130356"><ele>95.0</ele><time>2026-04-26T09:50:18.001Z</time></trkpt><trkpt lat="45.574384654634976" lon="10.82123543078431"><ele>95.0</ele><time>2026-04-26T09:50:19.001Z</time></trkpt><trkpt lat="45.57431656210478" lon="10.821216025183324"><ele>95.4</ele><time>2026-04-26T09:50:20.001Z</time></trkpt><trkpt lat="45.57425485344911" lon="10.821188765955489"><ele>95.8</ele><time>2026-04-26T09:50:21.001Z</time></trkpt><trkpt lat="45.57415724632914" lon="10.821131260805714"><ele>96.19999999999999</ele><time>2026-04-26T09:50:23.001Z</time></trkpt><trkpt lat="45.57408435938792" lon="10.821095571007493"><ele>96.6</ele><time>2026-04-26T09:50:24.001Z</time></trkpt><trkpt lat="45.57398184066628" lon="10.821048738339776"><ele>97.0</ele><time>2026-04-26T09:50:25.001Z</time></trkpt><trkpt lat="45.573865303590324" lon="10.82099834690433"><ele>97.33333333333334</ele><time>2026-04-26T09:50:26.001Z</time></trkpt><trkpt lat="45.573735093919694" lon="10.820941614451403"><ele>97.66666666666666</ele><time>2026-04-26T09:50:27.001Z</time></trkpt><trkpt lat="45.57358911835652" lon="10.820869093914329"><ele>98.0</ele><time>2026-04-26T09:50:28.001Z</time></trkpt><trkpt lat="45.573437677288034" lon="10.820782486390573"><ele>98.0</ele><time>2026-04-26T09:50:29.001Z</time></trkpt><trkpt lat="45.57327554452446" lon="10.820699968652946"><ele>98.0</ele><time>2026-04-26T09:50:30.001Z</time></trkpt><trkpt lat="45.57309592492213" lon="10.820599175436792"><ele>98.0</ele><time>2026-04-26T09:50:31.001Z</time></trkpt><trkpt lat="45.57291687039984" lon="10.820492427952539"><ele>98.33333333333333</ele><time>2026-04-26T09:50:32.001Z</time></trkpt><trkpt lat="45.57275757452913" lon="10.820398428297278"><ele>98.66666666666666</ele><time>2026-04-26T09:50:33.001Z</time></trkpt><trkpt lat="45.57261250381952" lon="10.820310379896839"><ele>99.0</ele><time>2026-04-26T09:50:34.001Z</time></trkpt><trkpt lat="45.57248380167163" lon="10.82024051745457"><ele>99.0</ele><time>2026-04-26T09:50:35.001Z</time></trkpt><trkpt lat="45.57235103411268" lon="10.820167253493572"><ele>99.0</ele><time>2026-04-26T09:50:36.001Z</time></trkpt><trkpt lat="45.57223230510628" lon="10.820107818536691"><ele>99.0</ele><time>2026-04-26T09:50:37.001Z</time></trkpt><trkpt lat="45.57214006978356" lon="10.82007037672345"><ele>99.0</ele><time>2026-04-26T09:50:38.001Z</time></trkpt><trkpt lat="45.572052083290394" lon="10.820032445559244"><ele>99.0</ele><time>2026-04-26T09:50:39.001Z</time></trkpt><trkpt lat="45.572094711121245" lon="10.82014660295206"><ele>99.0</ele><time>2026-04-26T09:50:42Z</time></trkpt><trkpt lat="45.5720859120951" lon="10.820371654959288"><ele>99.0</ele><time>2026-04-26T09:50:44Z</time></trkpt><trkpt lat="45.57205611824315" lon="10.820568680672388"><ele>99.0</ele><time>2026-04-26T09:50:45Z</time></trkpt><trkpt lat="45.57201347980777" lon="10.820777597604899"><ele>98.4</ele><time>2026-04-26T09:50:46Z</time></trkpt><trkpt lat="45.57198114478542" lon="10.82092521276007"><ele>97.80000000000001</ele><time>2026-04-26T09:50:47Z</time></trkpt><trkpt lat="45.57196180140966" lon="10.821015595846385"><ele>97.19999999999999</ele><time>2026-04-26T09:50:48Z</time></trkpt><trkpt lat="45.571862220598916" lon="10.821028530362351"><ele>96.6</ele><time>2026-04-26T09:50:51Z</time></trkpt><trkpt lat="45.57179331163146" lon="10.820977908434413"><ele>96.0</ele><time>2026-04-26T09:50:52Z</time></trkpt><trkpt lat="45.57169806023591" lon="10.820894307314816"><ele>96.0</ele><time>2026-04-26T09:50:53Z</time></trkpt><trkpt lat="45.57156254876218" lon="10.820825596725303"><ele>96.0</ele><time>2026-04-26T09:50:54Z</time></trkpt><trkpt lat="45.57140053932621" lon="10.820761393770399"><ele>96.0</ele><time>2026-04-26T09:50:55Z</time></trkpt><trkpt lat="45.5712352603825" lon="10.820692449830323"><ele>95.33333333333333</ele><time>2026-04-26T09:50:56Z</time></trkpt><trkpt lat="45.57106948083354" lon="10.820620544068035"><ele>94.66666666666666</ele><time>2026-04-26T09:50:57Z</time></trkpt><trkpt lat="45.57092053477966" lon="10.820562142113287"><ele>94.0</ele><time>2026-04-26T09:50:58Z</time></trkpt><trkpt lat="45.57076853168691" lon="10.820502434594376"><ele>94.0</ele><time>2026-04-26T09:50:59Z</time></trkpt><trkpt lat="45.57060672883381" lon="10.820432942294387"><ele>94.0</ele><time>2026-04-26T09:51:00Z</time></trkpt><trkpt lat="45.570439012899676" lon="10.820349512163922"><ele>94.0</ele><time>2026-04-26T09:51:01Z</time></trkpt><trkpt lat="45.57025978582817" lon="10.820271471746755"><ele>94.33333333333333</ele><time>2026-04-26T09:51:02Z</time></trkpt><trkpt lat="45.57008293627957" lon="10.820202644308544"><ele>94.66666666666667</ele><time>2026-04-26T09:51:03Z</time></trkpt><trkpt lat="45.56990839431479" lon="10.820130009688667"><ele>95.0</ele><time>2026-04-26T09:51:04Z</time></trkpt><trkpt lat="45.56975617206586" lon="10.82007712958307"><ele>95.0</ele><time>2026-04-26T09:51:05Z</time></trkpt><trkpt lat="45.569626915352764" lon="10.820021015406468"><ele>95.0</ele><time>2026-04-26T09:51:06Z</time></trkpt><trkpt lat="45.569508448868014" lon="10.81997391073516"><ele>95.0</ele><time>2026-04-26T09:51:07Z</time></trkpt><trkpt lat="45.56940997853404" lon="10.819932400666634"><ele>95.0</ele><time>2026-04-26T09:51:08Z</time></trkpt><trkpt lat="45.56932880758396" lon="10.819906884173818"><ele>95.0</ele><time>2026-04-26T09:51:09Z</time></trkpt><trkpt lat="45.56924029178521" lon="10.819957091458281"><ele>95.0</ele><time>2026-04-26T09:51:11Z</time></trkpt><trkpt lat="45.56921731507265" lon="10.820057424504856"><ele>95.0</ele><time>2026-04-26T09:51:12Z</time></trkpt><trkpt lat="45.5692129852569" lon="10.820193803602898"><ele>95.0</ele><time>2026-04-26T09:51:13Z</time></trkpt><trkpt lat="45.56924879906008" lon="10.820315581164829"><ele>95.0</ele><time>2026-04-26T09:51:14Z</time></trkpt><trkpt lat="45.56932517708604" lon="10.820451496271588"><ele>95.0</ele><time>2026-04-26T09:51:15Z</time></trkpt><trkpt lat="45.569418021414" lon="10.820584095854986"><ele>95.0</ele><time>2026-04-26T09:51:16Z</time></trkpt><trkpt lat="45.56953580789199" lon="10.8207566226395"><ele>95.0</ele><time>2026-04-26T09:51:17Z</time></trkpt><trkpt lat="45.569652411128345" lon="10.82093556479074"><ele>95.0</ele><time>2026-04-26T09:51:18Z</time></trkpt><trkpt lat="45.56973315294945" lon="10.821100512630071"><ele>95.5</ele><time>2026-04-26T09:51:19Z</time></trkpt><trkpt lat="45.56979718890126" lon="10.821256324385464"><ele>96.0</ele><time>2026-04-26T09:51:20Z</time></trkpt><trkpt lat="45.56984997709302" lon="10.821422391423175"><ele>96.5</ele><time>2026-04-26T09:51:21Z</time></trkpt><trkpt lat="45.569889602202934" lon="10.821593690890133"><ele>97.0</ele><time>2026-04-26T09:51:22Z</time></trkpt><trkpt lat="45.569937938344914" lon="10.821794786578153"><ele>97.39999999999999</ele><time>2026-04-26T09:51:23Z</time></trkpt><trkpt lat="45.56995033372386" lon="10.82192907043689"><ele>97.8</ele><time>2026-04-26T09:51:24Z</time></trkpt><trkpt lat="45.569989011810286" lon="10.822071334283642"><ele>98.2</ele><time>2026-04-26T09:51:26Z</time></trkpt><trkpt lat="45.5700220614465" lon="10.822210570880474"><ele>98.6</ele><time>2026-04-26T09:51:27Z</time></trkpt><trkpt lat="45.57007591259005" lon="10.822270900529633"><ele>99.0</ele><time>2026-04-26T09:51:28Z</time></trkpt><trkpt lat="45.570154094437136" lon="10.822305143926975"><ele>99.0</ele><time>2026-04-26T09:51:29Z</time></trkpt><trkpt lat="45.57027142540663" lon="10.822346605078002"><ele>99.0</ele><time>2026-04-26T09:51:30Z</time></trkpt><trkpt lat="45.57042447523376" lon="10.822423556998075"><ele>99.0</ele><time>2026-04-26T09:51:31Z</time></trkpt><trkpt lat="45.57059381660052" lon="10.822519831445899"><ele>98.66666666666666</ele><time>2026-04-26T09:51:32Z</time></trkpt><trkpt lat="45.570770621306615" lon="10.822613418503067"><ele>98.33333333333333</ele><time>2026-04-26T09:51:33Z</time></trkpt><trkpt lat="45.57090442816019" lon="10.822693250213932"><ele>98.0</ele><time>2026-04-26T09:51:34Z</time></trkpt><trkpt lat="45.57102920868393" lon="10.82276648334465"><ele>100.0</ele><time>2026-04-26T09:51:35Z</time></trkpt><trkpt lat="45.57117973178691" lon="10.82285135385174"><ele>102.0</ele><time>2026-04-26T09:51:36Z</time></trkpt><trkpt lat="45.571355990004264" lon="10.822948753914918"><ele>104.0</ele><time>2026-04-26T09:51:37Z</time></trkpt><trkpt lat="45.57150060735619" lon="10.823025904506038"><ele>104.0</ele><time>2026-04-26T09:51:38Z</time></trkpt><trkpt lat="45.57163707601268" lon="10.823089811381696"><ele>104.0</ele><time>2026-04-26T09:51:39Z</time></trkpt><trkpt lat="45.57177097397309" lon="10.823143266377084"><ele>104.0</ele><time>2026-04-26T09:51:40Z</time></trkpt><trkpt lat="45.571897796890255" lon="10.823179935222615"><ele>104.0</ele><time>2026-04-26T09:51:41Z</time></trkpt><trkpt lat="45.57196474840211" lon="10.823213273228113"><ele>103.33333333333333</ele><time>2026-04-26T09:51:42Z</time></trkpt><trkpt lat="45.572043919349824" lon="10.823236037199463"><ele>102.66666666666666</ele><time>2026-04-26T09:51:43Z</time></trkpt><trkpt lat="45.572110992972455" lon="10.823282985360992"><ele>102.0</ele><time>2026-04-26T09:51:45Z</time></trkpt><trkpt lat="45.5721613942724" lon="10.823375221837653"><ele>101.33333333333334</ele><time>2026-04-26T09:51:47Z</time></trkpt><trkpt lat="45.572216381761194" lon="10.823477084728088"><ele>100.66666666666667</ele><time>2026-04-26T09:51:48Z</time></trkpt><trkpt lat="45.57225065926785" lon="10.823582578743826"><ele>100.0</ele><time>2026-04-26T09:51:49Z</time></trkpt><trkpt lat="45.57222459686367" lon="10.82367814553622"><ele>100.00000000000001</ele><time>2026-04-26T09:51:50Z</time></trkpt><trkpt lat="45.57217358825059" lon="10.82376167771447"><ele>100.0</ele><time>2026-04-26T09:51:51Z</time></trkpt><trkpt lat="45.57212007418898" lon="10.823847222123407"><ele>100.0</ele><time>2026-04-26T09:51:52Z</time></trkpt><trkpt lat="45.572077899726224" lon="10.82392855570305"><ele>100.0</ele><time>2026-04-26T09:51:53Z</time></trkpt><trkpt lat="45.57203350171829" lon="10.824046025396715"><ele>100.00000000000001</ele><time>2026-04-26T09:51:54Z</time></trkpt><trkpt lat="45.572002105747046" lon="10.824176353342496"><ele>100.0</ele><time>2026-04-26T09:51:55Z</time></trkpt><trkpt lat="45.57199819584395" lon="10.824282191318098"><ele>101.83333333333334</ele><time>2026-04-26T09:51:57Z</time></trkpt><trkpt lat="45.57200824690571" lon="10.824409834246328"><ele>103.66666666666667</ele><time>2026-04-26T09:51:59Z</time></trkpt><trkpt lat="45.57198025728661" lon="10.824497404839478"><ele>105.5</ele><time>2026-04-26T09:52:01Z</time></trkpt><trkpt lat="45.57190694003476" lon="10.82448452235795"><ele>107.33333333333334</ele><time>2026-04-26T09:52:03Z</time></trkpt><trkpt lat="45.57187097777905" lon="10.824402129372556"><ele>109.16666666666667</ele><time>2026-04-26T09:52:04Z</time></trkpt><trkpt lat="45.57187381880451" lon="10.824274973976328"><ele>111.0</ele><time>2026-04-26T09:52:05Z</time></trkpt><trkpt lat="45.571925316488255" lon="10.824076926695222"><ele>111.0</ele><time>2026-04-26T09:52:06Z</time></trkpt><trkpt lat="45.57195266218856" lon="10.823923742800833"><ele>111.0</ele><time>2026-04-26T09:52:07Z</time></trkpt><trkpt lat="45.57191866221638" lon="10.823832692551392"><ele>111.0</ele><time>2026-04-26T09:52:08Z</time></trkpt><trkpt lat="45.57184768466257" lon="10.823814689590993"><ele>111.0</ele><time>2026-04-26T09:52:10Z</time></trkpt><trkpt lat="45.571789245476225" lon="10.823861077792696"><ele>111.0</ele><time>2026-04-26T09:52:13Z</time></trkpt><trkpt lat="45.571716660125325" lon="10.823929733843455"><ele>111.0</ele><time>2026-04-26T09:52:17Z</time></trkpt><trkpt lat="45.571706233445425" lon="10.824094016252472"><ele>111.0</ele><time>2026-04-26T09:52:19Z</time></trkpt><trkpt lat="45.57171352180188" lon="10.824263540053167"><ele>111.0</ele><time>2026-04-26T09:52:21Z</time></trkpt><trkpt lat="45.57172109465242" lon="10.824366477689104"><ele>111.0</ele><time>2026-04-26T09:52:22Z</time></trkpt><trkpt lat="45.57173523945007" lon="10.824470762792428"><ele>111.0</ele><time>2026-04-26T09:52:23Z</time></trkpt><trkpt lat="45.571752943090544" lon="10.824567881800379"><ele>111.0</ele><time>2026-04-26T09:52:24Z</time></trkpt><trkpt lat="45.57177381289177" lon="10.824677864451521"><ele>111.0</ele><time>2026-04-26T09:52:25Z</time></trkpt><trkpt lat="45.57179081652942" lon="10.824772154739678"><ele>111.66666666666667</ele><time>2026-04-26T09:52:26Z</time></trkpt><trkpt lat="45.57180459047163" lon="10.824862020059841"><ele>112.33333333333334</ele><time>2026-04-26T09:52:27Z</time></trkpt><trkpt lat="45.57182539623922" lon="10.825007583650347"><ele>113.0</ele><time>2026-04-26T09:52:29Z</time></trkpt><trkpt lat="45.57183921828219" lon="10.825119290149134"><ele>113.66666666666667</ele><time>2026-04-26T09:52:31Z</time></trkpt><trkpt lat="45.571857907475476" lon="10.825206252964263"><ele>114.33333333333334</ele><time>2026-04-26T09:52:35Z</time></trkpt><trkpt lat="45.57189454598707" lon="10.82531006214509"><ele>115.0</ele><time>2026-04-26T09:53:55Z</time></trkpt><trkpt lat="45.571800616512554" lon="10.82539497624051"><ele>116.4</ele><time>2026-04-26T09:53:57Z</time></trkpt><trkpt lat="45.571693892761175" lon="10.825401636147486"><ele>117.8</ele><time>2026-04-26T09:53:58Z</time></trkpt><trkpt lat="45.57159188289548" lon="10.825409570440703"><ele>119.19999999999999</ele><time>2026-04-26T09:53:59Z</time></trkpt><trkpt lat="45.571480963942776" lon="10.825448919272091"><ele>120.6</ele><time>2026-04-26T09:54:00Z</time></trkpt><trkpt lat="45.571368930335844" lon="10.825481900357424"><ele>122.0</ele><time>2026-04-26T09:54:01Z</time></trkpt><trkpt lat="45.57125161938528" lon="10.825526115456244"><ele>121.0</ele><time>2026-04-26T09:54:02Z</time></trkpt><trkpt lat="45.57113680854374" lon="10.825564432452113"><ele>120.0</ele><time>2026-04-26T09:54:03Z</time></trkpt><trkpt lat="45.57102159787648" lon="10.825602760132385"><ele>119.0</ele><time>2026-04-26T09:54:04Z</time></trkpt><trkpt lat="45.57090341630845" lon="10.825643878323067"><ele>118.0</ele><time>2026-04-26T09:54:05Z</time></trkpt><trkpt lat="45.570782550314526" lon="10.825678260133884"><ele>118.0</ele><time>2026-04-26T09:54:06Z</time></trkpt><trkpt lat="45.57066779729177" lon="10.825723176687555"><ele>118.0</ele><time>2026-04-26T09:54:07Z</time></trkpt><trkpt lat="45.57054251779035" lon="10.825777072344048"><ele>118.0</ele><time>2026-04-26T09:54:08Z</time></trkpt><trkpt lat="45.570429486164485" lon="10.82584228573393"><ele>118.0</ele><time>2026-04-26T09:54:09Z</time></trkpt><trkpt lat="45.57032198337079" lon="10.825893784028622"><ele>117.0</ele><time>2026-04-26T09:54:10Z</time></trkpt><trkpt lat="45.57020096558201" lon="10.825949860366146"><ele>116.0</ele><time>2026-04-26T09:54:11Z</time></trkpt><trkpt lat="45.570079671154794" lon="10.826015137334439"><ele>115.0</ele><time>2026-04-26T09:54:12Z</time></trkpt><trkpt lat="45.569953469330244" lon="10.826106883914719"><ele>114.0</ele><time>2026-04-26T09:54:13Z</time></trkpt><trkpt lat="45.5698307576326" lon="10.826227170167938"><ele>115.80000000000001</ele><time>2026-04-26T09:54:14Z</time></trkpt><trkpt lat="45.569736154815246" lon="10.826336005176302"><ele>117.60000000000001</ele><time>2026-04-26T09:54:15Z</time></trkpt><trkpt lat="45.5696554030334" lon="10.826422740944933"><ele>119.4</ele><time>2026-04-26T09:54:16Z</time></trkpt><trkpt lat="45.56959360841622" lon="10.8264914983501"><ele>121.2</ele><time>2026-04-26T09:54:17Z</time></trkpt><trkpt lat="45.56950096198341" lon="10.826586628625211"><ele>123.0</ele><time>2026-04-26T09:54:19Z</time></trkpt><trkpt lat="45.56941430284833" lon="10.82662603653467"><ele>123.0</ele><time>2026-04-26T09:54:20.001Z</time></trkpt><trkpt lat="45.569304129031366" lon="10.826662051132816"><ele>123.0</ele><time>2026-04-26T09:54:21.001Z</time></trkpt><trkpt lat="45.569165462616546" lon="10.826708755689094"><ele>123.0</ele><time>2026-04-26T09:54:22.001Z</time></trkpt><trkpt lat="45.569002115074994" lon="10.826764050697092"><ele>123.0</ele><time>2026-04-26T09:54:23.001Z</time></trkpt><trkpt lat="45.56884116344461" lon="10.826816076250083"><ele>137.33333333333334</ele><time>2026-04-26T09:54:24.001Z</time></trkpt><trkpt lat="45.56867504034222" lon="10.826856152210679"><ele>151.66666666666669</ele><time>2026-04-26T09:54:25.001Z</time></trkpt><trkpt lat="45.56851830048436" lon="10.826880957368113"><ele>166.0</ele><time>2026-04-26T09:54:26.001Z</time></trkpt><trkpt lat="45.56835443238648" lon="10.826897467596126"><ele>166.0</ele><time>2026-04-26T09:54:27.001Z</time></trkpt><trkpt lat="45.56819462787063" lon="10.826885493546401"><ele>166.0</ele><time>2026-04-26T09:54:28.001Z</time></trkpt><trkpt lat="45.56803385578605" lon="10.826833724682796"><ele>166.0</ele><time>2026-04-26T09:54:29.001Z</time></trkpt><trkpt lat="45.56788263909314" lon="10.826741807925908"><ele>166.0</ele><time>2026-04-26T09:54:30.001Z</time></trkpt><trkpt lat="45.567749246548146" lon="10.826617957309256"><ele>166.0</ele><time>2026-04-26T09:54:31.001Z</time></trkpt><trkpt lat="45.5675958267025" lon="10.826510960626708"><ele>166.0</ele><time>2026-04-26T09:54:32.001Z</time></trkpt><trkpt lat="45.567421074629905" lon="10.826447783407462"><ele>166.0</ele><time>2026-04-26T09:54:33.001Z</time></trkpt><trkpt lat="45.56722314230322" lon="10.826401154734171"><ele>166.0</ele><time>2026-04-26T09:54:34.001Z</time></trkpt><trkpt lat="45.56703673764444" lon="10.826360405701445"><ele>166.0</ele><time>2026-04-26T09:54:35.001Z</time></trkpt><trkpt lat="45.56686886133288" lon="10.826326997112094"><ele>191.0</ele><time>2026-04-26T09:54:36.001Z</time></trkpt><trkpt lat="45.566696821863935" lon="10.826289734429706"><ele>216.0</ele><time>2026-04-26T09:54:37.001Z</time></trkpt><trkpt lat="45.56649743391934" lon="10.826245562373282"><ele>241.0</ele><time>2026-04-26T09:54:38.001Z</time></trkpt><trkpt lat="45.5662859382211" lon="10.826208505858578"><ele>234.0</ele><time>2026-04-26T09:54:39.001Z</time></trkpt><trkpt lat="45.56607132106585" lon="10.82617525885449"><ele>227.0</ele><time>2026-04-26T09:54:40.001Z</time></trkpt><trkpt lat="45.56586242037892" lon="10.826139378785554"><ele>220.0</ele><time>2026-04-26T09:54:41.001Z</time></trkpt><trkpt lat="45.565660146684024" lon="10.826104143186027"><ele>220.0</ele><time>2026-04-26T09:54:42.001Z</time></trkpt><trkpt lat="45.5654708971132" lon="10.826060339321284"><ele>220.0</ele><time>2026-04-26T09:54:43.001Z</time></trkpt><trkpt lat="45.56528881869696" lon="10.826018132966169"><ele>220.0</ele><time>2026-04-26T09:54:44.001Z</time></trkpt><trkpt lat="45.56511271241864" lon="10.825979705836499"><ele>192.33333333333331</ele><time>2026-04-26T09:54:45.001Z</time></trkpt><trkpt lat="45.56494904346488" lon="10.825947939405143"><ele>164.66666666666666</ele><time>2026-04-26T09:54:46.001Z</time></trkpt><trkpt lat="45.56478470014392" lon="10.825918416626111"><ele>137.0</ele><time>2026-04-26T09:54:47.001Z</time></trkpt><trkpt lat="45.56462114541826" lon="10.82588788475119"><ele>128.66666666666666</ele><time>2026-04-26T09:54:48.001Z</time></trkpt><trkpt lat="45.56445291000762" lon="10.825864237357793"><ele>120.33333333333334</ele><time>2026-04-26T09:54:49.001Z</time></trkpt><trkpt lat="45.564283253842454" lon="10.825854174018644"><ele>112.0</ele><time>2026-04-26T09:54:50.001Z</time></trkpt><trkpt lat="45.56409514196744" lon="10.825865608993938"><ele>112.0</ele><time>2026-04-26T09:54:51.001Z</time></trkpt><trkpt lat="45.563909162924126" lon="10.825894699711565"><ele>112.0</ele><time>2026-04-26T09:54:52.001Z</time></trkpt><trkpt lat="45.56372548538337" lon="10.825938851261833"><ele>112.0</ele><time>2026-04-26T09:54:53.001Z</time></trkpt><trkpt lat="45.5635562316445" lon="10.825998673710446"><ele>115.33333333333334</ele><time>2026-04-26T09:54:54.001Z</time></trkpt><trkpt lat="45.563379994480655" lon="10.826077468183685"><ele>118.66666666666666</ele><time>2026-04-26T09:54:55.001Z</time></trkpt><trkpt lat="45.56321599923214" lon="10.826171687751593"><ele>122.0</ele><time>2026-04-26T09:54:56.001Z</time></trkpt><trkpt lat="45.56306194256067" lon="10.826286713928345"><ele>122.0</ele><time>2026-04-26T09:54:57.001Z</time></trkpt><trkpt lat="45.562919638813774" lon="10.826408104117013"><ele>122.0</ele><time>2026-04-26T09:54:58.001Z</time></trkpt><trkpt lat="45.562782057491184" lon="10.82655251579923"><ele>122.0</ele><time>2026-04-26T09:54:59.001Z</time></trkpt><trkpt lat="45.562663027160966" lon="10.826721746506077"><ele>113.66666666666666</ele><time>2026-04-26T09:55:00.001Z</time></trkpt><trkpt lat="45.562559867272654" lon="10.826909172809856"><ele>105.33333333333334</ele><time>2026-04-26T09:55:01.001Z</time></trkpt><trkpt lat="45.56246413339351" lon="10.827101084992782"><ele>97.0</ele><time>2026-04-26T09:55:02.001Z</time></trkpt><trkpt lat="45.56235844278209" lon="10.827264226089097"><ele>97.0</ele><time>2026-04-26T09:55:03.001Z</time></trkpt><trkpt lat="45.56224966520884" lon="10.827422411543411"><ele>97.0</ele><time>2026-04-26T09:55:04.001Z</time></trkpt><trkpt lat="45.56213126746801" lon="10.827574946755666"><ele>97.0</ele><time>2026-04-26T09:55:05.001Z</time></trkpt><trkpt lat="45.562000599110036" lon="10.827721034254996"><ele>104.0</ele><time>2026-04-26T09:55:06.001Z</time></trkpt><trkpt lat="45.56185076591383" lon="10.827862868183823"><ele>111.0</ele><time>2026-04-26T09:55:07.001Z</time></trkpt><trkpt lat="45.56170352477632" lon="10.827992570304984"><ele>118.0</ele><time>2026-04-26T09:55:08.001Z</time></trkpt><trkpt lat="45.561564287856704" lon="10.828147298279648"><ele>118.0</ele><time>2026-04-26T09:55:09.001Z</time></trkpt><trkpt lat="45.56143122115758" lon="10.828321242108842"><ele>118.0</ele><time>2026-04-26T09:55:10.001Z</time></trkpt><trkpt lat="45.56129174274802" lon="10.828497792351412"><ele>118.0</ele><time>2026-04-26T09:55:11.001Z</time></trkpt><trkpt lat="45.56115091799247" lon="10.828676275943785"><ele>118.0</ele><time>2026-04-26T09:55:12.001Z</time></trkpt><trkpt lat="45.56100874159836" lon="10.828901069184734"><ele>118.0</ele><time>2026-04-26T09:55:13.001Z</time></trkpt><trkpt lat="45.56086142472071" lon="10.829170327347088"><ele>118.0</ele><time>2026-04-26T09:55:14.001Z</time></trkpt><trkpt lat="45.56070286660001" lon="10.829468628731684"><ele>118.0</ele><time>2026-04-26T09:55:15.001Z</time></trkpt><trkpt lat="45.56051754399797" lon="10.82976674149244"><ele>118.0</ele><time>2026-04-26T09:55:16.001Z</time></trkpt><trkpt lat="45.5603678821193" lon="10.830075018543067"><ele>118.0</ele><time>2026-04-26T09:55:17.001Z</time></trkpt><trkpt lat="45.56020395492551" lon="10.83029749397945"><ele>118.0</ele><time>2026-04-26T09:55:18.001Z</time></trkpt><trkpt lat="45.56001490250448" lon="10.830466308573682"><ele>118.0</ele><time>2026-04-26T09:55:19.001Z</time></trkpt><trkpt lat="45.55979873571289" lon="10.830634445345721"><ele>158.5</ele><time>2026-04-26T09:55:20.001Z</time></trkpt><trkpt lat="45.55955926091003" lon="10.83082349488289"><ele>199.0</ele><time>2026-04-26T09:55:21.001Z</time></trkpt><trkpt lat="45.55931791743244" lon="10.83102193653474"><ele>199.0</ele><time>2026-04-26T09:55:22.001Z</time></trkpt><trkpt lat="45.5590561625138" lon="10.831182019237374"><ele>199.0</ele><time>2026-04-26T09:55:23.001Z</time></trkpt><trkpt lat="45.55880064976117" lon="10.831327620107219"><ele>209.0</ele><time>2026-04-26T09:55:24.001Z</time></trkpt><trkpt lat="45.558561678280945" lon="10.831449811592131"><ele>219.0</ele><time>2026-04-26T09:55:25.001Z</time></trkpt><trkpt lat="45.55834403108206" lon="10.831559408802544"><ele>219.0</ele><time>2026-04-26T09:55:26.001Z</time></trkpt><trkpt lat="45.558119220740494" lon="10.831652512901995"><ele>219.0</ele><time>2026-04-26T09:55:27.001Z</time></trkpt><trkpt lat="45.557884746245584" lon="10.831717641506712"><ele>219.0</ele><time>2026-04-26T09:55:28.001Z</time></trkpt><trkpt lat="45.5576398008044" lon="10.831749342155696"><ele>219.0</ele><time>2026-04-26T09:55:29.001Z</time></trkpt><trkpt lat="45.557391653050445" lon="10.831692712611705"><ele>201.5</ele><time>2026-04-26T09:55:30.001Z</time></trkpt><trkpt lat="45.557130408353885" lon="10.831625353158739"><ele>184.0</ele><time>2026-04-26T09:55:31.001Z</time></trkpt><trkpt lat="45.55685507196523" lon="10.831564528559824"><ele>184.0</ele><time>2026-04-26T09:55:32.001Z</time></trkpt><trkpt lat="45.55660855926418" lon="10.831514477567469"><ele>184.0</ele><time>2026-04-26T09:55:33.001Z</time></trkpt><trkpt lat="45.55636752744665" lon="10.831498144545435"><ele>210.0</ele><time>2026-04-26T09:55:34Z</time></trkpt><trkpt lat="45.55612528014966" lon="10.831424339037286"><ele>236.0</ele><time>2026-04-26T09:55:35Z</time></trkpt><trkpt lat="45.55588182575472" lon="10.831307837299033"><ele>236.0</ele><time>2026-04-26T09:55:36Z</time></trkpt><trkpt lat="45.55564897613266" lon="10.831158632581468"><ele>236.0</ele><time>2026-04-26T09:55:37Z</time></trkpt><trkpt lat="45.5554373204416" lon="10.830931806696452"><ele>164.5</ele><time>2026-04-26T09:55:38Z</time></trkpt><trkpt lat="45.555223191238305" lon="10.830713860614384"><ele>93.0</ele><time>2026-04-26T09:55:39Z</time></trkpt><trkpt lat="45.55499278374028" lon="10.830503464056731"><ele>93.0</ele><time>2026-04-26T09:55:40Z</time></trkpt><trkpt lat="45.55475988802875" lon="10.830296481466165"><ele>93.0</ele><time>2026-04-26T09:55:41Z</time></trkpt><trkpt lat="45.5544997404404" lon="10.830115042206039"><ele>97.0</ele><time>2026-04-26T09:55:42Z</time></trkpt><trkpt lat="45.554211609281346" lon="10.829956615815428"><ele>101.0</ele><time>2026-04-26T09:55:43Z</time></trkpt><trkpt lat="45.55392067116721" lon="10.829832073291385"><ele>107.5</ele><time>2026-04-26T09:55:44Z</time></trkpt><trkpt lat="45.553660157524384" lon="10.82973699514523"><ele>114.0</ele><time>2026-04-26T09:55:45Z</time></trkpt><trkpt lat="45.55342116118688" lon="10.829641063624502"><ele>114.0</ele><time>2026-04-26T09:55:46Z</time></trkpt><trkpt lat="45.55318389391652" lon="10.829527418577904"><ele>114.0</ele><time>2026-04-26T09:55:47Z</time></trkpt><trkpt lat="45.552963175946196" lon="10.82935691608399"><ele>109.0</ele><time>2026-04-26T09:55:48Z</time></trkpt><trkpt lat="45.55272639404458" lon="10.829184941023227"><ele>104.0</ele><time>2026-04-26T09:55:49Z</time></trkpt><trkpt lat="45.55250960095252" lon="10.828968978392174"><ele>104.0</ele><time>2026-04-26T09:55:50Z</time></trkpt><trkpt lat="45.55231949768995" lon="10.828758516219574"><ele>104.0</ele><time>2026-04-26T09:55:51Z</time></trkpt><trkpt lat="45.552146116561445" lon="10.828551720244056"><ele>110.0</ele><time>2026-04-26T09:55:52Z</time></trkpt><trkpt lat="45.55197632662705" lon="10.828357570942824"><ele>116.0</ele><time>2026-04-26T09:55:53Z</time></trkpt><trkpt lat="45.55181033641253" lon="10.828177142114553"><ele>122.0</ele><time>2026-04-26T09:55:54Z</time></trkpt><trkpt lat="45.55165506731396" lon="10.828007136446109"><ele>122.0</ele><time>2026-04-26T09:55:55Z</time></trkpt><trkpt lat="45.55151350991737" lon="10.82783395647883"><ele>122.0</ele><time>2026-04-26T09:55:56Z</time></trkpt><trkpt lat="45.551405635912374" lon="10.82761777290159"><ele>122.0</ele><time>2026-04-26T09:55:57Z</time></trkpt><trkpt lat="45.55129203144736" lon="10.827425484318137"><ele>115.66666666666666</ele><time>2026-04-26T09:55:58Z</time></trkpt><trkpt lat="45.551167132833996" lon="10.827234558576318"><ele>109.33333333333334</ele><time>2026-04-26T09:55:59Z</time></trkpt><trkpt lat="45.551043607773245" lon="10.82702087805699"><ele>103.0</ele><time>2026-04-26T09:56:00Z</time></trkpt><trkpt lat="45.55091081813102" lon="10.826801958258349"><ele>99.33333333333334</ele><time>2026-04-26T09:56:01Z</time></trkpt><trkpt lat="45.550777178118636" lon="10.826571578080117"><ele>95.66666666666667</ele><time>2026-04-26T09:56:02Z</time></trkpt><trkpt lat="45.55063025697415" lon="10.826332137178428"><ele>92.0</ele><time>2026-04-26T09:56:03Z</time></trkpt><trkpt lat="45.55047700179164" lon="10.82607750977523"><ele>93.0</ele><time>2026-04-26T09:56:04Z</time></trkpt><trkpt lat="45.550339161917165" lon="10.8258494092678"><ele>94.0</ele><time>2026-04-26T09:56:05Z</time></trkpt><trkpt lat="45.55021048294153" lon="10.825644783570656"><ele>95.0</ele><time>2026-04-26T09:56:06Z</time></trkpt><trkpt lat="45.55008800573756" lon="10.825462378034283"><ele>95.0</ele><time>2026-04-26T09:56:07Z</time></trkpt><trkpt lat="45.54997285804583" lon="10.825295837257213"><ele>95.0</ele><time>2026-04-26T09:56:08Z</time></trkpt><trkpt lat="45.54985406240405" lon="10.82514254939601"><ele>95.0</ele><time>2026-04-26T09:56:09Z</time></trkpt><trkpt lat="45.54973677882427" lon="10.825004072289426"><ele>94.5</ele><time>2026-04-26T09:56:10Z</time></trkpt><trkpt lat="45.549629905728835" lon="10.82487588271387"><ele>94.0</ele><time>2026-04-26T09:56:11Z</time></trkpt><trkpt lat="45.54951973550779" lon="10.824752436119951"><ele>93.5</ele><time>2026-04-26T09:56:12Z</time></trkpt><trkpt lat="45.54940355588491" lon="10.824626115238253"><ele>93.0</ele><time>2026-04-26T09:56:13Z</time></trkpt><trkpt lat="45.549281868328094" lon="10.824498622351957"><ele>94.0</ele><time>2026-04-26T09:56:14Z</time></trkpt><trkpt lat="45.54915691239869" lon="10.82437042462856"><ele>95.0</ele><time>2026-04-26T09:56:15Z</time></trkpt><trkpt lat="45.54902419735017" lon="10.824227788042451"><ele>96.0</ele><time>2026-04-26T09:56:16Z</time></trkpt><trkpt lat="45.5488883198336" lon="10.82408427085365"><ele>96.0</ele><time>2026-04-26T09:56:17Z</time></trkpt><trkpt lat="45.548768382020505" lon="10.82393380381726"><ele>96.0</ele><time>2026-04-26T09:56:18Z</time></trkpt><trkpt lat="45.54861512119084" lon="10.823821955309024"><ele>96.0</ele><time>2026-04-26T09:56:19Z</time></trkpt><trkpt lat="45.548483550949385" lon="10.823720193272418"><ele>96.0</ele><time>2026-04-26T09:56:20Z</time></trkpt><trkpt lat="45.5483416460377" lon="10.823620344745528"><ele>96.0</ele><time>2026-04-26T09:56:21Z</time></trkpt><trkpt lat="45.54819170705408" lon="10.823521307702064"><ele>96.0</ele><time>2026-04-26T09:56:22Z</time></trkpt><trkpt lat="45.54804044816251" lon="10.823431172297658"><ele>97.0</ele><time>2026-04-26T09:56:23Z</time></trkpt><trkpt lat="45.547873806433316" lon="10.8233442230944"><ele>98.0</ele><time>2026-04-26T09:56:24Z</time></trkpt><trkpt lat="45.54768432555432" lon="10.823259575318339"><ele>99.0</ele><time>2026-04-26T09:56:25Z</time></trkpt><trkpt lat="45.54748537765053" lon="10.823186743394272"><ele>99.0</ele><time>2026-04-26T09:56:26.001Z</time></trkpt><trkpt lat="45.54729831637389" lon="10.823138466405526"><ele>99.0</ele><time>2026-04-26T09:56:27.001Z</time></trkpt><trkpt lat="45.547142474252325" lon="10.82310882849019"><ele>99.0</ele><time>2026-04-26T09:56:28.001Z</time></trkpt><trkpt lat="45.546991551678055" lon="10.823085563163477"><ele>100.25</ele><time>2026-04-26T09:56:29.001Z</time></trkpt><trkpt lat="45.546852581828205" lon="10.823070880226222"><ele>101.5</ele><time>2026-04-26T09:56:30.001Z</time></trkpt><trkpt lat="45.546712187573895" lon="10.823057494738379"><ele>102.75</ele><time>2026-04-26T09:56:31.001Z</time></trkpt><trkpt lat="45.54656472777336" lon="10.823043201868748"><ele>104.0</ele><time>2026-04-26T09:56:32.001Z</time></trkpt><trkpt lat="45.546412875537335" lon="10.82302810459919"><ele>104.0</ele><time>2026-04-26T09:56:33.001Z</time></trkpt><trkpt lat="45.54626036410211" lon="10.823016820799383"><ele>104.0</ele><time>2026-04-26T09:56:34.001Z</time></trkpt><trkpt lat="45.546105312429795" lon="10.823007843409526"><ele>104.0</ele><time>2026-04-26T09:56:35.001Z</time></trkpt><trkpt lat="45.5459451554663" lon="10.82299522905368"><ele>104.0</ele><time>2026-04-26T09:56:36.001Z</time></trkpt><trkpt lat="45.54575074519998" lon="10.82297755677666"><ele>104.0</ele><time>2026-04-26T09:56:37.001Z</time></trkpt><trkpt lat="45.54554347297792" lon="10.822958834327165"><ele>104.0</ele><time>2026-04-26T09:56:38.001Z</time></trkpt><trkpt lat="45.545367988346165" lon="10.822943996818324"><ele>104.66666666666666</ele><time>2026-04-26T09:56:39.001Z</time></trkpt><trkpt lat="45.54521365599311" lon="10.822936308901511"><ele>105.33333333333334</ele><time>2026-04-26T09:56:40.001Z</time></trkpt><trkpt lat="45.545067287870324" lon="10.822924598035025"><ele>106.0</ele><time>2026-04-26T09:56:41.001Z</time></trkpt><trkpt lat="45.54491436576809" lon="10.822912440744187"><ele>106.0</ele><time>2026-04-26T09:56:42.001Z</time></trkpt><trkpt lat="45.54474882315647" lon="10.822897245568262"><ele>106.0</ele><time>2026-04-26T09:56:43.001Z</time></trkpt><trkpt lat="45.54456405041893" lon="10.822880814159607"><ele>106.0</ele><time>2026-04-26T09:56:44.001Z</time></trkpt><trkpt lat="45.54438463280979" lon="10.822863154956869"><ele>106.75</ele><time>2026-04-26T09:56:45.001Z</time></trkpt><trkpt lat="45.54421901654344" lon="10.822849269364548"><ele>107.5</ele><time>2026-04-26T09:56:46.001Z</time></trkpt><trkpt lat="45.544077614886724" lon="10.822836347819356"><ele>108.25</ele><time>2026-04-26T09:56:47.001Z</time></trkpt><trkpt lat="45.54393967792589" lon="10.822825362808537"><ele>109.0</ele><time>2026-04-26T09:56:48.001Z</time></trkpt><trkpt lat="45.54379485704515" lon="10.822813484964595"><ele>109.33333333333334</ele><time>2026-04-26T09:56:49.001Z</time></trkpt><trkpt lat="45.54363687141913" lon="10.822801971839494"><ele>109.66666666666666</ele><time>2026-04-26T09:56:50.001Z</time></trkpt><trkpt lat="45.543474645680035" lon="10.822792226246232"><ele>110.0</ele><time>2026-04-26T09:56:51.001Z</time></trkpt><trkpt lat="45.54331255432313" lon="10.822782740410405"><ele>110.0</ele><time>2026-04-26T09:56:52.001Z</time></trkpt><trkpt lat="45.54315955936935" lon="10.822767535297032"><ele>110.0</ele><time>2026-04-26T09:56:53.001Z</time></trkpt><trkpt lat="45.54301293660135" lon="10.822748709034169"><ele>110.0</ele><time>2026-04-26T09:56:54.001Z</time></trkpt><trkpt lat="45.54286345345186" lon="10.82272974351387"><ele>110.33333333333333</ele><time>2026-04-26T09:56:55.001Z</time></trkpt><trkpt lat="45.542715125966126" lon="10.822706088029356"><ele>110.66666666666666</ele><time>2026-04-26T09:56:56.001Z</time></trkpt><trkpt lat="45.54256458790798" lon="10.822673723938646"><ele>111.0</ele><time>2026-04-26T09:56:57.001Z</time></trkpt><trkpt lat="45.542392045634045" lon="10.822627156996157"><ele>111.33333333333334</ele><time>2026-04-26T09:56:58.001Z</time></trkpt><trkpt lat="45.54221561422414" lon="10.822568118152043"><ele>111.66666666666667</ele><time>2026-04-26T09:56:59.001Z</time></trkpt><trkpt lat="45.542046158009335" lon="10.822503259293885"><ele>112.0</ele><time>2026-04-26T09:57:00.001Z</time></trkpt><trkpt lat="45.54187055296323" lon="10.822419457757176"><ele>112.33333333333334</ele><time>2026-04-26T09:57:01.001Z</time></trkpt><trkpt lat="45.5417002718226" lon="10.822329725170269"><ele>112.66666666666666</ele><time>2026-04-26T09:57:02.001Z</time></trkpt><trkpt lat="45.54152318335249" lon="10.822231312674479"><ele>113.0</ele><time>2026-04-26T09:57:03.001Z</time></trkpt><trkpt lat="45.54135526658354" lon="10.82213973400269"><ele>113.33333333333333</ele><time>2026-04-26T09:57:04.001Z</time></trkpt><trkpt lat="45.54118659215477" lon="10.822048233697817"><ele>113.66666666666666</ele><time>2026-04-26T09:57:05.001Z</time></trkpt><trkpt lat="45.54101860237584" lon="10.821959839582206"><ele>114.0</ele><time>2026-04-26T09:57:06.001Z</time></trkpt><trkpt lat="45.54085037450154" lon="10.821875888462623"><ele>114.33333333333334</ele><time>2026-04-26T09:57:07.001Z</time></trkpt><trkpt lat="45.54068143312066" lon="10.821789187134465"><ele>114.66666666666667</ele><time>2026-04-26T09:57:08.001Z</time></trkpt><trkpt lat="45.540515796615665" lon="10.82170231278824"><ele>115.0</ele><time>2026-04-26T09:57:09.001Z</time></trkpt><trkpt lat="45.5403368930297" lon="10.821605036040209"><ele>114.0</ele><time>2026-04-26T09:57:10.001Z</time></trkpt><trkpt lat="45.54015291183958" lon="10.821507540784063"><ele>113.0</ele><time>2026-04-26T09:57:11.001Z</time></trkpt><trkpt lat="45.53995035714688" lon="10.821402699456687"><ele>112.0</ele><time>2026-04-26T09:57:12Z</time></trkpt><trkpt lat="45.53976522950053" lon="10.821309647774862"><ele>112.0</ele><time>2026-04-26T09:57:13Z</time></trkpt><trkpt lat="45.53959853554203" lon="10.821221848144505"><ele>112.0</ele><time>2026-04-26T09:57:14Z</time></trkpt><trkpt lat="45.539432565664484" lon="10.821133594983529"><ele>112.0</ele><time>2026-04-26T09:57:15Z</time></trkpt><trkpt lat="45.53926566035665" lon="10.821045198241817"><ele>111.66666666666667</ele><time>2026-04-26T09:57:16Z</time></trkpt><trkpt lat="45.53909027909083" lon="10.820953740177094"><ele>111.33333333333334</ele><time>2026-04-26T09:57:17Z</time></trkpt><trkpt lat="45.538914046319285" lon="10.82086164150962"><ele>111.0</ele><time>2026-04-26T09:57:18Z</time></trkpt><trkpt lat="45.53873547227153" lon="10.82076190722225"><ele>111.0</ele><time>2026-04-26T09:57:19Z</time></trkpt><trkpt lat="45.53855790785153" lon="10.82064833078917"><ele>111.0</ele><time>2026-04-26T09:57:20Z</time></trkpt><trkpt lat="45.53838224778576" lon="10.820528283458511"><ele>111.0</ele><time>2026-04-26T09:57:21Z</time></trkpt><trkpt lat="45.53823118081855" lon="10.820411833330853"><ele>111.0</ele><time>2026-04-26T09:57:22Z</time></trkpt><trkpt lat="45.53807202123174" lon="10.820291561458497"><ele>111.0</ele><time>2026-04-26T09:57:23Z</time></trkpt><trkpt lat="45.53790320763959" lon="10.820164951200551"><ele>111.0</ele><time>2026-04-26T09:57:24Z</time></trkpt><trkpt lat="45.537726635314506" lon="10.820029569437576"><ele>111.66666666666666</ele><time>2026-04-26T09:57:25Z</time></trkpt><trkpt lat="45.53754933868311" lon="10.819898507386311"><ele>112.33333333333333</ele><time>2026-04-26T09:57:26Z</time></trkpt><trkpt lat="45.53737809872923" lon="10.819772656458694"><ele>113.0</ele><time>2026-04-26T09:57:27Z</time></trkpt><trkpt lat="45.53721850884279" lon="10.819656341552005"><ele>113.0</ele><time>2026-04-26T09:57:28Z</time></trkpt><trkpt lat="45.537065321621334" lon="10.819552348005141"><ele>113.0</ele><time>2026-04-26T09:57:29Z</time></trkpt><trkpt lat="45.53691487223786" lon="10.819451850242158"><ele>113.0</ele><time>2026-04-26T09:57:30Z</time></trkpt><trkpt lat="45.53676566954585" lon="10.819354668608392"><ele>112.33333333333333</ele><time>2026-04-26T09:57:31Z</time></trkpt><trkpt lat="45.53661490408214" lon="10.819256647078097"><ele>111.66666666666666</ele><time>2026-04-26T09:57:32Z</time></trkpt><trkpt lat="45.53644249785451" lon="10.819142372656144"><ele>111.0</ele><time>2026-04-26T09:57:33Z</time></trkpt><trkpt lat="45.53627648201206" lon="10.819035092202865"><ele>110.66666666666666</ele><time>2026-04-26T09:57:34Z</time></trkpt><trkpt lat="45.53610174712081" lon="10.818926125023923"><ele>110.33333333333333</ele><time>2026-04-26T09:57:35Z</time></trkpt><trkpt lat="45.53593880983544" lon="10.818820959619046"><ele>110.0</ele><time>2026-04-26T09:57:36Z</time></trkpt><trkpt lat="45.53577849122653" lon="10.818726428651425"><ele>110.0</ele><time>2026-04-26T09:57:37Z</time></trkpt><trkpt lat="45.53563020136048" lon="10.81865647269084"><ele>110.0</ele><time>2026-04-26T09:57:38Z</time></trkpt><trkpt lat="45.53548424148582" lon="10.818594515148607"><ele>110.0</ele><time>2026-04-26T09:57:39Z</time></trkpt><trkpt lat="45.53534309303959" lon="10.81853922374391"><ele>110.0</ele><time>2026-04-26T09:57:40Z</time></trkpt><trkpt lat="45.53519732705494" lon="10.818490541509442"><ele>110.0</ele><time>2026-04-26T09:57:41Z</time></trkpt><trkpt lat="45.53504630924315" lon="10.818448470640506"><ele>110.0</ele><time>2026-04-26T09:57:42Z</time></trkpt><trkpt lat="45.534887305816596" lon="10.818410649986017"><ele>110.0</ele><time>2026-04-26T09:57:43Z</time></trkpt><trkpt lat="45.53471220540985" lon="10.818382346214444"><ele>110.0</ele><time>2026-04-26T09:57:44Z</time></trkpt><trkpt lat="45.53454595297336" lon="10.81835914571082"><ele>110.0</ele><time>2026-04-26T09:57:45Z</time></trkpt><trkpt lat="45.53440431505785" lon="10.818338109498878"><ele>110.25</ele><time>2026-04-26T09:57:46Z</time></trkpt><trkpt lat="45.53426476661707" lon="10.81831974605596"><ele>110.5</ele><time>2026-04-26T09:57:47Z</time></trkpt><trkpt lat="45.53412678309992" lon="10.818302837620761"><ele>110.75</ele><time>2026-04-26T09:57:48Z</time></trkpt><trkpt lat="45.53397881296141" lon="10.818282792237715"><ele>111.0</ele><time>2026-04-26T09:57:49Z</time></trkpt><trkpt lat="45.53381427652641" lon="10.818263035441365"><ele>111.66666666666666</ele><time>2026-04-26T09:57:50Z</time></trkpt><trkpt lat="45.53365123342189" lon="10.818247241162492"><ele>112.33333333333333</ele><time>2026-04-26T09:57:51Z</time></trkpt><trkpt lat="45.53348150188064" lon="10.818230094694684"><ele>113.0</ele><time>2026-04-26T09:57:52Z</time></trkpt><trkpt lat="45.53333416595775" lon="10.818217946552458"><ele>113.0</ele><time>2026-04-26T09:57:53Z</time></trkpt><trkpt lat="45.533196860870625" lon="10.818210127281462"><ele>113.0</ele><time>2026-04-26T09:57:54Z</time></trkpt><trkpt lat="45.53306462476866" lon="10.818208640082462"><ele>113.0</ele><time>2026-04-26T09:57:55Z</time></trkpt><trkpt lat="45.532928374519855" lon="10.818205597944571"><ele>113.0</ele><time>2026-04-26T09:57:56Z</time></trkpt><trkpt lat="45.53279280961637" lon="10.818197413544437"><ele>112.66666666666666</ele><time>2026-04-26T09:57:57Z</time></trkpt><trkpt lat="45.53264548422354" lon="10.818188516512706"><ele>112.33333333333334</ele><time>2026-04-26T09:57:58Z</time></trkpt><trkpt lat="45.5324928817977" lon="10.818191064257856"><ele>112.0</ele><time>2026-04-26T09:57:59Z</time></trkpt><trkpt lat="45.532343241744705" lon="10.818201721216258"><ele>112.0</ele><time>2026-04-26T09:58:00Z</time></trkpt><trkpt lat="45.53218983798655" lon="10.818215451246976"><ele>112.0</ele><time>2026-04-26T09:58:01Z</time></trkpt><trkpt lat="45.532027584379385" lon="10.818229745301272"><ele>112.0</ele><time>2026-04-26T09:58:02Z</time></trkpt><trkpt lat="45.53186384531729" lon="10.818241447434705"><ele>112.33333333333334</ele><time>2026-04-26T09:58:03Z</time></trkpt><trkpt lat="45.531705315697614" lon="10.818245596222408"><ele>112.66666666666666</ele><time>2026-04-26T09:58:04Z</time></trkpt><trkpt lat="45.53155108995612" lon="10.818242716844269"><ele>113.0</ele><time>2026-04-26T09:58:05Z</time></trkpt><trkpt lat="45.531394216804955" lon="10.818232904855323"><ele>113.0</ele><time>2026-04-26T09:58:06Z</time></trkpt><trkpt lat="45.531240671567204" lon="10.818231636083908"><ele>113.0</ele><time>2026-04-26T09:58:07Z</time></trkpt><trkpt lat="45.531102526751404" lon="10.818231903383577"><ele>113.0</ele><time>2026-04-26T09:58:08Z</time></trkpt><trkpt lat="45.53096490062992" lon="10.818233705891197"><ele>113.0</ele><time>2026-04-26T09:58:09Z</time></trkpt><trkpt lat="45.530821945791374" lon="10.818229940764304"><ele>112.5</ele><time>2026-04-26T09:58:10Z</time></trkpt><trkpt lat="45.5306794238526" lon="10.818224894254042"><ele>112.0</ele><time>2026-04-26T09:58:11Z</time></trkpt><trkpt lat="45.53053493065322" lon="10.818229266808478"><ele>111.5</ele><time>2026-04-26T09:58:12Z</time></trkpt><trkpt lat="45.53039703292438" lon="10.818239417505925"><ele>111.0</ele><time>2026-04-26T09:58:13Z</time></trkpt><trkpt lat="45.530261639682955" lon="10.81825610371042"><ele>111.0</ele><time>2026-04-26T09:58:14Z</time></trkpt><trkpt lat="45.53012797433119" lon="10.81826838775949"><ele>111.0</ele><time>2026-04-26T09:58:15Z</time></trkpt><trkpt lat="45.52999869896314" lon="10.818282197901805"><ele>111.0</ele><time>2026-04-26T09:58:16Z</time></trkpt><trkpt lat="45.529861872775335" lon="10.818301496514643"><ele>111.0</ele><time>2026-04-26T09:58:17Z</time></trkpt><trkpt lat="45.529716024287765" lon="10.818322196654831"><ele>111.0</ele><time>2026-04-26T09:58:18Z</time></trkpt><trkpt lat="45.529561757782425" lon="10.818348465901469"><ele>111.0</ele><time>2026-04-26T09:58:19Z</time></trkpt><trkpt lat="45.52939495306175" lon="10.818375214970027"><ele>111.0</ele><time>2026-04-26T09:58:20Z</time></trkpt><trkpt lat="45.52922326772395" lon="10.81839825066636"><ele>111.0</ele><time>2026-04-26T09:58:21Z</time></trkpt><trkpt lat="45.52907218103153" lon="10.818398206762732"><ele>111.0</ele><time>2026-04-26T09:58:22Z</time></trkpt><trkpt lat="45.52892852437259" lon="10.818378565168613"><ele>111.0</ele><time>2026-04-26T09:58:23Z</time></trkpt><trkpt lat="45.52879636017436" lon="10.818351551321518"><ele>111.0</ele><time>2026-04-26T09:58:24Z</time></trkpt><trkpt lat="45.528664419461236" lon="10.818328642543817"><ele>111.0</ele><time>2026-04-26T09:58:25Z</time></trkpt><trkpt lat="45.52853444382138" lon="10.818313414135769"><ele>111.0</ele><time>2026-04-26T09:58:26Z</time></trkpt><trkpt lat="45.528403363754585" lon="10.818304836618442"><ele>111.0</ele><time>2026-04-26T09:58:27Z</time></trkpt><trkpt lat="45.52827284528793" lon="10.8182925268409"><ele>111.0</ele><time>2026-04-26T09:58:28Z</time></trkpt><trkpt lat="45.528159033234786" lon="10.818281700853406"><ele>111.0</ele><time>2026-04-26T09:58:29Z</time></trkpt><trkpt lat="45.52804709852031" lon="10.818275152852697"><ele>111.0</ele><time>2026-04-26T09:58:30Z</time></trkpt><trkpt lat="45.52793324925501" lon="10.818270215066859"><ele>111.0</ele><time>2026-04-26T09:58:31Z</time></trkpt><trkpt lat="45.52781190532525" lon="10.818267981307544"><ele>111.0</ele><time>2026-04-26T09:58:32Z</time></trkpt><trkpt lat="45.527685000002215" lon="10.818266566262173"><ele>112.0</ele><time>2026-04-26T09:58:33Z</time></trkpt><trkpt lat="45.5275541207626" lon="10.818266924509347"><ele>113.0</ele><time>2026-04-26T09:58:34Z</time></trkpt><trkpt lat="45.527421554464915" lon="10.81826234075959"><ele>114.0</ele><time>2026-04-26T09:58:35Z</time></trkpt><trkpt lat="45.52730088397933" lon="10.818260701657703"><ele>115.0</ele><time>2026-04-26T09:58:36Z</time></trkpt><trkpt lat="45.527190128883696" lon="10.818261105331818"><ele>115.0</ele><time>2026-04-26T09:58:37Z</time></trkpt><trkpt lat="45.527093327225344" lon="10.818259354964198"><ele>115.0</ele><time>2026-04-26T09:58:38Z</time></trkpt><trkpt lat="45.5270174006019" lon="10.818252206578855"><ele>115.0</ele><time>2026-04-26T09:58:39Z</time></trkpt><trkpt lat="45.52690811628527" lon="10.818236218360063"><ele>115.0</ele><time>2026-04-26T09:58:41Z</time></trkpt><trkpt lat="45.52679228843666" lon="10.818290936867504"><ele>115.0</ele><time>2026-04-26T09:58:43Z</time></trkpt><trkpt lat="45.52672844857747" lon="10.818263588404443"><ele>115.00000000000001</ele><time>2026-04-26T09:58:44Z</time></trkpt><trkpt lat="45.526704892357245" lon="10.818347670076959"><ele>115.0</ele><time>2026-04-26T09:58:45Z</time></trkpt><trkpt lat="45.52670991804195" lon="10.81846057694419"><ele>115.0</ele><time>2026-04-26T09:58:46Z</time></trkpt><trkpt lat="45.526729185735576" lon="10.8185911503862"><ele>115.0</ele><time>2026-04-26T09:58:47Z</time></trkpt><trkpt lat="45.52673748016355" lon="10.818717237116427"><ele>115.00000000000001</ele><time>2026-04-26T09:58:48Z</time></trkpt><trkpt lat="45.526731878896626" lon="10.818823842050726"><ele>115.0</ele><time>2026-04-26T09:58:49Z</time></trkpt><trkpt lat="45.52671717019459" lon="10.818918189875466"><ele>115.0</ele><time>2026-04-26T09:58:50Z</time></trkpt><trkpt lat="45.526693202464955" lon="10.81907403276893"><ele>115.0</ele><time>2026-04-26T09:58:52Z</time></trkpt><trkpt lat="45.526624909779784" lon="10.819245127403892"><ele>115.0</ele><time>2026-04-26T09:58:54Z</time></trkpt><trkpt lat="45.52656843694411" lon="10.819335236955032"><ele>115.0</ele><time>2026-04-26T09:58:55Z</time></trkpt><trkpt lat="45.5264835939318" lon="10.819416846073324"><ele>115.0</ele><time>2026-04-26T09:58:56Z</time></trkpt><trkpt lat="45.526359179711086" lon="10.819403852604612"><ele>115.0</ele><time>2026-04-26T09:58:57Z</time></trkpt><trkpt lat="45.52624553159976" lon="10.819400220452822"><ele>115.0</ele><time>2026-04-26T09:58:58Z</time></trkpt><trkpt lat="45.526121415399714" lon="10.819383389389348"><ele>115.0</ele><time>2026-04-26T09:58:59Z</time></trkpt><trkpt lat="45.52599500767854" lon="10.819369908297885"><ele>115.0</ele><time>2026-04-26T09:59:00Z</time></trkpt><trkpt lat="45.525865406280566" lon="10.819367290409769"><ele>115.0</ele><time>2026-04-26T09:59:01Z</time></trkpt><trkpt lat="45.52574662948973" lon="10.819365535497832"><ele>115.0</ele><time>2026-04-26T09:59:02Z</time></trkpt><trkpt lat="45.525648088282686" lon="10.819364408635064"><ele>115.0</ele><time>2026-04-26T09:59:03Z</time></trkpt><trkpt lat="45.525557576449955" lon="10.819367331789067"><ele>115.0</ele><time>2026-04-26T09:59:04Z</time></trkpt><trkpt lat="45.52547947060286" lon="10.819374473149669"><ele>115.0</ele><time>2026-04-26T09:59:05Z</time></trkpt><trkpt lat="45.52538601639798" lon="10.819380438746403"><ele>115.00000000000001</ele><time>2026-04-26T09:59:06Z</time></trkpt><trkpt lat="45.52529835275377" lon="10.819386891943159"><ele>115.0</ele><time>2026-04-26T09:59:07Z</time></trkpt><trkpt lat="45.52520775032787" lon="10.819394521960376"><ele>115.0</ele><time>2026-04-26T09:59:08Z</time></trkpt><trkpt lat="45.52512960029011" lon="10.819399795830286"><ele>115.0</ele><time>2026-04-26T09:59:09Z</time></trkpt><trkpt lat="45.525051427204694" lon="10.81940955991375"><ele>115.00000000000001</ele><time>2026-04-26T09:59:10Z</time></trkpt><trkpt lat="45.52498005971831" lon="10.819430530328328"><ele>115.0</ele><time>2026-04-26T09:59:11Z</time></trkpt><trkpt lat="45.52491826332537" lon="10.819482879512153"><ele>115.0</ele><time>2026-04-26T09:59:12Z</time></trkpt><trkpt lat="45.52487856989929" lon="10.819573594857625"><ele>115.0</ele><time>2026-04-26T09:59:13Z</time></trkpt><trkpt lat="45.52486339236081" lon="10.819695723477126"><ele>115.0</ele><time>2026-04-26T09:59:14Z</time></trkpt><trkpt lat="45.52484417678195" lon="10.819834845784431"><ele>115.0</ele><time>2026-04-26T09:59:15Z</time></trkpt><trkpt lat="45.52482026537375" lon="10.81998616941155"><ele>115.0</ele><time>2026-04-26T09:59:16Z</time></trkpt><trkpt lat="45.52479609302054" lon="10.820132042814468"><ele>115.25</ele><time>2026-04-26T09:59:17Z</time></trkpt><trkpt lat="45.524770657654656" lon="10.820292013512717"><ele>115.5</ele><time>2026-04-26T09:59:18Z</time></trkpt><trkpt lat="45.524739152951994" lon="10.820479031727185"><ele>115.75</ele><time>2026-04-26T09:59:19Z</time></trkpt><trkpt lat="45.524711426547206" lon="10.820635386278841"><ele>116.0</ele><time>2026-04-26T09:59:20Z</time></trkpt><trkpt lat="45.52468721808669" lon="10.820785748953547"><ele>116.0</ele><time>2026-04-26T09:59:21Z</time></trkpt><trkpt lat="45.52466621988554" lon="10.820929711735195"><ele>116.0</ele><time>2026-04-26T09:59:22Z</time></trkpt><trkpt lat="45.524649065974536" lon="10.821051524538563"><ele>116.0</ele><time>2026-04-26T09:59:23Z</time></trkpt><trkpt lat="45.524606831613504" lon="10.821191446793794"><ele>116.0</ele><time>2026-04-26T09:59:24Z</time></trkpt><trkpt lat="45.5245887677234" lon="10.821301884397018"><ele>116.0</ele><time>2026-04-26T09:59:25Z</time></trkpt><trkpt lat="45.524519891969206" lon="10.821432540769324"><ele>116.25</ele><time>2026-04-26T09:59:26Z</time></trkpt><trkpt lat="45.524448147580884" lon="10.821571852604043"><ele>116.5</ele><time>2026-04-26T09:59:27Z</time></trkpt><trkpt lat="45.524388896922574" lon="10.821703431482486"><ele>116.75</ele><time>2026-04-26T09:59:28Z</time></trkpt><trkpt lat="45.52430547263661" lon="10.821798488979335"><ele>117.0</ele><time>2026-04-26T09:59:29Z</time></trkpt><trkpt lat="45.52420809474886" lon="10.821884694711928"><ele>117.0</ele><time>2026-04-26T09:59:30Z</time></trkpt><trkpt lat="45.52409999267738" lon="10.821961926228527"><ele>117.0</ele><time>2026-04-26T09:59:31Z</time></trkpt><trkpt lat="45.52398524902977" lon="10.822031769770186"><ele>117.0</ele><time>2026-04-26T09:59:32Z</time></trkpt><trkpt lat="45.52386214164286" lon="10.822093880356775"><ele>117.0</ele><time>2026-04-26T09:59:33Z</time></trkpt><trkpt lat="45.52374332757719" lon="10.822136469639014"><ele>117.25</ele><time>2026-04-26T09:59:34Z</time></trkpt><trkpt lat="45.523616877654284" lon="10.822174145297572"><ele>117.5</ele><time>2026-04-26T09:59:35Z</time></trkpt><trkpt lat="45.523472269521726" lon="10.822205403054507"><ele>117.75</ele><time>2026-04-26T09:59:36Z</time></trkpt><trkpt lat="45.523326612319515" lon="10.822225948651607"><ele>118.0</ele><time>2026-04-26T09:59:37Z</time></trkpt><trkpt lat="45.52317212038732" lon="10.822246170408357"><ele>118.0</ele><time>2026-04-26T09:59:38Z</time></trkpt><trkpt lat="45.52303391420607" lon="10.82226558255626"><ele>118.0</ele><time>2026-04-26T09:59:39Z</time></trkpt><trkpt lat="45.52289863073027" lon="10.822278822263835"><ele>118.0</ele><time>2026-04-26T09:59:40Z</time></trkpt><trkpt lat="45.522778689066605" lon="10.822288025079825"><ele>118.0</ele><time>2026-04-26T09:59:41Z</time></trkpt><trkpt lat="45.52266758313498" lon="10.82229894318148"><ele>118.0</ele><time>2026-04-26T09:59:42Z</time></trkpt><trkpt lat="45.52256668113826" lon="10.822310517320355"><ele>118.00000000000001</ele><time>2026-04-26T09:59:43Z</time></trkpt><trkpt lat="45.52247216595161" lon="10.822311937917151"><ele>118.00000000000001</ele><time>2026-04-26T09:59:44Z</time></trkpt><trkpt lat="45.52238622304208" lon="10.822305274676486"><ele>118.0</ele><time>2026-04-26T09:59:45Z</time></trkpt><trkpt lat="45.52229518325166" lon="10.822298325501352"><ele>118.0</ele><time>2026-04-26T09:59:46Z</time></trkpt><trkpt lat="45.52219592634825" lon="10.822290079870564"><ele>118.0</ele><time>2026-04-26T09:59:47Z</time></trkpt><trkpt lat="45.52210085883673" lon="10.822289949411587"><ele>118.00000000000001</ele><time>2026-04-26T09:59:48Z</time></trkpt><trkpt lat="45.522013784670925" lon="10.822318917933579"><ele>118.00000000000001</ele><time>2026-04-26T09:59:49Z</time></trkpt><trkpt lat="45.52193973352909" lon="10.822417300316872"><ele>118.0</ele><time>2026-04-26T09:59:50Z</time></trkpt><trkpt lat="45.521858198354025" lon="10.822417608579228"><ele>118.0</ele><time>2026-04-26T09:59:51Z</time></trkpt><trkpt lat="45.52175941652191" lon="10.822398061212514"><ele>117.5</ele><time>2026-04-26T09:59:52Z</time></trkpt><trkpt lat="45.52165455764234" lon="10.82242748537065"><ele>117.0</ele><time>2026-04-26T09:59:53Z</time></trkpt><trkpt lat="45.52153552213512" lon="10.822437464920514"><ele>116.5</ele><time>2026-04-26T09:59:54Z</time></trkpt><trkpt lat="45.52141872507656" lon="10.822444653259032"><ele>116.0</ele><time>2026-04-26T09:59:55Z</time></trkpt><trkpt lat="45.521303049266756" lon="10.822449560795015"><ele>115.8</ele><time>2026-04-26T09:59:56Z</time></trkpt><trkpt lat="45.521179149376195" lon="10.82245489448499"><ele>115.6</ele><time>2026-04-26T09:59:57Z</time></trkpt><trkpt lat="45.5210657357071" lon="10.822454884520182"><ele>115.4</ele><time>2026-04-26T09:59:58Z</time></trkpt><trkpt lat="45.520957260421795" lon="10.822454179363355"><ele>115.2</ele><time>2026-04-26T09:59:59Z</time></trkpt><trkpt lat="45.5208575871587" lon="10.822450420264747"><ele>115.0</ele><time>2026-04-26T10:00:00Z</time></trkpt><trkpt lat="45.52076719399486" lon="10.82245118760745"><ele>115.00000000000001</ele><time>2026-04-26T10:00:01Z</time></trkpt><trkpt lat="45.52068674701679" lon="10.822449408455263"><ele>115.0</ele><time>2026-04-26T10:00:02Z</time></trkpt><trkpt lat="45.520593320278905" lon="10.822449810869978"><ele>115.0</ele><time>2026-04-26T10:00:03Z</time></trkpt><trkpt lat="45.52050532069221" lon="10.822452992891444"><ele>115.0</ele><time>2026-04-26T10:00:04Z</time></trkpt><trkpt lat="45.52042237381141" lon="10.82245015834105"><ele>115.00000000000001</ele><time>2026-04-26T10:00:05Z</time></trkpt><trkpt lat="45.52034987035554" lon="10.822447132956796"><ele>115.0</ele><time>2026-04-26T10:00:06Z</time></trkpt><trkpt lat="45.52026951211587" lon="10.822447645120006"><ele>115.25</ele><time>2026-04-26T10:00:07Z</time></trkpt><trkpt lat="45.52015544859845" lon="10.822457400076106"><ele>115.5</ele><time>2026-04-26T10:00:08Z</time></trkpt><trkpt lat="45.520063310773935" lon="10.822455017682808"><ele>115.75</ele><time>2026-04-26T10:00:10Z</time></trkpt><trkpt lat="45.51991005013012" lon="10.82245877870758"><ele>116.0</ele><time>2026-04-26T10:00:11Z</time></trkpt><trkpt lat="45.51981343055872" lon="10.822464784989275"><ele>116.0</ele><time>2026-04-26T10:00:12Z</time></trkpt><trkpt lat="45.51969801517556" lon="10.822463204200261"><ele>116.0</ele><time>2026-04-26T10:00:13Z</time></trkpt><trkpt lat="45.51959474550593" lon="10.822486117972087"><ele>116.0</ele><time>2026-04-26T10:00:14Z</time></trkpt><trkpt lat="45.519495043813066" lon="10.822515303403327"><ele>116.0</ele><time>2026-04-26T10:00:15Z</time></trkpt><trkpt lat="45.519394645236844" lon="10.822564212553583"><ele>116.0</ele><time>2026-04-26T10:00:16Z</time></trkpt><trkpt lat="45.51930287959002" lon="10.822627421687312"><ele>117.33333333333333</ele><time>2026-04-26T10:00:17Z</time></trkpt><trkpt lat="45.51922466382758" lon="10.822683545503198"><ele>118.66666666666666</ele><time>2026-04-26T10:00:18Z</time></trkpt><trkpt lat="45.51915942857684" lon="10.822730339659087"><ele>120.0</ele><time>2026-04-26T10:00:19Z</time></trkpt><trkpt lat="45.5191015925003" lon="10.82277323103632"><ele>121.33333333333334</ele><time>2026-04-26T10:00:20Z</time></trkpt><trkpt lat="45.51900565085469" lon="10.822855163023897"><ele>122.66666666666667</ele><time>2026-04-26T10:00:22Z</time></trkpt><trkpt lat="45.51894256617944" lon="10.822912626714793"><ele>124.0</ele><time>2026-04-26T10:00:23Z</time></trkpt><trkpt lat="45.51885600384041" lon="10.82298348845643"><ele>124.0</ele><time>2026-04-26T10:00:25Z</time></trkpt><trkpt lat="45.518780028146885" lon="10.823059598887763"><ele>124.0</ele><time>2026-04-26T10:02:15Z</time></trkpt><trkpt lat="45.518709602612596" lon="10.823102692934844"><ele>124.0</ele><time>2026-04-26T10:02:18Z</time></trkpt><trkpt lat="45.51862327884" lon="10.823169840949573"><ele>124.0</ele><time>2026-04-26T10:02:20Z</time></trkpt><trkpt lat="45.518571564732156" lon="10.823260560926842"><ele>124.0</ele><time>2026-04-26T10:02:21Z</time></trkpt><trkpt lat="45.51853769137507" lon="10.823420379009695"><ele>124.25</ele><time>2026-04-26T10:02:22Z</time></trkpt><trkpt lat="45.518513461616266" lon="10.823587267516098"><ele>124.5</ele><time>2026-04-26T10:02:23Z</time></trkpt><trkpt lat="45.518485010564476" lon="10.82375598378104"><ele>124.75</ele><time>2026-04-26T10:02:24Z</time></trkpt><trkpt lat="45.51846250145056" lon="10.823920892275455"><ele>125.0</ele><time>2026-04-26T10:02:25Z</time></trkpt><trkpt lat="45.51844306474218" lon="10.824086168612926"><ele>125.0</ele><time>2026-04-26T10:02:26Z</time></trkpt><trkpt lat="45.518428871822984" lon="10.824234425799135"><ele>125.0</ele><time>2026-04-26T10:02:27Z</time></trkpt><trkpt lat="45.51841443566639" lon="10.824379330014944"><ele>125.0</ele><time>2026-04-26T10:02:28Z</time></trkpt><trkpt lat="45.518399772598315" lon="10.824528616194211"><ele>125.0</ele><time>2026-04-26T10:02:29Z</time></trkpt><trkpt lat="45.51838532141189" lon="10.824671278489063"><ele>125.0</ele><time>2026-04-26T10:02:30Z</time></trkpt><trkpt lat="45.51837346312501" lon="10.824815455511681"><ele>126.5</ele><time>2026-04-26T10:02:31Z</time></trkpt><trkpt lat="45.5183619843855" lon="10.824963953692055"><ele>128.0</ele><time>2026-04-26T10:02:32Z</time></trkpt><trkpt lat="45.51835148237633" lon="10.825125531882454"><ele>129.5</ele><time>2026-04-26T10:02:33Z</time></trkpt><trkpt lat="45.5183522288708" lon="10.82528573261863"><ele>131.0</ele><time>2026-04-26T10:02:34Z</time></trkpt><trkpt lat="45.51836442886101" lon="10.82546633799881"><ele>131.5</ele><time>2026-04-26T10:02:35Z</time></trkpt><trkpt lat="45.51837538647106" lon="10.825649909501305"><ele>132.0</ele><time>2026-04-26T10:02:36Z</time></trkpt><trkpt lat="45.51838867481372" lon="10.825843943526015"><ele>132.5</ele><time>2026-04-26T10:02:37Z</time></trkpt><trkpt lat="45.51840324228244" lon="10.826071437799513"><ele>133.0</ele><time>2026-04-26T10:02:38Z</time></trkpt><trkpt lat="45.5184139462759" lon="10.826296212476"><ele>134.0</ele><time>2026-04-26T10:02:39Z</time></trkpt><trkpt lat="45.51842379838195" lon="10.826522505262025"><ele>135.0</ele><time>2026-04-26T10:02:40Z</time></trkpt><trkpt lat="45.5184367906013" lon="10.826747917571527"><ele>136.0</ele><time>2026-04-26T10:02:41Z</time></trkpt><trkpt lat="45.51844977211887" lon="10.82697017871499"><ele>136.66666666666669</ele><time>2026-04-26T10:02:42Z</time></trkpt><trkpt lat="45.51846306556557" lon="10.827183219841226"><ele>137.33333333333334</ele><time>2026-04-26T10:02:43Z</time></trkpt><trkpt lat="45.5184769343456" lon="10.8274026845522"><ele>138.0</ele><time>2026-04-26T10:02:44Z</time></trkpt><trkpt lat="45.518488891000366" lon="10.82761796516597"><ele>138.75</ele><time>2026-04-26T10:02:45Z</time></trkpt><trkpt lat="45.51850003029442" lon="10.82782930036864"><ele>139.5</ele><time>2026-04-26T10:02:46Z</time></trkpt><trkpt lat="45.518502015088096" lon="10.828045826238274"><ele>140.25</ele><time>2026-04-26T10:02:47Z</time></trkpt><trkpt lat="45.518505422335494" lon="10.82825469270136"><ele>141.0</ele><time>2026-04-26T10:02:48Z</time></trkpt><trkpt lat="45.51851521428296" lon="10.828468305690972"><ele>141.0</ele><time>2026-04-26T10:02:49Z</time></trkpt><trkpt lat="45.51852271092074" lon="10.828679279520221"><ele>141.0</ele><time>2026-04-26T10:02:50Z</time></trkpt><trkpt lat="45.51852674985443" lon="10.828896522384508"><ele>141.0</ele><time>2026-04-26T10:02:51Z</time></trkpt><trkpt lat="45.51854200252377" lon="10.829147085892199"><ele>141.33333333333334</ele><time>2026-04-26T10:02:52Z</time></trkpt><trkpt lat="45.5185519486905" lon="10.829416222268886"><ele>141.66666666666669</ele><time>2026-04-26T10:02:53Z</time></trkpt><trkpt lat="45.51858351873015" lon="10.829683684224479"><ele>142.0</ele><time>2026-04-26T10:02:54Z</time></trkpt><trkpt lat="45.518634474309614" lon="10.829907267573136"><ele>142.0</ele><time>2026-04-26T10:02:55Z</time></trkpt><trkpt lat="45.51869305494063" lon="10.830100950427102"><ele>142.0</ele><time>2026-04-26T10:02:56Z</time></trkpt><trkpt lat="45.518752701509854" lon="10.83028438748052"><ele>142.0</ele><time>2026-04-26T10:02:57Z</time></trkpt><trkpt lat="45.51879915223809" lon="10.830448140574777"><ele>142.0</ele><time>2026-04-26T10:02:58Z</time></trkpt><trkpt lat="45.518821410094304" lon="10.830608428643428"><ele>144.5</ele><time>2026-04-26T10:02:59Z</time></trkpt><trkpt lat="45.518818258592525" lon="10.830752200862543"><ele>147.0</ele><time>2026-04-26T10:03:00Z</time></trkpt><trkpt lat="45.518796533500094" lon="10.830886992475541"><ele>149.5</ele><time>2026-04-26T10:03:01Z</time></trkpt><trkpt lat="45.51878971047938" lon="10.831005845276424"><ele>152.0</ele><time>2026-04-26T10:03:02Z</time></trkpt><trkpt lat="45.51882859441212" lon="10.83110708751093"><ele>154.5</ele><time>2026-04-26T10:03:03Z</time></trkpt><trkpt lat="45.51889587175412" lon="10.831175389113717"><ele>157.0</ele><time>2026-04-26T10:03:04Z</time></trkpt><trkpt lat="45.518986025539455" lon="10.831197263195897"><ele>157.0</ele><time>2026-04-26T10:03:05Z</time></trkpt><trkpt lat="45.51906434655339" lon="10.83115273932247"><ele>157.0</ele><time>2026-04-26T10:03:06Z</time></trkpt><trkpt lat="45.51912715894472" lon="10.83105037186778"><ele>157.0</ele><time>2026-04-26T10:03:07Z</time></trkpt><trkpt lat="45.51915572616033" lon="10.830917725523555"><ele>157.0</ele><time>2026-04-26T10:03:08Z</time></trkpt><trkpt lat="45.519154854251546" lon="10.830763607404549"><ele>157.0</ele><time>2026-04-26T10:03:09Z</time></trkpt><trkpt lat="45.51917400464352" lon="10.830601313773654"><ele>157.0</ele><time>2026-04-26T10:03:10Z</time></trkpt><trkpt lat="45.51921302460348" lon="10.830426691846057"><ele>157.0</ele><time>2026-04-26T10:03:11Z</time></trkpt><trkpt lat="45.519323818130886" lon="10.830260392732455"><ele>157.0</ele><time>2026-04-26T10:03:12Z</time></trkpt><trkpt lat="45.519379117549185" lon="10.8300565602187"><ele>157.0</ele><time>2026-04-26T10:03:13Z</time></trkpt><trkpt lat="45.519445583641215" lon="10.82985444979431"><ele>157.0</ele><time>2026-04-26T10:03:14Z</time></trkpt><trkpt lat="45.519509147488556" lon="10.829660042630314"><ele>157.0</ele><time>2026-04-26T10:03:15Z</time></trkpt><trkpt lat="45.51958194525756" lon="10.829461808605684"><ele>157.0</ele><time>2026-04-26T10:03:16Z</time></trkpt><trkpt lat="45.51967527504704" lon="10.829273378264949"><ele>158.33333333333334</ele><time>2026-04-26T10:03:17Z</time></trkpt><trkpt lat="45.519783539773776" lon="10.829087687073514"><ele>159.66666666666666</ele><time>2026-04-26T10:03:18Z</time></trkpt><trkpt lat="45.519899543567846" lon="10.828906162907044"><ele>161.0</ele><time>2026-04-26T10:03:19Z</time></trkpt><trkpt lat="45.520016760748085" lon="10.828703253143738"><ele>161.0</ele><time>2026-04-26T10:03:20Z</time></trkpt><trkpt lat="45.52010930573405" lon="10.82848852192624"><ele>161.0</ele><time>2026-04-26T10:03:21Z</time></trkpt><trkpt lat="45.52016869726383" lon="10.828250142846628"><ele>161.0</ele><time>2026-04-26T10:03:22Z</time></trkpt><trkpt lat="45.520206112316465" lon="10.827985946648061"><ele>161.66666666666666</ele><time>2026-04-26T10:03:23Z</time></trkpt><trkpt lat="45.520231566244" lon="10.827724365996085"><ele>162.33333333333334</ele><time>2026-04-26T10:03:24Z</time></trkpt><trkpt lat="45.520257604388085" lon="10.8274449822843"><ele>163.0</ele><time>2026-04-26T10:03:25Z</time></trkpt><trkpt lat="45.52028951502474" lon="10.827161538677673"><ele>163.33333333333334</ele><time>2026-04-26T10:03:26Z</time></trkpt><trkpt lat="45.52032338749064" lon="10.826885686248144"><ele>163.66666666666666</ele><time>2026-04-26T10:03:27Z</time></trkpt><trkpt lat="45.520359349039964" lon="10.826633708194358"><ele>164.0</ele><time>2026-04-26T10:03:28Z</time></trkpt><trkpt lat="45.52038942477633" lon="10.82639859485973"><ele>168.25</ele><time>2026-04-26T10:03:29Z</time></trkpt><trkpt lat="45.520410697043076" lon="10.82618990219782"><ele>172.5</ele><time>2026-04-26T10:03:30Z</time></trkpt><trkpt lat="45.520441841782265" lon="10.825991368739196"><ele>176.75</ele><time>2026-04-26T10:03:31Z</time></trkpt><trkpt lat="45.520488365967864" lon="10.825790535114567"><ele>181.0</ele><time>2026-04-26T10:03:32Z</time></trkpt><trkpt lat="45.52056840140026" lon="10.825598284102183"><ele>181.0</ele><time>2026-04-26T10:03:33Z</time></trkpt><trkpt lat="45.52066594673188" lon="10.82542805074263"><ele>181.0</ele><time>2026-04-26T10:03:34Z</time></trkpt><trkpt lat="45.52078575886688" lon="10.825292893442244"><ele>181.0</ele><time>2026-04-26T10:03:35Z</time></trkpt><trkpt lat="45.52092988074516" lon="10.825196561379014"><ele>178.0</ele><time>2026-04-26T10:03:36Z</time></trkpt><trkpt lat="45.521098156774656" lon="10.825127469796147"><ele>175.0</ele><time>2026-04-26T10:03:37Z</time></trkpt><trkpt lat="45.521269165014964" lon="10.825100371157774"><ele>172.0</ele><time>2026-04-26T10:03:38Z</time></trkpt><trkpt lat="45.52143709749176" lon="10.82511282036312"><ele>178.0</ele><time>2026-04-26T10:03:39Z</time></trkpt><trkpt lat="45.521591416194916" lon="10.825174938444619"><ele>184.0</ele><time>2026-04-26T10:03:39.999Z</time></trkpt><trkpt lat="45.521735802819045" lon="10.825300005959704"><ele>190.0</ele><time>2026-04-26T10:03:40.999Z</time></trkpt><trkpt lat="45.52187073082187" lon="10.825462279600183"><ele>190.0</ele><time>2026-04-26T10:03:41.999Z</time></trkpt><trkpt lat="45.52202328912197" lon="10.825647415142608"><ele>190.0</ele><time>2026-04-26T10:03:42.999Z</time></trkpt><trkpt lat="45.52216274007739" lon="10.825830323017966"><ele>190.0</ele><time>2026-04-26T10:03:43.999Z</time></trkpt><trkpt lat="45.52230441406199" lon="10.826016986736235"><ele>193.0</ele><time>2026-04-26T10:03:44.999Z</time></trkpt><trkpt lat="45.522454578699794" lon="10.826214261010147"><ele>196.0</ele><time>2026-04-26T10:03:45.999Z</time></trkpt><trkpt lat="45.52259937213196" lon="10.826404208150256"><ele>199.0</ele><time>2026-04-26T10:03:46.999Z</time></trkpt><trkpt lat="45.522735235433366" lon="10.82657901167824"><ele>199.0</ele><time>2026-04-26T10:03:47.999Z</time></trkpt><trkpt lat="45.52286003302606" lon="10.826735645172338"><ele>199.0</ele><time>2026-04-26T10:03:48.999Z</time></trkpt><trkpt lat="45.52296763271249" lon="10.826873523506682"><ele>199.0</ele><time>2026-04-26T10:03:49.999Z</time></trkpt><trkpt lat="45.52306131871043" lon="10.826977660596073"><ele>199.0</ele><time>2026-04-26T10:03:50.999Z</time></trkpt><trkpt lat="45.52315806545272" lon="10.82705234934066"><ele>200.75</ele><time>2026-04-26T10:03:51.999Z</time></trkpt><trkpt lat="45.52327700214231" lon="10.827083412065374"><ele>202.5</ele><time>2026-04-26T10:03:52.999Z</time></trkpt><trkpt lat="45.523418063075724" lon="10.82706508205217"><ele>204.25</ele><time>2026-04-26T10:03:53.999Z</time></trkpt><trkpt lat="45.52356416340706" lon="10.826988827302872"><ele>206.0</ele><time>2026-04-26T10:03:54.999Z</time></trkpt><trkpt lat="45.523713687944166" lon="10.826860364043604"><ele>208.0</ele><time>2026-04-26T10:03:55.999Z</time></trkpt><trkpt lat="45.52387418188017" lon="10.826704118573533"><ele>210.0</ele><time>2026-04-26T10:03:56.999Z</time></trkpt><trkpt lat="45.52403008271605" lon="10.826548493606696"><ele>212.0</ele><time>2026-04-26T10:03:57.999Z</time></trkpt><trkpt lat="45.52419746864675" lon="10.826430821669748"><ele>212.0</ele><time>2026-04-26T10:03:58.999Z</time></trkpt><trkpt lat="45.52434599343611" lon="10.826312491058635"><ele>212.0</ele><time>2026-04-26T10:03:59.999Z</time></trkpt><trkpt lat="45.524486840862096" lon="10.826207252886313"><ele>212.0</ele><time>2026-04-26T10:04:00.999Z</time></trkpt><trkpt lat="45.524621508000415" lon="10.826115206262847"><ele>215.33333333333334</ele><time>2026-04-26T10:04:01.999Z</time></trkpt><trkpt lat="45.524788727387715" lon="10.82606030776914"><ele>218.66666666666669</ele><time>2026-04-26T10:04:02.999Z</time></trkpt><trkpt lat="45.524957497201115" lon="10.826054793144468"><ele>222.0</ele><time>2026-04-26T10:04:03.999Z</time></trkpt><trkpt lat="45.52514259452984" lon="10.826079783351828"><ele>222.0</ele><time>2026-04-26T10:04:04.999Z</time></trkpt><trkpt lat="45.52534015025248" lon="10.826112403821636"><ele>222.0</ele><time>2026-04-26T10:04:05.999Z</time></trkpt><trkpt lat="45.52555450941514" lon="10.826141516882352"><ele>222.0</ele><time>2026-04-26T10:04:06.999Z</time></trkpt><trkpt lat="45.525775393764285" lon="10.826172351139133"><ele>222.33333333333331</ele><time>2026-04-26T10:04:07.999Z</time></trkpt><trkpt lat="45.52599090997911" lon="10.826202829140103"><ele>222.66666666666666</ele><time>2026-04-26T10:04:08.999Z</time></trkpt><trkpt lat="45.52619483156597" lon="10.826230012400128"><ele>223.0</ele><time>2026-04-26T10:04:09.999Z</time></trkpt><trkpt lat="45.526392493816225" lon="10.826250518156197"><ele>225.33333333333331</ele><time>2026-04-26T10:04:10.999Z</time></trkpt><trkpt lat="45.52658525658423" lon="10.826275491074455"><ele>227.66666666666669</ele><time>2026-04-26T10:04:11.999Z</time></trkpt><trkpt lat="45.52677428520575" lon="10.82629758797589"><ele>230.0</ele><time>2026-04-26T10:04:12.999Z</time></trkpt><trkpt lat="45.52695886660833" lon="10.826298212958031"><ele>231.66666666666669</ele><time>2026-04-26T10:04:13.999Z</time></trkpt><trkpt lat="45.52714587013763" lon="10.826265584316154"><ele>233.33333333333331</ele><time>2026-04-26T10:04:14.999Z</time></trkpt><trkpt lat="45.52733703906436" lon="10.826194527589314"><ele>235.0</ele><time>2026-04-26T10:04:15.999Z</time></trkpt><trkpt lat="45.52752371658565" lon="10.826065119253727"><ele>234.33333333333331</ele><time>2026-04-26T10:04:16.999Z</time></trkpt><trkpt lat="45.52771097877994" lon="10.825898712747524"><ele>233.66666666666669</ele><time>2026-04-26T10:04:17.999Z</time></trkpt><trkpt lat="45.527900252457755" lon="10.82572111808984"><ele>233.0</ele><time>2026-04-26T10:04:18.999Z</time></trkpt><trkpt lat="45.52808102284672" lon="10.825577466449092"><ele>233.0</ele><time>2026-04-26T10:04:19.999Z</time></trkpt><trkpt lat="45.52825754843242" lon="10.825468108969213"><ele>233.0</ele><time>2026-04-26T10:04:20.999Z</time></trkpt><trkpt lat="45.52842895075324" lon="10.825389234145455"><ele>233.0</ele><time>2026-04-26T10:04:21.999Z</time></trkpt><trkpt lat="45.52862341459731" lon="10.82535382275076"><ele>236.66666666666669</ele><time>2026-04-26T10:04:22.999Z</time></trkpt><trkpt lat="45.528818454626865" lon="10.825288564348023"><ele>240.33333333333331</ele><time>2026-04-26T10:04:23.999Z</time></trkpt><trkpt lat="45.52902424144044" lon="10.825251664200497"><ele>244.0</ele><time>2026-04-26T10:04:24.999Z</time></trkpt><trkpt lat="45.52920635691013" lon="10.825225190772226"><ele>244.0</ele><time>2026-04-26T10:04:25.999Z</time></trkpt><trkpt lat="45.5293583879205" lon="10.825180946414031"><ele>244.0</ele><time>2026-04-26T10:04:26.999Z</time></trkpt><trkpt lat="45.529506360523996" lon="10.82519139130327"><ele>244.0</ele><time>2026-04-26T10:04:27.999Z</time></trkpt><trkpt lat="45.52966119072495" lon="10.825237247470946"><ele>244.33333333333331</ele><time>2026-04-26T10:04:28.999Z</time></trkpt><trkpt lat="45.52980676988447" lon="10.825323083411634"><ele>244.66666666666669</ele><time>2026-04-26T10:04:29.999Z</time></trkpt><trkpt lat="45.52994592110366" lon="10.82543604520159"><ele>245.0</ele><time>2026-04-26T10:04:30.999Z</time></trkpt><trkpt lat="45.53008878072574" lon="10.825555636477157"><ele>245.0</ele><time>2026-04-26T10:04:31.999Z</time></trkpt><trkpt lat="45.53025526937963" lon="10.825665299984273"><ele>245.0</ele><time>2026-04-26T10:04:32.999Z</time></trkpt><trkpt lat="45.530444246867276" lon="10.825742206566712"><ele>245.0</ele><time>2026-04-26T10:04:33.999Z</time></trkpt><trkpt lat="45.530650693380935" lon="10.825806686400785"><ele>244.66666666666669</ele><time>2026-04-26T10:04:34.999Z</time></trkpt><trkpt lat="45.53084237002402" lon="10.82586923612055"><ele>244.33333333333331</ele><time>2026-04-26T10:04:35.999Z</time></trkpt><trkpt lat="45.53101576029867" lon="10.825923871188984"><ele>244.0</ele><time>2026-04-26T10:04:36.999Z</time></trkpt><trkpt lat="45.531155069051394" lon="10.825978621045046"><ele>248.0</ele><time>2026-04-26T10:04:37.999Z</time></trkpt><trkpt lat="45.53130787004603" lon="10.826034682031944"><ele>252.0</ele><time>2026-04-26T10:04:38.999Z</time></trkpt><trkpt lat="45.5314482914047" lon="10.826067043443551"><ele>256.0</ele><time>2026-04-26T10:04:39.999Z</time></trkpt><trkpt lat="45.53154980851406" lon="10.826098068792064"><ele>260.0</ele><time>2026-04-26T10:04:40.999Z</time></trkpt><trkpt lat="45.531625936573576" lon="10.826120871191144"><ele>260.0</ele><time>2026-04-26T10:04:41.999Z</time></trkpt><trkpt lat="45.53169041932947" lon="10.826158446241333"><ele>260.0</ele><time>2026-04-26T10:04:42.999Z</time></trkpt><trkpt lat="45.53175813535461" lon="10.826209781658221"><ele>260.0</ele><time>2026-04-26T10:04:43.999Z</time></trkpt><trkpt lat="45.53182864360002" lon="10.826290703084021"><ele>260.0</ele><time>2026-04-26T10:04:44.999Z</time></trkpt><trkpt lat="45.53191721195275" lon="10.826356637406798"><ele>260.0</ele><time>2026-04-26T10:04:45.999Z</time></trkpt><trkpt lat="45.53201478774882" lon="10.826414853268863"><ele>260.0</ele><time>2026-04-26T10:04:46.999Z</time></trkpt><trkpt lat="45.532088934110945" lon="10.826456253214358"><ele>260.5</ele><time>2026-04-26T10:04:47.999Z</time></trkpt><trkpt lat="45.53219553585075" lon="10.826561056655526"><ele>261.0</ele><time>2026-04-26T10:04:49.999Z</time></trkpt><trkpt lat="45.53225237217916" lon="10.826651498836718"><ele>261.5</ele><time>2026-04-26T10:04:50.999Z</time></trkpt><trkpt lat="45.53229746589401" lon="10.826726940327646"><ele>262.0</ele><time>2026-04-26T10:04:51.999Z</time></trkpt><trkpt lat="45.53233802115235" lon="10.826803090120444"><ele>262.5</ele><time>2026-04-26T10:04:52.999Z</time></trkpt><trkpt lat="45.532373102324485" lon="10.826880361916263"><ele>263.0</ele><time>2026-04-26T10:04:53.999Z</time></trkpt><trkpt lat="45.53241189151249" lon="10.827001919584822"><ele>263.0</ele><time>2026-04-26T10:04:54.999Z</time></trkpt><trkpt lat="45.53244133410942" lon="10.827125494632497"><ele>263.0</ele><time>2026-04-26T10:04:55.999Z</time></trkpt><trkpt lat="45.53245294033832" lon="10.827253508374802"><ele>263.0</ele><time>2026-04-26T10:04:56.999Z</time></trkpt><trkpt lat="45.53248177579572" lon="10.827356205820815"><ele>263.0</ele><time>2026-04-26T10:04:57.999Z</time></trkpt><trkpt lat="45.53251974822536" lon="10.827443926640951"><ele>263.0</ele><time>2026-04-26T10:04:58.999Z</time></trkpt><trkpt lat="45.53257316392108" lon="10.827530451200756"><ele>263.0</ele><time>2026-04-26T10:04:59.999Z</time></trkpt><trkpt lat="45.53262244034695" lon="10.82761599464037"><ele>263.0</ele><time>2026-04-26T10:05:00.999Z</time></trkpt><trkpt lat="45.5326928619478" lon="10.827674645240073"><ele>263.0</ele><time>2026-04-26T10:05:01.999Z</time></trkpt><trkpt lat="45.53278662532895" lon="10.82771219277162"><ele>263.0</ele><time>2026-04-26T10:05:02.999Z</time></trkpt><trkpt lat="45.53285667832815" lon="10.827724305374526"><ele>263.0</ele><time>2026-04-26T10:05:03.999Z</time></trkpt><trkpt lat="45.5329274384812" lon="10.827729934943703"><ele>263.0</ele><time>2026-04-26T10:05:04.999Z</time></trkpt><trkpt lat="45.53304133915833" lon="10.827709339953305"><ele>263.0</ele><time>2026-04-26T10:05:06.999Z</time></trkpt><trkpt lat="45.53311560959794" lon="10.827707383727676"><ele>263.0</ele><time>2026-04-26T10:05:07.999Z</time></trkpt><trkpt lat="45.533206209114944" lon="10.827725765744326"><ele>263.0</ele><time>2026-04-26T10:05:08.999Z</time></trkpt><trkpt lat="45.533281453505566" lon="10.827724715539057"><ele>263.0</ele><time>2026-04-26T10:05:10.999Z</time></trkpt><trkpt lat="45.53339069314279" lon="10.827730155677337"><ele>263.0</ele><time>2026-04-26T10:05:11.999Z</time></trkpt><trkpt lat="45.53346603504206" lon="10.827742602763934"><ele>263.0</ele><time>2026-04-26T10:05:12.999Z</time></trkpt><trkpt lat="45.53354112970939" lon="10.827759664952351"><ele>263.0</ele><time>2026-04-26T10:05:13.999Z</time></trkpt><trkpt lat="45.53360386762296" lon="10.827772685481124"><ele>262.0</ele><time>2026-04-26T10:05:14.999Z</time></trkpt><trkpt lat="45.53372904994158" lon="10.827862240189626"><ele>261.0</ele><time>2026-04-26T10:05:16.999Z</time></trkpt><trkpt lat="45.533792511178746" lon="10.827934084321484"><ele>260.0</ele><time>2026-04-26T10:05:17.999Z</time></trkpt><trkpt lat="45.53384433909695" lon="10.828002941328887"><ele>259.0</ele><time>2026-04-26T10:05:18.999Z</time></trkpt><trkpt lat="45.533918546369414" lon="10.828063782634791"><ele>258.0</ele><time>2026-04-26T10:05:20.999Z</time></trkpt><trkpt lat="45.53397113804383" lon="10.828135535239273"><ele>258.0</ele><time>2026-04-26T10:05:21.999Z</time></trkpt><trkpt lat="45.53402932542153" lon="10.828229108967209"><ele>258.0</ele><time>2026-04-26T10:05:23.999Z</time></trkpt><trkpt lat="45.53406525627927" lon="10.828336082563457"><ele>258.0</ele><time>2026-04-26T10:05:25.999Z</time></trkpt><trkpt lat="45.534043723248544" lon="10.828450736065962"><ele>258.0</ele><time>2026-04-26T10:05:27.999Z</time></trkpt><trkpt lat="45.53405245106436" lon="10.828549860080976"><ele>258.0</ele><time>2026-04-26T10:05:30.999Z</time></trkpt><trkpt lat="45.53408870550109" lon="10.82862383580987"><ele>258.0</ele><time>2026-04-26T10:05:55.999Z</time></trkpt><trkpt lat="45.53399403904192" lon="10.828769956903605"><ele>259.0</ele><time>2026-04-26T10:05:58.999Z</time></trkpt><trkpt lat="45.533882117590714" lon="10.828854436349836"><ele>260.0</ele><time>2026-04-26T10:06:00.999Z</time></trkpt><trkpt lat="45.53381364490371" lon="10.828893411177477"><ele>261.0</ele><time>2026-04-26T10:06:01.999Z</time></trkpt><trkpt lat="45.533747302488685" lon="10.828940179872717"><ele>262.0</ele><time>2026-04-26T10:06:02.999Z</time></trkpt><trkpt lat="45.53363933923128" lon="10.829013858802634"><ele>263.0</ele><time>2026-04-26T10:06:04.999Z</time></trkpt><trkpt lat="45.5335758306801" lon="10.829063680131805"><ele>263.0</ele><time>2026-04-26T10:06:05.999Z</time></trkpt><trkpt lat="45.53350225465001" lon="10.82911937954863"><ele>263.0</ele><time>2026-04-26T10:06:06.999Z</time></trkpt><trkpt lat="45.53344092142718" lon="10.829179756686855"><ele>263.0</ele><time>2026-04-26T10:06:07.999Z</time></trkpt><trkpt lat="45.53336068143286" lon="10.829282419222986"><ele>263.0</ele><time>2026-04-26T10:06:08.999Z</time></trkpt><trkpt lat="45.533248637715275" lon="10.829436351695355"><ele>263.0</ele><time>2026-04-26T10:06:09.999Z</time></trkpt><trkpt lat="45.5331506390545" lon="10.829571150117053"><ele>263.0</ele><time>2026-04-26T10:06:10.999Z</time></trkpt><trkpt lat="45.53309080813307" lon="10.829659824386558"><ele>263.0</ele><time>2026-04-26T10:06:11.999Z</time></trkpt><trkpt lat="45.533003783931996" lon="10.829828223128914"><ele>263.0</ele><time>2026-04-26T10:06:13.999Z</time></trkpt><trkpt lat="45.53294127618346" lon="10.829973060931488"><ele>263.0</ele><time>2026-04-26T10:06:14.999Z</time></trkpt><trkpt lat="45.532892858873765" lon="10.830071149230069"><ele>263.0</ele><time>2026-04-26T10:06:15.999Z</time></trkpt><trkpt lat="45.532845290399315" lon="10.83017322308214"><ele>263.0</ele><time>2026-04-26T10:06:16.999Z</time></trkpt><trkpt lat="45.53278094964444" lon="10.830330172535518"><ele>263.0</ele><time>2026-04-26T10:06:18.999Z</time></trkpt><trkpt lat="45.5327428215775" lon="10.83040893586738"><ele>263.0</ele><time>2026-04-26T10:06:19.999Z</time></trkpt><trkpt lat="45.53268325218824" lon="10.830600142342044"><ele>263.0</ele><time>2026-04-26T10:06:21.999Z</time></trkpt><trkpt lat="45.5326636699316" lon="10.830731113598723"><ele>263.0</ele><time>2026-04-26T10:06:22.999Z</time></trkpt><trkpt lat="45.53264535644967" lon="10.830869020119385"><ele>261.33333333333337</ele><time>2026-04-26T10:06:23.999Z</time></trkpt><trkpt lat="45.532626164127834" lon="10.830990797227214"><ele>259.6666666666667</ele><time>2026-04-26T10:06:24.999Z</time></trkpt><trkpt lat="45.5326028420985" lon="10.831110607126071"><ele>258.0</ele><time>2026-04-26T10:06:25.999Z</time></trkpt><trkpt lat="45.532576492574385" lon="10.831204845853334"><ele>256.3333333333333</ele><time>2026-04-26T10:06:26.999Z</time></trkpt><trkpt lat="45.53253349144934" lon="10.831311742555881"><ele>254.66666666666666</ele><time>2026-04-26T10:06:27.999Z</time></trkpt><trkpt lat="45.53247408697406" lon="10.831406059778168"><ele>253.0</ele><time>2026-04-26T10:06:28.999Z</time></trkpt><trkpt lat="45.53241392431969" lon="10.831518844207396"><ele>253.0</ele><time>2026-04-26T10:06:29.999Z</time></trkpt><trkpt lat="45.532368222400194" lon="10.831617262886454"><ele>253.0</ele><time>2026-04-26T10:06:30.999Z</time></trkpt><trkpt lat="45.532224587814795" lon="10.831919798125975"><ele>253.0</ele><time>2026-04-26T10:06:31.999Z</time></trkpt><trkpt lat="45.53216321400453" lon="10.832045741760075"><ele>253.0</ele><time>2026-04-26T10:06:32.999Z</time></trkpt><trkpt lat="45.53210563394386" lon="10.832182026635282"><ele>252.4</ele><time>2026-04-26T10:06:33.999Z</time></trkpt><trkpt lat="45.532027002867494" lon="10.832332380413549"><ele>251.8</ele><time>2026-04-26T10:06:34.999Z</time></trkpt><trkpt lat="45.53196561361469" lon="10.832453574565108"><ele>251.2</ele><time>2026-04-26T10:06:35.999Z</time></trkpt><trkpt lat="45.531910773881464" lon="10.832564914409955"><ele>250.6</ele><time>2026-04-26T10:06:36.999Z</time></trkpt><trkpt lat="45.53186716468146" lon="10.832652490638646"><ele>250.0</ele><time>2026-04-26T10:06:37.999Z</time></trkpt><trkpt lat="45.53181985194458" lon="10.832726119294495"><ele>249.99999999999997</ele><time>2026-04-26T10:06:38.999Z</time></trkpt><trkpt lat="45.531775492139055" lon="10.832824273311138"><ele>250.0</ele><time>2026-04-26T10:06:39.999Z</time></trkpt><trkpt lat="45.53172267076303" lon="10.832928738032868"><ele>250.0</ele><time>2026-04-26T10:06:40.999Z</time></trkpt><trkpt lat="45.53166818328827" lon="10.833039277722941"><ele>250.0</ele><time>2026-04-26T10:06:41.999Z</time></trkpt><trkpt lat="45.53163020202475" lon="10.833156193319232"><ele>249.99999999999997</ele><time>2026-04-26T10:06:42.999Z</time></trkpt><trkpt lat="45.531613312959664" lon="10.833269070853818"><ele>250.0</ele><time>2026-04-26T10:06:43.999Z</time></trkpt><trkpt lat="45.531600305886066" lon="10.833380855451747"><ele>250.0</ele><time>2026-04-26T10:06:44.999Z</time></trkpt><trkpt lat="45.531585837795916" lon="10.833472498781003"><ele>250.0</ele><time>2026-04-26T10:06:45.999Z</time></trkpt><trkpt lat="45.53154669527079" lon="10.83357812165899"><ele>250.0</ele><time>2026-04-26T10:06:46.999Z</time></trkpt><trkpt lat="45.53148595128299" lon="10.833678553749225"><ele>250.0</ele><time>2026-04-26T10:06:47.999Z</time></trkpt><trkpt lat="45.53140315023675" lon="10.833787705921088"><ele>250.0</ele><time>2026-04-26T10:06:48.999Z</time></trkpt><trkpt lat="45.531334725556576" lon="10.833883769800236"><ele>249.99999999999997</ele><time>2026-04-26T10:06:49.999Z</time></trkpt><trkpt lat="45.53127626137911" lon="10.833965834285747"><ele>250.0</ele><time>2026-04-26T10:06:50.999Z</time></trkpt><trkpt lat="45.53122387543881" lon="10.834044392001305"><ele>250.0</ele><time>2026-04-26T10:06:51.999Z</time></trkpt><trkpt lat="45.53116592897933" lon="10.834169473710169"><ele>250.0</ele><time>2026-04-26T10:06:53.999Z</time></trkpt><trkpt lat="45.53118563855921" lon="10.83431102155197"><ele>249.99999999999997</ele><time>2026-04-26T10:06:55.999Z</time></trkpt><trkpt lat="45.531221371152405" lon="10.834397644875418"><ele>250.0</ele><time>2026-04-26T10:06:56.999Z</time></trkpt><trkpt lat="45.53125637764843" lon="10.834472718209245"><ele>250.49999999999997</ele><time>2026-04-26T10:06:57.999Z</time></trkpt><trkpt lat="45.53129467859443" lon="10.834546081665653"><ele>251.0</ele><time>2026-04-26T10:06:58.999Z</time></trkpt><trkpt lat="45.53131770326561" lon="10.834644283864813"><ele>251.5</ele><time>2026-04-26T10:06:59.999Z</time></trkpt><trkpt lat="45.53132047702496" lon="10.834754881706626"><ele>252.0</ele><time>2026-04-26T10:07:00.999Z</time></trkpt><trkpt lat="45.531249432530856" lon="10.834873398121339"><ele>252.49999999999997</ele><time>2026-04-26T10:07:01.999Z</time></trkpt><trkpt lat="45.531217035834" lon="10.83501358636671"><ele>253.0</ele><time>2026-04-26T10:07:02.999Z</time></trkpt><trkpt lat="45.53117322536412" lon="10.83515052617553"><ele>252.99999999999997</ele><time>2026-04-26T10:07:03.999Z</time></trkpt><trkpt lat="45.531145557799924" lon="10.835266428870924"><ele>253.0</ele><time>2026-04-26T10:07:04.999Z</time></trkpt><trkpt lat="45.53114024955378" lon="10.835369243376768"><ele>253.0</ele><time>2026-04-26T10:07:05.999Z</time></trkpt><trkpt lat="45.53112129843915" lon="10.835472733339612"><ele>253.0</ele><time>2026-04-26T10:07:08Z</time></trkpt><trkpt lat="45.531208224342315" lon="10.835435343536053"><ele>252.99999999999997</ele><time>2026-04-26T10:07:11Z</time></trkpt><trkpt lat="45.53124416070287" lon="10.835276814704097"><ele>253.0</ele><time>2026-04-26T10:07:13Z</time></trkpt><trkpt lat="45.531281289921324" lon="10.835105773580455"><ele>253.0</ele><time>2026-04-26T10:07:14Z</time></trkpt><trkpt lat="45.53133702727653" lon="10.83495073175966"><ele>253.0</ele><time>2026-04-26T10:07:15Z</time></trkpt><trkpt lat="45.53139008105251" lon="10.834813220888803"><ele>253.0</ele><time>2026-04-26T10:07:16Z</time></trkpt><trkpt lat="45.53144893557844" lon="10.8346943868364"><ele>253.0</ele><time>2026-04-26T10:07:17Z</time></trkpt><trkpt lat="45.531528849662934" lon="10.834596805500619"><ele>253.0</ele><time>2026-04-26T10:07:18Z</time></trkpt><trkpt lat="45.531640833474015" lon="10.834501259866004"><ele>253.0</ele><time>2026-04-26T10:07:19Z</time></trkpt><trkpt lat="45.531776966316215" lon="10.834454658113254"><ele>253.0</ele><time>2026-04-26T10:07:20Z</time></trkpt><trkpt lat="45.53189891379208" lon="10.834412501977214"><ele>253.0</ele><time>2026-04-26T10:07:21Z</time></trkpt><trkpt lat="45.532017001609866" lon="10.834359564066578"><ele>253.0</ele><time>2026-04-26T10:07:22Z</time></trkpt><trkpt lat="45.53215380261731" lon="10.834328747192865"><ele>255.66666666666666</ele><time>2026-04-26T10:07:23Z</time></trkpt><trkpt lat="45.53231423207054" lon="10.834261219131928"><ele>258.3333333333333</ele><time>2026-04-26T10:07:24Z</time></trkpt><trkpt lat="45.53249474600165" lon="10.834160295598728"><ele>261.0</ele><time>2026-04-26T10:07:25Z</time></trkpt><trkpt lat="45.532670794464316" lon="10.834055270140025"><ele>261.0</ele><time>2026-04-26T10:07:26Z</time></trkpt><trkpt lat="45.53286025420462" lon="10.833946266934682"><ele>261.0</ele><time>2026-04-26T10:07:27Z</time></trkpt><trkpt lat="45.533067695880206" lon="10.833826593705012"><ele>261.0</ele><time>2026-04-26T10:07:28Z</time></trkpt><trkpt lat="45.533272857318465" lon="10.833713549970971"><ele>263.0</ele><time>2026-04-26T10:07:29Z</time></trkpt><trkpt lat="45.533466391379584" lon="10.833619534643104"><ele>265.0</ele><time>2026-04-26T10:07:30Z</time></trkpt><trkpt lat="45.533636471835955" lon="10.833537825699395"><ele>267.0</ele><time>2026-04-26T10:07:31Z</time></trkpt><trkpt lat="45.53379338745676" lon="10.833458837919569"><ele>267.0</ele><time>2026-04-26T10:07:32Z</time></trkpt><trkpt lat="45.533939926089346" lon="10.833397728150267"><ele>267.0</ele><time>2026-04-26T10:07:33Z</time></trkpt><trkpt lat="45.534079433457336" lon="10.833381183790983"><ele>267.0</ele><time>2026-04-26T10:07:34Z</time></trkpt><trkpt lat="45.53422255972838" lon="10.833436853586518"><ele>267.0</ele><time>2026-04-26T10:07:35Z</time></trkpt><trkpt lat="45.53434994651935" lon="10.833462315599474"><ele>268.6</ele><time>2026-04-26T10:07:36Z</time></trkpt><trkpt lat="45.534450383459564" lon="10.833487494263302"><ele>270.2</ele><time>2026-04-26T10:07:37Z</time></trkpt><trkpt lat="45.534524455513974" lon="10.833489385862244"><ele>271.8</ele><time>2026-04-26T10:07:38Z</time></trkpt><trkpt lat="45.53460721044456" lon="10.83353109391251"><ele>273.4</ele><time>2026-04-26T10:07:40Z</time></trkpt><trkpt lat="45.53465141712059" lon="10.833447617692904"><ele>275.0</ele><time>2026-04-26T10:07:53Z</time></trkpt><trkpt lat="45.53476834881927" lon="10.833372555440537"><ele>275.0</ele><time>2026-04-26T10:07:55Z</time></trkpt><trkpt lat="45.53487613297068" lon="10.833315230272671"><ele>275.0</ele><time>2026-04-26T10:07:56Z</time></trkpt><trkpt lat="45.53501841514274" lon="10.833247197459004"><ele>275.0</ele><time>2026-04-26T10:07:57Z</time></trkpt><trkpt lat="45.535163124884555" lon="10.833198372817591"><ele>275.0</ele><time>2026-04-26T10:07:58Z</time></trkpt><trkpt lat="45.53531088855662" lon="10.833156675772887"><ele>279.33333333333337</ele><time>2026-04-26T10:07:59Z</time></trkpt><trkpt lat="45.53545464834217" lon="10.833105776428786"><ele>283.6666666666667</ele><time>2026-04-26T10:08:00Z</time></trkpt><trkpt lat="45.53558555972983" lon="10.833007244709586"><ele>288.0</ele><time>2026-04-26T10:08:01Z</time></trkpt><trkpt lat="45.53571171276581" lon="10.832850212186479"><ele>288.0</ele><time>2026-04-26T10:08:02Z</time></trkpt><trkpt lat="45.53582911081848" lon="10.832667660901732"><ele>288.0</ele><time>2026-04-26T10:08:03Z</time></trkpt><trkpt lat="45.53594837715401" lon="10.832493803024079"><ele>288.0</ele><time>2026-04-26T10:08:04Z</time></trkpt><trkpt lat="45.53605972245556" lon="10.832377828342972"><ele>287.0</ele><time>2026-04-26T10:08:05Z</time></trkpt><trkpt lat="45.53618226061721" lon="10.83231094749269"><ele>286.0</ele><time>2026-04-26T10:08:06Z</time></trkpt><trkpt lat="45.53631420292993" lon="10.832307765859152"><ele>285.0</ele><time>2026-04-26T10:08:07Z</time></trkpt><trkpt lat="45.53644873710283" lon="10.83236319506877"><ele>284.0</ele><time>2026-04-26T10:08:08Z</time></trkpt><trkpt lat="45.536570664254555" lon="10.832481343495989"><ele>284.0</ele><time>2026-04-26T10:08:09Z</time></trkpt><trkpt lat="45.53672677800442" lon="10.83262192125865"><ele>284.0</ele><time>2026-04-26T10:08:10Z</time></trkpt><trkpt lat="45.53690501890991" lon="10.832745853782198"><ele>284.0</ele><time>2026-04-26T10:08:11Z</time></trkpt><trkpt lat="45.53706891762767" lon="10.832838046204683"><ele>288.25</ele><time>2026-04-26T10:08:12Z</time></trkpt><trkpt lat="45.537212161917004" lon="10.832912421212498"><ele>292.5</ele><time>2026-04-26T10:08:13Z</time></trkpt><trkpt lat="45.53734557829459" lon="10.832936407923736"><ele>296.75</ele><time>2026-04-26T10:08:14Z</time></trkpt><trkpt lat="45.53749316350349" lon="10.832910774655968"><ele>301.0</ele><time>2026-04-26T10:08:15Z</time></trkpt><trkpt lat="45.537657543293705" lon="10.832838066512988"><ele>301.0</ele><time>2026-04-26T10:08:16Z</time></trkpt><trkpt lat="45.53782340028118" lon="10.83275045190699"><ele>301.0</ele><time>2026-04-26T10:08:17Z</time></trkpt><trkpt lat="45.53797961877252" lon="10.832645774872859"><ele>301.0</ele><time>2026-04-26T10:08:18Z</time></trkpt><trkpt lat="45.53812865732087" lon="10.832520696431377"><ele>299.0</ele><time>2026-04-26T10:08:19Z</time></trkpt><trkpt lat="45.53826049353775" lon="10.832413202277726"><ele>297.0</ele><time>2026-04-26T10:08:20Z</time></trkpt><trkpt lat="45.538397398698685" lon="10.83234634367862"><ele>295.0</ele><time>2026-04-26T10:08:21Z</time></trkpt><trkpt lat="45.53855794659563" lon="10.832310831035874"><ele>295.0</ele><time>2026-04-26T10:08:22Z</time></trkpt><trkpt lat="45.53871415898374" lon="10.832331096067469"><ele>295.0</ele><time>2026-04-26T10:08:23Z</time></trkpt><trkpt lat="45.53886906971565" lon="10.8324058649096"><ele>295.0</ele><time>2026-04-26T10:08:24Z</time></trkpt><trkpt lat="45.539035055254" lon="10.832545867787395"><ele>301.3333333333333</ele><time>2026-04-26T10:08:25Z</time></trkpt><trkpt lat="45.53919174507584" lon="10.83269428302379"><ele>307.6666666666667</ele><time>2026-04-26T10:08:26Z</time></trkpt><trkpt lat="45.53932019296753" lon="10.832809163509308"><ele>314.0</ele><time>2026-04-26T10:08:27Z</time></trkpt><trkpt lat="45.53941822609595" lon="10.832951225261024"><ele>314.0</ele><time>2026-04-26T10:08:28Z</time></trkpt><trkpt lat="45.53948078250775" lon="10.833129045315058"><ele>314.0</ele><time>2026-04-26T10:08:29Z</time></trkpt><trkpt lat="45.53951385872883" lon="10.833321289428037"><ele>314.0</ele><time>2026-04-26T10:08:30Z</time></trkpt><trkpt lat="45.53954887119583" lon="10.833484563538342"><ele>314.0</ele><time>2026-04-26T10:08:31Z</time></trkpt><trkpt lat="45.53962635555135" lon="10.833633941980226"><ele>315.0</ele><time>2026-04-26T10:08:32Z</time></trkpt><trkpt lat="45.53974248433558" lon="10.83374065268575"><ele>316.0</ele><time>2026-04-26T10:08:33Z</time></trkpt><trkpt lat="45.539887521565284" lon="10.833802152651785"><ele>317.0</ele><time>2026-04-26T10:08:34Z</time></trkpt><trkpt lat="45.54005106894796" lon="10.833832463339004"><ele>317.0</ele><time>2026-04-26T10:08:35Z</time></trkpt><trkpt lat="45.54023664927334" lon="10.833862966010805"><ele>317.0</ele><time>2026-04-26T10:08:36Z</time></trkpt><trkpt lat="45.540442406204285" lon="10.833882028365501"><ele>317.0</ele><time>2026-04-26T10:08:37Z</time></trkpt><trkpt lat="45.540660275875986" lon="10.833902460934418"><ele>318.6666666666667</ele><time>2026-04-26T10:08:38Z</time></trkpt><trkpt lat="45.54087186101831" lon="10.833926969562262"><ele>320.3333333333333</ele><time>2026-04-26T10:08:39Z</time></trkpt><trkpt lat="45.54109328790968" lon="10.833950573781602"><ele>322.0</ele><time>2026-04-26T10:08:40Z</time></trkpt><trkpt lat="45.54128811295147" lon="10.833963682056009"><ele>322.66666666666663</ele><time>2026-04-26T10:08:41Z</time></trkpt><trkpt lat="45.5414669932392" lon="10.833977956098169"><ele>323.3333333333333</ele><time>2026-04-26T10:08:42Z</time></trkpt><trkpt lat="45.54163294935996" lon="10.833953557122216"><ele>324.0</ele><time>2026-04-26T10:08:43Z</time></trkpt><trkpt lat="45.54178304875433" lon="10.833993895996047"><ele>324.0</ele><time>2026-04-26T10:08:44Z</time></trkpt><trkpt lat="45.54193409738338" lon="10.834080010766966"><ele>324.0</ele><time>2026-04-26T10:08:45Z</time></trkpt><trkpt lat="45.54207286001947" lon="10.834220063809873"><ele>324.0</ele><time>2026-04-26T10:08:46Z</time></trkpt><trkpt lat="45.54221498592649" lon="10.834373465412757"><ele>327.0</ele><time>2026-04-26T10:08:47Z</time></trkpt><trkpt lat="45.54236385237433" lon="10.834496030829607"><ele>330.0</ele><time>2026-04-26T10:08:48Z</time></trkpt><trkpt lat="45.54251875771353" lon="10.834573547733001"><ele>333.0</ele><time>2026-04-26T10:08:49Z</time></trkpt><trkpt lat="45.54269133002773" lon="10.834630366266971"><ele>333.0</ele><time>2026-04-26T10:08:50Z</time></trkpt><trkpt lat="45.54286403584858" lon="10.834677946899722"><ele>333.0</ele><time>2026-04-26T10:08:51Z</time></trkpt><trkpt lat="45.54303907173233" lon="10.834721611183241"><ele>333.0</ele><time>2026-04-26T10:08:52Z</time></trkpt><trkpt lat="45.54322133581572" lon="10.834754542982143"><ele>332.6666666666667</ele><time>2026-04-26T10:08:53Z</time></trkpt><trkpt lat="45.54341846337454" lon="10.834780247494566"><ele>332.33333333333337</ele><time>2026-04-26T10:08:54Z</time></trkpt><trkpt lat="45.54363562708801" lon="10.834795206159969"><ele>332.0</ele><time>2026-04-26T10:08:55Z</time></trkpt><trkpt lat="45.5438393648163" lon="10.834796496300326"><ele>333.33333333333337</ele><time>2026-04-26T10:08:56Z</time></trkpt><trkpt lat="45.54402420347361" lon="10.834789832718531"><ele>334.6666666666667</ele><time>2026-04-26T10:08:57Z</time></trkpt><trkpt lat="45.54418868233656" lon="10.834777864371455"><ele>336.0</ele><time>2026-04-26T10:08:58Z</time></trkpt><trkpt lat="45.544336612341446" lon="10.834775518022695"><ele>336.0</ele><time>2026-04-26T10:08:59Z</time></trkpt><trkpt lat="45.54448896561657" lon="10.834790243206745"><ele>336.0</ele><time>2026-04-26T10:09:00Z</time></trkpt><trkpt lat="45.54464129431707" lon="10.834829275450218"><ele>336.0</ele><time>2026-04-26T10:09:01Z</time></trkpt><trkpt lat="45.544790303187355" lon="10.834890062834557"><ele>335.6666666666667</ele><time>2026-04-26T10:09:02Z</time></trkpt><trkpt lat="45.544935344694565" lon="10.834981319049884"><ele>335.33333333333337</ele><time>2026-04-26T10:09:03Z</time></trkpt><trkpt lat="45.545078086096716" lon="10.835117448076039"><ele>335.0</ele><time>2026-04-26T10:09:04Z</time></trkpt><trkpt lat="45.54521392402202" lon="10.83528475395748"><ele>336.6666666666667</ele><time>2026-04-26T10:09:05Z</time></trkpt><trkpt lat="45.54533982650983" lon="10.835483275560502"><ele>338.3333333333333</ele><time>2026-04-26T10:09:06Z</time></trkpt><trkpt lat="45.54544471687503" lon="10.835699986374141"><ele>340.0</ele><time>2026-04-26T10:09:07Z</time></trkpt><trkpt lat="45.545525081795624" lon="10.835930564587018"><ele>341.0</ele><time>2026-04-26T10:09:08Z</time></trkpt><trkpt lat="45.54550367717375" lon="10.836101738418625"><ele>342.0</ele><time>2026-04-26T10:09:09Z</time></trkpt><trkpt lat="45.545485980128795" lon="10.836252206837907"><ele>343.0</ele><time>2026-04-26T10:09:10Z</time></trkpt><trkpt lat="45.545402776730526" lon="10.836416395294416"><ele>344.0</ele><time>2026-04-26T10:09:11Z</time></trkpt><trkpt lat="45.545282642224876" lon="10.836556803886243"><ele>346.33333333333337</ele><time>2026-04-26T10:09:12Z</time></trkpt><trkpt lat="45.5451304148399" lon="10.83666175593145"><ele>348.6666666666667</ele><time>2026-04-26T10:09:13Z</time></trkpt><trkpt lat="45.544959713954526" lon="10.836734646811516"><ele>351.0</ele><time>2026-04-26T10:09:14Z</time></trkpt><trkpt lat="45.544768897225026" lon="10.836806111352796"><ele>351.0</ele><time>2026-04-26T10:09:15Z</time></trkpt><trkpt lat="45.54457767990219" lon="10.836880328903332"><ele>351.0</ele><time>2026-04-26T10:09:16Z</time></trkpt><trkpt lat="45.54438867316794" lon="10.836956245650251"><ele>351.0</ele><time>2026-04-26T10:09:17Z</time></trkpt><trkpt lat="45.5442222235934" lon="10.83702601079735"><ele>352.25</ele><time>2026-04-26T10:09:18Z</time></trkpt><trkpt lat="45.544074265230556" lon="10.837087308947812"><ele>353.5</ele><time>2026-04-26T10:09:19Z</time></trkpt><trkpt lat="45.54393678055113" lon="10.837150517526581"><ele>354.75</ele><time>2026-04-26T10:09:20Z</time></trkpt><trkpt lat="45.54381923182856" lon="10.837203545027197"><ele>356.0</ele><time>2026-04-26T10:09:21Z</time></trkpt><trkpt lat="45.543709218653206" lon="10.837262004945416"><ele>358.0</ele><time>2026-04-26T10:09:22Z</time></trkpt><trkpt lat="45.54361440045694" lon="10.837325170134438"><ele>360.0</ele><time>2026-04-26T10:09:23Z</time></trkpt><trkpt lat="45.54352959870934" lon="10.837394631709547"><ele>362.0</ele><time>2026-04-26T10:09:24Z</time></trkpt><trkpt lat="45.54346144480841" lon="10.837480449107138"><ele>364.0</ele><time>2026-04-26T10:09:25Z</time></trkpt><trkpt lat="45.54340441101147" lon="10.837584853516159"><ele>366.0</ele><time>2026-04-26T10:09:26Z</time></trkpt><trkpt lat="45.543345078167846" lon="10.837720368687194"><ele>366.5</ele><time>2026-04-26T10:09:27Z</time></trkpt><trkpt lat="45.54327997325313" lon="10.837871904808658"><ele>367.0</ele><time>2026-04-26T10:09:28Z</time></trkpt><trkpt lat="45.54321599275276" lon="10.838017373193871"><ele>367.5</ele><time>2026-04-26T10:09:29Z</time></trkpt><trkpt lat="45.54314395837944" lon="10.838156830125502"><ele>368.0</ele><time>2026-04-26T10:09:30Z</time></trkpt><trkpt lat="45.54304523124645" lon="10.838272345842867"><ele>368.0</ele><time>2026-04-26T10:09:31Z</time></trkpt><trkpt lat="45.54292610424586" lon="10.838370539700827"><ele>368.0</ele><time>2026-04-26T10:09:32Z</time></trkpt><trkpt lat="45.54282834550074" lon="10.838449827963805"><ele>368.0</ele><time>2026-04-26T10:09:33Z</time></trkpt><trkpt lat="45.5427576132017" lon="10.838569573321655"><ele>368.0</ele><time>2026-04-26T10:09:34Z</time></trkpt><trkpt lat="45.54273243695396" lon="10.838732053780342"><ele>372.0</ele><time>2026-04-26T10:09:35Z</time></trkpt><trkpt lat="45.54274528579881" lon="10.838910467039248"><ele>376.0</ele><time>2026-04-26T10:09:36Z</time></trkpt><trkpt lat="45.54278863897122" lon="10.839096188901005"><ele>380.0</ele><time>2026-04-26T10:09:37Z</time></trkpt><trkpt lat="45.54283070424905" lon="10.839277962985138"><ele>384.0</ele><time>2026-04-26T10:09:38Z</time></trkpt><trkpt lat="45.54286118228023" lon="10.839436577301571"><ele>384.4</ele><time>2026-04-26T10:09:39Z</time></trkpt><trkpt lat="45.5428955332238" lon="10.83957087476133"><ele>384.79999999999995</ele><time>2026-04-26T10:09:40Z</time></trkpt><trkpt lat="45.54294807029641" lon="10.839682435887536"><ele>385.20000000000005</ele><time>2026-04-26T10:09:41Z</time></trkpt><trkpt lat="45.543011379897195" lon="10.839793348935073"><ele>385.6</ele><time>2026-04-26T10:09:42Z</time></trkpt><trkpt lat="45.5430977625568" lon="10.839827061943778"><ele>386.0</ele><time>2026-04-26T10:09:43Z</time></trkpt><trkpt lat="45.543167092815494" lon="10.839842833559636"><ele>386.0</ele><time>2026-04-26T10:09:44Z</time></trkpt><trkpt lat="45.54308240728201" lon="10.839800422535479"><ele>386.0</ele><time>2026-04-26T10:10:02.999Z</time></trkpt><trkpt lat="45.54299891840858" lon="10.839744536132672"><ele>386.0</ele><time>2026-04-26T10:10:04.999Z</time></trkpt><trkpt lat="45.54291023297485" lon="10.839650165795492"><ele>386.0</ele><time>2026-04-26T10:10:06.999Z</time></trkpt><trkpt lat="45.54285378636605" lon="10.839539053500557"><ele>386.0</ele><time>2026-04-26T10:10:07.999Z</time></trkpt><trkpt lat="45.54280735764532" lon="10.83936103881772"><ele>385.6</ele><time>2026-04-26T10:10:08.999Z</time></trkpt><trkpt lat="45.5427658370191" lon="10.839205873914986"><ele>385.20000000000005</ele><time>2026-04-26T10:10:09.999Z</time></trkpt><trkpt lat="45.542728570855644" lon="10.839066608870306"><ele>384.79999999999995</ele><time>2026-04-26T10:10:10.999Z</time></trkpt><trkpt lat="45.54269214912707" lon="10.838933368961753"><ele>384.4</ele><time>2026-04-26T10:10:11.999Z</time></trkpt><trkpt lat="45.5426561576462" lon="10.838816844392184"><ele>384.0</ele><time>2026-04-26T10:10:12.999Z</time></trkpt><trkpt lat="45.542609473129005" lon="10.838677581034188"><ele>384.0</ele><time>2026-04-26T10:10:13.999Z</time></trkpt><trkpt lat="45.54257849167737" lon="10.838559855450061"><ele>384.0</ele><time>2026-04-26T10:10:14.999Z</time></trkpt><trkpt lat="45.54301964853133" lon="10.83833387945912"><ele>380.0</ele><time>2026-04-26T10:10:16.999Z</time></trkpt><trkpt lat="45.54312482008011" lon="10.838254657748315"><ele>376.0</ele><time>2026-04-26T10:10:17.999Z</time></trkpt><trkpt lat="45.54320798146356" lon="10.838151548944378"><ele>372.0</ele><time>2026-04-26T10:10:18.999Z</time></trkpt><trkpt lat="45.5432765707391" lon="10.838030857857957"><ele>368.0</ele><time>2026-04-26T10:10:19.999Z</time></trkpt><trkpt lat="45.543330348237745" lon="10.837869512266444"><ele>368.0</ele><time>2026-04-26T10:10:20.999Z</time></trkpt><trkpt lat="45.543387859091645" lon="10.837691003511846"><ele>368.0</ele><time>2026-04-26T10:10:21.999Z</time></trkpt><trkpt lat="45.54346890611942" lon="10.83751884613245"><ele>368.0</ele><time>2026-04-26T10:10:22.999Z</time></trkpt><trkpt lat="45.54358349722435" lon="10.837379707951884"><ele>368.0</ele><time>2026-04-26T10:10:23.999Z</time></trkpt><trkpt lat="45.543738526044926" lon="10.837265804887215"><ele>364.0</ele><time>2026-04-26T10:10:24.999Z</time></trkpt><trkpt lat="45.54394004545773" lon="10.837164325418012"><ele>360.0</ele><time>2026-04-26T10:10:25.999Z</time></trkpt><trkpt lat="45.54414918581203" lon="10.837081197104618"><ele>356.0</ele><time>2026-04-26T10:10:26.999Z</time></trkpt><trkpt lat="45.544339376278096" lon="10.837010345041937"><ele>356.0</ele><time>2026-04-26T10:10:27.999Z</time></trkpt><trkpt lat="45.54450950660097" lon="10.836950335168229"><ele>356.0</ele><time>2026-04-26T10:10:28.999Z</time></trkpt><trkpt lat="45.544674264058024" lon="10.8368917884042"><ele>356.0</ele><time>2026-04-26T10:10:29.999Z</time></trkpt><trkpt lat="45.544829468288924" lon="10.836831925341727"><ele>355.0</ele><time>2026-04-26T10:10:30.999Z</time></trkpt><trkpt lat="45.54498239482848" lon="10.836770508216613"><ele>354.0</ele><time>2026-04-26T10:10:31.999Z</time></trkpt><trkpt lat="45.54512551313433" lon="10.836706996008184"><ele>353.0</ele><time>2026-04-26T10:10:32.999Z</time></trkpt><trkpt lat="45.54524800533243" lon="10.836626477190594"><ele>352.0</ele><time>2026-04-26T10:10:33.999Z</time></trkpt><trkpt lat="45.54536703519135" lon="10.836511302571374"><ele>350.0</ele><time>2026-04-26T10:10:34.999Z</time></trkpt><trkpt lat="45.545459005297566" lon="10.836367290668102"><ele>348.0</ele><time>2026-04-26T10:10:35.999Z</time></trkpt><trkpt lat="45.5455216825833" lon="10.836195486359376"><ele>346.0</ele><time>2026-04-26T10:10:36.999Z</time></trkpt><trkpt lat="45.5455461712811" lon="10.836002440835133"><ele>344.0</ele><time>2026-04-26T10:10:37.999Z</time></trkpt><trkpt lat="45.54552148370902" lon="10.835818524567651"><ele>344.6666666666667</ele><time>2026-04-26T10:10:38.999Z</time></trkpt><trkpt lat="45.545453802437876" lon="10.835628643993669"><ele>345.3333333333333</ele><time>2026-04-26T10:10:39.999Z</time></trkpt><trkpt lat="45.5453532371436" lon="10.835433407785436"><ele>346.0</ele><time>2026-04-26T10:10:40.999Z</time></trkpt><trkpt lat="45.5452359007832" lon="10.835249803666585"><ele>342.3333333333333</ele><time>2026-04-26T10:10:41.999Z</time></trkpt><trkpt lat="45.5451152343808" lon="10.83509697573101"><ele>338.6666666666667</ele><time>2026-04-26T10:10:42.999Z</time></trkpt><trkpt lat="45.54499504854833" lon="10.834976493490945"><ele>335.0</ele><time>2026-04-26T10:10:43.999Z</time></trkpt><trkpt lat="45.54486603415641" lon="10.834877221003607"><ele>335.0</ele><time>2026-04-26T10:10:44.999Z</time></trkpt><trkpt lat="45.54473511661185" lon="10.834814479178931"><ele>335.0</ele><time>2026-04-26T10:10:45.999Z</time></trkpt><trkpt lat="45.544612294575415" lon="10.834781008610245"><ele>335.0</ele><time>2026-04-26T10:10:46.999Z</time></trkpt><trkpt lat="45.54450446380093" lon="10.834758062813156"><ele>335.0</ele><time>2026-04-26T10:10:47.999Z</time></trkpt><trkpt lat="45.54441248056265" lon="10.834741652454206"><ele>335.0</ele><time>2026-04-26T10:10:48.999Z</time></trkpt><trkpt lat="45.54433969952947" lon="10.834699755208964"><ele>335.0</ele><time>2026-04-26T10:10:50.999Z</time></trkpt><trkpt lat="45.54440636883084" lon="10.834681009432652"><ele>335.0</ele><time>2026-04-26T10:10:53.999Z</time></trkpt><trkpt lat="45.544491347745144" lon="10.834697272412525"><ele>335.0</ele><time>2026-04-26T10:10:55.999Z</time></trkpt><trkpt lat="45.5445719387831" lon="10.834712703446174"><ele>335.0</ele><time>2026-04-26T10:10:56.999Z</time></trkpt><trkpt lat="45.54467631011757" lon="10.83470818814714"><ele>335.0</ele><time>2026-04-26T10:10:57.999Z</time></trkpt><trkpt lat="45.54477338827957" lon="10.834732206067113"><ele>335.0</ele><time>2026-04-26T10:10:58.999Z</time></trkpt><trkpt lat="45.54487584749855" lon="10.834759393746332"><ele>335.0</ele><time>2026-04-26T10:10:59.999Z</time></trkpt><trkpt lat="45.544961574953284" lon="10.83480127210325"><ele>335.0</ele><time>2026-04-26T10:11:00.999Z</time></trkpt><trkpt lat="45.54505427916512" lon="10.834844776436183"><ele>335.0</ele><time>2026-04-26T10:11:01.999Z</time></trkpt><trkpt lat="45.54514172685292" lon="10.834892920888059"><ele>335.0</ele><time>2026-04-26T10:11:02.999Z</time></trkpt><trkpt lat="45.54523807618284" lon="10.834943964477757"><ele>335.0</ele><time>2026-04-26T10:11:03.999Z</time></trkpt><trkpt lat="45.545323460140935" lon="10.834994078593343"><ele>335.0</ele><time>2026-04-26T10:11:04.999Z</time></trkpt><trkpt lat="45.54538634319472" lon="10.835045046825368"><ele>335.0</ele><time>2026-04-26T10:11:05.999Z</time></trkpt><trkpt lat="45.545446313277864" lon="10.835113491386243"><ele>335.0</ele><time>2026-04-26T10:11:06.999Z</time></trkpt><trkpt lat="45.54554016815635" lon="10.835186397293581"><ele>335.0</ele><time>2026-04-26T10:11:07.999Z</time></trkpt><trkpt lat="45.54563088467029" lon="10.835272499742528"><ele>336.0</ele><time>2026-04-26T10:11:08.999Z</time></trkpt><trkpt lat="45.54571556063933" lon="10.83535523794968"><ele>337.0</ele><time>2026-04-26T10:11:09.999Z</time></trkpt><trkpt lat="45.5458188033909" lon="10.835441601775946"><ele>338.0</ele><time>2026-04-26T10:11:10.999Z</time></trkpt><trkpt lat="45.54589048299272" lon="10.835495615530435"><ele>339.0</ele><time>2026-04-26T10:11:11.999Z</time></trkpt><trkpt lat="45.545986943449606" lon="10.835569645156749"><ele>340.0</ele><time>2026-04-26T10:11:13.999Z</time></trkpt><trkpt lat="45.54606943287887" lon="10.8355907767812"><ele>340.0</ele><time>2026-04-26T10:12:18Z</time></trkpt><trkpt lat="45.54618410075179" lon="10.835626208266564"><ele>340.0</ele><time>2026-04-26T10:12:20Z</time></trkpt><trkpt lat="45.54625956988156" lon="10.835653359656076"><ele>340.0</ele><time>2026-04-26T10:12:21Z</time></trkpt><trkpt lat="45.54634983083536" lon="10.835675325766104"><ele>340.0</ele><time>2026-04-26T10:12:22Z</time></trkpt><trkpt lat="45.54644825616401" lon="10.835702890781283"><ele>340.0</ele><time>2026-04-26T10:12:23Z</time></trkpt><trkpt lat="45.546569324843624" lon="10.835736614298828"><ele>338.0</ele><time>2026-04-26T10:12:24Z</time></trkpt><trkpt lat="45.546690560966304" lon="10.835781631813063"><ele>336.0</ele><time>2026-04-26T10:12:25Z</time></trkpt><trkpt lat="45.54682265588078" lon="10.835831335072433"><ele>334.0</ele><time>2026-04-26T10:12:26Z</time></trkpt><trkpt lat="45.54696888910281" lon="10.835888218516526"><ele>332.0</ele><time>2026-04-26T10:12:27Z</time></trkpt><trkpt lat="45.547107519077386" lon="10.835942310987106"><ele>332.40000000000003</ele><time>2026-04-26T10:12:28Z</time></trkpt><trkpt lat="45.54723301073381" lon="10.835990471797508"><ele>332.8</ele><time>2026-04-26T10:12:29Z</time></trkpt><trkpt lat="45.547345613924335" lon="10.836027382353155"><ele>333.2</ele><time>2026-04-26T10:12:30Z</time></trkpt><trkpt lat="45.54745213635344" lon="10.836061798054958"><ele>333.6</ele><time>2026-04-26T10:12:31Z</time></trkpt><trkpt lat="45.54753500672448" lon="10.836065066680316"><ele>334.0</ele><time>2026-04-26T10:12:32Z</time></trkpt><trkpt lat="45.54761938545104" lon="10.836074778926262"><ele>334.0</ele><time>2026-04-26T10:12:33Z</time></trkpt><trkpt lat="45.54771303268375" lon="10.836100530339944"><ele>334.0</ele><time>2026-04-26T10:12:34Z</time></trkpt><trkpt lat="45.54779339883179" lon="10.836110541163233"><ele>334.0</ele><time>2026-04-26T10:12:35Z</time></trkpt><trkpt lat="45.5478927235909" lon="10.836112284950968"><ele>334.0</ele><time>2026-04-26T10:12:37Z</time></trkpt><trkpt lat="45.547970093627264" lon="10.836147785552896"><ele>334.0</ele><time>2026-04-26T10:12:40Z</time></trkpt><trkpt lat="45.54804717647327" lon="10.836211404881958"><ele>334.0</ele><time>2026-04-26T10:12:42Z</time></trkpt><trkpt lat="45.54810338668949" lon="10.836258637123544"><ele>333.5</ele><time>2026-04-26T10:12:43Z</time></trkpt><trkpt lat="45.54816836335865" lon="10.836312886939856"><ele>333.0</ele><time>2026-04-26T10:12:44Z</time></trkpt><trkpt lat="45.54823138227171" lon="10.83638317772197"><ele>332.5</ele><time>2026-04-26T10:12:45Z</time></trkpt><trkpt lat="45.5482884191664" lon="10.836463757718457"><ele>332.0</ele><time>2026-04-26T10:12:46Z</time></trkpt><trkpt lat="45.54833238966671" lon="10.83655629792508"><ele>331.5</ele><time>2026-04-26T10:12:47Z</time></trkpt><trkpt lat="45.548363740124124" lon="10.836679398339193"><ele>331.0</ele><time>2026-04-26T10:12:48Z</time></trkpt><trkpt lat="45.54840534690515" lon="10.836802729496931"><ele>331.8</ele><time>2026-04-26T10:12:49Z</time></trkpt><trkpt lat="45.54845472145412" lon="10.836887492777423"><ele>332.6</ele><time>2026-04-26T10:12:50Z</time></trkpt><trkpt lat="45.54855468288221" lon="10.836937359223652"><ele>333.4</ele><time>2026-04-26T10:12:52Z</time></trkpt><trkpt lat="45.548634020170546" lon="10.83691848123574"><ele>334.2</ele><time>2026-04-26T10:12:54Z</time></trkpt><trkpt lat="45.548702837327646" lon="10.836840524418099"><ele>335.0</ele><time>2026-04-26T10:12:56Z</time></trkpt><trkpt lat="45.54876578810459" lon="10.836731219614428"><ele>335.0</ele><time>2026-04-26T10:12:58Z</time></trkpt><trkpt lat="45.54880543654959" lon="10.836657706272367"><ele>335.0</ele><time>2026-04-26T10:12:59Z</time></trkpt><trkpt lat="45.54885144304825" lon="10.83656971377615"><ele>335.0</ele><time>2026-04-26T10:13:00Z</time></trkpt><trkpt lat="45.548885960713115" lon="10.836491345869245"><ele>335.0</ele><time>2026-04-26T10:13:01Z</time></trkpt><trkpt lat="45.54893520626433" lon="10.836397220927584"><ele>335.0</ele><time>2026-04-26T10:13:02Z</time></trkpt><trkpt lat="45.54898505313085" lon="10.836300485547309"><ele>335.0</ele><time>2026-04-26T10:13:03Z</time></trkpt><trkpt lat="45.54904255071022" lon="10.836185152627902"><ele>335.0</ele><time>2026-04-26T10:13:04Z</time></trkpt><trkpt lat="45.54910542396326" lon="10.836050090835736"><ele>335.0</ele><time>2026-04-26T10:13:05Z</time></trkpt><trkpt lat="45.549159449291714" lon="10.835947235429776"><ele>335.0</ele><time>2026-04-26T10:13:06Z</time></trkpt><trkpt lat="45.549220853238424" lon="10.835845276072297"><ele>335.0</ele><time>2026-04-26T10:13:07Z</time></trkpt><trkpt lat="45.549301417309366" lon="10.835720831936397"><ele>335.0</ele><time>2026-04-26T10:13:08Z</time></trkpt><trkpt lat="45.549386803241426" lon="10.835596100942775"><ele>334.4</ele><time>2026-04-26T10:13:09Z</time></trkpt><trkpt lat="45.54946183915171" lon="10.835489237049512"><ele>333.8</ele><time>2026-04-26T10:13:10Z</time></trkpt><trkpt lat="45.54953714101739" lon="10.83539387507911"><ele>333.20000000000005</ele><time>2026-04-26T10:13:11Z</time></trkpt><trkpt lat="45.549614604938796" lon="10.835310816604661"><ele>332.6</ele><time>2026-04-26T10:13:12Z</time></trkpt><trkpt lat="45.54970244506849" lon="10.835228475411267"><ele>332.0</ele><time>2026-04-26T10:13:13Z</time></trkpt><trkpt lat="45.54978984663453" lon="10.835140199146888"><ele>329.6</ele><time>2026-04-26T10:13:14Z</time></trkpt><trkpt lat="45.54985807716109" lon="10.835075266618874"><ele>327.20000000000005</ele><time>2026-04-26T10:13:15Z</time></trkpt><trkpt lat="45.54994371077264" lon="10.83500848445238"><ele>324.8</ele><time>2026-04-26T10:13:16Z</time></trkpt><trkpt lat="45.55008603933873" lon="10.834960115924192"><ele>322.4</ele><time>2026-04-26T10:13:18Z</time></trkpt><trkpt lat="45.55017238165337" lon="10.83497502974678"><ele>320.0</ele><time>2026-04-26T10:13:19Z</time></trkpt><trkpt lat="45.550251925462" lon="10.835023836082621"><ele>320.0</ele><time>2026-04-26T10:13:20Z</time></trkpt><trkpt lat="45.55035121552413" lon="10.835113703495857"><ele>320.0</ele><time>2026-04-26T10:13:21Z</time></trkpt><trkpt lat="45.55046692587552" lon="10.835179270431404"><ele>320.0</ele><time>2026-04-26T10:13:22Z</time></trkpt><trkpt lat="45.550580976687186" lon="10.835257653081527"><ele>320.0</ele><time>2026-04-26T10:13:23Z</time></trkpt><trkpt lat="45.55069662231711" lon="10.83533055238231"><ele>323.0</ele><time>2026-04-26T10:13:24Z</time></trkpt><trkpt lat="45.55082449473239" lon="10.835412497880252"><ele>326.0</ele><time>2026-04-26T10:13:25Z</time></trkpt><trkpt lat="45.5509022190694" lon="10.835457356364266"><ele>329.0</ele><time>2026-04-26T10:13:26Z</time></trkpt><trkpt lat="45.551010781209264" lon="10.835524338059193"><ele>332.0</ele><time>2026-04-26T10:13:27Z</time></trkpt><trkpt lat="45.551129605394586" lon="10.835589807229095"><ele>331.20000000000005</ele><time>2026-04-26T10:13:28Z</time></trkpt><trkpt lat="45.551246543308054" lon="10.835645758157193"><ele>330.4</ele><time>2026-04-26T10:13:29Z</time></trkpt><trkpt lat="45.55134694990937" lon="10.835697462006905"><ele>329.6</ele><time>2026-04-26T10:13:30Z</time></trkpt><trkpt lat="45.55144059912772" lon="10.835746933224836"><ele>328.79999999999995</ele><time>2026-04-26T10:13:31Z</time></trkpt><trkpt lat="45.55152275007768" lon="10.83580419195307"><ele>328.0</ele><time>2026-04-26T10:13:32Z</time></trkpt><trkpt lat="45.55159945524663" lon="10.835836799803372"><ele>328.0</ele><time>2026-04-26T10:13:33Z</time></trkpt><trkpt lat="45.55168042759126" lon="10.835843746396574"><ele>328.0</ele><time>2026-04-26T10:13:34Z</time></trkpt><trkpt lat="45.55178349814343" lon="10.835839146922005"><ele>328.0</ele><time>2026-04-26T10:13:35Z</time></trkpt><trkpt lat="45.55190159432657" lon="10.835830020670794"><ele>328.0</ele><time>2026-04-26T10:13:36Z</time></trkpt><trkpt lat="45.552028172898964" lon="10.835820797314891"><ele>328.0</ele><time>2026-04-26T10:13:37Z</time></trkpt><trkpt lat="45.55216175418626" lon="10.835814782183514"><ele>327.25</ele><time>2026-04-26T10:13:38Z</time></trkpt><trkpt lat="45.55230210614006" lon="10.835815075293699"><ele>326.5</ele><time>2026-04-26T10:13:39Z</time></trkpt><trkpt lat="45.55243885028847" lon="10.835827943153795"><ele>325.75</ele><time>2026-04-26T10:13:40Z</time></trkpt><trkpt lat="45.55255832232094" lon="10.835841013442735"><ele>325.0</ele><time>2026-04-26T10:13:41Z</time></trkpt><trkpt lat="45.552670919869804" lon="10.835853795272218"><ele>325.0</ele><time>2026-04-26T10:13:42Z</time></trkpt><trkpt lat="45.55277321896001" lon="10.835869036261988"><ele>325.0</ele><time>2026-04-26T10:13:43Z</time></trkpt><trkpt lat="45.55286404411338" lon="10.83588340866911"><ele>325.0</ele><time>2026-04-26T10:13:44Z</time></trkpt><trkpt lat="45.552967967563305" lon="10.83590366613234"><ele>325.0</ele><time>2026-04-26T10:13:45Z</time></trkpt><trkpt lat="45.553076115387135" lon="10.835936756060542"><ele>325.0</ele><time>2026-04-26T10:13:46Z</time></trkpt><trkpt lat="45.55318180335574" lon="10.83598852638105"><ele>328.66666666666663</ele><time>2026-04-26T10:13:47Z</time></trkpt><trkpt lat="45.553301929388375" lon="10.836073953716568"><ele>332.3333333333333</ele><time>2026-04-26T10:13:48Z</time></trkpt><trkpt lat="45.553457145474404" lon="10.836185233667681"><ele>336.0</ele><time>2026-04-26T10:13:49Z</time></trkpt><trkpt lat="45.55362236177925" lon="10.836296290066873"><ele>334.6</ele><time>2026-04-26T10:13:50Z</time></trkpt><trkpt lat="45.55373416957099" lon="10.836370316552435"><ele>333.20000000000005</ele><time>2026-04-26T10:13:51Z</time></trkpt><trkpt lat="45.55382706494853" lon="10.83642488373622"><ele>331.79999999999995</ele><time>2026-04-26T10:13:52Z</time></trkpt><trkpt lat="45.55391390529282" lon="10.836464645558559"><ele>330.4</ele><time>2026-04-26T10:13:53Z</time></trkpt><trkpt lat="45.55399754236687" lon="10.836478132993818"><ele>329.0</ele><time>2026-04-26T10:13:54Z</time></trkpt><trkpt lat="45.55407718500573" lon="10.836471105713025"><ele>329.0</ele><time>2026-04-26T10:13:55Z</time></trkpt><trkpt lat="45.55417230156148" lon="10.83645351242074"><ele>329.0</ele><time>2026-04-26T10:13:56Z</time></trkpt><trkpt lat="45.55428032238577" lon="10.836443195497248"><ele>329.0</ele><time>2026-04-26T10:13:57Z</time></trkpt><trkpt lat="45.55436960388382" lon="10.83644679440413"><ele>329.0</ele><time>2026-04-26T10:13:58Z</time></trkpt><trkpt lat="45.55446039918647" lon="10.836461989135275"><ele>329.0</ele><time>2026-04-26T10:13:59Z</time></trkpt><trkpt lat="45.554546484560504" lon="10.836497063280195"><ele>327.25</ele><time>2026-04-26T10:14:00Z</time></trkpt><trkpt lat="45.554641971212476" lon="10.836547637989193"><ele>325.5</ele><time>2026-04-26T10:14:01Z</time></trkpt><trkpt lat="45.55474212350634" lon="10.836606641240966"><ele>323.75</ele><time>2026-04-26T10:14:02Z</time></trkpt><trkpt lat="45.554845548658285" lon="10.836695873725144"><ele>322.0</ele><time>2026-04-26T10:14:03Z</time></trkpt><trkpt lat="45.55495567118546" lon="10.83679700421211"><ele>323.20000000000005</ele><time>2026-04-26T10:14:04Z</time></trkpt><trkpt lat="45.55507287080142" lon="10.836907030631622"><ele>324.4</ele><time>2026-04-26T10:14:05Z</time></trkpt><trkpt lat="45.555165871428684" lon="10.83700266444519"><ele>325.6</ele><time>2026-04-26T10:14:06Z</time></trkpt><trkpt lat="45.55524412199856" lon="10.837087931381205"><ele>326.79999999999995</ele><time>2026-04-26T10:14:07Z</time></trkpt><trkpt lat="45.55530720465249" lon="10.83716784827302"><ele>328.0</ele><time>2026-04-26T10:14:08Z</time></trkpt><trkpt lat="45.55536200489566" lon="10.83725733706812"><ele>325.79999999999995</ele><time>2026-04-26T10:14:09Z</time></trkpt><trkpt lat="45.555408295254864" lon="10.837363214281615"><ele>323.59999999999997</ele><time>2026-04-26T10:14:10Z</time></trkpt><trkpt lat="45.555449350873985" lon="10.837499527190872"><ele>321.4</ele><time>2026-04-26T10:14:11Z</time></trkpt><trkpt lat="45.555477652397094" lon="10.83763123449889"><ele>319.2</ele><time>2026-04-26T10:14:12Z</time></trkpt><trkpt lat="45.55548693437762" lon="10.837773189114415"><ele>317.0</ele><time>2026-04-26T10:14:13Z</time></trkpt><trkpt lat="45.555485079685354" lon="10.8379118179208"><ele>317.0</ele><time>2026-04-26T10:14:14Z</time></trkpt><trkpt lat="45.55546990585716" lon="10.838051538831342"><ele>317.0</ele><time>2026-04-26T10:14:15Z</time></trkpt><trkpt lat="45.555443964715984" lon="10.838190840609878"><ele>317.0</ele><time>2026-04-26T10:14:16Z</time></trkpt><trkpt lat="45.55540664067753" lon="10.838334521050927"><ele>317.0</ele><time>2026-04-26T10:14:17Z</time></trkpt><trkpt lat="45.55536238257758" lon="10.838459570895616"><ele>317.0</ele><time>2026-04-26T10:14:18Z</time></trkpt><trkpt lat="45.55529813114639" lon="10.838602385099536"><ele>319.8</ele><time>2026-04-26T10:14:19Z</time></trkpt><trkpt lat="45.55524650011248" lon="10.838709142390346"><ele>322.6</ele><time>2026-04-26T10:14:20Z</time></trkpt><trkpt lat="45.55522357224704" lon="10.838798223327949"><ele>325.40000000000003</ele><time>2026-04-26T10:14:21Z</time></trkpt><trkpt lat="45.55526635833166" lon="10.838932826545843"><ele>328.2</ele><time>2026-04-26T10:14:23Z</time></trkpt><trkpt lat="45.555390666239944" lon="10.838947769171265"><ele>331.0</ele><time>2026-04-26T10:14:25Z</time></trkpt><trkpt lat="45.55545856926328" lon="10.838904099840688"><ele>331.0</ele><time>2026-04-26T10:14:26Z</time></trkpt><trkpt lat="45.55554447349396" lon="10.838819028868642"><ele>331.0</ele><time>2026-04-26T10:14:27Z</time></trkpt><trkpt lat="45.555645973287824" lon="10.838727868409219"><ele>331.0</ele><time>2026-04-26T10:14:28Z</time></trkpt><trkpt lat="45.555737938359904" lon="10.838663590538957"><ele>331.0</ele><time>2026-04-26T10:14:29Z</time></trkpt><trkpt lat="45.55582358440812" lon="10.83862644477297"><ele>331.0</ele><time>2026-04-26T10:14:30Z</time></trkpt><trkpt lat="45.55591331023811" lon="10.838626088349448"><ele>331.0</ele><time>2026-04-26T10:14:31Z</time></trkpt><trkpt lat="45.556000667548375" lon="10.838654705866043"><ele>331.0</ele><time>2026-04-26T10:14:32Z</time></trkpt><trkpt lat="45.55607414026114" lon="10.838714991223874"><ele>331.0</ele><time>2026-04-26T10:14:33Z</time></trkpt><trkpt lat="45.55614251230247" lon="10.83880477659639"><ele>331.0</ele><time>2026-04-26T10:14:34Z</time></trkpt><trkpt lat="45.55620964108846" lon="10.83892505974959"><ele>331.0</ele><time>2026-04-26T10:14:35Z</time></trkpt><trkpt lat="45.55627283606315" lon="10.839052604818095"><ele>331.0</ele><time>2026-04-26T10:14:36Z</time></trkpt><trkpt lat="45.556319082806326" lon="10.839184446132329"><ele>331.0</ele><time>2026-04-26T10:14:37Z</time></trkpt><trkpt lat="45.55634494648087" lon="10.839312339127403"><ele>331.0</ele><time>2026-04-26T10:14:38Z</time></trkpt><trkpt lat="45.55635300497382" lon="10.83941651580741"><ele>331.0</ele><time>2026-04-26T10:14:39Z</time></trkpt><trkpt lat="45.55634791628404" lon="10.839552582862423"><ele>331.0</ele><time>2026-04-26T10:14:40Z</time></trkpt><trkpt lat="45.556345737538386" lon="10.839674272223842"><ele>331.0</ele><time>2026-04-26T10:14:41Z</time></trkpt><trkpt lat="45.556391603515294" lon="10.83976253307694"><ele>331.0</ele><time>2026-04-26T10:14:43Z</time></trkpt><trkpt lat="45.556493395087635" lon="10.839699589204889"><ele>331.0</ele><time>2026-04-26T10:14:45Z</time></trkpt><trkpt lat="45.55656801847918" lon="10.839642356736622"><ele>331.0</ele><time>2026-04-26T10:14:46Z</time></trkpt><trkpt lat="45.5566434117014" lon="10.839594631716357"><ele>331.0</ele><time>2026-04-26T10:14:47Z</time></trkpt><trkpt lat="45.55671623931733" lon="10.839595040777565"><ele>331.0</ele><time>2026-04-26T10:14:48Z</time></trkpt><trkpt lat="45.556794727818186" lon="10.839626404455009"><ele>331.0</ele><time>2026-04-26T10:14:50Z</time></trkpt><trkpt lat="45.55687274639505" lon="10.839742217294441"><ele>331.0</ele><time>2026-04-26T10:14:52Z</time></trkpt><trkpt lat="45.55692306502613" lon="10.83985913318019"><ele>331.0</ele><time>2026-04-26T10:14:53Z</time></trkpt><trkpt lat="45.556974773533156" lon="10.840000588234899"><ele>331.0</ele><time>2026-04-26T10:14:54Z</time></trkpt><trkpt lat="45.557040751334306" lon="10.840163479561722"><ele>333.0</ele><time>2026-04-26T10:14:55Z</time></trkpt><trkpt lat="45.55712830680259" lon="10.840310579805505"><ele>335.0</ele><time>2026-04-26T10:14:56Z</time></trkpt><trkpt lat="45.55718278389802" lon="10.84041579778117"><ele>337.0</ele><time>2026-04-26T10:14:57Z</time></trkpt><trkpt lat="45.55727923086687" lon="10.840513256794214"><ele>339.0</ele><time>2026-04-26T10:14:58Z</time></trkpt><trkpt lat="45.55739015041515" lon="10.840622784438688"><ele>339.0</ele><time>2026-04-26T10:14:59Z</time></trkpt><trkpt lat="45.55750511101105" lon="10.840731682340015"><ele>339.0</ele><time>2026-04-26T10:15:00Z</time></trkpt><trkpt lat="45.557579746322425" lon="10.840807775913442"><ele>339.0</ele><time>2026-04-26T10:15:01Z</time></trkpt><trkpt lat="45.55767432698302" lon="10.840861945099387"><ele>339.0</ele><time>2026-04-26T10:15:03Z</time></trkpt><trkpt lat="45.55774483642435" lon="10.84080901524155"><ele>339.0</ele><time>2026-04-26T10:15:05Z</time></trkpt><trkpt lat="45.557731943707765" lon="10.840688755281803"><ele>339.0</ele><time>2026-04-26T10:15:08Z</time></trkpt><trkpt lat="45.5576680277124" lon="10.840503031019242"><ele>339.0</ele><time>2026-04-26T10:15:10Z</time></trkpt><trkpt lat="45.55761618065731" lon="10.84039346823596"><ele>339.0</ele><time>2026-04-26T10:15:11Z</time></trkpt><trkpt lat="45.55755133598185" lon="10.840258644168616"><ele>339.0</ele><time>2026-04-26T10:15:12Z</time></trkpt><trkpt lat="45.557518074738354" lon="10.84014126434137"><ele>339.0</ele><time>2026-04-26T10:15:13Z</time></trkpt><trkpt lat="45.557494539295305" lon="10.840030567651226"><ele>336.0</ele><time>2026-04-26T10:15:14Z</time></trkpt><trkpt lat="45.55748578738108" lon="10.839911634832713"><ele>333.0</ele><time>2026-04-26T10:15:15Z</time></trkpt><trkpt lat="45.55746553959707" lon="10.83974675588279"><ele>330.0</ele><time>2026-04-26T10:15:16Z</time></trkpt><trkpt lat="45.55745011355617" lon="10.839561929984919"><ele>327.0</ele><time>2026-04-26T10:15:17Z</time></trkpt><trkpt lat="45.55744106272453" lon="10.83937389647235"><ele>326.25</ele><time>2026-04-26T10:15:18Z</time></trkpt><trkpt lat="45.55742444656249" lon="10.839196450332155"><ele>325.5</ele><time>2026-04-26T10:15:19Z</time></trkpt><trkpt lat="45.55739570135321" lon="10.839008917150796"><ele>324.75</ele><time>2026-04-26T10:15:20Z</time></trkpt><trkpt lat="45.55735196919291" lon="10.838829669248458"><ele>324.0</ele><time>2026-04-26T10:15:21Z</time></trkpt><trkpt lat="45.55730599718541" lon="10.838693298048254"><ele>324.0</ele><time>2026-04-26T10:15:22Z</time></trkpt><trkpt lat="45.55727530433649" lon="10.838575640014943"><ele>324.0</ele><time>2026-04-26T10:15:23Z</time></trkpt><trkpt lat="45.5572541860836" lon="10.83846440204047"><ele>324.0</ele><time>2026-04-26T10:15:24Z</time></trkpt><trkpt lat="45.557243064430956" lon="10.838355545955968"><ele>324.0</ele><time>2026-04-26T10:15:25Z</time></trkpt><trkpt lat="45.557251386639784" lon="10.838260355587336"><ele>324.0</ele><time>2026-04-26T10:15:26Z</time></trkpt><trkpt lat="45.55728123871367" lon="10.838154092095314"><ele>324.0</ele><time>2026-04-26T10:15:27Z</time></trkpt><trkpt lat="45.55733033607591" lon="10.83802866674648"><ele>324.0</ele><time>2026-04-26T10:15:28Z</time></trkpt><trkpt lat="45.55739233278352" lon="10.837881342980468"><ele>324.0</ele><time>2026-04-26T10:15:29Z</time></trkpt><trkpt lat="45.557451731499704" lon="10.837721116838681"><ele>324.0</ele><time>2026-04-26T10:15:30Z</time></trkpt><trkpt lat="45.55753206515472" lon="10.837569737146865"><ele>324.0</ele><time>2026-04-26T10:15:31Z</time></trkpt><trkpt lat="45.557631307363614" lon="10.83741396484877"><ele>325.25</ele><time>2026-04-26T10:15:32Z</time></trkpt><trkpt lat="45.557717210366256" lon="10.83726811436104"><ele>326.5</ele><time>2026-04-26T10:15:33Z</time></trkpt><trkpt lat="45.55779828537583" lon="10.837118467509468"><ele>327.75</ele><time>2026-04-26T10:15:34Z</time></trkpt><trkpt lat="45.557856003801" lon="10.836993211066572"><ele>329.0</ele><time>2026-04-26T10:15:35Z</time></trkpt><trkpt lat="45.557907007959656" lon="10.836877411051843"><ele>327.4</ele><time>2026-04-26T10:15:36Z</time></trkpt><trkpt lat="45.55792714780486" lon="10.836788281991247"><ele>325.79999999999995</ele><time>2026-04-26T10:15:37Z</time></trkpt><trkpt lat="45.557960671484246" lon="10.836652421433303"><ele>324.20000000000005</ele><time>2026-04-26T10:15:38Z</time></trkpt><trkpt lat="45.55798079388959" lon="10.836514363784858"><ele>322.6</ele><time>2026-04-26T10:15:39Z</time></trkpt><trkpt lat="45.558012372960135" lon="10.836360732565002"><ele>321.0</ele><time>2026-04-26T10:15:40Z</time></trkpt><trkpt lat="45.55806186726685" lon="10.836201099204645"><ele>321.0</ele><time>2026-04-26T10:15:41Z</time></trkpt><trkpt lat="45.55813551527595" lon="10.836027339013675"><ele>321.0</ele><time>2026-04-26T10:15:42Z</time></trkpt><trkpt lat="45.55821646882833" lon="10.835834927424203"><ele>321.0</ele><time>2026-04-26T10:15:43Z</time></trkpt><trkpt lat="45.55828128496394" lon="10.83570663469293"><ele>321.0</ele><time>2026-04-26T10:15:44Z</time></trkpt><trkpt lat="45.558338079770934" lon="10.835622996677072"><ele>320.2857142857143</ele><time>2026-04-26T10:15:45Z</time></trkpt><trkpt lat="45.5583979002651" lon="10.83557135363668"><ele>319.57142857142856</ele><time>2026-04-26T10:15:46Z</time></trkpt><trkpt lat="45.558465206953244" lon="10.835526561275822"><ele>318.8571428571429</ele><time>2026-04-26T10:15:47Z</time></trkpt><trkpt lat="45.558545845309304" lon="10.835495987343752"><ele>318.1428571428571</ele><time>2026-04-26T10:15:48Z</time></trkpt><trkpt lat="45.55861491038926" lon="10.835488535040358"><ele>317.42857142857144</ele><time>2026-04-26T10:15:49Z</time></trkpt><trkpt lat="45.55868102250183" lon="10.835501454281461"><ele>316.7142857142857</ele><time>2026-04-26T10:15:50Z</time></trkpt><trkpt lat="45.55874560720625" lon="10.83554144945916"><ele>316.0</ele><time>2026-04-26T10:15:51Z</time></trkpt><trkpt lat="45.55881247094001" lon="10.835583433389834"><ele>314.8</ele><time>2026-04-26T10:15:52Z</time></trkpt><trkpt lat="45.55889121187213" lon="10.835723739446601"><ele>313.6</ele><time>2026-04-26T10:15:54Z</time></trkpt><trkpt lat="45.55891652674766" lon="10.83581091117208"><ele>312.4</ele><time>2026-04-26T10:15:55Z</time></trkpt><trkpt lat="45.558938900829645" lon="10.835935580888089"><ele>311.2</ele><time>2026-04-26T10:15:56Z</time></trkpt><trkpt lat="45.55895813372882" lon="10.83608345626152"><ele>310.0</ele><time>2026-04-26T10:15:57Z</time></trkpt><trkpt lat="45.55899319479872" lon="10.83620197205849"><ele>312.16666666666663</ele><time>2026-04-26T10:15:58Z</time></trkpt><trkpt lat="45.559046247858625" lon="10.836280144048958"><ele>314.3333333333333</ele><time>2026-04-26T10:15:59Z</time></trkpt><trkpt lat="45.55911648334846" lon="10.836352674223065"><ele>316.5</ele><time>2026-04-26T10:16:00Z</time></trkpt><trkpt lat="45.55919623953038" lon="10.836413752483482"><ele>318.6666666666667</ele><time>2026-04-26T10:16:01Z</time></trkpt><trkpt lat="45.55928094082029" lon="10.836466217748352"><ele>320.83333333333337</ele><time>2026-04-26T10:16:02Z</time></trkpt><trkpt lat="45.559364830664045" lon="10.836528273911625"><ele>323.0</ele><time>2026-04-26T10:16:03Z</time></trkpt><trkpt lat="45.55943906623101" lon="10.836600807910344"><ele>323.0</ele><time>2026-04-26T10:16:04Z</time></trkpt><trkpt lat="45.55952749967045" lon="10.836709475308718"><ele>323.0</ele><time>2026-04-26T10:16:05Z</time></trkpt><trkpt lat="45.55963097363485" lon="10.83683991454094"><ele>323.0</ele><time>2026-04-26T10:16:06Z</time></trkpt><trkpt lat="45.55976723644492" lon="10.837002155883289"><ele>323.0</ele><time>2026-04-26T10:16:07Z</time></trkpt><trkpt lat="45.55990375756397" lon="10.837171861266775"><ele>323.59999999999997</ele><time>2026-04-26T10:16:08Z</time></trkpt><trkpt lat="45.5600374000556" lon="10.837318539141764"><ele>324.2</ele><time>2026-04-26T10:16:09Z</time></trkpt><trkpt lat="45.56014837630011" lon="10.837334219163134"><ele>324.8</ele><time>2026-04-26T10:16:11Z</time></trkpt><trkpt lat="45.56022471602032" lon="10.83737239869161"><ele>325.4</ele><time>2026-04-26T10:16:12Z</time></trkpt><trkpt lat="45.56029463011646" lon="10.837406888588417"><ele>326.0</ele><time>2026-04-26T10:16:13Z</time></trkpt><trkpt lat="45.56035679488815" lon="10.837441524237773"><ele>325.6</ele><time>2026-04-26T10:16:14Z</time></trkpt><trkpt lat="45.56041399019471" lon="10.837487089860742"><ele>325.20000000000005</ele><time>2026-04-26T10:16:15Z</time></trkpt><trkpt lat="45.56046759901895" lon="10.837547301524031"><ele>324.79999999999995</ele><time>2026-04-26T10:16:16Z</time></trkpt><trkpt lat="45.560547736984375" lon="10.837634526291065"><ele>324.4</ele><time>2026-04-26T10:16:18Z</time></trkpt><trkpt lat="45.560690338453384" lon="10.8376203475757"><ele>324.0</ele><time>2026-04-26T10:16:20Z</time></trkpt><trkpt lat="45.5607907151576" lon="10.837594489135117"><ele>324.0</ele><time>2026-04-26T10:16:21Z</time></trkpt><trkpt lat="45.560888210022924" lon="10.837557762770826"><ele>324.0</ele><time>2026-04-26T10:16:22Z</time></trkpt><trkpt lat="45.56095749498929" lon="10.837506115474794"><ele>324.0</ele><time>2026-04-26T10:16:23Z</time></trkpt><trkpt lat="45.5610081184598" lon="10.83744520533048"><ele>324.0</ele><time>2026-04-26T10:16:23.999Z</time></trkpt><trkpt lat="45.56106672248132" lon="10.837305943074567"><ele>324.0</ele><time>2026-04-26T10:16:25.999Z</time></trkpt><trkpt lat="45.561032439546594" lon="10.837115792993162"><ele>324.0</ele><time>2026-04-26T10:16:27.999Z</time></trkpt><trkpt lat="45.56099950805287" lon="10.836984101897377"><ele>324.0</ele><time>2026-04-26T10:16:28.999Z</time></trkpt><trkpt lat="45.56096624970934" lon="10.836849053982164"><ele>324.0</ele><time>2026-04-26T10:16:29.999Z</time></trkpt><trkpt lat="45.56094354915111" lon="10.836726871714953"><ele>324.0</ele><time>2026-04-26T10:16:30.999Z</time></trkpt><trkpt lat="45.56093231070318" lon="10.836591976432725"><ele>324.0</ele><time>2026-04-26T10:16:31.999Z</time></trkpt><trkpt lat="45.56094339349361" lon="10.836494807417028"><ele>323.5</ele><time>2026-04-26T10:16:32.999Z</time></trkpt><trkpt lat="45.56096905697486" lon="10.8363635369168"><ele>323.0</ele><time>2026-04-26T10:16:34.999Z</time></trkpt><trkpt lat="45.56100527845676" lon="10.836227360146756"><ele>322.5</ele><time>2026-04-26T10:16:36.999Z</time></trkpt><trkpt lat="45.561060958273266" lon="10.836128654888856"><ele>322.0</ele><time>2026-04-26T10:16:37.999Z</time></trkpt><trkpt lat="45.561119615465465" lon="10.836060613229083"><ele>321.5</ele><time>2026-04-26T10:16:38.999Z</time></trkpt><trkpt lat="45.56118553647222" lon="10.836012337056212"><ele>321.0</ele><time>2026-04-26T10:16:39.999Z</time></trkpt><trkpt lat="45.56124989145208" lon="10.835990290079861"><ele>323.20000000000005</ele><time>2026-04-26T10:16:40.999Z</time></trkpt><trkpt lat="45.5613769312685" lon="10.83602312729031"><ele>325.40000000000003</ele><time>2026-04-26T10:16:42.999Z</time></trkpt><trkpt lat="45.561448815322706" lon="10.83606956325036"><ele>327.6</ele><time>2026-04-26T10:16:43.999Z</time></trkpt><trkpt lat="45.56152156065808" lon="10.83610061833532"><ele>329.8</ele><time>2026-04-26T10:16:44.999Z</time></trkpt><trkpt lat="45.56162961871005" lon="10.836113782886855"><ele>332.0</ele><time>2026-04-26T10:16:46.999Z</time></trkpt><trkpt lat="45.561697321659395" lon="10.83606994271319"><ele>330.40000000000003</ele><time>2026-04-26T10:16:48.999Z</time></trkpt><trkpt lat="45.561755039331445" lon="10.835948964965782"><ele>328.8</ele><time>2026-04-26T10:16:50.999Z</time></trkpt><trkpt lat="45.56178091603237" lon="10.835846287846444"><ele>327.2</ele><time>2026-04-26T10:16:51.999Z</time></trkpt><trkpt lat="45.561810723020635" lon="10.835714772107211"><ele>325.6</ele><time>2026-04-26T10:16:52.999Z</time></trkpt><trkpt lat="45.56184567282995" lon="10.83555699457684"><ele>324.0</ele><time>2026-04-26T10:16:53.999Z</time></trkpt><trkpt lat="45.56189295994254" lon="10.835430482022758"><ele>324.0</ele><time>2026-04-26T10:16:54.999Z</time></trkpt><trkpt lat="45.56194855058281" lon="10.835311518256017"><ele>324.0</ele><time>2026-04-26T10:16:55.999Z</time></trkpt><trkpt lat="45.56200245851703" lon="10.835204806299858"><ele>324.0</ele><time>2026-04-26T10:16:56.999Z</time></trkpt><trkpt lat="45.562058248477555" lon="10.835119989690446"><ele>324.0</ele><time>2026-04-26T10:16:57.999Z</time></trkpt><trkpt lat="45.56210998585402" lon="10.835050779151102"><ele>324.0</ele><time>2026-04-26T10:16:58.999Z</time></trkpt><trkpt lat="45.562179163885254" lon="10.834977090026815"><ele>324.0</ele><time>2026-04-26T10:17:00.999Z</time></trkpt><trkpt lat="45.56225999938322" lon="10.834905088200392"><ele>325.0</ele><time>2026-04-26T10:17:02.999Z</time></trkpt><trkpt lat="45.56233698769466" lon="10.834851483277726"><ele>326.0</ele><time>2026-04-26T10:17:03.999Z</time></trkpt><trkpt lat="45.56240986898659" lon="10.834790365964304"><ele>327.0</ele><time>2026-04-26T10:17:04.999Z</time></trkpt><trkpt lat="45.562492000095645" lon="10.834744375754434"><ele>328.0</ele><time>2026-04-26T10:17:06.999Z</time></trkpt><trkpt lat="45.56257431795208" lon="10.83479918455146"><ele>329.0</ele><time>2026-04-26T10:17:09.999Z</time></trkpt><trkpt lat="45.56261304119783" lon="10.834908659320194"><ele>330.0</ele><time>2026-04-26T10:17:11.999Z</time></trkpt><trkpt lat="45.56262863288531" lon="10.83500974520022"><ele>330.0</ele><time>2026-04-26T10:17:12.999Z</time></trkpt><trkpt lat="45.562654267281054" lon="10.835101779366207"><ele>330.0</ele><time>2026-04-26T10:17:13.999Z</time></trkpt><trkpt lat="45.56269318030737" lon="10.835199001321396"><ele>330.0</ele><time>2026-04-26T10:17:14.999Z</time></trkpt><trkpt lat="45.562741969103485" lon="10.835295848741586"><ele>330.0</ele><time>2026-04-26T10:17:15.999Z</time></trkpt><trkpt lat="45.5627824226029" lon="10.835406377071974"><ele>330.0</ele><time>2026-04-26T10:17:16.999Z</time></trkpt><trkpt lat="45.56280816212225" lon="10.835516161599442"><ele>330.0</ele><time>2026-04-26T10:17:17.999Z</time></trkpt><trkpt lat="45.56283675137899" lon="10.8356093307158"><ele>333.8</ele><time>2026-04-26T10:17:19.999Z</time></trkpt><trkpt lat="45.562886538210044" lon="10.835698927519642"><ele>337.6</ele><time>2026-04-26T10:17:20.999Z</time></trkpt><trkpt lat="45.56294345068575" lon="10.83574538681102"><ele>341.4</ele><time>2026-04-26T10:17:21.999Z</time></trkpt><trkpt lat="45.56302880896767" lon="10.835842283175559"><ele>345.2</ele><time>2026-04-26T10:17:23.999Z</time></trkpt><trkpt lat="45.563067843058526" lon="10.835985469355055"><ele>349.0</ele><time>2026-04-26T10:17:26Z</time></trkpt><trkpt lat="45.56300930020703" lon="10.83614889390212"><ele>350.3333333333333</ele><time>2026-04-26T10:17:28Z</time></trkpt><trkpt lat="45.56302842600989" lon="10.836283441836526"><ele>351.66666666666663</ele><time>2026-04-26T10:17:30Z</time></trkpt><trkpt lat="45.56308887388118" lon="10.836340914431736"><ele>353.0</ele><time>2026-04-26T10:17:31Z</time></trkpt><trkpt lat="45.56315108786974" lon="10.836381783346052"><ele>354.3333333333333</ele><time>2026-04-26T10:17:32Z</time></trkpt><trkpt lat="45.56322396307918" lon="10.836457075799991"><ele>355.6666666666667</ele><time>2026-04-26T10:17:33Z</time></trkpt><trkpt lat="45.56330675270723" lon="10.836562628026657"><ele>357.0</ele><time>2026-04-26T10:17:34Z</time></trkpt><trkpt lat="45.563390474317664" lon="10.836678299628854"><ele>357.0</ele><time>2026-04-26T10:17:35Z</time></trkpt><trkpt lat="45.563449030943005" lon="10.836588575486841"><ele>357.0</ele><time>2026-04-26T10:17:37Z</time></trkpt><trkpt lat="45.56355723252804" lon="10.8366358580384"><ele>357.0</ele><time>2026-04-26T10:17:39Z</time></trkpt><trkpt lat="45.563632981848194" lon="10.836716669869475"><ele>357.0</ele><time>2026-04-26T10:17:41Z</time></trkpt><trkpt lat="45.56369270766739" lon="10.836819987195874"><ele>357.0</ele><time>2026-04-26T10:17:43Z</time></trkpt><trkpt lat="45.56372776344509" lon="10.836961455127602"><ele>361.0</ele><time>2026-04-26T10:17:46Z</time></trkpt><trkpt lat="45.563755981949555" lon="10.837100024339662"><ele>365.0</ele><time>2026-04-26T10:17:48Z</time></trkpt><trkpt lat="45.56382951926351" lon="10.83725009750865"><ele>369.0</ele><time>2026-04-26T10:17:50Z</time></trkpt><trkpt lat="45.56389214208197" lon="10.837379917323487"><ele>373.0</ele><time>2026-04-26T10:17:52Z</time></trkpt><trkpt lat="45.5639346537182" lon="10.837456267759707"><ele>377.0</ele><time>2026-04-26T10:17:53Z</time></trkpt><trkpt lat="45.563971360121016" lon="10.837537459855659"><ele>377.40000000000003</ele><time>2026-04-26T10:17:54Z</time></trkpt><trkpt lat="45.56406465306253" lon="10.83767696452361"><ele>377.8</ele><time>2026-04-26T10:17:56Z</time></trkpt><trkpt lat="45.564128243789895" lon="10.837757397686055"><ele>378.2</ele><time>2026-04-26T10:17:57Z</time></trkpt><trkpt lat="45.56420925721234" lon="10.837857245312904"><ele>378.6</ele><time>2026-04-26T10:17:58Z</time></trkpt><trkpt lat="45.56426185912567" lon="10.837916490433086"><ele>379.0</ele><time>2026-04-26T10:17:59Z</time></trkpt><trkpt lat="45.56431205338096" lon="10.83804912040377"><ele>379.0</ele><time>2026-04-26T10:18:01Z</time></trkpt><trkpt lat="45.56427621245468" lon="10.838141985079277"><ele>379.0</ele><time>2026-04-26T10:18:02Z</time></trkpt><trkpt lat="45.56426453499965" lon="10.838282166242488"><ele>379.0</ele><time>2026-04-26T10:18:03Z</time></trkpt><trkpt lat="45.56423288527935" lon="10.838424472822732"><ele>379.0</ele><time>2026-04-26T10:18:04Z</time></trkpt><trkpt lat="45.56420990148528" lon="10.838570317736586"><ele>379.0</ele><time>2026-04-26T10:18:05Z</time></trkpt><trkpt lat="45.56418004850171" lon="10.838678568696418"><ele>379.4</ele><time>2026-04-26T10:18:06Z</time></trkpt><trkpt lat="45.56414520924655" lon="10.838774577177062"><ele>379.79999999999995</ele><time>2026-04-26T10:18:07Z</time></trkpt><trkpt lat="45.56410470548346" lon="10.838857999652802"><ele>380.20000000000005</ele><time>2026-04-26T10:18:08Z</time></trkpt><trkpt lat="45.56406126169563" lon="10.83895132160371"><ele>380.6</ele><time>2026-04-26T10:18:09Z</time></trkpt><trkpt lat="45.56401128429005" lon="10.839124512928802"><ele>381.0</ele><time>2026-04-26T10:18:11Z</time></trkpt><trkpt lat="45.56399967125651" lon="10.839290407321867"><ele>382.0</ele><time>2026-04-26T10:18:13Z</time></trkpt><trkpt lat="45.56403904999814" lon="10.839414225240832"><ele>383.0</ele><time>2026-04-26T10:18:16Z</time></trkpt><trkpt lat="45.56408960771125" lon="10.839569503914221"><ele>384.0</ele><time>2026-04-26T10:18:18Z</time></trkpt><trkpt lat="45.56413871730986" lon="10.83964272493389"><ele>385.0</ele><time>2026-04-26T10:18:21Z</time></trkpt><trkpt lat="45.56419352172856" lon="10.83971582512153"><ele>386.0</ele><time>2026-04-26T10:18:36Z</time></trkpt><trkpt lat="45.56427125879423" lon="10.839816036848964"><ele>385.99999999999994</ele><time>2026-04-26T10:18:38Z</time></trkpt><trkpt lat="45.5643106071301" lon="10.839900101961634"><ele>386.0</ele><time>2026-04-26T10:18:40Z</time></trkpt><trkpt lat="45.564413277867146" lon="10.839961799333228"><ele>386.0</ele><time>2026-04-26T10:19:16Z</time></trkpt><trkpt lat="45.56448302965969" lon="10.839976501691314"><ele>386.0</ele><time>2026-04-26T10:19:17Z</time></trkpt><trkpt lat="45.564575371745335" lon="10.839993026172952"><ele>385.99999999999994</ele><time>2026-04-26T10:19:18Z</time></trkpt><trkpt lat="45.5646671291298" lon="10.839987514204427"><ele>386.0</ele><time>2026-04-26T10:19:19Z</time></trkpt><trkpt lat="45.56476581735482" lon="10.839956917331275"><ele>388.66666666666663</ele><time>2026-04-26T10:19:20Z</time></trkpt><trkpt lat="45.56486271402663" lon="10.839902247031503"><ele>391.3333333333333</ele><time>2026-04-26T10:19:21Z</time></trkpt><trkpt lat="45.56493641114345" lon="10.839853725259132"><ele>394.0</ele><time>2026-04-26T10:19:22Z</time></trkpt><trkpt lat="45.56504905126493" lon="10.839839327302457"><ele>396.66666666666663</ele><time>2026-04-26T10:19:24Z</time></trkpt><trkpt lat="45.56511401667616" lon="10.839862767534514"><ele>399.3333333333333</ele><time>2026-04-26T10:19:25Z</time></trkpt><trkpt lat="45.565181310925134" lon="10.839903606951967"><ele>402.0</ele><time>2026-04-26T10:19:26Z</time></trkpt><trkpt lat="45.565271226380496" lon="10.839980153065016"><ele>402.0</ele><time>2026-04-26T10:19:27Z</time></trkpt><trkpt lat="45.56535603860161" lon="10.840065524772347"><ele>402.0</ele><time>2026-04-26T10:19:28Z</time></trkpt><trkpt lat="45.565471167555465" lon="10.840118258540862"><ele>402.0</ele><time>2026-04-26T10:19:30Z</time></trkpt><trkpt lat="45.565553328326196" lon="10.840109896012676"><ele>402.0</ele><time>2026-04-26T10:19:31Z</time></trkpt><trkpt lat="45.56566077578055" lon="10.840057456834439"><ele>402.0</ele><time>2026-04-26T10:19:32Z</time></trkpt><trkpt lat="45.5657418630057" lon="10.840014625823652"><ele>406.75</ele><time>2026-04-26T10:19:33Z</time></trkpt><trkpt lat="45.565858024921646" lon="10.839993997449573"><ele>411.5</ele><time>2026-04-26T10:19:35Z</time></trkpt><trkpt lat="45.565970799044855" lon="10.840035474337549"><ele>416.25</ele><time>2026-04-26T10:19:37Z</time></trkpt><trkpt lat="45.56612554357975" lon="10.840063629680845"><ele>421.0</ele><time>2026-04-26T10:19:39Z</time></trkpt><trkpt lat="45.56622772264379" lon="10.840076769178152"><ele>425.8</ele><time>2026-04-26T10:19:40Z</time></trkpt><trkpt lat="45.56630260708469" lon="10.840162831106673"><ele>430.6</ele><time>2026-04-26T10:19:42Z</time></trkpt><trkpt lat="45.56639092514487" lon="10.840314310238083"><ele>435.4</ele><time>2026-04-26T10:19:44Z</time></trkpt><trkpt lat="45.56644107237928" lon="10.840404864229601"><ele>440.2</ele><time>2026-04-26T10:19:45Z</time></trkpt><trkpt lat="45.56652228103604" lon="10.840442831679262"><ele>445.0</ele><time>2026-04-26T10:19:47Z</time></trkpt><trkpt lat="45.566592677920205" lon="10.840530472141031"><ele>445.00000000000006</ele><time>2026-04-26T10:19:48Z</time></trkpt><trkpt lat="45.56661117612233" lon="10.840622998712911"><ele>445.0</ele><time>2026-04-26T10:19:49Z</time></trkpt><trkpt lat="45.56664808289898" lon="10.840753309638256"><ele>445.0</ele><time>2026-04-26T10:19:50Z</time></trkpt><trkpt lat="45.56666621121124" lon="10.840849149644466"><ele>445.0</ele><time>2026-04-26T10:19:51Z</time></trkpt><trkpt lat="45.566777595542625" lon="10.840948407217127"><ele>445.00000000000006</ele><time>2026-04-26T10:19:53Z</time></trkpt><trkpt lat="45.566818994616945" lon="10.841039893142902"><ele>445.0</ele><time>2026-04-26T10:19:54Z</time></trkpt><trkpt lat="45.56688743060264" lon="10.84109722808415"><ele>444.83333333333337</ele><time>2026-04-26T10:19:55Z</time></trkpt><trkpt lat="45.566937894716105" lon="10.841177504728527"><ele>444.6666666666667</ele><time>2026-04-26T10:19:56Z</time></trkpt><trkpt lat="45.566973263448" lon="10.841278556405845"><ele>444.5</ele><time>2026-04-26T10:20:00Z</time></trkpt><trkpt lat="45.56693673373433" lon="10.8413728455523"><ele>444.33333333333337</ele><time>2026-04-26T10:20:01Z</time></trkpt><trkpt lat="45.56691917443816" lon="10.84146871661766"><ele>444.1666666666667</ele><time>2026-04-26T10:20:02Z</time></trkpt><trkpt lat="45.56688223833858" lon="10.841643418093792"><ele>444.0</ele><time>2026-04-26T10:20:04Z</time></trkpt><trkpt lat="45.566883901556146" lon="10.841768074285712"><ele>443.2</ele><time>2026-04-26T10:20:05Z</time></trkpt><trkpt lat="45.566896744881056" lon="10.841884347872421"><ele>442.4</ele><time>2026-04-26T10:20:06Z</time></trkpt><trkpt lat="45.56689944699525" lon="10.842010907319436"><ele>441.6</ele><time>2026-04-26T10:20:07Z</time></trkpt><trkpt lat="45.56690486695333" lon="10.842148970796234"><ele>440.8</ele><time>2026-04-26T10:20:08Z</time></trkpt><trkpt lat="45.56692865923417" lon="10.842290725516369"><ele>440.0</ele><time>2026-04-26T10:20:09Z</time></trkpt><trkpt lat="45.56695780806287" lon="10.842410721692477"><ele>439.99999999999994</ele><time>2026-04-26T10:20:10Z</time></trkpt><trkpt lat="45.56698342654866" lon="10.84252551916837"><ele>440.0</ele><time>2026-04-26T10:20:11Z</time></trkpt><trkpt lat="45.567004164960906" lon="10.84262968500344"><ele>440.0</ele><time>2026-04-26T10:20:12Z</time></trkpt><trkpt lat="45.56701611021312" lon="10.842740909024382"><ele>440.0</ele><time>2026-04-26T10:20:13Z</time></trkpt><trkpt lat="45.567024811398426" lon="10.842848356333736"><ele>439.99999999999994</ele><time>2026-04-26T10:20:14Z</time></trkpt><trkpt lat="45.567006608680714" lon="10.842950067203285"><ele>440.0</ele><time>2026-04-26T10:20:15Z</time></trkpt><trkpt lat="45.56696826582194" lon="10.843049593270974"><ele>440.0</ele><time>2026-04-26T10:20:16Z</time></trkpt><trkpt lat="45.56691284040485" lon="10.843130391139612"><ele>440.0</ele><time>2026-04-26T10:20:17Z</time></trkpt><trkpt lat="45.56682805820486" lon="10.843198314693064"><ele>440.0</ele><time>2026-04-26T10:20:18Z</time></trkpt><trkpt lat="45.566732730376" lon="10.843244401175559"><ele>440.0</ele><time>2026-04-26T10:20:19Z</time></trkpt><trkpt lat="45.566664465489836" lon="10.843354899529201"><ele>440.0</ele><time>2026-04-26T10:20:20Z</time></trkpt><trkpt lat="45.56662163756456" lon="10.843522891678763"><ele>440.5</ele><time>2026-04-26T10:20:21Z</time></trkpt><trkpt lat="45.56659518416379" lon="10.843739700031662"><ele>441.0</ele><time>2026-04-26T10:20:22Z</time></trkpt><trkpt lat="45.56657340292026" lon="10.843953296539388"><ele>441.5</ele><time>2026-04-26T10:20:23Z</time></trkpt><trkpt lat="45.566543865889415" lon="10.844131335233074"><ele>442.0</ele><time>2026-04-26T10:20:24Z</time></trkpt><trkpt lat="45.56651538986977" lon="10.844286262761377"><ele>442.40000000000003</ele><time>2026-04-26T10:20:25Z</time></trkpt><trkpt lat="45.56648653639161" lon="10.844438144328313"><ele>442.80000000000007</ele><time>2026-04-26T10:20:26Z</time></trkpt><trkpt lat="45.56645773288187" lon="10.844579278590937"><ele>443.2</ele><time>2026-04-26T10:20:27Z</time></trkpt><trkpt lat="45.56643039850521" lon="10.844718166320535"><ele>443.6</ele><time>2026-04-26T10:20:28Z</time></trkpt><trkpt lat="45.56640783605275" lon="10.844857466193785"><ele>444.0</ele><time>2026-04-26T10:20:29Z</time></trkpt><trkpt lat="45.566394547033305" lon="10.845009436950987"><ele>444.4</ele><time>2026-04-26T10:20:30Z</time></trkpt><trkpt lat="45.56640634436139" lon="10.845154302852356"><ele>444.79999999999995</ele><time>2026-04-26T10:20:31Z</time></trkpt><trkpt lat="45.56645259700474" lon="10.84529331798035"><ele>445.20000000000005</ele><time>2026-04-26T10:20:32Z</time></trkpt><trkpt lat="45.56652832493789" lon="10.845400832196956"><ele>445.6</ele><time>2026-04-26T10:20:33Z</time></trkpt><trkpt lat="45.566599830311624" lon="10.845476566940297"><ele>446.0</ele><time>2026-04-26T10:20:34Z</time></trkpt><trkpt lat="45.56665420134909" lon="10.845548620401916"><ele>446.0</ele><time>2026-04-26T10:20:35Z</time></trkpt><trkpt lat="45.56668576425684" lon="10.84562776140746"><ele>446.0</ele><time>2026-04-26T10:20:36Z</time></trkpt><trkpt lat="45.56663695025309" lon="10.845781808461558"><ele>446.0</ele><time>2026-04-26T10:20:38Z</time></trkpt><trkpt lat="45.56670850453826" lon="10.845743889338642"><ele>446.0</ele><time>2026-04-26T10:20:41Z</time></trkpt><trkpt lat="45.56671103685762" lon="10.845608547540575"><ele>446.0</ele><time>2026-04-26T10:20:43Z</time></trkpt><trkpt lat="45.56664332759453" lon="10.845492157629323"><ele>446.0</ele><time>2026-04-26T10:20:45Z</time></trkpt><trkpt lat="45.56658059724677" lon="10.845413886212414"><ele>446.0</ele><time>2026-04-26T10:20:46Z</time></trkpt><trkpt lat="45.566514849667115" lon="10.845318761099803"><ele>446.0</ele><time>2026-04-26T10:20:47Z</time></trkpt><trkpt lat="45.5664711648469" lon="10.845248524394862"><ele>446.0</ele><time>2026-04-26T10:20:48Z</time></trkpt><trkpt lat="45.56642007026794" lon="10.845079456981331"><ele>446.0</ele><time>2026-04-26T10:20:50Z</time></trkpt><trkpt lat="45.56641902760478" lon="10.844952654106482"><ele>445.6</ele><time>2026-04-26T10:20:51Z</time></trkpt><trkpt lat="45.56643010422683" lon="10.844817224341975"><ele>445.20000000000005</ele><time>2026-04-26T10:20:52Z</time></trkpt><trkpt lat="45.56645216682205" lon="10.844705948304853"><ele>444.79999999999995</ele><time>2026-04-26T10:20:53Z</time></trkpt><trkpt lat="45.566489806504585" lon="10.844559653245055"><ele>444.4</ele><time>2026-04-26T10:20:55Z</time></trkpt><trkpt lat="45.56660796174939" lon="10.844522559937532"><ele>444.0</ele><time>2026-04-26T10:20:57Z</time></trkpt><trkpt lat="45.566661693282484" lon="10.844569610796773"><ele>444.0</ele><time>2026-04-26T10:20:58Z</time></trkpt><trkpt lat="45.56670032807348" lon="10.84466762785734"><ele>444.0</ele><time>2026-04-26T10:20:59Z</time></trkpt><trkpt lat="45.56671791784592" lon="10.844776205229998"><ele>444.0</ele><time>2026-04-26T10:21:00Z</time></trkpt><trkpt lat="45.566744787318065" lon="10.844899826797269"><ele>444.0</ele><time>2026-04-26T10:21:01Z</time></trkpt><trkpt lat="45.5667728913945" lon="10.844997654874923"><ele>444.0</ele><time>2026-04-26T10:21:02Z</time></trkpt><trkpt lat="45.56679113065538" lon="10.845083954602886"><ele>444.0</ele><time>2026-04-26T10:21:03Z</time></trkpt><trkpt lat="45.56677864360537" lon="10.84524767261817"><ele>444.4</ele><time>2026-04-26T10:21:05Z</time></trkpt><trkpt lat="45.566786431614915" lon="10.84535821837783"><ele>444.79999999999995</ele><time>2026-04-26T10:21:06Z</time></trkpt><trkpt lat="45.56682851426806" lon="10.845479889662132"><ele>445.20000000000005</ele><time>2026-04-26T10:21:07Z</time></trkpt><trkpt lat="45.56689784064112" lon="10.845567476879946"><ele>445.6</ele><time>2026-04-26T10:21:08Z</time></trkpt><trkpt lat="45.56697527880398" lon="10.84565432795565"><ele>446.0</ele><time>2026-04-26T10:21:09Z</time></trkpt><trkpt lat="45.567065857078816" lon="10.845758528293148"><ele>449.75</ele><time>2026-04-26T10:21:10Z</time></trkpt><trkpt lat="45.56715438035719" lon="10.845871842207584"><ele>453.5</ele><time>2026-04-26T10:21:11Z</time></trkpt><trkpt lat="45.567239862248364" lon="10.845972990539607"><ele>457.25</ele><time>2026-04-26T10:21:12Z</time></trkpt><trkpt lat="45.567316897743076" lon="10.846081844969113"><ele>461.0</ele><time>2026-04-26T10:21:13Z</time></trkpt><trkpt lat="45.56736917786569" lon="10.846233065667384"><ele>461.25</ele><time>2026-04-26T10:21:14Z</time></trkpt><trkpt lat="45.567403608515825" lon="10.846426260805982"><ele>461.5</ele><time>2026-04-26T10:21:15Z</time></trkpt><trkpt lat="45.567455993532874" lon="10.846650883861374"><ele>461.75</ele><time>2026-04-26T10:21:16Z</time></trkpt><trkpt lat="45.567505162961154" lon="10.8468285494169"><ele>462.0</ele><time>2026-04-26T10:21:17Z</time></trkpt><trkpt lat="45.56756304988163" lon="10.8469860619698"><ele>463.0</ele><time>2026-04-26T10:21:18Z</time></trkpt><trkpt lat="45.56758956940735" lon="10.847130249800573"><ele>464.00000000000006</ele><time>2026-04-26T10:21:19Z</time></trkpt><trkpt lat="45.56762623243945" lon="10.847255780001266"><ele>465.00000000000006</ele><time>2026-04-26T10:21:20Z</time></trkpt><trkpt lat="45.567703892119454" lon="10.847356835942069"><ele>466.0</ele><time>2026-04-26T10:21:21Z</time></trkpt><trkpt lat="45.567811266812264" lon="10.847467426221025"><ele>467.0</ele><time>2026-04-26T10:21:22Z</time></trkpt><trkpt lat="45.56790597600931" lon="10.847562525671517"><ele>471.75</ele><time>2026-04-26T10:21:23Z</time></trkpt><trkpt lat="45.567964804229575" lon="10.847688790649183"><ele>476.5</ele><time>2026-04-26T10:21:24Z</time></trkpt><trkpt lat="45.56799666742396" lon="10.84788702266497"><ele>481.25</ele><time>2026-04-26T10:21:25Z</time></trkpt><trkpt lat="45.568047289914944" lon="10.848150288124414"><ele>486.0</ele><time>2026-04-26T10:21:26Z</time></trkpt><trkpt lat="45.56810496119849" lon="10.84839872356545"><ele>486.75</ele><time>2026-04-26T10:21:27Z</time></trkpt><trkpt lat="45.568157154559884" lon="10.848595552460813"><ele>487.5</ele><time>2026-04-26T10:21:28Z</time></trkpt><trkpt lat="45.56821336104896" lon="10.848724748325958"><ele>488.25</ele><time>2026-04-26T10:21:29Z</time></trkpt><trkpt lat="45.56826615942657" lon="10.848816019026842"><ele>489.0</ele><time>2026-04-26T10:21:30Z</time></trkpt><trkpt lat="45.56825267782745" lon="10.848977939505803"><ele>489.0</ele><time>2026-04-26T10:21:32Z</time></trkpt><trkpt lat="45.568190157879926" lon="10.84900915152084"><ele>489.0</ele><time>2026-04-26T10:21:33Z</time></trkpt><trkpt lat="45.568117046861666" lon="10.848979805141282"><ele>489.0</ele><time>2026-04-26T10:21:34Z</time></trkpt><trkpt lat="45.56806019579771" lon="10.848930074012396"><ele>489.0</ele><time>2026-04-26T10:21:35Z</time></trkpt><trkpt lat="45.56802695062177" lon="10.848829366038622"><ele>489.0</ele><time>2026-04-26T10:21:36Z</time></trkpt><trkpt lat="45.567990853343055" lon="10.848715698591802"><ele>489.0</ele><time>2026-04-26T10:21:37Z</time></trkpt><trkpt lat="45.567942699429764" lon="10.84861661692881"><ele>489.0</ele><time>2026-04-26T10:21:38Z</time></trkpt><trkpt lat="45.56787946489051" lon="10.84852336482432"><ele>489.0</ele><time>2026-04-26T10:21:39Z</time></trkpt><trkpt lat="45.56780488985005" lon="10.848436338329574"><ele>489.0</ele><time>2026-04-26T10:21:40Z</time></trkpt><trkpt lat="45.56772372674183" lon="10.84836013623205"><ele>489.0</ele><time>2026-04-26T10:21:41Z</time></trkpt><trkpt lat="45.5676306749367" lon="10.848330920951243"><ele>489.0</ele><time>2026-04-26T10:21:42Z</time></trkpt><trkpt lat="45.56750927307987" lon="10.848341534054939"><ele>486.66666666666663</ele><time>2026-04-26T10:21:43Z</time></trkpt><trkpt lat="45.567365708240395" lon="10.848380721605862"><ele>484.3333333333333</ele><time>2026-04-26T10:21:44Z</time></trkpt><trkpt lat="45.56722177862556" lon="10.848411246430052"><ele>482.0</ele><time>2026-04-26T10:21:45Z</time></trkpt><trkpt lat="45.56706308259438" lon="10.848427560741971"><ele>488.0</ele><time>2026-04-26T10:21:46Z</time></trkpt><trkpt lat="45.56689919899592" lon="10.848469449946425"><ele>494.0</ele><time>2026-04-26T10:21:47Z</time></trkpt><trkpt lat="45.56672871385874" lon="10.84853154424465"><ele>500.0</ele><time>2026-04-26T10:21:48Z</time></trkpt><trkpt lat="45.56658290491419" lon="10.848599046637702"><ele>500.0</ele><time>2026-04-26T10:21:49Z</time></trkpt><trkpt lat="45.56646209418174" lon="10.84864938343358"><ele>500.0</ele><time>2026-04-26T10:21:50Z</time></trkpt><trkpt lat="45.566355068578844" lon="10.848680896684149"><ele>500.0</ele><time>2026-04-26T10:21:51Z</time></trkpt><trkpt lat="45.566255876259135" lon="10.848693024801413"><ele>500.0</ele><time>2026-04-26T10:21:52Z</time></trkpt><trkpt lat="45.56615529583463" lon="10.848692060254"><ele>500.0</ele><time>2026-04-26T10:21:53Z</time></trkpt><trkpt lat="45.566053351923436" lon="10.848687720519134"><ele>500.6</ele><time>2026-04-26T10:21:54Z</time></trkpt><trkpt lat="45.565956986650534" lon="10.848667826533296"><ele>501.2</ele><time>2026-04-26T10:21:55Z</time></trkpt><trkpt lat="45.565847718573444" lon="10.848640888734357"><ele>501.79999999999995</ele><time>2026-04-26T10:21:56Z</time></trkpt><trkpt lat="45.5657431201863" lon="10.848622419086455"><ele>502.4</ele><time>2026-04-26T10:21:57Z</time></trkpt><trkpt lat="45.56564174949855" lon="10.848607275897653"><ele>503.0</ele><time>2026-04-26T10:21:58Z</time></trkpt><trkpt lat="45.565543442738935" lon="10.848611228153569"><ele>503.0</ele><time>2026-04-26T10:21:59Z</time></trkpt><trkpt lat="45.56544392533994" lon="10.848656597992548"><ele>502.99999999999994</ele><time>2026-04-26T10:22:00Z</time></trkpt><trkpt lat="45.56535895353627" lon="10.848752440089239"><ele>502.99999999999994</ele><time>2026-04-26T10:22:01Z</time></trkpt><trkpt lat="45.5653017005236" lon="10.848888595319254"><ele>503.0</ele><time>2026-04-26T10:22:02Z</time></trkpt><trkpt lat="45.56525159038076" lon="10.849031570918902"><ele>503.0</ele><time>2026-04-26T10:22:03Z</time></trkpt><trkpt lat="45.56518951165895" lon="10.849131978965891"><ele>503.0</ele><time>2026-04-26T10:22:04Z</time></trkpt><trkpt lat="45.56509770127352" lon="10.849172326133985"><ele>503.0</ele><time>2026-04-26T10:22:05Z</time></trkpt><trkpt lat="45.564984497193386" lon="10.849195756601581"><ele>503.0</ele><time>2026-04-26T10:22:06Z</time></trkpt><trkpt lat="45.56485983737973" lon="10.849238005603482"><ele>503.0</ele><time>2026-04-26T10:22:07Z</time></trkpt><trkpt lat="45.56472850485398" lon="10.849269512599495"><ele>503.0</ele><time>2026-04-26T10:22:08Z</time></trkpt><trkpt lat="45.56458708487431" lon="10.849284199711718"><ele>503.0</ele><time>2026-04-26T10:22:09Z</time></trkpt><trkpt lat="45.564435462455364" lon="10.849285313656022"><ele>503.0</ele><time>2026-04-26T10:22:10Z</time></trkpt><trkpt lat="45.56428938703542" lon="10.849276068354293"><ele>503.0</ele><time>2026-04-26T10:22:11Z</time></trkpt><trkpt lat="45.56413728471871" lon="10.849256789726313"><ele>504.25</ele><time>2026-04-26T10:22:12Z</time></trkpt><trkpt lat="45.563995003624896" lon="10.849238785547648"><ele>505.5</ele><time>2026-04-26T10:22:13Z</time></trkpt><trkpt lat="45.563866466676906" lon="10.849229821262263"><ele>506.75</ele><time>2026-04-26T10:22:14Z</time></trkpt><trkpt lat="45.5637561117164" lon="10.84923541244738"><ele>508.0</ele><time>2026-04-26T10:22:15Z</time></trkpt><trkpt lat="45.56365549895498" lon="10.849249331445309"><ele>508.00000000000006</ele><time>2026-04-26T10:22:16Z</time></trkpt><trkpt lat="45.56357933374596" lon="10.84919573336878"><ele>508.0</ele><time>2026-04-26T10:22:18Z</time></trkpt><trkpt lat="45.56356020057442" lon="10.849069068394066"><ele>508.0</ele><time>2026-04-26T10:22:20Z</time></trkpt><trkpt lat="45.563512371160535" lon="10.849006101200072"><ele>508.0</ele><time>2026-04-26T10:22:32Z</time></trkpt><trkpt lat="45.56342991976282" lon="10.84895407559583"><ele>508.00000000000006</ele><time>2026-04-26T10:22:35Z</time></trkpt><trkpt lat="45.56334089540722" lon="10.84897257118862"><ele>508.0</ele><time>2026-04-26T10:22:37Z</time></trkpt><trkpt lat="45.56325069145559" lon="10.849000888119232"><ele>508.0</ele><time>2026-04-26T10:22:39Z</time></trkpt><trkpt lat="45.56316049574542" lon="10.849042855416334"><ele>507.99999999999994</ele><time>2026-04-26T10:22:41Z</time></trkpt><trkpt lat="45.563044002586025" lon="10.849086652679821"><ele>507.99999999999994</ele><time>2026-04-26T10:22:42.999Z</time></trkpt><trkpt lat="45.562959815526014" lon="10.849127323451068"><ele>508.0</ele><time>2026-04-26T10:22:43.999Z</time></trkpt><trkpt lat="45.56285160085884" lon="10.84917760823795"><ele>508.0</ele><time>2026-04-26T10:22:44.999Z</time></trkpt><trkpt lat="45.56274274470884" lon="10.84922078096643"><ele>506.4</ele><time>2026-04-26T10:22:45.999Z</time></trkpt><trkpt lat="45.56263466444541" lon="10.849254762548146"><ele>504.79999999999995</ele><time>2026-04-26T10:22:46.999Z</time></trkpt><trkpt lat="45.562533178632876" lon="10.849279096848054"><ele>503.2</ele><time>2026-04-26T10:22:47.999Z</time></trkpt><trkpt lat="45.56243452085122" lon="10.849289019140707"><ele>501.6</ele><time>2026-04-26T10:22:48.999Z</time></trkpt><trkpt lat="45.56234127572792" lon="10.849281612085933"><ele>500.0</ele><time>2026-04-26T10:22:49.999Z</time></trkpt><trkpt lat="45.56226117593993" lon="10.849262996778041"><ele>500.0</ele><time>2026-04-26T10:22:50.999Z</time></trkpt><trkpt lat="45.562182626755025" lon="10.849258266809285"><ele>500.0</ele><time>2026-04-26T10:22:51.999Z</time></trkpt><trkpt lat="45.56208300395739" lon="10.849286885114495"><ele>500.0</ele><time>2026-04-26T10:22:52.999Z</time></trkpt><trkpt lat="45.56198421877344" lon="10.849358987493327"><ele>500.0</ele><time>2026-04-26T10:22:53.999Z</time></trkpt><trkpt lat="45.56190597240628" lon="10.849462633944105"><ele>500.0</ele><time>2026-04-26T10:22:54.999Z</time></trkpt><trkpt lat="45.56184388765552" lon="10.84959336635618"><ele>499.2</ele><time>2026-04-26T10:22:55.999Z</time></trkpt><trkpt lat="45.561789708322294" lon="10.849747520390093"><ele>498.4</ele><time>2026-04-26T10:22:56.999Z</time></trkpt><trkpt lat="45.56174734997677" lon="10.849893755344695"><ele>497.6</ele><time>2026-04-26T10:22:57.999Z</time></trkpt><trkpt lat="45.561712223626714" lon="10.850032121590946"><ele>496.8</ele><time>2026-04-26T10:22:58.999Z</time></trkpt><trkpt lat="45.56168187152238" lon="10.85016575680386"><ele>496.0</ele><time>2026-04-26T10:22:59.999Z</time></trkpt><trkpt lat="45.56165372453408" lon="10.85029960764071"><ele>496.0</ele><time>2026-04-26T10:23:00.999Z</time></trkpt><trkpt lat="45.561620713543164" lon="10.850446494419273"><ele>496.0</ele><time>2026-04-26T10:23:01.999Z</time></trkpt><trkpt lat="45.56158343719759" lon="10.850598546768301"><ele>496.0</ele><time>2026-04-26T10:23:02.999Z</time></trkpt><trkpt lat="45.561543534241224" lon="10.850755415138037"><ele>496.0</ele><time>2026-04-26T10:23:03.999Z</time></trkpt><trkpt lat="45.56150304789812" lon="10.850903470541212"><ele>496.0</ele><time>2026-04-26T10:23:04.999Z</time></trkpt><trkpt lat="45.56146775083775" lon="10.851042919812606"><ele>496.8</ele><time>2026-04-26T10:23:05.999Z</time></trkpt><trkpt lat="45.56142998034306" lon="10.851165010927948"><ele>497.6</ele><time>2026-04-26T10:23:06.999Z</time></trkpt><trkpt lat="45.561377948911385" lon="10.851277455158291"><ele>498.4</ele><time>2026-04-26T10:23:07.999Z</time></trkpt><trkpt lat="45.56130399382386" lon="10.851354694270064"><ele>499.2</ele><time>2026-04-26T10:23:08.999Z</time></trkpt><trkpt lat="45.56119508668865" lon="10.851397447708091"><ele>500.0</ele><time>2026-04-26T10:23:09.999Z</time></trkpt><trkpt lat="45.561069063034665" lon="10.851412874095674"><ele>497.4</ele><time>2026-04-26T10:23:10.999Z</time></trkpt><trkpt lat="45.560950668799144" lon="10.851409039311749"><ele>494.8</ele><time>2026-04-26T10:23:11.999Z</time></trkpt><trkpt lat="45.56084505772045" lon="10.851379847068095"><ele>492.20000000000005</ele><time>2026-04-26T10:23:12.999Z</time></trkpt><trkpt lat="45.56075691230035" lon="10.851311380277034"><ele>489.6</ele><time>2026-04-26T10:23:13.999Z</time></trkpt><trkpt lat="45.5606908914251" lon="10.85119803758985"><ele>487.0</ele><time>2026-04-26T10:23:14.999Z</time></trkpt><trkpt lat="45.560651863724054" lon="10.85106323451869"><ele>485.6</ele><time>2026-04-26T10:23:15.999Z</time></trkpt><trkpt lat="45.560631217020294" lon="10.850915042414195"><ele>484.20000000000005</ele><time>2026-04-26T10:23:16.999Z</time></trkpt><trkpt lat="45.56062007475234" lon="10.850772787053911"><ele>482.8</ele><time>2026-04-26T10:23:17.999Z</time></trkpt><trkpt lat="45.560612836911886" lon="10.850643030391485"><ele>481.4</ele><time>2026-04-26T10:23:18.999Z</time></trkpt><trkpt lat="45.560605183785" lon="10.850520705004998"><ele>480.0</ele><time>2026-04-26T10:23:19.999Z</time></trkpt><trkpt lat="45.56059976420385" lon="10.850407048649304"><ele>480.0</ele><time>2026-04-26T10:23:20.999Z</time></trkpt><trkpt lat="45.56060368556447" lon="10.850310349096114"><ele>480.0</ele><time>2026-04-26T10:23:21.999Z</time></trkpt><trkpt lat="45.56062059311565" lon="10.850154630541793"><ele>480.0</ele><time>2026-04-26T10:23:23.999Z</time></trkpt><trkpt lat="45.560619749526126" lon="10.850062598562467"><ele>480.0</ele><time>2026-04-26T10:23:39.999Z</time></trkpt><trkpt lat="45.560633842301215" lon="10.849892805510082"><ele>480.0</ele><time>2026-04-26T10:23:44Z</time></trkpt><trkpt lat="45.560652435739975" lon="10.849753340113478"><ele>479.0</ele><time>2026-04-26T10:23:46Z</time></trkpt><trkpt lat="45.56066181737851" lon="10.849632643005213"><ele>478.0</ele><time>2026-04-26T10:23:48Z</time></trkpt><trkpt lat="45.560664842545236" lon="10.849525864498936"><ele>477.0</ele><time>2026-04-26T10:23:50Z</time></trkpt><trkpt lat="45.560664511636965" lon="10.849411463282165"><ele>476.0</ele><time>2026-04-26T10:23:52Z</time></trkpt><trkpt lat="45.560664063379356" lon="10.849290526497386"><ele>475.0</ele><time>2026-04-26T10:23:54Z</time></trkpt><trkpt lat="45.560651697426316" lon="10.84909121114454"><ele>475.0</ele><time>2026-04-26T10:23:56Z</time></trkpt><trkpt lat="45.56064705035825" lon="10.848967647481674"><ele>475.0</ele><time>2026-04-26T10:23:57Z</time></trkpt><trkpt lat="45.56064326824829" lon="10.84882861633972"><ele>475.0</ele><time>2026-04-26T10:23:58Z</time></trkpt><trkpt lat="45.56063552528751" lon="10.84867554816692"><ele>475.0</ele><time>2026-04-26T10:23:59Z</time></trkpt><trkpt lat="45.560624857235105" lon="10.848529587460753"><ele>475.0</ele><time>2026-04-26T10:24:00Z</time></trkpt><trkpt lat="45.56061323022952" lon="10.848400613999354"><ele>474.6666666666667</ele><time>2026-04-26T10:24:01Z</time></trkpt><trkpt lat="45.560607661307216" lon="10.84828467077486"><ele>474.33333333333337</ele><time>2026-04-26T10:24:02Z</time></trkpt><trkpt lat="45.560606678044124" lon="10.84816250308032"><ele>474.0</ele><time>2026-04-26T10:24:03Z</time></trkpt><trkpt lat="45.560602981885964" lon="10.848049401726163"><ele>473.66666666666663</ele><time>2026-04-26T10:24:04Z</time></trkpt><trkpt lat="45.560599572985744" lon="10.847935543129617"><ele>473.3333333333333</ele><time>2026-04-26T10:24:05Z</time></trkpt><trkpt lat="45.560598758424355" lon="10.847831165500793"><ele>473.0</ele><time>2026-04-26T10:24:06Z</time></trkpt><trkpt lat="45.56059848604631" lon="10.847729944030263"><ele>472.0</ele><time>2026-04-26T10:24:07Z</time></trkpt><trkpt lat="45.56060373685133" lon="10.847599593206956"><ele>470.99999999999994</ele><time>2026-04-26T10:24:08Z</time></trkpt><trkpt lat="45.56060451762147" lon="10.847451080512512"><ele>469.99999999999994</ele><time>2026-04-26T10:24:09Z</time></trkpt><trkpt lat="45.560606115903255" lon="10.847286773269223"><ele>469.0</ele><time>2026-04-26T10:24:10Z</time></trkpt><trkpt lat="45.56061736595685" lon="10.847136547162641"><ele>468.0</ele><time>2026-04-26T10:24:11Z</time></trkpt><trkpt lat="45.560637796228235" lon="10.846993231431847"><ele>468.0</ele><time>2026-04-26T10:24:12Z</time></trkpt><trkpt lat="45.56065961517626" lon="10.846846898911362"><ele>467.99999999999994</ele><time>2026-04-26T10:24:13Z</time></trkpt><trkpt lat="45.56067978008993" lon="10.846695922221823"><ele>467.99999999999994</ele><time>2026-04-26T10:24:14Z</time></trkpt><trkpt lat="45.56071112000435" lon="10.84654164084338"><ele>468.0</ele><time>2026-04-26T10:24:15Z</time></trkpt><trkpt lat="45.56074707207671" lon="10.846392303071104"><ele>468.0</ele><time>2026-04-26T10:24:16Z</time></trkpt><trkpt lat="45.56078988801191" lon="10.846251943638684"><ele>467.0</ele><time>2026-04-26T10:24:17Z</time></trkpt><trkpt lat="45.56083889330895" lon="10.84611196187925"><ele>465.99999999999994</ele><time>2026-04-26T10:24:18Z</time></trkpt><trkpt lat="45.56089682017177" lon="10.84599260377298"><ele>464.99999999999994</ele><time>2026-04-26T10:24:19Z</time></trkpt><trkpt lat="45.56096724094354" lon="10.845888931181"><ele>464.0</ele><time>2026-04-26T10:24:20Z</time></trkpt><trkpt lat="45.561031953655046" lon="10.845819858058807"><ele>463.0</ele><time>2026-04-26T10:24:21Z</time></trkpt><trkpt lat="45.56108678754357" lon="10.845752302589187"><ele>461.6666666666667</ele><time>2026-04-26T10:24:22Z</time></trkpt><trkpt lat="45.56113849792823" lon="10.845636645615729"><ele>460.33333333333337</ele><time>2026-04-26T10:24:24Z</time></trkpt><trkpt lat="45.561114777480334" lon="10.845543345842227"><ele>459.0</ele><time>2026-04-26T10:24:27Z</time></trkpt><trkpt lat="45.56103670924479" lon="10.845488290040791"><ele>457.66666666666663</ele><time>2026-04-26T10:25:09Z</time></trkpt><trkpt lat="45.5609555472755" lon="10.845456364033412"><ele>456.3333333333333</ele><time>2026-04-26T10:25:12Z</time></trkpt><trkpt lat="45.560853016047936" lon="10.845482409288858"><ele>455.0</ele><time>2026-04-26T10:25:14Z</time></trkpt><trkpt lat="45.560711921559474" lon="10.845507848436206"><ele>455.0</ele><time>2026-04-26T10:25:16Z</time></trkpt><trkpt lat="45.56061869010868" lon="10.845528246072101"><ele>455.0</ele><time>2026-04-26T10:25:17Z</time></trkpt><trkpt lat="45.560506375912844" lon="10.845553571955595"><ele>455.0</ele><time>2026-04-26T10:25:18Z</time></trkpt><trkpt lat="45.56038043356974" lon="10.845594806946458"><ele>455.0</ele><time>2026-04-26T10:25:19Z</time></trkpt><trkpt lat="45.56026333173098" lon="10.845639811170404"><ele>453.8</ele><time>2026-04-26T10:25:20Z</time></trkpt><trkpt lat="45.56015083060642" lon="10.845680593300996"><ele>452.6</ele><time>2026-04-26T10:25:21Z</time></trkpt><trkpt lat="45.56004637284552" lon="10.845727089074023"><ele>451.4</ele><time>2026-04-26T10:25:22Z</time></trkpt><trkpt lat="45.559953042395385" lon="10.84579790643092"><ele>450.2</ele><time>2026-04-26T10:25:23Z</time></trkpt><trkpt lat="45.559872749865654" lon="10.84588983554156"><ele>449.0</ele><time>2026-04-26T10:25:24Z</time></trkpt><trkpt lat="45.55979237909188" lon="10.846010066980174"><ele>449.0</ele><time>2026-04-26T10:25:25Z</time></trkpt><trkpt lat="45.559710195737445" lon="10.8461542062775"><ele>449.0</ele><time>2026-04-26T10:25:26Z</time></trkpt><trkpt lat="45.55963523763427" lon="10.846321107995253"><ele>449.0</ele><time>2026-04-26T10:25:27Z</time></trkpt><trkpt lat="45.559583640636205" lon="10.846481807740204"><ele>449.0</ele><time>2026-04-26T10:25:28Z</time></trkpt><trkpt lat="45.55954437495087" lon="10.84665396922489"><ele>447.0</ele><time>2026-04-26T10:25:29Z</time></trkpt><trkpt lat="45.559509788191825" lon="10.846816900926996"><ele>445.0</ele><time>2026-04-26T10:25:30Z</time></trkpt><trkpt lat="45.5594751283553" lon="10.846981006840043"><ele>443.0</ele><time>2026-04-26T10:25:31Z</time></trkpt><trkpt lat="45.559446978069175" lon="10.847125899087319"><ele>441.0</ele><time>2026-04-26T10:25:32Z</time></trkpt><trkpt lat="45.559412782297834" lon="10.847283625461591"><ele>441.0</ele><time>2026-04-26T10:25:33Z</time></trkpt><trkpt lat="45.559374024265246" lon="10.847440680349454"><ele>441.0</ele><time>2026-04-26T10:25:34Z</time></trkpt><trkpt lat="45.55932739903348" lon="10.847607534981174"><ele>441.0</ele><time>2026-04-26T10:25:35Z</time></trkpt><trkpt lat="45.559263203218876" lon="10.847745100455889"><ele>441.0</ele><time>2026-04-26T10:25:36Z</time></trkpt><trkpt lat="45.55916744983659" lon="10.847842677894528"><ele>442.0</ele><time>2026-04-26T10:25:37Z</time></trkpt><trkpt lat="45.55904541763331" lon="10.847907770229316"><ele>443.0</ele><time>2026-04-26T10:25:38Z</time></trkpt><trkpt lat="45.55890515670205" lon="10.8479088279533"><ele>444.0</ele><time>2026-04-26T10:25:39Z</time></trkpt><trkpt lat="45.55875767723591" lon="10.847847168109181"><ele>445.0</ele><time>2026-04-26T10:25:40Z</time></trkpt><trkpt lat="45.55858993058703" lon="10.847737442329045"><ele>443.33333333333337</ele><time>2026-04-26T10:25:41Z</time></trkpt><trkpt lat="45.55842620987901" lon="10.847612369674302"><ele>441.66666666666663</ele><time>2026-04-26T10:25:42Z</time></trkpt><trkpt lat="45.558271332750856" lon="10.847497414271057"><ele>440.0</ele><time>2026-04-26T10:25:43Z</time></trkpt><trkpt lat="45.55813598580378" lon="10.847401667394218"><ele>440.0</ele><time>2026-04-26T10:25:44Z</time></trkpt><trkpt lat="45.55801899968841" lon="10.847310471859991"><ele>440.0</ele><time>2026-04-26T10:25:45Z</time></trkpt><trkpt lat="45.557918898981995" lon="10.847210529732985"><ele>440.0</ele><time>2026-04-26T10:25:46Z</time></trkpt><trkpt lat="45.55783476771819" lon="10.847067217456852"><ele>440.0</ele><time>2026-04-26T10:25:47Z</time></trkpt><trkpt lat="45.55777584153865" lon="10.84688822707063"><ele>440.66666666666663</ele><time>2026-04-26T10:25:48Z</time></trkpt><trkpt lat="45.55773960490324" lon="10.846681712548932"><ele>441.33333333333337</ele><time>2026-04-26T10:25:49Z</time></trkpt><trkpt lat="45.55770785065566" lon="10.846461510873663"><ele>442.0</ele><time>2026-04-26T10:25:50Z</time></trkpt><trkpt lat="45.55767365293" lon="10.846224664970633"><ele>442.0</ele><time>2026-04-26T10:25:51Z</time></trkpt><trkpt lat="45.55763100084701" lon="10.8460115746509"><ele>442.0</ele><time>2026-04-26T10:25:52Z</time></trkpt><trkpt lat="45.557580362792564" lon="10.845811165615372"><ele>442.0</ele><time>2026-04-26T10:25:53Z</time></trkpt><trkpt lat="45.55750782647957" lon="10.845619920052151"><ele>440.0</ele><time>2026-04-26T10:25:54Z</time></trkpt><trkpt lat="45.55740244297951" lon="10.845459142274247"><ele>438.0</ele><time>2026-04-26T10:25:55Z</time></trkpt><trkpt lat="45.557266410281244" lon="10.845339065060516"><ele>436.0</ele><time>2026-04-26T10:25:56Z</time></trkpt><trkpt lat="45.55711176434456" lon="10.845241390253351"><ele>437.33333333333337</ele><time>2026-04-26T10:25:57Z</time></trkpt><trkpt lat="45.55693436707126" lon="10.845155916625044"><ele>438.66666666666663</ele><time>2026-04-26T10:25:58Z</time></trkpt><trkpt lat="45.55674387510513" lon="10.845101285718153"><ele>440.0</ele><time>2026-04-26T10:25:59Z</time></trkpt><trkpt lat="45.55657790610819" lon="10.84507552255823"><ele>440.0</ele><time>2026-04-26T10:26:00Z</time></trkpt><trkpt lat="45.55641184868087" lon="10.84509715812011"><ele>440.0</ele><time>2026-04-26T10:26:01Z</time></trkpt><trkpt lat="45.55624146686711" lon="10.845165804868474"><ele>440.0</ele><time>2026-04-26T10:26:02Z</time></trkpt><trkpt lat="45.556084499965785" lon="10.845239140726598"><ele>441.0</ele><time>2026-04-26T10:26:03Z</time></trkpt><trkpt lat="45.55593906816549" lon="10.845294098775552"><ele>442.0</ele><time>2026-04-26T10:26:04Z</time></trkpt><trkpt lat="45.55578118411055" lon="10.845278333575962"><ele>443.0</ele><time>2026-04-26T10:26:05Z</time></trkpt><trkpt lat="45.555630639266255" lon="10.84516656466405"><ele>439.0</ele><time>2026-04-26T10:26:06Z</time></trkpt><trkpt lat="45.55547283473111" lon="10.84503257431817"><ele>435.0</ele><time>2026-04-26T10:26:07Z</time></trkpt><trkpt lat="45.55529763061566" lon="10.844901494215563"><ele>431.0</ele><time>2026-04-26T10:26:08Z</time></trkpt><trkpt lat="45.55511847510795" lon="10.844785961379294"><ele>431.0</ele><time>2026-04-26T10:26:09Z</time></trkpt><trkpt lat="45.554935408383045" lon="10.844669660923131"><ele>431.0</ele><time>2026-04-26T10:26:10Z</time></trkpt><trkpt lat="45.55477373430328" lon="10.844573940554476"><ele>431.0</ele><time>2026-04-26T10:26:11Z</time></trkpt><trkpt lat="45.55461116356614" lon="10.84448809730869"><ele>433.0</ele><time>2026-04-26T10:26:12Z</time></trkpt><trkpt lat="45.55443705561601" lon="10.844423883910071"><ele>435.0</ele><time>2026-04-26T10:26:13Z</time></trkpt><trkpt lat="45.55424203031816" lon="10.844389253310268"><ele>437.0</ele><time>2026-04-26T10:26:14Z</time></trkpt><trkpt lat="45.55405364057849" lon="10.844376363151145"><ele>437.0</ele><time>2026-04-26T10:26:15Z</time></trkpt><trkpt lat="45.553884159992805" lon="10.84436289079683"><ele>437.0</ele><time>2026-04-26T10:26:16Z</time></trkpt><trkpt lat="45.55371871215072" lon="10.8443531825513"><ele>437.0</ele><time>2026-04-26T10:26:17Z</time></trkpt><trkpt lat="45.55355482923351" lon="10.844341953000606"><ele>438.0</ele><time>2026-04-26T10:26:18Z</time></trkpt><trkpt lat="45.55339779987872" lon="10.844332010409316"><ele>439.0</ele><time>2026-04-26T10:26:19Z</time></trkpt><trkpt lat="45.553259453947305" lon="10.844309702126877"><ele>440.0</ele><time>2026-04-26T10:26:20Z</time></trkpt><trkpt lat="45.55312659982084" lon="10.84424595031501"><ele>441.0</ele><time>2026-04-26T10:26:21Z</time></trkpt><trkpt lat="45.553007232800844" lon="10.844131455011494"><ele>438.5</ele><time>2026-04-26T10:26:22Z</time></trkpt><trkpt lat="45.5529196186427" lon="10.843964671571293"><ele>436.0</ele><time>2026-04-26T10:26:23Z</time></trkpt><trkpt lat="45.55285112963918" lon="10.843793058476827"><ele>433.5</ele><time>2026-04-26T10:26:24Z</time></trkpt><trkpt lat="45.552754081019174" lon="10.843637683349748"><ele>431.0</ele><time>2026-04-26T10:26:25Z</time></trkpt><trkpt lat="45.55261523856014" lon="10.843535391114644"><ele>431.0</ele><time>2026-04-26T10:26:26Z</time></trkpt><trkpt lat="45.55243031396772" lon="10.843467807010299"><ele>431.0</ele><time>2026-04-26T10:26:27Z</time></trkpt><trkpt lat="45.55224309207681" lon="10.843461491585634"><ele>431.0</ele><time>2026-04-26T10:26:28Z</time></trkpt><trkpt lat="45.55205818617244" lon="10.843491653148591"><ele>430.0</ele><time>2026-04-26T10:26:29Z</time></trkpt><trkpt lat="45.55187576389737" lon="10.843568650797867"><ele>429.0</ele><time>2026-04-26T10:26:30Z</time></trkpt><trkpt lat="45.55171500639426" lon="10.843661318965763"><ele>428.0</ele><time>2026-04-26T10:26:31Z</time></trkpt><trkpt lat="45.55157080548387" lon="10.843741956654162"><ele>428.0</ele><time>2026-04-26T10:26:32Z</time></trkpt><trkpt lat="45.55142789785486" lon="10.843810746645294"><ele>428.0</ele><time>2026-04-26T10:26:33Z</time></trkpt><trkpt lat="45.55128846278641" lon="10.84384091065827"><ele>428.0</ele><time>2026-04-26T10:26:34Z</time></trkpt><trkpt lat="45.55116452680176" lon="10.843780898281684"><ele>428.0</ele><time>2026-04-26T10:26:35Z</time></trkpt><trkpt lat="45.55107794063399" lon="10.843669123548016"><ele>427.75</ele><time>2026-04-26T10:26:36Z</time></trkpt><trkpt lat="45.551024030393776" lon="10.84349994182115"><ele>427.5</ele><time>2026-04-26T10:26:37Z</time></trkpt><trkpt lat="45.55103833731622" lon="10.843342567599452"><ele>427.25</ele><time>2026-04-26T10:26:38Z</time></trkpt><trkpt lat="45.55107877894076" lon="10.843166616769969"><ele>427.0</ele><time>2026-04-26T10:26:39Z</time></trkpt><trkpt lat="45.55111333965229" lon="10.842983385413406"><ele>424.75</ele><time>2026-04-26T10:26:40Z</time></trkpt><trkpt lat="45.55111829908319" lon="10.84279826637694"><ele>422.5</ele><time>2026-04-26T10:26:41Z</time></trkpt><trkpt lat="45.55109140702988" lon="10.842618368105294"><ele>420.25</ele><time>2026-04-26T10:26:42Z</time></trkpt><trkpt lat="45.55104349594685" lon="10.842446813545388"><ele>418.0</ele><time>2026-04-26T10:26:43Z</time></trkpt><trkpt lat="45.550969978573754" lon="10.842284859200237"><ele>415.33333333333337</ele><time>2026-04-26T10:26:44Z</time></trkpt><trkpt lat="45.55086356313528" lon="10.842164001160867"><ele>412.66666666666663</ele><time>2026-04-26T10:26:45Z</time></trkpt><trkpt lat="45.55072406034955" lon="10.842100055411539"><ele>410.0</ele><time>2026-04-26T10:26:46Z</time></trkpt><trkpt lat="45.550551095630986" lon="10.842083805470383"><ele>411.0</ele><time>2026-04-26T10:26:47Z</time></trkpt><trkpt lat="45.550350918486075" lon="10.842069356283847"><ele>412.0</ele><time>2026-04-26T10:26:48Z</time></trkpt><trkpt lat="45.550144436147626" lon="10.842046202449154"><ele>413.0</ele><time>2026-04-26T10:26:49Z</time></trkpt><trkpt lat="45.549943192234736" lon="10.84201059842748"><ele>413.0</ele><time>2026-04-26T10:26:50Z</time></trkpt><trkpt lat="45.549752344567985" lon="10.841983004786586"><ele>413.0</ele><time>2026-04-26T10:26:51Z</time></trkpt><trkpt lat="45.549556684554354" lon="10.841968787869074"><ele>413.0</ele><time>2026-04-26T10:26:52Z</time></trkpt><trkpt lat="45.5493588742853" lon="10.841967026921047"><ele>412.66666666666663</ele><time>2026-04-26T10:26:53Z</time></trkpt><trkpt lat="45.5491735929892" lon="10.841985503209727"><ele>412.33333333333337</ele><time>2026-04-26T10:26:54Z</time></trkpt><trkpt lat="45.54900485594015" lon="10.84201251512268"><ele>412.0</ele><time>2026-04-26T10:26:55Z</time></trkpt><trkpt lat="45.54884304924213" lon="10.84205620778915"><ele>412.75</ele><time>2026-04-26T10:26:56Z</time></trkpt><trkpt lat="45.54870743044226" lon="10.842090817848856"><ele>413.5</ele><time>2026-04-26T10:26:57Z</time></trkpt><trkpt lat="45.548579275083796" lon="10.842079815407669"><ele>414.25</ele><time>2026-04-26T10:26:58Z</time></trkpt><trkpt lat="45.548478326225265" lon="10.841993165063013"><ele>415.0</ele><time>2026-04-26T10:26:59Z</time></trkpt><trkpt lat="45.54840362216614" lon="10.841842512140174"><ele>411.6666666666667</ele><time>2026-04-26T10:27:00Z</time></trkpt><trkpt lat="45.548333979965726" lon="10.841655341491492"><ele>408.33333333333337</ele><time>2026-04-26T10:27:01Z</time></trkpt><trkpt lat="45.5482301782569" lon="10.841480964329694"><ele>405.0</ele><time>2026-04-26T10:27:02Z</time></trkpt><trkpt lat="45.5480708800525" lon="10.841337751506714"><ele>405.66666666666663</ele><time>2026-04-26T10:27:03Z</time></trkpt><trkpt lat="45.54786666124767" lon="10.841233632908894"><ele>406.3333333333333</ele><time>2026-04-26T10:27:04Z</time></trkpt><trkpt lat="45.547646665001096" lon="10.84116042748699"><ele>407.0</ele><time>2026-04-26T10:27:05Z</time></trkpt><trkpt lat="45.54745326864241" lon="10.841099816843107"><ele>407.0</ele><time>2026-04-26T10:27:06Z</time></trkpt><trkpt lat="45.54727127450344" lon="10.841080093208417"><ele>407.0</ele><time>2026-04-26T10:27:07Z</time></trkpt><trkpt lat="45.54709795100463" lon="10.841113249931865"><ele>407.0</ele><time>2026-04-26T10:27:08Z</time></trkpt><trkpt lat="45.54692457102032" lon="10.841178331527932"><ele>406.3333333333333</ele><time>2026-04-26T10:27:09Z</time></trkpt><trkpt lat="45.546760819378505" lon="10.841240870364018"><ele>405.66666666666663</ele><time>2026-04-26T10:27:10Z</time></trkpt><trkpt lat="45.54660489239348" lon="10.841281809325103"><ele>405.0</ele><time>2026-04-26T10:27:11Z</time></trkpt><trkpt lat="45.54645135466279" lon="10.841290310748974"><ele>405.0</ele><time>2026-04-26T10:27:12Z</time></trkpt><trkpt lat="45.54628262361088" lon="10.8412539188757"><ele>405.0</ele><time>2026-04-26T10:27:13Z</time></trkpt><trkpt lat="45.54613575803724" lon="10.84115555082126"><ele>405.0</ele><time>2026-04-26T10:27:14Z</time></trkpt><trkpt lat="45.546005789290184" lon="10.841030632583387"><ele>400.33333333333337</ele><time>2026-04-26T10:27:15Z</time></trkpt><trkpt lat="45.54587840315853" lon="10.840856222690846"><ele>395.6666666666667</ele><time>2026-04-26T10:27:16Z</time></trkpt><trkpt lat="45.54575598687978" lon="10.84066968906363"><ele>391.0</ele><time>2026-04-26T10:27:17Z</time></trkpt><trkpt lat="45.545627349800085" lon="10.840489414434257"><ele>391.0</ele><time>2026-04-26T10:27:18Z</time></trkpt><trkpt lat="45.54550209444627" lon="10.84032462606924"><ele>391.0</ele><time>2026-04-26T10:27:19Z</time></trkpt><trkpt lat="45.545355657232854" lon="10.840163540922772"><ele>391.0</ele><time>2026-04-26T10:27:20Z</time></trkpt><trkpt lat="45.545180177554236" lon="10.840014260672884"><ele>389.6666666666667</ele><time>2026-04-26T10:27:21Z</time></trkpt><trkpt lat="45.544976564434336" lon="10.839881345657995"><ele>388.33333333333337</ele><time>2026-04-26T10:27:22Z</time></trkpt><trkpt lat="45.544794731984915" lon="10.8397624307199"><ele>387.0</ele><time>2026-04-26T10:27:23Z</time></trkpt><trkpt lat="45.54462529810439" lon="10.839648102666473"><ele>387.66666666666663</ele><time>2026-04-26T10:27:24Z</time></trkpt><trkpt lat="45.54446745630476" lon="10.839556406597232"><ele>388.3333333333333</ele><time>2026-04-26T10:27:25Z</time></trkpt><trkpt lat="45.54431193695086" lon="10.839491354877612"><ele>389.0</ele><time>2026-04-26T10:27:26Z</time></trkpt><trkpt lat="45.544157207133296" lon="10.839464231913338"><ele>389.0</ele><time>2026-04-26T10:27:27Z</time></trkpt><trkpt lat="45.543990449650835" lon="10.839455211113304"><ele>389.0</ele><time>2026-04-26T10:27:28Z</time></trkpt><trkpt lat="45.54382687438892" lon="10.839484089034608"><ele>389.0</ele><time>2026-04-26T10:27:29Z</time></trkpt><trkpt lat="45.54365737181683" lon="10.839552173144872"><ele>388.0</ele><time>2026-04-26T10:27:30Z</time></trkpt><trkpt lat="45.543506015814664" lon="10.839640497878891"><ele>387.0</ele><time>2026-04-26T10:27:31Z</time></trkpt><trkpt lat="45.54336309689104" lon="10.839711719442503"><ele>386.0</ele><time>2026-04-26T10:27:32Z</time></trkpt><trkpt lat="45.54323063129373" lon="10.839754137947542"><ele>386.0</ele><time>2026-04-26T10:27:33Z</time></trkpt><trkpt lat="45.54310345272407" lon="10.839756320883573"><ele>386.0</ele><time>2026-04-26T10:27:34Z</time></trkpt><trkpt lat="45.54299745906881" lon="10.839709772726746"><ele>386.0</ele><time>2026-04-26T10:27:35Z</time></trkpt><trkpt lat="45.54292831088397" lon="10.839596117832777"><ele>386.0</ele><time>2026-04-26T10:27:36Z</time></trkpt><trkpt lat="45.54287222368513" lon="10.839425805239076"><ele>385.3333333333333</ele><time>2026-04-26T10:27:37Z</time></trkpt><trkpt lat="45.542842550507416" lon="10.839219668772516"><ele>384.66666666666663</ele><time>2026-04-26T10:27:38Z</time></trkpt><trkpt lat="45.542805422491185" lon="10.838992585447569"><ele>384.0</ele><time>2026-04-26T10:27:39Z</time></trkpt><trkpt lat="45.54277540960004" lon="10.83879298825907"><ele>384.0</ele><time>2026-04-26T10:27:40Z</time></trkpt><trkpt lat="45.54277391476695" lon="10.838605290735742"><ele>384.0</ele><time>2026-04-26T10:27:41Z</time></trkpt><trkpt lat="45.54282300885613" lon="10.838460760786397"><ele>384.0</ele><time>2026-04-26T10:27:42Z</time></trkpt><trkpt lat="45.54292438975353" lon="10.838349518739998"><ele>384.0</ele><time>2026-04-26T10:27:43Z</time></trkpt><trkpt lat="45.543058655836745" lon="10.83826645369251"><ele>378.6666666666667</ele><time>2026-04-26T10:27:44Z</time></trkpt><trkpt lat="45.54318567926312" lon="10.838145430652235"><ele>373.33333333333337</ele><time>2026-04-26T10:27:45Z</time></trkpt><trkpt lat="45.543282180737016" lon="10.837955203227077"><ele>368.0</ele><time>2026-04-26T10:27:46Z</time></trkpt><trkpt lat="45.54336680754674" lon="10.837735045183488"><ele>367.33333333333337</ele><time>2026-04-26T10:27:47Z</time></trkpt><trkpt lat="45.54345493199777" lon="10.837531552598668"><ele>366.6666666666667</ele><time>2026-04-26T10:27:48Z</time></trkpt><trkpt lat="45.543572807831914" lon="10.8373783832506"><ele>366.0</ele><time>2026-04-26T10:27:49Z</time></trkpt><trkpt lat="45.5437203650205" lon="10.8372660948853"><ele>362.6666666666667</ele><time>2026-04-26T10:27:50Z</time></trkpt><trkpt lat="45.54388500488617" lon="10.837180986550424"><ele>359.33333333333337</ele><time>2026-04-26T10:27:51Z</time></trkpt><trkpt lat="45.54405921071375" lon="10.83711301804206"><ele>356.0</ele><time>2026-04-26T10:27:52Z</time></trkpt><trkpt lat="45.544234199652244" lon="10.837047122380792"><ele>356.0</ele><time>2026-04-26T10:27:53Z</time></trkpt><trkpt lat="45.544419280662204" lon="10.836970621792142"><ele>356.0</ele><time>2026-04-26T10:27:54Z</time></trkpt><trkpt lat="45.54459620203381" lon="10.836901013065848"><ele>356.0</ele><time>2026-04-26T10:27:55.001Z</time></trkpt><trkpt lat="45.54476244424601" lon="10.836842825755603"><ele>354.6666666666667</ele><time>2026-04-26T10:27:56.001Z</time></trkpt><trkpt lat="45.5449237803902" lon="10.836788578232053"><ele>353.3333333333333</ele><time>2026-04-26T10:27:57.001Z</time></trkpt><trkpt lat="45.54508249907943" lon="10.83672540415435"><ele>352.0</ele><time>2026-04-26T10:27:58.001Z</time></trkpt><trkpt lat="45.54522671851999" lon="10.836637508227161"><ele>352.0</ele><time>2026-04-26T10:27:59.001Z</time></trkpt><trkpt lat="45.545361074146314" lon="10.836511113570236"><ele>352.0</ele><time>2026-04-26T10:28:00.001Z</time></trkpt><trkpt lat="45.545454561189395" lon="10.83636401536502"><ele>352.0</ele><time>2026-04-26T10:28:01.001Z</time></trkpt><trkpt lat="45.5455237158158" lon="10.836164528931391"><ele>348.0</ele><time>2026-04-26T10:28:02.001Z</time></trkpt><trkpt lat="45.545544820643904" lon="10.835953051626781"><ele>344.0</ele><time>2026-04-26T10:28:03.001Z</time></trkpt><trkpt lat="45.54550785525044" lon="10.835749044664198"><ele>340.0</ele><time>2026-04-26T10:28:04.001Z</time></trkpt><trkpt lat="45.545425870110904" lon="10.835558340246868"><ele>338.3333333333333</ele><time>2026-04-26T10:28:05.001Z</time></trkpt><trkpt lat="45.54530959524905" lon="10.835352005645706"><ele>336.6666666666667</ele><time>2026-04-26T10:28:06.001Z</time></trkpt><trkpt lat="45.5451742213518" lon="10.835163858503355"><ele>335.0</ele><time>2026-04-26T10:28:07.001Z</time></trkpt><trkpt lat="45.54502701539998" lon="10.834999423494603"><ele>335.0</ele><time>2026-04-26T10:28:08.001Z</time></trkpt><trkpt lat="45.54487093829489" lon="10.83487805535233"><ele>335.0</ele><time>2026-04-26T10:28:09.001Z</time></trkpt><trkpt lat="45.54469969238649" lon="10.834796836777127"><ele>335.0</ele><time>2026-04-26T10:28:10.001Z</time></trkpt><trkpt lat="45.544510844520445" lon="10.834748708727476"><ele>335.33333333333337</ele><time>2026-04-26T10:28:11.001Z</time></trkpt><trkpt lat="45.544317461652376" lon="10.834729483151474"><ele>335.6666666666667</ele><time>2026-04-26T10:28:12.001Z</time></trkpt><trkpt lat="45.544131819105125" lon="10.834722499183565"><ele>336.0</ele><time>2026-04-26T10:28:13.001Z</time></trkpt><trkpt lat="45.543929074921365" lon="10.834716969278439"><ele>336.0</ele><time>2026-04-26T10:28:14.001Z</time></trkpt><trkpt lat="45.54372340435938" lon="10.834707660964392"><ele>336.0</ele><time>2026-04-26T10:28:15.001Z</time></trkpt><trkpt lat="45.543521981075656" lon="10.834692472576986"><ele>336.0</ele><time>2026-04-26T10:28:16.001Z</time></trkpt><trkpt lat="45.54332926602847" lon="10.834679489700447"><ele>335.0</ele><time>2026-04-26T10:28:17.001Z</time></trkpt><trkpt lat="45.54313183475797" lon="10.834662974469744"><ele>334.0</ele><time>2026-04-26T10:28:18.001Z</time></trkpt><trkpt lat="45.54295333705625" lon="10.834637026888098"><ele>333.0</ele><time>2026-04-26T10:28:19.001Z</time></trkpt><trkpt lat="45.54277514113776" lon="10.834604989881244"><ele>333.0</ele><time>2026-04-26T10:28:20.001Z</time></trkpt><trkpt lat="45.542608908998176" lon="10.834562740974365"><ele>333.0</ele><time>2026-04-26T10:28:21.001Z</time></trkpt><trkpt lat="45.542445481311354" lon="10.834497127267282"><ele>333.0</ele><time>2026-04-26T10:28:22.001Z</time></trkpt><trkpt lat="45.54228512266507" lon="10.83439776594342"><ele>330.0</ele><time>2026-04-26T10:28:23.001Z</time></trkpt><trkpt lat="45.542123652957315" lon="10.834265951357239"><ele>327.0</ele><time>2026-04-26T10:28:24.001Z</time></trkpt><trkpt lat="45.54197319946418" lon="10.834111806338381"><ele>324.0</ele><time>2026-04-26T10:28:25.001Z</time></trkpt><trkpt lat="45.54183479836047" lon="10.833988086270399"><ele>324.0</ele><time>2026-04-26T10:28:26.001Z</time></trkpt><trkpt lat="45.54167829278654" lon="10.83392085823236"><ele>324.0</ele><time>2026-04-26T10:28:27.001Z</time></trkpt><trkpt lat="45.54150442390494" lon="10.833919823283166"><ele>324.0</ele><time>2026-04-26T10:28:28.001Z</time></trkpt><trkpt lat="45.541316411221445" lon="10.833939440196623"><ele>323.3333333333333</ele><time>2026-04-26T10:28:29.001Z</time></trkpt><trkpt lat="45.54112866777199" lon="10.833922482097629"><ele>322.66666666666663</ele><time>2026-04-26T10:28:30.001Z</time></trkpt><trkpt lat="45.54094872326993" lon="10.833888803033267"><ele>322.0</ele><time>2026-04-26T10:28:31.001Z</time></trkpt><trkpt lat="45.54078677206115" lon="10.83386765949979"><ele>322.0</ele><time>2026-04-26T10:28:32.001Z</time></trkpt><trkpt lat="45.54063226264154" lon="10.833859181738264"><ele>322.0</ele><time>2026-04-26T10:28:33.001Z</time></trkpt><trkpt lat="45.54045445465055" lon="10.833849956873923"><ele>322.0</ele><time>2026-04-26T10:28:34.001Z</time></trkpt><trkpt lat="45.54028113664338" lon="10.833834184493632"><ele>320.3333333333333</ele><time>2026-04-26T10:28:35.001Z</time></trkpt><trkpt lat="45.540100346032176" lon="10.833810917620328"><ele>318.6666666666667</ele><time>2026-04-26T10:28:36.001Z</time></trkpt><trkpt lat="45.53992812421888" lon="10.833769369528563"><ele>317.0</ele><time>2026-04-26T10:28:37.001Z</time></trkpt><trkpt lat="45.53977154656289" lon="10.83369843368345"><ele>317.0</ele><time>2026-04-26T10:28:38.001Z</time></trkpt><trkpt lat="45.539638742012556" lon="10.833601076862246"><ele>317.0</ele><time>2026-04-26T10:28:39.001Z</time></trkpt><trkpt lat="45.539554875957585" lon="10.833468114041278"><ele>317.0</ele><time>2026-04-26T10:28:40.001Z</time></trkpt><trkpt lat="45.539502577444736" lon="10.833281895213913"><ele>317.0</ele><time>2026-04-26T10:28:41.001Z</time></trkpt><trkpt lat="45.53946580496615" lon="10.833088154963924"><ele>316.0</ele><time>2026-04-26T10:28:42.001Z</time></trkpt><trkpt lat="45.53940420818202" lon="10.832896327240764"><ele>315.0</ele><time>2026-04-26T10:28:43.001Z</time></trkpt><trkpt lat="45.539293129422575" lon="10.832746839604866"><ele>314.0</ele><time>2026-04-26T10:28:44.001Z</time></trkpt><trkpt lat="45.53913825713521" lon="10.83261200260725"><ele>308.0</ele><time>2026-04-26T10:28:45.001Z</time></trkpt><trkpt lat="45.53897806651689" lon="10.832475968663397"><ele>302.0</ele><time>2026-04-26T10:28:46.001Z</time></trkpt><trkpt lat="45.53883418287841" lon="10.832361751851737"><ele>296.0</ele><time>2026-04-26T10:28:47.001Z</time></trkpt><trkpt lat="45.53867954146798" lon="10.832295021693445"><ele>295.6666666666667</ele><time>2026-04-26T10:28:48.001Z</time></trkpt><trkpt lat="45.53851473067551" lon="10.832282459037177"><ele>295.3333333333333</ele><time>2026-04-26T10:28:49.001Z</time></trkpt><trkpt lat="45.5383430100498" lon="10.832316611922236"><ele>295.0</ele><time>2026-04-26T10:28:50.001Z</time></trkpt><trkpt lat="45.5381790405935" lon="10.832411394227357"><ele>295.0</ele><time>2026-04-26T10:28:51.001Z</time></trkpt><trkpt lat="45.53802545668865" lon="10.832543424583179"><ele>295.0</ele><time>2026-04-26T10:28:52.001Z</time></trkpt><trkpt lat="45.537878995624716" lon="10.83266905739162"><ele>295.0</ele><time>2026-04-26T10:28:53.001Z</time></trkpt><trkpt lat="45.53772662434514" lon="10.832768010559276"><ele>296.5</ele><time>2026-04-26T10:28:54.001Z</time></trkpt><trkpt lat="45.537575664581226" lon="10.832836516927458"><ele>298.0</ele><time>2026-04-26T10:28:55.001Z</time></trkpt><trkpt lat="45.53744646366619" lon="10.832874278935632"><ele>299.5</ele><time>2026-04-26T10:28:56.001Z</time></trkpt><trkpt lat="45.53732079642675" lon="10.832883289017785"><ele>301.0</ele><time>2026-04-26T10:28:57.001Z</time></trkpt><trkpt lat="45.537185655758094" lon="10.832864362468337"><ele>300.3333333333333</ele><time>2026-04-26T10:28:58.001Z</time></trkpt><trkpt lat="45.53704643612211" lon="10.832790898258068"><ele>299.6666666666667</ele><time>2026-04-26T10:28:59.001Z</time></trkpt><trkpt lat="45.53688734368454" lon="10.83268686038974"><ele>299.0</ele><time>2026-04-26T10:29:00.001Z</time></trkpt><trkpt lat="45.53671801585221" lon="10.83256670793233"><ele>294.0</ele><time>2026-04-26T10:29:01.001Z</time></trkpt><trkpt lat="45.53657734408675" lon="10.832452211753134"><ele>289.0</ele><time>2026-04-26T10:29:02.001Z</time></trkpt><trkpt lat="45.53644922671125" lon="10.832339896312725"><ele>284.0</ele><time>2026-04-26T10:29:03.001Z</time></trkpt><trkpt lat="45.536317781959895" lon="10.832265954908246"><ele>280.6666666666667</ele><time>2026-04-26T10:29:04.001Z</time></trkpt><trkpt lat="45.536172048861225" lon="10.832264706988973"><ele>277.3333333333333</ele><time>2026-04-26T10:29:05.001Z</time></trkpt><trkpt lat="45.53602998949218" lon="10.832323792257728"><ele>274.0</ele><time>2026-04-26T10:29:06.001Z</time></trkpt><trkpt lat="45.535906460576854" lon="10.832460967957015"><ele>278.66666666666663</ele><time>2026-04-26T10:29:07.001Z</time></trkpt><trkpt lat="45.53578606521314" lon="10.83264843403845"><ele>283.3333333333333</ele><time>2026-04-26T10:29:08.001Z</time></trkpt><trkpt lat="45.53568100250019" lon="10.832821903762744"><ele>288.0</ele><time>2026-04-26T10:29:09Z</time></trkpt><trkpt lat="45.5355751027159" lon="10.832957627388918"><ele>288.0</ele><time>2026-04-26T10:29:10Z</time></trkpt><trkpt lat="45.535455754016965" lon="10.833066415476647"><ele>288.0</ele><time>2026-04-26T10:29:11Z</time></trkpt><trkpt lat="45.53532189286114" lon="10.833126745674102"><ele>288.0</ele><time>2026-04-26T10:29:12Z</time></trkpt><trkpt lat="45.5351750315544" lon="10.833157547975295"><ele>288.0</ele><time>2026-04-26T10:29:13Z</time></trkpt><trkpt lat="45.53503013824098" lon="10.833185130328925"><ele>284.75</ele><time>2026-04-26T10:29:14Z</time></trkpt><trkpt lat="45.53488967970604" lon="10.833242337694893"><ele>281.5</ele><time>2026-04-26T10:29:15Z</time></trkpt><trkpt lat="45.53475732555411" lon="10.833321915636784"><ele>278.25</ele><time>2026-04-26T10:29:16Z</time></trkpt><trkpt lat="45.534618061973724" lon="10.833395691969711"><ele>275.0</ele><time>2026-04-26T10:29:17Z</time></trkpt><trkpt lat="45.53446785935815" lon="10.833433800451019"><ele>272.33333333333337</ele><time>2026-04-26T10:29:18Z</time></trkpt><trkpt lat="45.53431007511551" lon="10.83342206964921"><ele>269.6666666666667</ele><time>2026-04-26T10:29:19Z</time></trkpt><trkpt lat="45.53414904002957" lon="10.833386280331682"><ele>267.0</ele><time>2026-04-26T10:29:20Z</time></trkpt><trkpt lat="45.53400400813181" lon="10.833351762550867"><ele>267.0</ele><time>2026-04-26T10:29:21Z</time></trkpt><trkpt lat="45.5338598964223" lon="10.833374910388203"><ele>267.0</ele><time>2026-04-26T10:29:22Z</time></trkpt><trkpt lat="45.533695150014694" lon="10.833461123366149"><ele>267.0</ele><time>2026-04-26T10:29:23Z</time></trkpt><trkpt lat="45.53351698315919" lon="10.833563019501762"><ele>269.6666666666667</ele><time>2026-04-26T10:29:24Z</time></trkpt><trkpt lat="45.533324839644" lon="10.833663481093803"><ele>272.33333333333337</ele><time>2026-04-26T10:29:25Z</time></trkpt><trkpt lat="45.533157608581824" lon="10.83375235175894"><ele>275.0</ele><time>2026-04-26T10:29:26Z</time></trkpt><trkpt lat="45.532986570553504" lon="10.833845293814482"><ele>270.33333333333337</ele><time>2026-04-26T10:29:27Z</time></trkpt><trkpt lat="45.53283424091902" lon="10.833931851026072"><ele>265.6666666666667</ele><time>2026-04-26T10:29:28Z</time></trkpt><trkpt lat="45.53268002983196" lon="10.834013433364873"><ele>261.0</ele><time>2026-04-26T10:29:29Z</time></trkpt><trkpt lat="45.53254732586939" lon="10.834079550638808"><ele>261.0</ele><time>2026-04-26T10:29:30Z</time></trkpt><trkpt lat="45.532402099564784" lon="10.83415267524602"><ele>261.0</ele><time>2026-04-26T10:29:31Z</time></trkpt><trkpt lat="45.532257172395475" lon="10.834234990757215"><ele>261.0</ele><time>2026-04-26T10:29:32Z</time></trkpt><trkpt lat="45.5320998708171" lon="10.83431760865087"><ele>258.3333333333333</ele><time>2026-04-26T10:29:33Z</time></trkpt><trkpt lat="45.531938764889695" lon="10.83437184757571"><ele>255.66666666666666</ele><time>2026-04-26T10:29:34Z</time></trkpt><trkpt lat="45.53177976061892" lon="10.834414956366434"><ele>253.0</ele><time>2026-04-26T10:29:35Z</time></trkpt><trkpt lat="45.53163111455219" lon="10.834471231709513"><ele>253.0</ele><time>2026-04-26T10:29:36Z</time></trkpt><trkpt lat="45.531499131322654" lon="10.834565480565875"><ele>253.0</ele><time>2026-04-26T10:29:37Z</time></trkpt><trkpt lat="45.531395067552026" lon="10.834714625134566"><ele>253.0</ele><time>2026-04-26T10:29:38Z</time></trkpt><trkpt lat="45.53130993950483" lon="10.83490687069752"><ele>253.33333333333331</ele><time>2026-04-26T10:29:39Z</time></trkpt><trkpt lat="45.5312292476246" lon="10.835167910834782"><ele>253.66666666666669</ele><time>2026-04-26T10:29:40Z</time></trkpt><trkpt lat="45.53115694040372" lon="10.835449344915661"><ele>254.0</ele><time>2026-04-26T10:29:41Z</time></trkpt><trkpt lat="45.531092578314656" lon="10.835736013514452"><ele>249.0</ele><time>2026-04-26T10:29:42Z</time></trkpt><trkpt lat="45.53103818081802" lon="10.836016678479107"><ele>244.0</ele><time>2026-04-26T10:29:43Z</time></trkpt><trkpt lat="45.53098987631485" lon="10.836276414112712"><ele>239.0</ele><time>2026-04-26T10:29:44Z</time></trkpt><trkpt lat="45.530942734898645" lon="10.836523524835467"><ele>239.0</ele><time>2026-04-26T10:29:45Z</time></trkpt><trkpt lat="45.53090925403505" lon="10.836762232088978"><ele>239.0</ele><time>2026-04-26T10:29:46Z</time></trkpt><trkpt lat="45.530884722003265" lon="10.836978876153873"><ele>239.0</ele><time>2026-04-26T10:29:47Z</time></trkpt><trkpt lat="45.53085575694069" lon="10.837187869285916"><ele>237.0</ele><time>2026-04-26T10:29:48Z</time></trkpt><trkpt lat="45.530805086214" lon="10.837397105193057"><ele>235.0</ele><time>2026-04-26T10:29:49Z</time></trkpt><trkpt lat="45.530735597912646" lon="10.83760165965533"><ele>233.0</ele><time>2026-04-26T10:29:50Z</time></trkpt><trkpt lat="45.53065460362229" lon="10.83777681763712"><ele>230.66666666666669</ele><time>2026-04-26T10:29:51Z</time></trkpt><trkpt lat="45.5305629957309" lon="10.837944851775154"><ele>228.33333333333331</ele><time>2026-04-26T10:29:52Z</time></trkpt><trkpt lat="45.53045496173049" lon="10.838093484224649"><ele>226.0</ele><time>2026-04-26T10:29:53Z</time></trkpt><trkpt lat="45.530325661734885" lon="10.838245627448993"><ele>226.0</ele><time>2026-04-26T10:29:54Z</time></trkpt><trkpt lat="45.530202506410745" lon="10.838401225384514"><ele>226.0</ele><time>2026-04-26T10:29:55Z</time></trkpt><trkpt lat="45.53008196808477" lon="10.83856685471108"><ele>226.0</ele><time>2026-04-26T10:29:56Z</time></trkpt><trkpt lat="45.529975921205605" lon="10.838722720992056"><ele>220.25</ele><time>2026-04-26T10:29:57Z</time></trkpt><trkpt lat="45.529872882334885" lon="10.838858412128065"><ele>214.5</ele><time>2026-04-26T10:29:58Z</time></trkpt><trkpt lat="45.529751563508185" lon="10.838965720977825"><ele>208.75</ele><time>2026-04-26T10:29:59Z</time></trkpt><trkpt lat="45.5296082777092" lon="10.839034204665852"><ele>203.0</ele><time>2026-04-26T10:30:00Z</time></trkpt><trkpt lat="45.529444841733216" lon="10.839059278366852"><ele>201.33333333333334</ele><time>2026-04-26T10:30:01.001Z</time></trkpt><trkpt lat="45.52928742176728" lon="10.839030812780141"><ele>199.66666666666669</ele><time>2026-04-26T10:30:02.001Z</time></trkpt><trkpt lat="45.52913372153442" lon="10.838943280564598"><ele>198.0</ele><time>2026-04-26T10:30:03.001Z</time></trkpt><trkpt lat="45.52897231078753" lon="10.83879985347262"><ele>198.0</ele><time>2026-04-26T10:30:04.001Z</time></trkpt><trkpt lat="45.528830378257496" lon="10.838628027585724"><ele>198.0</ele><time>2026-04-26T10:30:05.001Z</time></trkpt><trkpt lat="45.52868112213867" lon="10.838467134040197"><ele>198.0</ele><time>2026-04-26T10:30:06.001Z</time></trkpt><trkpt lat="45.52852946859589" lon="10.838320993421016"><ele>196.66666666666669</ele><time>2026-04-26T10:30:07.001Z</time></trkpt><trkpt lat="45.52839055481074" lon="10.83821580373119"><ele>195.33333333333334</ele><time>2026-04-26T10:30:08.001Z</time></trkpt><trkpt lat="45.5282584145337" lon="10.838089099128617"><ele>194.0</ele><time>2026-04-26T10:30:09.001Z</time></trkpt><trkpt lat="45.52814740057552" lon="10.837943729115674"><ele>194.0</ele><time>2026-04-26T10:30:10.001Z</time></trkpt><trkpt lat="45.52804764113037" lon="10.837778102369791"><ele>194.0</ele><time>2026-04-26T10:30:11.001Z</time></trkpt><trkpt lat="45.52794967531803" lon="10.837624373233067"><ele>194.0</ele><time>2026-04-26T10:30:12.001Z</time></trkpt><trkpt lat="45.527842724792386" lon="10.837481965848717"><ele>194.0</ele><time>2026-04-26T10:30:13.001Z</time></trkpt><trkpt lat="45.527735513364334" lon="10.83734872295464"><ele>191.25</ele><time>2026-04-26T10:30:14.001Z</time></trkpt><trkpt lat="45.52762267832107" lon="10.837218640398879"><ele>188.5</ele><time>2026-04-26T10:30:15.001Z</time></trkpt><trkpt lat="45.52751790900211" lon="10.837121126371192"><ele>185.75</ele><time>2026-04-26T10:30:16.001Z</time></trkpt><trkpt lat="45.527413640773204" lon="10.837100788014276"><ele>183.0</ele><time>2026-04-26T10:30:17.001Z</time></trkpt><trkpt lat="45.52730211232698" lon="10.83713440384479"><ele>183.0</ele><time>2026-04-26T10:30:18.001Z</time></trkpt><trkpt lat="45.527183779644396" lon="10.837231054702093"><ele>183.0</ele><time>2026-04-26T10:30:19.001Z</time></trkpt><trkpt lat="45.52709008749083" lon="10.837375478075451"><ele>183.0</ele><time>2026-04-26T10:30:20.001Z</time></trkpt><trkpt lat="45.52703452737653" lon="10.837525550587978"><ele>183.0</ele><time>2026-04-26T10:30:21.001Z</time></trkpt><trkpt lat="45.52696729268849" lon="10.837656607765725"><ele>181.25</ele><time>2026-04-26T10:30:22.001Z</time></trkpt><trkpt lat="45.52687362476878" lon="10.837733880917702"><ele>179.5</ele><time>2026-04-26T10:30:23.001Z</time></trkpt><trkpt lat="45.526759190942016" lon="10.837789081316563"><ele>177.75</ele><time>2026-04-26T10:30:24.001Z</time></trkpt><trkpt lat="45.52662098337469" lon="10.837831178124922"><ele>176.0</ele><time>2026-04-26T10:30:25.001Z</time></trkpt><trkpt lat="45.52648802003609" lon="10.837896014169969"><ele>176.0</ele><time>2026-04-26T10:30:26.001Z</time></trkpt><trkpt lat="45.526341602691275" lon="10.837953733819537"><ele>176.0</ele><time>2026-04-26T10:30:27.001Z</time></trkpt><trkpt lat="45.52617869805455" lon="10.838021933844862"><ele>176.0</ele><time>2026-04-26T10:30:28.001Z</time></trkpt><trkpt lat="45.52602042516469" lon="10.838089365524334"><ele>174.25</ele><time>2026-04-26T10:30:29.001Z</time></trkpt><trkpt lat="45.52587804348779" lon="10.838149341199331"><ele>172.5</ele><time>2026-04-26T10:30:30.001Z</time></trkpt><trkpt lat="45.52574019248518" lon="10.838207395716367"><ele>170.75</ele><time>2026-04-26T10:30:31.001Z</time></trkpt><trkpt lat="45.525604875723474" lon="10.838258516956792"><ele>169.0</ele><time>2026-04-26T10:30:32.001Z</time></trkpt><trkpt lat="45.525477513057446" lon="10.838299331621917"><ele>168.0</ele><time>2026-04-26T10:30:33.001Z</time></trkpt><trkpt lat="45.52535138439466" lon="10.838341964100154"><ele>167.0</ele><time>2026-04-26T10:30:34.001Z</time></trkpt><trkpt lat="45.525231014710066" lon="10.838386589689607"><ele>166.0</ele><time>2026-04-26T10:30:35.001Z</time></trkpt><trkpt lat="45.52510545794847" lon="10.838425885503542"><ele>165.0</ele><time>2026-04-26T10:30:36.001Z</time></trkpt><trkpt lat="45.52497279772634" lon="10.838455667822013"><ele>165.0</ele><time>2026-04-26T10:30:37.001Z</time></trkpt><trkpt lat="45.52483448513129" lon="10.838475746905488"><ele>165.0</ele><time>2026-04-26T10:30:38.001Z</time></trkpt><trkpt lat="45.5246827605357" lon="10.8384880982082"><ele>165.0</ele><time>2026-04-26T10:30:39.001Z</time></trkpt><trkpt lat="45.52453020749005" lon="10.838504741171668"><ele>165.0</ele><time>2026-04-26T10:30:40.001Z</time></trkpt><trkpt lat="45.52437360603742" lon="10.838519694615654"><ele>164.0</ele><time>2026-04-26T10:30:41.001Z</time></trkpt><trkpt lat="45.52421729073733" lon="10.838522383029979"><ele>163.0</ele><time>2026-04-26T10:30:42.001Z</time></trkpt><trkpt lat="45.524035525159" lon="10.838505512535729"><ele>162.0</ele><time>2026-04-26T10:30:43.001Z</time></trkpt><trkpt lat="45.52384898841973" lon="10.838475218550412"><ele>161.33333333333334</ele><time>2026-04-26T10:30:44.001Z</time></trkpt><trkpt lat="45.52365757091651" lon="10.838435320835778"><ele>160.66666666666669</ele><time>2026-04-26T10:30:45.001Z</time></trkpt><trkpt lat="45.52347550130042" lon="10.838393899812063"><ele>160.0</ele><time>2026-04-26T10:30:46.001Z</time></trkpt><trkpt lat="45.52332256051284" lon="10.838363256484884"><ele>160.0</ele><time>2026-04-26T10:30:47.001Z</time></trkpt><trkpt lat="45.52316514342882" lon="10.838335464280373"><ele>160.0</ele><time>2026-04-26T10:30:48.001Z</time></trkpt><trkpt lat="45.52302101322225" lon="10.838312082719519"><ele>160.0</ele><time>2026-04-26T10:30:49.001Z</time></trkpt><trkpt lat="45.522892745649344" lon="10.838287918284765"><ele>160.0</ele><time>2026-04-26T10:30:50.001Z</time></trkpt><trkpt lat="45.5227634840471" lon="10.838260106403"><ele>159.5</ele><time>2026-04-26T10:30:51.001Z</time></trkpt><trkpt lat="45.52264092085478" lon="10.838231249828729"><ele>159.0</ele><time>2026-04-26T10:30:52.001Z</time></trkpt><trkpt lat="45.52250969055007" lon="10.838204052377314"><ele>158.5</ele><time>2026-04-26T10:30:53.001Z</time></trkpt><trkpt lat="45.52237570261502" lon="10.838182535562023"><ele>158.0</ele><time>2026-04-26T10:30:54.001Z</time></trkpt><trkpt lat="45.5222559294617" lon="10.838162313627478"><ele>158.0</ele><time>2026-04-26T10:30:55.001Z</time></trkpt><trkpt lat="45.52213852261903" lon="10.838144110506295"><ele>158.0</ele><time>2026-04-26T10:30:56.001Z</time></trkpt><trkpt lat="45.52202958138727" lon="10.838136719787633"><ele>158.0</ele><time>2026-04-26T10:30:57.001Z</time></trkpt><trkpt lat="45.52193938501361" lon="10.83813611893555"><ele>158.0</ele><time>2026-04-26T10:30:58.001Z</time></trkpt><trkpt lat="45.52185316796135" lon="10.83813379565996"><ele>158.0</ele><time>2026-04-26T10:30:59.001Z</time></trkpt><trkpt lat="45.52177255107354" lon="10.838095676010873"><ele>157.8</ele><time>2026-04-26T10:31:00.001Z</time></trkpt><trkpt lat="45.52169665144761" lon="10.838018449861703"><ele>157.60000000000002</ele><time>2026-04-26T10:31:01.001Z</time></trkpt><trkpt lat="45.52165988728778" lon="10.837900683516"><ele>157.39999999999998</ele><time>2026-04-26T10:31:02.001Z</time></trkpt><trkpt lat="45.521644072605135" lon="10.837735983779313"><ele>157.2</ele><time>2026-04-26T10:31:03.001Z</time></trkpt><trkpt lat="45.521673290216626" lon="10.837549015176695"><ele>157.0</ele><time>2026-04-26T10:31:04.001Z</time></trkpt><trkpt lat="45.52171528198541" lon="10.837324961623935"><ele>157.0</ele><time>2026-04-26T10:31:05.001Z</time></trkpt><trkpt lat="45.521743822359255" lon="10.837125911812185"><ele>157.0</ele><time>2026-04-26T10:31:06.001Z</time></trkpt><trkpt lat="45.52176626833" lon="10.836919595580415"><ele>157.0</ele><time>2026-04-26T10:31:07.001Z</time></trkpt><trkpt lat="45.52179390078381" lon="10.836664458338902"><ele>157.0</ele><time>2026-04-26T10:31:08.001Z</time></trkpt><trkpt lat="45.521820558155014" lon="10.836387869651281"><ele>157.0</ele><time>2026-04-26T10:31:09.001Z</time></trkpt><trkpt lat="45.52184446639578" lon="10.836135747749406"><ele>157.0</ele><time>2026-04-26T10:31:10.001Z</time></trkpt><trkpt lat="45.521867780983506" lon="10.835899607227717"><ele>157.0</ele><time>2026-04-26T10:31:11.001Z</time></trkpt><trkpt lat="45.52189047831625" lon="10.835688637754393"><ele>157.0</ele><time>2026-04-26T10:31:12.001Z</time></trkpt><trkpt lat="45.52191217367259" lon="10.835485472918611"><ele>157.0</ele><time>2026-04-26T10:31:13.001Z</time></trkpt><trkpt lat="45.52193009988325" lon="10.835301805061384"><ele>157.0</ele><time>2026-04-26T10:31:14.001Z</time></trkpt><trkpt lat="45.52195049606051" lon="10.835118432664128"><ele>157.0</ele><time>2026-04-26T10:31:15.001Z</time></trkpt><trkpt lat="45.52196790757032" lon="10.83495815000636"><ele>157.0</ele><time>2026-04-26T10:31:16.001Z</time></trkpt><trkpt lat="45.5220009141375" lon="10.834806985746111"><ele>157.0</ele><time>2026-04-26T10:31:17.001Z</time></trkpt><trkpt lat="45.52206194145697" lon="10.834687090325705"><ele>157.0</ele><time>2026-04-26T10:31:18.001Z</time></trkpt><trkpt lat="45.522132721486265" lon="10.83459826313233"><ele>157.0</ele><time>2026-04-26T10:31:19.001Z</time></trkpt><trkpt lat="45.522172252591425" lon="10.834486813807354"><ele>157.75</ele><time>2026-04-26T10:31:20.001Z</time></trkpt><trkpt lat="45.52215519141606" lon="10.834345645508252"><ele>158.5</ele><time>2026-04-26T10:31:21.001Z</time></trkpt><trkpt lat="45.5221076464389" lon="10.834196596561426"><ele>159.25</ele><time>2026-04-26T10:31:22.001Z</time></trkpt><trkpt lat="45.5220636261361" lon="10.834047818769227"><ele>160.0</ele><time>2026-04-26T10:31:23.001Z</time></trkpt><trkpt lat="45.52204484579038" lon="10.833873951525895"><ele>160.0</ele><time>2026-04-26T10:31:24.001Z</time></trkpt><trkpt lat="45.52203083888511" lon="10.833681829757474"><ele>160.0</ele><time>2026-04-26T10:31:25.001Z</time></trkpt><trkpt lat="45.522001746481486" lon="10.833482548160108"><ele>160.0</ele><time>2026-04-26T10:31:26.001Z</time></trkpt><trkpt lat="45.52195936722187" lon="10.833291037713904"><ele>160.0</ele><time>2026-04-26T10:31:27.001Z</time></trkpt><trkpt lat="45.52191062119129" lon="10.833112067338051"><ele>160.0</ele><time>2026-04-26T10:31:28.001Z</time></trkpt><trkpt lat="45.521850328866016" lon="10.832946164813054"><ele>160.0</ele><time>2026-04-26T10:31:29.001Z</time></trkpt><trkpt lat="45.52177104082324" lon="10.832794352760857"><ele>160.0</ele><time>2026-04-26T10:31:30Z</time></trkpt><trkpt lat="45.52167918757584" lon="10.832660157583108"><ele>160.0</ele><time>2026-04-26T10:31:31Z</time></trkpt><trkpt lat="45.52157601295605" lon="10.83254502931307"><ele>160.0</ele><time>2026-04-26T10:31:32Z</time></trkpt><trkpt lat="45.52145530469985" lon="10.832433315486167"><ele>160.0</ele><time>2026-04-26T10:31:33Z</time></trkpt><trkpt lat="45.52130796399008" lon="10.832332644636782"><ele>160.0</ele><time>2026-04-26T10:31:34Z</time></trkpt><trkpt lat="45.52115647207644" lon="10.832246617592869"><ele>160.0</ele><time>2026-04-26T10:31:35Z</time></trkpt><trkpt lat="45.52100868222374" lon="10.832167747958916"><ele>160.0</ele><time>2026-04-26T10:31:36Z</time></trkpt><trkpt lat="45.52086828192785" lon="10.832094385099984"><ele>160.0</ele><time>2026-04-26T10:31:37Z</time></trkpt><trkpt lat="45.52073072098302" lon="10.83201537926331"><ele>160.0</ele><time>2026-04-26T10:31:38Z</time></trkpt><trkpt lat="45.520591284630655" lon="10.831929789430967"><ele>160.0</ele><time>2026-04-26T10:31:39Z</time></trkpt><trkpt lat="45.520447977989136" lon="10.831843397335962"><ele>160.0</ele><time>2026-04-26T10:31:40Z</time></trkpt><trkpt lat="45.52030551543907" lon="10.831757036251915"><ele>160.0</ele><time>2026-04-26T10:31:41Z</time></trkpt><trkpt lat="45.52016879171765" lon="10.831677229103647"><ele>160.0</ele><time>2026-04-26T10:31:42Z</time></trkpt><trkpt lat="45.52002682694313" lon="10.83159494743504"><ele>160.0</ele><time>2026-04-26T10:31:43Z</time></trkpt><trkpt lat="45.519889465286525" lon="10.831516966141928"><ele>160.0</ele><time>2026-04-26T10:31:44Z</time></trkpt><trkpt lat="45.519755729335365" lon="10.831442320845742"><ele>160.0</ele><time>2026-04-26T10:31:45Z</time></trkpt><trkpt lat="45.51963031618051" lon="10.831374070001594"><ele>160.0</ele><time>2026-04-26T10:31:46Z</time></trkpt><trkpt lat="45.51951729210883" lon="10.831288190860844"><ele>160.0</ele><time>2026-04-26T10:31:47Z</time></trkpt><trkpt lat="45.51940622713479" lon="10.831244991812808"><ele>160.0</ele><time>2026-04-26T10:31:48Z</time></trkpt><trkpt lat="45.51930717323126" lon="10.831163593382316"><ele>159.4</ele><time>2026-04-26T10:31:49Z</time></trkpt><trkpt lat="45.51922207387511" lon="10.831071784525985"><ele>158.8</ele><time>2026-04-26T10:31:50Z</time></trkpt><trkpt lat="45.51914440369488" lon="10.830968872420472"><ele>158.2</ele><time>2026-04-26T10:31:51Z</time></trkpt><trkpt lat="45.51909052224127" lon="10.83083864819542"><ele>157.6</ele><time>2026-04-26T10:31:52Z</time></trkpt><trkpt lat="45.51904852924744" lon="10.830723715574278"><ele>157.0</ele><time>2026-04-26T10:31:53Z</time></trkpt><trkpt lat="45.51897227322092" lon="10.830632207578637"><ele>157.0</ele><time>2026-04-26T10:31:54Z</time></trkpt><trkpt lat="45.51888279191263" lon="10.830531217035157"><ele>157.0</ele><time>2026-04-26T10:31:55Z</time></trkpt><trkpt lat="45.518825345581575" lon="10.830366657155178"><ele>157.0</ele><time>2026-04-26T10:31:56Z</time></trkpt><trkpt lat="45.518755019144216" lon="10.830204913412555"><ele>157.0</ele><time>2026-04-26T10:31:57Z</time></trkpt><trkpt lat="45.51869439768585" lon="10.830010146570526"><ele>152.0</ele><time>2026-04-26T10:31:58Z</time></trkpt><trkpt lat="45.518636621198354" lon="10.829802995847206"><ele>147.0</ele><time>2026-04-26T10:31:59Z</time></trkpt><trkpt lat="45.51860608770195" lon="10.82956114797341"><ele>142.0</ele><time>2026-04-26T10:32:00Z</time></trkpt><trkpt lat="45.51858271174626" lon="10.829319435848818"><ele>141.66666666666669</ele><time>2026-04-26T10:32:01Z</time></trkpt><trkpt lat="45.51857315550009" lon="10.829095491972863"><ele>141.33333333333334</ele><time>2026-04-26T10:32:02Z</time></trkpt><trkpt lat="45.518565211702025" lon="10.828866230894157"><ele>141.0</ele><time>2026-04-26T10:32:03Z</time></trkpt><trkpt lat="45.518558089805964" lon="10.8286572312948"><ele>141.0</ele><time>2026-04-26T10:32:04Z</time></trkpt><trkpt lat="45.51855084155347" lon="10.828444523650992"><ele>141.0</ele><time>2026-04-26T10:32:05Z</time></trkpt><trkpt lat="45.51854357385107" lon="10.828231245196216"><ele>141.0</ele><time>2026-04-26T10:32:06Z</time></trkpt><trkpt lat="45.51853683402645" lon="10.82803345790669"><ele>141.0</ele><time>2026-04-26T10:32:07.002Z</time></trkpt><trkpt lat="45.51852961033769" lon="10.827837863948039"><ele>141.0</ele><time>2026-04-26T10:32:08.002Z</time></trkpt><trkpt lat="45.518506317004025" lon="10.82764705602324"><ele>141.0</ele><time>2026-04-26T10:32:09.002Z</time></trkpt><trkpt lat="45.518504274266334" lon="10.827457127971332"><ele>141.0</ele><time>2026-04-26T10:32:10.002Z</time></trkpt><trkpt lat="45.518498957739574" lon="10.82727468523863"><ele>141.0</ele><time>2026-04-26T10:32:11.002Z</time></trkpt><trkpt lat="45.518499913396255" lon="10.827100340865114"><ele>140.25</ele><time>2026-04-26T10:32:12.002Z</time></trkpt><trkpt lat="45.51849145984622" lon="10.826929021548558"><ele>139.5</ele><time>2026-04-26T10:32:13.002Z</time></trkpt><trkpt lat="45.51848233268609" lon="10.826755429034215"><ele>138.75</ele><time>2026-04-26T10:32:14.002Z</time></trkpt><trkpt lat="45.51847269644016" lon="10.826580072033932"><ele>138.0</ele><time>2026-04-26T10:32:15.002Z</time></trkpt><trkpt lat="45.518461842146415" lon="10.82640865123028"><ele>137.5</ele><time>2026-04-26T10:32:16.002Z</time></trkpt><trkpt lat="45.51843487193538" lon="10.826245700216631"><ele>137.0</ele><time>2026-04-26T10:32:17.002Z</time></trkpt><trkpt lat="45.518434603679005" lon="10.82607825706406"><ele>136.5</ele><time>2026-04-26T10:32:18.002Z</time></trkpt><trkpt lat="45.51842094695628" lon="10.825910756046529"><ele>136.0</ele><time>2026-04-26T10:32:19.002Z</time></trkpt><trkpt lat="45.518411989549584" lon="10.825751544581943"><ele>135.25</ele><time>2026-04-26T10:32:20.002Z</time></trkpt><trkpt lat="45.518405059566035" lon="10.825587923247028"><ele>134.5</ele><time>2026-04-26T10:32:21.002Z</time></trkpt><trkpt lat="45.518399065185804" lon="10.825426901001755"><ele>133.75</ele><time>2026-04-26T10:32:22.002Z</time></trkpt><trkpt lat="45.518395865623766" lon="10.82527074935587"><ele>133.0</ele><time>2026-04-26T10:32:23.002Z</time></trkpt><trkpt lat="45.51839369174088" lon="10.825100469949025"><ele>132.5</ele><time>2026-04-26T10:32:24.002Z</time></trkpt><trkpt lat="45.51840037951167" lon="10.824915217374567"><ele>132.0</ele><time>2026-04-26T10:32:25.002Z</time></trkpt><trkpt lat="45.518412538197566" lon="10.82470166379469"><ele>131.5</ele><time>2026-04-26T10:32:26.001Z</time></trkpt><trkpt lat="45.51843011766589" lon="10.824476217448858"><ele>131.0</ele><time>2026-04-26T10:32:27.001Z</time></trkpt><trkpt lat="45.51845492682916" lon="10.824247235869262"><ele>129.0</ele><time>2026-04-26T10:32:28.001Z</time></trkpt><trkpt lat="45.51848096483035" lon="10.824018021295753"><ele>127.0</ele><time>2026-04-26T10:32:29.001Z</time></trkpt><trkpt lat="45.51851053390544" lon="10.823805174402473"><ele>125.0</ele><time>2026-04-26T10:32:30.001Z</time></trkpt><trkpt lat="45.518541685186" lon="10.823600946599836"><ele>124.25</ele><time>2026-04-26T10:32:31.001Z</time></trkpt><trkpt lat="45.518582960473566" lon="10.823395342242618"><ele>123.5</ele><time>2026-04-26T10:32:32.001Z</time></trkpt><trkpt lat="45.518636918918894" lon="10.823200558777513"><ele>122.75</ele><time>2026-04-26T10:32:33.001Z</time></trkpt><trkpt lat="45.51867760285531" lon="10.823025126027527"><ele>122.0</ele><time>2026-04-26T10:32:34.001Z</time></trkpt><trkpt lat="45.51872498134863" lon="10.822846508576783"><ele>122.5</ele><time>2026-04-26T10:32:35.001Z</time></trkpt><trkpt lat="45.51877268532706" lon="10.822669453246963"><ele>123.0</ele><time>2026-04-26T10:32:36.001Z</time></trkpt><trkpt lat="45.51880841008248" lon="10.822494968902026"><ele>123.5</ele><time>2026-04-26T10:32:37.001Z</time></trkpt><trkpt lat="45.518846072906335" lon="10.822295411799413"><ele>124.0</ele><time>2026-04-26T10:32:38.001Z</time></trkpt><trkpt lat="45.51888186294424" lon="10.822094309843202"><ele>122.75</ele><time>2026-04-26T10:32:39.001Z</time></trkpt><trkpt lat="45.518910266559544" lon="10.821905145669971"><ele>121.5</ele><time>2026-04-26T10:32:40.001Z</time></trkpt><trkpt lat="45.51893755685163" lon="10.821719301504796"><ele>120.25</ele><time>2026-04-26T10:32:41.001Z</time></trkpt><trkpt lat="45.51895419438994" lon="10.821535315706258"><ele>119.0</ele><time>2026-04-26T10:32:42.001Z</time></trkpt><trkpt lat="45.51897507708696" lon="10.821337582529313"><ele>118.25</ele><time>2026-04-26T10:32:43.001Z</time></trkpt><trkpt lat="45.51899010286228" lon="10.821135268140871"><ele>117.5</ele><time>2026-04-26T10:32:44.001Z</time></trkpt><trkpt lat="45.5189927537634" lon="10.820939209343285"><ele>116.75</ele><time>2026-04-26T10:32:45.001Z</time></trkpt><trkpt lat="45.51898395216698" lon="10.82075795501705"><ele>116.0</ele><time>2026-04-26T10:32:46.001Z</time></trkpt><trkpt lat="45.5189724997861" lon="10.820593737788379"><ele>115.66666666666666</ele><time>2026-04-26T10:32:47.001Z</time></trkpt><trkpt lat="45.518959344361996" lon="10.820456641278856"><ele>115.33333333333333</ele><time>2026-04-26T10:32:48.001Z</time></trkpt><trkpt lat="45.51896312810731" lon="10.820357606807656"><ele>115.0</ele><time>2026-04-26T10:32:49.001Z</time></trkpt><trkpt lat="45.51896006541886" lon="10.820263783579465"><ele>114.66666666666666</ele><time>2026-04-26T10:32:50.001Z</time></trkpt><trkpt lat="45.5189431730176" lon="10.82015060417726"><ele>114.33333333333333</ele><time>2026-04-26T10:32:52.001Z</time></trkpt><trkpt lat="45.51894170421076" lon="10.820052491437396"><ele>114.0</ele><time>2026-04-26T10:32:55.001Z</time></trkpt><trkpt lat="45.51893676517336" lon="10.819950799990892"><ele>114.0</ele><time>2026-04-26T10:32:58.001Z</time></trkpt><trkpt lat="45.51892214755437" lon="10.81980800059202"><ele>114.0</ele><time>2026-04-26T10:33:00.001Z</time></trkpt><trkpt lat="45.51895707456902" lon="10.819652333995293"><ele>114.0</ele><time>2026-04-26T10:33:02.001Z</time></trkpt><trkpt lat="45.51901232883035" lon="10.819494291799673"><ele>114.0</ele><time>2026-04-26T10:33:04.001Z</time></trkpt><trkpt lat="45.519018795051586" lon="10.819396948885517"><ele>114.0</ele><time>2026-04-26T10:33:05.001Z</time></trkpt><trkpt lat="45.51898799412386" lon="10.819287913518487"><ele>114.0</ele><time>2026-04-26T10:33:06.001Z</time></trkpt><trkpt lat="45.51892873878999" lon="10.819169292756845"><ele>114.0</ele><time>2026-04-26T10:33:07.001Z</time></trkpt><trkpt lat="45.51886685033166" lon="10.819014435934802"><ele>114.0</ele><time>2026-04-26T10:33:08.001Z</time></trkpt><trkpt lat="45.51882166225858" lon="10.818837371330348"><ele>114.0</ele><time>2026-04-26T10:33:09.001Z</time></trkpt><trkpt lat="45.518822358942046" lon="10.818649961658476"><ele>113.75</ele><time>2026-04-26T10:33:10.001Z</time></trkpt><trkpt lat="45.51879703357107" lon="10.818459170980486"><ele>113.5</ele><time>2026-04-26T10:33:11.001Z</time></trkpt><trkpt lat="45.51875711436667" lon="10.818256872815107"><ele>113.25</ele><time>2026-04-26T10:33:12.001Z</time></trkpt><trkpt lat="45.51873365745614" lon="10.818025657526912"><ele>113.0</ele><time>2026-04-26T10:33:13.001Z</time></trkpt><trkpt lat="45.518706871832705" lon="10.817810303703784"><ele>113.5</ele><time>2026-04-26T10:33:14.001Z</time></trkpt><trkpt lat="45.51868335874483" lon="10.817619095121122"><ele>114.0</ele><time>2026-04-26T10:33:15.001Z</time></trkpt><trkpt lat="45.51866012125294" lon="10.817418402666926"><ele>114.5</ele><time>2026-04-26T10:33:16.001Z</time></trkpt><trkpt lat="45.518642556343224" lon="10.817199635608858"><ele>115.0</ele><time>2026-04-26T10:33:17.001Z</time></trkpt><trkpt lat="45.51862802717704" lon="10.816985282338075"><ele>114.33333333333334</ele><time>2026-04-26T10:33:18.001Z</time></trkpt><trkpt lat="45.51859886271624" lon="10.816761314672748"><ele>113.66666666666666</ele><time>2026-04-26T10:33:19.001Z</time></trkpt><trkpt lat="45.518576643084096" lon="10.81653423701657"><ele>113.0</ele><time>2026-04-26T10:33:20.001Z</time></trkpt><trkpt lat="45.51855911903163" lon="10.816306957009628"><ele>113.0</ele><time>2026-04-26T10:33:21.001Z</time></trkpt><trkpt lat="45.51854687782412" lon="10.816059031250264"><ele>113.0</ele><time>2026-04-26T10:33:22.001Z</time></trkpt><trkpt lat="45.518533810745005" lon="10.815813008891457"><ele>113.0</ele><time>2026-04-26T10:33:23.001Z</time></trkpt><trkpt lat="45.518514275163106" lon="10.815566374838141"><ele>113.33333333333333</ele><time>2026-04-26T10:33:24.001Z</time></trkpt><trkpt lat="45.51849620272851" lon="10.815319570935772"><ele>113.66666666666666</ele><time>2026-04-26T10:33:25.001Z</time></trkpt><trkpt lat="45.51847353947262" lon="10.815041298869373"><ele>114.0</ele><time>2026-04-26T10:33:26.001Z</time></trkpt><trkpt lat="45.51845267821351" lon="10.8147988378343"><ele>114.66666666666666</ele><time>2026-04-26T10:33:27.001Z</time></trkpt><trkpt lat="45.518427561295745" lon="10.814561464387518"><ele>115.33333333333333</ele><time>2026-04-26T10:33:28.001Z</time></trkpt><trkpt lat="45.51840397730304" lon="10.814332545948984"><ele>116.0</ele><time>2026-04-26T10:33:29.001Z</time></trkpt><trkpt lat="45.51837680763657" lon="10.814088417943204"><ele>116.0</ele><time>2026-04-26T10:33:30.001Z</time></trkpt><trkpt lat="45.51834807480236" lon="10.81384300951292"><ele>116.0</ele><time>2026-04-26T10:33:31.001Z</time></trkpt><trkpt lat="45.518322104559374" lon="10.813595280760333"><ele>116.0</ele><time>2026-04-26T10:33:32.001Z</time></trkpt><trkpt lat="45.51829938062474" lon="10.813359366491463"><ele>116.0</ele><time>2026-04-26T10:33:33.001Z</time></trkpt><trkpt lat="45.518278172640166" lon="10.813137718932515"><ele>116.0</ele><time>2026-04-26T10:33:34.001Z</time></trkpt><trkpt lat="45.518260060926124" lon="10.812951021714719"><ele>116.0</ele><time>2026-04-26T10:33:35.001Z</time></trkpt><trkpt lat="45.51825413758945" lon="10.81279523902474"><ele>116.0</ele><time>2026-04-26T10:33:36.001Z</time></trkpt><trkpt lat="45.51825639129185" lon="10.812653343830535"><ele>116.0</ele><time>2026-04-26T10:33:37.001Z</time></trkpt><trkpt lat="45.51829058094988" lon="10.812527396659421"><ele>116.0</ele><time>2026-04-26T10:33:38.001Z</time></trkpt><trkpt lat="45.51834647207448" lon="10.81241923823307"><ele>116.0</ele><time>2026-04-26T10:33:39.001Z</time></trkpt><trkpt lat="45.51839999015595" lon="10.812324737834201"><ele>116.0</ele><time>2026-04-26T10:33:40.001Z</time></trkpt><trkpt lat="45.518460466838405" lon="10.812190613982573"><ele>116.0</ele><time>2026-04-26T10:33:42.001Z</time></trkpt><trkpt lat="45.518505760904866" lon="10.81212577689843"><ele>116.0</ele><time>2026-04-26T10:33:43.001Z</time></trkpt><trkpt lat="45.51857482749852" lon="10.812069600626355"><ele>116.0</ele><time>2026-04-26T10:33:44.001Z</time></trkpt><trkpt lat="45.51865414698181" lon="10.812042907554511"><ele>116.0</ele><time>2026-04-26T10:33:45.001Z</time></trkpt><trkpt lat="45.51875374841292" lon="10.812018180083284"><ele>116.0</ele><time>2026-04-26T10:33:46.001Z</time></trkpt><trkpt lat="45.51887002415633" lon="10.811987611126582"><ele>116.0</ele><time>2026-04-26T10:33:47.001Z</time></trkpt><trkpt lat="45.519019309378145" lon="10.811958569500687"><ele>115.5</ele><time>2026-04-26T10:33:48.001Z</time></trkpt><trkpt lat="45.51917293555731" lon="10.81195856401983"><ele>115.0</ele><time>2026-04-26T10:33:49.001Z</time></trkpt><trkpt lat="45.51931277262104" lon="10.811928058538923"><ele>114.5</ele><time>2026-04-26T10:33:50.001Z</time></trkpt><trkpt lat="45.51943946680091" lon="10.811928436892286"><ele>114.0</ele><time>2026-04-26T10:33:51.001Z</time></trkpt><trkpt lat="45.519557733482664" lon="10.81192531218739"><ele>114.0</ele><time>2026-04-26T10:33:52.001Z</time></trkpt><trkpt lat="45.51968296036277" lon="10.811929210984747"><ele>114.0</ele><time>2026-04-26T10:33:53.001Z</time></trkpt><trkpt lat="45.51980299623264" lon="10.811935955123225"><ele>114.0</ele><time>2026-04-26T10:33:54.001Z</time></trkpt><trkpt lat="45.519911280418874" lon="10.81193965785965"><ele>114.0</ele><time>2026-04-26T10:33:55.001Z</time></trkpt><trkpt lat="45.5200158327635" lon="10.811947829073342"><ele>114.0</ele><time>2026-04-26T10:33:56.001Z</time></trkpt><trkpt lat="45.52011486232145" lon="10.811960400862406"><ele>114.0</ele><time>2026-04-26T10:33:57.001Z</time></trkpt><trkpt lat="45.52020039530633" lon="10.811968040343002"><ele>114.0</ele><time>2026-04-26T10:33:58.001Z</time></trkpt><trkpt lat="45.52026969905946" lon="10.811961969439094"><ele>114.0</ele><time>2026-04-26T10:33:59.001Z</time></trkpt><trkpt lat="45.52038392881935" lon="10.811985803464095"><ele>114.0</ele><time>2026-04-26T10:34:01Z</time></trkpt><trkpt lat="45.52049690236112" lon="10.812010258432112"><ele>113.5</ele><time>2026-04-26T10:34:03Z</time></trkpt><trkpt lat="45.52060221921912" lon="10.811915750864843"><ele>113.0</ele><time>2026-04-26T10:34:05Z</time></trkpt><trkpt lat="45.520710703283314" lon="10.811801324734377"><ele>112.5</ele><time>2026-04-26T10:34:07Z</time></trkpt><trkpt lat="45.52080455788148" lon="10.811834717839437"><ele>112.0</ele><time>2026-04-26T10:34:08Z</time></trkpt><trkpt lat="45.520943478111924" lon="10.811842200847174"><ele>112.0</ele><time>2026-04-26T10:34:09Z</time></trkpt><trkpt lat="45.52111996798036" lon="10.811852983959552"><ele>112.0</ele><time>2026-04-26T10:34:10Z</time></trkpt><trkpt lat="45.52129862189217" lon="10.811878401012082"><ele>112.0</ele><time>2026-04-26T10:34:11Z</time></trkpt><trkpt lat="45.52146485991475" lon="10.811895417376649"><ele>112.66666666666667</ele><time>2026-04-26T10:34:12.002Z</time></trkpt><trkpt lat="45.521641985960215" lon="10.81192589830043"><ele>113.33333333333334</ele><time>2026-04-26T10:34:13.002Z</time></trkpt><trkpt lat="45.52180507886127" lon="10.811958732890051"><ele>114.0</ele><time>2026-04-26T10:34:14.002Z</time></trkpt><trkpt lat="45.52196711845338" lon="10.811999797179935"><ele>113.66666666666666</ele><time>2026-04-26T10:34:15.002Z</time></trkpt><trkpt lat="45.522125578302784" lon="10.812011502509709"><ele>113.33333333333333</ele><time>2026-04-26T10:34:16.002Z</time></trkpt><trkpt lat="45.522279750759935" lon="10.811998811906085"><ele>113.0</ele><time>2026-04-26T10:34:17.002Z</time></trkpt><trkpt lat="45.52242812914103" lon="10.811960147918793"><ele>113.0</ele><time>2026-04-26T10:34:18.002Z</time></trkpt><trkpt lat="45.52255895207194" lon="10.811917105199063"><ele>113.0</ele><time>2026-04-26T10:34:19.002Z</time></trkpt><trkpt lat="45.52269766340708" lon="10.811873973017029"><ele>113.0</ele><time>2026-04-26T10:34:20.002Z</time></trkpt><trkpt lat="45.522837446851604" lon="10.811838569799162"><ele>113.0</ele><time>2026-04-26T10:34:21.002Z</time></trkpt><trkpt lat="45.52297452150767" lon="10.8118033419472"><ele>112.60000000000001</ele><time>2026-04-26T10:34:22.002Z</time></trkpt><trkpt lat="45.523096606167115" lon="10.811772630216938"><ele>112.20000000000002</ele><time>2026-04-26T10:34:23.001Z</time></trkpt><trkpt lat="45.523204495182505" lon="10.811748545841882"><ele>111.8</ele><time>2026-04-26T10:34:24.001Z</time></trkpt><trkpt lat="45.52330267197438" lon="10.811726199606564"><ele>111.4</ele><time>2026-04-26T10:34:25.001Z</time></trkpt><trkpt lat="45.5233949009693" lon="10.811702665443905"><ele>111.0</ele><time>2026-04-26T10:34:26.001Z</time></trkpt><trkpt lat="45.52348031038118" lon="10.811677673878483"><ele>111.0</ele><time>2026-04-26T10:34:27.001Z</time></trkpt><trkpt lat="45.52355408279131" lon="10.811644637367626"><ele>111.0</ele><time>2026-04-26T10:34:28.001Z</time></trkpt><trkpt lat="45.52364288947148" lon="10.811590976535456"><ele>111.0</ele><time>2026-04-26T10:34:30.001Z</time></trkpt><trkpt lat="45.52369927122139" lon="10.811542814893812"><ele>111.0</ele><time>2026-04-26T10:34:36.001Z</time></trkpt><trkpt lat="45.523683539659494" lon="10.81130531525959"><ele>111.0</ele><time>2026-04-26T10:34:38.001Z</time></trkpt><trkpt lat="45.52362105070076" lon="10.811165894877314"><ele>111.0</ele><time>2026-04-26T10:34:39.001Z</time></trkpt><trkpt lat="45.523562216974575" lon="10.811022494087082"><ele>111.0</ele><time>2026-04-26T10:34:40.001Z</time></trkpt><trkpt lat="45.523498242704996" lon="10.810829681634907"><ele>111.0</ele><time>2026-04-26T10:34:41.001Z</time></trkpt><trkpt lat="45.52342559935723" lon="10.8106157864847"><ele>111.0</ele><time>2026-04-26T10:34:42.001Z</time></trkpt><trkpt lat="45.52334925780135" lon="10.81037980935633"><ele>111.0</ele><time>2026-04-26T10:34:43.001Z</time></trkpt><trkpt lat="45.523268504367685" lon="10.81015323963702"><ele>111.0</ele><time>2026-04-26T10:34:44.001Z</time></trkpt><trkpt lat="45.523198022306005" lon="10.809909616130371"><ele>111.0</ele><time>2026-04-26T10:34:45.001Z</time></trkpt><trkpt lat="45.52311246087054" lon="10.809651501255125"><ele>111.0</ele><time>2026-04-26T10:34:46.001Z</time></trkpt><trkpt lat="45.523027953501504" lon="10.80939969410594"><ele>111.0</ele><time>2026-04-26T10:34:47.001Z</time></trkpt><trkpt lat="45.52296084831842" lon="10.809136234117025"><ele>111.0</ele><time>2026-04-26T10:34:48.001Z</time></trkpt><trkpt lat="45.52286372570964" lon="10.808866330655837"><ele>110.66666666666666</ele><time>2026-04-26T10:34:49.001Z</time></trkpt><trkpt lat="45.52278187822187" lon="10.808586996822887"><ele>110.33333333333333</ele><time>2026-04-26T10:34:50.001Z</time></trkpt><trkpt lat="45.52270670590485" lon="10.80833406003726"><ele>110.0</ele><time>2026-04-26T10:34:51.001Z</time></trkpt><trkpt lat="45.52262781233117" lon="10.808083743756029"><ele>110.0</ele><time>2026-04-26T10:34:52.001Z</time></trkpt><trkpt lat="45.522544998465996" lon="10.807851675740551"><ele>110.0</ele><time>2026-04-26T10:34:53.001Z</time></trkpt><trkpt lat="45.52244924786546" lon="10.807614921426188"><ele>110.0</ele><time>2026-04-26T10:34:54.001Z</time></trkpt><trkpt lat="45.52236179025027" lon="10.807399085593206"><ele>109.66666666666666</ele><time>2026-04-26T10:34:55.001Z</time></trkpt><trkpt lat="45.52227523484715" lon="10.807171583292865"><ele>109.33333333333334</ele><time>2026-04-26T10:34:56.001Z</time></trkpt><trkpt lat="45.522198751912526" lon="10.806947126814727"><ele>109.0</ele><time>2026-04-26T10:34:57.001Z</time></trkpt><trkpt lat="45.52213088206218" lon="10.806731648211029"><ele>107.0</ele><time>2026-04-26T10:34:58.001Z</time></trkpt><trkpt lat="45.5220797713636" lon="10.806512154922556"><ele>105.0</ele><time>2026-04-26T10:34:59.001Z</time></trkpt><trkpt lat="45.52206081902315" lon="10.806263546859116"><ele>103.0</ele><time>2026-04-26T10:35:00.001Z</time></trkpt><trkpt lat="45.522095006030455" lon="10.806015747633616"><ele>100.33333333333334</ele><time>2026-04-26T10:35:01.001Z</time></trkpt><trkpt lat="45.522157995638985" lon="10.805733030334835"><ele>97.66666666666667</ele><time>2026-04-26T10:35:02.001Z</time></trkpt><trkpt lat="45.52220991017545" lon="10.805419240261564"><ele>95.0</ele><time>2026-04-26T10:35:03.001Z</time></trkpt><trkpt lat="45.52228510339579" lon="10.805116570203971"><ele>94.0</ele><time>2026-04-26T10:35:04.001Z</time></trkpt><trkpt lat="45.52234575362916" lon="10.804841504324274"><ele>93.0</ele><time>2026-04-26T10:35:05.001Z</time></trkpt><trkpt lat="45.52239959771565" lon="10.804601704462227"><ele>92.0</ele><time>2026-04-26T10:35:06.001Z</time></trkpt><trkpt lat="45.522455935236586" lon="10.804376164976532"><ele>92.75</ele><time>2026-04-26T10:35:07.001Z</time></trkpt><trkpt lat="45.522517966710005" lon="10.80417332996641"><ele>93.5</ele><time>2026-04-26T10:35:08.001Z</time></trkpt><trkpt lat="45.52257527837968" lon="10.803995058092454"><ele>94.25</ele><time>2026-04-26T10:35:09.001Z</time></trkpt><trkpt lat="45.522625304061194" lon="10.803824487864853"><ele>95.0</ele><time>2026-04-26T10:35:10.001Z</time></trkpt><trkpt lat="45.5226682255368" lon="10.803655780290212"><ele>95.0</ele><time>2026-04-26T10:35:11.001Z</time></trkpt><trkpt lat="45.5227073726668" lon="10.803501581456555"><ele>95.0</ele><time>2026-04-26T10:35:12.001Z</time></trkpt><trkpt lat="45.522751889440784" lon="10.803369778250373"><ele>95.0</ele><time>2026-04-26T10:35:13.001Z</time></trkpt><trkpt lat="45.522804227508" lon="10.803257674033869"><ele>95.0</ele><time>2026-04-26T10:35:14.001Z</time></trkpt><trkpt lat="45.52286070378811" lon="10.80318265035727"><ele>95.0</ele><time>2026-04-26T10:35:15.001Z</time></trkpt><trkpt lat="45.52291665459804" lon="10.803124675945726"><ele>95.4</ele><time>2026-04-26T10:35:16.001Z</time></trkpt><trkpt lat="45.52299199386907" lon="10.803024926746534"><ele>95.8</ele><time>2026-04-26T10:35:18.001Z</time></trkpt><trkpt lat="45.522985037929544" lon="10.802898729319852"><ele>96.19999999999999</ele><time>2026-04-26T10:35:20.001Z</time></trkpt><trkpt lat="45.52293349649123" lon="10.802801574333072"><ele>96.6</ele><time>2026-04-26T10:35:21.001Z</time></trkpt><trkpt lat="45.52284023873492" lon="10.802731414794478"><ele>97.0</ele><time>2026-04-26T10:35:22.001Z</time></trkpt><trkpt lat="45.52272405768926" lon="10.802702587201187"><ele>97.0</ele><time>2026-04-26T10:35:23.001Z</time></trkpt><trkpt lat="45.522625536184464" lon="10.802778403837594"><ele>97.0</ele><time>2026-04-26T10:35:24.001Z</time></trkpt><trkpt lat="45.52247807743119" lon="10.802707562894428"><ele>97.0</ele><time>2026-04-26T10:35:25.001Z</time></trkpt><trkpt lat="45.52233024303085" lon="10.802676186891302"><ele>97.0</ele><time>2026-04-26T10:35:26.001Z</time></trkpt><trkpt lat="45.52217799099076" lon="10.802635833610902"><ele>97.0</ele><time>2026-04-26T10:35:27.001Z</time></trkpt><trkpt lat="45.52201803288522" lon="10.802596272309225"><ele>97.0</ele><time>2026-04-26T10:35:28.001Z</time></trkpt><trkpt lat="45.52185328593966" lon="10.802559342404033"><ele>97.0</ele><time>2026-04-26T10:35:29.001Z</time></trkpt><trkpt lat="45.521678214177285" lon="10.802519613364767"><ele>97.0</ele><time>2026-04-26T10:35:30.001Z</time></trkpt><trkpt lat="45.52149423920487" lon="10.802479864957077"><ele>97.0</ele><time>2026-04-26T10:35:31.001Z</time></trkpt><trkpt lat="45.5213140002281" lon="10.802438199983632"><ele>97.0</ele><time>2026-04-26T10:35:32.001Z</time></trkpt><trkpt lat="45.521126529185906" lon="10.802397006258667"><ele>96.33333333333334</ele><time>2026-04-26T10:35:33.001Z</time></trkpt><trkpt lat="45.520921645225954" lon="10.80235396292666"><ele>95.66666666666667</ele><time>2026-04-26T10:35:34.001Z</time></trkpt><trkpt lat="45.5207283223087" lon="10.802315375924529"><ele>95.0</ele><time>2026-04-26T10:35:35.001Z</time></trkpt><trkpt lat="45.52056003064908" lon="10.802280228504486"><ele>94.33333333333334</ele><time>2026-04-26T10:35:36Z</time></trkpt><trkpt lat="45.52039817397723" lon="10.802241641024304"><ele>93.66666666666667</ele><time>2026-04-26T10:35:37Z</time></trkpt><trkpt lat="45.520254826374796" lon="10.802202094522194"><ele>93.0</ele><time>2026-04-26T10:35:38Z</time></trkpt><trkpt lat="45.52011114192862" lon="10.802162142157437"><ele>93.0</ele><time>2026-04-26T10:35:39Z</time></trkpt><trkpt lat="45.51997232027951" lon="10.802119102421443"><ele>93.0</ele><time>2026-04-26T10:35:40Z</time></trkpt><trkpt lat="45.519827188839436" lon="10.802074959429518"><ele>93.0</ele><time>2026-04-26T10:35:41Z</time></trkpt><trkpt lat="45.51967556296642" lon="10.802017214539303"><ele>93.0</ele><time>2026-04-26T10:35:42Z</time></trkpt><trkpt lat="45.51952366779778" lon="10.801959650241225"><ele>93.25</ele><time>2026-04-26T10:35:43Z</time></trkpt><trkpt lat="45.51938039770064" lon="10.801905212572498"><ele>93.5</ele><time>2026-04-26T10:35:44Z</time></trkpt><trkpt lat="45.51923738503756" lon="10.801849078112577"><ele>93.75</ele><time>2026-04-26T10:35:45Z</time></trkpt><trkpt lat="45.51909525358659" lon="10.80179422054227"><ele>94.0</ele><time>2026-04-26T10:35:46Z</time></trkpt><trkpt lat="45.51894486320416" lon="10.801754439865196"><ele>94.66666666666666</ele><time>2026-04-26T10:35:47Z</time></trkpt><trkpt lat="45.51879007941973" lon="10.801754502701778"><ele>95.33333333333333</ele><time>2026-04-26T10:35:48Z</time></trkpt><trkpt lat="45.51862530947119" lon="10.801795797978697"><ele>96.0</ele><time>2026-04-26T10:35:49Z</time></trkpt><trkpt lat="45.51847276015822" lon="10.801868654964021"><ele>96.0</ele><time>2026-04-26T10:35:50Z</time></trkpt><trkpt lat="45.51833457063301" lon="10.801949415026796"><ele>96.0</ele><time>2026-04-26T10:35:51Z</time></trkpt><trkpt lat="45.51821541856139" lon="10.802026975979437"><ele>96.0</ele><time>2026-04-26T10:35:51.999Z</time></trkpt><trkpt lat="45.51807516744201" lon="10.802113152789444"><ele>96.0</ele><time>2026-04-26T10:35:52.999Z</time></trkpt><trkpt lat="45.51793404873565" lon="10.80219053256481"><ele>96.0</ele><time>2026-04-26T10:35:53.999Z</time></trkpt><trkpt lat="45.51778416936234" lon="10.802235046915058"><ele>96.0</ele><time>2026-04-26T10:35:54.999Z</time></trkpt><trkpt lat="45.51764063940444" lon="10.802224840724767"><ele>96.0</ele><time>2026-04-26T10:35:55.999Z</time></trkpt><trkpt lat="45.51750937959967" lon="10.802225976469312"><ele>96.0</ele><time>2026-04-26T10:35:56.999Z</time></trkpt><trkpt lat="45.51740432216955" lon="10.802202496799113"><ele>96.0</ele><time>2026-04-26T10:35:57.999Z</time></trkpt><trkpt lat="45.51730701363197" lon="10.802114855615013"><ele>96.0</ele><time>2026-04-26T10:35:58.999Z</time></trkpt><trkpt lat="45.517165363371454" lon="10.802024341845609"><ele>96.0</ele><time>2026-04-26T10:35:59.999Z</time></trkpt><trkpt lat="45.517024884456" lon="10.801947298509592"><ele>96.0</ele><time>2026-04-26T10:36:00.999Z</time></trkpt><trkpt lat="45.51689031969655" lon="10.801842907175882"><ele>96.75</ele><time>2026-04-26T10:36:01.999Z</time></trkpt><trkpt lat="45.516773287595086" lon="10.801732627907862"><ele>97.5</ele><time>2026-04-26T10:36:02.999Z</time></trkpt><trkpt lat="45.51666174467919" lon="10.80162024483617"><ele>98.25</ele><time>2026-04-26T10:36:03.999Z</time></trkpt><trkpt lat="45.516555809832745" lon="10.801498843275638"><ele>99.0</ele><time>2026-04-26T10:36:04.999Z</time></trkpt><trkpt lat="45.51645745193494" lon="10.801382903564521"><ele>99.0</ele><time>2026-04-26T10:36:05.999Z</time></trkpt><trkpt lat="45.516366276058946" lon="10.801271443906577"><ele>99.0</ele><time>2026-04-26T10:36:06.999Z</time></trkpt><trkpt lat="45.51627803461628" lon="10.801131413655082"><ele>99.0</ele><time>2026-04-26T10:36:07.999Z</time></trkpt><trkpt lat="45.51618441658605" lon="10.801016597916652"><ele>99.0</ele><time>2026-04-26T10:36:08.999Z</time></trkpt><trkpt lat="45.51607083315117" lon="10.800876751275519"><ele>99.25</ele><time>2026-04-26T10:36:09.999Z</time></trkpt><trkpt lat="45.515959489496865" lon="10.8007372220122"><ele>99.5</ele><time>2026-04-26T10:36:10.999Z</time></trkpt><trkpt lat="45.51586170182767" lon="10.800613926712511"><ele>99.75</ele><time>2026-04-26T10:36:11.999Z</time></trkpt><trkpt lat="45.5157748714721" lon="10.800504447232193"><ele>100.0</ele><time>2026-04-26T10:36:12.999Z</time></trkpt><trkpt lat="45.51569173627022" lon="10.80039962609049"><ele>100.00000000000001</ele><time>2026-04-26T10:36:13.999Z</time></trkpt><trkpt lat="45.51560716050052" lon="10.800331284479217"><ele>100.0</ele><time>2026-04-26T10:36:14.999Z</time></trkpt><trkpt lat="45.51555343344112" lon="10.800243663977424"><ele>100.0</ele><time>2026-04-26T10:36:15.999Z</time></trkpt><trkpt lat="45.51551494704865" lon="10.800149294375343"><ele>100.0</ele><time>2026-04-26T10:36:16.999Z</time></trkpt><trkpt lat="45.51549478685677" lon="10.800031666483992"><ele>100.00000000000001</ele><time>2026-04-26T10:36:18.001Z</time></trkpt><trkpt lat="45.51543593298479" lon="10.799946962233033"><ele>100.0</ele><time>2026-04-26T10:36:19.001Z</time></trkpt><trkpt lat="45.5153206248178" lon="10.799922421398641"><ele>99.6</ele><time>2026-04-26T10:36:20.001Z</time></trkpt><trkpt lat="45.51524402613351" lon="10.799909490463348"><ele>99.2</ele><time>2026-04-26T10:36:21.001Z</time></trkpt><trkpt lat="45.51514104283343" lon="10.799851273132317"><ele>98.80000000000001</ele><time>2026-04-26T10:36:22.001Z</time></trkpt><trkpt lat="45.515064277437084" lon="10.799712081689638"><ele>98.4</ele><time>2026-04-26T10:36:23.001Z</time></trkpt><trkpt lat="45.51497964340126" lon="10.799617365101978"><ele>98.0</ele><time>2026-04-26T10:36:24.001Z</time></trkpt><trkpt lat="45.51490687536002" lon="10.799541958686453"><ele>98.0</ele><time>2026-04-26T10:36:25.001Z</time></trkpt><trkpt lat="45.514820223548504" lon="10.799453993489259"><ele>98.0</ele><time>2026-04-26T10:36:26Z</time></trkpt><trkpt lat="45.514730525329604" lon="10.799364238603602"><ele>98.0</ele><time>2026-04-26T10:36:27Z</time></trkpt><trkpt lat="45.514648517707165" lon="10.799284803548431"><ele>98.0</ele><time>2026-04-26T10:36:28Z</time></trkpt><trkpt lat="45.51455564493474" lon="10.79919804650197"><ele>98.0</ele><time>2026-04-26T10:36:29Z</time></trkpt><trkpt lat="45.51443779407236" lon="10.79908795618777"><ele>98.66666666666666</ele><time>2026-04-26T10:36:30Z</time></trkpt><trkpt lat="45.51431421230975" lon="10.79897583009269"><ele>99.33333333333334</ele><time>2026-04-26T10:36:31Z</time></trkpt><trkpt lat="45.514168738164045" lon="10.798876552209448"><ele>100.0</ele><time>2026-04-26T10:36:32Z</time></trkpt><trkpt lat="45.51403736225976" lon="10.798768208645669"><ele>100.0</ele><time>2026-04-26T10:36:33Z</time></trkpt><trkpt lat="45.513914200674584" lon="10.798640610585945"><ele>100.0</ele><time>2026-04-26T10:36:34Z</time></trkpt><trkpt lat="45.51376439622535" lon="10.798545916849756"><ele>100.0</ele><time>2026-04-26T10:36:35Z</time></trkpt><trkpt lat="45.51359529383208" lon="10.798411781935762"><ele>100.66666666666667</ele><time>2026-04-26T10:36:36Z</time></trkpt><trkpt lat="45.51341567504157" lon="10.798271888857306"><ele>101.33333333333334</ele><time>2026-04-26T10:36:37Z</time></trkpt><trkpt lat="45.51321804600053" lon="10.798129192386563"><ele>102.0</ele><time>2026-04-26T10:36:38Z</time></trkpt><trkpt lat="45.513029436179636" lon="10.79799721615195"><ele>102.33333333333334</ele><time>2026-04-26T10:36:39Z</time></trkpt><trkpt lat="45.51284009203138" lon="10.797876733715464"><ele>102.66666666666667</ele><time>2026-04-26T10:36:40Z</time></trkpt><trkpt lat="45.512659455117166" lon="10.797775981246554"><ele>103.0</ele><time>2026-04-26T10:36:41Z</time></trkpt><trkpt lat="45.51248069016478" lon="10.797701789757046"><ele>106.0</ele><time>2026-04-26T10:36:42Z</time></trkpt><trkpt lat="45.512291786075494" lon="10.797646773495526"><ele>109.0</ele><time>2026-04-26T10:36:43Z</time></trkpt><trkpt lat="45.51209818280298" lon="10.797597874891734"><ele>112.0</ele><time>2026-04-26T10:36:44Z</time></trkpt><trkpt lat="45.51189250500684" lon="10.79751691489099"><ele>112.0</ele><time>2026-04-26T10:36:45Z</time></trkpt><trkpt lat="45.51170555061609" lon="10.797461767694777"><ele>112.0</ele><time>2026-04-26T10:36:46Z</time></trkpt><trkpt lat="45.511544478618966" lon="10.79741614388381"><ele>112.0</ele><time>2026-04-26T10:36:47Z</time></trkpt><trkpt lat="45.51139235368205" lon="10.797396642189057"><ele>112.0</ele><time>2026-04-26T10:36:48Z</time></trkpt><trkpt lat="45.51124318580146" lon="10.797352552604972"><ele>112.0</ele><time>2026-04-26T10:36:49Z</time></trkpt><trkpt lat="45.51109414496415" lon="10.797304099536712"><ele>112.0</ele><time>2026-04-26T10:36:50Z</time></trkpt><trkpt lat="45.51094376787014" lon="10.797251705026259"><ele>112.66666666666667</ele><time>2026-04-26T10:36:51Z</time></trkpt><trkpt lat="45.510789359974424" lon="10.797201918024816"><ele>113.33333333333334</ele><time>2026-04-26T10:36:52Z</time></trkpt><trkpt lat="45.510629408143636" lon="10.797164085202587"><ele>114.0</ele><time>2026-04-26T10:36:53Z</time></trkpt><trkpt lat="45.510473861552974" lon="10.79714888613039"><ele>115.0</ele><time>2026-04-26T10:36:54Z</time></trkpt><trkpt lat="45.51030464011071" lon="10.797153569801822"><ele>116.0</ele><time>2026-04-26T10:36:55Z</time></trkpt><trkpt lat="45.51013710795886" lon="10.79717844416923"><ele>117.0</ele><time>2026-04-26T10:36:56Z</time></trkpt><trkpt lat="45.50996628890046" lon="10.797214596379188"><ele>117.0</ele><time>2026-04-26T10:36:57Z</time></trkpt><trkpt lat="45.50979982361211" lon="10.797250422796346"><ele>117.0</ele><time>2026-04-26T10:36:58Z</time></trkpt><trkpt lat="45.50964647418031" lon="10.797280427508284"><ele>117.0</ele><time>2026-04-26T10:36:59Z</time></trkpt><trkpt lat="45.50949606562989" lon="10.79731121128591"><ele>118.19999999999999</ele><time>2026-04-26T10:37:00Z</time></trkpt><trkpt lat="45.50936969855541" lon="10.797334454366196"><ele>119.39999999999999</ele><time>2026-04-26T10:37:01Z</time></trkpt><trkpt lat="45.50925972300322" lon="10.797351327532203"><ele>120.60000000000001</ele><time>2026-04-26T10:37:02Z</time></trkpt><trkpt lat="45.50915047071645" lon="10.797352889419953"><ele>121.80000000000001</ele><time>2026-04-26T10:37:03Z</time></trkpt><trkpt lat="45.50905799782124" lon="10.797317637341724"><ele>123.0</ele><time>2026-04-26T10:37:04Z</time></trkpt><trkpt lat="45.508979483263246" lon="10.797253676095945"><ele>123.0</ele><time>2026-04-26T10:37:05Z</time></trkpt><trkpt lat="45.50891829380271" lon="10.797155794643817"><ele>123.00000000000001</ele><time>2026-04-26T10:37:06Z</time></trkpt><trkpt lat="45.50884322769258" lon="10.797071140074516"><ele>123.00000000000001</ele><time>2026-04-26T10:37:07Z</time></trkpt><trkpt lat="45.50876720280009" lon="10.796983104597391"><ele>123.0</ele><time>2026-04-26T10:37:08Z</time></trkpt><trkpt lat="45.50868659687122" lon="10.796887452880013"><ele>123.0</ele><time>2026-04-26T10:37:09Z</time></trkpt><trkpt lat="45.508608800493654" lon="10.79679271745493"><ele>127.0</ele><time>2026-04-26T10:37:10Z</time></trkpt><trkpt lat="45.50853520855245" lon="10.796693016277242"><ele>131.0</ele><time>2026-04-26T10:37:11Z</time></trkpt><trkpt lat="45.50845863488701" lon="10.796571794345216"><ele>135.0</ele><time>2026-04-26T10:37:12Z</time></trkpt><trkpt lat="45.50836244021976" lon="10.796412590077567"><ele>139.0</ele><time>2026-04-26T10:37:13Z</time></trkpt><trkpt lat="45.5082696251246" lon="10.796259862575605"><ele>139.0</ele><time>2026-04-26T10:37:14Z</time></trkpt><trkpt lat="45.50817743779394" lon="10.796141808513179"><ele>139.0</ele><time>2026-04-26T10:37:15Z</time></trkpt><trkpt lat="45.50809837414495" lon="10.79601461161133"><ele>139.0</ele><time>2026-04-26T10:37:16Z</time></trkpt><trkpt lat="45.50801459139641" lon="10.795903798504398"><ele>139.0</ele><time>2026-04-26T10:37:17Z</time></trkpt><trkpt lat="45.507921099981736" lon="10.795804619034444"><ele>141.5</ele><time>2026-04-26T10:37:18Z</time></trkpt><trkpt lat="45.507818407002645" lon="10.795704710967154"><ele>144.0</ele><time>2026-04-26T10:37:19Z</time></trkpt><trkpt lat="45.5076991693172" lon="10.795612866743967"><ele>146.5</ele><time>2026-04-26T10:37:20Z</time></trkpt><trkpt lat="45.50756673963533" lon="10.795518759081379"><ele>149.0</ele><time>2026-04-26T10:37:21Z</time></trkpt><trkpt lat="45.5074412043503" lon="10.795430560664855"><ele>149.0</ele><time>2026-04-26T10:37:22Z</time></trkpt><trkpt lat="45.50733725946729" lon="10.795353782078925"><ele>149.0</ele><time>2026-04-26T10:37:23Z</time></trkpt><trkpt lat="45.50722838449343" lon="10.795267474503477"><ele>149.0</ele><time>2026-04-26T10:37:24Z</time></trkpt><trkpt lat="45.50712819008106" lon="10.795181420249879"><ele>149.0</ele><time>2026-04-26T10:37:25Z</time></trkpt><trkpt lat="45.507051634049176" lon="10.795091899867694"><ele>149.0</ele><time>2026-04-26T10:37:26Z</time></trkpt><trkpt lat="45.5069998411088" lon="10.794979664857813"><ele>149.0</ele><time>2026-04-26T10:37:27Z</time></trkpt><trkpt lat="45.50698757841172" lon="10.794844901755397"><ele>149.0</ele><time>2026-04-26T10:37:28Z</time></trkpt><trkpt lat="45.507022418692344" lon="10.794713568027566"><ele>149.0</ele><time>2026-04-26T10:37:29Z</time></trkpt><trkpt lat="45.50711774905984" lon="10.794609686885968"><ele>149.0</ele><time>2026-04-26T10:37:30Z</time></trkpt><trkpt lat="45.50718800697571" lon="10.794505339921146"><ele>149.0</ele><time>2026-04-26T10:37:31Z</time></trkpt><trkpt lat="45.507277640959316" lon="10.794399894476596"><ele>149.0</ele><time>2026-04-26T10:37:32Z</time></trkpt><trkpt lat="45.50736777681399" lon="10.794282326277907"><ele>149.0</ele><time>2026-04-26T10:37:33Z</time></trkpt><trkpt lat="45.50746195436612" lon="10.79416728849812"><ele>149.0</ele><time>2026-04-26T10:37:34Z</time></trkpt><trkpt lat="45.50755088996166" lon="10.794061624819447"><ele>149.0</ele><time>2026-04-26T10:37:35Z</time></trkpt><trkpt lat="45.50765113861684" lon="10.793946691591335"><ele>149.0</ele><time>2026-04-26T10:37:36Z</time></trkpt><trkpt lat="45.5077557996853" lon="10.79382075337212"><ele>149.0</ele><time>2026-04-26T10:37:37Z</time></trkpt><trkpt lat="45.50787107999259" lon="10.793687766669867"><ele>149.0</ele><time>2026-04-26T10:37:38Z</time></trkpt><trkpt lat="45.507983723665944" lon="10.793551627084092"><ele>149.66666666666666</ele><time>2026-04-26T10:37:39Z</time></trkpt><trkpt lat="45.508094390153595" lon="10.793428307298653"><ele>150.33333333333334</ele><time>2026-04-26T10:37:40Z</time></trkpt><trkpt lat="45.508219830459154" lon="10.793287965240351"><ele>151.0</ele><time>2026-04-26T10:37:40.999Z</time></trkpt><trkpt lat="45.50835318033144" lon="10.793133199773294"><ele>151.0</ele><time>2026-04-26T10:37:41.999Z</time></trkpt><trkpt lat="45.50852060507273" lon="10.79297417933348"><ele>151.0</ele><time>2026-04-26T10:37:42.999Z</time></trkpt><trkpt lat="45.50865457310385" lon="10.79280388833192"><ele>151.0</ele><time>2026-04-26T10:37:43.999Z</time></trkpt><trkpt lat="45.50879167520142" lon="10.792655349876702"><ele>151.33333333333334</ele><time>2026-04-26T10:37:44.999Z</time></trkpt><trkpt lat="45.50891598995625" lon="10.792515968165628"><ele>151.66666666666666</ele><time>2026-04-26T10:37:45.999Z</time></trkpt><trkpt lat="45.50904323547309" lon="10.792369340673758"><ele>152.0</ele><time>2026-04-26T10:37:46.999Z</time></trkpt><trkpt lat="45.50916502876279" lon="10.79220861086832"><ele>152.0</ele><time>2026-04-26T10:37:47.999Z</time></trkpt><trkpt lat="45.509273587020346" lon="10.792023177859306"><ele>152.0</ele><time>2026-04-26T10:37:48.999Z</time></trkpt><trkpt lat="45.50936142355103" lon="10.791802896273996"><ele>152.0</ele><time>2026-04-26T10:37:49.999Z</time></trkpt><trkpt lat="45.50943118674054" lon="10.791568342295148"><ele>151.66666666666666</ele><time>2026-04-26T10:37:50.999Z</time></trkpt><trkpt lat="45.509496210038385" lon="10.79133695561881"><ele>151.33333333333334</ele><time>2026-04-26T10:37:51.999Z</time></trkpt><trkpt lat="45.509553105086084" lon="10.7910996321548"><ele>151.0</ele><time>2026-04-26T10:37:52.999Z</time></trkpt><trkpt lat="45.509591916268946" lon="10.790854344115807"><ele>151.66666666666669</ele><time>2026-04-26T10:37:53.999Z</time></trkpt><trkpt lat="45.50960705068203" lon="10.790600086006858"><ele>152.33333333333334</ele><time>2026-04-26T10:37:54.999Z</time></trkpt><trkpt lat="45.50960728535002" lon="10.790335344075057"><ele>153.0</ele><time>2026-04-26T10:37:55.999Z</time></trkpt><trkpt lat="45.50959696212942" lon="10.790079960076666"><ele>153.33333333333334</ele><time>2026-04-26T10:37:56.999Z</time></trkpt><trkpt lat="45.509589338074846" lon="10.789853146147117"><ele>153.66666666666669</ele><time>2026-04-26T10:37:57.999Z</time></trkpt><trkpt lat="45.50958433253423" lon="10.789626961590203"><ele>154.0</ele><time>2026-04-26T10:37:58.999Z</time></trkpt><trkpt lat="45.509590957119094" lon="10.789383807819734"><ele>153.33333333333334</ele><time>2026-04-26T10:37:59.999Z</time></trkpt><trkpt lat="45.50960913416965" lon="10.78913395539628"><ele>152.66666666666666</ele><time>2026-04-26T10:38:00.999Z</time></trkpt><trkpt lat="45.509640947463595" lon="10.788878908743017"><ele>152.0</ele><time>2026-04-26T10:38:01.999Z</time></trkpt><trkpt lat="45.5096830107749" lon="10.788607050729622"><ele>151.66666666666666</ele><time>2026-04-26T10:38:02.999Z</time></trkpt><trkpt lat="45.50972529524548" lon="10.788376814561039"><ele>151.33333333333334</ele><time>2026-04-26T10:38:03.999Z</time></trkpt><trkpt lat="45.50977198328417" lon="10.788159547519518"><ele>151.0</ele><time>2026-04-26T10:38:04.999Z</time></trkpt><trkpt lat="45.509760418370064" lon="10.787926491557748"><ele>151.0</ele><time>2026-04-26T10:38:05.999Z</time></trkpt><trkpt lat="45.50975151894698" lon="10.78770478699214"><ele>151.0</ele><time>2026-04-26T10:38:06.999Z</time></trkpt><trkpt lat="45.50972329902267" lon="10.787487524312128"><ele>151.0</ele><time>2026-04-26T10:38:07.999Z</time></trkpt><trkpt lat="45.50969221614589" lon="10.78726672935637"><ele>151.33333333333334</ele><time>2026-04-26T10:38:08.999Z</time></trkpt><trkpt lat="45.50965506007261" lon="10.7870565485062"><ele>151.66666666666666</ele><time>2026-04-26T10:38:09.999Z</time></trkpt><trkpt lat="45.50962504371242" lon="10.78683438143025"><ele>152.0</ele><time>2026-04-26T10:38:10.999Z</time></trkpt><trkpt lat="45.509567697820586" lon="10.78661292465482"><ele>152.0</ele><time>2026-04-26T10:38:11.999Z</time></trkpt><trkpt lat="45.509488338941175" lon="10.78642300262546"><ele>152.0</ele><time>2026-04-26T10:38:12.999Z</time></trkpt><trkpt lat="45.50943099325758" lon="10.786234605945827"><ele>152.0</ele><time>2026-04-26T10:38:13.999Z</time></trkpt><trkpt lat="45.50938330999095" lon="10.786074148840747"><ele>152.0</ele><time>2026-04-26T10:38:14.999Z</time></trkpt><trkpt lat="45.50934207133645" lon="10.785927230068467"><ele>152.0</ele><time>2026-04-26T10:38:15.999Z</time></trkpt><trkpt lat="45.50932396257437" lon="10.78578152879486"><ele>152.0</ele><time>2026-04-26T10:38:16.999Z</time></trkpt><trkpt lat="45.50929203781208" lon="10.785641235346482"><ele>152.0</ele><time>2026-04-26T10:38:17.999Z</time></trkpt><trkpt lat="45.50926454028877" lon="10.78549849079994"><ele>152.0</ele><time>2026-04-26T10:38:18.999Z</time></trkpt><trkpt lat="45.5092435305782" lon="10.785345424423078"><ele>152.0</ele><time>2026-04-26T10:38:19.999Z</time></trkpt><trkpt lat="45.50922904025806" lon="10.785176846431334"><ele>152.4</ele><time>2026-04-26T10:38:20.999Z</time></trkpt><trkpt lat="45.509221170882384" lon="10.784998515111917"><ele>152.79999999999998</ele><time>2026-04-26T10:38:21.999Z</time></trkpt><trkpt lat="45.50922014498615" lon="10.784840576616824"><ele>153.2</ele><time>2026-04-26T10:38:23.001Z</time></trkpt><trkpt lat="45.509226188365275" lon="10.784703177602957"><ele>153.6</ele><time>2026-04-26T10:38:24.001Z</time></trkpt><trkpt lat="45.50923230756626" lon="10.78458091951476"><ele>154.0</ele><time>2026-04-26T10:38:25.001Z</time></trkpt><trkpt lat="45.50923872401619" lon="10.784456610187066"><ele>154.0</ele><time>2026-04-26T10:38:26.001Z</time></trkpt><trkpt lat="45.50924509413891" lon="10.78433528339639"><ele>154.0</ele><time>2026-04-26T10:38:27.001Z</time></trkpt><trkpt lat="45.50925228038843" lon="10.784196798033163"><ele>154.0</ele><time>2026-04-26T10:38:28.001Z</time></trkpt><trkpt lat="45.50926017016939" lon="10.784044793842817"><ele>154.0</ele><time>2026-04-26T10:38:29.001Z</time></trkpt><trkpt lat="45.509269346311086" lon="10.783866774465041"><ele>154.0</ele><time>2026-04-26T10:38:30.001Z</time></trkpt><trkpt lat="45.50927890768095" lon="10.783674993792111"><ele>153.33333333333334</ele><time>2026-04-26T10:38:31.001Z</time></trkpt><trkpt lat="45.509273960373925" lon="10.78347259934097"><ele>152.66666666666666</ele><time>2026-04-26T10:38:32.001Z</time></trkpt><trkpt lat="45.50929942297683" lon="10.783263500748395"><ele>152.0</ele><time>2026-04-26T10:38:33.001Z</time></trkpt><trkpt lat="45.50931100584934" lon="10.78302795956119"><ele>152.0</ele><time>2026-04-26T10:38:34.001Z</time></trkpt><trkpt lat="45.50932291218659" lon="10.782774429082451"><ele>152.0</ele><time>2026-04-26T10:38:35.001Z</time></trkpt><trkpt lat="45.509314319343744" lon="10.782518637470469"><ele>152.0</ele><time>2026-04-26T10:38:36.001Z</time></trkpt><trkpt lat="45.509312174398005" lon="10.782266738951806"><ele>152.66666666666666</ele><time>2026-04-26T10:38:37Z</time></trkpt><trkpt lat="45.509300951062144" lon="10.782014500175034"><ele>153.33333333333334</ele><time>2026-04-26T10:38:38Z</time></trkpt><trkpt lat="45.50927806861981" lon="10.78177675005576"><ele>154.0</ele><time>2026-04-26T10:38:39Z</time></trkpt><trkpt lat="45.50925525734658" lon="10.781553908855782"><ele>154.0</ele><time>2026-04-26T10:38:40Z</time></trkpt><trkpt lat="45.50923124586944" lon="10.781351263244154"><ele>154.0</ele><time>2026-04-26T10:38:41Z</time></trkpt><trkpt lat="45.509227097211586" lon="10.781146911087568"><ele>154.0</ele><time>2026-04-26T10:38:42Z</time></trkpt><trkpt lat="45.50920607022536" lon="10.780928859102557"><ele>154.0</ele><time>2026-04-26T10:38:43Z</time></trkpt><trkpt lat="45.50917117531296" lon="10.780740031621608"><ele>154.75</ele><time>2026-04-26T10:38:44Z</time></trkpt><trkpt lat="45.509158004638216" lon="10.780567612591126"><ele>155.5</ele><time>2026-04-26T10:38:45Z</time></trkpt><trkpt lat="45.50914748625509" lon="10.780405529963856"><ele>156.25</ele><time>2026-04-26T10:38:46Z</time></trkpt><trkpt lat="45.50913621220145" lon="10.78025299804963"><ele>157.0</ele><time>2026-04-26T10:38:47Z</time></trkpt><trkpt lat="45.50911862634528" lon="10.780091137584915"><ele>158.25</ele><time>2026-04-26T10:38:48Z</time></trkpt><trkpt lat="45.50909546236784" lon="10.779920937666224"><ele>159.5</ele><time>2026-04-26T10:38:49Z</time></trkpt><trkpt lat="45.50906098947068" lon="10.779735669374602"><ele>160.75</ele><time>2026-04-26T10:38:50Z</time></trkpt><trkpt lat="45.50901118824786" lon="10.779554612233918"><ele>162.0</ele><time>2026-04-26T10:38:51Z</time></trkpt><trkpt lat="45.50895248221002" lon="10.779369771549067"><ele>161.75</ele><time>2026-04-26T10:38:52Z</time></trkpt><trkpt lat="45.508894039502955" lon="10.779185992657123"><ele>161.5</ele><time>2026-04-26T10:38:53Z</time></trkpt><trkpt lat="45.50883938796871" lon="10.779007980283822"><ele>161.25</ele><time>2026-04-26T10:38:54Z</time></trkpt><trkpt lat="45.50878919892475" lon="10.778844565555605"><ele>161.0</ele><time>2026-04-26T10:38:55Z</time></trkpt><trkpt lat="45.508740494018845" lon="10.778698371402783"><ele>161.0</ele><time>2026-04-26T10:38:56Z</time></trkpt><trkpt lat="45.50869592111439" lon="10.77856189434201"><ele>161.0</ele><time>2026-04-26T10:38:57Z</time></trkpt><trkpt lat="45.508667502162886" lon="10.778429519513478"><ele>161.0</ele><time>2026-04-26T10:38:58Z</time></trkpt><trkpt lat="45.50866424187759" lon="10.778297563126927"><ele>161.0</ele><time>2026-04-26T10:38:59Z</time></trkpt><trkpt lat="45.50869140031297" lon="10.77817636042996"><ele>161.0</ele><time>2026-04-26T10:39:00Z</time></trkpt><trkpt lat="45.50876067509742" lon="10.77805201985882"><ele>161.75</ele><time>2026-04-26T10:39:01Z</time></trkpt><trkpt lat="45.50884713115359" lon="10.777942074963212"><ele>162.5</ele><time>2026-04-26T10:39:02Z</time></trkpt><trkpt lat="45.50896634839753" lon="10.777854614292055"><ele>163.25</ele><time>2026-04-26T10:39:03Z</time></trkpt><trkpt lat="45.50909373441473" lon="10.777759965030073"><ele>164.0</ele><time>2026-04-26T10:39:04Z</time></trkpt><trkpt lat="45.509214581247875" lon="10.777666998608826"><ele>163.0</ele><time>2026-04-26T10:39:05Z</time></trkpt><trkpt lat="45.50933470618505" lon="10.777570238943648"><ele>162.0</ele><time>2026-04-26T10:39:06Z</time></trkpt><trkpt lat="45.5094576877513" lon="10.77746743731633"><ele>161.0</ele><time>2026-04-26T10:39:07Z</time></trkpt><trkpt lat="45.5095903197662" lon="10.777353904668258"><ele>160.0</ele><time>2026-04-26T10:39:08Z</time></trkpt><trkpt lat="45.50973309343626" lon="10.777230845525253"><ele>160.0</ele><time>2026-04-26T10:39:09Z</time></trkpt><trkpt lat="45.5098731316957" lon="10.777108649184212"><ele>160.0</ele><time>2026-04-26T10:39:10Z</time></trkpt><trkpt lat="45.51002540455522" lon="10.776970930315269"><ele>160.0</ele><time>2026-04-26T10:39:11Z</time></trkpt><trkpt lat="45.510168970923644" lon="10.776824599601946"><ele>159.33333333333334</ele><time>2026-04-26T10:39:12Z</time></trkpt><trkpt lat="45.510287764944096" lon="10.776680418060105"><ele>158.66666666666666</ele><time>2026-04-26T10:39:13Z</time></trkpt><trkpt lat="45.510401186354066" lon="10.776529515965224"><ele>158.0</ele><time>2026-04-26T10:39:14Z</time></trkpt><trkpt lat="45.51050287432099" lon="10.776382525575064"><ele>158.0</ele><time>2026-04-26T10:39:15Z</time></trkpt><trkpt lat="45.51060910346144" lon="10.77622820490959"><ele>158.0</ele><time>2026-04-26T10:39:16Z</time></trkpt><trkpt lat="45.51071052389894" lon="10.776068038649822"><ele>158.0</ele><time>2026-04-26T10:39:17Z</time></trkpt><trkpt lat="45.51080689084389" lon="10.775895912043433"><ele>157.75</ele><time>2026-04-26T10:39:18Z</time></trkpt><trkpt lat="45.51088943990834" lon="10.77571647438308"><ele>157.5</ele><time>2026-04-26T10:39:19Z</time></trkpt><trkpt lat="45.510951050318866" lon="10.775530937175915"><ele>157.25</ele><time>2026-04-26T10:39:20Z</time></trkpt><trkpt lat="45.511002459293195" lon="10.775352495574118"><ele>157.0</ele><time>2026-04-26T10:39:21Z</time></trkpt><trkpt lat="45.51105471814816" lon="10.775171523348863"><ele>157.6</ele><time>2026-04-26T10:39:22Z</time></trkpt><trkpt lat="45.511103199853544" lon="10.775013404386772"><ele>158.2</ele><time>2026-04-26T10:39:23Z</time></trkpt><trkpt lat="45.511148757673034" lon="10.774877260552127"><ele>158.8</ele><time>2026-04-26T10:39:24Z</time></trkpt><trkpt lat="45.51119752436152" lon="10.77474484530971"><ele>159.4</ele><time>2026-04-26T10:39:25Z</time></trkpt><trkpt lat="45.51125663125745" lon="10.774602609448845"><ele>160.0</ele><time>2026-04-26T10:39:26Z</time></trkpt><trkpt lat="45.51133477161435" lon="10.774460613482699"><ele>159.0</ele><time>2026-04-26T10:39:27Z</time></trkpt><trkpt lat="45.511429477592266" lon="10.77432614752328"><ele>158.0</ele><time>2026-04-26T10:39:28Z</time></trkpt><trkpt lat="45.511543980103966" lon="10.77418606360848"><ele>157.0</ele><time>2026-04-26T10:39:29Z</time></trkpt><trkpt lat="45.51167111756829" lon="10.77402868637055"><ele>157.0</ele><time>2026-04-26T10:39:30Z</time></trkpt><trkpt lat="45.51181748684094" lon="10.773853338593373"><ele>157.0</ele><time>2026-04-26T10:39:31Z</time></trkpt><trkpt lat="45.511980026886455" lon="10.773652951243658"><ele>157.0</ele><time>2026-04-26T10:39:32Z</time></trkpt><trkpt lat="45.51215474746457" lon="10.773433612673"><ele>156.5</ele><time>2026-04-26T10:39:33Z</time></trkpt><trkpt lat="45.51233319147436" lon="10.773228967214107"><ele>156.0</ele><time>2026-04-26T10:39:34Z</time></trkpt><trkpt lat="45.512485147072724" lon="10.772993174531065"><ele>156.0</ele><time>2026-04-26T10:39:35Z</time></trkpt><trkpt lat="45.512605273747155" lon="10.772736246439942"><ele>156.0</ele><time>2026-04-26T10:39:36Z</time></trkpt><trkpt lat="45.51271084895444" lon="10.772499611918482"><ele>156.0</ele><time>2026-04-26T10:39:37Z</time></trkpt><trkpt lat="45.51281243722459" lon="10.772289936121066"><ele>155.33333333333334</ele><time>2026-04-26T10:39:38Z</time></trkpt><trkpt lat="45.51292381110516" lon="10.772082838421795"><ele>154.66666666666669</ele><time>2026-04-26T10:39:39Z</time></trkpt><trkpt lat="45.51303091841083" lon="10.771855200164445"><ele>154.0</ele><time>2026-04-26T10:39:40Z</time></trkpt><trkpt lat="45.51316496515326" lon="10.771657874050078"><ele>153.33333333333334</ele><time>2026-04-26T10:39:41Z</time></trkpt><trkpt lat="45.51329745193178" lon="10.771426817051932"><ele>152.66666666666666</ele><time>2026-04-26T10:39:42Z</time></trkpt><trkpt lat="45.51344919812004" lon="10.771167198743942"><ele>152.0</ele><time>2026-04-26T10:39:43Z</time></trkpt><trkpt lat="45.51359316362232" lon="10.77088818715013"><ele>152.0</ele><time>2026-04-26T10:39:44Z</time></trkpt><trkpt lat="45.5137325211518" lon="10.770656888550462"><ele>152.0</ele><time>2026-04-26T10:39:45Z</time></trkpt><trkpt lat="45.513858197118005" lon="10.77043680356826"><ele>152.0</ele><time>2026-04-26T10:39:46Z</time></trkpt><trkpt lat="45.51397810037874" lon="10.770214650164187"><ele>152.66666666666666</ele><time>2026-04-26T10:39:47Z</time></trkpt><trkpt lat="45.514093332092884" lon="10.769980048083246"><ele>153.33333333333334</ele><time>2026-04-26T10:39:48Z</time></trkpt><trkpt lat="45.51419325184435" lon="10.769735220305845"><ele>154.0</ele><time>2026-04-26T10:39:49Z</time></trkpt><trkpt lat="45.514281187777776" lon="10.769493715349347"><ele>154.33333333333334</ele><time>2026-04-26T10:39:50Z</time></trkpt><trkpt lat="45.5143500787888" lon="10.769274517552828"><ele>154.66666666666666</ele><time>2026-04-26T10:39:51Z</time></trkpt><trkpt lat="45.51441246038063" lon="10.76906688362289"><ele>155.0</ele><time>2026-04-26T10:39:52Z</time></trkpt><trkpt lat="45.51446930854939" lon="10.76887101391451"><ele>155.0</ele><time>2026-04-26T10:39:53Z</time></trkpt><trkpt lat="45.5145228187767" lon="10.768688101433758"><ele>155.0</ele><time>2026-04-26T10:39:54Z</time></trkpt><trkpt lat="45.51457412846578" lon="10.76850846702458"><ele>155.0</ele><time>2026-04-26T10:39:55Z</time></trkpt><trkpt lat="45.51461081782271" lon="10.768381581474248"><ele>155.0</ele><time>2026-04-26T10:39:56Z</time></trkpt><trkpt lat="45.51465753928516" lon="10.768295871955187"><ele>155.0</ele><time>2026-04-26T10:39:57Z</time></trkpt><trkpt lat="45.51483396308051" lon="10.768243742858704"><ele>155.5</ele><time>2026-04-26T10:39:59Z</time></trkpt><trkpt lat="45.51495485387259" lon="10.76826333270294"><ele>156.0</ele><time>2026-04-26T10:40:00Z</time></trkpt><trkpt lat="45.51508518827887" lon="10.768294242913296"><ele>156.5</ele><time>2026-04-26T10:40:00.999Z</time></trkpt><trkpt lat="45.51521728688631" lon="10.768317426512429"><ele>157.0</ele><time>2026-04-26T10:40:01.999Z</time></trkpt><trkpt lat="45.51533264432036" lon="10.76833524969311"><ele>156.33333333333334</ele><time>2026-04-26T10:40:02.999Z</time></trkpt><trkpt lat="45.51543076086712" lon="10.768348549773076"><ele>155.66666666666669</ele><time>2026-04-26T10:40:03.999Z</time></trkpt><trkpt lat="45.51552102971541" lon="10.768373256301523"><ele>155.0</ele><time>2026-04-26T10:40:04.999Z</time></trkpt><trkpt lat="45.51560028565295" lon="10.768422030894573"><ele>154.33333333333334</ele><time>2026-04-26T10:40:05.999Z</time></trkpt><trkpt lat="45.51566618429552" lon="10.768491493059361"><ele>153.66666666666666</ele><time>2026-04-26T10:40:06.999Z</time></trkpt><trkpt lat="45.51570548715407" lon="10.768576437384567"><ele>153.0</ele><time>2026-04-26T10:40:07.999Z</time></trkpt><trkpt lat="45.51572446963328" lon="10.768671821633436"><ele>153.0</ele><time>2026-04-26T10:40:08.999Z</time></trkpt><trkpt lat="45.51571968651066" lon="10.768841761598143"><ele>153.0</ele><time>2026-04-26T10:40:10.999Z</time></trkpt><trkpt lat="45.51569671104195" lon="10.768935703714297"><ele>153.0</ele><time>2026-04-26T10:40:11.999Z</time></trkpt><trkpt lat="45.5156497171029" lon="10.769023300789529"><ele>153.0</ele><time>2026-04-26T10:40:12.999Z</time></trkpt><trkpt lat="45.515582820241235" lon="10.769080064230403"><ele>153.0</ele><time>2026-04-26T10:40:13.999Z</time></trkpt><trkpt lat="45.515515032254974" lon="10.769113422657327"><ele>153.0</ele><time>2026-04-26T10:40:14.999Z</time></trkpt><trkpt lat="45.515430567774324" lon="10.769120335089427"><ele>153.20000000000002</ele><time>2026-04-26T10:40:15.999Z</time></trkpt><trkpt lat="45.51533254141424" lon="10.769098640125646"><ele>153.4</ele><time>2026-04-26T10:40:16.999Z</time></trkpt><trkpt lat="45.515238897821085" lon="10.769079499539085"><ele>153.60000000000002</ele><time>2026-04-26T10:40:17.999Z</time></trkpt><trkpt lat="45.51513352585437" lon="10.769067423961584"><ele>153.8</ele><time>2026-04-26T10:40:18.999Z</time></trkpt><trkpt lat="45.51501326571924" lon="10.769058810962788"><ele>154.0</ele><time>2026-04-26T10:40:19.999Z</time></trkpt><trkpt lat="45.51487084439272" lon="10.76905462213388"><ele>154.0</ele><time>2026-04-26T10:40:20.999Z</time></trkpt><trkpt lat="45.514698020415565" lon="10.769046185974545"><ele>154.0</ele><time>2026-04-26T10:40:21.999Z</time></trkpt><trkpt lat="45.51450122048295" lon="10.769010781077837"><ele>154.0</ele><time>2026-04-26T10:40:22.999Z</time></trkpt><trkpt lat="45.51429440749691" lon="10.768955819422315"><ele>154.5</ele><time>2026-04-26T10:40:23.999Z</time></trkpt><trkpt lat="45.51406411487163" lon="10.768901760124923"><ele>155.0</ele><time>2026-04-26T10:40:24.999Z</time></trkpt><trkpt lat="45.51383984458617" lon="10.768853343841139"><ele>154.5</ele><time>2026-04-26T10:40:25.999Z</time></trkpt><trkpt lat="45.513603179725635" lon="10.768817002967202"><ele>154.0</ele><time>2026-04-26T10:40:26.999Z</time></trkpt><trkpt lat="45.51335243210385" lon="10.768779597370871"><ele>154.0</ele><time>2026-04-26T10:40:28.001Z</time></trkpt><trkpt lat="45.51309474324953" lon="10.768739090683308"><ele>154.0</ele><time>2026-04-26T10:40:29.001Z</time></trkpt><trkpt lat="45.512846943639204" lon="10.768697864568711"><ele>155.5</ele><time>2026-04-26T10:40:30.001Z</time></trkpt><trkpt lat="45.5125999323206" lon="10.768655312167446"><ele>157.0</ele><time>2026-04-26T10:40:31.001Z</time></trkpt><trkpt lat="45.51233704188555" lon="10.768610349284518"><ele>157.5</ele><time>2026-04-26T10:40:32.001Z</time></trkpt><trkpt lat="45.51207196182616" lon="10.76856136659774"><ele>158.0</ele><time>2026-04-26T10:40:33.001Z</time></trkpt><trkpt lat="45.51180758891973" lon="10.76851710238872"><ele>154.0</ele><time>2026-04-26T10:40:34.001Z</time></trkpt><trkpt lat="45.51153805520091" lon="10.768476166400578"><ele>150.0</ele><time>2026-04-26T10:40:35.001Z</time></trkpt><trkpt lat="45.511272698575" lon="10.768437695245604"><ele>146.5</ele><time>2026-04-26T10:40:36.001Z</time></trkpt><trkpt lat="45.51100660209851" lon="10.768398270460143"><ele>143.0</ele><time>2026-04-26T10:40:37.001Z</time></trkpt><trkpt lat="45.510730465048404" lon="10.768359175306385"><ele>143.0</ele><time>2026-04-26T10:40:38.001Z</time></trkpt><trkpt lat="45.510456376810865" lon="10.76831639457077"><ele>143.0</ele><time>2026-04-26T10:40:39.001Z</time></trkpt><trkpt lat="45.510178067582736" lon="10.768275849660473"><ele>141.0</ele><time>2026-04-26T10:40:40.001Z</time></trkpt><trkpt lat="45.509876075020124" lon="10.768224946306386"><ele>139.0</ele><time>2026-04-26T10:40:41.001Z</time></trkpt><trkpt lat="45.50955269746817" lon="10.768163059428211"><ele>137.5</ele><time>2026-04-26T10:40:42.001Z</time></trkpt><trkpt lat="45.50921347163102" lon="10.768093795028166"><ele>136.0</ele><time>2026-04-26T10:40:43.001Z</time></trkpt><trkpt lat="45.50886838872079" lon="10.768033673621959"><ele>136.0</ele><time>2026-04-26T10:40:44.001Z</time></trkpt><trkpt lat="45.50856364327384" lon="10.767993125767198"><ele>136.0</ele><time>2026-04-26T10:40:45.001Z</time></trkpt><trkpt lat="45.508276495244296" lon="10.767965281170877"><ele>136.0</ele><time>2026-04-26T10:40:46.001Z</time></trkpt><trkpt lat="45.50799173043856" lon="10.767951624697188"><ele>136.0</ele><time>2026-04-26T10:40:47Z</time></trkpt><trkpt lat="45.50770627758413" lon="10.767950857604692"><ele>135.5</ele><time>2026-04-26T10:40:48Z</time></trkpt><trkpt lat="45.50743603941764" lon="10.767956267455611"><ele>135.0</ele><time>2026-04-26T10:40:49Z</time></trkpt><trkpt lat="45.50717354163153" lon="10.767962068324739"><ele>135.0</ele><time>2026-04-26T10:40:50Z</time></trkpt><trkpt lat="45.50689759615732" lon="10.767971450666172"><ele>135.0</ele><time>2026-04-26T10:40:51Z</time></trkpt><trkpt lat="45.50661930410785" lon="10.767980232779765"><ele>135.0</ele><time>2026-04-26T10:40:52Z</time></trkpt><trkpt lat="45.506348267525134" lon="10.76798567256134"><ele>135.0</ele><time>2026-04-26T10:40:53Z</time></trkpt><trkpt lat="45.50607919425036" lon="10.767991968064843"><ele>135.0</ele><time>2026-04-26T10:40:54Z</time></trkpt><trkpt lat="45.505810329725044" lon="10.767999513661227"><ele>135.0</ele><time>2026-04-26T10:40:55Z</time></trkpt><trkpt lat="45.50553924625724" lon="10.768008420659363"><ele>137.0</ele><time>2026-04-26T10:40:56Z</time></trkpt><trkpt lat="45.5052697642591" lon="10.76802040365237"><ele>139.0</ele><time>2026-04-26T10:40:57Z</time></trkpt><trkpt lat="45.50500071494259" lon="10.768038576028022"><ele>139.0</ele><time>2026-04-26T10:40:58Z</time></trkpt><trkpt lat="45.50473746273009" lon="10.76804882890111"><ele>139.0</ele><time>2026-04-26T10:40:59Z</time></trkpt><trkpt lat="45.50447854695312" lon="10.768057765328116"><ele>141.0</ele><time>2026-04-26T10:41:00Z</time></trkpt><trkpt lat="45.50421404256243" lon="10.76806394011457"><ele>143.0</ele><time>2026-04-26T10:41:01Z</time></trkpt><trkpt lat="45.503940759512865" lon="10.768074606623152"><ele>142.0</ele><time>2026-04-26T10:41:02Z</time></trkpt><trkpt lat="45.50365726523819" lon="10.768078641522074"><ele>141.0</ele><time>2026-04-26T10:41:03Z</time></trkpt><trkpt lat="45.503396384179965" lon="10.768090067047881"><ele>141.0</ele><time>2026-04-26T10:41:04Z</time></trkpt><trkpt lat="45.50314203824149" lon="10.76809775799028"><ele>141.0</ele><time>2026-04-26T10:41:05Z</time></trkpt><trkpt lat="45.502883165599094" lon="10.768105389346472"><ele>139.5</ele><time>2026-04-26T10:41:06Z</time></trkpt><trkpt lat="45.5026249313456" lon="10.76811508526913"><ele>138.0</ele><time>2026-04-26T10:41:07Z</time></trkpt><trkpt lat="45.50237149586353" lon="10.768127091455673"><ele>138.0</ele><time>2026-04-26T10:41:08Z</time></trkpt><trkpt lat="45.50211392220974" lon="10.76813573454334"><ele>138.0</ele><time>2026-04-26T10:41:09Z</time></trkpt><trkpt lat="45.50183883278975" lon="10.768143375375102"><ele>135.5</ele><time>2026-04-26T10:41:10Z</time></trkpt><trkpt lat="45.501559135438754" lon="10.768149737525741"><ele>133.0</ele><time>2026-04-26T10:41:11Z</time></trkpt><trkpt lat="45.50127788993366" lon="10.76816145502181"><ele>133.0</ele><time>2026-04-26T10:41:12Z</time></trkpt><trkpt lat="45.50101064050492" lon="10.768170276123152"><ele>133.0</ele><time>2026-04-26T10:41:13Z</time></trkpt><trkpt lat="45.500750996281475" lon="10.76818027796636"><ele>133.0</ele><time>2026-04-26T10:41:14Z</time></trkpt><trkpt lat="45.50049637946244" lon="10.768186670382773"><ele>133.0</ele><time>2026-04-26T10:41:15Z</time></trkpt><trkpt lat="45.500235259723915" lon="10.768193911089634"><ele>132.5</ele><time>2026-04-26T10:41:16Z</time></trkpt><trkpt lat="45.49996910837934" lon="10.768203592177858"><ele>132.0</ele><time>2026-04-26T10:41:17Z</time></trkpt><trkpt lat="45.499699127972264" lon="10.768213687164502"><ele>130.5</ele><time>2026-04-26T10:41:18Z</time></trkpt><trkpt lat="45.499429179191196" lon="10.768221619716517"><ele>129.0</ele><time>2026-04-26T10:41:19Z</time></trkpt><trkpt lat="45.499161797636624" lon="10.76822866041658"><ele>129.0</ele><time>2026-04-26T10:41:20Z</time></trkpt><trkpt lat="45.49889731851337" lon="10.768235197127805"><ele>129.0</ele><time>2026-04-26T10:41:21Z</time></trkpt><trkpt lat="45.49863220554847" lon="10.768244510178794"><ele>130.0</ele><time>2026-04-26T10:41:22Z</time></trkpt><trkpt lat="45.49837039468216" lon="10.768255180507799"><ele>131.0</ele><time>2026-04-26T10:41:23Z</time></trkpt><trkpt lat="45.49811185929727" lon="10.768267241916048"><ele>129.0</ele><time>2026-04-26T10:41:24Z</time></trkpt><trkpt lat="45.4978537172925" lon="10.768278537420574"><ele>127.0</ele><time>2026-04-26T10:41:25Z</time></trkpt><trkpt lat="45.49760265771861" lon="10.768288211310448"><ele>127.0</ele><time>2026-04-26T10:41:26Z</time></trkpt><trkpt lat="45.4973506019609" lon="10.768292899152058"><ele>127.0</ele><time>2026-04-26T10:41:27Z</time></trkpt><trkpt lat="45.49710460103374" lon="10.768299394872002"><ele>128.0</ele><time>2026-04-26T10:41:28Z</time></trkpt><trkpt lat="45.4968558587305" lon="10.76830757690768"><ele>129.0</ele><time>2026-04-26T10:41:29Z</time></trkpt><trkpt lat="45.49661530401603" lon="10.768317041432763"><ele>129.0</ele><time>2026-04-26T10:41:30Z</time></trkpt><trkpt lat="45.49636917031051" lon="10.768323400863977"><ele>129.0</ele><time>2026-04-26T10:41:31Z</time></trkpt><trkpt lat="45.4961235954312" lon="10.768330722591635"><ele>128.0</ele><time>2026-04-26T10:41:32Z</time></trkpt><trkpt lat="45.49587656767049" lon="10.768339233985285"><ele>127.0</ele><time>2026-04-26T10:41:33Z</time></trkpt><trkpt lat="45.49562231285006" lon="10.768338482631897"><ele>128.0</ele><time>2026-04-26T10:41:34Z</time></trkpt><trkpt lat="45.49536876133257" lon="10.768324522959135"><ele>129.0</ele><time>2026-04-26T10:41:35Z</time></trkpt><trkpt lat="45.49510965870682" lon="10.76830030827641"><ele>129.0</ele><time>2026-04-26T10:41:36Z</time></trkpt><trkpt lat="45.494845551403884" lon="10.768261989857967"><ele>129.0</ele><time>2026-04-26T10:41:37Z</time></trkpt><trkpt lat="45.49458151668259" lon="10.768213848430674"><ele>128.0</ele><time>2026-04-26T10:41:38Z</time></trkpt><trkpt lat="45.49432301479626" lon="10.768159301596945"><ele>127.0</ele><time>2026-04-26T10:41:39Z</time></trkpt><trkpt lat="45.494064258290095" lon="10.768094479852744"><ele>127.0</ele><time>2026-04-26T10:41:40Z</time></trkpt><trkpt lat="45.493803521464905" lon="10.768022610197207"><ele>127.0</ele><time>2026-04-26T10:41:41Z</time></trkpt><trkpt lat="45.49353998273527" lon="10.767946410985004"><ele>126.5</ele><time>2026-04-26T10:41:42Z</time></trkpt><trkpt lat="45.49328846395408" lon="10.767883661873537"><ele>126.0</ele><time>2026-04-26T10:41:43Z</time></trkpt><trkpt lat="45.49302314488295" lon="10.767816525915428"><ele>126.5</ele><time>2026-04-26T10:41:44Z</time></trkpt><trkpt lat="45.49276440023432" lon="10.76774936430205"><ele>127.0</ele><time>2026-04-26T10:41:45Z</time></trkpt><trkpt lat="45.49250364122684" lon="10.767679108308315"><ele>127.0</ele><time>2026-04-26T10:41:46Z</time></trkpt><trkpt lat="45.492244157555234" lon="10.767611720596102"><ele>127.0</ele><time>2026-04-26T10:41:47Z</time></trkpt><trkpt lat="45.49197747269427" lon="10.767540059684855"><ele>126.5</ele><time>2026-04-26T10:41:48Z</time></trkpt><trkpt lat="45.49171270041781" lon="10.767466079164128"><ele>126.0</ele><time>2026-04-26T10:41:49Z</time></trkpt><trkpt lat="45.49143780407509" lon="10.767389659085696"><ele>128.5</ele><time>2026-04-26T10:41:50Z</time></trkpt><trkpt lat="45.49117421539164" lon="10.76731871379336"><ele>131.0</ele><time>2026-04-26T10:41:51Z</time></trkpt><trkpt lat="45.49091195780262" lon="10.767249974788285"><ele>131.0</ele><time>2026-04-26T10:41:52Z</time></trkpt><trkpt lat="45.49065088309111" lon="10.767186197724657"><ele>131.0</ele><time>2026-04-26T10:41:53Z</time></trkpt><trkpt lat="45.49039962973183" lon="10.767121520106665"><ele>131.5</ele><time>2026-04-26T10:41:54Z</time></trkpt><trkpt lat="45.49015275997236" lon="10.767052992688594"><ele>132.0</ele><time>2026-04-26T10:41:55Z</time></trkpt><trkpt lat="45.48990486703648" lon="10.766983037850428"><ele>132.0</ele><time>2026-04-26T10:41:56Z</time></trkpt><trkpt lat="45.48966602315681" lon="10.766926583018662"><ele>132.0</ele><time>2026-04-26T10:41:57Z</time></trkpt><trkpt lat="45.48941008871088" lon="10.766847465432372"><ele>130.0</ele><time>2026-04-26T10:41:58Z</time></trkpt><trkpt lat="45.48915315400278" lon="10.766780642896583"><ele>128.0</ele><time>2026-04-26T10:41:59Z</time></trkpt><trkpt lat="45.48890013818649" lon="10.76671509200519"><ele>127.5</ele><time>2026-04-26T10:42:00Z</time></trkpt><trkpt lat="45.488653547267006" lon="10.766650877579197"><ele>127.0</ele><time>2026-04-26T10:42:01Z</time></trkpt><trkpt lat="45.48839939120527" lon="10.766584243364179"><ele>127.0</ele><time>2026-04-26T10:42:02Z</time></trkpt><trkpt lat="45.48815164844583" lon="10.766517325636629"><ele>127.0</ele><time>2026-04-26T10:42:03Z</time></trkpt><trkpt lat="45.487890397241074" lon="10.766447686008766"><ele>129.0</ele><time>2026-04-26T10:42:04Z</time></trkpt><trkpt lat="45.48763459821701" lon="10.766379979719998"><ele>131.0</ele><time>2026-04-26T10:42:05Z</time></trkpt><trkpt lat="45.48737635648829" lon="10.76631510560017"><ele>131.0</ele><time>2026-04-26T10:42:06Z</time></trkpt><trkpt lat="45.48712706352922" lon="10.76625315084889"><ele>131.0</ele><time>2026-04-26T10:42:07Z</time></trkpt><trkpt lat="45.48687584421366" lon="10.766186439416597"><ele>130.5</ele><time>2026-04-26T10:42:08Z</time></trkpt><trkpt lat="45.486631121813325" lon="10.766124156857906"><ele>130.0</ele><time>2026-04-26T10:42:09Z</time></trkpt><trkpt lat="45.48637865621924" lon="10.766060095872083"><ele>127.5</ele><time>2026-04-26T10:42:10Z</time></trkpt><trkpt lat="45.48613245239724" lon="10.765993810111258"><ele>125.0</ele><time>2026-04-26T10:42:11Z</time></trkpt><trkpt lat="45.485884134125314" lon="10.765927646058435"><ele>125.0</ele><time>2026-04-26T10:42:12Z</time></trkpt><trkpt lat="45.485635206231" lon="10.765858349548244"><ele>125.0</ele><time>2026-04-26T10:42:12.999Z</time></trkpt><trkpt lat="45.48538734800218" lon="10.765792266531877"><ele>123.5</ele><time>2026-04-26T10:42:13.999Z</time></trkpt><trkpt lat="45.48513863028194" lon="10.765728686121728"><ele>122.0</ele><time>2026-04-26T10:42:14.999Z</time></trkpt><trkpt lat="45.48489675422026" lon="10.765669477362929"><ele>122.0</ele><time>2026-04-26T10:42:15.999Z</time></trkpt><trkpt lat="45.48465686907799" lon="10.765607431247487"><ele>122.0</ele><time>2026-04-26T10:42:16.999Z</time></trkpt><trkpt lat="45.484424950032555" lon="10.765544471074536"><ele>122.0</ele><time>2026-04-26T10:42:17.999Z</time></trkpt><trkpt lat="45.484198428545476" lon="10.765480126844693"><ele>122.0</ele><time>2026-04-26T10:42:18.999Z</time></trkpt><trkpt lat="45.4839667924711" lon="10.765420615605509"><ele>122.0</ele><time>2026-04-26T10:42:19.999Z</time></trkpt><trkpt lat="45.48372367125448" lon="10.765351703178869"><ele>122.0</ele><time>2026-04-26T10:42:20.999Z</time></trkpt><trkpt lat="45.48347540668722" lon="10.765281858677167"><ele>122.0</ele><time>2026-04-26T10:42:21.999Z</time></trkpt><trkpt lat="45.48321729834958" lon="10.765216603509623"><ele>122.0</ele><time>2026-04-26T10:42:22.999Z</time></trkpt><trkpt lat="45.48295666189107" lon="10.765147230977576"><ele>121.0</ele><time>2026-04-26T10:42:23.999Z</time></trkpt><trkpt lat="45.48269119549196" lon="10.76507547583999"><ele>120.0</ele><time>2026-04-26T10:42:24.999Z</time></trkpt><trkpt lat="45.482427304842325" lon="10.765005845152205"><ele>120.0</ele><time>2026-04-26T10:42:25.999Z</time></trkpt><trkpt lat="45.482170384106176" lon="10.764937091291014"><ele>120.0</ele><time>2026-04-26T10:42:26.999Z</time></trkpt><trkpt lat="45.4819214416069" lon="10.764872731198741"><ele>121.0</ele><time>2026-04-26T10:42:27.999Z</time></trkpt><trkpt lat="45.481674340427865" lon="10.76480934683972"><ele>122.0</ele><time>2026-04-26T10:42:28.999Z</time></trkpt><trkpt lat="45.481423617830785" lon="10.764746235000809"><ele>120.0</ele><time>2026-04-26T10:42:29.999Z</time></trkpt><trkpt lat="45.48116701813555" lon="10.764680490741023"><ele>118.0</ele><time>2026-04-26T10:42:30.999Z</time></trkpt><trkpt lat="45.48091563916003" lon="10.764610761124139"><ele>118.0</ele><time>2026-04-26T10:42:31.999Z</time></trkpt><trkpt lat="45.480662457278584" lon="10.764540384260377"><ele>118.0</ele><time>2026-04-26T10:42:32.999Z</time></trkpt><trkpt lat="45.48040899546659" lon="10.764471864520718"><ele>118.5</ele><time>2026-04-26T10:42:34.001Z</time></trkpt><trkpt lat="45.48015557473119" lon="10.764404505556088"><ele>119.0</ele><time>2026-04-26T10:42:35.001Z</time></trkpt><trkpt lat="45.479908525106055" lon="10.7643390573391"><ele>119.0</ele><time>2026-04-26T10:42:36.001Z</time></trkpt><trkpt lat="45.479671843073795" lon="10.764276865785588"><ele>119.0</ele><time>2026-04-26T10:42:37Z</time></trkpt><trkpt lat="45.479431673697775" lon="10.764213934161232"><ele>118.0</ele><time>2026-04-26T10:42:38Z</time></trkpt><trkpt lat="45.47918401536553" lon="10.764149310861969"><ele>117.0</ele><time>2026-04-26T10:42:39Z</time></trkpt><trkpt lat="45.47894284300731" lon="10.76408557609479"><ele>116.5</ele><time>2026-04-26T10:42:40Z</time></trkpt><trkpt lat="45.47870106114166" lon="10.764022235183136"><ele>116.0</ele><time>2026-04-26T10:42:41Z</time></trkpt><trkpt lat="45.47845357939544" lon="10.763958008255553"><ele>116.0</ele><time>2026-04-26T10:42:42Z</time></trkpt><trkpt lat="45.47821106979558" lon="10.763895788390169"><ele>116.0</ele><time>2026-04-26T10:42:43Z</time></trkpt><trkpt lat="45.47796256028299" lon="10.76383247478743"><ele>117.5</ele><time>2026-04-26T10:42:44Z</time></trkpt><trkpt lat="45.477715435012996" lon="10.763770510539734"><ele>119.0</ele><time>2026-04-26T10:42:45Z</time></trkpt><trkpt lat="45.47746097488964" lon="10.763701805088933"><ele>119.0</ele><time>2026-04-26T10:42:46Z</time></trkpt><trkpt lat="45.47721633215443" lon="10.76363231907268"><ele>119.0</ele><time>2026-04-26T10:42:47Z</time></trkpt><trkpt lat="45.47696212097929" lon="10.763553740233935"><ele>118.5</ele><time>2026-04-26T10:42:48Z</time></trkpt><trkpt lat="45.47669213882896" lon="10.763466819134463"><ele>118.0</ele><time>2026-04-26T10:42:49Z</time></trkpt><trkpt lat="45.476408401414226" lon="10.763373581118273"><ele>120.5</ele><time>2026-04-26T10:42:50Z</time></trkpt><trkpt lat="45.47613990687103" lon="10.763279572017844"><ele>123.0</ele><time>2026-04-26T10:42:51Z</time></trkpt><trkpt lat="45.47590050456232" lon="10.76319659749064"><ele>123.0</ele><time>2026-04-26T10:42:52Z</time></trkpt><trkpt lat="45.47566176876344" lon="10.763106522845321"><ele>123.0</ele><time>2026-04-26T10:42:53Z</time></trkpt><trkpt lat="45.47541658652318" lon="10.763018987820141"><ele>123.5</ele><time>2026-04-26T10:42:54Z</time></trkpt><trkpt lat="45.4751699582013" lon="10.762927891050282"><ele>124.0</ele><time>2026-04-26T10:42:55Z</time></trkpt><trkpt lat="45.47491634088974" lon="10.762831761273983"><ele>124.0</ele><time>2026-04-26T10:42:56Z</time></trkpt><trkpt lat="45.47466364469002" lon="10.762738416024167"><ele>124.0</ele><time>2026-04-26T10:42:57Z</time></trkpt><trkpt lat="45.47441737439738" lon="10.762647678386056"><ele>124.0</ele><time>2026-04-26T10:42:58Z</time></trkpt><trkpt lat="45.47416778391309" lon="10.762557168596352"><ele>124.0</ele><time>2026-04-26T10:42:59Z</time></trkpt><trkpt lat="45.47392876831209" lon="10.762472318518709"><ele>122.5</ele><time>2026-04-26T10:43:00Z</time></trkpt><trkpt lat="45.47369199581679" lon="10.762388881024865"><ele>121.0</ele><time>2026-04-26T10:43:01Z</time></trkpt><trkpt lat="45.47344654216237" lon="10.762301073715069"><ele>121.0</ele><time>2026-04-26T10:43:02Z</time></trkpt><trkpt lat="45.47319628664071" lon="10.762211251680064"><ele>121.0</ele><time>2026-04-26T10:43:03Z</time></trkpt><trkpt lat="45.47294982001112" lon="10.762121729280347"><ele>121.0</ele><time>2026-04-26T10:43:04Z</time></trkpt><trkpt lat="45.472702800808804" lon="10.76204337714747"><ele>121.0</ele><time>2026-04-26T10:43:05Z</time></trkpt><trkpt lat="45.47246067140727" lon="10.76194352845123"><ele>120.5</ele><time>2026-04-26T10:43:06Z</time></trkpt><trkpt lat="45.472219148821246" lon="10.761854909806589"><ele>120.0</ele><time>2026-04-26T10:43:07Z</time></trkpt><trkpt lat="45.47197805155157" lon="10.761768115970995"><ele>119.0</ele><time>2026-04-26T10:43:08Z</time></trkpt><trkpt lat="45.47173896054268" lon="10.761681227589944"><ele>118.0</ele><time>2026-04-26T10:43:09Z</time></trkpt><trkpt lat="45.47150061639191" lon="10.761589485957021"><ele>117.0</ele><time>2026-04-26T10:43:10Z</time></trkpt><trkpt lat="45.47125882243003" lon="10.761510626119016"><ele>116.0</ele><time>2026-04-26T10:43:11Z</time></trkpt><trkpt lat="45.471028255136474" lon="10.761433878310413"><ele>116.0</ele><time>2026-04-26T10:43:11.999Z</time></trkpt><trkpt lat="45.470797261488194" lon="10.761364346139564"><ele>116.0</ele><time>2026-04-26T10:43:12.999Z</time></trkpt><trkpt lat="45.470559442145955" lon="10.761291950265571"><ele>114.0</ele><time>2026-04-26T10:43:13.999Z</time></trkpt><trkpt lat="45.47032418864514" lon="10.761225769809677"><ele>112.0</ele><time>2026-04-26T10:43:14.999Z</time></trkpt><trkpt lat="45.47008585828238" lon="10.761162525142451"><ele>112.0</ele><time>2026-04-26T10:43:15.999Z</time></trkpt><trkpt lat="45.46984840206686" lon="10.761102987547174"><ele>112.0</ele><time>2026-04-26T10:43:16.999Z</time></trkpt><trkpt lat="45.46962188381354" lon="10.76104654851679"><ele>113.5</ele><time>2026-04-26T10:43:17.999Z</time></trkpt><trkpt lat="45.469375481060794" lon="10.76098369764368"><ele>115.0</ele><time>2026-04-26T10:43:18.999Z</time></trkpt><trkpt lat="45.46913490681386" lon="10.760923031110211"><ele>115.0</ele><time>2026-04-26T10:43:19.999Z</time></trkpt><trkpt lat="45.46891988140224" lon="10.760866729591626"><ele>115.0</ele><time>2026-04-26T10:43:20.999Z</time></trkpt><trkpt lat="45.46871514146126" lon="10.760810876446223"><ele>115.0</ele><time>2026-04-26T10:43:21.999Z</time></trkpt><trkpt lat="45.46852933103874" lon="10.76075734735435"><ele>114.66666666666667</ele><time>2026-04-26T10:43:22.999Z</time></trkpt><trkpt lat="45.46835341194267" lon="10.760706440171855"><ele>114.33333333333334</ele><time>2026-04-26T10:43:23.999Z</time></trkpt><trkpt lat="45.46817858266954" lon="10.760655152103013"><ele>114.0</ele><time>2026-04-26T10:43:24.999Z</time></trkpt><trkpt lat="45.46801529289421" lon="10.760612429148459"><ele>115.25</ele><time>2026-04-26T10:43:25.999Z</time></trkpt><trkpt lat="45.46786795205501" lon="10.760578879235203"><ele>116.5</ele><time>2026-04-26T10:43:26.999Z</time></trkpt><trkpt lat="45.4677367985519" lon="10.760538978166895"><ele>117.75</ele><time>2026-04-26T10:43:27.999Z</time></trkpt><trkpt lat="45.46762968953577" lon="10.760477489869086"><ele>119.0</ele><time>2026-04-26T10:43:28.999Z</time></trkpt><trkpt lat="45.46754546893257" lon="10.760374708761388"><ele>119.0</ele><time>2026-04-26T10:43:29.999Z</time></trkpt><trkpt lat="45.467492176087646" lon="10.7602212594882"><ele>119.0</ele><time>2026-04-26T10:43:30.999Z</time></trkpt><trkpt lat="45.46748045683953" lon="10.760025767456574"><ele>119.0</ele><time>2026-04-26T10:43:31.999Z</time></trkpt><trkpt lat="45.46748777451435" lon="10.75983490262564"><ele>119.0</ele><time>2026-04-26T10:43:32.999Z</time></trkpt><trkpt lat="45.46746427516141" lon="10.75968382909395"><ele>119.0</ele><time>2026-04-26T10:43:33.999Z</time></trkpt><trkpt lat="45.46738532232579" lon="10.759553995987423"><ele>119.0</ele><time>2026-04-26T10:43:34.999Z</time></trkpt><trkpt lat="45.46726182141334" lon="10.759420994009096"><ele>119.0</ele><time>2026-04-26T10:43:35.999Z</time></trkpt><trkpt lat="45.46713357657111" lon="10.759296949755685"><ele>119.0</ele><time>2026-04-26T10:43:36.999Z</time></trkpt><trkpt lat="45.46702883085897" lon="10.759193713735264"><ele>119.49999999999999</ele><time>2026-04-26T10:43:37.999Z</time></trkpt><trkpt lat="45.466941601386765" lon="10.759105974097434"><ele>120.0</ele><time>2026-04-26T10:43:38.999Z</time></trkpt><trkpt lat="45.46686491351182" lon="10.759028698710582"><ele>120.5</ele><time>2026-04-26T10:43:39.999Z</time></trkpt><trkpt lat="45.466802392764016" lon="10.758949139713282"><ele>121.0</ele><time>2026-04-26T10:43:40.999Z</time></trkpt><trkpt lat="45.466755486436774" lon="10.758871955482084"><ele>121.49999999999999</ele><time>2026-04-26T10:43:41.999Z</time></trkpt><trkpt lat="45.46672548319682" lon="10.758779733964106"><ele>122.0</ele><time>2026-04-26T10:43:43.999Z</time></trkpt><trkpt lat="45.46675187072359" lon="10.758575859822932"><ele>121.75</ele><time>2026-04-26T10:43:45.999Z</time></trkpt><trkpt lat="45.46679689582544" lon="10.75842820088937"><ele>121.5</ele><time>2026-04-26T10:43:46.999Z</time></trkpt><trkpt lat="45.46684124655436" lon="10.758275434418588"><ele>121.25</ele><time>2026-04-26T10:43:47.999Z</time></trkpt><trkpt lat="45.46688346797935" lon="10.758100250966642"><ele>121.0</ele><time>2026-04-26T10:43:48.999Z</time></trkpt><trkpt lat="45.46692967572343" lon="10.757887568588588"><ele>120.66666666666667</ele><time>2026-04-26T10:43:49.999Z</time></trkpt><trkpt lat="45.466972439340985" lon="10.757675305850812"><ele>120.33333333333334</ele><time>2026-04-26T10:43:50.999Z</time></trkpt><trkpt lat="45.46701674169938" lon="10.757442998521771"><ele>120.0</ele><time>2026-04-26T10:43:51.999Z</time></trkpt><trkpt lat="45.46706251370834" lon="10.7572075424334"><ele>120.0</ele><time>2026-04-26T10:43:52.999Z</time></trkpt><trkpt lat="45.46711134414469" lon="10.75696246249716"><ele>120.0</ele><time>2026-04-26T10:43:53.999Z</time></trkpt><trkpt lat="45.46715804317713" lon="10.756733547142646"><ele>120.0</ele><time>2026-04-26T10:43:54.999Z</time></trkpt><trkpt lat="45.46720414527553" lon="10.756521605075402"><ele>120.0</ele><time>2026-04-26T10:43:55.999Z</time></trkpt><trkpt lat="45.46724929543995" lon="10.75632434177123"><ele>120.0</ele><time>2026-04-26T10:43:56.999Z</time></trkpt><trkpt lat="45.46729347636591" lon="10.756151263967416"><ele>120.0</ele><time>2026-04-26T10:43:57.999Z</time></trkpt><trkpt lat="45.46735293167232" lon="10.75598677328551"><ele>120.0</ele><time>2026-04-26T10:43:58.999Z</time></trkpt><trkpt lat="45.46744157559103" lon="10.755825193691102"><ele>119.66666666666666</ele><time>2026-04-26T10:43:59.999Z</time></trkpt><trkpt lat="45.467549487487936" lon="10.755672584602815"><ele>119.33333333333333</ele><time>2026-04-26T10:44:00.999Z</time></trkpt><trkpt lat="45.46766023511061" lon="10.75551979185935"><ele>119.0</ele><time>2026-04-26T10:44:01.999Z</time></trkpt><trkpt lat="45.46776763112197" lon="10.755362861501279"><ele>119.0</ele><time>2026-04-26T10:44:02.999Z</time></trkpt><trkpt lat="45.46787216832102" lon="10.755204229760686"><ele>119.0</ele><time>2026-04-26T10:44:03.999Z</time></trkpt><trkpt lat="45.4679675629543" lon="10.755070701356649"><ele>119.0</ele><time>2026-04-26T10:44:04.999Z</time></trkpt><trkpt lat="45.4680598549699" lon="10.754935918444325"><ele>119.0</ele><time>2026-04-26T10:44:05.999Z</time></trkpt><trkpt lat="45.468150246231325" lon="10.754808760945895"><ele>118.33333333333333</ele><time>2026-04-26T10:44:06.999Z</time></trkpt><trkpt lat="45.468250071985246" lon="10.75466532344181"><ele>117.66666666666666</ele><time>2026-04-26T10:44:07.999Z</time></trkpt><trkpt lat="45.46836321920453" lon="10.754506227206786"><ele>117.0</ele><time>2026-04-26T10:44:08.999Z</time></trkpt><trkpt lat="45.46848835687781" lon="10.75434340448146"><ele>116.66666666666666</ele><time>2026-04-26T10:44:09.999Z</time></trkpt><trkpt lat="45.468630014617" lon="10.754183504991012"><ele>116.33333333333333</ele><time>2026-04-26T10:44:10.999Z</time></trkpt><trkpt lat="45.46879265034751" lon="10.754024964978063"><ele>116.0</ele><time>2026-04-26T10:44:11.999Z</time></trkpt><trkpt lat="45.46894610404438" lon="10.753875072459845"><ele>115.66666666666666</ele><time>2026-04-26T10:44:12.999Z</time></trkpt><trkpt lat="45.46908713058107" lon="10.753739465024601"><ele>115.33333333333334</ele><time>2026-04-26T10:44:13.999Z</time></trkpt><trkpt lat="45.46922227196629" lon="10.753608144799006"><ele>115.0</ele><time>2026-04-26T10:44:14.999Z</time></trkpt><trkpt lat="45.469346031803134" lon="10.753490597061699"><ele>115.0</ele><time>2026-04-26T10:44:15.999Z</time></trkpt><trkpt lat="45.46947138962229" lon="10.75337031361054"><ele>115.0</ele><time>2026-04-26T10:44:16.999Z</time></trkpt><trkpt lat="45.46959807153548" lon="10.753249053489313"><ele>115.0</ele><time>2026-04-26T10:44:17.999Z</time></trkpt><trkpt lat="45.469724787860436" lon="10.753128088502828"><ele>115.0</ele><time>2026-04-26T10:44:18.999Z</time></trkpt><trkpt lat="45.46984124636242" lon="10.753015374801356"><ele>115.0</ele><time>2026-04-26T10:44:19.999Z</time></trkpt><trkpt lat="45.46994737788601" lon="10.75291111221563"><ele>115.0</ele><time>2026-04-26T10:44:20.999Z</time></trkpt><trkpt lat="45.47005021473205" lon="10.75280994331798"><ele>115.0</ele><time>2026-04-26T10:44:21.999Z</time></trkpt><trkpt lat="45.47014671722801" lon="10.752719611160934"><ele>114.5</ele><time>2026-04-26T10:44:22.999Z</time></trkpt><trkpt lat="45.4702485773098" lon="10.752624313369202"><ele>114.0</ele><time>2026-04-26T10:44:23.999Z</time></trkpt><trkpt lat="45.4703552520276" lon="10.752522940872746"><ele>113.5</ele><time>2026-04-26T10:44:24.999Z</time></trkpt><trkpt lat="45.47047448681029" lon="10.752406632906586"><ele>113.0</ele><time>2026-04-26T10:44:25.999Z</time></trkpt><trkpt lat="45.4706215318745" lon="10.752266771763386"><ele>114.25</ele><time>2026-04-26T10:44:26.999Z</time></trkpt><trkpt lat="45.470745906641405" lon="10.75214957627846"><ele>115.5</ele><time>2026-04-26T10:44:27.999Z</time></trkpt><trkpt lat="45.47085091111294" lon="10.752049303490763"><ele>116.75</ele><time>2026-04-26T10:44:28.999Z</time></trkpt><trkpt lat="45.47094850872094" lon="10.75195747565704"><ele>118.0</ele><time>2026-04-26T10:44:29.999Z</time></trkpt><trkpt lat="45.471036338927895" lon="10.751877277500258"><ele>118.2</ele><time>2026-04-26T10:44:30.999Z</time></trkpt><trkpt lat="45.47112204955807" lon="10.75179858493801"><ele>118.4</ele><time>2026-04-26T10:44:31.999Z</time></trkpt><trkpt lat="45.47121117640468" lon="10.751715964920143"><ele>118.60000000000001</ele><time>2026-04-26T10:44:32.999Z</time></trkpt><trkpt lat="45.471301026919875" lon="10.751632413531686"><ele>118.80000000000001</ele><time>2026-04-26T10:44:33.999Z</time></trkpt><trkpt lat="45.47139120142213" lon="10.751547722314957"><ele>119.0</ele><time>2026-04-26T10:44:34.999Z</time></trkpt><trkpt lat="45.471483771469096" lon="10.75145935677135"><ele>119.0</ele><time>2026-04-26T10:44:35.999Z</time></trkpt><trkpt lat="45.47156694584702" lon="10.751373592985331"><ele>119.0</ele><time>2026-04-26T10:44:36.999Z</time></trkpt><trkpt lat="45.471648990284606" lon="10.751304323243266"><ele>119.0</ele><time>2026-04-26T10:44:37.999Z</time></trkpt><trkpt lat="45.47171914362241" lon="10.75116554938946"><ele>119.0</ele><time>2026-04-26T10:44:38.999Z</time></trkpt><trkpt lat="45.47175651238789" lon="10.750984730293288"><ele>118.6</ele><time>2026-04-26T10:44:40Z</time></trkpt><trkpt lat="45.47180771294899" lon="10.750843057192862"><ele>118.2</ele><time>2026-04-26T10:44:41Z</time></trkpt><trkpt lat="45.471840286971364" lon="10.750706723014133"><ele>117.79999999999998</ele><time>2026-04-26T10:44:42Z</time></trkpt><trkpt lat="45.4718712942816" lon="10.750579242639448"><ele>117.39999999999999</ele><time>2026-04-26T10:44:43Z</time></trkpt><trkpt lat="45.471902599667175" lon="10.750448186863599"><ele>117.0</ele><time>2026-04-26T10:44:44Z</time></trkpt><trkpt lat="45.47193550780152" lon="10.7503063542585"><ele>117.19999999999999</ele><time>2026-04-26T10:44:45Z</time></trkpt><trkpt lat="45.471964790925206" lon="10.750161380890816"><ele>117.39999999999999</ele><time>2026-04-26T10:44:46Z</time></trkpt><trkpt lat="45.471990088410394" lon="10.750033714750607"><ele>117.60000000000001</ele><time>2026-04-26T10:44:47Z</time></trkpt><trkpt lat="45.472034935777565" lon="10.749912609499459"><ele>117.80000000000001</ele><time>2026-04-26T10:44:48Z</time></trkpt><trkpt lat="45.472096151951426" lon="10.749782778510433"><ele>118.0</ele><time>2026-04-26T10:44:49Z</time></trkpt><trkpt lat="45.4721519729475" lon="10.749633576909323"><ele>117.80000000000001</ele><time>2026-04-26T10:44:50Z</time></trkpt><trkpt lat="45.47222190603369" lon="10.749530217448838"><ele>117.60000000000001</ele><time>2026-04-26T10:44:51Z</time></trkpt><trkpt lat="45.472275072611" lon="10.749426763624582"><ele>117.39999999999999</ele><time>2026-04-26T10:44:52Z</time></trkpt><trkpt lat="45.472332576722394" lon="10.749310981343243"><ele>117.19999999999999</ele><time>2026-04-26T10:44:53Z</time></trkpt><trkpt lat="45.47238909551102" lon="10.749189671179206"><ele>117.0</ele><time>2026-04-26T10:44:54Z</time></trkpt><trkpt lat="45.472435815938596" lon="10.749061890565544"><ele>117.0</ele><time>2026-04-26T10:44:55Z</time></trkpt><trkpt lat="45.472463617020715" lon="10.748893960381956"><ele>117.0</ele><time>2026-04-26T10:44:56Z</time></trkpt><trkpt lat="45.47248677566834" lon="10.748726981994812"><ele>117.0</ele><time>2026-04-26T10:44:57Z</time></trkpt><trkpt lat="45.47250576720153" lon="10.748560626590551"><ele>117.0</ele><time>2026-04-26T10:44:58Z</time></trkpt><trkpt lat="45.4725249839053" lon="10.748417638762303"><ele>117.39999999999999</ele><time>2026-04-26T10:44:59Z</time></trkpt><trkpt lat="45.47254453160563" lon="10.748284767851228"><ele>117.79999999999998</ele><time>2026-04-26T10:45:00Z</time></trkpt><trkpt lat="45.47253645765693" lon="10.748134735229009"><ele>118.2</ele><time>2026-04-26T10:45:01Z</time></trkpt><trkpt lat="45.47255956583391" lon="10.747979318099373"><ele>118.6</ele><time>2026-04-26T10:45:02Z</time></trkpt><trkpt lat="45.47258246043081" lon="10.7478413656521"><ele>119.0</ele><time>2026-04-26T10:45:03Z</time></trkpt><trkpt lat="45.472606836897306" lon="10.747717924075852"><ele>118.80000000000001</ele><time>2026-04-26T10:45:04Z</time></trkpt><trkpt lat="45.47263806737736" lon="10.747588891182184"><ele>118.60000000000001</ele><time>2026-04-26T10:45:05Z</time></trkpt><trkpt lat="45.472708138826086" lon="10.747478051275666"><ele>118.4</ele><time>2026-04-26T10:45:06Z</time></trkpt><trkpt lat="45.47275999011121" lon="10.74732876734886"><ele>118.2</ele><time>2026-04-26T10:45:07Z</time></trkpt><trkpt lat="45.47283915405556" lon="10.74719667595052"><ele>118.0</ele><time>2026-04-26T10:45:08Z</time></trkpt><trkpt lat="45.47290336011518" lon="10.747083288342418"><ele>119.0</ele><time>2026-04-26T10:45:09Z</time></trkpt><trkpt lat="45.47297211944975" lon="10.746966490474133"><ele>120.00000000000001</ele><time>2026-04-26T10:45:10Z</time></trkpt><trkpt lat="45.47304216863885" lon="10.746839907944844"><ele>121.00000000000001</ele><time>2026-04-26T10:45:11Z</time></trkpt><trkpt lat="45.473112632304336" lon="10.746705451021558"><ele>122.0</ele><time>2026-04-26T10:45:12Z</time></trkpt><trkpt lat="45.473174111527435" lon="10.746580885438611"><ele>123.0</ele><time>2026-04-26T10:45:13Z</time></trkpt><trkpt lat="45.47323157862385" lon="10.746454445629675"><ele>123.0</ele><time>2026-04-26T10:45:14Z</time></trkpt><trkpt lat="45.4732888964522" lon="10.746321329389707"><ele>123.0</ele><time>2026-04-26T10:45:15Z</time></trkpt><trkpt lat="45.473336474832095" lon="10.746171476038455"><ele>123.0</ele><time>2026-04-26T10:45:16Z</time></trkpt><trkpt lat="45.473404928230245" lon="10.746004148102319"><ele>123.0</ele><time>2026-04-26T10:45:17Z</time></trkpt><trkpt lat="45.47345483879531" lon="10.745838484326534"><ele>122.60000000000001</ele><time>2026-04-26T10:45:18Z</time></trkpt><trkpt lat="45.47349184298673" lon="10.745702477098249"><ele>122.20000000000002</ele><time>2026-04-26T10:45:19Z</time></trkpt><trkpt lat="45.4735231567543" lon="10.745579126033084"><ele>121.8</ele><time>2026-04-26T10:45:20Z</time></trkpt><trkpt lat="45.47354580815277" lon="10.745439044934578"><ele>121.4</ele><time>2026-04-26T10:45:21Z</time></trkpt><trkpt lat="45.473564601213205" lon="10.745287229928154"><ele>121.0</ele><time>2026-04-26T10:45:22Z</time></trkpt><trkpt lat="45.473575980611905" lon="10.745133420238355"><ele>122.19999999999999</ele><time>2026-04-26T10:45:23Z</time></trkpt><trkpt lat="45.47356249889131" lon="10.745003665528802"><ele>123.39999999999999</ele><time>2026-04-26T10:45:24Z</time></trkpt><trkpt lat="45.47353913357843" lon="10.744888780500785"><ele>124.6</ele><time>2026-04-26T10:45:25Z</time></trkpt><trkpt lat="45.473469116375384" lon="10.744796755524051"><ele>125.8</ele><time>2026-04-26T10:45:26Z</time></trkpt><trkpt lat="45.47335420013124" lon="10.744799989871632"><ele>127.0</ele><time>2026-04-26T10:45:27Z</time></trkpt><trkpt lat="45.473260436804516" lon="10.744802017236493"><ele>127.00000000000001</ele><time>2026-04-26T10:45:28Z</time></trkpt><trkpt lat="45.47317840991016" lon="10.744794403471483"><ele>127.0</ele><time>2026-04-26T10:45:29Z</time></trkpt><trkpt lat="45.47312066016843" lon="10.744743898920799"><ele>127.0</ele><time>2026-04-26T10:45:30Z</time></trkpt><trkpt lat="45.47310044655256" lon="10.744631812811493"><ele>127.0</ele><time>2026-04-26T10:45:31Z</time></trkpt><trkpt lat="45.47309843911829" lon="10.74452631929306"><ele>127.00000000000001</ele><time>2026-04-26T10:45:32Z</time></trkpt><trkpt lat="45.47316120765628" lon="10.744403984713518"><ele>127.0</ele><time>2026-04-26T10:45:33Z</time></trkpt><trkpt lat="45.473188701293324" lon="10.744282917291068"><ele>128.0</ele><time>2026-04-26T10:45:34Z</time></trkpt><trkpt lat="45.47323692019907" lon="10.744173484884588"><ele>129.0</ele><time>2026-04-26T10:45:35Z</time></trkpt><trkpt lat="45.47326760983275" lon="10.74407766573632"><ele>130.0</ele><time>2026-04-26T10:45:36Z</time></trkpt><trkpt lat="45.47329959655838" lon="10.743983325454755"><ele>131.0</ele><time>2026-04-26T10:45:37Z</time></trkpt><trkpt lat="45.473341519379495" lon="10.743879242419188"><ele>132.0</ele><time>2026-04-26T10:45:38Z</time></trkpt><trkpt lat="45.47338378894894" lon="10.743783861989682"><ele>133.0</ele><time>2026-04-26T10:45:38.999Z</time></trkpt><trkpt lat="45.47345708949001" lon="10.743624815281594"><ele>133.0</ele><time>2026-04-26T10:45:40.999Z</time></trkpt><trkpt lat="45.47351808868605" lon="10.743572256858247"><ele>133.0</ele><time>2026-04-26T10:45:41.999Z</time></trkpt><trkpt lat="45.47357296424358" lon="10.743477733305724"><ele>134.0</ele><time>2026-04-26T10:45:43.999Z</time></trkpt><trkpt lat="45.47362933309404" lon="10.743401924683003"><ele>134.0</ele><time>2026-04-26T10:45:47.999Z</time></trkpt><trkpt lat="45.47370073614968" lon="10.743357083231476"><ele>134.0</ele><time>2026-04-26T10:45:50.999Z</time></trkpt><trkpt lat="45.47377237107375" lon="10.743326228610643"><ele>135.0</ele><time>2026-04-26T10:45:53.999Z</time></trkpt></trkseg></trk></gpx>